<?xml version="1.0" encoding="UTF-8" standalone="no" ?>
<gpx xmlns="http://www.topografix.com/GPX/1/1" xmlns:xsi="http://www.w3.org/2001/XMLSchema-instance" xsi:schemaLocation="http://www.topografix.com/GPX/1/1 http://www.topografix.com/GPX/1/1/gpx.xsd" version="1.1" creator="VisuGPX - https://www.visugpx.com">
  <metadata>
    <name>rando franco italienne</name>
    <desc><![CDATA[rando depart le boréon]]></desc>
  </metadata>
  <trk>
    <name><![CDATA[Rando franco-italienne]]></name>
    <desc><![CDATA[30 sept. 2010  9:11 am]]></desc>
    <trkseg>
      <trkpt lat="44.14531" lon="7.23358">
        <ele>2017.401986</ele>
        <time>2010-09-30T07:11:15Z</time>
      </trkpt>
      <trkpt lat="44.14534" lon="7.23359">
        <ele>2020.634592</ele>
        <time>2010-09-30T07:11:19Z</time>
      </trkpt>
      <trkpt lat="44.14537" lon="7.2336">
        <ele>2023.705956</ele>
        <time>2010-09-30T07:11:23Z</time>
      </trkpt>
      <trkpt lat="44.14543" lon="7.23364">
        <ele>2026.239277</ele>
        <time>2010-09-30T07:11:33Z</time>
      </trkpt>
      <trkpt lat="44.14547" lon="7.23368">
        <ele>2028.150082</ele>
        <time>2010-09-30T07:11:42Z</time>
      </trkpt>
      <trkpt lat="44.14551" lon="7.2337">
        <ele>2029.220929</ele>
        <time>2010-09-30T07:11:51Z</time>
      </trkpt>
      <trkpt lat="44.14555" lon="7.23371">
        <ele>2029.667498</ele>
        <time>2010-09-30T07:11:55Z</time>
      </trkpt>
      <trkpt lat="44.14557" lon="7.23372">
        <ele>2030.102909</ele>
        <time>2010-09-30T07:11:58Z</time>
      </trkpt>
      <trkpt lat="44.1456" lon="7.23374">
        <ele>2030.865923</ele>
        <time>2010-09-30T07:12:02Z</time>
      </trkpt>
      <trkpt lat="44.14563" lon="7.23377">
        <ele>2031.841277</ele>
        <time>2010-09-30T07:12:06Z</time>
      </trkpt>
      <trkpt lat="44.14566" lon="7.23379">
        <ele>2032.711784</ele>
        <time>2010-09-30T07:12:10Z</time>
      </trkpt>
      <trkpt lat="44.14569" lon="7.23379">
        <ele>2033.333406</ele>
        <time>2010-09-30T07:12:13Z</time>
      </trkpt>
      <trkpt lat="44.14572" lon="7.23379">
        <ele>2033.815258</ele>
        <time>2010-09-30T07:12:16Z</time>
      </trkpt>
      <trkpt lat="44.14575" lon="7.23379">
        <ele>2034.300715</ele>
        <time>2010-09-30T07:12:19Z</time>
      </trkpt>
      <trkpt lat="44.14579" lon="7.2338">
        <ele>2034.823606</ele>
        <time>2010-09-30T07:12:22Z</time>
      </trkpt>
      <trkpt lat="44.14582" lon="7.23382">
        <ele>2035.322051</ele>
        <time>2010-09-30T07:12:25Z</time>
      </trkpt>
      <trkpt lat="44.14585" lon="7.23385">
        <ele>2035.741901</ele>
        <time>2010-09-30T07:12:28Z</time>
      </trkpt>
      <trkpt lat="44.14587" lon="7.23388">
        <ele>2036.088213</ele>
        <time>2010-09-30T07:12:31Z</time>
      </trkpt>
      <trkpt lat="44.1459" lon="7.23391">
        <ele>2036.397911</ele>
        <time>2010-09-30T07:12:35Z</time>
      </trkpt>
      <trkpt lat="44.14592" lon="7.23393">
        <ele>2036.716991</ele>
        <time>2010-09-30T07:12:38Z</time>
      </trkpt>
      <trkpt lat="44.14594" lon="7.23395">
        <ele>2037.075493</ele>
        <time>2010-09-30T07:12:41Z</time>
      </trkpt>
      <trkpt lat="44.14598" lon="7.23398">
        <ele>2037.495763</ele>
        <time>2010-09-30T07:12:45Z</time>
      </trkpt>
      <trkpt lat="44.146" lon="7.23401">
        <ele>2037.968719</ele>
        <time>2010-09-30T07:12:49Z</time>
      </trkpt>
      <trkpt lat="44.14603" lon="7.23403">
        <ele>2038.436247</ele>
        <time>2010-09-30T07:12:52Z</time>
      </trkpt>
      <trkpt lat="44.14605" lon="7.23406">
        <ele>2038.869736</ele>
        <time>2010-09-30T07:12:55Z</time>
      </trkpt>
      <trkpt lat="44.14608" lon="7.23409">
        <ele>2039.303418</ele>
        <time>2010-09-30T07:12:58Z</time>
      </trkpt>
      <trkpt lat="44.1461" lon="7.23412">
        <ele>2039.782831</ele>
        <time>2010-09-30T07:13:01Z</time>
      </trkpt>
      <trkpt lat="44.14611" lon="7.23415">
        <ele>2040.330429</ele>
        <time>2010-09-30T07:13:04Z</time>
      </trkpt>
      <trkpt lat="44.14613" lon="7.23418">
        <ele>2040.924506</ele>
        <time>2010-09-30T07:13:07Z</time>
      </trkpt>
      <trkpt lat="44.14616" lon="7.23421">
        <ele>2041.513913</ele>
        <time>2010-09-30T07:13:11Z</time>
      </trkpt>
      <trkpt lat="44.14618" lon="7.23424">
        <ele>2042.056453</ele>
        <time>2010-09-30T07:13:15Z</time>
      </trkpt>
      <trkpt lat="44.14625" lon="7.2342">
        <ele>2042.537261</ele>
        <time>2010-09-30T07:13:25Z</time>
      </trkpt>
      <trkpt lat="44.1463" lon="7.23421">
        <ele>2042.995048</ele>
        <time>2010-09-30T07:13:29Z</time>
      </trkpt>
      <trkpt lat="44.14633" lon="7.23424">
        <ele>2043.529442</ele>
        <time>2010-09-30T07:13:32Z</time>
      </trkpt>
      <trkpt lat="44.14635" lon="7.23427">
        <ele>2044.608569</ele>
        <time>2010-09-30T07:13:35Z</time>
      </trkpt>
      <trkpt lat="44.14637" lon="7.2343">
        <ele>2046.619715</ele>
        <time>2010-09-30T07:13:39Z</time>
      </trkpt>
      <trkpt lat="44.1464" lon="7.23432">
        <ele>2049.116156</ele>
        <time>2010-09-30T07:13:43Z</time>
      </trkpt>
      <trkpt lat="44.14642" lon="7.23434">
        <ele>2051.396378</ele>
        <time>2010-09-30T07:13:46Z</time>
      </trkpt>
      <trkpt lat="44.14645" lon="7.23436">
        <ele>2053.388591</ele>
        <time>2010-09-30T07:13:49Z</time>
      </trkpt>
      <trkpt lat="44.14649" lon="7.23439">
        <ele>2055.347132</ele>
        <time>2010-09-30T07:13:54Z</time>
      </trkpt>
      <trkpt lat="44.14652" lon="7.23441">
        <ele>2057.339282</ele>
        <time>2010-09-30T07:13:58Z</time>
      </trkpt>
      <trkpt lat="44.14655" lon="7.23444">
        <ele>2059.214044</ele>
        <time>2010-09-30T07:14:02Z</time>
      </trkpt>
      <trkpt lat="44.14657" lon="7.23448">
        <ele>2061.054864</ele>
        <time>2010-09-30T07:14:06Z</time>
      </trkpt>
      <trkpt lat="44.14659" lon="7.23452">
        <ele>2063.055896</ele>
        <time>2010-09-30T07:14:10Z</time>
      </trkpt>
      <trkpt lat="44.1466" lon="7.23455">
        <ele>2065.105046</ele>
        <time>2010-09-30T07:14:13Z</time>
      </trkpt>
      <trkpt lat="44.14662" lon="7.23459">
        <ele>2066.969251</ele>
        <time>2010-09-30T07:14:16Z</time>
      </trkpt>
      <trkpt lat="44.14663" lon="7.23463">
        <ele>2068.589816</ele>
        <time>2010-09-30T07:14:19Z</time>
      </trkpt>
      <trkpt lat="44.14664" lon="7.23467">
        <ele>2069.956626</ele>
        <time>2010-09-30T07:14:22Z</time>
      </trkpt>
      <trkpt lat="44.14666" lon="7.23471">
        <ele>2071.074091</ele>
        <time>2010-09-30T07:14:25Z</time>
      </trkpt>
      <trkpt lat="44.14669" lon="7.23473">
        <ele>2072.021366</ele>
        <time>2010-09-30T07:14:28Z</time>
      </trkpt>
      <trkpt lat="44.14672" lon="7.23473">
        <ele>2072.906115</ele>
        <time>2010-09-30T07:14:31Z</time>
      </trkpt>
      <trkpt lat="44.14675" lon="7.23473">
        <ele>2073.76779</ele>
        <time>2010-09-30T07:14:34Z</time>
      </trkpt>
      <trkpt lat="44.14679" lon="7.23474">
        <ele>2074.600574</ele>
        <time>2010-09-30T07:14:37Z</time>
      </trkpt>
      <trkpt lat="44.14682" lon="7.23475">
        <ele>2075.400715</ele>
        <time>2010-09-30T07:14:40Z</time>
      </trkpt>
      <trkpt lat="44.14685" lon="7.23475">
        <ele>2076.164465</ele>
        <time>2010-09-30T07:14:45Z</time>
      </trkpt>
      <trkpt lat="44.14685" lon="7.23479">
        <ele>2076.876118</ele>
        <time>2010-09-30T07:14:53Z</time>
      </trkpt>
      <trkpt lat="44.14685" lon="7.23483">
        <ele>2077.529052</ele>
        <time>2010-09-30T07:14:57Z</time>
      </trkpt>
      <trkpt lat="44.14686" lon="7.23487">
        <ele>2078.231266</ele>
        <time>2010-09-30T07:15:01Z</time>
      </trkpt>
      <trkpt lat="44.14687" lon="7.23492">
        <ele>2079.237666</ele>
        <time>2010-09-30T07:15:05Z</time>
      </trkpt>
      <trkpt lat="44.14687" lon="7.23496">
        <ele>2080.532637</ele>
        <time>2010-09-30T07:15:08Z</time>
      </trkpt>
      <trkpt lat="44.14686" lon="7.235">
        <ele>2081.716142</ele>
        <time>2010-09-30T07:15:11Z</time>
      </trkpt>
      <trkpt lat="44.14686" lon="7.23504">
        <ele>2082.561668</ele>
        <time>2010-09-30T07:15:16Z</time>
      </trkpt>
      <trkpt lat="44.14686" lon="7.23508">
        <ele>2083.165623</ele>
        <time>2010-09-30T07:15:22Z</time>
      </trkpt>
      <trkpt lat="44.14683" lon="7.23511">
        <ele>2083.634922</ele>
        <time>2010-09-30T07:15:28Z</time>
      </trkpt>
      <trkpt lat="44.1468" lon="7.23512">
        <ele>2084.081453</ele>
        <time>2010-09-30T07:15:33Z</time>
      </trkpt>
      <trkpt lat="44.14678" lon="7.23515">
        <ele>2084.580394</ele>
        <time>2010-09-30T07:15:37Z</time>
      </trkpt>
      <trkpt lat="44.14676" lon="7.23518">
        <ele>2085.027548</ele>
        <time>2010-09-30T07:15:40Z</time>
      </trkpt>
      <trkpt lat="44.14674" lon="7.23521">
        <ele>2085.275711</ele>
        <time>2010-09-30T07:15:45Z</time>
      </trkpt>
      <trkpt lat="44.14671" lon="7.23524">
        <ele>2085.334916</ele>
        <time>2010-09-30T07:15:49Z</time>
      </trkpt>
      <trkpt lat="44.14668" lon="7.23527">
        <ele>2085.291053</ele>
        <time>2010-09-30T07:15:52Z</time>
      </trkpt>
      <trkpt lat="44.14665" lon="7.23529">
        <ele>2085.183319</ele>
        <time>2010-09-30T07:15:55Z</time>
      </trkpt>
      <trkpt lat="44.14662" lon="7.23532">
        <ele>2085.028741</ele>
        <time>2010-09-30T07:15:58Z</time>
      </trkpt>
      <trkpt lat="44.14658" lon="7.23534">
        <ele>2084.867409</ele>
        <time>2010-09-30T07:16:01Z</time>
      </trkpt>
      <trkpt lat="44.14655" lon="7.23536">
        <ele>2084.738882</ele>
        <time>2010-09-30T07:16:04Z</time>
      </trkpt>
      <trkpt lat="44.14653" lon="7.23541">
        <ele>2084.645183</ele>
        <time>2010-09-30T07:16:07Z</time>
      </trkpt>
      <trkpt lat="44.1465" lon="7.23546">
        <ele>2084.576105</ele>
        <time>2010-09-30T07:16:10Z</time>
      </trkpt>
      <trkpt lat="44.14648" lon="7.2355">
        <ele>2084.537499</ele>
        <time>2010-09-30T07:16:13Z</time>
      </trkpt>
      <trkpt lat="44.14646" lon="7.23554">
        <ele>2084.52815</ele>
        <time>2010-09-30T07:16:16Z</time>
      </trkpt>
      <trkpt lat="44.14644" lon="7.2356">
        <ele>2084.538192</ele>
        <time>2010-09-30T07:16:19Z</time>
      </trkpt>
      <trkpt lat="44.14641" lon="7.23568">
        <ele>2084.567517</ele>
        <time>2010-09-30T07:16:22Z</time>
      </trkpt>
      <trkpt lat="44.1464" lon="7.23576">
        <ele>2084.623162</ele>
        <time>2010-09-30T07:16:25Z</time>
      </trkpt>
      <trkpt lat="44.14639" lon="7.23581">
        <ele>2084.738318</ele>
        <time>2010-09-30T07:16:27Z</time>
      </trkpt>
      <trkpt lat="44.14638" lon="7.2359">
        <ele>2084.989389</ele>
        <time>2010-09-30T07:16:30Z</time>
      </trkpt>
      <trkpt lat="44.14639" lon="7.23597">
        <ele>2085.452441</ele>
        <time>2010-09-30T07:16:33Z</time>
      </trkpt>
      <trkpt lat="44.1464" lon="7.23602">
        <ele>2086.095739</ele>
        <time>2010-09-30T07:16:36Z</time>
      </trkpt>
      <trkpt lat="44.14642" lon="7.23605">
        <ele>2086.824504</ele>
        <time>2010-09-30T07:16:39Z</time>
      </trkpt>
      <trkpt lat="44.14645" lon="7.23608">
        <ele>2087.646458</ele>
        <time>2010-09-30T07:16:42Z</time>
      </trkpt>
      <trkpt lat="44.14649" lon="7.23611">
        <ele>2088.647113</ele>
        <time>2010-09-30T07:16:45Z</time>
      </trkpt>
      <trkpt lat="44.14653" lon="7.23614">
        <ele>2089.822367</ele>
        <time>2010-09-30T07:16:48Z</time>
      </trkpt>
      <trkpt lat="44.14657" lon="7.23616">
        <ele>2091.069757</ele>
        <time>2010-09-30T07:16:51Z</time>
      </trkpt>
      <trkpt lat="44.14661" lon="7.23617">
        <ele>2092.299895</ele>
        <time>2010-09-30T07:16:53Z</time>
      </trkpt>
      <trkpt lat="44.14664" lon="7.23618">
        <ele>2093.49202</ele>
        <time>2010-09-30T07:16:55Z</time>
      </trkpt>
      <trkpt lat="44.14668" lon="7.23619">
        <ele>2094.650734</ele>
        <time>2010-09-30T07:16:58Z</time>
      </trkpt>
      <trkpt lat="44.14674" lon="7.23619">
        <ele>2095.721766</ele>
        <time>2010-09-30T07:17:01Z</time>
      </trkpt>
      <trkpt lat="44.14677" lon="7.23619">
        <ele>2096.612823</ele>
        <time>2010-09-30T07:17:03Z</time>
      </trkpt>
      <trkpt lat="44.14683" lon="7.23618">
        <ele>2097.357917</ele>
        <time>2010-09-30T07:17:06Z</time>
      </trkpt>
      <trkpt lat="44.14686" lon="7.23616">
        <ele>2098.110937</ele>
        <time>2010-09-30T07:17:08Z</time>
      </trkpt>
      <trkpt lat="44.14689" lon="7.23615">
        <ele>2098.916118</ele>
        <time>2010-09-30T07:17:10Z</time>
      </trkpt>
      <trkpt lat="44.14694" lon="7.23613">
        <ele>2099.747631</ele>
        <time>2010-09-30T07:17:13Z</time>
      </trkpt>
      <trkpt lat="44.14697" lon="7.23612">
        <ele>2100.613934</ele>
        <time>2010-09-30T07:17:15Z</time>
      </trkpt>
      <trkpt lat="44.14701" lon="7.23611">
        <ele>2101.481997</ele>
        <time>2010-09-30T07:17:18Z</time>
      </trkpt>
      <trkpt lat="44.14704" lon="7.23609">
        <ele>2102.358914</ele>
        <time>2010-09-30T07:17:21Z</time>
      </trkpt>
      <trkpt lat="44.14707" lon="7.23607">
        <ele>2103.296865</ele>
        <time>2010-09-30T07:17:24Z</time>
      </trkpt>
      <trkpt lat="44.1471" lon="7.23606">
        <ele>2104.292859</ele>
        <time>2010-09-30T07:17:27Z</time>
      </trkpt>
      <trkpt lat="44.14713" lon="7.23606">
        <ele>2105.36345</ele>
        <time>2010-09-30T07:17:30Z</time>
      </trkpt>
      <trkpt lat="44.14716" lon="7.23607">
        <ele>2106.521449</ele>
        <time>2010-09-30T07:17:33Z</time>
      </trkpt>
      <trkpt lat="44.1472" lon="7.23608">
        <ele>2107.702406</ele>
        <time>2010-09-30T07:17:36Z</time>
      </trkpt>
      <trkpt lat="44.14723" lon="7.23608">
        <ele>2108.852865</ele>
        <time>2010-09-30T07:17:39Z</time>
      </trkpt>
      <trkpt lat="44.14726" lon="7.23608">
        <ele>2109.969715</ele>
        <time>2010-09-30T07:17:42Z</time>
      </trkpt>
      <trkpt lat="44.14729" lon="7.23607">
        <ele>2111.0753</ele>
        <time>2010-09-30T07:17:45Z</time>
      </trkpt>
      <trkpt lat="44.14732" lon="7.23605">
        <ele>2112.174606</ele>
        <time>2010-09-30T07:17:48Z</time>
      </trkpt>
      <trkpt lat="44.14735" lon="7.23601">
        <ele>2113.240161</ele>
        <time>2010-09-30T07:17:51Z</time>
      </trkpt>
      <trkpt lat="44.14741" lon="7.23599">
        <ele>2114.249205</ele>
        <time>2010-09-30T07:17:59Z</time>
      </trkpt>
      <trkpt lat="44.14744" lon="7.23598">
        <ele>2115.217631</ele>
        <time>2010-09-30T07:18:03Z</time>
      </trkpt>
      <trkpt lat="44.14747" lon="7.23597">
        <ele>2116.198929</ele>
        <time>2010-09-30T07:18:06Z</time>
      </trkpt>
      <trkpt lat="44.1475" lon="7.23599">
        <ele>2117.448674</ele>
        <time>2010-09-30T07:18:09Z</time>
      </trkpt>
      <trkpt lat="44.14753" lon="7.236">
        <ele>2119.092168</ele>
        <time>2010-09-30T07:18:13Z</time>
      </trkpt>
      <trkpt lat="44.14755" lon="7.23602">
        <ele>2120.73995</ele>
        <time>2010-09-30T07:18:17Z</time>
      </trkpt>
      <trkpt lat="44.14758" lon="7.23604">
        <ele>2121.996997</ele>
        <time>2010-09-30T07:18:21Z</time>
      </trkpt>
      <trkpt lat="44.14761" lon="7.23605">
        <ele>2122.940314</ele>
        <time>2010-09-30T07:18:24Z</time>
      </trkpt>
      <trkpt lat="44.14764" lon="7.23607">
        <ele>2123.792787</ele>
        <time>2010-09-30T07:18:27Z</time>
      </trkpt>
      <trkpt lat="44.14767" lon="7.23608">
        <ele>2124.665754</ele>
        <time>2010-09-30T07:18:30Z</time>
      </trkpt>
      <trkpt lat="44.14769" lon="7.2361">
        <ele>2125.533092</ele>
        <time>2010-09-30T07:18:33Z</time>
      </trkpt>
      <trkpt lat="44.14772" lon="7.23611">
        <ele>2126.334539</ele>
        <time>2010-09-30T07:18:36Z</time>
      </trkpt>
      <trkpt lat="44.14776" lon="7.2361">
        <ele>2127.051707</ele>
        <time>2010-09-30T07:18:39Z</time>
      </trkpt>
      <trkpt lat="44.1478" lon="7.2361">
        <ele>2127.707359</ele>
        <time>2010-09-30T07:18:42Z</time>
      </trkpt>
      <trkpt lat="44.14784" lon="7.2361">
        <ele>2128.324626</ele>
        <time>2010-09-30T07:18:45Z</time>
      </trkpt>
      <trkpt lat="44.14788" lon="7.23611">
        <ele>2128.930879</ele>
        <time>2010-09-30T07:18:48Z</time>
      </trkpt>
      <trkpt lat="44.14791" lon="7.23612">
        <ele>2129.54976</ele>
        <time>2010-09-30T07:18:51Z</time>
      </trkpt>
      <trkpt lat="44.14794" lon="7.23613">
        <ele>2130.18424</ele>
        <time>2010-09-30T07:18:54Z</time>
      </trkpt>
      <trkpt lat="44.14797" lon="7.23613">
        <ele>2130.820963</ele>
        <time>2010-09-30T07:18:57Z</time>
      </trkpt>
      <trkpt lat="44.14801" lon="7.23614">
        <ele>2131.451051</ele>
        <time>2010-09-30T07:19:00Z</time>
      </trkpt>
      <trkpt lat="44.14804" lon="7.23616">
        <ele>2132.08645</ele>
        <time>2010-09-30T07:19:03Z</time>
      </trkpt>
      <trkpt lat="44.14808" lon="7.23617">
        <ele>2132.755139</ele>
        <time>2010-09-30T07:19:06Z</time>
      </trkpt>
      <trkpt lat="44.14811" lon="7.23617">
        <ele>2133.468644</ele>
        <time>2010-09-30T07:19:08Z</time>
      </trkpt>
      <trkpt lat="44.14814" lon="7.23617">
        <ele>2134.194951</ele>
        <time>2010-09-30T07:19:10Z</time>
      </trkpt>
      <trkpt lat="44.14818" lon="7.23616">
        <ele>2134.88435</ele>
        <time>2010-09-30T07:19:13Z</time>
      </trkpt>
      <trkpt lat="44.14821" lon="7.23615">
        <ele>2135.495726</ele>
        <time>2010-09-30T07:19:16Z</time>
      </trkpt>
      <trkpt lat="44.14824" lon="7.23615">
        <ele>2136.015503</ele>
        <time>2010-09-30T07:19:19Z</time>
      </trkpt>
      <trkpt lat="44.14827" lon="7.23615">
        <ele>2136.513887</ele>
        <time>2010-09-30T07:19:22Z</time>
      </trkpt>
      <trkpt lat="44.1483" lon="7.23615">
        <ele>2137.100055</ele>
        <time>2010-09-30T07:19:26Z</time>
      </trkpt>
      <trkpt lat="44.14833" lon="7.23612">
        <ele>2137.796556</ele>
        <time>2010-09-30T07:19:30Z</time>
      </trkpt>
      <trkpt lat="44.14836" lon="7.2361">
        <ele>2138.54357</ele>
        <time>2010-09-30T07:19:34Z</time>
      </trkpt>
      <trkpt lat="44.14838" lon="7.23609">
        <ele>2139.308537</ele>
        <time>2010-09-30T07:19:38Z</time>
      </trkpt>
      <trkpt lat="44.14841" lon="7.23609">
        <ele>2140.118708</ele>
        <time>2010-09-30T07:19:41Z</time>
      </trkpt>
      <trkpt lat="44.14844" lon="7.2361">
        <ele>2141.008072</ele>
        <time>2010-09-30T07:19:44Z</time>
      </trkpt>
      <trkpt lat="44.14847" lon="7.23611">
        <ele>2141.960679</ele>
        <time>2010-09-30T07:19:48Z</time>
      </trkpt>
      <trkpt lat="44.14851" lon="7.23612">
        <ele>2142.885893</ele>
        <time>2010-09-30T07:19:51Z</time>
      </trkpt>
      <trkpt lat="44.14854" lon="7.23612">
        <ele>2143.683836</ele>
        <time>2010-09-30T07:19:54Z</time>
      </trkpt>
      <trkpt lat="44.14857" lon="7.23613">
        <ele>2144.375195</ele>
        <time>2010-09-30T07:19:57Z</time>
      </trkpt>
      <trkpt lat="44.1486" lon="7.23612">
        <ele>2145.039931</ele>
        <time>2010-09-30T07:20:00Z</time>
      </trkpt>
      <trkpt lat="44.14863" lon="7.23612">
        <ele>2145.684101</ele>
        <time>2010-09-30T07:20:03Z</time>
      </trkpt>
      <trkpt lat="44.14866" lon="7.2361">
        <ele>2146.272425</ele>
        <time>2010-09-30T07:20:06Z</time>
      </trkpt>
      <trkpt lat="44.14868" lon="7.23608">
        <ele>2146.794451</ele>
        <time>2010-09-30T07:20:09Z</time>
      </trkpt>
      <trkpt lat="44.14871" lon="7.23605">
        <ele>2147.260611</ele>
        <time>2010-09-30T07:20:12Z</time>
      </trkpt>
      <trkpt lat="44.14874" lon="7.23603">
        <ele>2147.69487</ele>
        <time>2010-09-30T07:20:15Z</time>
      </trkpt>
      <trkpt lat="44.14877" lon="7.236">
        <ele>2148.11955</ele>
        <time>2010-09-30T07:20:18Z</time>
      </trkpt>
      <trkpt lat="44.1488" lon="7.23597">
        <ele>2148.546735</ele>
        <time>2010-09-30T07:20:21Z</time>
      </trkpt>
      <trkpt lat="44.14882" lon="7.23593">
        <ele>2148.974681</ele>
        <time>2010-09-30T07:20:23Z</time>
      </trkpt>
      <trkpt lat="44.14887" lon="7.23585">
        <ele>2149.395549</ele>
        <time>2010-09-30T07:20:26Z</time>
      </trkpt>
      <trkpt lat="44.14889" lon="7.23583">
        <ele>2149.807493</ele>
        <time>2010-09-30T07:20:28Z</time>
      </trkpt>
      <trkpt lat="44.14893" lon="7.23582">
        <ele>2150.229835</ele>
        <time>2010-09-30T07:20:31Z</time>
      </trkpt>
      <trkpt lat="44.14896" lon="7.23583">
        <ele>2150.758967</ele>
        <time>2010-09-30T07:20:34Z</time>
      </trkpt>
      <trkpt lat="44.14899" lon="7.23583">
        <ele>2151.45878</ele>
        <time>2010-09-30T07:20:37Z</time>
      </trkpt>
      <trkpt lat="44.14903" lon="7.2358">
        <ele>2152.279812</ele>
        <time>2010-09-30T07:20:41Z</time>
      </trkpt>
      <trkpt lat="44.14975" lon="7.23591">
        <ele>2170.848086</ele>
        <time>2010-09-30T07:31:27Z</time>
      </trkpt>
      <trkpt lat="44.14979" lon="7.23592">
        <ele>2171.090206</ele>
        <time>2010-09-30T07:31:31Z</time>
      </trkpt>
      <trkpt lat="44.14982" lon="7.23594">
        <ele>2171.607219</ele>
        <time>2010-09-30T07:31:34Z</time>
      </trkpt>
      <trkpt lat="44.14985" lon="7.23597">
        <ele>2172.409398</ele>
        <time>2010-09-30T07:31:37Z</time>
      </trkpt>
      <trkpt lat="44.14988" lon="7.23599">
        <ele>2173.21572</ele>
        <time>2010-09-30T07:31:40Z</time>
      </trkpt>
      <trkpt lat="44.14992" lon="7.23602">
        <ele>2173.7734</ele>
        <time>2010-09-30T07:31:43Z</time>
      </trkpt>
      <trkpt lat="44.14995" lon="7.23605">
        <ele>2174.116715</ele>
        <time>2010-09-30T07:31:46Z</time>
      </trkpt>
      <trkpt lat="44.14998" lon="7.23607">
        <ele>2174.357572</ele>
        <time>2010-09-30T07:31:49Z</time>
      </trkpt>
      <trkpt lat="44.15002" lon="7.2361">
        <ele>2174.577448</ele>
        <time>2010-09-30T07:31:52Z</time>
      </trkpt>
      <trkpt lat="44.15006" lon="7.23613">
        <ele>2174.798632</ele>
        <time>2010-09-30T07:31:55Z</time>
      </trkpt>
      <trkpt lat="44.1501" lon="7.23615">
        <ele>2175.018373</ele>
        <time>2010-09-30T07:31:57Z</time>
      </trkpt>
      <trkpt lat="44.15014" lon="7.23617">
        <ele>2175.233517</ele>
        <time>2010-09-30T07:32:00Z</time>
      </trkpt>
      <trkpt lat="44.15017" lon="7.23619">
        <ele>2175.440018</ele>
        <time>2010-09-30T07:32:02Z</time>
      </trkpt>
      <trkpt lat="44.1502" lon="7.23621">
        <ele>2175.623888</ele>
        <time>2010-09-30T07:32:04Z</time>
      </trkpt>
      <trkpt lat="44.15024" lon="7.23625">
        <ele>2175.778685</ele>
        <time>2010-09-30T07:32:07Z</time>
      </trkpt>
      <trkpt lat="44.15026" lon="7.23628">
        <ele>2175.917867</ele>
        <time>2010-09-30T07:32:09Z</time>
      </trkpt>
      <trkpt lat="44.15031" lon="7.23631">
        <ele>2176.051947</ele>
        <time>2010-09-30T07:32:12Z</time>
      </trkpt>
      <trkpt lat="44.15035" lon="7.23632">
        <ele>2176.181541</ele>
        <time>2010-09-30T07:32:14Z</time>
      </trkpt>
      <trkpt lat="44.1504" lon="7.23635">
        <ele>2176.305033</ele>
        <time>2010-09-30T07:32:17Z</time>
      </trkpt>
      <trkpt lat="44.15045" lon="7.23639">
        <ele>2176.418709</ele>
        <time>2010-09-30T07:32:20Z</time>
      </trkpt>
      <trkpt lat="44.15049" lon="7.23643">
        <ele>2176.530895</ele>
        <time>2010-09-30T07:32:23Z</time>
      </trkpt>
      <trkpt lat="44.15052" lon="7.23646">
        <ele>2176.667784</ele>
        <time>2010-09-30T07:32:25Z</time>
      </trkpt>
      <trkpt lat="44.15054" lon="7.2365">
        <ele>2176.84327</ele>
        <time>2010-09-30T07:32:28Z</time>
      </trkpt>
      <trkpt lat="44.15056" lon="7.23654">
        <ele>2177.035758</ele>
        <time>2010-09-30T07:32:31Z</time>
      </trkpt>
      <trkpt lat="44.15057" lon="7.23657">
        <ele>2177.205379</ele>
        <time>2010-09-30T07:32:34Z</time>
      </trkpt>
      <trkpt lat="44.15058" lon="7.23661">
        <ele>2177.338922</ele>
        <time>2010-09-30T07:32:37Z</time>
      </trkpt>
      <trkpt lat="44.15059" lon="7.23666">
        <ele>2177.456055</ele>
        <time>2010-09-30T07:32:41Z</time>
      </trkpt>
      <trkpt lat="44.15059" lon="7.2367">
        <ele>2177.575963</ele>
        <time>2010-09-30T07:32:44Z</time>
      </trkpt>
      <trkpt lat="44.15059" lon="7.23674">
        <ele>2177.702717</ele>
        <time>2010-09-30T07:32:47Z</time>
      </trkpt>
      <trkpt lat="44.1506" lon="7.23678">
        <ele>2177.841236</ele>
        <time>2010-09-30T07:32:50Z</time>
      </trkpt>
      <trkpt lat="44.15062" lon="7.23682">
        <ele>2177.98961</ele>
        <time>2010-09-30T07:32:53Z</time>
      </trkpt>
      <trkpt lat="44.15062" lon="7.23687">
        <ele>2178.134663</ele>
        <time>2010-09-30T07:32:56Z</time>
      </trkpt>
      <trkpt lat="44.15063" lon="7.2369">
        <ele>2178.276698</ele>
        <time>2010-09-30T07:32:58Z</time>
      </trkpt>
      <trkpt lat="44.15063" lon="7.23696">
        <ele>2178.43272</ele>
        <time>2010-09-30T07:33:01Z</time>
      </trkpt>
      <trkpt lat="44.15064" lon="7.237">
        <ele>2178.620022</ele>
        <time>2010-09-30T07:33:03Z</time>
      </trkpt>
      <trkpt lat="44.15064" lon="7.23707">
        <ele>2178.836551</ele>
        <time>2010-09-30T07:33:06Z</time>
      </trkpt>
      <trkpt lat="44.15065" lon="7.23713">
        <ele>2179.069145</ele>
        <time>2010-09-30T07:33:08Z</time>
      </trkpt>
      <trkpt lat="44.15065" lon="7.2372">
        <ele>2179.306073</ele>
        <time>2010-09-30T07:33:11Z</time>
      </trkpt>
      <trkpt lat="44.15065" lon="7.23725">
        <ele>2179.554382</ele>
        <time>2010-09-30T07:33:14Z</time>
      </trkpt>
      <trkpt lat="44.15066" lon="7.23735">
        <ele>2179.826838</ele>
        <time>2010-09-30T07:33:22Z</time>
      </trkpt>
      <trkpt lat="44.15067" lon="7.2374">
        <ele>2180.131096</ele>
        <time>2010-09-30T07:33:25Z</time>
      </trkpt>
      <trkpt lat="44.15067" lon="7.23745">
        <ele>2180.468623</ele>
        <time>2010-09-30T07:33:28Z</time>
      </trkpt>
      <trkpt lat="44.15068" lon="7.23749">
        <ele>2180.881126</ele>
        <time>2010-09-30T07:33:31Z</time>
      </trkpt>
      <trkpt lat="44.15071" lon="7.23753">
        <ele>2181.37061</ele>
        <time>2010-09-30T07:33:34Z</time>
      </trkpt>
      <trkpt lat="44.15074" lon="7.23755">
        <ele>2181.839632</ele>
        <time>2010-09-30T07:33:36Z</time>
      </trkpt>
      <trkpt lat="44.15078" lon="7.23755">
        <ele>2182.213602</ele>
        <time>2010-09-30T07:33:40Z</time>
      </trkpt>
      <trkpt lat="44.15082" lon="7.23754">
        <ele>2182.523803</ele>
        <time>2010-09-30T07:33:43Z</time>
      </trkpt>
      <trkpt lat="44.15085" lon="7.23751">
        <ele>2182.797971</ele>
        <time>2010-09-30T07:33:46Z</time>
      </trkpt>
      <trkpt lat="44.15088" lon="7.23748">
        <ele>2183.069407</ele>
        <time>2010-09-30T07:33:49Z</time>
      </trkpt>
      <trkpt lat="44.15091" lon="7.23744">
        <ele>2183.414435</ele>
        <time>2010-09-30T07:33:52Z</time>
      </trkpt>
      <trkpt lat="44.15093" lon="7.2374">
        <ele>2183.889916</ele>
        <time>2010-09-30T07:33:55Z</time>
      </trkpt>
      <trkpt lat="44.15095" lon="7.23736">
        <ele>2184.479212</ele>
        <time>2010-09-30T07:33:57Z</time>
      </trkpt>
      <trkpt lat="44.15099" lon="7.23734">
        <ele>2185.13168</ele>
        <time>2010-09-30T07:34:00Z</time>
      </trkpt>
      <trkpt lat="44.15102" lon="7.23733">
        <ele>2185.802777</ele>
        <time>2010-09-30T07:34:03Z</time>
      </trkpt>
      <trkpt lat="44.15105" lon="7.23735">
        <ele>2186.447558</ele>
        <time>2010-09-30T07:34:05Z</time>
      </trkpt>
      <trkpt lat="44.15108" lon="7.23737">
        <ele>2187.050489</ele>
        <time>2010-09-30T07:34:07Z</time>
      </trkpt>
      <trkpt lat="44.1511" lon="7.23739">
        <ele>2187.645118</ele>
        <time>2010-09-30T07:34:10Z</time>
      </trkpt>
      <trkpt lat="44.15113" lon="7.23744">
        <ele>2188.210891</ele>
        <time>2010-09-30T07:34:15Z</time>
      </trkpt>
      <trkpt lat="44.1511" lon="7.23747">
        <ele>2188.664853</ele>
        <time>2010-09-30T07:34:21Z</time>
      </trkpt>
      <trkpt lat="44.15108" lon="7.2375">
        <ele>2188.993791</ele>
        <time>2010-09-30T07:34:24Z</time>
      </trkpt>
      <trkpt lat="44.15107" lon="7.23754">
        <ele>2189.266261</ele>
        <time>2010-09-30T07:34:28Z</time>
      </trkpt>
      <trkpt lat="44.15106" lon="7.23758">
        <ele>2189.566661</ele>
        <time>2010-09-30T07:34:32Z</time>
      </trkpt>
      <trkpt lat="44.15107" lon="7.23762">
        <ele>2189.907561</ele>
        <time>2010-09-30T07:34:35Z</time>
      </trkpt>
      <trkpt lat="44.15107" lon="7.23768">
        <ele>2190.225888</ele>
        <time>2010-09-30T07:34:38Z</time>
      </trkpt>
      <trkpt lat="44.15107" lon="7.23774">
        <ele>2190.481554</ele>
        <time>2010-09-30T07:34:40Z</time>
      </trkpt>
      <trkpt lat="44.15107" lon="7.2378">
        <ele>2190.681683</ele>
        <time>2010-09-30T07:34:43Z</time>
      </trkpt>
      <trkpt lat="44.15107" lon="7.23786">
        <ele>2190.859582</ele>
        <time>2010-09-30T07:34:46Z</time>
      </trkpt>
      <trkpt lat="44.15107" lon="7.23794">
        <ele>2191.060101</ele>
        <time>2010-09-30T07:34:49Z</time>
      </trkpt>
      <trkpt lat="44.15107" lon="7.23801">
        <ele>2191.292885</ele>
        <time>2010-09-30T07:34:52Z</time>
      </trkpt>
      <trkpt lat="44.15109" lon="7.23805">
        <ele>2191.541011</ele>
        <time>2010-09-30T07:34:55Z</time>
      </trkpt>
      <trkpt lat="44.15112" lon="7.23806">
        <ele>2191.819926</ele>
        <time>2010-09-30T07:34:57Z</time>
      </trkpt>
      <trkpt lat="44.15116" lon="7.23803">
        <ele>2192.160333</ele>
        <time>2010-09-30T07:35:00Z</time>
      </trkpt>
      <trkpt lat="44.15119" lon="7.23799">
        <ele>2192.556695</ele>
        <time>2010-09-30T07:35:03Z</time>
      </trkpt>
      <trkpt lat="44.1512" lon="7.23796">
        <ele>2192.970005</ele>
        <time>2010-09-30T07:35:05Z</time>
      </trkpt>
      <trkpt lat="44.15123" lon="7.23791">
        <ele>2193.408088</ele>
        <time>2010-09-30T07:35:08Z</time>
      </trkpt>
      <trkpt lat="44.15125" lon="7.23788">
        <ele>2193.92661</ele>
        <time>2010-09-30T07:35:11Z</time>
      </trkpt>
      <trkpt lat="44.15126" lon="7.23784">
        <ele>2194.52166</ele>
        <time>2010-09-30T07:35:14Z</time>
      </trkpt>
      <trkpt lat="44.15127" lon="7.23779">
        <ele>2195.15861</ele>
        <time>2010-09-30T07:35:17Z</time>
      </trkpt>
      <trkpt lat="44.15129" lon="7.23776">
        <ele>2195.863544</ele>
        <time>2010-09-30T07:35:20Z</time>
      </trkpt>
      <trkpt lat="44.15131" lon="7.23773">
        <ele>2196.652094</ele>
        <time>2010-09-30T07:35:24Z</time>
      </trkpt>
      <trkpt lat="44.15134" lon="7.23772">
        <ele>2197.492946</ele>
        <time>2010-09-30T07:35:30Z</time>
      </trkpt>
      <trkpt lat="44.15137" lon="7.23773">
        <ele>2198.362101</ele>
        <time>2010-09-30T07:35:34Z</time>
      </trkpt>
      <trkpt lat="44.15139" lon="7.23776">
        <ele>2199.285853</ele>
        <time>2010-09-30T07:35:38Z</time>
      </trkpt>
      <trkpt lat="44.15141" lon="7.23778">
        <ele>2200.380909</ele>
        <time>2010-09-30T07:35:42Z</time>
      </trkpt>
      <trkpt lat="44.15144" lon="7.2378">
        <ele>2201.653906</ele>
        <time>2010-09-30T07:35:46Z</time>
      </trkpt>
      <trkpt lat="44.15146" lon="7.23782">
        <ele>2202.905228</ele>
        <time>2010-09-30T07:35:50Z</time>
      </trkpt>
      <trkpt lat="44.1515" lon="7.23781">
        <ele>2203.990404</ele>
        <time>2010-09-30T07:35:54Z</time>
      </trkpt>
      <trkpt lat="44.15154" lon="7.2378">
        <ele>2204.942318</ele>
        <time>2010-09-30T07:35:57Z</time>
      </trkpt>
      <trkpt lat="44.15157" lon="7.23778">
        <ele>2205.823809</ele>
        <time>2010-09-30T07:36:00Z</time>
      </trkpt>
      <trkpt lat="44.15159" lon="7.23776">
        <ele>2206.676287</ele>
        <time>2010-09-30T07:36:03Z</time>
      </trkpt>
      <trkpt lat="44.15163" lon="7.23776">
        <ele>2207.504415</ele>
        <time>2010-09-30T07:36:07Z</time>
      </trkpt>
      <trkpt lat="44.15163" lon="7.2378">
        <ele>2208.286955</ele>
        <time>2010-09-30T07:36:14Z</time>
      </trkpt>
      <trkpt lat="44.15163" lon="7.23784">
        <ele>2209.024257</ele>
        <time>2010-09-30T07:36:17Z</time>
      </trkpt>
      <trkpt lat="44.15163" lon="7.23789">
        <ele>2209.782717</ele>
        <time>2010-09-30T07:36:21Z</time>
      </trkpt>
      <trkpt lat="44.15162" lon="7.23793">
        <ele>2210.754132</ele>
        <time>2010-09-30T07:36:26Z</time>
      </trkpt>
      <trkpt lat="44.15162" lon="7.23798">
        <ele>2211.96399</ele>
        <time>2010-09-30T07:36:30Z</time>
      </trkpt>
      <trkpt lat="44.15162" lon="7.23801">
        <ele>2213.133541</ele>
        <time>2010-09-30T07:36:33Z</time>
      </trkpt>
      <trkpt lat="44.15163" lon="7.23805">
        <ele>2214.131081</ele>
        <time>2010-09-30T07:36:36Z</time>
      </trkpt>
      <trkpt lat="44.15165" lon="7.23808">
        <ele>2215.077029</ele>
        <time>2010-09-30T07:36:39Z</time>
      </trkpt>
      <trkpt lat="44.15166" lon="7.23812">
        <ele>2215.980895</ele>
        <time>2010-09-30T07:36:42Z</time>
      </trkpt>
      <trkpt lat="44.15167" lon="7.23816">
        <ele>2216.776343</ele>
        <time>2010-09-30T07:36:45Z</time>
      </trkpt>
      <trkpt lat="44.15168" lon="7.2382">
        <ele>2217.469187</ele>
        <time>2010-09-30T07:36:48Z</time>
      </trkpt>
      <trkpt lat="44.15169" lon="7.23825">
        <ele>2218.108928</ele>
        <time>2010-09-30T07:36:51Z</time>
      </trkpt>
      <trkpt lat="44.15169" lon="7.23829">
        <ele>2218.716223</ele>
        <time>2010-09-30T07:36:54Z</time>
      </trkpt>
      <trkpt lat="44.1517" lon="7.23833">
        <ele>2219.273711</ele>
        <time>2010-09-30T07:36:57Z</time>
      </trkpt>
      <trkpt lat="44.1517" lon="7.23837">
        <ele>2219.746914</ele>
        <time>2010-09-30T07:37:00Z</time>
      </trkpt>
      <trkpt lat="44.1517" lon="7.23842">
        <ele>2220.119247</ele>
        <time>2010-09-30T07:37:03Z</time>
      </trkpt>
      <trkpt lat="44.1517" lon="7.23847">
        <ele>2220.399733</ele>
        <time>2010-09-30T07:37:06Z</time>
      </trkpt>
      <trkpt lat="44.15169" lon="7.23852">
        <ele>2220.606735</ele>
        <time>2010-09-30T07:37:09Z</time>
      </trkpt>
      <trkpt lat="44.15169" lon="7.23856">
        <ele>2220.761543</ele>
        <time>2010-09-30T07:37:11Z</time>
      </trkpt>
      <trkpt lat="44.15169" lon="7.23864">
        <ele>2220.874096</ele>
        <time>2010-09-30T07:37:14Z</time>
      </trkpt>
      <trkpt lat="44.15169" lon="7.2387">
        <ele>2220.948999</ele>
        <time>2010-09-30T07:37:17Z</time>
      </trkpt>
      <trkpt lat="44.15168" lon="7.23875">
        <ele>2221.013839</ele>
        <time>2010-09-30T07:37:19Z</time>
      </trkpt>
      <trkpt lat="44.15168" lon="7.23881">
        <ele>2221.09972</ele>
        <time>2010-09-30T07:37:22Z</time>
      </trkpt>
      <trkpt lat="44.15168" lon="7.23887">
        <ele>2221.192683</ele>
        <time>2010-09-30T07:37:25Z</time>
      </trkpt>
      <trkpt lat="44.15168" lon="7.23893">
        <ele>2221.253907</ele>
        <time>2010-09-30T07:37:28Z</time>
      </trkpt>
      <trkpt lat="44.15168" lon="7.23897">
        <ele>2221.273458</ele>
        <time>2010-09-30T07:37:30Z</time>
      </trkpt>
      <trkpt lat="44.15168" lon="7.23904">
        <ele>2221.260426</ele>
        <time>2010-09-30T07:37:33Z</time>
      </trkpt>
      <trkpt lat="44.15168" lon="7.23911">
        <ele>2221.212906</ele>
        <time>2010-09-30T07:37:35Z</time>
      </trkpt>
      <trkpt lat="44.15168" lon="7.2392">
        <ele>2221.146347</ele>
        <time>2010-09-30T07:37:38Z</time>
      </trkpt>
      <trkpt lat="44.15167" lon="7.23925">
        <ele>2221.096748</ele>
        <time>2010-09-30T07:37:40Z</time>
      </trkpt>
      <trkpt lat="44.1517" lon="7.23927">
        <ele>2221.078415</ele>
        <time>2010-09-30T07:37:45Z</time>
      </trkpt>
      <trkpt lat="44.15173" lon="7.23927">
        <ele>2221.111315</ele>
        <time>2010-09-30T07:37:50Z</time>
      </trkpt>
      <trkpt lat="44.15173" lon="7.23931">
        <ele>2221.249829</ele>
        <time>2010-09-30T07:37:55Z</time>
      </trkpt>
      <trkpt lat="44.15173" lon="7.23936">
        <ele>2221.625597</ele>
        <time>2010-09-30T07:37:58Z</time>
      </trkpt>
      <trkpt lat="44.15172" lon="7.23941">
        <ele>2222.380115</ele>
        <time>2010-09-30T07:38:01Z</time>
      </trkpt>
      <trkpt lat="44.15171" lon="7.23946">
        <ele>2223.460594</ele>
        <time>2010-09-30T07:38:04Z</time>
      </trkpt>
      <trkpt lat="44.1517" lon="7.23951">
        <ele>2224.575934</ele>
        <time>2010-09-30T07:38:07Z</time>
      </trkpt>
      <trkpt lat="44.1517" lon="7.23955">
        <ele>2225.456045</ele>
        <time>2010-09-30T07:38:09Z</time>
      </trkpt>
      <trkpt lat="44.15169" lon="7.2396">
        <ele>2226.057129</ele>
        <time>2010-09-30T07:38:12Z</time>
      </trkpt>
      <trkpt lat="44.15169" lon="7.23964">
        <ele>2226.502172</ele>
        <time>2010-09-30T07:38:15Z</time>
      </trkpt>
      <trkpt lat="44.15168" lon="7.23968">
        <ele>2226.887664</ele>
        <time>2010-09-30T07:38:18Z</time>
      </trkpt>
      <trkpt lat="44.15166" lon="7.23972">
        <ele>2227.263211</ele>
        <time>2010-09-30T07:38:21Z</time>
      </trkpt>
      <trkpt lat="44.15164" lon="7.23976">
        <ele>2227.668391</ele>
        <time>2010-09-30T07:38:23Z</time>
      </trkpt>
      <trkpt lat="44.15163" lon="7.23979">
        <ele>2228.118728</ele>
        <time>2010-09-30T07:38:25Z</time>
      </trkpt>
      <trkpt lat="44.1516" lon="7.23984">
        <ele>2228.614767</ele>
        <time>2010-09-30T07:38:28Z</time>
      </trkpt>
      <trkpt lat="44.15158" lon="7.23988">
        <ele>2229.136684</ele>
        <time>2010-09-30T07:38:31Z</time>
      </trkpt>
      <trkpt lat="44.15156" lon="7.2399">
        <ele>2229.635626</ele>
        <time>2010-09-30T07:38:34Z</time>
      </trkpt>
      <trkpt lat="44.15155" lon="7.23994">
        <ele>2230.127158</ele>
        <time>2010-09-30T07:38:37Z</time>
      </trkpt>
      <trkpt lat="44.15155" lon="7.23999">
        <ele>2230.723651</ele>
        <time>2010-09-30T07:38:40Z</time>
      </trkpt>
      <trkpt lat="44.15155" lon="7.24003">
        <ele>2231.513243</ele>
        <time>2010-09-30T07:38:43Z</time>
      </trkpt>
      <trkpt lat="44.15154" lon="7.24007">
        <ele>2232.472867</ele>
        <time>2010-09-30T07:38:46Z</time>
      </trkpt>
      <trkpt lat="44.15153" lon="7.24012">
        <ele>2233.502896</ele>
        <time>2010-09-30T07:38:49Z</time>
      </trkpt>
      <trkpt lat="44.15155" lon="7.24017">
        <ele>2234.514433</ele>
        <time>2010-09-30T07:38:54Z</time>
      </trkpt>
      <trkpt lat="44.15158" lon="7.24017">
        <ele>2235.479101</ele>
        <time>2010-09-30T07:38:57Z</time>
      </trkpt>
      <trkpt lat="44.15161" lon="7.24016">
        <ele>2236.414828</ele>
        <time>2010-09-30T07:39:00Z</time>
      </trkpt>
      <trkpt lat="44.15164" lon="7.24016">
        <ele>2237.445594</ele>
        <time>2010-09-30T07:39:04Z</time>
      </trkpt>
      <trkpt lat="44.15169" lon="7.24016">
        <ele>2238.664469</ele>
        <time>2010-09-30T07:39:14Z</time>
      </trkpt>
      <trkpt lat="44.1517" lon="7.24019">
        <ele>2239.951535</ele>
        <time>2010-09-30T07:39:19Z</time>
      </trkpt>
      <trkpt lat="44.15195" lon="7.24001">
        <ele>2241.204407</ele>
        <time>2010-09-30T07:39:50Z</time>
      </trkpt>
      <trkpt lat="44.15197" lon="7.23995">
        <ele>2242.850638</ele>
        <time>2010-09-30T07:39:53Z</time>
      </trkpt>
      <trkpt lat="44.15201" lon="7.23989">
        <ele>2245.217137</ele>
        <time>2010-09-30T07:39:56Z</time>
      </trkpt>
      <trkpt lat="44.15204" lon="7.23983">
        <ele>2249.044007</ele>
        <time>2010-09-30T07:39:59Z</time>
      </trkpt>
      <trkpt lat="44.15206" lon="7.23978">
        <ele>2254.375789</ele>
        <time>2010-09-30T07:40:02Z</time>
      </trkpt>
      <trkpt lat="44.15208" lon="7.23973">
        <ele>2259.14254</ele>
        <time>2010-09-30T07:40:05Z</time>
      </trkpt>
      <trkpt lat="44.1521" lon="7.23969">
        <ele>2261.697535</ele>
        <time>2010-09-30T07:40:08Z</time>
      </trkpt>
      <trkpt lat="44.15212" lon="7.23964">
        <ele>2262.728518</ele>
        <time>2010-09-30T07:40:11Z</time>
      </trkpt>
      <trkpt lat="44.15215" lon="7.2396">
        <ele>2263.224343</ele>
        <time>2010-09-30T07:40:14Z</time>
      </trkpt>
      <trkpt lat="44.15217" lon="7.23956">
        <ele>2263.72957</ele>
        <time>2010-09-30T07:40:17Z</time>
      </trkpt>
      <trkpt lat="44.1522" lon="7.23952">
        <ele>2264.379216</ele>
        <time>2010-09-30T07:40:20Z</time>
      </trkpt>
      <trkpt lat="44.15224" lon="7.2395">
        <ele>2265.126865</ele>
        <time>2010-09-30T07:40:23Z</time>
      </trkpt>
      <trkpt lat="44.15227" lon="7.23948">
        <ele>2265.894946</ele>
        <time>2010-09-30T07:40:26Z</time>
      </trkpt>
      <trkpt lat="44.1523" lon="7.23944">
        <ele>2266.639698</ele>
        <time>2010-09-30T07:40:29Z</time>
      </trkpt>
      <trkpt lat="44.15232" lon="7.23941">
        <ele>2267.360128</ele>
        <time>2010-09-30T07:40:31Z</time>
      </trkpt>
      <trkpt lat="44.15234" lon="7.23935">
        <ele>2268.068641</ele>
        <time>2010-09-30T07:40:34Z</time>
      </trkpt>
      <trkpt lat="44.15235" lon="7.23931">
        <ele>2268.774013</ele>
        <time>2010-09-30T07:40:36Z</time>
      </trkpt>
      <trkpt lat="44.15237" lon="7.23928">
        <ele>2269.450254</ele>
        <time>2010-09-30T07:40:39Z</time>
      </trkpt>
      <trkpt lat="44.1524" lon="7.23926">
        <ele>2270.07865</ele>
        <time>2010-09-30T07:40:42Z</time>
      </trkpt>
      <trkpt lat="44.15242" lon="7.23923">
        <ele>2270.66977</ele>
        <time>2010-09-30T07:40:45Z</time>
      </trkpt>
      <trkpt lat="44.15245" lon="7.23921">
        <ele>2271.24295</ele>
        <time>2010-09-30T07:40:48Z</time>
      </trkpt>
      <trkpt lat="44.15245" lon="7.23921">
        <ele>2271.741028</ele>
        <time>2010-09-30T07:40:59Z</time>
      </trkpt>
      <trkpt lat="44.15247" lon="7.23908">
        <ele>2269.174828</ele>
        <time>2010-09-30T07:42:31Z</time>
      </trkpt>
      <trkpt lat="44.15261" lon="7.23874">
        <ele>2268.81426</ele>
        <time>2010-09-30T07:47:28Z</time>
      </trkpt>
      <trkpt lat="44.15263" lon="7.2387">
        <ele>2268.382574</ele>
        <time>2010-09-30T07:47:31Z</time>
      </trkpt>
      <trkpt lat="44.15264" lon="7.23866">
        <ele>2269.574746</ele>
        <time>2010-09-30T07:47:34Z</time>
      </trkpt>
      <trkpt lat="44.15265" lon="7.23863">
        <ele>2274.539215</ele>
        <time>2010-09-30T07:47:37Z</time>
      </trkpt>
      <trkpt lat="44.15267" lon="7.23859">
        <ele>2281.843141</ele>
        <time>2010-09-30T07:47:40Z</time>
      </trkpt>
      <trkpt lat="44.15269" lon="7.23855">
        <ele>2287.361482</ele>
        <time>2010-09-30T07:47:44Z</time>
      </trkpt>
      <trkpt lat="44.15272" lon="7.23852">
        <ele>2289.58048</ele>
        <time>2010-09-30T07:47:49Z</time>
      </trkpt>
      <trkpt lat="44.15275" lon="7.23852">
        <ele>2289.820534</ele>
        <time>2010-09-30T07:47:52Z</time>
      </trkpt>
      <trkpt lat="44.15278" lon="7.23851">
        <ele>2289.520221</ele>
        <time>2010-09-30T07:47:55Z</time>
      </trkpt>
      <trkpt lat="44.1528" lon="7.2385">
        <ele>2289.407332</ele>
        <time>2010-09-30T07:47:58Z</time>
      </trkpt>
      <trkpt lat="44.15284" lon="7.23851">
        <ele>2289.593957</ele>
        <time>2010-09-30T07:48:01Z</time>
      </trkpt>
      <trkpt lat="44.15287" lon="7.23852">
        <ele>2289.91507</ele>
        <time>2010-09-30T07:48:04Z</time>
      </trkpt>
      <trkpt lat="44.15288" lon="7.23855">
        <ele>2290.225755</ele>
        <time>2010-09-30T07:48:07Z</time>
      </trkpt>
      <trkpt lat="44.15287" lon="7.23859">
        <ele>2290.490228</ele>
        <time>2010-09-30T07:48:10Z</time>
      </trkpt>
      <trkpt lat="44.15286" lon="7.23863">
        <ele>2290.722692</ele>
        <time>2010-09-30T07:48:13Z</time>
      </trkpt>
      <trkpt lat="44.15285" lon="7.23867">
        <ele>2290.939065</ele>
        <time>2010-09-30T07:48:16Z</time>
      </trkpt>
      <trkpt lat="44.15284" lon="7.23872">
        <ele>2291.141952</ele>
        <time>2010-09-30T07:48:19Z</time>
      </trkpt>
      <trkpt lat="44.15284" lon="7.23876">
        <ele>2291.327341</ele>
        <time>2010-09-30T07:48:22Z</time>
      </trkpt>
      <trkpt lat="44.15286" lon="7.2388">
        <ele>2291.480014</ele>
        <time>2010-09-30T07:48:25Z</time>
      </trkpt>
      <trkpt lat="44.15289" lon="7.23882">
        <ele>2291.577365</ele>
        <time>2010-09-30T07:48:28Z</time>
      </trkpt>
      <trkpt lat="44.15292" lon="7.23881">
        <ele>2291.618729</ele>
        <time>2010-09-30T07:48:30Z</time>
      </trkpt>
      <trkpt lat="44.15296" lon="7.23876">
        <ele>2291.628685</ele>
        <time>2010-09-30T07:48:33Z</time>
      </trkpt>
      <trkpt lat="44.15297" lon="7.23873">
        <ele>2291.634091</ele>
        <time>2010-09-30T07:48:35Z</time>
      </trkpt>
      <trkpt lat="44.153" lon="7.23869">
        <ele>2291.676142</ele>
        <time>2010-09-30T07:48:38Z</time>
      </trkpt>
      <trkpt lat="44.15302" lon="7.23865">
        <ele>2291.829294</ele>
        <time>2010-09-30T07:48:41Z</time>
      </trkpt>
      <trkpt lat="44.15304" lon="7.23863">
        <ele>2292.129279</ele>
        <time>2010-09-30T07:48:44Z</time>
      </trkpt>
      <trkpt lat="44.15307" lon="7.2386">
        <ele>2292.553058</ele>
        <time>2010-09-30T07:48:47Z</time>
      </trkpt>
      <trkpt lat="44.1531" lon="7.23858">
        <ele>2293.083975</ele>
        <time>2010-09-30T07:48:50Z</time>
      </trkpt>
      <trkpt lat="44.15313" lon="7.23857">
        <ele>2293.710498</ele>
        <time>2010-09-30T07:48:53Z</time>
      </trkpt>
      <trkpt lat="44.15316" lon="7.23857">
        <ele>2294.401422</ele>
        <time>2010-09-30T07:48:56Z</time>
      </trkpt>
      <trkpt lat="44.15319" lon="7.23856">
        <ele>2295.128896</ele>
        <time>2010-09-30T07:48:59Z</time>
      </trkpt>
      <trkpt lat="44.15323" lon="7.23854">
        <ele>2295.862885</ele>
        <time>2010-09-30T07:49:02Z</time>
      </trkpt>
      <trkpt lat="44.15326" lon="7.23853">
        <ele>2296.575191</ele>
        <time>2010-09-30T07:49:05Z</time>
      </trkpt>
      <trkpt lat="44.1533" lon="7.23851">
        <ele>2297.252024</ele>
        <time>2010-09-30T07:49:08Z</time>
      </trkpt>
      <trkpt lat="44.15333" lon="7.23849">
        <ele>2297.895373</ele>
        <time>2010-09-30T07:49:11Z</time>
      </trkpt>
      <trkpt lat="44.15337" lon="7.23849">
        <ele>2298.510796</ele>
        <time>2010-09-30T07:49:14Z</time>
      </trkpt>
      <trkpt lat="44.1534" lon="7.23849">
        <ele>2299.100558</ele>
        <time>2010-09-30T07:49:17Z</time>
      </trkpt>
      <trkpt lat="44.15344" lon="7.23849">
        <ele>2299.666161</ele>
        <time>2010-09-30T07:49:20Z</time>
      </trkpt>
      <trkpt lat="44.15347" lon="7.23848">
        <ele>2300.206738</ele>
        <time>2010-09-30T07:49:23Z</time>
      </trkpt>
      <trkpt lat="44.1535" lon="7.23846">
        <ele>2300.715639</ele>
        <time>2010-09-30T07:49:26Z</time>
      </trkpt>
      <trkpt lat="44.15353" lon="7.23845">
        <ele>2301.186956</ele>
        <time>2010-09-30T07:49:29Z</time>
      </trkpt>
      <trkpt lat="44.15356" lon="7.23843">
        <ele>2301.625573</ele>
        <time>2010-09-30T07:49:32Z</time>
      </trkpt>
      <trkpt lat="44.15359" lon="7.23842">
        <ele>2302.051699</ele>
        <time>2010-09-30T07:49:35Z</time>
      </trkpt>
      <trkpt lat="44.15363" lon="7.23841">
        <ele>2302.495139</ele>
        <time>2010-09-30T07:49:38Z</time>
      </trkpt>
      <trkpt lat="44.15366" lon="7.2384">
        <ele>2302.983036</ele>
        <time>2010-09-30T07:49:41Z</time>
      </trkpt>
      <trkpt lat="44.15369" lon="7.23839">
        <ele>2303.525413</ele>
        <time>2010-09-30T07:49:44Z</time>
      </trkpt>
      <trkpt lat="44.15373" lon="7.23839">
        <ele>2304.10708</ele>
        <time>2010-09-30T07:49:47Z</time>
      </trkpt>
      <trkpt lat="44.15377" lon="7.23837">
        <ele>2304.699465</ele>
        <time>2010-09-30T07:49:50Z</time>
      </trkpt>
      <trkpt lat="44.1538" lon="7.23835">
        <ele>2305.278514</ele>
        <time>2010-09-30T07:49:53Z</time>
      </trkpt>
      <trkpt lat="44.15384" lon="7.23834">
        <ele>2305.831179</ele>
        <time>2010-09-30T07:49:56Z</time>
      </trkpt>
      <trkpt lat="44.15387" lon="7.23833">
        <ele>2306.366961</ele>
        <time>2010-09-30T07:49:59Z</time>
      </trkpt>
      <trkpt lat="44.1539" lon="7.23833">
        <ele>2306.911456</ele>
        <time>2010-09-30T07:50:02Z</time>
      </trkpt>
      <trkpt lat="44.15395" lon="7.23833">
        <ele>2307.47828</ele>
        <time>2010-09-30T07:50:05Z</time>
      </trkpt>
      <trkpt lat="44.15398" lon="7.23832">
        <ele>2308.061498</ele>
        <time>2010-09-30T07:50:08Z</time>
      </trkpt>
      <trkpt lat="44.15402" lon="7.23831">
        <ele>2308.65042</ele>
        <time>2010-09-30T07:50:11Z</time>
      </trkpt>
      <trkpt lat="44.15406" lon="7.23828">
        <ele>2309.238064</ele>
        <time>2010-09-30T07:50:14Z</time>
      </trkpt>
      <trkpt lat="44.15408" lon="7.23825">
        <ele>2309.828544</ele>
        <time>2010-09-30T07:50:16Z</time>
      </trkpt>
      <trkpt lat="44.15411" lon="7.23821">
        <ele>2310.438035</ele>
        <time>2010-09-30T07:50:19Z</time>
      </trkpt>
      <trkpt lat="44.15413" lon="7.23817">
        <ele>2311.084812</ele>
        <time>2010-09-30T07:50:22Z</time>
      </trkpt>
      <trkpt lat="44.15415" lon="7.23813">
        <ele>2311.743601</ele>
        <time>2010-09-30T07:50:24Z</time>
      </trkpt>
      <trkpt lat="44.15417" lon="7.23809">
        <ele>2312.387394</ele>
        <time>2010-09-30T07:50:26Z</time>
      </trkpt>
      <trkpt lat="44.15419" lon="7.23802">
        <ele>2313.04791</ele>
        <time>2010-09-30T07:50:29Z</time>
      </trkpt>
      <trkpt lat="44.15421" lon="7.23798">
        <ele>2313.72593</ele>
        <time>2010-09-30T07:50:31Z</time>
      </trkpt>
      <trkpt lat="44.15423" lon="7.23793">
        <ele>2314.360032</ele>
        <time>2010-09-30T07:50:33Z</time>
      </trkpt>
      <trkpt lat="44.15424" lon="7.23789">
        <ele>2314.971892</ele>
        <time>2010-09-30T07:50:35Z</time>
      </trkpt>
      <trkpt lat="44.15427" lon="7.23783">
        <ele>2315.618385</ele>
        <time>2010-09-30T07:50:38Z</time>
      </trkpt>
      <trkpt lat="44.1543" lon="7.2378">
        <ele>2316.274064</ele>
        <time>2010-09-30T07:50:41Z</time>
      </trkpt>
      <trkpt lat="44.15433" lon="7.23779">
        <ele>2316.898431</ele>
        <time>2010-09-30T07:50:44Z</time>
      </trkpt>
      <trkpt lat="44.15436" lon="7.23778">
        <ele>2317.539974</ele>
        <time>2010-09-30T07:50:47Z</time>
      </trkpt>
      <trkpt lat="44.15439" lon="7.23777">
        <ele>2318.277641</ele>
        <time>2010-09-30T07:50:50Z</time>
      </trkpt>
      <trkpt lat="44.15443" lon="7.23777">
        <ele>2319.122081</ele>
        <time>2010-09-30T07:50:53Z</time>
      </trkpt>
      <trkpt lat="44.15446" lon="7.23776">
        <ele>2320.01463</ele>
        <time>2010-09-30T07:50:56Z</time>
      </trkpt>
      <trkpt lat="44.15449" lon="7.23774">
        <ele>2320.902549</ele>
        <time>2010-09-30T07:50:59Z</time>
      </trkpt>
      <trkpt lat="44.15452" lon="7.23772">
        <ele>2321.758471</ele>
        <time>2010-09-30T07:51:02Z</time>
      </trkpt>
      <trkpt lat="44.15455" lon="7.23771">
        <ele>2322.577717</ele>
        <time>2010-09-30T07:51:05Z</time>
      </trkpt>
      <trkpt lat="44.15458" lon="7.23769">
        <ele>2323.364902</ele>
        <time>2010-09-30T07:51:08Z</time>
      </trkpt>
      <trkpt lat="44.15462" lon="7.23767">
        <ele>2324.122192</ele>
        <time>2010-09-30T07:51:11Z</time>
      </trkpt>
      <trkpt lat="44.15465" lon="7.23766">
        <ele>2324.85111</ele>
        <time>2010-09-30T07:51:14Z</time>
      </trkpt>
      <trkpt lat="44.15469" lon="7.23765">
        <ele>2325.559383</ele>
        <time>2010-09-30T07:51:17Z</time>
      </trkpt>
      <trkpt lat="44.15473" lon="7.23764">
        <ele>2326.25723</ele>
        <time>2010-09-30T07:51:20Z</time>
      </trkpt>
      <trkpt lat="44.15476" lon="7.23762">
        <ele>2326.947341</ele>
        <time>2010-09-30T07:51:23Z</time>
      </trkpt>
      <trkpt lat="44.1548" lon="7.23759">
        <ele>2327.623005</ele>
        <time>2010-09-30T07:51:26Z</time>
      </trkpt>
      <trkpt lat="44.15483" lon="7.23757">
        <ele>2328.277874</ele>
        <time>2010-09-30T07:51:29Z</time>
      </trkpt>
      <trkpt lat="44.15486" lon="7.23755">
        <ele>2328.911754</ele>
        <time>2010-09-30T07:51:32Z</time>
      </trkpt>
      <trkpt lat="44.15489" lon="7.23754">
        <ele>2329.52947</ele>
        <time>2010-09-30T07:51:35Z</time>
      </trkpt>
      <trkpt lat="44.15491" lon="7.23752">
        <ele>2330.133695</ele>
        <time>2010-09-30T07:51:38Z</time>
      </trkpt>
      <trkpt lat="44.15494" lon="7.23749">
        <ele>2330.721691</ele>
        <time>2010-09-30T07:51:41Z</time>
      </trkpt>
      <trkpt lat="44.15497" lon="7.2375">
        <ele>2331.29057</ele>
        <time>2010-09-30T07:51:44Z</time>
      </trkpt>
      <trkpt lat="44.155" lon="7.23751">
        <ele>2331.847635</ele>
        <time>2010-09-30T07:51:47Z</time>
      </trkpt>
      <trkpt lat="44.15504" lon="7.23751">
        <ele>2332.412804</ele>
        <time>2010-09-30T07:51:50Z</time>
      </trkpt>
      <trkpt lat="44.15508" lon="7.2375">
        <ele>2332.997927</ele>
        <time>2010-09-30T07:51:53Z</time>
      </trkpt>
      <trkpt lat="44.1551" lon="7.23749">
        <ele>2333.588621</ele>
        <time>2010-09-30T07:51:55Z</time>
      </trkpt>
      <trkpt lat="44.15514" lon="7.23748">
        <ele>2334.159259</ele>
        <time>2010-09-30T07:51:58Z</time>
      </trkpt>
      <trkpt lat="44.15518" lon="7.23746">
        <ele>2334.694978</ele>
        <time>2010-09-30T07:52:01Z</time>
      </trkpt>
      <trkpt lat="44.15521" lon="7.23744">
        <ele>2335.175551</ele>
        <time>2010-09-30T07:52:03Z</time>
      </trkpt>
      <trkpt lat="44.15523" lon="7.23742">
        <ele>2335.598148</ele>
        <time>2010-09-30T07:52:05Z</time>
      </trkpt>
      <trkpt lat="44.15526" lon="7.2374">
        <ele>2336.008138</ele>
        <time>2010-09-30T07:52:07Z</time>
      </trkpt>
      <trkpt lat="44.15529" lon="7.23739">
        <ele>2336.425065</ele>
        <time>2010-09-30T07:52:09Z</time>
      </trkpt>
      <trkpt lat="44.15531" lon="7.23737">
        <ele>2336.807742</ele>
        <time>2010-09-30T07:52:11Z</time>
      </trkpt>
      <trkpt lat="44.15535" lon="7.23734">
        <ele>2337.134746</ele>
        <time>2010-09-30T07:52:14Z</time>
      </trkpt>
      <trkpt lat="44.15539" lon="7.23733">
        <ele>2337.424459</ele>
        <time>2010-09-30T07:52:17Z</time>
      </trkpt>
      <trkpt lat="44.15543" lon="7.23732">
        <ele>2337.698928</ele>
        <time>2010-09-30T07:52:20Z</time>
      </trkpt>
      <trkpt lat="44.15546" lon="7.23731">
        <ele>2337.989407</ele>
        <time>2010-09-30T07:52:22Z</time>
      </trkpt>
      <trkpt lat="44.15551" lon="7.2373">
        <ele>2338.327252</ele>
        <time>2010-09-30T07:52:25Z</time>
      </trkpt>
      <trkpt lat="44.15555" lon="7.23727">
        <ele>2338.709502</ele>
        <time>2010-09-30T07:52:28Z</time>
      </trkpt>
      <trkpt lat="44.1556" lon="7.23725">
        <ele>2339.089526</ele>
        <time>2010-09-30T07:52:31Z</time>
      </trkpt>
      <trkpt lat="44.15564" lon="7.23724">
        <ele>2339.437305</ele>
        <time>2010-09-30T07:52:34Z</time>
      </trkpt>
      <trkpt lat="44.15567" lon="7.23723">
        <ele>2339.783823</ele>
        <time>2010-09-30T07:52:37Z</time>
      </trkpt>
      <trkpt lat="44.1557" lon="7.23721">
        <ele>2340.173931</ele>
        <time>2010-09-30T07:52:40Z</time>
      </trkpt>
      <trkpt lat="44.15573" lon="7.23719">
        <ele>2340.606984</ele>
        <time>2010-09-30T07:52:43Z</time>
      </trkpt>
      <trkpt lat="44.15576" lon="7.23719">
        <ele>2341.061852</ele>
        <time>2010-09-30T07:52:45Z</time>
      </trkpt>
      <trkpt lat="44.1558" lon="7.2372">
        <ele>2341.548452</ele>
        <time>2010-09-30T07:52:48Z</time>
      </trkpt>
      <trkpt lat="44.15585" lon="7.23721">
        <ele>2342.101959</ele>
        <time>2010-09-30T07:52:51Z</time>
      </trkpt>
      <trkpt lat="44.15588" lon="7.23721">
        <ele>2342.692618</ele>
        <time>2010-09-30T07:52:53Z</time>
      </trkpt>
      <trkpt lat="44.15592" lon="7.23721">
        <ele>2343.257918</ele>
        <time>2010-09-30T07:52:55Z</time>
      </trkpt>
      <trkpt lat="44.15595" lon="7.23721">
        <ele>2343.800109</ele>
        <time>2010-09-30T07:52:57Z</time>
      </trkpt>
      <trkpt lat="44.15601" lon="7.2372">
        <ele>2344.319341</ele>
        <time>2010-09-30T07:53:00Z</time>
      </trkpt>
      <trkpt lat="44.15604" lon="7.2372">
        <ele>2344.7686</ele>
        <time>2010-09-30T07:53:02Z</time>
      </trkpt>
      <trkpt lat="44.15608" lon="7.23719">
        <ele>2345.138086</ele>
        <time>2010-09-30T07:53:04Z</time>
      </trkpt>
      <trkpt lat="44.15613" lon="7.23718">
        <ele>2345.482432</ele>
        <time>2010-09-30T07:53:07Z</time>
      </trkpt>
      <trkpt lat="44.15616" lon="7.23718">
        <ele>2345.840954</ele>
        <time>2010-09-30T07:53:09Z</time>
      </trkpt>
      <trkpt lat="44.1562" lon="7.23718">
        <ele>2346.18499</ele>
        <time>2010-09-30T07:53:11Z</time>
      </trkpt>
      <trkpt lat="44.15625" lon="7.23717">
        <ele>2346.48572</ele>
        <time>2010-09-30T07:53:14Z</time>
      </trkpt>
      <trkpt lat="44.15629" lon="7.23717">
        <ele>2346.750378</ele>
        <time>2010-09-30T07:53:16Z</time>
      </trkpt>
      <trkpt lat="44.15636" lon="7.23716">
        <ele>2346.977687</ele>
        <time>2010-09-30T07:53:19Z</time>
      </trkpt>
      <trkpt lat="44.15641" lon="7.23715">
        <ele>2347.179287</ele>
        <time>2010-09-30T07:53:22Z</time>
      </trkpt>
      <trkpt lat="44.15645" lon="7.23715">
        <ele>2347.377302</ele>
        <time>2010-09-30T07:53:25Z</time>
      </trkpt>
      <trkpt lat="44.1565" lon="7.23716">
        <ele>2347.580118</ele>
        <time>2010-09-30T07:53:28Z</time>
      </trkpt>
      <trkpt lat="44.15653" lon="7.2372">
        <ele>2347.796783</ele>
        <time>2010-09-30T07:53:31Z</time>
      </trkpt>
      <trkpt lat="44.15656" lon="7.23724">
        <ele>2348.028002</ele>
        <time>2010-09-30T07:53:34Z</time>
      </trkpt>
      <trkpt lat="44.15656" lon="7.2373">
        <ele>2348.256551</ele>
        <time>2010-09-30T07:53:37Z</time>
      </trkpt>
      <trkpt lat="44.15656" lon="7.23734">
        <ele>2348.468901</ele>
        <time>2010-09-30T07:53:39Z</time>
      </trkpt>
      <trkpt lat="44.15657" lon="7.23737">
        <ele>2348.656979</ele>
        <time>2010-09-30T07:53:41Z</time>
      </trkpt>
      <trkpt lat="44.15658" lon="7.23743">
        <ele>2348.816348</ele>
        <time>2010-09-30T07:53:44Z</time>
      </trkpt>
      <trkpt lat="44.15657" lon="7.23747">
        <ele>2348.941555</ele>
        <time>2010-09-30T07:53:47Z</time>
      </trkpt>
      <trkpt lat="44.15656" lon="7.23752">
        <ele>2349.03021</ele>
        <time>2010-09-30T07:53:50Z</time>
      </trkpt>
      <trkpt lat="44.15655" lon="7.23757">
        <ele>2349.091692</ele>
        <time>2010-09-30T07:53:53Z</time>
      </trkpt>
      <trkpt lat="44.15653" lon="7.2376">
        <ele>2349.133526</ele>
        <time>2010-09-30T07:53:56Z</time>
      </trkpt>
      <trkpt lat="44.15651" lon="7.23764">
        <ele>2349.15401</ele>
        <time>2010-09-30T07:53:59Z</time>
      </trkpt>
      <trkpt lat="44.1565" lon="7.23768">
        <ele>2349.157495</ele>
        <time>2010-09-30T07:54:03Z</time>
      </trkpt>
      <trkpt lat="44.15648" lon="7.23773">
        <ele>2349.151748</ele>
        <time>2010-09-30T07:54:06Z</time>
      </trkpt>
      <trkpt lat="44.15647" lon="7.23777">
        <ele>2349.141275</ele>
        <time>2010-09-30T07:54:09Z</time>
      </trkpt>
      <trkpt lat="44.15646" lon="7.23781">
        <ele>2349.131125</ele>
        <time>2010-09-30T07:54:12Z</time>
      </trkpt>
      <trkpt lat="44.15646" lon="7.23785">
        <ele>2349.125034</ele>
        <time>2010-09-30T07:54:15Z</time>
      </trkpt>
      <trkpt lat="44.15645" lon="7.23789">
        <ele>2349.122777</ele>
        <time>2010-09-30T07:54:18Z</time>
      </trkpt>
      <trkpt lat="44.15643" lon="7.23794">
        <ele>2349.122444</ele>
        <time>2010-09-30T07:54:22Z</time>
      </trkpt>
      <trkpt lat="44.15642" lon="7.23797">
        <ele>2349.122212</ele>
        <time>2010-09-30T07:54:26Z</time>
      </trkpt>
      <trkpt lat="44.15641" lon="7.23801">
        <ele>2349.121795</ele>
        <time>2010-09-30T07:54:32Z</time>
      </trkpt>
      <trkpt lat="44.15641" lon="7.23801">
        <ele>2349.121547</ele>
        <time>2010-09-30T07:54:37Z</time>
      </trkpt>
      <trkpt lat="44.15629" lon="7.23835">
        <ele>2349.123639</ele>
        <time>2010-09-30T07:55:12Z</time>
      </trkpt>
      <trkpt lat="44.15629" lon="7.23839">
        <ele>2349.129788</ele>
        <time>2010-09-30T07:55:17Z</time>
      </trkpt>
      <trkpt lat="44.15629" lon="7.23839">
        <ele>2349.136913</ele>
        <time>2010-09-30T07:55:23Z</time>
      </trkpt>
      <trkpt lat="44.15617" lon="7.23877">
        <ele>2349.154687</ele>
        <time>2010-09-30T07:56:16Z</time>
      </trkpt>
      <trkpt lat="44.15617" lon="7.23877">
        <ele>2349.191333</ele>
        <time>2010-09-30T07:56:19Z</time>
      </trkpt>
      <trkpt lat="44.15594" lon="7.23901">
        <ele>2349.449194</ele>
        <time>2010-09-30T07:57:12Z</time>
      </trkpt>
      <trkpt lat="44.15591" lon="7.23902">
        <ele>2350.110213</ele>
        <time>2010-09-30T07:57:17Z</time>
      </trkpt>
      <trkpt lat="44.15591" lon="7.23902">
        <ele>2350.879319</ele>
        <time>2010-09-30T07:57:23Z</time>
      </trkpt>
      <trkpt lat="44.15591" lon="7.23902">
        <ele>2350.900252</ele>
        <time>2010-09-30T07:58:25Z</time>
      </trkpt>
      <trkpt lat="44.15567" lon="7.23882">
        <ele>2351.427636</ele>
        <time>2010-09-30T08:00:23Z</time>
      </trkpt>
      <trkpt lat="44.15563" lon="7.23878">
        <ele>2355.181588</ele>
        <time>2010-09-30T08:00:26Z</time>
      </trkpt>
      <trkpt lat="44.15562" lon="7.23871">
        <ele>2361.227788</ele>
        <time>2010-09-30T08:00:32Z</time>
      </trkpt>
      <trkpt lat="44.15563" lon="7.23865">
        <ele>2369.441677</ele>
        <time>2010-09-30T08:00:38Z</time>
      </trkpt>
      <trkpt lat="44.15563" lon="7.23865">
        <ele>2380.726278</ele>
        <time>2010-09-30T08:00:47Z</time>
      </trkpt>
      <trkpt lat="44.15563" lon="7.23865">
        <ele>2390.517425</ele>
        <time>2010-09-30T08:01:03Z</time>
      </trkpt>
      <trkpt lat="44.15579" lon="7.23883">
        <ele>2394.714627</ele>
        <time>2010-09-30T08:01:22Z</time>
      </trkpt>
      <trkpt lat="44.15579" lon="7.23883">
        <ele>2395.17337</ele>
        <time>2010-09-30T08:01:32Z</time>
      </trkpt>
      <trkpt lat="44.15579" lon="7.23883">
        <ele>2394.232889</ele>
        <time>2010-09-30T08:02:14Z</time>
      </trkpt>
      <trkpt lat="44.15593" lon="7.23915">
        <ele>2393.136743</ele>
        <time>2010-09-30T08:05:17Z</time>
      </trkpt>
      <trkpt lat="44.15596" lon="7.23917">
        <ele>2392.441054</ele>
        <time>2010-09-30T08:05:23Z</time>
      </trkpt>
      <trkpt lat="44.15599" lon="7.23917">
        <ele>2393.256885</ele>
        <time>2010-09-30T08:05:27Z</time>
      </trkpt>
      <trkpt lat="44.15601" lon="7.2392">
        <ele>2398.337543</ele>
        <time>2010-09-30T08:05:31Z</time>
      </trkpt>
      <trkpt lat="44.15603" lon="7.23924">
        <ele>2407.502147</ele>
        <time>2010-09-30T08:05:36Z</time>
      </trkpt>
      <trkpt lat="44.15605" lon="7.23927">
        <ele>2415.765276</ele>
        <time>2010-09-30T08:05:41Z</time>
      </trkpt>
      <trkpt lat="44.15607" lon="7.23929">
        <ele>2419.943292</ele>
        <time>2010-09-30T08:05:47Z</time>
      </trkpt>
      <trkpt lat="44.15607" lon="7.23929">
        <ele>2421.134474</ele>
        <time>2010-09-30T08:05:53Z</time>
      </trkpt>
      <trkpt lat="44.15636" lon="7.23924">
        <ele>2421.133857</ele>
        <time>2010-09-30T08:06:50Z</time>
      </trkpt>
      <trkpt lat="44.15639" lon="7.23925">
        <ele>2421.208937</ele>
        <time>2010-09-30T08:06:53Z</time>
      </trkpt>
      <trkpt lat="44.15642" lon="7.23927">
        <ele>2421.789227</ele>
        <time>2010-09-30T08:06:56Z</time>
      </trkpt>
      <trkpt lat="44.15643" lon="7.2393">
        <ele>2424.23569</ele>
        <time>2010-09-30T08:06:59Z</time>
      </trkpt>
      <trkpt lat="44.15644" lon="7.23935">
        <ele>2429.261828</ele>
        <time>2010-09-30T08:07:02Z</time>
      </trkpt>
      <trkpt lat="44.15647" lon="7.23939">
        <ele>2434.405547</ele>
        <time>2010-09-30T08:07:05Z</time>
      </trkpt>
      <trkpt lat="44.15649" lon="7.23942">
        <ele>2437.345646</ele>
        <time>2010-09-30T08:07:08Z</time>
      </trkpt>
      <trkpt lat="44.15651" lon="7.23945">
        <ele>2438.53963</ele>
        <time>2010-09-30T08:07:11Z</time>
      </trkpt>
      <trkpt lat="44.15654" lon="7.23946">
        <ele>2438.990712</ele>
        <time>2010-09-30T08:07:14Z</time>
      </trkpt>
      <trkpt lat="44.15658" lon="7.23948">
        <ele>2439.313601</ele>
        <time>2010-09-30T08:07:17Z</time>
      </trkpt>
      <trkpt lat="44.1566" lon="7.2395">
        <ele>2439.693261</ele>
        <time>2010-09-30T08:07:19Z</time>
      </trkpt>
      <trkpt lat="44.15663" lon="7.23952">
        <ele>2440.116267</ele>
        <time>2010-09-30T08:07:23Z</time>
      </trkpt>
      <trkpt lat="44.15665" lon="7.23956">
        <ele>2440.542049</ele>
        <time>2010-09-30T08:07:30Z</time>
      </trkpt>
      <trkpt lat="44.15666" lon="7.2396">
        <ele>2440.936944</ele>
        <time>2010-09-30T08:07:34Z</time>
      </trkpt>
      <trkpt lat="44.15668" lon="7.23963">
        <ele>2441.308483</ele>
        <time>2010-09-30T08:07:38Z</time>
      </trkpt>
      <trkpt lat="44.15672" lon="7.23964">
        <ele>2441.781595</ele>
        <time>2010-09-30T08:07:41Z</time>
      </trkpt>
      <trkpt lat="44.15678" lon="7.23964">
        <ele>2442.430635</ele>
        <time>2010-09-30T08:07:44Z</time>
      </trkpt>
      <trkpt lat="44.15683" lon="7.23962">
        <ele>2443.087536</ele>
        <time>2010-09-30T08:07:47Z</time>
      </trkpt>
      <trkpt lat="44.15686" lon="7.23961">
        <ele>2443.531457</ele>
        <time>2010-09-30T08:07:50Z</time>
      </trkpt>
      <trkpt lat="44.15691" lon="7.2396">
        <ele>2443.751694</ele>
        <time>2010-09-30T08:07:53Z</time>
      </trkpt>
      <trkpt lat="44.15695" lon="7.2396">
        <ele>2443.910481</ele>
        <time>2010-09-30T08:07:55Z</time>
      </trkpt>
      <trkpt lat="44.15697" lon="7.2396">
        <ele>2444.149676</ele>
        <time>2010-09-30T08:07:57Z</time>
      </trkpt>
      <trkpt lat="44.15702" lon="7.2396">
        <ele>2444.491473</ele>
        <time>2010-09-30T08:08:00Z</time>
      </trkpt>
      <trkpt lat="44.15706" lon="7.23963">
        <ele>2444.874992</ele>
        <time>2010-09-30T08:08:03Z</time>
      </trkpt>
      <trkpt lat="44.1571" lon="7.23966">
        <ele>2445.230957</ele>
        <time>2010-09-30T08:08:06Z</time>
      </trkpt>
      <trkpt lat="44.15713" lon="7.23969">
        <ele>2445.564167</ele>
        <time>2010-09-30T08:08:08Z</time>
      </trkpt>
      <trkpt lat="44.15715" lon="7.23971">
        <ele>2445.935902</ele>
        <time>2010-09-30T08:08:10Z</time>
      </trkpt>
      <trkpt lat="44.15717" lon="7.23976">
        <ele>2446.3715</ele>
        <time>2010-09-30T08:08:13Z</time>
      </trkpt>
      <trkpt lat="44.15719" lon="7.23979">
        <ele>2446.829418</ele>
        <time>2010-09-30T08:08:16Z</time>
      </trkpt>
      <trkpt lat="44.15719" lon="7.23983">
        <ele>2447.251515</ele>
        <time>2010-09-30T08:08:22Z</time>
      </trkpt>
      <trkpt lat="44.15719" lon="7.23987">
        <ele>2447.640121</ele>
        <time>2010-09-30T08:08:26Z</time>
      </trkpt>
      <trkpt lat="44.15722" lon="7.23989">
        <ele>2448.046939</ele>
        <time>2010-09-30T08:08:30Z</time>
      </trkpt>
      <trkpt lat="44.15726" lon="7.23988">
        <ele>2448.564164</ele>
        <time>2010-09-30T08:08:33Z</time>
      </trkpt>
      <trkpt lat="44.1573" lon="7.23989">
        <ele>2449.253978</ele>
        <time>2010-09-30T08:08:36Z</time>
      </trkpt>
      <trkpt lat="44.15733" lon="7.23989">
        <ele>2450.050537</ele>
        <time>2010-09-30T08:08:40Z</time>
      </trkpt>
      <trkpt lat="44.15736" lon="7.2399">
        <ele>2450.824309</ele>
        <time>2010-09-30T08:08:43Z</time>
      </trkpt>
      <trkpt lat="44.15739" lon="7.23991">
        <ele>2451.510072</ele>
        <time>2010-09-30T08:08:46Z</time>
      </trkpt>
      <trkpt lat="44.15743" lon="7.23992">
        <ele>2452.114737</ele>
        <time>2010-09-30T08:08:49Z</time>
      </trkpt>
      <trkpt lat="44.15747" lon="7.23991">
        <ele>2452.660896</ele>
        <time>2010-09-30T08:08:52Z</time>
      </trkpt>
      <trkpt lat="44.1575" lon="7.23992">
        <ele>2453.127552</ele>
        <time>2010-09-30T08:08:55Z</time>
      </trkpt>
      <trkpt lat="44.15753" lon="7.23993">
        <ele>2453.496414</ele>
        <time>2010-09-30T08:08:58Z</time>
      </trkpt>
      <trkpt lat="44.15756" lon="7.23994">
        <ele>2453.781908</ele>
        <time>2010-09-30T08:09:01Z</time>
      </trkpt>
      <trkpt lat="44.1576" lon="7.23995">
        <ele>2454.01476</ele>
        <time>2010-09-30T08:09:04Z</time>
      </trkpt>
      <trkpt lat="44.15763" lon="7.23995">
        <ele>2454.223789</ele>
        <time>2010-09-30T08:09:07Z</time>
      </trkpt>
      <trkpt lat="44.15767" lon="7.23995">
        <ele>2454.418242</ele>
        <time>2010-09-30T08:09:10Z</time>
      </trkpt>
      <trkpt lat="44.15771" lon="7.23995">
        <ele>2454.602378</ele>
        <time>2010-09-30T08:09:13Z</time>
      </trkpt>
      <trkpt lat="44.15774" lon="7.23996">
        <ele>2454.794811</ele>
        <time>2010-09-30T08:09:16Z</time>
      </trkpt>
      <trkpt lat="44.15777" lon="7.23998">
        <ele>2455.007991</ele>
        <time>2010-09-30T08:09:19Z</time>
      </trkpt>
      <trkpt lat="44.1578" lon="7.23999">
        <ele>2455.231362</ele>
        <time>2010-09-30T08:09:22Z</time>
      </trkpt>
      <trkpt lat="44.15784" lon="7.24">
        <ele>2455.445719</ele>
        <time>2010-09-30T08:09:25Z</time>
      </trkpt>
      <trkpt lat="44.15788" lon="7.24001">
        <ele>2455.63387</ele>
        <time>2010-09-30T08:09:28Z</time>
      </trkpt>
      <trkpt lat="44.15791" lon="7.24002">
        <ele>2455.785388</ele>
        <time>2010-09-30T08:09:31Z</time>
      </trkpt>
      <trkpt lat="44.15794" lon="7.24003">
        <ele>2455.905052</ele>
        <time>2010-09-30T08:09:34Z</time>
      </trkpt>
      <trkpt lat="44.15797" lon="7.24004">
        <ele>2456.006417</ele>
        <time>2010-09-30T08:09:37Z</time>
      </trkpt>
      <trkpt lat="44.15801" lon="7.24008">
        <ele>2456.099229</ele>
        <time>2010-09-30T08:09:40Z</time>
      </trkpt>
      <trkpt lat="44.15804" lon="7.24011">
        <ele>2456.187445</ele>
        <time>2010-09-30T08:09:43Z</time>
      </trkpt>
      <trkpt lat="44.15807" lon="7.24013">
        <ele>2456.269141</ele>
        <time>2010-09-30T08:09:46Z</time>
      </trkpt>
      <trkpt lat="44.15811" lon="7.24016">
        <ele>2456.34499</ele>
        <time>2010-09-30T08:09:49Z</time>
      </trkpt>
      <trkpt lat="44.15816" lon="7.24019">
        <ele>2456.420837</ele>
        <time>2010-09-30T08:09:52Z</time>
      </trkpt>
      <trkpt lat="44.15818" lon="7.2402">
        <ele>2456.496926</ele>
        <time>2010-09-30T08:09:54Z</time>
      </trkpt>
      <trkpt lat="44.15822" lon="7.24021">
        <ele>2456.567146</ele>
        <time>2010-09-30T08:09:57Z</time>
      </trkpt>
      <trkpt lat="44.15825" lon="7.24021">
        <ele>2456.63158</ele>
        <time>2010-09-30T08:10:00Z</time>
      </trkpt>
      <trkpt lat="44.15828" lon="7.2402">
        <ele>2456.691722</ele>
        <time>2010-09-30T08:10:03Z</time>
      </trkpt>
      <trkpt lat="44.15831" lon="7.2402">
        <ele>2456.746936</ele>
        <time>2010-09-30T08:10:06Z</time>
      </trkpt>
      <trkpt lat="44.15835" lon="7.24019">
        <ele>2456.801194</ele>
        <time>2010-09-30T08:10:09Z</time>
      </trkpt>
      <trkpt lat="44.15838" lon="7.24019">
        <ele>2456.862072</ele>
        <time>2010-09-30T08:10:12Z</time>
      </trkpt>
      <trkpt lat="44.15842" lon="7.24018">
        <ele>2456.931296</ele>
        <time>2010-09-30T08:10:15Z</time>
      </trkpt>
      <trkpt lat="44.15846" lon="7.24017">
        <ele>2457.00473</ele>
        <time>2010-09-30T08:10:18Z</time>
      </trkpt>
      <trkpt lat="44.1585" lon="7.24016">
        <ele>2457.077142</ele>
        <time>2010-09-30T08:10:21Z</time>
      </trkpt>
      <trkpt lat="44.15854" lon="7.24015">
        <ele>2457.150647</ele>
        <time>2010-09-30T08:10:24Z</time>
      </trkpt>
      <trkpt lat="44.15858" lon="7.24013">
        <ele>2457.234844</ele>
        <time>2010-09-30T08:10:26Z</time>
      </trkpt>
      <trkpt lat="44.15861" lon="7.24012">
        <ele>2457.333622</ele>
        <time>2010-09-30T08:10:28Z</time>
      </trkpt>
      <trkpt lat="44.15863" lon="7.24012">
        <ele>2457.431848</ele>
        <time>2010-09-30T08:10:30Z</time>
      </trkpt>
      <trkpt lat="44.15867" lon="7.24013">
        <ele>2457.513546</ele>
        <time>2010-09-30T08:10:33Z</time>
      </trkpt>
      <trkpt lat="44.15871" lon="7.24013">
        <ele>2457.581622</ele>
        <time>2010-09-30T08:10:36Z</time>
      </trkpt>
      <trkpt lat="44.15875" lon="7.24013">
        <ele>2457.645855</ele>
        <time>2010-09-30T08:10:39Z</time>
      </trkpt>
      <trkpt lat="44.15878" lon="7.24012">
        <ele>2457.71118</ele>
        <time>2010-09-30T08:10:42Z</time>
      </trkpt>
      <trkpt lat="44.15881" lon="7.24011">
        <ele>2457.777564</ele>
        <time>2010-09-30T08:10:45Z</time>
      </trkpt>
      <trkpt lat="44.15884" lon="7.24009">
        <ele>2457.838046</ele>
        <time>2010-09-30T08:10:48Z</time>
      </trkpt>
      <trkpt lat="44.15888" lon="7.24008">
        <ele>2457.887686</ele>
        <time>2010-09-30T08:10:51Z</time>
      </trkpt>
      <trkpt lat="44.15892" lon="7.24007">
        <ele>2457.927712</ele>
        <time>2010-09-30T08:10:54Z</time>
      </trkpt>
      <trkpt lat="44.15895" lon="7.24006">
        <ele>2457.958531</ele>
        <time>2010-09-30T08:10:57Z</time>
      </trkpt>
      <trkpt lat="44.15899" lon="7.24005">
        <ele>2457.980812</ele>
        <time>2010-09-30T08:11:00Z</time>
      </trkpt>
      <trkpt lat="44.15902" lon="7.24004">
        <ele>2458.000826</ele>
        <time>2010-09-30T08:11:03Z</time>
      </trkpt>
      <trkpt lat="44.15905" lon="7.24003">
        <ele>2458.02765</ele>
        <time>2010-09-30T08:11:06Z</time>
      </trkpt>
      <trkpt lat="44.15905" lon="7.24003">
        <ele>2458.059</ele>
        <time>2010-09-30T08:11:17Z</time>
      </trkpt>
      <trkpt lat="44.15905" lon="7.24003">
        <ele>2458.081476</ele>
        <time>2010-09-30T08:11:37Z</time>
      </trkpt>
      <trkpt lat="44.15935" lon="7.24007">
        <ele>2458.09663</ele>
        <time>2010-09-30T08:12:08Z</time>
      </trkpt>
      <trkpt lat="44.15939" lon="7.24007">
        <ele>2458.120736</ele>
        <time>2010-09-30T08:12:11Z</time>
      </trkpt>
      <trkpt lat="44.15942" lon="7.24007">
        <ele>2458.157573</ele>
        <time>2010-09-30T08:12:13Z</time>
      </trkpt>
      <trkpt lat="44.15946" lon="7.24008">
        <ele>2459.464505</ele>
        <time>2010-09-30T08:12:16Z</time>
      </trkpt>
      <trkpt lat="44.15948" lon="7.2401">
        <ele>2462.916314</ele>
        <time>2010-09-30T08:12:18Z</time>
      </trkpt>
      <trkpt lat="44.15952" lon="7.24012">
        <ele>2466.712249</ele>
        <time>2010-09-30T08:12:21Z</time>
      </trkpt>
      <trkpt lat="44.15955" lon="7.24014">
        <ele>2468.95918</ele>
        <time>2010-09-30T08:12:24Z</time>
      </trkpt>
      <trkpt lat="44.15959" lon="7.24014">
        <ele>2469.913239</ele>
        <time>2010-09-30T08:12:27Z</time>
      </trkpt>
      <trkpt lat="44.15962" lon="7.24014">
        <ele>2470.306874</ele>
        <time>2010-09-30T08:12:30Z</time>
      </trkpt>
      <trkpt lat="44.15965" lon="7.24014">
        <ele>2470.6458</ele>
        <time>2010-09-30T08:12:33Z</time>
      </trkpt>
      <trkpt lat="44.15968" lon="7.24016">
        <ele>2471.129399</ele>
        <time>2010-09-30T08:12:35Z</time>
      </trkpt>
      <trkpt lat="44.15971" lon="7.24017">
        <ele>2471.74166</ele>
        <time>2010-09-30T08:12:43Z</time>
      </trkpt>
      <trkpt lat="44.15974" lon="7.24015">
        <ele>2472.420383</ele>
        <time>2010-09-30T08:12:46Z</time>
      </trkpt>
      <trkpt lat="44.15978" lon="7.24018">
        <ele>2473.09446</ele>
        <time>2010-09-30T08:12:49Z</time>
      </trkpt>
      <trkpt lat="44.1598" lon="7.24023">
        <ele>2473.884724</ele>
        <time>2010-09-30T08:12:52Z</time>
      </trkpt>
      <trkpt lat="44.15983" lon="7.24026">
        <ele>2474.982714</ele>
        <time>2010-09-30T08:12:55Z</time>
      </trkpt>
      <trkpt lat="44.15985" lon="7.24028">
        <ele>2476.30878</ele>
        <time>2010-09-30T08:12:57Z</time>
      </trkpt>
      <trkpt lat="44.15988" lon="7.2403">
        <ele>2477.603936</ele>
        <time>2010-09-30T08:13:01Z</time>
      </trkpt>
      <trkpt lat="44.1599" lon="7.24032">
        <ele>2478.668184</ele>
        <time>2010-09-30T08:13:09Z</time>
      </trkpt>
      <trkpt lat="44.15993" lon="7.24034">
        <ele>2479.421291</ele>
        <time>2010-09-30T08:13:13Z</time>
      </trkpt>
      <trkpt lat="44.15996" lon="7.24036">
        <ele>2480.090465</ele>
        <time>2010-09-30T08:13:17Z</time>
      </trkpt>
      <trkpt lat="44.15999" lon="7.24038">
        <ele>2481.232264</ele>
        <time>2010-09-30T08:13:20Z</time>
      </trkpt>
      <trkpt lat="44.16002" lon="7.24039">
        <ele>2483.094451</ele>
        <time>2010-09-30T08:13:23Z</time>
      </trkpt>
      <trkpt lat="44.16005" lon="7.24042">
        <ele>2485.207829</ele>
        <time>2010-09-30T08:13:26Z</time>
      </trkpt>
      <trkpt lat="44.16008" lon="7.24044">
        <ele>2486.999367</ele>
        <time>2010-09-30T08:13:29Z</time>
      </trkpt>
      <trkpt lat="44.16011" lon="7.24046">
        <ele>2488.32501</ele>
        <time>2010-09-30T08:13:32Z</time>
      </trkpt>
      <trkpt lat="44.16014" lon="7.24048">
        <ele>2489.304446</ele>
        <time>2010-09-30T08:13:35Z</time>
      </trkpt>
      <trkpt lat="44.16016" lon="7.24049">
        <ele>2490.124728</ele>
        <time>2010-09-30T08:13:38Z</time>
      </trkpt>
      <trkpt lat="44.16019" lon="7.24051">
        <ele>2490.894658</ele>
        <time>2010-09-30T08:13:41Z</time>
      </trkpt>
      <trkpt lat="44.16022" lon="7.24051">
        <ele>2491.649993</ele>
        <time>2010-09-30T08:13:44Z</time>
      </trkpt>
      <trkpt lat="44.16025" lon="7.24052">
        <ele>2492.392211</ele>
        <time>2010-09-30T08:13:48Z</time>
      </trkpt>
      <trkpt lat="44.16025" lon="7.24052">
        <ele>2493.019607</ele>
        <time>2010-09-30T08:13:57Z</time>
      </trkpt>
      <trkpt lat="44.16025" lon="7.24052">
        <ele>2493.378319</ele>
        <time>2010-09-30T08:14:13Z</time>
      </trkpt>
      <trkpt lat="44.16047" lon="7.24078">
        <ele>2493.567298</ele>
        <time>2010-09-30T08:14:54Z</time>
      </trkpt>
      <trkpt lat="44.1605" lon="7.24075">
        <ele>2493.891171</ele>
        <time>2010-09-30T08:14:58Z</time>
      </trkpt>
      <trkpt lat="44.1605" lon="7.24075">
        <ele>2494.368608</ele>
        <time>2010-09-30T08:15:08Z</time>
      </trkpt>
      <trkpt lat="44.16077" lon="7.24063">
        <ele>2494.879924</ele>
        <time>2010-09-30T08:15:59Z</time>
      </trkpt>
      <trkpt lat="44.1608" lon="7.24066">
        <ele>2496.908363</ele>
        <time>2010-09-30T08:16:03Z</time>
      </trkpt>
      <trkpt lat="44.16082" lon="7.24066">
        <ele>2501.340388</ele>
        <time>2010-09-30T08:16:08Z</time>
      </trkpt>
      <trkpt lat="44.16085" lon="7.24068">
        <ele>2506.589886</ele>
        <time>2010-09-30T08:16:12Z</time>
      </trkpt>
      <trkpt lat="44.16088" lon="7.24069">
        <ele>2510.841975</ele>
        <time>2010-09-30T08:16:16Z</time>
      </trkpt>
      <trkpt lat="44.1609" lon="7.2407">
        <ele>2513.335494</ele>
        <time>2010-09-30T08:16:20Z</time>
      </trkpt>
      <trkpt lat="44.1609" lon="7.2407">
        <ele>2513.99902</ele>
        <time>2010-09-30T08:16:28Z</time>
      </trkpt>
      <trkpt lat="44.16108" lon="7.24051">
        <ele>2513.75654</ele>
        <time>2010-09-30T08:17:35Z</time>
      </trkpt>
      <trkpt lat="44.16101" lon="7.24074">
        <ele>2509.612591</ele>
        <time>2010-09-30T08:24:35Z</time>
      </trkpt>
      <trkpt lat="44.16103" lon="7.24077">
        <ele>2515.732478</ele>
        <time>2010-09-30T08:24:37Z</time>
      </trkpt>
      <trkpt lat="44.16105" lon="7.24082">
        <ele>2522.111004</ele>
        <time>2010-09-30T08:24:40Z</time>
      </trkpt>
      <trkpt lat="44.16107" lon="7.24085">
        <ele>2527.784128</ele>
        <time>2010-09-30T08:24:43Z</time>
      </trkpt>
      <trkpt lat="44.16109" lon="7.24089">
        <ele>2535.071943</ele>
        <time>2010-09-30T08:24:46Z</time>
      </trkpt>
      <trkpt lat="44.16112" lon="7.24092">
        <ele>2541.692019</ele>
        <time>2010-09-30T08:24:49Z</time>
      </trkpt>
      <trkpt lat="44.16114" lon="7.24096">
        <ele>2544.868476</ele>
        <time>2010-09-30T08:24:52Z</time>
      </trkpt>
      <trkpt lat="44.16115" lon="7.24099">
        <ele>2545.633437</ele>
        <time>2010-09-30T08:24:55Z</time>
      </trkpt>
      <trkpt lat="44.16116" lon="7.24103">
        <ele>2545.516292</ele>
        <time>2010-09-30T08:24:58Z</time>
      </trkpt>
      <trkpt lat="44.16116" lon="7.24107">
        <ele>2545.376314</ele>
        <time>2010-09-30T08:25:01Z</time>
      </trkpt>
      <trkpt lat="44.16116" lon="7.24112">
        <ele>2545.431925</ele>
        <time>2010-09-30T08:25:04Z</time>
      </trkpt>
      <trkpt lat="44.16115" lon="7.24116">
        <ele>2545.607491</ele>
        <time>2010-09-30T08:25:07Z</time>
      </trkpt>
      <trkpt lat="44.16115" lon="7.2412">
        <ele>2545.798323</ele>
        <time>2010-09-30T08:25:10Z</time>
      </trkpt>
      <trkpt lat="44.16117" lon="7.24122">
        <ele>2545.964069</ele>
        <time>2010-09-30T08:25:15Z</time>
      </trkpt>
      <trkpt lat="44.1612" lon="7.2412">
        <ele>2546.104846</ele>
        <time>2010-09-30T08:25:17Z</time>
      </trkpt>
      <trkpt lat="44.16123" lon="7.24116">
        <ele>2546.23356</ele>
        <time>2010-09-30T08:25:20Z</time>
      </trkpt>
      <trkpt lat="44.16126" lon="7.24113">
        <ele>2546.343591</ele>
        <time>2010-09-30T08:25:23Z</time>
      </trkpt>
      <trkpt lat="44.16129" lon="7.2411">
        <ele>2546.408987</ele>
        <time>2010-09-30T08:25:26Z</time>
      </trkpt>
      <trkpt lat="44.16132" lon="7.24107">
        <ele>2546.426813</ele>
        <time>2010-09-30T08:25:29Z</time>
      </trkpt>
      <trkpt lat="44.16135" lon="7.24105">
        <ele>2546.404042</ele>
        <time>2010-09-30T08:25:32Z</time>
      </trkpt>
      <trkpt lat="44.16139" lon="7.24106">
        <ele>2546.330484</ele>
        <time>2010-09-30T08:25:35Z</time>
      </trkpt>
      <trkpt lat="44.16142" lon="7.24108">
        <ele>2546.218588</ele>
        <time>2010-09-30T08:25:38Z</time>
      </trkpt>
      <trkpt lat="44.16144" lon="7.2411">
        <ele>2546.107241</ele>
        <time>2010-09-30T08:25:41Z</time>
      </trkpt>
      <trkpt lat="44.16147" lon="7.24113">
        <ele>2546.01789</ele>
        <time>2010-09-30T08:25:44Z</time>
      </trkpt>
      <trkpt lat="44.16149" lon="7.24117">
        <ele>2545.951567</ele>
        <time>2010-09-30T08:25:47Z</time>
      </trkpt>
      <trkpt lat="44.1615" lon="7.24121">
        <ele>2545.908864</ele>
        <time>2010-09-30T08:25:50Z</time>
      </trkpt>
      <trkpt lat="44.1615" lon="7.24125">
        <ele>2545.888762</ele>
        <time>2010-09-30T08:25:53Z</time>
      </trkpt>
      <trkpt lat="44.1615" lon="7.24129">
        <ele>2545.883354</ele>
        <time>2010-09-30T08:25:57Z</time>
      </trkpt>
      <trkpt lat="44.1615" lon="7.24133">
        <ele>2545.882626</ele>
        <time>2010-09-30T08:26:00Z</time>
      </trkpt>
      <trkpt lat="44.16147" lon="7.24138">
        <ele>2545.881162</ele>
        <time>2010-09-30T08:26:03Z</time>
      </trkpt>
      <trkpt lat="44.16143" lon="7.2414">
        <ele>2545.879088</ele>
        <time>2010-09-30T08:26:05Z</time>
      </trkpt>
      <trkpt lat="44.1614" lon="7.24144">
        <ele>2545.877945</ele>
        <time>2010-09-30T08:26:08Z</time>
      </trkpt>
      <trkpt lat="44.16139" lon="7.24148">
        <ele>2545.883074</ele>
        <time>2010-09-30T08:26:11Z</time>
      </trkpt>
      <trkpt lat="44.16139" lon="7.24152">
        <ele>2545.928596</ele>
        <time>2010-09-30T08:26:14Z</time>
      </trkpt>
      <trkpt lat="44.16138" lon="7.24156">
        <ele>2546.075729</ele>
        <time>2010-09-30T08:26:17Z</time>
      </trkpt>
      <trkpt lat="44.16134" lon="7.2416">
        <ele>2546.346172</ele>
        <time>2010-09-30T08:26:20Z</time>
      </trkpt>
      <trkpt lat="44.16129" lon="7.24163">
        <ele>2546.68874</ele>
        <time>2010-09-30T08:26:23Z</time>
      </trkpt>
      <trkpt lat="44.16126" lon="7.24165">
        <ele>2547.044654</ele>
        <time>2010-09-30T08:26:26Z</time>
      </trkpt>
      <trkpt lat="44.16124" lon="7.24169">
        <ele>2547.436424</ele>
        <time>2010-09-30T08:26:30Z</time>
      </trkpt>
      <trkpt lat="44.16123" lon="7.24173">
        <ele>2547.948313</ele>
        <time>2010-09-30T08:26:33Z</time>
      </trkpt>
      <trkpt lat="44.16123" lon="7.24178">
        <ele>2548.602748</ele>
        <time>2010-09-30T08:26:36Z</time>
      </trkpt>
      <trkpt lat="44.16123" lon="7.24183">
        <ele>2549.357951</ele>
        <time>2010-09-30T08:26:39Z</time>
      </trkpt>
      <trkpt lat="44.16122" lon="7.24189">
        <ele>2550.151742</ele>
        <time>2010-09-30T08:26:42Z</time>
      </trkpt>
      <trkpt lat="44.1612" lon="7.24194">
        <ele>2550.902167</ele>
        <time>2010-09-30T08:26:45Z</time>
      </trkpt>
      <trkpt lat="44.16119" lon="7.24198">
        <ele>2551.572135</ele>
        <time>2010-09-30T08:26:48Z</time>
      </trkpt>
      <trkpt lat="44.1612" lon="7.24202">
        <ele>2552.194056</ele>
        <time>2010-09-30T08:26:51Z</time>
      </trkpt>
      <trkpt lat="44.16121" lon="7.24207">
        <ele>2552.807953</ele>
        <time>2010-09-30T08:26:54Z</time>
      </trkpt>
      <trkpt lat="44.16122" lon="7.24211">
        <ele>2553.435403</ele>
        <time>2010-09-30T08:26:57Z</time>
      </trkpt>
      <trkpt lat="44.16123" lon="7.24215">
        <ele>2554.083507</ele>
        <time>2010-09-30T08:27:00Z</time>
      </trkpt>
      <trkpt lat="44.16124" lon="7.24219">
        <ele>2554.767361</ele>
        <time>2010-09-30T08:27:03Z</time>
      </trkpt>
      <trkpt lat="44.16125" lon="7.24223">
        <ele>2555.508301</ele>
        <time>2010-09-30T08:27:07Z</time>
      </trkpt>
      <trkpt lat="44.16127" lon="7.24227">
        <ele>2556.302057</ele>
        <time>2010-09-30T08:27:11Z</time>
      </trkpt>
      <trkpt lat="44.16128" lon="7.24232">
        <ele>2557.122681</ele>
        <time>2010-09-30T08:27:15Z</time>
      </trkpt>
      <trkpt lat="44.16127" lon="7.24236">
        <ele>2558.009231</ele>
        <time>2010-09-30T08:27:19Z</time>
      </trkpt>
      <trkpt lat="44.16127" lon="7.2424">
        <ele>2559.071415</ele>
        <time>2010-09-30T08:27:22Z</time>
      </trkpt>
      <trkpt lat="44.16129" lon="7.24245">
        <ele>2560.34831</ele>
        <time>2010-09-30T08:27:26Z</time>
      </trkpt>
      <trkpt lat="44.16129" lon="7.24249">
        <ele>2561.770071</ele>
        <time>2010-09-30T08:27:29Z</time>
      </trkpt>
      <trkpt lat="44.16129" lon="7.24255">
        <ele>2563.185688</ele>
        <time>2010-09-30T08:27:32Z</time>
      </trkpt>
      <trkpt lat="44.16129" lon="7.24258">
        <ele>2564.47295</ele>
        <time>2010-09-30T08:27:34Z</time>
      </trkpt>
      <trkpt lat="44.16127" lon="7.24263">
        <ele>2565.623036</ele>
        <time>2010-09-30T08:27:37Z</time>
      </trkpt>
      <trkpt lat="44.16126" lon="7.24267">
        <ele>2566.659307</ele>
        <time>2010-09-30T08:27:40Z</time>
      </trkpt>
      <trkpt lat="44.16126" lon="7.24272">
        <ele>2567.564291</ele>
        <time>2010-09-30T08:27:43Z</time>
      </trkpt>
      <trkpt lat="44.16126" lon="7.24276">
        <ele>2568.381429</ele>
        <time>2010-09-30T08:27:45Z</time>
      </trkpt>
      <trkpt lat="44.16126" lon="7.24281">
        <ele>2569.2288</ele>
        <time>2010-09-30T08:27:48Z</time>
      </trkpt>
      <trkpt lat="44.16125" lon="7.24286">
        <ele>2570.181938</ele>
        <time>2010-09-30T08:27:51Z</time>
      </trkpt>
      <trkpt lat="44.16125" lon="7.2429">
        <ele>2571.158927</ele>
        <time>2010-09-30T08:27:53Z</time>
      </trkpt>
      <trkpt lat="44.16125" lon="7.24295">
        <ele>2572.06775</ele>
        <time>2010-09-30T08:27:55Z</time>
      </trkpt>
      <trkpt lat="44.16125" lon="7.243">
        <ele>2572.93394</ele>
        <time>2010-09-30T08:27:58Z</time>
      </trkpt>
      <trkpt lat="44.16125" lon="7.24306">
        <ele>2573.768785</ele>
        <time>2010-09-30T08:28:01Z</time>
      </trkpt>
      <trkpt lat="44.16125" lon="7.24312">
        <ele>2574.499993</ele>
        <time>2010-09-30T08:28:04Z</time>
      </trkpt>
      <trkpt lat="44.16124" lon="7.24317">
        <ele>2575.149974</ele>
        <time>2010-09-30T08:28:07Z</time>
      </trkpt>
      <trkpt lat="44.16124" lon="7.24323">
        <ele>2575.816592</ele>
        <time>2010-09-30T08:28:10Z</time>
      </trkpt>
      <trkpt lat="44.16127" lon="7.24328">
        <ele>2576.510582</ele>
        <time>2010-09-30T08:28:13Z</time>
      </trkpt>
      <trkpt lat="44.16129" lon="7.24331">
        <ele>2577.160086</ele>
        <time>2010-09-30T08:28:15Z</time>
      </trkpt>
      <trkpt lat="44.16132" lon="7.24334">
        <ele>2577.703809</ele>
        <time>2010-09-30T08:28:18Z</time>
      </trkpt>
      <trkpt lat="44.16136" lon="7.24336">
        <ele>2578.125221</ele>
        <time>2010-09-30T08:28:21Z</time>
      </trkpt>
      <trkpt lat="44.16139" lon="7.24339">
        <ele>2578.442829</ele>
        <time>2010-09-30T08:28:24Z</time>
      </trkpt>
      <trkpt lat="44.16143" lon="7.24342">
        <ele>2578.69713</ele>
        <time>2010-09-30T08:28:27Z</time>
      </trkpt>
      <trkpt lat="44.16147" lon="7.24343">
        <ele>2578.932461</ele>
        <time>2010-09-30T08:28:30Z</time>
      </trkpt>
      <trkpt lat="44.16149" lon="7.24345">
        <ele>2579.166662</ele>
        <time>2010-09-30T08:28:32Z</time>
      </trkpt>
      <trkpt lat="44.16153" lon="7.24345">
        <ele>2579.392974</ele>
        <time>2010-09-30T08:28:35Z</time>
      </trkpt>
      <trkpt lat="44.16155" lon="7.24344">
        <ele>2579.608723</ele>
        <time>2010-09-30T08:28:39Z</time>
      </trkpt>
      <trkpt lat="44.16158" lon="7.24343">
        <ele>2579.808105</ele>
        <time>2010-09-30T08:28:42Z</time>
      </trkpt>
      <trkpt lat="44.16161" lon="7.24342">
        <ele>2579.991875</ele>
        <time>2010-09-30T08:28:45Z</time>
      </trkpt>
      <trkpt lat="44.16165" lon="7.24343">
        <ele>2580.190033</ele>
        <time>2010-09-30T08:28:48Z</time>
      </trkpt>
      <trkpt lat="44.16168" lon="7.24346">
        <ele>2580.426165</ele>
        <time>2010-09-30T08:28:51Z</time>
      </trkpt>
      <trkpt lat="44.16172" lon="7.24348">
        <ele>2580.675991</ele>
        <time>2010-09-30T08:28:54Z</time>
      </trkpt>
      <trkpt lat="44.16175" lon="7.24351">
        <ele>2580.904403</ele>
        <time>2010-09-30T08:28:57Z</time>
      </trkpt>
      <trkpt lat="44.16179" lon="7.24353">
        <ele>2581.105171</ele>
        <time>2010-09-30T08:29:00Z</time>
      </trkpt>
      <trkpt lat="44.16182" lon="7.24354">
        <ele>2581.290023</ele>
        <time>2010-09-30T08:29:03Z</time>
      </trkpt>
      <trkpt lat="44.1618" lon="7.24357">
        <ele>2581.466137</ele>
        <time>2010-09-30T08:29:09Z</time>
      </trkpt>
      <trkpt lat="44.16176" lon="7.24358">
        <ele>2581.631275</ele>
        <time>2010-09-30T08:29:12Z</time>
      </trkpt>
      <trkpt lat="44.16173" lon="7.24359">
        <ele>2581.780962</ele>
        <time>2010-09-30T08:29:16Z</time>
      </trkpt>
      <trkpt lat="44.16174" lon="7.24363">
        <ele>2581.946103</ele>
        <time>2010-09-30T08:29:23Z</time>
      </trkpt>
      <trkpt lat="44.16178" lon="7.24364">
        <ele>2582.162687</ele>
        <time>2010-09-30T08:29:26Z</time>
      </trkpt>
      <trkpt lat="44.16181" lon="7.24364">
        <ele>2582.379688</ele>
        <time>2010-09-30T08:29:28Z</time>
      </trkpt>
      <trkpt lat="44.16184" lon="7.24363">
        <ele>2582.509628</ele>
        <time>2010-09-30T08:29:30Z</time>
      </trkpt>
      <trkpt lat="44.16184" lon="7.24363">
        <ele>2582.545511</ele>
        <time>2010-09-30T08:29:31Z</time>
      </trkpt>
      <trkpt lat="44.16184" lon="7.24363">
        <ele>2582.535436</ele>
        <time>2010-09-30T08:29:31Z</time>
      </trkpt>
      <trkpt lat="44.16187" lon="7.24361">
        <ele>2582.505835</ele>
        <time>2010-09-30T08:29:33Z</time>
      </trkpt>
      <trkpt lat="44.16189" lon="7.24359">
        <ele>2582.447829</ele>
        <time>2010-09-30T08:29:36Z</time>
      </trkpt>
      <trkpt lat="44.1619" lon="7.24355">
        <ele>2582.353696</ele>
        <time>2010-09-30T08:29:41Z</time>
      </trkpt>
      <trkpt lat="44.16193" lon="7.24351">
        <ele>2582.230214</ele>
        <time>2010-09-30T08:29:46Z</time>
      </trkpt>
      <trkpt lat="44.16195" lon="7.24348">
        <ele>2582.056878</ele>
        <time>2010-09-30T08:29:49Z</time>
      </trkpt>
      <trkpt lat="44.162" lon="7.24344">
        <ele>2581.84783</ele>
        <time>2010-09-30T08:29:59Z</time>
      </trkpt>
      <trkpt lat="44.16204" lon="7.24345">
        <ele>2581.690802</ele>
        <time>2010-09-30T08:30:04Z</time>
      </trkpt>
      <trkpt lat="44.16207" lon="7.24345">
        <ele>2581.594603</ele>
        <time>2010-09-30T08:30:07Z</time>
      </trkpt>
      <trkpt lat="44.16212" lon="7.24347">
        <ele>2581.415524</ele>
        <time>2010-09-30T08:30:12Z</time>
      </trkpt>
      <trkpt lat="44.16216" lon="7.2435">
        <ele>2581.096481</ele>
        <time>2010-09-30T08:30:18Z</time>
      </trkpt>
      <trkpt lat="44.16219" lon="7.24352">
        <ele>2580.771361</ele>
        <time>2010-09-30T08:30:22Z</time>
      </trkpt>
      <trkpt lat="44.16221" lon="7.24354">
        <ele>2580.569942</ele>
        <time>2010-09-30T08:30:25Z</time>
      </trkpt>
      <trkpt lat="44.16223" lon="7.24357">
        <ele>2580.466003</ele>
        <time>2010-09-30T08:30:27Z</time>
      </trkpt>
      <trkpt lat="44.16227" lon="7.24362">
        <ele>2580.351798</ele>
        <time>2010-09-30T08:30:30Z</time>
      </trkpt>
      <trkpt lat="44.16231" lon="7.24366">
        <ele>2580.171809</ele>
        <time>2010-09-30T08:30:33Z</time>
      </trkpt>
      <trkpt lat="44.16234" lon="7.24367">
        <ele>2579.968845</ele>
        <time>2010-09-30T08:30:35Z</time>
      </trkpt>
      <trkpt lat="44.16239" lon="7.24367">
        <ele>2579.788396</ele>
        <time>2010-09-30T08:30:38Z</time>
      </trkpt>
      <trkpt lat="44.16243" lon="7.24367">
        <ele>2579.628102</ele>
        <time>2010-09-30T08:30:40Z</time>
      </trkpt>
      <trkpt lat="44.16246" lon="7.24367">
        <ele>2579.479384</ele>
        <time>2010-09-30T08:30:42Z</time>
      </trkpt>
      <trkpt lat="44.16248" lon="7.24367">
        <ele>2579.33875</ele>
        <time>2010-09-30T08:30:44Z</time>
      </trkpt>
      <trkpt lat="44.16253" lon="7.24366">
        <ele>2579.197886</ele>
        <time>2010-09-30T08:30:47Z</time>
      </trkpt>
      <trkpt lat="44.16256" lon="7.24365">
        <ele>2579.058202</ele>
        <time>2010-09-30T08:30:49Z</time>
      </trkpt>
      <trkpt lat="44.1626" lon="7.24364">
        <ele>2578.925653</ele>
        <time>2010-09-30T08:30:52Z</time>
      </trkpt>
      <trkpt lat="44.16263" lon="7.24363">
        <ele>2578.791892</ele>
        <time>2010-09-30T08:30:54Z</time>
      </trkpt>
      <trkpt lat="44.16266" lon="7.24362">
        <ele>2578.650008</ele>
        <time>2010-09-30T08:30:56Z</time>
      </trkpt>
      <trkpt lat="44.1627" lon="7.24363">
        <ele>2578.496624</ele>
        <time>2010-09-30T08:30:59Z</time>
      </trkpt>
      <trkpt lat="44.16273" lon="7.24364">
        <ele>2578.333988</ele>
        <time>2010-09-30T08:31:01Z</time>
      </trkpt>
      <trkpt lat="44.16277" lon="7.24366">
        <ele>2578.178881</ele>
        <time>2010-09-30T08:31:04Z</time>
      </trkpt>
      <trkpt lat="44.1628" lon="7.24366">
        <ele>2578.039432</ele>
        <time>2010-09-30T08:31:07Z</time>
      </trkpt>
      <trkpt lat="44.16282" lon="7.24366">
        <ele>2577.906578</ele>
        <time>2010-09-30T08:31:10Z</time>
      </trkpt>
      <trkpt lat="44.16285" lon="7.24364">
        <ele>2577.773079</ele>
        <time>2010-09-30T08:31:13Z</time>
      </trkpt>
      <trkpt lat="44.16288" lon="7.24363">
        <ele>2577.629764</ele>
        <time>2010-09-30T08:31:16Z</time>
      </trkpt>
      <trkpt lat="44.16291" lon="7.24361">
        <ele>2577.469714</ele>
        <time>2010-09-30T08:31:19Z</time>
      </trkpt>
      <trkpt lat="44.16295" lon="7.2436">
        <ele>2577.29718</ele>
        <time>2010-09-30T08:31:22Z</time>
      </trkpt>
      <trkpt lat="44.16297" lon="7.24364">
        <ele>2577.121929</ele>
        <time>2010-09-30T08:31:25Z</time>
      </trkpt>
      <trkpt lat="44.16297" lon="7.24368">
        <ele>2576.955938</ele>
        <time>2010-09-30T08:31:29Z</time>
      </trkpt>
      <trkpt lat="44.16301" lon="7.24368">
        <ele>2576.800744</ele>
        <time>2010-09-30T08:31:35Z</time>
      </trkpt>
      <trkpt lat="44.16304" lon="7.24366">
        <ele>2576.647091</ele>
        <time>2010-09-30T08:31:38Z</time>
      </trkpt>
      <trkpt lat="44.16306" lon="7.24364">
        <ele>2576.485667</ele>
        <time>2010-09-30T08:31:41Z</time>
      </trkpt>
      <trkpt lat="44.16308" lon="7.2436">
        <ele>2576.301494</ele>
        <time>2010-09-30T08:31:44Z</time>
      </trkpt>
      <trkpt lat="44.16311" lon="7.24356">
        <ele>2576.098246</ele>
        <time>2010-09-30T08:31:47Z</time>
      </trkpt>
      <trkpt lat="44.16312" lon="7.24351">
        <ele>2575.913488</ele>
        <time>2010-09-30T08:31:50Z</time>
      </trkpt>
      <trkpt lat="44.16315" lon="7.24346">
        <ele>2575.759583</ele>
        <time>2010-09-30T08:31:53Z</time>
      </trkpt>
      <trkpt lat="44.16317" lon="7.24342">
        <ele>2575.613921</ele>
        <time>2010-09-30T08:31:56Z</time>
      </trkpt>
      <trkpt lat="44.1632" lon="7.24341">
        <ele>2575.468614</ele>
        <time>2010-09-30T08:31:59Z</time>
      </trkpt>
      <trkpt lat="44.16324" lon="7.2434">
        <ele>2575.346026</ele>
        <time>2010-09-30T08:32:03Z</time>
      </trkpt>
      <trkpt lat="44.16327" lon="7.24339">
        <ele>2575.275375</ele>
        <time>2010-09-30T08:32:07Z</time>
      </trkpt>
      <trkpt lat="44.16329" lon="7.24337">
        <ele>2575.257176</ele>
        <time>2010-09-30T08:32:11Z</time>
      </trkpt>
      <trkpt lat="44.16332" lon="7.24334">
        <ele>2575.284166</ele>
        <time>2010-09-30T08:32:16Z</time>
      </trkpt>
      <trkpt lat="44.16334" lon="7.24332">
        <ele>2575.376584</ele>
        <time>2010-09-30T08:32:20Z</time>
      </trkpt>
      <trkpt lat="44.16337" lon="7.2433">
        <ele>2575.5462</ele>
        <time>2010-09-30T08:32:25Z</time>
      </trkpt>
      <trkpt lat="44.1634" lon="7.24329">
        <ele>2575.790633</ele>
        <time>2010-09-30T08:32:30Z</time>
      </trkpt>
      <trkpt lat="44.1634" lon="7.24329">
        <ele>2576.055812</ele>
        <time>2010-09-30T08:32:36Z</time>
      </trkpt>
      <trkpt lat="44.16367" lon="7.24343">
        <ele>2576.278816</ele>
        <time>2010-09-30T08:33:09Z</time>
      </trkpt>
      <trkpt lat="44.1637" lon="7.24347">
        <ele>2576.4986</ele>
        <time>2010-09-30T08:33:12Z</time>
      </trkpt>
      <trkpt lat="44.16372" lon="7.2435">
        <ele>2576.80766</ele>
        <time>2010-09-30T08:33:15Z</time>
      </trkpt>
      <trkpt lat="44.16374" lon="7.24353">
        <ele>2577.718149</ele>
        <time>2010-09-30T08:33:18Z</time>
      </trkpt>
      <trkpt lat="44.16376" lon="7.24356">
        <ele>2579.443307</ele>
        <time>2010-09-30T08:33:21Z</time>
      </trkpt>
      <trkpt lat="44.16379" lon="7.24359">
        <ele>2581.107382</ele>
        <time>2010-09-30T08:33:24Z</time>
      </trkpt>
      <trkpt lat="44.16381" lon="7.24362">
        <ele>2581.95637</ele>
        <time>2010-09-30T08:33:27Z</time>
      </trkpt>
      <trkpt lat="44.16384" lon="7.24364">
        <ele>2582.200699</ele>
        <time>2010-09-30T08:33:30Z</time>
      </trkpt>
      <trkpt lat="44.16387" lon="7.24366">
        <ele>2582.211632</ele>
        <time>2010-09-30T08:33:33Z</time>
      </trkpt>
      <trkpt lat="44.1639" lon="7.24369">
        <ele>2582.216133</ele>
        <time>2010-09-30T08:33:36Z</time>
      </trkpt>
      <trkpt lat="44.16392" lon="7.24372">
        <ele>2582.282246</ele>
        <time>2010-09-30T08:33:39Z</time>
      </trkpt>
      <trkpt lat="44.16394" lon="7.24375">
        <ele>2582.384889</ele>
        <time>2010-09-30T08:33:42Z</time>
      </trkpt>
      <trkpt lat="44.16397" lon="7.24378">
        <ele>2582.493577</ele>
        <time>2010-09-30T08:33:45Z</time>
      </trkpt>
      <trkpt lat="44.164" lon="7.24383">
        <ele>2582.617208</ele>
        <time>2010-09-30T08:33:48Z</time>
      </trkpt>
      <trkpt lat="44.16402" lon="7.24387">
        <ele>2582.767049</ele>
        <time>2010-09-30T08:33:51Z</time>
      </trkpt>
      <trkpt lat="44.16405" lon="7.2439">
        <ele>2582.924995</ele>
        <time>2010-09-30T08:33:54Z</time>
      </trkpt>
      <trkpt lat="44.16408" lon="7.24394">
        <ele>2583.064714</ele>
        <time>2010-09-30T08:33:57Z</time>
      </trkpt>
      <trkpt lat="44.16411" lon="7.24397">
        <ele>2583.173967</ele>
        <time>2010-09-30T08:34:00Z</time>
      </trkpt>
      <trkpt lat="44.16414" lon="7.244">
        <ele>2583.257814</ele>
        <time>2010-09-30T08:34:03Z</time>
      </trkpt>
      <trkpt lat="44.16417" lon="7.24403">
        <ele>2583.328381</ele>
        <time>2010-09-30T08:34:06Z</time>
      </trkpt>
      <trkpt lat="44.1642" lon="7.24406">
        <ele>2583.393143</ele>
        <time>2010-09-30T08:34:09Z</time>
      </trkpt>
      <trkpt lat="44.16424" lon="7.24408">
        <ele>2583.453625</ele>
        <time>2010-09-30T08:34:12Z</time>
      </trkpt>
      <trkpt lat="44.16427" lon="7.2441">
        <ele>2583.510432</ele>
        <time>2010-09-30T08:34:15Z</time>
      </trkpt>
      <trkpt lat="44.1643" lon="7.24413">
        <ele>2583.577221</ele>
        <time>2010-09-30T08:34:18Z</time>
      </trkpt>
      <trkpt lat="44.16432" lon="7.24416">
        <ele>2583.680551</ele>
        <time>2010-09-30T08:34:21Z</time>
      </trkpt>
      <trkpt lat="44.16434" lon="7.24419">
        <ele>2583.8296</ele>
        <time>2010-09-30T08:34:24Z</time>
      </trkpt>
      <trkpt lat="44.16436" lon="7.24424">
        <ele>2584.003685</ele>
        <time>2010-09-30T08:34:27Z</time>
      </trkpt>
      <trkpt lat="44.16437" lon="7.24428">
        <ele>2584.17654</ele>
        <time>2010-09-30T08:34:30Z</time>
      </trkpt>
      <trkpt lat="44.16438" lon="7.24432">
        <ele>2584.337402</ele>
        <time>2010-09-30T08:34:35Z</time>
      </trkpt>
      <trkpt lat="44.16438" lon="7.24436">
        <ele>2584.492357</ele>
        <time>2010-09-30T08:34:39Z</time>
      </trkpt>
      <trkpt lat="44.16438" lon="7.24441">
        <ele>2584.655029</ele>
        <time>2010-09-30T08:34:43Z</time>
      </trkpt>
      <trkpt lat="44.16438" lon="7.24446">
        <ele>2584.881604</ele>
        <time>2010-09-30T08:34:46Z</time>
      </trkpt>
      <trkpt lat="44.16438" lon="7.24451">
        <ele>2585.251735</ele>
        <time>2010-09-30T08:34:49Z</time>
      </trkpt>
      <trkpt lat="44.16438" lon="7.24457">
        <ele>2585.806567</ele>
        <time>2010-09-30T08:34:52Z</time>
      </trkpt>
      <trkpt lat="44.16437" lon="7.24463">
        <ele>2586.510499</ele>
        <time>2010-09-30T08:34:55Z</time>
      </trkpt>
      <trkpt lat="44.16437" lon="7.24469">
        <ele>2587.274742</ele>
        <time>2010-09-30T08:34:58Z</time>
      </trkpt>
      <trkpt lat="44.16436" lon="7.24474">
        <ele>2588.039863</ele>
        <time>2010-09-30T08:35:01Z</time>
      </trkpt>
      <trkpt lat="44.16435" lon="7.24479">
        <ele>2588.818887</ele>
        <time>2010-09-30T08:35:04Z</time>
      </trkpt>
      <trkpt lat="44.16434" lon="7.24484">
        <ele>2589.639619</ele>
        <time>2010-09-30T08:35:07Z</time>
      </trkpt>
      <trkpt lat="44.16434" lon="7.24489">
        <ele>2590.510336</ele>
        <time>2010-09-30T08:35:10Z</time>
      </trkpt>
      <trkpt lat="44.16434" lon="7.24493">
        <ele>2591.408734</ele>
        <time>2010-09-30T08:35:13Z</time>
      </trkpt>
      <trkpt lat="44.16433" lon="7.24498">
        <ele>2592.299823</ele>
        <time>2010-09-30T08:35:16Z</time>
      </trkpt>
      <trkpt lat="44.1643" lon="7.24502">
        <ele>2593.161917</ele>
        <time>2010-09-30T08:35:19Z</time>
      </trkpt>
      <trkpt lat="44.16428" lon="7.24505">
        <ele>2593.990411</ele>
        <time>2010-09-30T08:35:22Z</time>
      </trkpt>
      <trkpt lat="44.16426" lon="7.24509">
        <ele>2594.78473</ele>
        <time>2010-09-30T08:35:26Z</time>
      </trkpt>
      <trkpt lat="44.16427" lon="7.24513">
        <ele>2595.53489</ele>
        <time>2010-09-30T08:35:29Z</time>
      </trkpt>
      <trkpt lat="44.16425" lon="7.24517">
        <ele>2596.228312</ele>
        <time>2010-09-30T08:35:33Z</time>
      </trkpt>
      <trkpt lat="44.16422" lon="7.24521">
        <ele>2596.889741</ele>
        <time>2010-09-30T08:35:36Z</time>
      </trkpt>
      <trkpt lat="44.16423" lon="7.24525">
        <ele>2597.53905</ele>
        <time>2010-09-30T08:35:42Z</time>
      </trkpt>
      <trkpt lat="44.16425" lon="7.24527">
        <ele>2598.159962</ele>
        <time>2010-09-30T08:35:44Z</time>
      </trkpt>
      <trkpt lat="44.16427" lon="7.2453">
        <ele>2598.7282</ele>
        <time>2010-09-30T08:35:47Z</time>
      </trkpt>
      <trkpt lat="44.16426" lon="7.24533">
        <ele>2599.262195</ele>
        <time>2010-09-30T08:35:51Z</time>
      </trkpt>
      <trkpt lat="44.16423" lon="7.24535">
        <ele>2599.75594</ele>
        <time>2010-09-30T08:35:54Z</time>
      </trkpt>
      <trkpt lat="44.16421" lon="7.24538">
        <ele>2600.148136</ele>
        <time>2010-09-30T08:35:57Z</time>
      </trkpt>
      <trkpt lat="44.1642" lon="7.24541">
        <ele>2600.419999</ele>
        <time>2010-09-30T08:36:06Z</time>
      </trkpt>
      <trkpt lat="44.16422" lon="7.24545">
        <ele>2600.624663</ele>
        <time>2010-09-30T08:36:10Z</time>
      </trkpt>
      <trkpt lat="44.16421" lon="7.24549">
        <ele>2600.771749</ele>
        <time>2010-09-30T08:36:15Z</time>
      </trkpt>
      <trkpt lat="44.16417" lon="7.24551">
        <ele>2600.845292</ele>
        <time>2010-09-30T08:36:19Z</time>
      </trkpt>
      <trkpt lat="44.16415" lon="7.24554">
        <ele>2600.858686</ele>
        <time>2010-09-30T08:36:24Z</time>
      </trkpt>
      <trkpt lat="44.16413" lon="7.24557">
        <ele>2600.847095</ele>
        <time>2010-09-30T08:36:28Z</time>
      </trkpt>
      <trkpt lat="44.16412" lon="7.2456">
        <ele>2600.782007</ele>
        <time>2010-09-30T08:36:32Z</time>
      </trkpt>
      <trkpt lat="44.16411" lon="7.24564">
        <ele>2600.587019</ele>
        <time>2010-09-30T08:36:37Z</time>
      </trkpt>
      <trkpt lat="44.16412" lon="7.24568">
        <ele>2600.26276</ele>
        <time>2010-09-30T08:36:41Z</time>
      </trkpt>
      <trkpt lat="44.16413" lon="7.24572">
        <ele>2599.875165</ele>
        <time>2010-09-30T08:36:44Z</time>
      </trkpt>
      <trkpt lat="44.16413" lon="7.24576">
        <ele>2599.452549</ele>
        <time>2010-09-30T08:36:46Z</time>
      </trkpt>
      <trkpt lat="44.16413" lon="7.2458">
        <ele>2599.021594</ele>
        <time>2010-09-30T08:36:50Z</time>
      </trkpt>
      <trkpt lat="44.16414" lon="7.24584">
        <ele>2598.643707</ele>
        <time>2010-09-30T08:36:54Z</time>
      </trkpt>
      <trkpt lat="44.16416" lon="7.24586">
        <ele>2598.361057</ele>
        <time>2010-09-30T08:36:57Z</time>
      </trkpt>
      <trkpt lat="44.16418" lon="7.24589">
        <ele>2598.145514</ele>
        <time>2010-09-30T08:37:00Z</time>
      </trkpt>
      <trkpt lat="44.16421" lon="7.24592">
        <ele>2597.951364</ele>
        <time>2010-09-30T08:37:04Z</time>
      </trkpt>
      <trkpt lat="44.16422" lon="7.24595">
        <ele>2597.777471</ele>
        <time>2010-09-30T08:37:08Z</time>
      </trkpt>
      <trkpt lat="44.16419" lon="7.24596">
        <ele>2597.634641</ele>
        <time>2010-09-30T08:37:14Z</time>
      </trkpt>
      <trkpt lat="44.16416" lon="7.24596">
        <ele>2597.499432</ele>
        <time>2010-09-30T08:37:17Z</time>
      </trkpt>
      <trkpt lat="44.16413" lon="7.24599">
        <ele>2597.332653</ele>
        <time>2010-09-30T08:37:21Z</time>
      </trkpt>
      <trkpt lat="44.16413" lon="7.24603">
        <ele>2597.020466</ele>
        <time>2010-09-30T08:37:24Z</time>
      </trkpt>
      <trkpt lat="44.16411" lon="7.24607">
        <ele>2596.451248</ele>
        <time>2010-09-30T08:37:28Z</time>
      </trkpt>
      <trkpt lat="44.16408" lon="7.24609">
        <ele>2595.636087</ele>
        <time>2010-09-30T08:37:32Z</time>
      </trkpt>
      <trkpt lat="44.16406" lon="7.24612">
        <ele>2594.691505</ele>
        <time>2010-09-30T08:37:36Z</time>
      </trkpt>
      <trkpt lat="44.16408" lon="7.24616">
        <ele>2593.719517</ele>
        <time>2010-09-30T08:37:41Z</time>
      </trkpt>
      <trkpt lat="44.16405" lon="7.24616">
        <ele>2592.738372</ele>
        <time>2010-09-30T08:37:51Z</time>
      </trkpt>
      <trkpt lat="44.16405" lon="7.2462">
        <ele>2591.729431</ele>
        <time>2010-09-30T08:37:55Z</time>
      </trkpt>
      <trkpt lat="44.16405" lon="7.24625">
        <ele>2590.70419</ele>
        <time>2010-09-30T08:37:59Z</time>
      </trkpt>
      <trkpt lat="44.16408" lon="7.24629">
        <ele>2589.366586</ele>
        <time>2010-09-30T08:38:01Z</time>
      </trkpt>
      <trkpt lat="44.16416" lon="7.24635">
        <ele>2587.508183</ele>
        <time>2010-09-30T08:38:04Z</time>
      </trkpt>
      <trkpt lat="44.16422" lon="7.24638">
        <ele>2585.577792</ele>
        <time>2010-09-30T08:38:07Z</time>
      </trkpt>
      <trkpt lat="44.16425" lon="7.24639">
        <ele>2584.169536</ele>
        <time>2010-09-30T08:38:10Z</time>
      </trkpt>
      <trkpt lat="44.16428" lon="7.24642">
        <ele>2583.357425</ele>
        <time>2010-09-30T08:38:13Z</time>
      </trkpt>
      <trkpt lat="44.16431" lon="7.24646">
        <ele>2582.870533</ele>
        <time>2010-09-30T08:38:16Z</time>
      </trkpt>
      <trkpt lat="44.16435" lon="7.24652">
        <ele>2582.429089</ele>
        <time>2010-09-30T08:38:19Z</time>
      </trkpt>
      <trkpt lat="44.16439" lon="7.24656">
        <ele>2581.96509</ele>
        <time>2010-09-30T08:38:21Z</time>
      </trkpt>
      <trkpt lat="44.16444" lon="7.2466">
        <ele>2581.518926</ele>
        <time>2010-09-30T08:38:24Z</time>
      </trkpt>
      <trkpt lat="44.16448" lon="7.24664">
        <ele>2581.134304</ele>
        <time>2010-09-30T08:38:27Z</time>
      </trkpt>
      <trkpt lat="44.16447" lon="7.2466">
        <ele>2580.829038</ele>
        <time>2010-09-30T08:38:35Z</time>
      </trkpt>
      <trkpt lat="44.16447" lon="7.2466">
        <ele>2580.575628</ele>
        <time>2010-09-30T08:38:37Z</time>
      </trkpt>
      <trkpt lat="44.16429" lon="7.24649">
        <ele>2580.3028</ele>
        <time>2010-09-30T08:38:55Z</time>
      </trkpt>
      <trkpt lat="44.16425" lon="7.24647">
        <ele>2579.769183</ele>
        <time>2010-09-30T08:38:58Z</time>
      </trkpt>
      <trkpt lat="44.16425" lon="7.24647">
        <ele>2578.906457</ele>
        <time>2010-09-30T08:39:10Z</time>
      </trkpt>
      <trkpt lat="44.16428" lon="7.24685">
        <ele>2577.976342</ele>
        <time>2010-09-30T08:39:42Z</time>
      </trkpt>
      <trkpt lat="44.16428" lon="7.24692">
        <ele>2576.959762</ele>
        <time>2010-09-30T08:39:45Z</time>
      </trkpt>
      <trkpt lat="44.16431" lon="7.24698">
        <ele>2575.713521</ele>
        <time>2010-09-30T08:39:48Z</time>
      </trkpt>
      <trkpt lat="44.16434" lon="7.24703">
        <ele>2573.140143</ele>
        <time>2010-09-30T08:39:51Z</time>
      </trkpt>
      <trkpt lat="44.16431" lon="7.24702">
        <ele>2568.626209</ele>
        <time>2010-09-30T08:39:59Z</time>
      </trkpt>
      <trkpt lat="44.16427" lon="7.24701">
        <ele>2564.20469</ele>
        <time>2010-09-30T08:40:02Z</time>
      </trkpt>
      <trkpt lat="44.16424" lon="7.24698">
        <ele>2561.810574</ele>
        <time>2010-09-30T08:40:04Z</time>
      </trkpt>
      <trkpt lat="44.16418" lon="7.24695">
        <ele>2560.760647</ele>
        <time>2010-09-30T08:40:07Z</time>
      </trkpt>
      <trkpt lat="44.16415" lon="7.24698">
        <ele>2559.938695</ele>
        <time>2010-09-30T08:40:10Z</time>
      </trkpt>
      <trkpt lat="44.16414" lon="7.24701">
        <ele>2559.014716</ele>
        <time>2010-09-30T08:40:12Z</time>
      </trkpt>
      <trkpt lat="44.16414" lon="7.24708">
        <ele>2558.127558</ele>
        <time>2010-09-30T08:40:15Z</time>
      </trkpt>
      <trkpt lat="44.16416" lon="7.24715">
        <ele>2557.280959</ele>
        <time>2010-09-30T08:40:18Z</time>
      </trkpt>
      <trkpt lat="44.1642" lon="7.24719">
        <ele>2556.505087</ele>
        <time>2010-09-30T08:40:21Z</time>
      </trkpt>
      <trkpt lat="44.16424" lon="7.24721">
        <ele>2555.88558</ele>
        <time>2010-09-30T08:40:24Z</time>
      </trkpt>
      <trkpt lat="44.16427" lon="7.24722">
        <ele>2555.408239</ele>
        <time>2010-09-30T08:40:26Z</time>
      </trkpt>
      <trkpt lat="44.16431" lon="7.24725">
        <ele>2555.00486</ele>
        <time>2010-09-30T08:40:29Z</time>
      </trkpt>
      <trkpt lat="44.16434" lon="7.24727">
        <ele>2554.624318</ele>
        <time>2010-09-30T08:40:32Z</time>
      </trkpt>
      <trkpt lat="44.16435" lon="7.24718">
        <ele>2554.249519</ele>
        <time>2010-09-30T08:40:38Z</time>
      </trkpt>
      <trkpt lat="44.1643" lon="7.24716">
        <ele>2553.884753</ele>
        <time>2010-09-30T08:40:43Z</time>
      </trkpt>
      <trkpt lat="44.16425" lon="7.24715">
        <ele>2553.513955</ele>
        <time>2010-09-30T08:40:46Z</time>
      </trkpt>
      <trkpt lat="44.16419" lon="7.24714">
        <ele>2553.033964</ele>
        <time>2010-09-30T08:40:49Z</time>
      </trkpt>
      <trkpt lat="44.16413" lon="7.24714">
        <ele>2552.310512</ele>
        <time>2010-09-30T08:40:51Z</time>
      </trkpt>
      <trkpt lat="44.16402" lon="7.24714">
        <ele>2551.267044</ele>
        <time>2010-09-30T08:40:54Z</time>
      </trkpt>
      <trkpt lat="44.16394" lon="7.24712">
        <ele>2550.104242</ele>
        <time>2010-09-30T08:40:57Z</time>
      </trkpt>
      <trkpt lat="44.1639" lon="7.24712">
        <ele>2549.177234</ele>
        <time>2010-09-30T08:40:59Z</time>
      </trkpt>
      <trkpt lat="44.16383" lon="7.24711">
        <ele>2548.437192</ele>
        <time>2010-09-30T08:41:02Z</time>
      </trkpt>
      <trkpt lat="44.16378" lon="7.24709">
        <ele>2547.511931</ele>
        <time>2010-09-30T08:41:05Z</time>
      </trkpt>
      <trkpt lat="44.16375" lon="7.24706">
        <ele>2546.374872</ele>
        <time>2010-09-30T08:41:08Z</time>
      </trkpt>
      <trkpt lat="44.16378" lon="7.24707">
        <ele>2545.203315</ele>
        <time>2010-09-30T08:41:13Z</time>
      </trkpt>
      <trkpt lat="44.16379" lon="7.24712">
        <ele>2544.030494</ele>
        <time>2010-09-30T08:41:16Z</time>
      </trkpt>
      <trkpt lat="44.16381" lon="7.24718">
        <ele>2542.861861</ele>
        <time>2010-09-30T08:41:19Z</time>
      </trkpt>
      <trkpt lat="44.16383" lon="7.24723">
        <ele>2541.654203</ele>
        <time>2010-09-30T08:41:21Z</time>
      </trkpt>
      <trkpt lat="44.16387" lon="7.24731">
        <ele>2540.374489</ele>
        <time>2010-09-30T08:41:24Z</time>
      </trkpt>
      <trkpt lat="44.16392" lon="7.24736">
        <ele>2539.194101</ele>
        <time>2010-09-30T08:41:27Z</time>
      </trkpt>
      <trkpt lat="44.16395" lon="7.24739">
        <ele>2538.294692</ele>
        <time>2010-09-30T08:41:29Z</time>
      </trkpt>
      <trkpt lat="44.16399" lon="7.24741">
        <ele>2537.64114</ele>
        <time>2010-09-30T08:41:32Z</time>
      </trkpt>
      <trkpt lat="44.16404" lon="7.24743">
        <ele>2537.096951</ele>
        <time>2010-09-30T08:41:35Z</time>
      </trkpt>
      <trkpt lat="44.16407" lon="7.24745">
        <ele>2536.57576</ele>
        <time>2010-09-30T08:41:37Z</time>
      </trkpt>
      <trkpt lat="44.16409" lon="7.24746">
        <ele>2536.062001</ele>
        <time>2010-09-30T08:41:39Z</time>
      </trkpt>
      <trkpt lat="44.16408" lon="7.2475">
        <ele>2535.526675</ele>
        <time>2010-09-30T08:41:45Z</time>
      </trkpt>
      <trkpt lat="44.16404" lon="7.2475">
        <ele>2534.983045</ele>
        <time>2010-09-30T08:41:48Z</time>
      </trkpt>
      <trkpt lat="44.164" lon="7.2475">
        <ele>2534.494664</ele>
        <time>2010-09-30T08:41:50Z</time>
      </trkpt>
      <trkpt lat="44.16395" lon="7.24751">
        <ele>2533.928301</ele>
        <time>2010-09-30T08:41:53Z</time>
      </trkpt>
      <trkpt lat="44.1639" lon="7.24752">
        <ele>2533.074952</ele>
        <time>2010-09-30T08:41:56Z</time>
      </trkpt>
      <trkpt lat="44.16388" lon="7.24753">
        <ele>2532.036233</ele>
        <time>2010-09-30T08:41:58Z</time>
      </trkpt>
      <trkpt lat="44.16383" lon="7.24754">
        <ele>2531.020838</ele>
        <time>2010-09-30T08:42:01Z</time>
      </trkpt>
      <trkpt lat="44.16381" lon="7.24755">
        <ele>2530.011705</ele>
        <time>2010-09-30T08:42:04Z</time>
      </trkpt>
      <trkpt lat="44.16384" lon="7.24757">
        <ele>2528.990374</ele>
        <time>2010-09-30T08:42:09Z</time>
      </trkpt>
      <trkpt lat="44.16388" lon="7.24757">
        <ele>2527.98801</ele>
        <time>2010-09-30T08:42:11Z</time>
      </trkpt>
      <trkpt lat="44.16393" lon="7.24758">
        <ele>2526.953256</ele>
        <time>2010-09-30T08:42:13Z</time>
      </trkpt>
      <trkpt lat="44.16399" lon="7.2476">
        <ele>2525.728518</ele>
        <time>2010-09-30T08:42:16Z</time>
      </trkpt>
      <trkpt lat="44.16403" lon="7.24762">
        <ele>2524.330307</ele>
        <time>2010-09-30T08:42:18Z</time>
      </trkpt>
      <trkpt lat="44.16406" lon="7.24766">
        <ele>2523.054431</ele>
        <time>2010-09-30T08:42:21Z</time>
      </trkpt>
      <trkpt lat="44.16403" lon="7.24769">
        <ele>2522.061912</ele>
        <time>2010-09-30T08:42:26Z</time>
      </trkpt>
      <trkpt lat="44.16398" lon="7.24769">
        <ele>2521.247437</ele>
        <time>2010-09-30T08:42:29Z</time>
      </trkpt>
      <trkpt lat="44.16394" lon="7.24768">
        <ele>2520.520555</ele>
        <time>2010-09-30T08:42:32Z</time>
      </trkpt>
      <trkpt lat="44.1639" lon="7.24767">
        <ele>2519.658137</ele>
        <time>2010-09-30T08:42:34Z</time>
      </trkpt>
      <trkpt lat="44.16387" lon="7.24767">
        <ele>2518.450383</ele>
        <time>2010-09-30T08:42:36Z</time>
      </trkpt>
      <trkpt lat="44.16384" lon="7.24768">
        <ele>2517.017664</ele>
        <time>2010-09-30T08:42:39Z</time>
      </trkpt>
      <trkpt lat="44.16386" lon="7.24771">
        <ele>2515.643928</ele>
        <time>2010-09-30T08:42:43Z</time>
      </trkpt>
      <trkpt lat="44.16391" lon="7.24773">
        <ele>2514.481081</ele>
        <time>2010-09-30T08:42:46Z</time>
      </trkpt>
      <trkpt lat="44.16394" lon="7.24775">
        <ele>2513.439476</ele>
        <time>2010-09-30T08:42:48Z</time>
      </trkpt>
      <trkpt lat="44.16399" lon="7.24778">
        <ele>2512.247842</ele>
        <time>2010-09-30T08:42:51Z</time>
      </trkpt>
      <trkpt lat="44.16403" lon="7.2478">
        <ele>2510.823179</ele>
        <time>2010-09-30T08:42:53Z</time>
      </trkpt>
      <trkpt lat="44.16406" lon="7.24782">
        <ele>2509.421714</ele>
        <time>2010-09-30T08:42:55Z</time>
      </trkpt>
      <trkpt lat="44.16412" lon="7.24785">
        <ele>2508.268158</ele>
        <time>2010-09-30T08:42:58Z</time>
      </trkpt>
      <trkpt lat="44.16416" lon="7.24786">
        <ele>2507.350909</ele>
        <time>2010-09-30T08:43:00Z</time>
      </trkpt>
      <trkpt lat="44.16421" lon="7.24787">
        <ele>2506.621539</ele>
        <time>2010-09-30T08:43:03Z</time>
      </trkpt>
      <trkpt lat="44.16426" lon="7.24788">
        <ele>2506.007485</ele>
        <time>2010-09-30T08:43:06Z</time>
      </trkpt>
      <trkpt lat="44.16429" lon="7.24789">
        <ele>2505.413015</ele>
        <time>2010-09-30T08:43:08Z</time>
      </trkpt>
      <trkpt lat="44.16433" lon="7.24792">
        <ele>2504.814198</ele>
        <time>2010-09-30T08:43:11Z</time>
      </trkpt>
      <trkpt lat="44.16438" lon="7.24794">
        <ele>2504.202247</ele>
        <time>2010-09-30T08:43:14Z</time>
      </trkpt>
      <trkpt lat="44.1644" lon="7.24795">
        <ele>2503.600535</ele>
        <time>2010-09-30T08:43:16Z</time>
      </trkpt>
      <trkpt lat="44.16444" lon="7.24797">
        <ele>2503.054601</ele>
        <time>2010-09-30T08:43:19Z</time>
      </trkpt>
      <trkpt lat="44.16447" lon="7.24797">
        <ele>2502.535919</ele>
        <time>2010-09-30T08:43:21Z</time>
      </trkpt>
      <trkpt lat="44.1645" lon="7.24798">
        <ele>2502.030307</ele>
        <time>2010-09-30T08:43:23Z</time>
      </trkpt>
      <trkpt lat="44.16455" lon="7.24798">
        <ele>2501.563412</ele>
        <time>2010-09-30T08:43:26Z</time>
      </trkpt>
      <trkpt lat="44.16458" lon="7.24799">
        <ele>2501.139644</ele>
        <time>2010-09-30T08:43:29Z</time>
      </trkpt>
      <trkpt lat="44.16461" lon="7.24801">
        <ele>2500.76397</ele>
        <time>2010-09-30T08:43:32Z</time>
      </trkpt>
      <trkpt lat="44.16465" lon="7.24803">
        <ele>2500.403785</ele>
        <time>2010-09-30T08:43:35Z</time>
      </trkpt>
      <trkpt lat="44.16468" lon="7.24805">
        <ele>2499.982926</ele>
        <time>2010-09-30T08:43:38Z</time>
      </trkpt>
      <trkpt lat="44.16471" lon="7.24807">
        <ele>2499.488397</ele>
        <time>2010-09-30T08:43:41Z</time>
      </trkpt>
      <trkpt lat="44.1647" lon="7.24812">
        <ele>2498.971081</ele>
        <time>2010-09-30T08:43:46Z</time>
      </trkpt>
      <trkpt lat="44.16464" lon="7.24816">
        <ele>2498.470339</ele>
        <time>2010-09-30T08:43:49Z</time>
      </trkpt>
      <trkpt lat="44.16459" lon="7.24819">
        <ele>2497.985472</ele>
        <time>2010-09-30T08:43:51Z</time>
      </trkpt>
      <trkpt lat="44.16453" lon="7.24823">
        <ele>2497.428935</ele>
        <time>2010-09-30T08:43:54Z</time>
      </trkpt>
      <trkpt lat="44.1645" lon="7.24825">
        <ele>2496.680026</ele>
        <time>2010-09-30T08:43:56Z</time>
      </trkpt>
      <trkpt lat="44.16448" lon="7.24828">
        <ele>2495.762475</ele>
        <time>2010-09-30T08:43:59Z</time>
      </trkpt>
      <trkpt lat="44.1645" lon="7.24826">
        <ele>2494.759389</ele>
        <time>2010-09-30T08:44:03Z</time>
      </trkpt>
      <trkpt lat="44.16454" lon="7.24828">
        <ele>2493.704745</ele>
        <time>2010-09-30T08:44:06Z</time>
      </trkpt>
      <trkpt lat="44.16457" lon="7.24829">
        <ele>2492.617868</ele>
        <time>2010-09-30T08:44:08Z</time>
      </trkpt>
      <trkpt lat="44.16459" lon="7.24834">
        <ele>2491.439074</ele>
        <time>2010-09-30T08:44:11Z</time>
      </trkpt>
      <trkpt lat="44.16462" lon="7.24838">
        <ele>2490.154433</ele>
        <time>2010-09-30T08:44:14Z</time>
      </trkpt>
      <trkpt lat="44.1646" lon="7.24843">
        <ele>2488.977038</ele>
        <time>2010-09-30T08:44:17Z</time>
      </trkpt>
      <trkpt lat="44.16456" lon="7.24847">
        <ele>2488.069841</ele>
        <time>2010-09-30T08:44:20Z</time>
      </trkpt>
      <trkpt lat="44.16453" lon="7.24849">
        <ele>2487.296553</ele>
        <time>2010-09-30T08:44:22Z</time>
      </trkpt>
      <trkpt lat="44.1645" lon="7.24852">
        <ele>2486.384359</ele>
        <time>2010-09-30T08:44:24Z</time>
      </trkpt>
      <trkpt lat="44.16446" lon="7.24855">
        <ele>2485.194164</ele>
        <time>2010-09-30T08:44:27Z</time>
      </trkpt>
      <trkpt lat="44.16442" lon="7.24858">
        <ele>2483.846545</ele>
        <time>2010-09-30T08:44:30Z</time>
      </trkpt>
      <trkpt lat="44.16439" lon="7.24858">
        <ele>2482.575996</ele>
        <time>2010-09-30T08:44:33Z</time>
      </trkpt>
      <trkpt lat="44.16435" lon="7.24858">
        <ele>2481.412741</ele>
        <time>2010-09-30T08:44:36Z</time>
      </trkpt>
      <trkpt lat="44.16432" lon="7.2486">
        <ele>2480.185241</ele>
        <time>2010-09-30T08:44:39Z</time>
      </trkpt>
      <trkpt lat="44.1643" lon="7.24863">
        <ele>2478.80144</ele>
        <time>2010-09-30T08:44:41Z</time>
      </trkpt>
      <trkpt lat="44.16429" lon="7.24867">
        <ele>2477.297557</ele>
        <time>2010-09-30T08:44:45Z</time>
      </trkpt>
      <trkpt lat="44.1643" lon="7.24864">
        <ele>2475.736849</ele>
        <time>2010-09-30T08:44:49Z</time>
      </trkpt>
      <trkpt lat="44.1643" lon="7.24864">
        <ele>2474.280455</ele>
        <time>2010-09-30T08:44:50Z</time>
      </trkpt>
      <trkpt lat="44.16448" lon="7.24892">
        <ele>2473.196541</ele>
        <time>2010-09-30T08:45:39Z</time>
      </trkpt>
      <trkpt lat="44.16449" lon="7.24896">
        <ele>2472.377046</ele>
        <time>2010-09-30T08:45:42Z</time>
      </trkpt>
      <trkpt lat="44.16451" lon="7.24901">
        <ele>2471.311152</ele>
        <time>2010-09-30T08:45:45Z</time>
      </trkpt>
      <trkpt lat="44.16454" lon="7.24905">
        <ele>2467.749357</ele>
        <time>2010-09-30T08:45:48Z</time>
      </trkpt>
      <trkpt lat="44.16457" lon="7.24909">
        <ele>2460.727271</ele>
        <time>2010-09-30T08:45:51Z</time>
      </trkpt>
      <trkpt lat="44.16461" lon="7.24911">
        <ele>2453.671488</ele>
        <time>2010-09-30T08:45:54Z</time>
      </trkpt>
      <trkpt lat="44.16464" lon="7.24914">
        <ele>2449.693128</ele>
        <time>2010-09-30T08:45:57Z</time>
      </trkpt>
      <trkpt lat="44.16467" lon="7.24917">
        <ele>2448.066327</ele>
        <time>2010-09-30T08:46:00Z</time>
      </trkpt>
      <trkpt lat="44.1647" lon="7.2492">
        <ele>2447.334433</ele>
        <time>2010-09-30T08:46:03Z</time>
      </trkpt>
      <trkpt lat="44.16474" lon="7.2492">
        <ele>2446.60055</ele>
        <time>2010-09-30T08:46:06Z</time>
      </trkpt>
      <trkpt lat="44.16477" lon="7.24922">
        <ele>2445.631165</ele>
        <time>2010-09-30T08:46:10Z</time>
      </trkpt>
      <trkpt lat="44.16479" lon="7.24926">
        <ele>2444.542073</ele>
        <time>2010-09-30T08:46:13Z</time>
      </trkpt>
      <trkpt lat="44.1648" lon="7.24929">
        <ele>2443.515008</ele>
        <time>2010-09-30T08:46:16Z</time>
      </trkpt>
      <trkpt lat="44.16483" lon="7.24932">
        <ele>2442.66687</ele>
        <time>2010-09-30T08:46:19Z</time>
      </trkpt>
      <trkpt lat="44.16486" lon="7.24935">
        <ele>2442.053329</ele>
        <time>2010-09-30T08:46:22Z</time>
      </trkpt>
      <trkpt lat="44.16489" lon="7.24937">
        <ele>2441.687696</ele>
        <time>2010-09-30T08:46:25Z</time>
      </trkpt>
      <trkpt lat="44.16492" lon="7.24937">
        <ele>2441.504365</ele>
        <time>2010-09-30T08:46:29Z</time>
      </trkpt>
      <trkpt lat="44.16495" lon="7.24938">
        <ele>2441.398459</ele>
        <time>2010-09-30T08:46:33Z</time>
      </trkpt>
      <trkpt lat="44.16497" lon="7.24941">
        <ele>2441.309588</ele>
        <time>2010-09-30T08:46:36Z</time>
      </trkpt>
      <trkpt lat="44.165" lon="7.24946">
        <ele>2441.198232</ele>
        <time>2010-09-30T08:46:39Z</time>
      </trkpt>
      <trkpt lat="44.16503" lon="7.24949">
        <ele>2441.059143</ele>
        <time>2010-09-30T08:46:41Z</time>
      </trkpt>
      <trkpt lat="44.16507" lon="7.24951">
        <ele>2440.943501</ele>
        <time>2010-09-30T08:46:43Z</time>
      </trkpt>
      <trkpt lat="44.16513" lon="7.24955">
        <ele>2440.886644</ele>
        <time>2010-09-30T08:46:46Z</time>
      </trkpt>
      <trkpt lat="44.16517" lon="7.24958">
        <ele>2440.871583</ele>
        <time>2010-09-30T08:46:48Z</time>
      </trkpt>
      <trkpt lat="44.16519" lon="7.24962">
        <ele>2440.872049</ele>
        <time>2010-09-30T08:46:50Z</time>
      </trkpt>
      <trkpt lat="44.1652" lon="7.24966">
        <ele>2440.865342</ele>
        <time>2010-09-30T08:46:52Z</time>
      </trkpt>
      <trkpt lat="44.16521" lon="7.2497">
        <ele>2440.840573</ele>
        <time>2010-09-30T08:46:54Z</time>
      </trkpt>
      <trkpt lat="44.1652" lon="7.24978">
        <ele>2440.804924</ele>
        <time>2010-09-30T08:46:57Z</time>
      </trkpt>
      <trkpt lat="44.16518" lon="7.24983">
        <ele>2440.771571</ele>
        <time>2010-09-30T08:46:59Z</time>
      </trkpt>
      <trkpt lat="44.16516" lon="7.24989">
        <ele>2440.745603</ele>
        <time>2010-09-30T08:47:02Z</time>
      </trkpt>
      <trkpt lat="44.16518" lon="7.24985">
        <ele>2440.70804</ele>
        <time>2010-09-30T08:47:10Z</time>
      </trkpt>
      <trkpt lat="44.16523" lon="7.24979">
        <ele>2440.629842</ele>
        <time>2010-09-30T08:47:13Z</time>
      </trkpt>
      <trkpt lat="44.16527" lon="7.24978">
        <ele>2440.501839</ele>
        <time>2010-09-30T08:47:16Z</time>
      </trkpt>
      <trkpt lat="44.16528" lon="7.24982">
        <ele>2440.34872</ele>
        <time>2010-09-30T08:47:19Z</time>
      </trkpt>
      <trkpt lat="44.16529" lon="7.24989">
        <ele>2440.219524</ele>
        <time>2010-09-30T08:47:22Z</time>
      </trkpt>
      <trkpt lat="44.16529" lon="7.24994">
        <ele>2440.152674</ele>
        <time>2010-09-30T08:47:25Z</time>
      </trkpt>
      <trkpt lat="44.1653" lon="7.25">
        <ele>2440.139217</ele>
        <time>2010-09-30T08:47:28Z</time>
      </trkpt>
      <trkpt lat="44.1653" lon="7.25004">
        <ele>2440.170814</ele>
        <time>2010-09-30T08:47:30Z</time>
      </trkpt>
      <trkpt lat="44.16531" lon="7.25008">
        <ele>2440.246883</ele>
        <time>2010-09-30T08:47:32Z</time>
      </trkpt>
      <trkpt lat="44.16532" lon="7.25014">
        <ele>2440.346315</ele>
        <time>2010-09-30T08:47:35Z</time>
      </trkpt>
      <trkpt lat="44.16533" lon="7.25019">
        <ele>2440.455195</ele>
        <time>2010-09-30T08:47:38Z</time>
      </trkpt>
      <trkpt lat="44.16534" lon="7.25023">
        <ele>2440.561791</ele>
        <time>2010-09-30T08:47:40Z</time>
      </trkpt>
      <trkpt lat="44.16535" lon="7.25029">
        <ele>2440.633235</ele>
        <time>2010-09-30T08:47:43Z</time>
      </trkpt>
      <trkpt lat="44.16534" lon="7.25034">
        <ele>2440.658576</ele>
        <time>2010-09-30T08:47:46Z</time>
      </trkpt>
      <trkpt lat="44.16533" lon="7.25039">
        <ele>2440.657277</ele>
        <time>2010-09-30T08:47:49Z</time>
      </trkpt>
      <trkpt lat="44.16533" lon="7.25043">
        <ele>2440.579484</ele>
        <time>2010-09-30T08:47:52Z</time>
      </trkpt>
      <trkpt lat="44.16533" lon="7.25048">
        <ele>2440.223718</ele>
        <time>2010-09-30T08:47:55Z</time>
      </trkpt>
      <trkpt lat="44.16533" lon="7.25053">
        <ele>2439.416579</ele>
        <time>2010-09-30T08:47:58Z</time>
      </trkpt>
      <trkpt lat="44.16532" lon="7.25057">
        <ele>2438.197206</ele>
        <time>2010-09-30T08:48:00Z</time>
      </trkpt>
      <trkpt lat="44.16531" lon="7.25061">
        <ele>2436.71548</ele>
        <time>2010-09-30T08:48:02Z</time>
      </trkpt>
      <trkpt lat="44.16529" lon="7.25064">
        <ele>2435.116843</ele>
        <time>2010-09-30T08:48:05Z</time>
      </trkpt>
      <trkpt lat="44.16527" lon="7.25067">
        <ele>2433.593937</ele>
        <time>2010-09-30T08:48:09Z</time>
      </trkpt>
      <trkpt lat="44.16525" lon="7.25072">
        <ele>2432.305984</ele>
        <time>2010-09-30T08:48:12Z</time>
      </trkpt>
      <trkpt lat="44.16524" lon="7.25076">
        <ele>2431.147921</ele>
        <time>2010-09-30T08:48:14Z</time>
      </trkpt>
      <trkpt lat="44.16522" lon="7.25082">
        <ele>2429.756714</ele>
        <time>2010-09-30T08:48:17Z</time>
      </trkpt>
      <trkpt lat="44.1652" lon="7.25085">
        <ele>2427.983618</ele>
        <time>2010-09-30T08:48:19Z</time>
      </trkpt>
      <trkpt lat="44.16518" lon="7.25087">
        <ele>2426.154641</ele>
        <time>2010-09-30T08:48:21Z</time>
      </trkpt>
      <trkpt lat="44.16515" lon="7.2509">
        <ele>2424.587422</ele>
        <time>2010-09-30T08:48:24Z</time>
      </trkpt>
      <trkpt lat="44.16513" lon="7.25093">
        <ele>2423.27541</ele>
        <time>2010-09-30T08:48:26Z</time>
      </trkpt>
      <trkpt lat="44.1651" lon="7.25099">
        <ele>2422.128888</ele>
        <time>2010-09-30T08:48:29Z</time>
      </trkpt>
      <trkpt lat="44.16507" lon="7.25104">
        <ele>2420.997887</ele>
        <time>2010-09-30T08:48:32Z</time>
      </trkpt>
      <trkpt lat="44.16505" lon="7.25108">
        <ele>2419.761392</ele>
        <time>2010-09-30T08:48:35Z</time>
      </trkpt>
      <trkpt lat="44.16504" lon="7.25112">
        <ele>2418.464476</ele>
        <time>2010-09-30T08:48:38Z</time>
      </trkpt>
      <trkpt lat="44.16504" lon="7.25118">
        <ele>2417.135802</ele>
        <time>2010-09-30T08:48:41Z</time>
      </trkpt>
      <trkpt lat="44.16503" lon="7.25122">
        <ele>2415.760496</ele>
        <time>2010-09-30T08:48:43Z</time>
      </trkpt>
      <trkpt lat="44.16503" lon="7.25126">
        <ele>2414.382739</ele>
        <time>2010-09-30T08:48:45Z</time>
      </trkpt>
      <trkpt lat="44.16502" lon="7.25129">
        <ele>2413.037875</ele>
        <time>2010-09-30T08:48:47Z</time>
      </trkpt>
      <trkpt lat="44.165" lon="7.25135">
        <ele>2411.800414</ele>
        <time>2010-09-30T08:48:50Z</time>
      </trkpt>
      <trkpt lat="44.16498" lon="7.25139">
        <ele>2410.765351</ele>
        <time>2010-09-30T08:48:52Z</time>
      </trkpt>
      <trkpt lat="44.16497" lon="7.25144">
        <ele>2409.929485</ele>
        <time>2010-09-30T08:48:55Z</time>
      </trkpt>
      <trkpt lat="44.16496" lon="7.25149">
        <ele>2409.16048</ele>
        <time>2010-09-30T08:48:58Z</time>
      </trkpt>
      <trkpt lat="44.16496" lon="7.25154">
        <ele>2408.35848</ele>
        <time>2010-09-30T08:49:01Z</time>
      </trkpt>
      <trkpt lat="44.16495" lon="7.25158">
        <ele>2407.492694</ele>
        <time>2010-09-30T08:49:04Z</time>
      </trkpt>
      <trkpt lat="44.16492" lon="7.2516">
        <ele>2406.522513</ele>
        <time>2010-09-30T08:49:07Z</time>
      </trkpt>
      <trkpt lat="44.1649" lon="7.25162">
        <ele>2405.437789</ele>
        <time>2010-09-30T08:49:10Z</time>
      </trkpt>
      <trkpt lat="44.16486" lon="7.25163">
        <ele>2404.320648</ele>
        <time>2010-09-30T08:49:13Z</time>
      </trkpt>
      <trkpt lat="44.16483" lon="7.25164">
        <ele>2403.239615</ele>
        <time>2010-09-30T08:49:16Z</time>
      </trkpt>
      <trkpt lat="44.16481" lon="7.25166">
        <ele>2402.200643</ele>
        <time>2010-09-30T08:49:19Z</time>
      </trkpt>
      <trkpt lat="44.16478" lon="7.25168">
        <ele>2401.169544</ele>
        <time>2010-09-30T08:49:22Z</time>
      </trkpt>
      <trkpt lat="44.16475" lon="7.2517">
        <ele>2400.116178</ele>
        <time>2010-09-30T08:49:25Z</time>
      </trkpt>
      <trkpt lat="44.16472" lon="7.25174">
        <ele>2399.041895</ele>
        <time>2010-09-30T08:49:28Z</time>
      </trkpt>
      <trkpt lat="44.16469" lon="7.25177">
        <ele>2397.970934</ele>
        <time>2010-09-30T08:49:30Z</time>
      </trkpt>
      <trkpt lat="44.16466" lon="7.25181">
        <ele>2396.91448</ele>
        <time>2010-09-30T08:49:33Z</time>
      </trkpt>
      <trkpt lat="44.16462" lon="7.25183">
        <ele>2395.872544</ele>
        <time>2010-09-30T08:49:36Z</time>
      </trkpt>
      <trkpt lat="44.1646" lon="7.25186">
        <ele>2394.898191</ele>
        <time>2010-09-30T08:49:38Z</time>
      </trkpt>
      <trkpt lat="44.16457" lon="7.25189">
        <ele>2394.030467</ele>
        <time>2010-09-30T08:49:41Z</time>
      </trkpt>
      <trkpt lat="44.16456" lon="7.25194">
        <ele>2393.205052</ele>
        <time>2010-09-30T08:49:44Z</time>
      </trkpt>
      <trkpt lat="44.16456" lon="7.25199">
        <ele>2392.396113</ele>
        <time>2010-09-30T08:49:47Z</time>
      </trkpt>
      <trkpt lat="44.16457" lon="7.25205">
        <ele>2391.644359</ele>
        <time>2010-09-30T08:49:50Z</time>
      </trkpt>
      <trkpt lat="44.16458" lon="7.2521">
        <ele>2390.920809</ele>
        <time>2010-09-30T08:49:53Z</time>
      </trkpt>
      <trkpt lat="44.16458" lon="7.25215">
        <ele>2390.186842</ele>
        <time>2010-09-30T08:49:56Z</time>
      </trkpt>
      <trkpt lat="44.16459" lon="7.25221">
        <ele>2389.460913</ele>
        <time>2010-09-30T08:49:59Z</time>
      </trkpt>
      <trkpt lat="44.16459" lon="7.25225">
        <ele>2388.76194</ele>
        <time>2010-09-30T08:50:01Z</time>
      </trkpt>
      <trkpt lat="44.16459" lon="7.25229">
        <ele>2388.096813</ele>
        <time>2010-09-30T08:50:03Z</time>
      </trkpt>
      <trkpt lat="44.1646" lon="7.25235">
        <ele>2387.470727</ele>
        <time>2010-09-30T08:50:06Z</time>
      </trkpt>
      <trkpt lat="44.16459" lon="7.25239">
        <ele>2386.911591</ele>
        <time>2010-09-30T08:50:08Z</time>
      </trkpt>
      <trkpt lat="44.16459" lon="7.25244">
        <ele>2386.454857</ele>
        <time>2010-09-30T08:50:10Z</time>
      </trkpt>
      <trkpt lat="44.16457" lon="7.2525">
        <ele>2386.070186</ele>
        <time>2010-09-30T08:50:13Z</time>
      </trkpt>
      <trkpt lat="44.16456" lon="7.25254">
        <ele>2385.70015</ele>
        <time>2010-09-30T08:50:15Z</time>
      </trkpt>
      <trkpt lat="44.16454" lon="7.25261">
        <ele>2385.346255</ele>
        <time>2010-09-30T08:50:18Z</time>
      </trkpt>
      <trkpt lat="44.16453" lon="7.25265">
        <ele>2385.005711</ele>
        <time>2010-09-30T08:50:21Z</time>
      </trkpt>
      <trkpt lat="44.16451" lon="7.2527">
        <ele>2384.662423</ele>
        <time>2010-09-30T08:50:24Z</time>
      </trkpt>
      <trkpt lat="44.16449" lon="7.25275">
        <ele>2384.33709</ele>
        <time>2010-09-30T08:50:27Z</time>
      </trkpt>
      <trkpt lat="44.16447" lon="7.25278">
        <ele>2384.037069</ele>
        <time>2010-09-30T08:50:29Z</time>
      </trkpt>
      <trkpt lat="44.16446" lon="7.25284">
        <ele>2383.733205</ele>
        <time>2010-09-30T08:50:32Z</time>
      </trkpt>
      <trkpt lat="44.16445" lon="7.25289">
        <ele>2383.407674</ele>
        <time>2010-09-30T08:50:35Z</time>
      </trkpt>
      <trkpt lat="44.16444" lon="7.25293">
        <ele>2383.08285</ele>
        <time>2010-09-30T08:50:37Z</time>
      </trkpt>
      <trkpt lat="44.16442" lon="7.253">
        <ele>2382.79086</ele>
        <time>2010-09-30T08:50:40Z</time>
      </trkpt>
      <trkpt lat="44.1644" lon="7.25306">
        <ele>2382.526047</ele>
        <time>2010-09-30T08:50:43Z</time>
      </trkpt>
      <trkpt lat="44.1644" lon="7.25309">
        <ele>2382.282867</ele>
        <time>2010-09-30T08:50:45Z</time>
      </trkpt>
      <trkpt lat="44.1644" lon="7.25313">
        <ele>2382.071809</ele>
        <time>2010-09-30T08:50:47Z</time>
      </trkpt>
      <trkpt lat="44.1644" lon="7.25319">
        <ele>2381.88332</ele>
        <time>2010-09-30T08:50:50Z</time>
      </trkpt>
      <trkpt lat="44.16439" lon="7.25323">
        <ele>2381.709002</ele>
        <time>2010-09-30T08:50:52Z</time>
      </trkpt>
      <trkpt lat="44.16439" lon="7.25329">
        <ele>2381.557852</ele>
        <time>2010-09-30T08:50:55Z</time>
      </trkpt>
      <trkpt lat="44.16439" lon="7.25334">
        <ele>2381.42168</ele>
        <time>2010-09-30T08:50:58Z</time>
      </trkpt>
      <trkpt lat="44.16441" lon="7.25337">
        <ele>2381.285338</ele>
        <time>2010-09-30T08:51:01Z</time>
      </trkpt>
      <trkpt lat="44.16444" lon="7.2534">
        <ele>2381.148124</ele>
        <time>2010-09-30T08:51:04Z</time>
      </trkpt>
      <trkpt lat="44.16448" lon="7.25343">
        <ele>2381.007429</ele>
        <time>2010-09-30T08:51:07Z</time>
      </trkpt>
      <trkpt lat="44.16451" lon="7.25347">
        <ele>2380.855743</ele>
        <time>2010-09-30T08:51:10Z</time>
      </trkpt>
      <trkpt lat="44.16454" lon="7.2535">
        <ele>2380.69232</ele>
        <time>2010-09-30T08:51:13Z</time>
      </trkpt>
      <trkpt lat="44.16456" lon="7.25354">
        <ele>2380.516967</ele>
        <time>2010-09-30T08:51:16Z</time>
      </trkpt>
      <trkpt lat="44.16458" lon="7.25358">
        <ele>2380.331357</ele>
        <time>2010-09-30T08:51:19Z</time>
      </trkpt>
      <trkpt lat="44.16461" lon="7.25361">
        <ele>2380.139524</ele>
        <time>2010-09-30T08:51:22Z</time>
      </trkpt>
      <trkpt lat="44.16464" lon="7.25363">
        <ele>2379.944474</ele>
        <time>2010-09-30T08:51:25Z</time>
      </trkpt>
      <trkpt lat="44.16466" lon="7.25368">
        <ele>2379.74669</ele>
        <time>2010-09-30T08:51:28Z</time>
      </trkpt>
      <trkpt lat="44.16467" lon="7.25373">
        <ele>2379.547671</ele>
        <time>2010-09-30T08:51:31Z</time>
      </trkpt>
      <trkpt lat="44.16468" lon="7.25377">
        <ele>2379.357332</ele>
        <time>2010-09-30T08:51:34Z</time>
      </trkpt>
      <trkpt lat="44.16471" lon="7.25378">
        <ele>2379.186639</ele>
        <time>2010-09-30T08:51:39Z</time>
      </trkpt>
      <trkpt lat="44.16473" lon="7.25376">
        <ele>2379.033058</ele>
        <time>2010-09-30T08:51:43Z</time>
      </trkpt>
      <trkpt lat="44.16476" lon="7.25374">
        <ele>2378.885823</ele>
        <time>2010-09-30T08:51:48Z</time>
      </trkpt>
      <trkpt lat="44.16479" lon="7.25371">
        <ele>2378.719501</ele>
        <time>2010-09-30T08:51:52Z</time>
      </trkpt>
      <trkpt lat="44.16481" lon="7.25368">
        <ele>2378.504256</ele>
        <time>2010-09-30T08:51:54Z</time>
      </trkpt>
      <trkpt lat="44.16483" lon="7.25365">
        <ele>2378.229839</ele>
        <time>2010-09-30T08:51:56Z</time>
      </trkpt>
      <trkpt lat="44.16486" lon="7.25361">
        <ele>2377.922062</ele>
        <time>2010-09-30T08:51:59Z</time>
      </trkpt>
      <trkpt lat="44.16489" lon="7.25358">
        <ele>2377.648242</ele>
        <time>2010-09-30T08:52:02Z</time>
      </trkpt>
      <trkpt lat="44.16492" lon="7.25355">
        <ele>2377.467916</ele>
        <time>2010-09-30T08:52:04Z</time>
      </trkpt>
      <trkpt lat="44.16495" lon="7.25352">
        <ele>2377.3724</ele>
        <time>2010-09-30T08:52:07Z</time>
      </trkpt>
      <trkpt lat="44.16498" lon="7.25351">
        <ele>2377.322127</ele>
        <time>2010-09-30T08:52:09Z</time>
      </trkpt>
      <trkpt lat="44.16502" lon="7.25351">
        <ele>2377.295996</ele>
        <time>2010-09-30T08:52:12Z</time>
      </trkpt>
      <trkpt lat="44.16505" lon="7.25352">
        <ele>2377.286807</ele>
        <time>2010-09-30T08:52:14Z</time>
      </trkpt>
      <trkpt lat="44.1651" lon="7.25354">
        <ele>2377.286562</ele>
        <time>2010-09-30T08:52:17Z</time>
      </trkpt>
      <trkpt lat="44.16512" lon="7.25356">
        <ele>2377.288669</ele>
        <time>2010-09-30T08:52:19Z</time>
      </trkpt>
      <trkpt lat="44.16514" lon="7.25361">
        <ele>2377.290323</ele>
        <time>2010-09-30T08:52:22Z</time>
      </trkpt>
      <trkpt lat="44.16515" lon="7.25365">
        <ele>2377.291092</ele>
        <time>2010-09-30T08:52:26Z</time>
      </trkpt>
      <trkpt lat="44.16516" lon="7.25369">
        <ele>2377.297136</ele>
        <time>2010-09-30T08:52:30Z</time>
      </trkpt>
      <trkpt lat="44.16518" lon="7.25373">
        <ele>2377.324177</ele>
        <time>2010-09-30T08:52:34Z</time>
      </trkpt>
      <trkpt lat="44.16519" lon="7.25377">
        <ele>2377.410841</ele>
        <time>2010-09-30T08:52:37Z</time>
      </trkpt>
      <trkpt lat="44.16519" lon="7.25382">
        <ele>2377.620082</ele>
        <time>2010-09-30T08:52:41Z</time>
      </trkpt>
      <trkpt lat="44.16522" lon="7.25379">
        <ele>2377.960415</ele>
        <time>2010-09-30T08:52:48Z</time>
      </trkpt>
      <trkpt lat="44.16523" lon="7.25375">
        <ele>2378.343661</ele>
        <time>2010-09-30T08:52:51Z</time>
      </trkpt>
      <trkpt lat="44.16525" lon="7.2537">
        <ele>2378.71613</ele>
        <time>2010-09-30T08:52:54Z</time>
      </trkpt>
      <trkpt lat="44.16527" lon="7.25366">
        <ele>2379.152811</ele>
        <time>2010-09-30T08:52:57Z</time>
      </trkpt>
      <trkpt lat="44.16528" lon="7.25362">
        <ele>2379.667464</ele>
        <time>2010-09-30T08:53:00Z</time>
      </trkpt>
      <trkpt lat="44.1653" lon="7.25358">
        <ele>2380.127007</ele>
        <time>2010-09-30T08:53:03Z</time>
      </trkpt>
      <trkpt lat="44.16532" lon="7.25355">
        <ele>2380.448694</ele>
        <time>2010-09-30T08:53:06Z</time>
      </trkpt>
      <trkpt lat="44.16534" lon="7.25351">
        <ele>2380.666059</ele>
        <time>2010-09-30T08:53:09Z</time>
      </trkpt>
      <trkpt lat="44.16535" lon="7.25355">
        <ele>2380.821384</ele>
        <time>2010-09-30T08:53:14Z</time>
      </trkpt>
      <trkpt lat="44.16535" lon="7.25355">
        <ele>2380.928916</ele>
        <time>2010-09-30T08:53:17Z</time>
      </trkpt>
      <trkpt lat="44.16561" lon="7.25365">
        <ele>2380.999965</ele>
        <time>2010-09-30T08:53:52Z</time>
      </trkpt>
      <trkpt lat="44.16564" lon="7.25362">
        <ele>2381.06817</ele>
        <time>2010-09-30T08:53:55Z</time>
      </trkpt>
      <trkpt lat="44.16568" lon="7.25359">
        <ele>2381.161766</ele>
        <time>2010-09-30T08:53:58Z</time>
      </trkpt>
      <trkpt lat="44.16571" lon="7.25354">
        <ele>2381.711638</ele>
        <time>2010-09-30T08:54:01Z</time>
      </trkpt>
      <trkpt lat="44.16573" lon="7.25351">
        <ele>2382.968354</ele>
        <time>2010-09-30T08:54:03Z</time>
      </trkpt>
      <trkpt lat="44.16575" lon="7.25347">
        <ele>2384.257421</ele>
        <time>2010-09-30T08:54:06Z</time>
      </trkpt>
      <trkpt lat="44.16578" lon="7.25343">
        <ele>2384.932399</ele>
        <time>2010-09-30T08:54:09Z</time>
      </trkpt>
      <trkpt lat="44.1658" lon="7.25339">
        <ele>2385.130344</ele>
        <time>2010-09-30T08:54:12Z</time>
      </trkpt>
      <trkpt lat="44.16582" lon="7.25334">
        <ele>2385.147759</ele>
        <time>2010-09-30T08:54:15Z</time>
      </trkpt>
      <trkpt lat="44.16584" lon="7.25331">
        <ele>2385.168519</ele>
        <time>2010-09-30T08:54:17Z</time>
      </trkpt>
      <trkpt lat="44.16586" lon="7.25327">
        <ele>2385.237567</ele>
        <time>2010-09-30T08:54:20Z</time>
      </trkpt>
      <trkpt lat="44.1659" lon="7.25324">
        <ele>2385.335545</ele>
        <time>2010-09-30T08:54:23Z</time>
      </trkpt>
      <trkpt lat="44.16594" lon="7.25322">
        <ele>2385.430965</ele>
        <time>2010-09-30T08:54:26Z</time>
      </trkpt>
      <trkpt lat="44.16597" lon="7.2532">
        <ele>2385.50108</ele>
        <time>2010-09-30T08:54:29Z</time>
      </trkpt>
      <trkpt lat="44.166" lon="7.25318">
        <ele>2385.545864</ele>
        <time>2010-09-30T08:54:32Z</time>
      </trkpt>
      <trkpt lat="44.16604" lon="7.25315">
        <ele>2385.577489</ele>
        <time>2010-09-30T08:54:35Z</time>
      </trkpt>
      <trkpt lat="44.16607" lon="7.25312">
        <ele>2385.60495</ele>
        <time>2010-09-30T08:54:38Z</time>
      </trkpt>
      <trkpt lat="44.1661" lon="7.2531">
        <ele>2385.635401</ele>
        <time>2010-09-30T08:54:40Z</time>
      </trkpt>
      <trkpt lat="44.16613" lon="7.25307">
        <ele>2385.672374</ele>
        <time>2010-09-30T08:54:42Z</time>
      </trkpt>
      <trkpt lat="44.16615" lon="7.25305">
        <ele>2385.707938</ele>
        <time>2010-09-30T08:54:44Z</time>
      </trkpt>
      <trkpt lat="44.1662" lon="7.25303">
        <ele>2385.729578</ele>
        <time>2010-09-30T08:54:47Z</time>
      </trkpt>
      <trkpt lat="44.16624" lon="7.253">
        <ele>2385.735718</ele>
        <time>2010-09-30T08:54:50Z</time>
      </trkpt>
      <trkpt lat="44.16628" lon="7.25297">
        <ele>2385.733966</ele>
        <time>2010-09-30T08:54:53Z</time>
      </trkpt>
      <trkpt lat="44.16631" lon="7.25295">
        <ele>2385.728534</ele>
        <time>2010-09-30T08:54:55Z</time>
      </trkpt>
      <trkpt lat="44.16633" lon="7.25293">
        <ele>2385.718563</ele>
        <time>2010-09-30T08:54:57Z</time>
      </trkpt>
      <trkpt lat="44.16636" lon="7.25291">
        <ele>2385.702084</ele>
        <time>2010-09-30T08:55:00Z</time>
      </trkpt>
      <trkpt lat="44.1664" lon="7.25288">
        <ele>2385.681202</ele>
        <time>2010-09-30T08:55:03Z</time>
      </trkpt>
      <trkpt lat="44.16643" lon="7.25286">
        <ele>2385.663344</ele>
        <time>2010-09-30T08:55:06Z</time>
      </trkpt>
      <trkpt lat="44.16647" lon="7.25284">
        <ele>2385.65428</ele>
        <time>2010-09-30T08:55:09Z</time>
      </trkpt>
      <trkpt lat="44.16651" lon="7.25283">
        <ele>2385.652552</ele>
        <time>2010-09-30T08:55:12Z</time>
      </trkpt>
      <trkpt lat="44.16655" lon="7.25282">
        <ele>2385.65731</ele>
        <time>2010-09-30T08:55:15Z</time>
      </trkpt>
      <trkpt lat="44.16659" lon="7.25281">
        <ele>2385.669875</ele>
        <time>2010-09-30T08:55:18Z</time>
      </trkpt>
      <trkpt lat="44.16662" lon="7.2528">
        <ele>2385.687245</ele>
        <time>2010-09-30T08:55:21Z</time>
      </trkpt>
      <trkpt lat="44.16665" lon="7.2528">
        <ele>2385.708342</ele>
        <time>2010-09-30T08:55:23Z</time>
      </trkpt>
      <trkpt lat="44.16669" lon="7.25279">
        <ele>2385.740049</ele>
        <time>2010-09-30T08:55:26Z</time>
      </trkpt>
      <trkpt lat="44.16672" lon="7.25278">
        <ele>2385.784949</ele>
        <time>2010-09-30T08:55:29Z</time>
      </trkpt>
      <trkpt lat="44.16676" lon="7.25278">
        <ele>2385.831725</ele>
        <time>2010-09-30T08:55:32Z</time>
      </trkpt>
      <trkpt lat="44.16679" lon="7.25277">
        <ele>2385.866858</ele>
        <time>2010-09-30T08:55:35Z</time>
      </trkpt>
      <trkpt lat="44.16681" lon="7.25273">
        <ele>2385.889037</ele>
        <time>2010-09-30T08:55:39Z</time>
      </trkpt>
      <trkpt lat="44.16683" lon="7.2527">
        <ele>2385.905419</ele>
        <time>2010-09-30T08:55:43Z</time>
      </trkpt>
      <trkpt lat="44.16686" lon="7.25268">
        <ele>2385.922606</ele>
        <time>2010-09-30T08:55:47Z</time>
      </trkpt>
      <trkpt lat="44.16689" lon="7.25267">
        <ele>2385.945746</ele>
        <time>2010-09-30T08:55:50Z</time>
      </trkpt>
      <trkpt lat="44.16692" lon="7.25266">
        <ele>2385.977224</ele>
        <time>2010-09-30T08:55:53Z</time>
      </trkpt>
      <trkpt lat="44.16695" lon="7.25265">
        <ele>2386.015172</ele>
        <time>2010-09-30T08:55:56Z</time>
      </trkpt>
      <trkpt lat="44.16697" lon="7.25263">
        <ele>2386.054184</ele>
        <time>2010-09-30T08:55:59Z</time>
      </trkpt>
      <trkpt lat="44.167" lon="7.25262">
        <ele>2386.086878</ele>
        <time>2010-09-30T08:56:02Z</time>
      </trkpt>
      <trkpt lat="44.16704" lon="7.2526">
        <ele>2386.107501</ele>
        <time>2010-09-30T08:56:07Z</time>
      </trkpt>
      <trkpt lat="44.16706" lon="7.25261">
        <ele>2386.116073</ele>
        <time>2010-09-30T08:56:10Z</time>
      </trkpt>
      <trkpt lat="44.16711" lon="7.25261">
        <ele>2386.123669</ele>
        <time>2010-09-30T08:56:13Z</time>
      </trkpt>
      <trkpt lat="44.16714" lon="7.25261">
        <ele>2386.155348</ele>
        <time>2010-09-30T08:56:15Z</time>
      </trkpt>
      <trkpt lat="44.16717" lon="7.25261">
        <ele>2386.225421</ele>
        <time>2010-09-30T08:56:18Z</time>
      </trkpt>
      <trkpt lat="44.16722" lon="7.2526">
        <ele>2386.324289</ele>
        <time>2010-09-30T08:56:21Z</time>
      </trkpt>
      <trkpt lat="44.16726" lon="7.25259">
        <ele>2386.440387</ele>
        <time>2010-09-30T08:56:24Z</time>
      </trkpt>
      <trkpt lat="44.16731" lon="7.25259">
        <ele>2386.573865</ele>
        <time>2010-09-30T08:56:27Z</time>
      </trkpt>
      <trkpt lat="44.16733" lon="7.25259">
        <ele>2386.728506</ele>
        <time>2010-09-30T08:56:29Z</time>
      </trkpt>
      <trkpt lat="44.16738" lon="7.25258">
        <ele>2386.902358</ele>
        <time>2010-09-30T08:56:32Z</time>
      </trkpt>
      <trkpt lat="44.16742" lon="7.25257">
        <ele>2387.087056</ele>
        <time>2010-09-30T08:56:35Z</time>
      </trkpt>
      <trkpt lat="44.16745" lon="7.25256">
        <ele>2387.269326</ele>
        <time>2010-09-30T08:56:37Z</time>
      </trkpt>
      <trkpt lat="44.16749" lon="7.25255">
        <ele>2387.447953</ele>
        <time>2010-09-30T08:56:40Z</time>
      </trkpt>
      <trkpt lat="44.16753" lon="7.25254">
        <ele>2387.645781</ele>
        <time>2010-09-30T08:56:43Z</time>
      </trkpt>
      <trkpt lat="44.16755" lon="7.25254">
        <ele>2387.8649</ele>
        <time>2010-09-30T08:56:45Z</time>
      </trkpt>
      <trkpt lat="44.1676" lon="7.25254">
        <ele>2388.078236</ele>
        <time>2010-09-30T08:56:48Z</time>
      </trkpt>
      <trkpt lat="44.16764" lon="7.25254">
        <ele>2388.274837</ele>
        <time>2010-09-30T08:56:51Z</time>
      </trkpt>
      <trkpt lat="44.16768" lon="7.25254">
        <ele>2388.449767</ele>
        <time>2010-09-30T08:56:54Z</time>
      </trkpt>
      <trkpt lat="44.16772" lon="7.25253">
        <ele>2388.598689</ele>
        <time>2010-09-30T08:56:57Z</time>
      </trkpt>
      <trkpt lat="44.16775" lon="7.25253">
        <ele>2388.734449</ele>
        <time>2010-09-30T08:56:59Z</time>
      </trkpt>
      <trkpt lat="44.16779" lon="7.25252">
        <ele>2388.864419</ele>
        <time>2010-09-30T08:57:02Z</time>
      </trkpt>
      <trkpt lat="44.16783" lon="7.25251">
        <ele>2388.981725</ele>
        <time>2010-09-30T08:57:05Z</time>
      </trkpt>
      <trkpt lat="44.16786" lon="7.25251">
        <ele>2389.083619</ele>
        <time>2010-09-30T08:57:08Z</time>
      </trkpt>
      <trkpt lat="44.16785" lon="7.25254">
        <ele>2389.176858</ele>
        <time>2010-09-30T08:57:16Z</time>
      </trkpt>
      <trkpt lat="44.16785" lon="7.25254">
        <ele>2389.256918</ele>
        <time>2010-09-30T08:57:17Z</time>
      </trkpt>
      <trkpt lat="44.16785" lon="7.25254">
        <ele>2389.305095</ele>
        <time>2010-09-30T08:57:40Z</time>
      </trkpt>
      <trkpt lat="44.16802" lon="7.25284">
        <ele>2389.521032</ele>
        <time>2010-09-30T09:09:56Z</time>
      </trkpt>
      <trkpt lat="44.16805" lon="7.25284">
        <ele>2391.800519</ele>
        <time>2010-09-30T09:09:59Z</time>
      </trkpt>
      <trkpt lat="44.16807" lon="7.25285">
        <ele>2397.250468</ele>
        <time>2010-09-30T09:10:02Z</time>
      </trkpt>
      <trkpt lat="44.16811" lon="7.25287">
        <ele>2402.750099</ele>
        <time>2010-09-30T09:10:06Z</time>
      </trkpt>
      <trkpt lat="44.16813" lon="7.2529">
        <ele>2405.457553</ele>
        <time>2010-09-30T09:10:09Z</time>
      </trkpt>
      <trkpt lat="44.16816" lon="7.25293">
        <ele>2406.064978</ele>
        <time>2010-09-30T09:10:12Z</time>
      </trkpt>
      <trkpt lat="44.16819" lon="7.25295">
        <ele>2405.903205</ele>
        <time>2010-09-30T09:10:15Z</time>
      </trkpt>
      <trkpt lat="44.16822" lon="7.25296">
        <ele>2405.782133</ele>
        <time>2010-09-30T09:10:18Z</time>
      </trkpt>
      <trkpt lat="44.16827" lon="7.25296">
        <ele>2405.910975</ele>
        <time>2010-09-30T09:10:21Z</time>
      </trkpt>
      <trkpt lat="44.16831" lon="7.25296">
        <ele>2406.1815</ele>
        <time>2010-09-30T09:10:24Z</time>
      </trkpt>
      <trkpt lat="44.16834" lon="7.25296">
        <ele>2406.453677</ele>
        <time>2010-09-30T09:10:27Z</time>
      </trkpt>
      <trkpt lat="44.16838" lon="7.25295">
        <ele>2406.678887</ele>
        <time>2010-09-30T09:10:31Z</time>
      </trkpt>
      <trkpt lat="44.16841" lon="7.25293">
        <ele>2406.870153</ele>
        <time>2010-09-30T09:10:35Z</time>
      </trkpt>
      <trkpt lat="44.16844" lon="7.25292">
        <ele>2407.062997</ele>
        <time>2010-09-30T09:10:38Z</time>
      </trkpt>
      <trkpt lat="44.16847" lon="7.25292">
        <ele>2407.319074</ele>
        <time>2010-09-30T09:10:41Z</time>
      </trkpt>
      <trkpt lat="44.16851" lon="7.25291">
        <ele>2407.680824</ele>
        <time>2010-09-30T09:10:44Z</time>
      </trkpt>
      <trkpt lat="44.16851" lon="7.25291">
        <ele>2408.063415</ele>
        <time>2010-09-30T09:10:55Z</time>
      </trkpt>
      <trkpt lat="44.16851" lon="7.25291">
        <ele>2408.312271</ele>
        <time>2010-09-30T09:11:11Z</time>
      </trkpt>
      <trkpt lat="44.1687" lon="7.25262">
        <ele>2408.440692</ele>
        <time>2010-09-30T09:13:23Z</time>
      </trkpt>
      <trkpt lat="44.1687" lon="7.25262">
        <ele>2408.559538</ele>
        <time>2010-09-30T09:13:24Z</time>
      </trkpt>
      <trkpt lat="44.1687" lon="7.25262">
        <ele>2408.261267</ele>
        <time>2010-09-30T09:13:24Z</time>
      </trkpt>
      <trkpt lat="44.1687" lon="7.25262">
        <ele>2407.243161</ele>
        <time>2010-09-30T09:13:25Z</time>
      </trkpt>
      <trkpt lat="44.1687" lon="7.25262">
        <ele>2406.105999</ele>
        <time>2010-09-30T09:13:56Z</time>
      </trkpt>
      <trkpt lat="44.1687" lon="7.25266">
        <ele>2405.503413</ele>
        <time>2010-09-30T09:14:28Z</time>
      </trkpt>
      <trkpt lat="44.1687" lon="7.25266">
        <ele>2405.39543</ele>
        <time>2010-09-30T09:14:29Z</time>
      </trkpt>
      <trkpt lat="44.1687" lon="7.25266">
        <ele>2405.48592</ele>
        <time>2010-09-30T09:14:29Z</time>
      </trkpt>
      <trkpt lat="44.1687" lon="7.25266">
        <ele>2405.398123</ele>
        <time>2010-09-30T09:14:30Z</time>
      </trkpt>
      <trkpt lat="44.1687" lon="7.25266">
        <ele>2404.78051</ele>
        <time>2010-09-30T09:14:30Z</time>
      </trkpt>
      <trkpt lat="44.1687" lon="7.25266">
        <ele>2403.752652</ele>
        <time>2010-09-30T09:14:31Z</time>
      </trkpt>
      <trkpt lat="44.16895" lon="7.2525">
        <ele>2402.910836</ele>
        <time>2010-09-30T09:22:39Z</time>
      </trkpt>
      <trkpt lat="44.16898" lon="7.25248">
        <ele>2402.568261</ele>
        <time>2010-09-30T09:22:42Z</time>
      </trkpt>
      <trkpt lat="44.16901" lon="7.25246">
        <ele>2402.550509</ele>
        <time>2010-09-30T09:22:45Z</time>
      </trkpt>
      <trkpt lat="44.16903" lon="7.25243">
        <ele>2405.282672</ele>
        <time>2010-09-30T09:22:48Z</time>
      </trkpt>
      <trkpt lat="44.16906" lon="7.25241">
        <ele>2412.262212</ele>
        <time>2010-09-30T09:22:51Z</time>
      </trkpt>
      <trkpt lat="44.16909" lon="7.25239">
        <ele>2419.418015</ele>
        <time>2010-09-30T09:22:54Z</time>
      </trkpt>
      <trkpt lat="44.16911" lon="7.25235">
        <ele>2422.847773</ele>
        <time>2010-09-30T09:22:57Z</time>
      </trkpt>
      <trkpt lat="44.16912" lon="7.2523">
        <ele>2423.403522</ele>
        <time>2010-09-30T09:23:01Z</time>
      </trkpt>
      <trkpt lat="44.16913" lon="7.25226">
        <ele>2422.846605</ele>
        <time>2010-09-30T09:23:06Z</time>
      </trkpt>
      <trkpt lat="44.16914" lon="7.25222">
        <ele>2422.269476</ele>
        <time>2010-09-30T09:23:11Z</time>
      </trkpt>
      <trkpt lat="44.16915" lon="7.25218">
        <ele>2421.967489</ele>
        <time>2010-09-30T09:23:15Z</time>
      </trkpt>
      <trkpt lat="44.16916" lon="7.25214">
        <ele>2421.817219</ele>
        <time>2010-09-30T09:23:19Z</time>
      </trkpt>
      <trkpt lat="44.16916" lon="7.25211">
        <ele>2421.642332</ele>
        <time>2010-09-30T09:23:23Z</time>
      </trkpt>
      <trkpt lat="44.16918" lon="7.25207">
        <ele>2421.374799</ele>
        <time>2010-09-30T09:23:27Z</time>
      </trkpt>
      <trkpt lat="44.16919" lon="7.25202">
        <ele>2421.032033</ele>
        <time>2010-09-30T09:23:31Z</time>
      </trkpt>
      <trkpt lat="44.16918" lon="7.25197">
        <ele>2420.646906</ele>
        <time>2010-09-30T09:23:35Z</time>
      </trkpt>
      <trkpt lat="44.16918" lon="7.25191">
        <ele>2420.229596</ele>
        <time>2010-09-30T09:23:38Z</time>
      </trkpt>
      <trkpt lat="44.16922" lon="7.25188">
        <ele>2419.771271</ele>
        <time>2010-09-30T09:23:41Z</time>
      </trkpt>
      <trkpt lat="44.16924" lon="7.25188">
        <ele>2419.264877</ele>
        <time>2010-09-30T09:23:43Z</time>
      </trkpt>
      <trkpt lat="44.16928" lon="7.25189">
        <ele>2418.748979</ele>
        <time>2010-09-30T09:23:46Z</time>
      </trkpt>
      <trkpt lat="44.16931" lon="7.2519">
        <ele>2418.284528</ele>
        <time>2010-09-30T09:23:49Z</time>
      </trkpt>
      <trkpt lat="44.16936" lon="7.25191">
        <ele>2417.901188</ele>
        <time>2010-09-30T09:23:52Z</time>
      </trkpt>
      <trkpt lat="44.1694" lon="7.25191">
        <ele>2417.576254</ele>
        <time>2010-09-30T09:23:55Z</time>
      </trkpt>
      <trkpt lat="44.16942" lon="7.25192">
        <ele>2417.25706</ele>
        <time>2010-09-30T09:23:57Z</time>
      </trkpt>
      <trkpt lat="44.16946" lon="7.25193">
        <ele>2416.912046</ele>
        <time>2010-09-30T09:24:00Z</time>
      </trkpt>
      <trkpt lat="44.16951" lon="7.25194">
        <ele>2416.556235</ele>
        <time>2010-09-30T09:24:03Z</time>
      </trkpt>
      <trkpt lat="44.16955" lon="7.25194">
        <ele>2416.227958</ele>
        <time>2010-09-30T09:24:06Z</time>
      </trkpt>
      <trkpt lat="44.16959" lon="7.25195">
        <ele>2415.945987</ele>
        <time>2010-09-30T09:24:09Z</time>
      </trkpt>
      <trkpt lat="44.16963" lon="7.25195">
        <ele>2415.680886</ele>
        <time>2010-09-30T09:24:12Z</time>
      </trkpt>
      <trkpt lat="44.16967" lon="7.25195">
        <ele>2415.397987</ele>
        <time>2010-09-30T09:24:15Z</time>
      </trkpt>
      <trkpt lat="44.16971" lon="7.25195">
        <ele>2415.096024</ele>
        <time>2010-09-30T09:24:18Z</time>
      </trkpt>
      <trkpt lat="44.16975" lon="7.25196">
        <ele>2414.790957</ele>
        <time>2010-09-30T09:24:21Z</time>
      </trkpt>
      <trkpt lat="44.16978" lon="7.25196">
        <ele>2414.498181</ele>
        <time>2010-09-30T09:24:24Z</time>
      </trkpt>
      <trkpt lat="44.16982" lon="7.25197">
        <ele>2414.223123</ele>
        <time>2010-09-30T09:24:26Z</time>
      </trkpt>
      <trkpt lat="44.16986" lon="7.25199">
        <ele>2413.967081</ele>
        <time>2010-09-30T09:24:29Z</time>
      </trkpt>
      <trkpt lat="44.16989" lon="7.25199">
        <ele>2413.733086</ele>
        <time>2010-09-30T09:24:31Z</time>
      </trkpt>
      <trkpt lat="44.16993" lon="7.252">
        <ele>2413.5303</ele>
        <time>2010-09-30T09:24:34Z</time>
      </trkpt>
      <trkpt lat="44.16997" lon="7.25201">
        <ele>2413.358952</ele>
        <time>2010-09-30T09:24:37Z</time>
      </trkpt>
      <trkpt lat="44.17" lon="7.25202">
        <ele>2413.20795</ele>
        <time>2010-09-30T09:24:39Z</time>
      </trkpt>
      <trkpt lat="44.17004" lon="7.25205">
        <ele>2413.064682</ele>
        <time>2010-09-30T09:24:42Z</time>
      </trkpt>
      <trkpt lat="44.17009" lon="7.25209">
        <ele>2412.913645</ele>
        <time>2010-09-30T09:24:45Z</time>
      </trkpt>
      <trkpt lat="44.17013" lon="7.25212">
        <ele>2412.750116</ele>
        <time>2010-09-30T09:24:48Z</time>
      </trkpt>
      <trkpt lat="44.17018" lon="7.25215">
        <ele>2412.580775</ele>
        <time>2010-09-30T09:24:51Z</time>
      </trkpt>
      <trkpt lat="44.17021" lon="7.25217">
        <ele>2412.397658</ele>
        <time>2010-09-30T09:24:53Z</time>
      </trkpt>
      <trkpt lat="44.17025" lon="7.2522">
        <ele>2412.191524</ele>
        <time>2010-09-30T09:24:56Z</time>
      </trkpt>
      <trkpt lat="44.17028" lon="7.25222">
        <ele>2411.967681</ele>
        <time>2010-09-30T09:24:58Z</time>
      </trkpt>
      <trkpt lat="44.17031" lon="7.25225">
        <ele>2411.74651</ele>
        <time>2010-09-30T09:25:00Z</time>
      </trkpt>
      <trkpt lat="44.17033" lon="7.2523">
        <ele>2411.536235</ele>
        <time>2010-09-30T09:25:03Z</time>
      </trkpt>
      <trkpt lat="44.17032" lon="7.25235">
        <ele>2411.321724</ele>
        <time>2010-09-30T09:25:06Z</time>
      </trkpt>
      <trkpt lat="44.1703" lon="7.2524">
        <ele>2411.095663</ele>
        <time>2010-09-30T09:25:09Z</time>
      </trkpt>
      <trkpt lat="44.17028" lon="7.25246">
        <ele>2410.847455</ele>
        <time>2010-09-30T09:25:12Z</time>
      </trkpt>
      <trkpt lat="44.17027" lon="7.2525">
        <ele>2410.549798</ele>
        <time>2010-09-30T09:25:14Z</time>
      </trkpt>
      <trkpt lat="44.17027" lon="7.25256">
        <ele>2410.200516</ele>
        <time>2010-09-30T09:25:17Z</time>
      </trkpt>
      <trkpt lat="44.1703" lon="7.25261">
        <ele>2409.82225</ele>
        <time>2010-09-30T09:25:20Z</time>
      </trkpt>
      <trkpt lat="44.17035" lon="7.25262">
        <ele>2409.451431</ele>
        <time>2010-09-30T09:25:23Z</time>
      </trkpt>
      <trkpt lat="44.17038" lon="7.25261">
        <ele>2409.111387</ele>
        <time>2010-09-30T09:25:25Z</time>
      </trkpt>
      <trkpt lat="44.17043" lon="7.25258">
        <ele>2408.781242</ele>
        <time>2010-09-30T09:25:28Z</time>
      </trkpt>
      <trkpt lat="44.17048" lon="7.25253">
        <ele>2408.42745</ele>
        <time>2010-09-30T09:25:31Z</time>
      </trkpt>
      <trkpt lat="44.17051" lon="7.25248">
        <ele>2408.057454</ele>
        <time>2010-09-30T09:25:34Z</time>
      </trkpt>
      <trkpt lat="44.17052" lon="7.25244">
        <ele>2407.671377</ele>
        <time>2010-09-30T09:25:36Z</time>
      </trkpt>
      <trkpt lat="44.17053" lon="7.25239">
        <ele>2407.218361</ele>
        <time>2010-09-30T09:25:38Z</time>
      </trkpt>
      <trkpt lat="44.17056" lon="7.25237">
        <ele>2406.660697</ele>
        <time>2010-09-30T09:25:41Z</time>
      </trkpt>
      <trkpt lat="44.17058" lon="7.25238">
        <ele>2406.050414</ele>
        <time>2010-09-30T09:25:43Z</time>
      </trkpt>
      <trkpt lat="44.17062" lon="7.25243">
        <ele>2405.464817</ele>
        <time>2010-09-30T09:25:46Z</time>
      </trkpt>
      <trkpt lat="44.17064" lon="7.25247">
        <ele>2404.881359</ele>
        <time>2010-09-30T09:25:48Z</time>
      </trkpt>
      <trkpt lat="44.17066" lon="7.25252">
        <ele>2404.239319</ele>
        <time>2010-09-30T09:25:51Z</time>
      </trkpt>
      <trkpt lat="44.17068" lon="7.25255">
        <ele>2403.527993</ele>
        <time>2010-09-30T09:25:53Z</time>
      </trkpt>
      <trkpt lat="44.17071" lon="7.25255">
        <ele>2402.782646</ele>
        <time>2010-09-30T09:25:56Z</time>
      </trkpt>
      <trkpt lat="44.17071" lon="7.25249">
        <ele>2402.037986</ele>
        <time>2010-09-30T09:25:59Z</time>
      </trkpt>
      <trkpt lat="44.1707" lon="7.25243">
        <ele>2401.320212</ele>
        <time>2010-09-30T09:26:02Z</time>
      </trkpt>
      <trkpt lat="44.17072" lon="7.2524">
        <ele>2400.593496</ele>
        <time>2010-09-30T09:26:05Z</time>
      </trkpt>
      <trkpt lat="44.17075" lon="7.25243">
        <ele>2399.745493</ele>
        <time>2010-09-30T09:26:08Z</time>
      </trkpt>
      <trkpt lat="44.17077" lon="7.25248">
        <ele>2398.721985</ele>
        <time>2010-09-30T09:26:11Z</time>
      </trkpt>
      <trkpt lat="44.17079" lon="7.25255">
        <ele>2397.639673</ele>
        <time>2010-09-30T09:26:14Z</time>
      </trkpt>
      <trkpt lat="44.1708" lon="7.25259">
        <ele>2396.617369</ele>
        <time>2010-09-30T09:26:16Z</time>
      </trkpt>
      <trkpt lat="44.17081" lon="7.25264">
        <ele>2395.671583</ele>
        <time>2010-09-30T09:26:18Z</time>
      </trkpt>
      <trkpt lat="44.17083" lon="7.2527">
        <ele>2394.779145</ele>
        <time>2010-09-30T09:26:21Z</time>
      </trkpt>
      <trkpt lat="44.17086" lon="7.25271">
        <ele>2393.968468</ele>
        <time>2010-09-30T09:26:24Z</time>
      </trkpt>
      <trkpt lat="44.17089" lon="7.25269">
        <ele>2393.294035</ele>
        <time>2010-09-30T09:26:26Z</time>
      </trkpt>
      <trkpt lat="44.17092" lon="7.25264">
        <ele>2392.71874</ele>
        <time>2010-09-30T09:26:29Z</time>
      </trkpt>
      <trkpt lat="44.17096" lon="7.25259">
        <ele>2392.131706</ele>
        <time>2010-09-30T09:26:32Z</time>
      </trkpt>
      <trkpt lat="44.17098" lon="7.25255">
        <ele>2391.510634</ele>
        <time>2010-09-30T09:26:34Z</time>
      </trkpt>
      <trkpt lat="44.171" lon="7.25251">
        <ele>2390.877938</ele>
        <time>2010-09-30T09:26:36Z</time>
      </trkpt>
      <trkpt lat="44.17104" lon="7.25247">
        <ele>2390.187961</ele>
        <time>2010-09-30T09:26:39Z</time>
      </trkpt>
      <trkpt lat="44.17109" lon="7.25244">
        <ele>2389.441289</ele>
        <time>2010-09-30T09:26:42Z</time>
      </trkpt>
      <trkpt lat="44.17112" lon="7.25243">
        <ele>2388.727386</ele>
        <time>2010-09-30T09:26:44Z</time>
      </trkpt>
      <trkpt lat="44.17116" lon="7.2524">
        <ele>2388.043932</ele>
        <time>2010-09-30T09:26:47Z</time>
      </trkpt>
      <trkpt lat="44.17118" lon="7.25237">
        <ele>2387.308807</ele>
        <time>2010-09-30T09:26:50Z</time>
      </trkpt>
      <trkpt lat="44.17121" lon="7.25234">
        <ele>2386.549751</ele>
        <time>2010-09-30T09:26:53Z</time>
      </trkpt>
      <trkpt lat="44.17123" lon="7.25231">
        <ele>2385.844972</ele>
        <time>2010-09-30T09:26:56Z</time>
      </trkpt>
      <trkpt lat="44.17126" lon="7.25228">
        <ele>2385.179665</ele>
        <time>2010-09-30T09:26:59Z</time>
      </trkpt>
      <trkpt lat="44.17128" lon="7.25227">
        <ele>2384.51926</ele>
        <time>2010-09-30T09:27:02Z</time>
      </trkpt>
      <trkpt lat="44.17131" lon="7.25226">
        <ele>2383.881737</ele>
        <time>2010-09-30T09:27:05Z</time>
      </trkpt>
      <trkpt lat="44.17134" lon="7.25223">
        <ele>2383.293425</ele>
        <time>2010-09-30T09:27:08Z</time>
      </trkpt>
      <trkpt lat="44.17137" lon="7.25219">
        <ele>2382.77082</ele>
        <time>2010-09-30T09:27:11Z</time>
      </trkpt>
      <trkpt lat="44.17139" lon="7.25217">
        <ele>2382.315592</ele>
        <time>2010-09-30T09:27:14Z</time>
      </trkpt>
      <trkpt lat="44.17142" lon="7.25215">
        <ele>2381.917227</ele>
        <time>2010-09-30T09:27:17Z</time>
      </trkpt>
      <trkpt lat="44.17142" lon="7.25215">
        <ele>2381.562146</ele>
        <time>2010-09-30T09:27:19Z</time>
      </trkpt>
      <trkpt lat="44.17145" lon="7.25212">
        <ele>2381.248208</ele>
        <time>2010-09-30T09:27:20Z</time>
      </trkpt>
      <trkpt lat="44.17147" lon="7.2521">
        <ele>2380.987636</ele>
        <time>2010-09-30T09:27:23Z</time>
      </trkpt>
      <trkpt lat="44.17147" lon="7.2521">
        <ele>2380.79429</ele>
        <time>2010-09-30T09:27:29Z</time>
      </trkpt>
      <trkpt lat="44.17147" lon="7.2521">
        <ele>2380.67073</ele>
        <time>2010-09-30T09:27:34Z</time>
      </trkpt>
      <trkpt lat="44.17152" lon="7.25204">
        <ele>2380.540784</ele>
        <time>2010-09-30T09:27:35Z</time>
      </trkpt>
      <trkpt lat="44.17154" lon="7.25201">
        <ele>2380.334926</ele>
        <time>2010-09-30T09:27:38Z</time>
      </trkpt>
      <trkpt lat="44.17157" lon="7.25198">
        <ele>2380.12773</ele>
        <time>2010-09-30T09:27:41Z</time>
      </trkpt>
      <trkpt lat="44.17159" lon="7.25196">
        <ele>2380.016411</ele>
        <time>2010-09-30T09:27:43Z</time>
      </trkpt>
      <trkpt lat="44.17164" lon="7.25192">
        <ele>2379.983763</ele>
        <time>2010-09-30T09:27:46Z</time>
      </trkpt>
      <trkpt lat="44.17168" lon="7.25188">
        <ele>2379.982064</ele>
        <time>2010-09-30T09:27:49Z</time>
      </trkpt>
      <trkpt lat="44.17172" lon="7.25184">
        <ele>2379.986614</ele>
        <time>2010-09-30T09:27:52Z</time>
      </trkpt>
      <trkpt lat="44.17175" lon="7.25184">
        <ele>2379.981917</ele>
        <time>2010-09-30T09:27:54Z</time>
      </trkpt>
      <trkpt lat="44.17178" lon="7.25186">
        <ele>2379.953697</ele>
        <time>2010-09-30T09:27:56Z</time>
      </trkpt>
      <trkpt lat="44.17183" lon="7.25189">
        <ele>2379.90634</ele>
        <time>2010-09-30T09:27:59Z</time>
      </trkpt>
      <trkpt lat="44.17186" lon="7.25193">
        <ele>2379.857993</ele>
        <time>2010-09-30T09:28:02Z</time>
      </trkpt>
      <trkpt lat="44.1719" lon="7.25195">
        <ele>2379.822758</ele>
        <time>2010-09-30T09:28:05Z</time>
      </trkpt>
      <trkpt lat="44.17193" lon="7.25196">
        <ele>2379.806091</ele>
        <time>2010-09-30T09:28:07Z</time>
      </trkpt>
      <trkpt lat="44.17197" lon="7.25197">
        <ele>2379.803597</ele>
        <time>2010-09-30T09:28:10Z</time>
      </trkpt>
      <trkpt lat="44.17201" lon="7.25197">
        <ele>2379.810519</ele>
        <time>2010-09-30T09:28:13Z</time>
      </trkpt>
      <trkpt lat="44.17205" lon="7.25199">
        <ele>2379.828252</ele>
        <time>2010-09-30T09:28:16Z</time>
      </trkpt>
      <trkpt lat="44.17209" lon="7.252">
        <ele>2379.853619</ele>
        <time>2010-09-30T09:28:19Z</time>
      </trkpt>
      <trkpt lat="44.17212" lon="7.252">
        <ele>2379.875719</ele>
        <time>2010-09-30T09:28:21Z</time>
      </trkpt>
      <trkpt lat="44.17215" lon="7.25201">
        <ele>2379.891973</ele>
        <time>2010-09-30T09:28:24Z</time>
      </trkpt>
      <trkpt lat="44.17219" lon="7.25204">
        <ele>2379.91644</ele>
        <time>2010-09-30T09:28:27Z</time>
      </trkpt>
      <trkpt lat="44.17223" lon="7.25206">
        <ele>2379.96665</ele>
        <time>2010-09-30T09:28:30Z</time>
      </trkpt>
      <trkpt lat="44.17227" lon="7.25208">
        <ele>2380.048115</ele>
        <time>2010-09-30T09:28:33Z</time>
      </trkpt>
      <trkpt lat="44.17231" lon="7.25209">
        <ele>2380.153257</ele>
        <time>2010-09-30T09:28:36Z</time>
      </trkpt>
      <trkpt lat="44.17234" lon="7.25211">
        <ele>2380.267996</ele>
        <time>2010-09-30T09:28:39Z</time>
      </trkpt>
      <trkpt lat="44.17238" lon="7.25212">
        <ele>2380.381787</ele>
        <time>2010-09-30T09:28:42Z</time>
      </trkpt>
      <trkpt lat="44.17242" lon="7.25214">
        <ele>2380.494476</ele>
        <time>2010-09-30T09:28:45Z</time>
      </trkpt>
      <trkpt lat="44.17245" lon="7.25216">
        <ele>2380.608666</ele>
        <time>2010-09-30T09:28:47Z</time>
      </trkpt>
      <trkpt lat="44.1725" lon="7.25218">
        <ele>2380.722281</ele>
        <time>2010-09-30T09:28:50Z</time>
      </trkpt>
      <trkpt lat="44.17254" lon="7.2522">
        <ele>2380.832706</ele>
        <time>2010-09-30T09:28:53Z</time>
      </trkpt>
      <trkpt lat="44.17259" lon="7.25222">
        <ele>2380.936133</ele>
        <time>2010-09-30T09:28:56Z</time>
      </trkpt>
      <trkpt lat="44.17265" lon="7.25224">
        <ele>2381.037933</ele>
        <time>2010-09-30T09:28:59Z</time>
      </trkpt>
      <trkpt lat="44.17269" lon="7.25226">
        <ele>2381.156932</ele>
        <time>2010-09-30T09:29:01Z</time>
      </trkpt>
      <trkpt lat="44.17274" lon="7.25227">
        <ele>2381.298428</ele>
        <time>2010-09-30T09:29:04Z</time>
      </trkpt>
      <trkpt lat="44.1728" lon="7.25227">
        <ele>2381.440272</ele>
        <time>2010-09-30T09:29:07Z</time>
      </trkpt>
      <trkpt lat="44.17285" lon="7.25227">
        <ele>2381.551879</ele>
        <time>2010-09-30T09:29:10Z</time>
      </trkpt>
      <trkpt lat="44.1729" lon="7.25227">
        <ele>2381.619593</ele>
        <time>2010-09-30T09:29:13Z</time>
      </trkpt>
      <trkpt lat="44.17295" lon="7.25225">
        <ele>2381.652377</ele>
        <time>2010-09-30T09:29:16Z</time>
      </trkpt>
      <trkpt lat="44.17299" lon="7.25223">
        <ele>2381.664031</ele>
        <time>2010-09-30T09:29:19Z</time>
      </trkpt>
      <trkpt lat="44.17303" lon="7.25222">
        <ele>2381.666109</ele>
        <time>2010-09-30T09:29:21Z</time>
      </trkpt>
      <trkpt lat="44.17308" lon="7.25219">
        <ele>2381.667669</ele>
        <time>2010-09-30T09:29:24Z</time>
      </trkpt>
      <trkpt lat="44.17313" lon="7.25216">
        <ele>2381.670003</ele>
        <time>2010-09-30T09:29:27Z</time>
      </trkpt>
      <trkpt lat="44.17319" lon="7.25214">
        <ele>2381.671078</ele>
        <time>2010-09-30T09:29:30Z</time>
      </trkpt>
      <trkpt lat="44.17323" lon="7.25212">
        <ele>2381.670784</ele>
        <time>2010-09-30T09:29:32Z</time>
      </trkpt>
      <trkpt lat="44.17327" lon="7.25209">
        <ele>2381.670021</ele>
        <time>2010-09-30T09:29:34Z</time>
      </trkpt>
      <trkpt lat="44.17333" lon="7.25206">
        <ele>2381.668282</ele>
        <time>2010-09-30T09:29:37Z</time>
      </trkpt>
      <trkpt lat="44.17336" lon="7.25203">
        <ele>2381.661742</ele>
        <time>2010-09-30T09:29:39Z</time>
      </trkpt>
      <trkpt lat="44.17342" lon="7.25201">
        <ele>2381.64665</ele>
        <time>2010-09-30T09:29:42Z</time>
      </trkpt>
      <trkpt lat="44.17347" lon="7.25197">
        <ele>2381.617692</ele>
        <time>2010-09-30T09:29:45Z</time>
      </trkpt>
      <trkpt lat="44.1735" lon="7.25195">
        <ele>2381.569894</ele>
        <time>2010-09-30T09:29:47Z</time>
      </trkpt>
      <trkpt lat="44.17356" lon="7.25193">
        <ele>2381.498537</ele>
        <time>2010-09-30T09:29:50Z</time>
      </trkpt>
      <trkpt lat="44.17361" lon="7.25191">
        <ele>2381.391638</ele>
        <time>2010-09-30T09:29:53Z</time>
      </trkpt>
      <trkpt lat="44.17366" lon="7.25192">
        <ele>2381.236848</ele>
        <time>2010-09-30T09:29:56Z</time>
      </trkpt>
      <trkpt lat="44.17369" lon="7.25194">
        <ele>2381.012588</ele>
        <time>2010-09-30T09:29:58Z</time>
      </trkpt>
      <trkpt lat="44.17373" lon="7.25198">
        <ele>2380.687218</ele>
        <time>2010-09-30T09:30:00Z</time>
      </trkpt>
      <trkpt lat="44.17376" lon="7.25202">
        <ele>2380.262391</ele>
        <time>2010-09-30T09:30:02Z</time>
      </trkpt>
      <trkpt lat="44.17381" lon="7.25206">
        <ele>2379.803266</ele>
        <time>2010-09-30T09:30:05Z</time>
      </trkpt>
      <trkpt lat="44.17385" lon="7.25209">
        <ele>2379.388544</ele>
        <time>2010-09-30T09:30:08Z</time>
      </trkpt>
      <trkpt lat="44.1739" lon="7.25214">
        <ele>2379.04534</ele>
        <time>2010-09-30T09:30:11Z</time>
      </trkpt>
      <trkpt lat="44.17392" lon="7.25218">
        <ele>2378.732078</ele>
        <time>2010-09-30T09:30:13Z</time>
      </trkpt>
      <trkpt lat="44.17396" lon="7.25222">
        <ele>2378.389765</ele>
        <time>2010-09-30T09:30:16Z</time>
      </trkpt>
      <trkpt lat="44.17399" lon="7.25222">
        <ele>2378.002963</ele>
        <time>2010-09-30T09:30:19Z</time>
      </trkpt>
      <trkpt lat="44.17398" lon="7.25216">
        <ele>2377.621018</ele>
        <time>2010-09-30T09:30:22Z</time>
      </trkpt>
      <trkpt lat="44.17397" lon="7.25211">
        <ele>2377.286375</ele>
        <time>2010-09-30T09:30:24Z</time>
      </trkpt>
      <trkpt lat="44.17393" lon="7.25203">
        <ele>2376.97325</ele>
        <time>2010-09-30T09:30:27Z</time>
      </trkpt>
      <trkpt lat="44.1739" lon="7.25195">
        <ele>2376.624394</ele>
        <time>2010-09-30T09:30:30Z</time>
      </trkpt>
      <trkpt lat="44.17386" lon="7.25187">
        <ele>2376.239808</ele>
        <time>2010-09-30T09:30:33Z</time>
      </trkpt>
      <trkpt lat="44.17385" lon="7.2518">
        <ele>2375.855513</ele>
        <time>2010-09-30T09:30:36Z</time>
      </trkpt>
      <trkpt lat="44.17384" lon="7.25176">
        <ele>2375.469453</ele>
        <time>2010-09-30T09:30:38Z</time>
      </trkpt>
      <trkpt lat="44.17381" lon="7.25169">
        <ele>2375.02202</ele>
        <time>2010-09-30T09:30:41Z</time>
      </trkpt>
      <trkpt lat="44.17379" lon="7.25166">
        <ele>2374.46358</ele>
        <time>2010-09-30T09:30:43Z</time>
      </trkpt>
      <trkpt lat="44.17379" lon="7.25162">
        <ele>2373.841871</ele>
        <time>2010-09-30T09:30:48Z</time>
      </trkpt>
      <trkpt lat="44.17382" lon="7.25161">
        <ele>2373.242081</ele>
        <time>2010-09-30T09:30:50Z</time>
      </trkpt>
      <trkpt lat="44.17387" lon="7.25159">
        <ele>2372.707004</ele>
        <time>2010-09-30T09:30:53Z</time>
      </trkpt>
      <trkpt lat="44.17391" lon="7.25158">
        <ele>2372.227463</ele>
        <time>2010-09-30T09:30:55Z</time>
      </trkpt>
      <trkpt lat="44.17396" lon="7.25156">
        <ele>2371.796673</ele>
        <time>2010-09-30T09:30:58Z</time>
      </trkpt>
      <trkpt lat="44.174" lon="7.25155">
        <ele>2371.447874</ele>
        <time>2010-09-30T09:31:00Z</time>
      </trkpt>
      <trkpt lat="44.17404" lon="7.25156">
        <ele>2371.205736</ele>
        <time>2010-09-30T09:31:02Z</time>
      </trkpt>
      <trkpt lat="44.1741" lon="7.25159">
        <ele>2371.030386</ele>
        <time>2010-09-30T09:31:05Z</time>
      </trkpt>
      <trkpt lat="44.17415" lon="7.25162">
        <ele>2370.882323</ele>
        <time>2010-09-30T09:31:08Z</time>
      </trkpt>
      <trkpt lat="44.17418" lon="7.25164">
        <ele>2370.744305</ele>
        <time>2010-09-30T09:31:10Z</time>
      </trkpt>
      <trkpt lat="44.17423" lon="7.25166">
        <ele>2370.598302</ele>
        <time>2010-09-30T09:31:13Z</time>
      </trkpt>
      <trkpt lat="44.17427" lon="7.25167">
        <ele>2370.411193</ele>
        <time>2010-09-30T09:31:15Z</time>
      </trkpt>
      <trkpt lat="44.17431" lon="7.25166">
        <ele>2370.183392</ele>
        <time>2010-09-30T09:31:17Z</time>
      </trkpt>
      <trkpt lat="44.17437" lon="7.25165">
        <ele>2369.931989</ele>
        <time>2010-09-30T09:31:20Z</time>
      </trkpt>
      <trkpt lat="44.17442" lon="7.25164">
        <ele>2369.669305</ele>
        <time>2010-09-30T09:31:23Z</time>
      </trkpt>
      <trkpt lat="44.17446" lon="7.25164">
        <ele>2369.417529</ele>
        <time>2010-09-30T09:31:25Z</time>
      </trkpt>
      <trkpt lat="44.17449" lon="7.25165">
        <ele>2369.170504</ele>
        <time>2010-09-30T09:31:27Z</time>
      </trkpt>
      <trkpt lat="44.17455" lon="7.25167">
        <ele>2368.870788</ele>
        <time>2010-09-30T09:31:30Z</time>
      </trkpt>
      <trkpt lat="44.17458" lon="7.25169">
        <ele>2368.49897</ele>
        <time>2010-09-30T09:31:32Z</time>
      </trkpt>
      <trkpt lat="44.17462" lon="7.25171">
        <ele>2368.103474</ele>
        <time>2010-09-30T09:31:34Z</time>
      </trkpt>
      <trkpt lat="44.17467" lon="7.25171">
        <ele>2367.693796</ele>
        <time>2010-09-30T09:31:37Z</time>
      </trkpt>
      <trkpt lat="44.17473" lon="7.2517">
        <ele>2367.241931</ele>
        <time>2010-09-30T09:31:40Z</time>
      </trkpt>
      <trkpt lat="44.17477" lon="7.25168">
        <ele>2366.774726</ele>
        <time>2010-09-30T09:31:42Z</time>
      </trkpt>
      <trkpt lat="44.1748" lon="7.25167">
        <ele>2366.303658</ele>
        <time>2010-09-30T09:31:44Z</time>
      </trkpt>
      <trkpt lat="44.17485" lon="7.25167">
        <ele>2365.775076</ele>
        <time>2010-09-30T09:31:47Z</time>
      </trkpt>
      <trkpt lat="44.17488" lon="7.25168">
        <ele>2365.198416</ele>
        <time>2010-09-30T09:31:49Z</time>
      </trkpt>
      <trkpt lat="44.17492" lon="7.25169">
        <ele>2364.658629</ele>
        <time>2010-09-30T09:31:51Z</time>
      </trkpt>
      <trkpt lat="44.17495" lon="7.25173">
        <ele>2364.16666</ele>
        <time>2010-09-30T09:31:54Z</time>
      </trkpt>
      <trkpt lat="44.17498" lon="7.25177">
        <ele>2363.674548</ele>
        <time>2010-09-30T09:31:57Z</time>
      </trkpt>
      <trkpt lat="44.17501" lon="7.25181">
        <ele>2363.186586</ele>
        <time>2010-09-30T09:32:00Z</time>
      </trkpt>
      <trkpt lat="44.17504" lon="7.25184">
        <ele>2362.699349</ele>
        <time>2010-09-30T09:32:02Z</time>
      </trkpt>
      <trkpt lat="44.17507" lon="7.25185">
        <ele>2362.172579</ele>
        <time>2010-09-30T09:32:04Z</time>
      </trkpt>
      <trkpt lat="44.17511" lon="7.25187">
        <ele>2361.614948</ele>
        <time>2010-09-30T09:32:07Z</time>
      </trkpt>
      <trkpt lat="44.17515" lon="7.25189">
        <ele>2361.096473</ele>
        <time>2010-09-30T09:32:10Z</time>
      </trkpt>
      <trkpt lat="44.17518" lon="7.25189">
        <ele>2360.685581</ele>
        <time>2010-09-30T09:32:12Z</time>
      </trkpt>
      <trkpt lat="44.17521" lon="7.2519">
        <ele>2360.380464</ele>
        <time>2010-09-30T09:32:14Z</time>
      </trkpt>
      <trkpt lat="44.17526" lon="7.25192">
        <ele>2360.122319</ele>
        <time>2010-09-30T09:32:17Z</time>
      </trkpt>
      <trkpt lat="44.1753" lon="7.25193">
        <ele>2359.885198</ele>
        <time>2010-09-30T09:32:20Z</time>
      </trkpt>
      <trkpt lat="44.17534" lon="7.25193">
        <ele>2359.682057</ele>
        <time>2010-09-30T09:32:23Z</time>
      </trkpt>
      <trkpt lat="44.17535" lon="7.25189">
        <ele>2359.505641</ele>
        <time>2010-09-30T09:32:26Z</time>
      </trkpt>
      <trkpt lat="44.17533" lon="7.25183">
        <ele>2359.328175</ele>
        <time>2010-09-30T09:32:29Z</time>
      </trkpt>
      <trkpt lat="44.17532" lon="7.2518">
        <ele>2359.135704</ele>
        <time>2010-09-30T09:32:31Z</time>
      </trkpt>
      <trkpt lat="44.17533" lon="7.25175">
        <ele>2358.927825</ele>
        <time>2010-09-30T09:32:34Z</time>
      </trkpt>
      <trkpt lat="44.17536" lon="7.25176">
        <ele>2358.703686</ele>
        <time>2010-09-30T09:32:39Z</time>
      </trkpt>
      <trkpt lat="44.17537" lon="7.25179">
        <ele>2358.476639</ele>
        <time>2010-09-30T09:32:42Z</time>
      </trkpt>
      <trkpt lat="44.1754" lon="7.25179">
        <ele>2358.264502</ele>
        <time>2010-09-30T09:32:45Z</time>
      </trkpt>
      <trkpt lat="44.17543" lon="7.25177">
        <ele>2358.044922</ele>
        <time>2010-09-30T09:32:47Z</time>
      </trkpt>
      <trkpt lat="44.17546" lon="7.25174">
        <ele>2357.791804</ele>
        <time>2010-09-30T09:32:50Z</time>
      </trkpt>
      <trkpt lat="44.1755" lon="7.25172">
        <ele>2357.527569</ele>
        <time>2010-09-30T09:32:53Z</time>
      </trkpt>
      <trkpt lat="44.17553" lon="7.25172">
        <ele>2357.285572</ele>
        <time>2010-09-30T09:32:56Z</time>
      </trkpt>
      <trkpt lat="44.17556" lon="7.25172">
        <ele>2357.066817</ele>
        <time>2010-09-30T09:32:59Z</time>
      </trkpt>
      <trkpt lat="44.1756" lon="7.25171">
        <ele>2356.86016</ele>
        <time>2010-09-30T09:33:02Z</time>
      </trkpt>
      <trkpt lat="44.17563" lon="7.25169">
        <ele>2356.668155</ele>
        <time>2010-09-30T09:33:05Z</time>
      </trkpt>
      <trkpt lat="44.17566" lon="7.25167">
        <ele>2356.504729</ele>
        <time>2010-09-30T09:33:07Z</time>
      </trkpt>
      <trkpt lat="44.1757" lon="7.25164">
        <ele>2356.375464</ele>
        <time>2010-09-30T09:33:10Z</time>
      </trkpt>
      <trkpt lat="44.17573" lon="7.25162">
        <ele>2356.275201</ele>
        <time>2010-09-30T09:33:13Z</time>
      </trkpt>
      <trkpt lat="44.17576" lon="7.25162">
        <ele>2356.19039</ele>
        <time>2010-09-30T09:33:16Z</time>
      </trkpt>
      <trkpt lat="44.1758" lon="7.25162">
        <ele>2356.096171</ele>
        <time>2010-09-30T09:33:19Z</time>
      </trkpt>
      <trkpt lat="44.17583" lon="7.25163">
        <ele>2355.980462</ele>
        <time>2010-09-30T09:33:22Z</time>
      </trkpt>
      <trkpt lat="44.17587" lon="7.25162">
        <ele>2355.874994</ele>
        <time>2010-09-30T09:33:25Z</time>
      </trkpt>
      <trkpt lat="44.17591" lon="7.25162">
        <ele>2355.817656</ele>
        <time>2010-09-30T09:33:28Z</time>
      </trkpt>
      <trkpt lat="44.17594" lon="7.25161">
        <ele>2355.80459</ele>
        <time>2010-09-30T09:33:31Z</time>
      </trkpt>
      <trkpt lat="44.17598" lon="7.2516">
        <ele>2355.823752</ele>
        <time>2010-09-30T09:33:34Z</time>
      </trkpt>
      <trkpt lat="44.17601" lon="7.2516">
        <ele>2355.88347</ele>
        <time>2010-09-30T09:33:36Z</time>
      </trkpt>
      <trkpt lat="44.17605" lon="7.25159">
        <ele>2355.993074</ele>
        <time>2010-09-30T09:33:39Z</time>
      </trkpt>
      <trkpt lat="44.17608" lon="7.25159">
        <ele>2356.137102</ele>
        <time>2010-09-30T09:33:41Z</time>
      </trkpt>
      <trkpt lat="44.17611" lon="7.25159">
        <ele>2356.2775</ele>
        <time>2010-09-30T09:33:43Z</time>
      </trkpt>
      <trkpt lat="44.17614" lon="7.25159">
        <ele>2356.390617</ele>
        <time>2010-09-30T09:33:45Z</time>
      </trkpt>
      <trkpt lat="44.17618" lon="7.25159">
        <ele>2356.480966</ele>
        <time>2010-09-30T09:33:48Z</time>
      </trkpt>
      <trkpt lat="44.17621" lon="7.25159">
        <ele>2356.553322</ele>
        <time>2010-09-30T09:33:50Z</time>
      </trkpt>
      <trkpt lat="44.17625" lon="7.25159">
        <ele>2356.608923</ele>
        <time>2010-09-30T09:33:53Z</time>
      </trkpt>
      <trkpt lat="44.17629" lon="7.25158">
        <ele>2356.66176</ele>
        <time>2010-09-30T09:33:56Z</time>
      </trkpt>
      <trkpt lat="44.17634" lon="7.25157">
        <ele>2356.725258</ele>
        <time>2010-09-30T09:33:59Z</time>
      </trkpt>
      <trkpt lat="44.17639" lon="7.25155">
        <ele>2356.807862</ele>
        <time>2010-09-30T09:34:02Z</time>
      </trkpt>
      <trkpt lat="44.17644" lon="7.25154">
        <ele>2356.923196</ele>
        <time>2010-09-30T09:34:05Z</time>
      </trkpt>
      <trkpt lat="44.17649" lon="7.25153">
        <ele>2357.077888</ele>
        <time>2010-09-30T09:34:08Z</time>
      </trkpt>
      <trkpt lat="44.17653" lon="7.25152">
        <ele>2357.255655</ele>
        <time>2010-09-30T09:34:10Z</time>
      </trkpt>
      <trkpt lat="44.17658" lon="7.25151">
        <ele>2357.436389</ele>
        <time>2010-09-30T09:34:13Z</time>
      </trkpt>
      <trkpt lat="44.17663" lon="7.25148">
        <ele>2357.61103</ele>
        <time>2010-09-30T09:34:16Z</time>
      </trkpt>
      <trkpt lat="44.17668" lon="7.25146">
        <ele>2357.769605</ele>
        <time>2010-09-30T09:34:19Z</time>
      </trkpt>
      <trkpt lat="44.17672" lon="7.25144">
        <ele>2357.90404</ele>
        <time>2010-09-30T09:34:22Z</time>
      </trkpt>
      <trkpt lat="44.17677" lon="7.25143">
        <ele>2358.028215</ele>
        <time>2010-09-30T09:34:25Z</time>
      </trkpt>
      <trkpt lat="44.17682" lon="7.25143">
        <ele>2358.166401</ele>
        <time>2010-09-30T09:34:28Z</time>
      </trkpt>
      <trkpt lat="44.17687" lon="7.25141">
        <ele>2358.329373</ele>
        <time>2010-09-30T09:34:31Z</time>
      </trkpt>
      <trkpt lat="44.1769" lon="7.2514">
        <ele>2358.514824</ele>
        <time>2010-09-30T09:34:33Z</time>
      </trkpt>
      <trkpt lat="44.17693" lon="7.25138">
        <ele>2358.716095</ele>
        <time>2010-09-30T09:34:35Z</time>
      </trkpt>
      <trkpt lat="44.17698" lon="7.25135">
        <ele>2358.928947</ele>
        <time>2010-09-30T09:34:38Z</time>
      </trkpt>
      <trkpt lat="44.17702" lon="7.25133">
        <ele>2359.139355</ele>
        <time>2010-09-30T09:34:41Z</time>
      </trkpt>
      <trkpt lat="44.17705" lon="7.25132">
        <ele>2359.31866</ele>
        <time>2010-09-30T09:34:43Z</time>
      </trkpt>
      <trkpt lat="44.17707" lon="7.2513">
        <ele>2359.448636</ele>
        <time>2010-09-30T09:34:45Z</time>
      </trkpt>
      <trkpt lat="44.1771" lon="7.25128">
        <ele>2359.537938</ele>
        <time>2010-09-30T09:34:47Z</time>
      </trkpt>
      <trkpt lat="44.17713" lon="7.25127">
        <ele>2359.607335</ele>
        <time>2010-09-30T09:34:49Z</time>
      </trkpt>
      <trkpt lat="44.17717" lon="7.25124">
        <ele>2359.677346</ele>
        <time>2010-09-30T09:34:52Z</time>
      </trkpt>
      <trkpt lat="44.1772" lon="7.25122">
        <ele>2359.761256</ele>
        <time>2010-09-30T09:34:54Z</time>
      </trkpt>
      <trkpt lat="44.17723" lon="7.2512">
        <ele>2359.85677</ele>
        <time>2010-09-30T09:34:57Z</time>
      </trkpt>
      <trkpt lat="44.17727" lon="7.25118">
        <ele>2359.953014</ele>
        <time>2010-09-30T09:35:00Z</time>
      </trkpt>
      <trkpt lat="44.17731" lon="7.25117">
        <ele>2360.045033</ele>
        <time>2010-09-30T09:35:03Z</time>
      </trkpt>
      <trkpt lat="44.17734" lon="7.25115">
        <ele>2360.139771</ele>
        <time>2010-09-30T09:35:06Z</time>
      </trkpt>
      <trkpt lat="44.17737" lon="7.25113">
        <ele>2360.247979</ele>
        <time>2010-09-30T09:35:09Z</time>
      </trkpt>
      <trkpt lat="44.17741" lon="7.25109">
        <ele>2360.361854</ele>
        <time>2010-09-30T09:35:12Z</time>
      </trkpt>
      <trkpt lat="44.17744" lon="7.25106">
        <ele>2360.452533</ele>
        <time>2010-09-30T09:35:14Z</time>
      </trkpt>
      <trkpt lat="44.17748" lon="7.25103">
        <ele>2360.50087</ele>
        <time>2010-09-30T09:35:17Z</time>
      </trkpt>
      <trkpt lat="44.17752" lon="7.251">
        <ele>2360.528537</ele>
        <time>2010-09-30T09:35:20Z</time>
      </trkpt>
      <trkpt lat="44.17755" lon="7.25098">
        <ele>2360.574551</ele>
        <time>2010-09-30T09:35:22Z</time>
      </trkpt>
      <trkpt lat="44.17757" lon="7.25096">
        <ele>2360.651711</ele>
        <time>2010-09-30T09:35:24Z</time>
      </trkpt>
      <trkpt lat="44.17761" lon="7.25094">
        <ele>2360.754567</ele>
        <time>2010-09-30T09:35:27Z</time>
      </trkpt>
      <trkpt lat="44.17765" lon="7.25092">
        <ele>2360.877947</ele>
        <time>2010-09-30T09:35:30Z</time>
      </trkpt>
      <trkpt lat="44.17769" lon="7.25087">
        <ele>2361.012884</ele>
        <time>2010-09-30T09:35:33Z</time>
      </trkpt>
      <trkpt lat="44.17772" lon="7.25082">
        <ele>2361.163095</ele>
        <time>2010-09-30T09:35:36Z</time>
      </trkpt>
      <trkpt lat="44.17775" lon="7.25077">
        <ele>2361.344222</ele>
        <time>2010-09-30T09:35:39Z</time>
      </trkpt>
      <trkpt lat="44.17777" lon="7.25071">
        <ele>2361.587167</ele>
        <time>2010-09-30T09:35:42Z</time>
      </trkpt>
      <trkpt lat="44.17778" lon="7.25068">
        <ele>2361.937381</ele>
        <time>2010-09-30T09:35:44Z</time>
      </trkpt>
      <trkpt lat="44.17781" lon="7.25063">
        <ele>2362.411067</ele>
        <time>2010-09-30T09:35:47Z</time>
      </trkpt>
      <trkpt lat="44.17783" lon="7.2506">
        <ele>2362.984742</ele>
        <time>2010-09-30T09:35:50Z</time>
      </trkpt>
      <trkpt lat="44.17786" lon="7.25057">
        <ele>2363.601303</ele>
        <time>2010-09-30T09:35:53Z</time>
      </trkpt>
      <trkpt lat="44.17789" lon="7.25055">
        <ele>2364.214618</ele>
        <time>2010-09-30T09:35:56Z</time>
      </trkpt>
      <trkpt lat="44.17791" lon="7.25052">
        <ele>2364.841021</ele>
        <time>2010-09-30T09:35:59Z</time>
      </trkpt>
      <trkpt lat="44.17793" lon="7.2505">
        <ele>2365.512651</ele>
        <time>2010-09-30T09:36:02Z</time>
      </trkpt>
      <trkpt lat="44.17795" lon="7.25046">
        <ele>2366.218604</ele>
        <time>2010-09-30T09:36:05Z</time>
      </trkpt>
      <trkpt lat="44.17797" lon="7.25043">
        <ele>2366.93124</ele>
        <time>2010-09-30T09:36:08Z</time>
      </trkpt>
      <trkpt lat="44.17799" lon="7.2504">
        <ele>2367.620248</ele>
        <time>2010-09-30T09:36:11Z</time>
      </trkpt>
      <trkpt lat="44.17801" lon="7.25035">
        <ele>2368.253182</ele>
        <time>2010-09-30T09:36:14Z</time>
      </trkpt>
      <trkpt lat="44.17803" lon="7.25033">
        <ele>2368.80493</ele>
        <time>2010-09-30T09:36:16Z</time>
      </trkpt>
      <trkpt lat="44.17807" lon="7.25031">
        <ele>2369.2879</ele>
        <time>2010-09-30T09:36:19Z</time>
      </trkpt>
      <trkpt lat="44.17811" lon="7.25029">
        <ele>2369.73167</ele>
        <time>2010-09-30T09:36:22Z</time>
      </trkpt>
      <trkpt lat="44.17814" lon="7.25028">
        <ele>2370.125955</ele>
        <time>2010-09-30T09:36:24Z</time>
      </trkpt>
      <trkpt lat="44.17817" lon="7.25028">
        <ele>2370.451171</ele>
        <time>2010-09-30T09:36:26Z</time>
      </trkpt>
      <trkpt lat="44.17821" lon="7.25026">
        <ele>2370.731391</ele>
        <time>2010-09-30T09:36:29Z</time>
      </trkpt>
      <trkpt lat="44.17825" lon="7.25024">
        <ele>2370.98319</ele>
        <time>2010-09-30T09:36:32Z</time>
      </trkpt>
      <trkpt lat="44.17828" lon="7.25022">
        <ele>2371.184734</ele>
        <time>2010-09-30T09:36:34Z</time>
      </trkpt>
      <trkpt lat="44.17831" lon="7.2502">
        <ele>2371.330507</ele>
        <time>2010-09-30T09:36:36Z</time>
      </trkpt>
      <trkpt lat="44.17833" lon="7.25017">
        <ele>2371.436866</ele>
        <time>2010-09-30T09:36:38Z</time>
      </trkpt>
      <trkpt lat="44.17837" lon="7.25013">
        <ele>2371.51492</ele>
        <time>2010-09-30T09:36:41Z</time>
      </trkpt>
      <trkpt lat="44.17841" lon="7.2501">
        <ele>2371.576763</ele>
        <time>2010-09-30T09:36:44Z</time>
      </trkpt>
      <trkpt lat="44.17844" lon="7.25008">
        <ele>2371.641313</ele>
        <time>2010-09-30T09:36:46Z</time>
      </trkpt>
      <trkpt lat="44.17848" lon="7.25006">
        <ele>2371.729897</ele>
        <time>2010-09-30T09:36:49Z</time>
      </trkpt>
      <trkpt lat="44.1785" lon="7.25006">
        <ele>2371.848104</ele>
        <time>2010-09-30T09:36:51Z</time>
      </trkpt>
      <trkpt lat="44.17855" lon="7.25006">
        <ele>2371.96444</ele>
        <time>2010-09-30T09:36:54Z</time>
      </trkpt>
      <trkpt lat="44.17858" lon="7.25006">
        <ele>2372.039675</ele>
        <time>2010-09-30T09:36:56Z</time>
      </trkpt>
      <trkpt lat="44.17861" lon="7.25006">
        <ele>2372.068453</ele>
        <time>2010-09-30T09:36:58Z</time>
      </trkpt>
      <trkpt lat="44.17866" lon="7.25005">
        <ele>2372.079904</ele>
        <time>2010-09-30T09:37:01Z</time>
      </trkpt>
      <trkpt lat="44.17871" lon="7.25004">
        <ele>2372.107484</ele>
        <time>2010-09-30T09:37:04Z</time>
      </trkpt>
      <trkpt lat="44.17874" lon="7.25003">
        <ele>2372.157809</ele>
        <time>2010-09-30T09:37:06Z</time>
      </trkpt>
      <trkpt lat="44.17877" lon="7.25002">
        <ele>2372.220252</ele>
        <time>2010-09-30T09:37:08Z</time>
      </trkpt>
      <trkpt lat="44.17881" lon="7.24998">
        <ele>2372.289962</ele>
        <time>2010-09-30T09:37:11Z</time>
      </trkpt>
      <trkpt lat="44.17885" lon="7.24995">
        <ele>2372.362226</ele>
        <time>2010-09-30T09:37:14Z</time>
      </trkpt>
      <trkpt lat="44.17888" lon="7.24993">
        <ele>2372.435307</ele>
        <time>2010-09-30T09:37:16Z</time>
      </trkpt>
      <trkpt lat="44.17892" lon="7.24989">
        <ele>2372.526099</ele>
        <time>2010-09-30T09:37:19Z</time>
      </trkpt>
      <trkpt lat="44.17895" lon="7.24986">
        <ele>2372.655942</ele>
        <time>2010-09-30T09:37:21Z</time>
      </trkpt>
      <trkpt lat="44.17898" lon="7.24983">
        <ele>2372.819547</ele>
        <time>2010-09-30T09:37:24Z</time>
      </trkpt>
      <trkpt lat="44.17901" lon="7.24981">
        <ele>2373.013239</ele>
        <time>2010-09-30T09:37:26Z</time>
      </trkpt>
      <trkpt lat="44.17904" lon="7.24978">
        <ele>2373.247375</ele>
        <time>2010-09-30T09:37:28Z</time>
      </trkpt>
      <trkpt lat="44.17906" lon="7.24975">
        <ele>2373.52073</ele>
        <time>2010-09-30T09:37:30Z</time>
      </trkpt>
      <trkpt lat="44.1791" lon="7.24969">
        <ele>2373.807806</ele>
        <time>2010-09-30T09:37:33Z</time>
      </trkpt>
      <trkpt lat="44.17913" lon="7.24964">
        <ele>2374.072144</ele>
        <time>2010-09-30T09:37:36Z</time>
      </trkpt>
      <trkpt lat="44.17918" lon="7.2496">
        <ele>2374.321283</ele>
        <time>2010-09-30T09:37:39Z</time>
      </trkpt>
      <trkpt lat="44.17921" lon="7.24958">
        <ele>2374.653305</ele>
        <time>2010-09-30T09:37:41Z</time>
      </trkpt>
      <trkpt lat="44.17925" lon="7.24956">
        <ele>2375.150932</ele>
        <time>2010-09-30T09:37:44Z</time>
      </trkpt>
      <trkpt lat="44.17928" lon="7.24954">
        <ele>2375.77997</ele>
        <time>2010-09-30T09:37:46Z</time>
      </trkpt>
      <trkpt lat="44.17931" lon="7.24953">
        <ele>2376.4103</ele>
        <time>2010-09-30T09:37:48Z</time>
      </trkpt>
      <trkpt lat="44.17936" lon="7.24951">
        <ele>2376.9394</ele>
        <time>2010-09-30T09:37:51Z</time>
      </trkpt>
      <trkpt lat="44.17941" lon="7.24945">
        <ele>2377.347796</ele>
        <time>2010-09-30T09:37:54Z</time>
      </trkpt>
      <trkpt lat="44.17945" lon="7.24938">
        <ele>2377.650953</ele>
        <time>2010-09-30T09:37:57Z</time>
      </trkpt>
      <trkpt lat="44.17948" lon="7.24933">
        <ele>2377.884972</ele>
        <time>2010-09-30T09:38:00Z</time>
      </trkpt>
      <trkpt lat="44.17951" lon="7.2493">
        <ele>2378.158534</ele>
        <time>2010-09-30T09:38:02Z</time>
      </trkpt>
      <trkpt lat="44.17955" lon="7.24925">
        <ele>2378.603117</ele>
        <time>2010-09-30T09:38:05Z</time>
      </trkpt>
      <trkpt lat="44.17957" lon="7.24921">
        <ele>2379.258732</ele>
        <time>2010-09-30T09:38:07Z</time>
      </trkpt>
      <trkpt lat="44.17961" lon="7.24917">
        <ele>2380.01442</ele>
        <time>2010-09-30T09:38:10Z</time>
      </trkpt>
      <trkpt lat="44.17966" lon="7.24913">
        <ele>2380.756818</ele>
        <time>2010-09-30T09:38:13Z</time>
      </trkpt>
      <trkpt lat="44.17968" lon="7.24909">
        <ele>2381.46656</ele>
        <time>2010-09-30T09:38:15Z</time>
      </trkpt>
      <trkpt lat="44.17971" lon="7.24906">
        <ele>2382.175686</ele>
        <time>2010-09-30T09:38:17Z</time>
      </trkpt>
      <trkpt lat="44.17975" lon="7.24899">
        <ele>2382.929295</ele>
        <time>2010-09-30T09:38:20Z</time>
      </trkpt>
      <trkpt lat="44.17977" lon="7.24895">
        <ele>2383.713238</ele>
        <time>2010-09-30T09:38:22Z</time>
      </trkpt>
      <trkpt lat="44.1798" lon="7.24887">
        <ele>2384.438648</ele>
        <time>2010-09-30T09:38:24Z</time>
      </trkpt>
      <trkpt lat="44.17983" lon="7.24879">
        <ele>2385.101831</ele>
        <time>2010-09-30T09:38:26Z</time>
      </trkpt>
      <trkpt lat="44.17987" lon="7.24869">
        <ele>2385.742844</ele>
        <time>2010-09-30T09:38:29Z</time>
      </trkpt>
      <trkpt lat="44.17991" lon="7.2486">
        <ele>2386.344839</ele>
        <time>2010-09-30T09:38:32Z</time>
      </trkpt>
      <trkpt lat="44.17995" lon="7.24855">
        <ele>2386.894287</ele>
        <time>2010-09-30T09:38:34Z</time>
      </trkpt>
      <trkpt lat="44.17998" lon="7.24851">
        <ele>2387.43057</ele>
        <time>2010-09-30T09:38:36Z</time>
      </trkpt>
      <trkpt lat="44.18004" lon="7.24845">
        <ele>2387.980459</ele>
        <time>2010-09-30T09:38:39Z</time>
      </trkpt>
      <trkpt lat="44.18007" lon="7.24842">
        <ele>2388.495422</ele>
        <time>2010-09-30T09:38:41Z</time>
      </trkpt>
      <trkpt lat="44.18012" lon="7.24837">
        <ele>2388.894624</ele>
        <time>2010-09-30T09:38:44Z</time>
      </trkpt>
      <trkpt lat="44.18017" lon="7.24832">
        <ele>2389.182957</ele>
        <time>2010-09-30T09:38:47Z</time>
      </trkpt>
      <trkpt lat="44.18022" lon="7.24827">
        <ele>2389.420837</ele>
        <time>2010-09-30T09:38:50Z</time>
      </trkpt>
      <trkpt lat="44.18026" lon="7.24822">
        <ele>2389.656622</ele>
        <time>2010-09-30T09:38:53Z</time>
      </trkpt>
      <trkpt lat="44.18029" lon="7.24815">
        <ele>2389.935214</ele>
        <time>2010-09-30T09:38:56Z</time>
      </trkpt>
      <trkpt lat="44.18029" lon="7.2481">
        <ele>2390.287192</ele>
        <time>2010-09-30T09:38:59Z</time>
      </trkpt>
      <trkpt lat="44.18031" lon="7.24806">
        <ele>2390.697583</ele>
        <time>2010-09-30T09:39:02Z</time>
      </trkpt>
      <trkpt lat="44.18034" lon="7.24804">
        <ele>2391.122909</ele>
        <time>2010-09-30T09:39:04Z</time>
      </trkpt>
      <trkpt lat="44.18039" lon="7.24801">
        <ele>2391.51022</ele>
        <time>2010-09-30T09:39:07Z</time>
      </trkpt>
      <trkpt lat="44.18043" lon="7.24799">
        <ele>2391.82548</ele>
        <time>2010-09-30T09:39:09Z</time>
      </trkpt>
      <trkpt lat="44.18047" lon="7.24797">
        <ele>2392.061212</ele>
        <time>2010-09-30T09:39:11Z</time>
      </trkpt>
      <trkpt lat="44.18052" lon="7.24795">
        <ele>2392.209737</ele>
        <time>2010-09-30T09:39:14Z</time>
      </trkpt>
      <trkpt lat="44.18051" lon="7.2479">
        <ele>2392.269405</ele>
        <time>2010-09-30T09:39:21Z</time>
      </trkpt>
      <trkpt lat="44.18053" lon="7.24787">
        <ele>2392.271954</ele>
        <time>2010-09-30T09:39:24Z</time>
      </trkpt>
      <trkpt lat="44.18056" lon="7.24784">
        <ele>2392.250866</ele>
        <time>2010-09-30T09:39:27Z</time>
      </trkpt>
      <trkpt lat="44.18059" lon="7.2478">
        <ele>2392.217794</ele>
        <time>2010-09-30T09:39:30Z</time>
      </trkpt>
      <trkpt lat="44.18058" lon="7.24775">
        <ele>2392.158365</ele>
        <time>2010-09-30T09:39:32Z</time>
      </trkpt>
      <trkpt lat="44.18052" lon="7.24764">
        <ele>2392.066918</ele>
        <time>2010-09-30T09:39:35Z</time>
      </trkpt>
      <trkpt lat="44.18048" lon="7.24756">
        <ele>2391.980834</ele>
        <time>2010-09-30T09:39:37Z</time>
      </trkpt>
      <trkpt lat="44.18043" lon="7.24744">
        <ele>2391.936962</ele>
        <time>2010-09-30T09:39:40Z</time>
      </trkpt>
      <trkpt lat="44.1804" lon="7.24735">
        <ele>2391.928499</ele>
        <time>2010-09-30T09:39:42Z</time>
      </trkpt>
      <trkpt lat="44.18036" lon="7.24725">
        <ele>2391.959363</ele>
        <time>2010-09-30T09:39:45Z</time>
      </trkpt>
      <trkpt lat="44.18034" lon="7.24716">
        <ele>2392.064562</ele>
        <time>2010-09-30T09:39:48Z</time>
      </trkpt>
      <trkpt lat="44.18034" lon="7.24711">
        <ele>2392.242672</ele>
        <time>2010-09-30T09:39:50Z</time>
      </trkpt>
      <trkpt lat="44.18035" lon="7.24706">
        <ele>2392.444508</ele>
        <time>2010-09-30T09:39:53Z</time>
      </trkpt>
      <trkpt lat="44.18039" lon="7.24704">
        <ele>2392.631488</ele>
        <time>2010-09-30T09:39:56Z</time>
      </trkpt>
      <trkpt lat="44.18042" lon="7.24704">
        <ele>2392.784529</ele>
        <time>2010-09-30T09:39:58Z</time>
      </trkpt>
      <trkpt lat="44.18046" lon="7.24704">
        <ele>2392.921587</ele>
        <time>2010-09-30T09:40:00Z</time>
      </trkpt>
      <trkpt lat="44.1805" lon="7.24704">
        <ele>2393.104839</ele>
        <time>2010-09-30T09:40:02Z</time>
      </trkpt>
      <trkpt lat="44.18056" lon="7.24706">
        <ele>2393.355706</ele>
        <time>2010-09-30T09:40:05Z</time>
      </trkpt>
      <trkpt lat="44.18065" lon="7.24706">
        <ele>2393.62592</ele>
        <time>2010-09-30T09:40:08Z</time>
      </trkpt>
      <trkpt lat="44.18072" lon="7.24705">
        <ele>2393.867516</ele>
        <time>2010-09-30T09:40:11Z</time>
      </trkpt>
      <trkpt lat="44.18079" lon="7.24702">
        <ele>2394.077012</ele>
        <time>2010-09-30T09:40:14Z</time>
      </trkpt>
      <trkpt lat="44.18085" lon="7.24698">
        <ele>2394.273228</ele>
        <time>2010-09-30T09:40:17Z</time>
      </trkpt>
      <trkpt lat="44.18091" lon="7.24695">
        <ele>2394.463877</ele>
        <time>2010-09-30T09:40:20Z</time>
      </trkpt>
      <trkpt lat="44.18096" lon="7.24693">
        <ele>2394.631614</ele>
        <time>2010-09-30T09:40:22Z</time>
      </trkpt>
      <trkpt lat="44.181" lon="7.24694">
        <ele>2394.746416</ele>
        <time>2010-09-30T09:40:24Z</time>
      </trkpt>
      <trkpt lat="44.18106" lon="7.24699">
        <ele>2394.795408</ele>
        <time>2010-09-30T09:40:27Z</time>
      </trkpt>
      <trkpt lat="44.18109" lon="7.24706">
        <ele>2394.79954</ele>
        <time>2010-09-30T09:40:29Z</time>
      </trkpt>
      <trkpt lat="44.18112" lon="7.24713">
        <ele>2394.773439</ele>
        <time>2010-09-30T09:40:31Z</time>
      </trkpt>
      <trkpt lat="44.18114" lon="7.24722">
        <ele>2394.684275</ele>
        <time>2010-09-30T09:40:34Z</time>
      </trkpt>
      <trkpt lat="44.18115" lon="7.24728">
        <ele>2394.480187</ele>
        <time>2010-09-30T09:40:36Z</time>
      </trkpt>
      <trkpt lat="44.18118" lon="7.24732">
        <ele>2394.150457</ele>
        <time>2010-09-30T09:40:38Z</time>
      </trkpt>
      <trkpt lat="44.18121" lon="7.24731">
        <ele>2393.711743</ele>
        <time>2010-09-30T09:40:40Z</time>
      </trkpt>
      <trkpt lat="44.18125" lon="7.24725">
        <ele>2393.209473</ele>
        <time>2010-09-30T09:40:43Z</time>
      </trkpt>
      <trkpt lat="44.18127" lon="7.24719">
        <ele>2392.72104</ele>
        <time>2010-09-30T09:40:45Z</time>
      </trkpt>
      <trkpt lat="44.18128" lon="7.24709">
        <ele>2392.283001</ele>
        <time>2010-09-30T09:40:48Z</time>
      </trkpt>
      <trkpt lat="44.18131" lon="7.24701">
        <ele>2391.843825</ele>
        <time>2010-09-30T09:40:51Z</time>
      </trkpt>
      <trkpt lat="44.18134" lon="7.24698">
        <ele>2391.367881</ele>
        <time>2010-09-30T09:40:53Z</time>
      </trkpt>
      <trkpt lat="44.18138" lon="7.24699">
        <ele>2390.870077</ele>
        <time>2010-09-30T09:40:56Z</time>
      </trkpt>
      <trkpt lat="44.1814" lon="7.24704">
        <ele>2390.35922</ele>
        <time>2010-09-30T09:40:58Z</time>
      </trkpt>
      <trkpt lat="44.18143" lon="7.24715">
        <ele>2389.85668</ele>
        <time>2010-09-30T09:41:01Z</time>
      </trkpt>
      <trkpt lat="44.18144" lon="7.24724">
        <ele>2389.363092</ele>
        <time>2010-09-30T09:41:03Z</time>
      </trkpt>
      <trkpt lat="44.18145" lon="7.24734">
        <ele>2388.81597</ele>
        <time>2010-09-30T09:41:06Z</time>
      </trkpt>
      <trkpt lat="44.18146" lon="7.24739">
        <ele>2388.15478</ele>
        <time>2010-09-30T09:41:08Z</time>
      </trkpt>
      <trkpt lat="44.18147" lon="7.24745">
        <ele>2387.387337</ele>
        <time>2010-09-30T09:41:10Z</time>
      </trkpt>
      <trkpt lat="44.1815" lon="7.24749">
        <ele>2386.537878</ele>
        <time>2010-09-30T09:41:13Z</time>
      </trkpt>
      <trkpt lat="44.18154" lon="7.24753">
        <ele>2385.65417</ele>
        <time>2010-09-30T09:41:16Z</time>
      </trkpt>
      <trkpt lat="44.18157" lon="7.24756">
        <ele>2384.840818</ele>
        <time>2010-09-30T09:41:19Z</time>
      </trkpt>
      <trkpt lat="44.18162" lon="7.24758">
        <ele>2384.159209</ele>
        <time>2010-09-30T09:41:22Z</time>
      </trkpt>
      <trkpt lat="44.18166" lon="7.24757">
        <ele>2383.554047</ele>
        <time>2010-09-30T09:41:24Z</time>
      </trkpt>
      <trkpt lat="44.1817" lon="7.24755">
        <ele>2382.984527</ele>
        <time>2010-09-30T09:41:26Z</time>
      </trkpt>
      <trkpt lat="44.18175" lon="7.24753">
        <ele>2382.452003</ele>
        <time>2010-09-30T09:41:29Z</time>
      </trkpt>
      <trkpt lat="44.18181" lon="7.24753">
        <ele>2381.974288</ele>
        <time>2010-09-30T09:41:32Z</time>
      </trkpt>
      <trkpt lat="44.18188" lon="7.24753">
        <ele>2381.566293</ele>
        <time>2010-09-30T09:41:35Z</time>
      </trkpt>
      <trkpt lat="44.18192" lon="7.24752">
        <ele>2381.192267</ele>
        <time>2010-09-30T09:41:37Z</time>
      </trkpt>
      <trkpt lat="44.18196" lon="7.24747">
        <ele>2380.793284</ele>
        <time>2010-09-30T09:41:40Z</time>
      </trkpt>
      <trkpt lat="44.18198" lon="7.24739">
        <ele>2380.362758</ele>
        <time>2010-09-30T09:41:43Z</time>
      </trkpt>
      <trkpt lat="44.182" lon="7.24735">
        <ele>2379.952894</ele>
        <time>2010-09-30T09:41:45Z</time>
      </trkpt>
      <trkpt lat="44.18202" lon="7.24732">
        <ele>2379.611445</ele>
        <time>2010-09-30T09:41:48Z</time>
      </trkpt>
      <trkpt lat="44.18206" lon="7.24729">
        <ele>2379.341224</ele>
        <time>2010-09-30T09:41:51Z</time>
      </trkpt>
      <trkpt lat="44.18208" lon="7.24722">
        <ele>2379.109414</ele>
        <time>2010-09-30T09:41:54Z</time>
      </trkpt>
      <trkpt lat="44.18211" lon="7.24715">
        <ele>2378.842212</ele>
        <time>2010-09-30T09:41:57Z</time>
      </trkpt>
      <trkpt lat="44.18215" lon="7.2471">
        <ele>2378.433659</ele>
        <time>2010-09-30T09:42:00Z</time>
      </trkpt>
      <trkpt lat="44.18218" lon="7.24706">
        <ele>2377.844174</ele>
        <time>2010-09-30T09:42:02Z</time>
      </trkpt>
      <trkpt lat="44.1822" lon="7.24696">
        <ele>2377.139896</ele>
        <time>2010-09-30T09:42:05Z</time>
      </trkpt>
      <trkpt lat="44.18222" lon="7.2469">
        <ele>2376.390937</ele>
        <time>2010-09-30T09:42:07Z</time>
      </trkpt>
      <trkpt lat="44.18225" lon="7.24682">
        <ele>2375.628139</ele>
        <time>2010-09-30T09:42:10Z</time>
      </trkpt>
      <trkpt lat="44.18227" lon="7.24674">
        <ele>2374.835087</ele>
        <time>2010-09-30T09:42:13Z</time>
      </trkpt>
      <trkpt lat="44.18229" lon="7.24668">
        <ele>2374.003005</ele>
        <time>2010-09-30T09:42:15Z</time>
      </trkpt>
      <trkpt lat="44.18232" lon="7.24659">
        <ele>2373.157313</ele>
        <time>2010-09-30T09:42:18Z</time>
      </trkpt>
      <trkpt lat="44.18234" lon="7.24653">
        <ele>2372.292364</ele>
        <time>2010-09-30T09:42:20Z</time>
      </trkpt>
      <trkpt lat="44.18236" lon="7.24648">
        <ele>2371.417644</ele>
        <time>2010-09-30T09:42:22Z</time>
      </trkpt>
      <trkpt lat="44.18239" lon="7.24641">
        <ele>2370.566608</ele>
        <time>2010-09-30T09:42:25Z</time>
      </trkpt>
      <trkpt lat="44.18243" lon="7.24634">
        <ele>2369.732628</ele>
        <time>2010-09-30T09:42:28Z</time>
      </trkpt>
      <trkpt lat="44.18246" lon="7.24626">
        <ele>2368.935561</ele>
        <time>2010-09-30T09:42:31Z</time>
      </trkpt>
      <trkpt lat="44.18247" lon="7.2462">
        <ele>2368.152441</ele>
        <time>2010-09-30T09:42:33Z</time>
      </trkpt>
      <trkpt lat="44.1825" lon="7.24611">
        <ele>2367.276392</ele>
        <time>2010-09-30T09:42:36Z</time>
      </trkpt>
      <trkpt lat="44.18252" lon="7.24602">
        <ele>2366.272224</ele>
        <time>2010-09-30T09:42:39Z</time>
      </trkpt>
      <trkpt lat="44.18253" lon="7.24597">
        <ele>2365.243593</ele>
        <time>2010-09-30T09:42:41Z</time>
      </trkpt>
      <trkpt lat="44.18255" lon="7.24591">
        <ele>2364.280941</ele>
        <time>2010-09-30T09:42:43Z</time>
      </trkpt>
      <trkpt lat="44.18258" lon="7.24582">
        <ele>2363.34307</ele>
        <time>2010-09-30T09:42:46Z</time>
      </trkpt>
      <trkpt lat="44.18261" lon="7.24574">
        <ele>2362.404724</ele>
        <time>2010-09-30T09:42:49Z</time>
      </trkpt>
      <trkpt lat="44.18264" lon="7.24569">
        <ele>2361.540002</ele>
        <time>2010-09-30T09:42:51Z</time>
      </trkpt>
      <trkpt lat="44.18268" lon="7.24562">
        <ele>2360.72145</ele>
        <time>2010-09-30T09:42:54Z</time>
      </trkpt>
      <trkpt lat="44.18273" lon="7.24554">
        <ele>2359.817234</ele>
        <time>2010-09-30T09:42:57Z</time>
      </trkpt>
      <trkpt lat="44.18277" lon="7.24545">
        <ele>2358.836297</ele>
        <time>2010-09-30T09:43:00Z</time>
      </trkpt>
      <trkpt lat="44.1828" lon="7.24538">
        <ele>2357.877599</ele>
        <time>2010-09-30T09:43:02Z</time>
      </trkpt>
      <trkpt lat="44.18282" lon="7.24532">
        <ele>2356.927639</ele>
        <time>2010-09-30T09:43:04Z</time>
      </trkpt>
      <trkpt lat="44.18287" lon="7.24521">
        <ele>2355.939245</ele>
        <time>2010-09-30T09:43:07Z</time>
      </trkpt>
      <trkpt lat="44.18289" lon="7.24514">
        <ele>2354.97682</ele>
        <time>2010-09-30T09:43:09Z</time>
      </trkpt>
      <trkpt lat="44.18294" lon="7.24505">
        <ele>2354.133642</ele>
        <time>2010-09-30T09:43:12Z</time>
      </trkpt>
      <trkpt lat="44.18296" lon="7.24498">
        <ele>2353.360515</ele>
        <time>2010-09-30T09:43:14Z</time>
      </trkpt>
      <trkpt lat="44.183" lon="7.24488">
        <ele>2352.543075</ele>
        <time>2010-09-30T09:43:17Z</time>
      </trkpt>
      <trkpt lat="44.18302" lon="7.2448">
        <ele>2351.646465</ele>
        <time>2010-09-30T09:43:20Z</time>
      </trkpt>
      <trkpt lat="44.18302" lon="7.24474">
        <ele>2350.712209</ele>
        <time>2010-09-30T09:43:22Z</time>
      </trkpt>
      <trkpt lat="44.18302" lon="7.24464">
        <ele>2349.803409</ele>
        <time>2010-09-30T09:43:25Z</time>
      </trkpt>
      <trkpt lat="44.18302" lon="7.24457">
        <ele>2348.997628</ele>
        <time>2010-09-30T09:43:27Z</time>
      </trkpt>
      <trkpt lat="44.18302" lon="7.24451">
        <ele>2348.388904</ele>
        <time>2010-09-30T09:43:29Z</time>
      </trkpt>
      <trkpt lat="44.18304" lon="7.24441">
        <ele>2347.994848</ele>
        <time>2010-09-30T09:43:32Z</time>
      </trkpt>
      <trkpt lat="44.18306" lon="7.24434">
        <ele>2347.696819</ele>
        <time>2010-09-30T09:43:35Z</time>
      </trkpt>
      <trkpt lat="44.18308" lon="7.24431">
        <ele>2347.405551</ele>
        <time>2010-09-30T09:43:37Z</time>
      </trkpt>
      <trkpt lat="44.18309" lon="7.24427">
        <ele>2347.087552</ele>
        <time>2010-09-30T09:43:39Z</time>
      </trkpt>
      <trkpt lat="44.18311" lon="7.24422">
        <ele>2346.709939</ele>
        <time>2010-09-30T09:43:42Z</time>
      </trkpt>
      <trkpt lat="44.18312" lon="7.24417">
        <ele>2346.289511</ele>
        <time>2010-09-30T09:43:45Z</time>
      </trkpt>
      <trkpt lat="44.18313" lon="7.24413">
        <ele>2345.867478</ele>
        <time>2010-09-30T09:43:48Z</time>
      </trkpt>
      <trkpt lat="44.18313" lon="7.24413">
        <ele>2345.38393</ele>
        <time>2010-09-30T09:43:50Z</time>
      </trkpt>
      <trkpt lat="44.18313" lon="7.24413">
        <ele>2344.716819</ele>
        <time>2010-09-30T09:44:14Z</time>
      </trkpt>
      <trkpt lat="44.18313" lon="7.24413">
        <ele>2343.944053</ele>
        <time>2010-09-30T09:50:23Z</time>
      </trkpt>
      <trkpt lat="44.18313" lon="7.24413">
        <ele>2343.281637</ele>
        <time>2010-09-30T09:50:24Z</time>
      </trkpt>
      <trkpt lat="44.1834" lon="7.24415">
        <ele>2342.815068</ele>
        <time>2010-09-30T09:51:04Z</time>
      </trkpt>
      <trkpt lat="44.18344" lon="7.24418">
        <ele>2342.471112</ele>
        <time>2010-09-30T09:51:07Z</time>
      </trkpt>
      <trkpt lat="44.18347" lon="7.2442">
        <ele>2342.090707</ele>
        <time>2010-09-30T09:51:09Z</time>
      </trkpt>
      <trkpt lat="44.18351" lon="7.24422">
        <ele>2339.349749</ele>
        <time>2010-09-30T09:51:12Z</time>
      </trkpt>
      <trkpt lat="44.18353" lon="7.24423">
        <ele>2333.029726</ele>
        <time>2010-09-30T09:51:14Z</time>
      </trkpt>
      <trkpt lat="44.18357" lon="7.24424">
        <ele>2326.721681</ele>
        <time>2010-09-30T09:51:17Z</time>
      </trkpt>
      <trkpt lat="44.18361" lon="7.24424">
        <ele>2323.719855</ele>
        <time>2010-09-30T09:51:20Z</time>
      </trkpt>
      <trkpt lat="44.18364" lon="7.24424">
        <ele>2323.203009</ele>
        <time>2010-09-30T09:51:23Z</time>
      </trkpt>
      <trkpt lat="44.18368" lon="7.24422">
        <ele>2323.60987</ele>
        <time>2010-09-30T09:51:26Z</time>
      </trkpt>
      <trkpt lat="44.18371" lon="7.2442">
        <ele>2323.99486</ele>
        <time>2010-09-30T09:51:29Z</time>
      </trkpt>
      <trkpt lat="44.18372" lon="7.24417">
        <ele>2324.096861</ele>
        <time>2010-09-30T09:51:31Z</time>
      </trkpt>
      <trkpt lat="44.18374" lon="7.24412">
        <ele>2324.001447</ele>
        <time>2010-09-30T09:51:34Z</time>
      </trkpt>
      <trkpt lat="44.18376" lon="7.24406">
        <ele>2323.84675</ele>
        <time>2010-09-30T09:51:37Z</time>
      </trkpt>
      <trkpt lat="44.18377" lon="7.24401">
        <ele>2323.712039</ele>
        <time>2010-09-30T09:51:39Z</time>
      </trkpt>
      <trkpt lat="44.18378" lon="7.24396">
        <ele>2323.613911</ele>
        <time>2010-09-30T09:51:42Z</time>
      </trkpt>
      <trkpt lat="44.18379" lon="7.24392">
        <ele>2323.531381</ele>
        <time>2010-09-30T09:51:44Z</time>
      </trkpt>
      <trkpt lat="44.1838" lon="7.24388">
        <ele>2323.44416</ele>
        <time>2010-09-30T09:51:46Z</time>
      </trkpt>
      <trkpt lat="44.1838" lon="7.24382">
        <ele>2323.34805</ele>
        <time>2010-09-30T09:51:49Z</time>
      </trkpt>
      <trkpt lat="44.18381" lon="7.24376">
        <ele>2323.247737</ele>
        <time>2010-09-30T09:51:52Z</time>
      </trkpt>
      <trkpt lat="44.18381" lon="7.24372">
        <ele>2323.153958</ele>
        <time>2010-09-30T09:51:54Z</time>
      </trkpt>
      <trkpt lat="44.1838" lon="7.24366">
        <ele>2323.069671</ele>
        <time>2010-09-30T09:51:57Z</time>
      </trkpt>
      <trkpt lat="44.18379" lon="7.24362">
        <ele>2322.985302</ele>
        <time>2010-09-30T09:51:59Z</time>
      </trkpt>
      <trkpt lat="44.18379" lon="7.24356">
        <ele>2322.901847</ele>
        <time>2010-09-30T09:52:02Z</time>
      </trkpt>
      <trkpt lat="44.18377" lon="7.24351">
        <ele>2322.827204</ele>
        <time>2010-09-30T09:52:05Z</time>
      </trkpt>
      <trkpt lat="44.18376" lon="7.24345">
        <ele>2322.759514</ele>
        <time>2010-09-30T09:52:08Z</time>
      </trkpt>
      <trkpt lat="44.18374" lon="7.24341">
        <ele>2322.686336</ele>
        <time>2010-09-30T09:52:11Z</time>
      </trkpt>
      <trkpt lat="44.18371" lon="7.24337">
        <ele>2322.592043</ele>
        <time>2010-09-30T09:52:14Z</time>
      </trkpt>
      <trkpt lat="44.18368" lon="7.24334">
        <ele>2322.469301</ele>
        <time>2010-09-30T09:52:17Z</time>
      </trkpt>
      <trkpt lat="44.18365" lon="7.24332">
        <ele>2322.324969</ele>
        <time>2010-09-30T09:52:19Z</time>
      </trkpt>
      <trkpt lat="44.18363" lon="7.24327">
        <ele>2322.166437</ele>
        <time>2010-09-30T09:52:22Z</time>
      </trkpt>
      <trkpt lat="44.1836" lon="7.24322">
        <ele>2321.996645</ele>
        <time>2010-09-30T09:52:25Z</time>
      </trkpt>
      <trkpt lat="44.18358" lon="7.24319">
        <ele>2321.827444</ele>
        <time>2010-09-30T09:52:27Z</time>
      </trkpt>
      <trkpt lat="44.18356" lon="7.24313">
        <ele>2321.667917</ele>
        <time>2010-09-30T09:52:30Z</time>
      </trkpt>
      <trkpt lat="44.18355" lon="7.24306">
        <ele>2321.508885</ele>
        <time>2010-09-30T09:52:33Z</time>
      </trkpt>
      <trkpt lat="44.18355" lon="7.24302">
        <ele>2321.349828</ele>
        <time>2010-09-30T09:52:35Z</time>
      </trkpt>
      <trkpt lat="44.18355" lon="7.24297">
        <ele>2321.199206</ele>
        <time>2010-09-30T09:52:37Z</time>
      </trkpt>
      <trkpt lat="44.18356" lon="7.2429">
        <ele>2321.043794</ele>
        <time>2010-09-30T09:52:40Z</time>
      </trkpt>
      <trkpt lat="44.18356" lon="7.24286">
        <ele>2320.86684</ele>
        <time>2010-09-30T09:52:42Z</time>
      </trkpt>
      <trkpt lat="44.18358" lon="7.24283">
        <ele>2320.668038</ele>
        <time>2010-09-30T09:52:44Z</time>
      </trkpt>
      <trkpt lat="44.18359" lon="7.24277">
        <ele>2320.426952</ele>
        <time>2010-09-30T09:52:47Z</time>
      </trkpt>
      <trkpt lat="44.1836" lon="7.24273">
        <ele>2320.121226</ele>
        <time>2010-09-30T09:52:49Z</time>
      </trkpt>
      <trkpt lat="44.1836" lon="7.24269">
        <ele>2319.772388</ele>
        <time>2010-09-30T09:52:51Z</time>
      </trkpt>
      <trkpt lat="44.18359" lon="7.24265">
        <ele>2319.380212</ele>
        <time>2010-09-30T09:52:53Z</time>
      </trkpt>
      <trkpt lat="44.18357" lon="7.2426">
        <ele>2318.91986</ele>
        <time>2010-09-30T09:52:56Z</time>
      </trkpt>
      <trkpt lat="44.18355" lon="7.24256">
        <ele>2318.424247</ele>
        <time>2010-09-30T09:52:59Z</time>
      </trkpt>
      <trkpt lat="44.18355" lon="7.24251">
        <ele>2317.943844</ele>
        <time>2010-09-30T09:53:02Z</time>
      </trkpt>
      <trkpt lat="44.18356" lon="7.24246">
        <ele>2317.460118</ele>
        <time>2010-09-30T09:53:05Z</time>
      </trkpt>
      <trkpt lat="44.18358" lon="7.24241">
        <ele>2316.922017</ele>
        <time>2010-09-30T09:53:08Z</time>
      </trkpt>
      <trkpt lat="44.1836" lon="7.24237">
        <ele>2316.321599</ele>
        <time>2010-09-30T09:53:11Z</time>
      </trkpt>
      <trkpt lat="44.18362" lon="7.24234">
        <ele>2315.696392</ele>
        <time>2010-09-30T09:53:13Z</time>
      </trkpt>
      <trkpt lat="44.18364" lon="7.24228">
        <ele>2315.074081</ele>
        <time>2010-09-30T09:53:16Z</time>
      </trkpt>
      <trkpt lat="44.18367" lon="7.24223">
        <ele>2314.461227</ele>
        <time>2010-09-30T09:53:19Z</time>
      </trkpt>
      <trkpt lat="44.18369" lon="7.24217">
        <ele>2313.882382</ele>
        <time>2010-09-30T09:53:22Z</time>
      </trkpt>
      <trkpt lat="44.18371" lon="7.24214">
        <ele>2313.351698</ele>
        <time>2010-09-30T09:53:24Z</time>
      </trkpt>
      <trkpt lat="44.18374" lon="7.24208">
        <ele>2312.828927</ele>
        <time>2010-09-30T09:53:27Z</time>
      </trkpt>
      <trkpt lat="44.18376" lon="7.24205">
        <ele>2312.280545</ele>
        <time>2010-09-30T09:53:29Z</time>
      </trkpt>
      <trkpt lat="44.18378" lon="7.24201">
        <ele>2311.74714</ele>
        <time>2010-09-30T09:53:31Z</time>
      </trkpt>
      <trkpt lat="44.1838" lon="7.24195">
        <ele>2311.259606</ele>
        <time>2010-09-30T09:53:34Z</time>
      </trkpt>
      <trkpt lat="44.18382" lon="7.2419">
        <ele>2310.804907</ele>
        <time>2010-09-30T09:53:37Z</time>
      </trkpt>
      <trkpt lat="44.18384" lon="7.24187">
        <ele>2310.381783</ele>
        <time>2010-09-30T09:53:40Z</time>
      </trkpt>
      <trkpt lat="44.18387" lon="7.24183">
        <ele>2309.970331</ele>
        <time>2010-09-30T09:53:43Z</time>
      </trkpt>
      <trkpt lat="44.1839" lon="7.24179">
        <ele>2309.508024</ele>
        <time>2010-09-30T09:53:46Z</time>
      </trkpt>
      <trkpt lat="44.18393" lon="7.24175">
        <ele>2308.979564</ele>
        <time>2010-09-30T09:53:49Z</time>
      </trkpt>
      <trkpt lat="44.18397" lon="7.24171">
        <ele>2308.416384</ele>
        <time>2010-09-30T09:53:52Z</time>
      </trkpt>
      <trkpt lat="44.18401" lon="7.24168">
        <ele>2307.841365</ele>
        <time>2010-09-30T09:53:55Z</time>
      </trkpt>
      <trkpt lat="44.18405" lon="7.24167">
        <ele>2307.262152</ele>
        <time>2010-09-30T09:53:58Z</time>
      </trkpt>
      <trkpt lat="44.18407" lon="7.24164">
        <ele>2306.681069</ele>
        <time>2010-09-30T09:54:02Z</time>
      </trkpt>
      <trkpt lat="44.18409" lon="7.24159">
        <ele>2306.104352</ele>
        <time>2010-09-30T09:54:05Z</time>
      </trkpt>
      <trkpt lat="44.18411" lon="7.24154">
        <ele>2305.540211</ele>
        <time>2010-09-30T09:54:08Z</time>
      </trkpt>
      <trkpt lat="44.18414" lon="7.24148">
        <ele>2304.964866</ele>
        <time>2010-09-30T09:54:11Z</time>
      </trkpt>
      <trkpt lat="44.18416" lon="7.24145">
        <ele>2304.357028</ele>
        <time>2010-09-30T09:54:13Z</time>
      </trkpt>
      <trkpt lat="44.18419" lon="7.2414">
        <ele>2303.752484</ele>
        <time>2010-09-30T09:54:16Z</time>
      </trkpt>
      <trkpt lat="44.18422" lon="7.24137">
        <ele>2303.200223</ele>
        <time>2010-09-30T09:54:18Z</time>
      </trkpt>
      <trkpt lat="44.18425" lon="7.24132">
        <ele>2302.730856</ele>
        <time>2010-09-30T09:54:21Z</time>
      </trkpt>
      <trkpt lat="44.18425" lon="7.24127">
        <ele>2302.343742</ele>
        <time>2010-09-30T09:54:24Z</time>
      </trkpt>
      <trkpt lat="44.18422" lon="7.24123">
        <ele>2302.003904</ele>
        <time>2010-09-30T09:54:27Z</time>
      </trkpt>
      <trkpt lat="44.18419" lon="7.24122">
        <ele>2301.678841</ele>
        <time>2010-09-30T09:54:29Z</time>
      </trkpt>
      <trkpt lat="44.18414" lon="7.24123">
        <ele>2301.345062</ele>
        <time>2010-09-30T09:54:32Z</time>
      </trkpt>
      <trkpt lat="44.18409" lon="7.24127">
        <ele>2300.989742</ele>
        <time>2010-09-30T09:54:35Z</time>
      </trkpt>
      <trkpt lat="44.18408" lon="7.24123">
        <ele>2300.642344</ele>
        <time>2010-09-30T09:54:41Z</time>
      </trkpt>
      <trkpt lat="44.18412" lon="7.24118">
        <ele>2300.322401</ele>
        <time>2010-09-30T09:54:44Z</time>
      </trkpt>
      <trkpt lat="44.18417" lon="7.24115">
        <ele>2299.997182</ele>
        <time>2010-09-30T09:54:47Z</time>
      </trkpt>
      <trkpt lat="44.18421" lon="7.24114">
        <ele>2299.521655</ele>
        <time>2010-09-30T09:54:49Z</time>
      </trkpt>
      <trkpt lat="44.18427" lon="7.24112">
        <ele>2298.788177</ele>
        <time>2010-09-30T09:54:52Z</time>
      </trkpt>
      <trkpt lat="44.18432" lon="7.24109">
        <ele>2297.900449</ele>
        <time>2010-09-30T09:54:55Z</time>
      </trkpt>
      <trkpt lat="44.18435" lon="7.24106">
        <ele>2297.055554</ele>
        <time>2010-09-30T09:54:57Z</time>
      </trkpt>
      <trkpt lat="44.18439" lon="7.24104">
        <ele>2296.3141</ele>
        <time>2010-09-30T09:55:00Z</time>
      </trkpt>
      <trkpt lat="44.18444" lon="7.24106">
        <ele>2295.609779</ele>
        <time>2010-09-30T09:55:03Z</time>
      </trkpt>
      <trkpt lat="44.18447" lon="7.24106">
        <ele>2294.905398</ele>
        <time>2010-09-30T09:55:06Z</time>
      </trkpt>
      <trkpt lat="44.18447" lon="7.24101">
        <ele>2294.222779</ele>
        <time>2010-09-30T09:55:09Z</time>
      </trkpt>
      <trkpt lat="44.18443" lon="7.24096">
        <ele>2293.521323</ele>
        <time>2010-09-30T09:55:12Z</time>
      </trkpt>
      <trkpt lat="44.1844" lon="7.24094">
        <ele>2292.758348</ele>
        <time>2010-09-30T09:55:14Z</time>
      </trkpt>
      <trkpt lat="44.18436" lon="7.24094">
        <ele>2291.967716</ele>
        <time>2010-09-30T09:55:16Z</time>
      </trkpt>
      <trkpt lat="44.18429" lon="7.24094">
        <ele>2291.207372</ele>
        <time>2010-09-30T09:55:19Z</time>
      </trkpt>
      <trkpt lat="44.18424" lon="7.24094">
        <ele>2290.541478</ele>
        <time>2010-09-30T09:55:22Z</time>
      </trkpt>
      <trkpt lat="44.18421" lon="7.24091">
        <ele>2290.014609</ele>
        <time>2010-09-30T09:55:25Z</time>
      </trkpt>
      <trkpt lat="44.18423" lon="7.24088">
        <ele>2289.581557</ele>
        <time>2010-09-30T09:55:28Z</time>
      </trkpt>
      <trkpt lat="44.18425" lon="7.24085">
        <ele>2289.146777</ele>
        <time>2010-09-30T09:55:30Z</time>
      </trkpt>
      <trkpt lat="44.18429" lon="7.24081">
        <ele>2288.673461</ele>
        <time>2010-09-30T09:55:33Z</time>
      </trkpt>
      <trkpt lat="44.18432" lon="7.24078">
        <ele>2288.170694</ele>
        <time>2010-09-30T09:55:35Z</time>
      </trkpt>
      <trkpt lat="44.18435" lon="7.24075">
        <ele>2287.660981</ele>
        <time>2010-09-30T09:55:38Z</time>
      </trkpt>
      <trkpt lat="44.18438" lon="7.24073">
        <ele>2287.147076</ele>
        <time>2010-09-30T09:55:40Z</time>
      </trkpt>
      <trkpt lat="44.1844" lon="7.2407">
        <ele>2286.620409</ele>
        <time>2010-09-30T09:55:42Z</time>
      </trkpt>
      <trkpt lat="44.18442" lon="7.24066">
        <ele>2286.082031</ele>
        <time>2010-09-30T09:55:44Z</time>
      </trkpt>
      <trkpt lat="44.18446" lon="7.24061">
        <ele>2285.540059</ele>
        <time>2010-09-30T09:55:47Z</time>
      </trkpt>
      <trkpt lat="44.1845" lon="7.24058">
        <ele>2285.010173</ele>
        <time>2010-09-30T09:55:50Z</time>
      </trkpt>
      <trkpt lat="44.18453" lon="7.24055">
        <ele>2284.505013</ele>
        <time>2010-09-30T09:55:53Z</time>
      </trkpt>
      <trkpt lat="44.18455" lon="7.24052">
        <ele>2283.970274</ele>
        <time>2010-09-30T09:55:56Z</time>
      </trkpt>
      <trkpt lat="44.18455" lon="7.24052">
        <ele>2283.329281</ele>
        <time>2010-09-30T09:55:58Z</time>
      </trkpt>
      <trkpt lat="44.18459" lon="7.24052">
        <ele>2282.559146</ele>
        <time>2010-09-30T09:55:59Z</time>
      </trkpt>
      <trkpt lat="44.18464" lon="7.24053">
        <ele>2281.820238</ele>
        <time>2010-09-30T09:56:02Z</time>
      </trkpt>
      <trkpt lat="44.18467" lon="7.24055">
        <ele>2281.228617</ele>
        <time>2010-09-30T09:56:05Z</time>
      </trkpt>
      <trkpt lat="44.1847" lon="7.2406">
        <ele>2280.607848</ele>
        <time>2010-09-30T09:56:08Z</time>
      </trkpt>
      <trkpt lat="44.18473" lon="7.24062">
        <ele>2279.756693</ele>
        <time>2010-09-30T09:56:11Z</time>
      </trkpt>
      <trkpt lat="44.18475" lon="7.2406">
        <ele>2278.694963</ele>
        <time>2010-09-30T09:56:15Z</time>
      </trkpt>
      <trkpt lat="44.18474" lon="7.24055">
        <ele>2277.50879</ele>
        <time>2010-09-30T09:56:18Z</time>
      </trkpt>
      <trkpt lat="44.18472" lon="7.24049">
        <ele>2276.278472</ele>
        <time>2010-09-30T09:56:21Z</time>
      </trkpt>
      <trkpt lat="44.18472" lon="7.24045">
        <ele>2275.004541</ele>
        <time>2010-09-30T09:56:23Z</time>
      </trkpt>
      <trkpt lat="44.18475" lon="7.2404">
        <ele>2273.686865</ele>
        <time>2010-09-30T09:56:26Z</time>
      </trkpt>
      <trkpt lat="44.18477" lon="7.24036">
        <ele>2272.431959</ele>
        <time>2010-09-30T09:56:28Z</time>
      </trkpt>
      <trkpt lat="44.18479" lon="7.24033">
        <ele>2271.377484</ele>
        <time>2010-09-30T09:56:30Z</time>
      </trkpt>
      <trkpt lat="44.18482" lon="7.24031">
        <ele>2270.534017</ele>
        <time>2010-09-30T09:56:32Z</time>
      </trkpt>
      <trkpt lat="44.18484" lon="7.24028">
        <ele>2269.829384</ele>
        <time>2010-09-30T09:56:34Z</time>
      </trkpt>
      <trkpt lat="44.18487" lon="7.24025">
        <ele>2269.221611</ele>
        <time>2010-09-30T09:56:37Z</time>
      </trkpt>
      <trkpt lat="44.1849" lon="7.24021">
        <ele>2268.702893</ele>
        <time>2010-09-30T09:56:40Z</time>
      </trkpt>
      <trkpt lat="44.18493" lon="7.24017">
        <ele>2268.241981</ele>
        <time>2010-09-30T09:56:43Z</time>
      </trkpt>
      <trkpt lat="44.18497" lon="7.24014">
        <ele>2267.791471</ele>
        <time>2010-09-30T09:56:46Z</time>
      </trkpt>
      <trkpt lat="44.18499" lon="7.24012">
        <ele>2267.301686</ele>
        <time>2010-09-30T09:56:48Z</time>
      </trkpt>
      <trkpt lat="44.18501" lon="7.2401">
        <ele>2266.779672</ele>
        <time>2010-09-30T09:56:50Z</time>
      </trkpt>
      <trkpt lat="44.18506" lon="7.24005">
        <ele>2266.279429</ele>
        <time>2010-09-30T09:56:53Z</time>
      </trkpt>
      <trkpt lat="44.1851" lon="7.24002">
        <ele>2265.851262</ele>
        <time>2010-09-30T09:56:56Z</time>
      </trkpt>
      <trkpt lat="44.18514" lon="7.23999">
        <ele>2265.521572</ele>
        <time>2010-09-30T09:56:59Z</time>
      </trkpt>
      <trkpt lat="44.18517" lon="7.23997">
        <ele>2265.262969</ele>
        <time>2010-09-30T09:57:01Z</time>
      </trkpt>
      <trkpt lat="44.18519" lon="7.23993">
        <ele>2265.008004</ele>
        <time>2010-09-30T09:57:04Z</time>
      </trkpt>
      <trkpt lat="44.18522" lon="7.23988">
        <ele>2264.69667</ele>
        <time>2010-09-30T09:57:07Z</time>
      </trkpt>
      <trkpt lat="44.18523" lon="7.23985">
        <ele>2264.324998</ele>
        <time>2010-09-30T09:57:09Z</time>
      </trkpt>
      <trkpt lat="44.18525" lon="7.2398">
        <ele>2263.919143</ele>
        <time>2010-09-30T09:57:12Z</time>
      </trkpt>
      <trkpt lat="44.18527" lon="7.23974">
        <ele>2263.470998</ele>
        <time>2010-09-30T09:57:15Z</time>
      </trkpt>
      <trkpt lat="44.18529" lon="7.2397">
        <ele>2262.976873</ele>
        <time>2010-09-30T09:57:17Z</time>
      </trkpt>
      <trkpt lat="44.18532" lon="7.23965">
        <ele>2262.444563</ele>
        <time>2010-09-30T09:57:20Z</time>
      </trkpt>
      <trkpt lat="44.18535" lon="7.23961">
        <ele>2261.847299</ele>
        <time>2010-09-30T09:57:23Z</time>
      </trkpt>
      <trkpt lat="44.18537" lon="7.23959">
        <ele>2261.209868</ele>
        <time>2010-09-30T09:57:25Z</time>
      </trkpt>
      <trkpt lat="44.18538" lon="7.23955">
        <ele>2260.591365</ele>
        <time>2010-09-30T09:57:33Z</time>
      </trkpt>
      <trkpt lat="44.18539" lon="7.23951">
        <ele>2259.980211</ele>
        <time>2010-09-30T09:57:35Z</time>
      </trkpt>
      <trkpt lat="44.18543" lon="7.23948">
        <ele>2259.366547</ele>
        <time>2010-09-30T09:57:38Z</time>
      </trkpt>
      <trkpt lat="44.18547" lon="7.23948">
        <ele>2258.533559</ele>
        <time>2010-09-30T09:57:41Z</time>
      </trkpt>
      <trkpt lat="44.18544" lon="7.23945">
        <ele>2257.32784</ele>
        <time>2010-09-30T09:57:48Z</time>
      </trkpt>
      <trkpt lat="44.18541" lon="7.23943">
        <ele>2256.06009</ele>
        <time>2010-09-30T09:57:50Z</time>
      </trkpt>
      <trkpt lat="44.1854" lon="7.23938">
        <ele>2255.01736</ele>
        <time>2010-09-30T09:57:53Z</time>
      </trkpt>
      <trkpt lat="44.18543" lon="7.23933">
        <ele>2254.018767</ele>
        <time>2010-09-30T09:57:56Z</time>
      </trkpt>
      <trkpt lat="44.18548" lon="7.2393">
        <ele>2252.968246</ele>
        <time>2010-09-30T09:57:59Z</time>
      </trkpt>
      <trkpt lat="44.18552" lon="7.23928">
        <ele>2252.045845</ele>
        <time>2010-09-30T09:58:01Z</time>
      </trkpt>
      <trkpt lat="44.18554" lon="7.23926">
        <ele>2251.372847</ele>
        <time>2010-09-30T09:58:03Z</time>
      </trkpt>
      <trkpt lat="44.18558" lon="7.23924">
        <ele>2250.856901</ele>
        <time>2010-09-30T09:58:06Z</time>
      </trkpt>
      <trkpt lat="44.18562" lon="7.2392">
        <ele>2250.421671</ele>
        <time>2010-09-30T09:58:09Z</time>
      </trkpt>
      <trkpt lat="44.18566" lon="7.23917">
        <ele>2250.003918</ele>
        <time>2010-09-30T09:58:12Z</time>
      </trkpt>
      <trkpt lat="44.18569" lon="7.23915">
        <ele>2249.484394</ele>
        <time>2010-09-30T09:58:14Z</time>
      </trkpt>
      <trkpt lat="44.18572" lon="7.23913">
        <ele>2248.775312</ele>
        <time>2010-09-30T09:58:17Z</time>
      </trkpt>
      <trkpt lat="44.18575" lon="7.23911">
        <ele>2247.947736</ele>
        <time>2010-09-30T09:58:19Z</time>
      </trkpt>
      <trkpt lat="44.18577" lon="7.23908">
        <ele>2247.166777</ele>
        <time>2010-09-30T09:58:22Z</time>
      </trkpt>
      <trkpt lat="44.18579" lon="7.23904">
        <ele>2246.51479</ele>
        <time>2010-09-30T09:58:25Z</time>
      </trkpt>
      <trkpt lat="44.1858" lon="7.239">
        <ele>2245.964638</ele>
        <time>2010-09-30T09:58:27Z</time>
      </trkpt>
      <trkpt lat="44.18581" lon="7.23895">
        <ele>2245.43226</ele>
        <time>2010-09-30T09:58:30Z</time>
      </trkpt>
      <trkpt lat="44.18583" lon="7.2389">
        <ele>2244.812844</ele>
        <time>2010-09-30T09:58:33Z</time>
      </trkpt>
      <trkpt lat="44.18585" lon="7.23887">
        <ele>2244.098076</ele>
        <time>2010-09-30T09:58:35Z</time>
      </trkpt>
      <trkpt lat="44.18586" lon="7.23884">
        <ele>2243.363468</ele>
        <time>2010-09-30T09:58:37Z</time>
      </trkpt>
      <trkpt lat="44.18588" lon="7.23881">
        <ele>2242.622174</ele>
        <time>2010-09-30T09:58:39Z</time>
      </trkpt>
      <trkpt lat="44.18589" lon="7.23877">
        <ele>2241.910439</ele>
        <time>2010-09-30T09:58:41Z</time>
      </trkpt>
      <trkpt lat="44.18591" lon="7.23874">
        <ele>2241.317232</ele>
        <time>2010-09-30T09:58:43Z</time>
      </trkpt>
      <trkpt lat="44.18593" lon="7.2387">
        <ele>2240.854578</ele>
        <time>2010-09-30T09:58:46Z</time>
      </trkpt>
      <trkpt lat="44.18595" lon="7.23865">
        <ele>2240.439468</ele>
        <time>2010-09-30T09:58:49Z</time>
      </trkpt>
      <trkpt lat="44.18598" lon="7.23862">
        <ele>2239.965768</ele>
        <time>2010-09-30T09:58:52Z</time>
      </trkpt>
      <trkpt lat="44.18595" lon="7.23859">
        <ele>2239.336966</ele>
        <time>2010-09-30T09:58:58Z</time>
      </trkpt>
      <trkpt lat="44.18589" lon="7.2386">
        <ele>2238.482174</ele>
        <time>2010-09-30T09:59:01Z</time>
      </trkpt>
      <trkpt lat="44.18584" lon="7.23862">
        <ele>2237.400361</ele>
        <time>2010-09-30T09:59:04Z</time>
      </trkpt>
      <trkpt lat="44.18581" lon="7.23864">
        <ele>2236.025439</ele>
        <time>2010-09-30T09:59:06Z</time>
      </trkpt>
      <trkpt lat="44.18576" lon="7.23867">
        <ele>2234.366712</ele>
        <time>2010-09-30T09:59:09Z</time>
      </trkpt>
      <trkpt lat="44.18574" lon="7.23869">
        <ele>2232.707119</ele>
        <time>2010-09-30T09:59:11Z</time>
      </trkpt>
      <trkpt lat="44.1857" lon="7.23871">
        <ele>2231.323581</ele>
        <time>2010-09-30T09:59:14Z</time>
      </trkpt>
      <trkpt lat="44.18567" lon="7.23875">
        <ele>2230.192545</ele>
        <time>2010-09-30T09:59:17Z</time>
      </trkpt>
      <trkpt lat="44.18563" lon="7.23879">
        <ele>2229.195195</ele>
        <time>2010-09-30T09:59:20Z</time>
      </trkpt>
      <trkpt lat="44.1856" lon="7.23882">
        <ele>2228.245257</ele>
        <time>2010-09-30T09:59:22Z</time>
      </trkpt>
      <trkpt lat="44.18558" lon="7.23884">
        <ele>2227.281515</ele>
        <time>2010-09-30T09:59:24Z</time>
      </trkpt>
      <trkpt lat="44.18555" lon="7.23885">
        <ele>2226.28095</ele>
        <time>2010-09-30T09:59:26Z</time>
      </trkpt>
      <trkpt lat="44.18551" lon="7.23884">
        <ele>2225.337723</ele>
        <time>2010-09-30T09:59:29Z</time>
      </trkpt>
      <trkpt lat="44.18548" lon="7.23882">
        <ele>2224.55748</ele>
        <time>2010-09-30T09:59:32Z</time>
      </trkpt>
      <trkpt lat="44.18545" lon="7.2388">
        <ele>2223.951454</ele>
        <time>2010-09-30T09:59:35Z</time>
      </trkpt>
      <trkpt lat="44.18544" lon="7.23876">
        <ele>2223.417315</ele>
        <time>2010-09-30T09:59:38Z</time>
      </trkpt>
      <trkpt lat="44.18546" lon="7.23872">
        <ele>2222.850172</ele>
        <time>2010-09-30T09:59:41Z</time>
      </trkpt>
      <trkpt lat="44.18549" lon="7.23869">
        <ele>2222.242256</ele>
        <time>2010-09-30T09:59:44Z</time>
      </trkpt>
      <trkpt lat="44.18554" lon="7.23869">
        <ele>2221.659006</ele>
        <time>2010-09-30T09:59:47Z</time>
      </trkpt>
      <trkpt lat="44.18559" lon="7.23869">
        <ele>2221.158927</ele>
        <time>2010-09-30T09:59:50Z</time>
      </trkpt>
      <trkpt lat="44.18562" lon="7.23869">
        <ele>2220.734721</ele>
        <time>2010-09-30T09:59:53Z</time>
      </trkpt>
      <trkpt lat="44.18565" lon="7.23867">
        <ele>2220.278286</ele>
        <time>2010-09-30T09:59:56Z</time>
      </trkpt>
      <trkpt lat="44.18567" lon="7.23864">
        <ele>2219.644458</ele>
        <time>2010-09-30T09:59:59Z</time>
      </trkpt>
      <trkpt lat="44.18569" lon="7.23862">
        <ele>2218.800324</ele>
        <time>2010-09-30T10:00:02Z</time>
      </trkpt>
      <trkpt lat="44.18572" lon="7.2386">
        <ele>2217.863427</ele>
        <time>2010-09-30T10:00:05Z</time>
      </trkpt>
      <trkpt lat="44.18575" lon="7.23858">
        <ele>2216.984732</ele>
        <time>2010-09-30T10:00:08Z</time>
      </trkpt>
      <trkpt lat="44.18577" lon="7.23856">
        <ele>2216.246857</ele>
        <time>2010-09-30T10:00:11Z</time>
      </trkpt>
      <trkpt lat="44.18579" lon="7.23852">
        <ele>2215.654598</ele>
        <time>2010-09-30T10:00:14Z</time>
      </trkpt>
      <trkpt lat="44.18581" lon="7.23849">
        <ele>2215.173867</ele>
        <time>2010-09-30T10:00:16Z</time>
      </trkpt>
      <trkpt lat="44.18584" lon="7.23843">
        <ele>2214.781625</ele>
        <time>2010-09-30T10:00:19Z</time>
      </trkpt>
      <trkpt lat="44.18587" lon="7.23839">
        <ele>2214.447647</ele>
        <time>2010-09-30T10:00:22Z</time>
      </trkpt>
      <trkpt lat="44.18589" lon="7.23834">
        <ele>2214.141736</ele>
        <time>2010-09-30T10:00:25Z</time>
      </trkpt>
      <trkpt lat="44.18592" lon="7.2383">
        <ele>2213.869351</ele>
        <time>2010-09-30T10:00:28Z</time>
      </trkpt>
      <trkpt lat="44.18594" lon="7.23826">
        <ele>2213.658392</ele>
        <time>2010-09-30T10:00:31Z</time>
      </trkpt>
      <trkpt lat="44.18597" lon="7.23824">
        <ele>2213.529409</ele>
        <time>2010-09-30T10:00:34Z</time>
      </trkpt>
      <trkpt lat="44.186" lon="7.23821">
        <ele>2213.479344</ele>
        <time>2010-09-30T10:00:37Z</time>
      </trkpt>
      <trkpt lat="44.18602" lon="7.23818">
        <ele>2213.476322</ele>
        <time>2010-09-30T10:00:40Z</time>
      </trkpt>
      <trkpt lat="44.18605" lon="7.23815">
        <ele>2213.49044</ele>
        <time>2010-09-30T10:00:43Z</time>
      </trkpt>
      <trkpt lat="44.18608" lon="7.23812">
        <ele>2213.513579</ele>
        <time>2010-09-30T10:00:46Z</time>
      </trkpt>
      <trkpt lat="44.18611" lon="7.23809">
        <ele>2213.554054</ele>
        <time>2010-09-30T10:00:49Z</time>
      </trkpt>
      <trkpt lat="44.18613" lon="7.23805">
        <ele>2213.613434</ele>
        <time>2010-09-30T10:00:52Z</time>
      </trkpt>
      <trkpt lat="44.18615" lon="7.238">
        <ele>2213.679504</ele>
        <time>2010-09-30T10:00:55Z</time>
      </trkpt>
      <trkpt lat="44.18617" lon="7.23794">
        <ele>2213.733955</ele>
        <time>2010-09-30T10:00:58Z</time>
      </trkpt>
      <trkpt lat="44.18619" lon="7.23788">
        <ele>2213.76343</ele>
        <time>2010-09-30T10:01:01Z</time>
      </trkpt>
      <trkpt lat="44.18622" lon="7.23785">
        <ele>2213.77008</ele>
        <time>2010-09-30T10:01:03Z</time>
      </trkpt>
      <trkpt lat="44.18624" lon="7.23779">
        <ele>2213.739019</ele>
        <time>2010-09-30T10:01:06Z</time>
      </trkpt>
      <trkpt lat="44.18625" lon="7.23776">
        <ele>2213.629461</ele>
        <time>2010-09-30T10:01:10Z</time>
      </trkpt>
      <trkpt lat="44.18628" lon="7.23776">
        <ele>2213.442357</ele>
        <time>2010-09-30T10:01:14Z</time>
      </trkpt>
      <trkpt lat="44.1863" lon="7.23772">
        <ele>2213.09777</ele>
        <time>2010-09-30T10:01:19Z</time>
      </trkpt>
      <trkpt lat="44.18628" lon="7.23769">
        <ele>2212.313351</ele>
        <time>2010-09-30T10:01:22Z</time>
      </trkpt>
      <trkpt lat="44.18626" lon="7.23766">
        <ele>2210.92395</ele>
        <time>2010-09-30T10:01:24Z</time>
      </trkpt>
      <trkpt lat="44.18623" lon="7.23762">
        <ele>2209.152865</ele>
        <time>2010-09-30T10:01:27Z</time>
      </trkpt>
      <trkpt lat="44.1862" lon="7.23759">
        <ele>2207.463824</ele>
        <time>2010-09-30T10:01:29Z</time>
      </trkpt>
      <trkpt lat="44.18617" lon="7.23756">
        <ele>2206.250346</ele>
        <time>2010-09-30T10:01:32Z</time>
      </trkpt>
      <trkpt lat="44.18613" lon="7.23755">
        <ele>2205.555177</ele>
        <time>2010-09-30T10:01:35Z</time>
      </trkpt>
      <trkpt lat="44.18609" lon="7.23754">
        <ele>2205.145462</ele>
        <time>2010-09-30T10:01:38Z</time>
      </trkpt>
      <trkpt lat="44.18605" lon="7.23753">
        <ele>2204.812875</ele>
        <time>2010-09-30T10:01:41Z</time>
      </trkpt>
      <trkpt lat="44.18602" lon="7.23748">
        <ele>2204.459917</ele>
        <time>2010-09-30T10:01:44Z</time>
      </trkpt>
      <trkpt lat="44.186" lon="7.23742">
        <ele>2204.057808</ele>
        <time>2010-09-30T10:01:47Z</time>
      </trkpt>
      <trkpt lat="44.18601" lon="7.23735">
        <ele>2203.67363</ele>
        <time>2010-09-30T10:01:50Z</time>
      </trkpt>
      <trkpt lat="44.18603" lon="7.23732">
        <ele>2203.410156</ele>
        <time>2010-09-30T10:01:52Z</time>
      </trkpt>
      <trkpt lat="44.18606" lon="7.2373">
        <ele>2203.287583</ele>
        <time>2010-09-30T10:01:54Z</time>
      </trkpt>
      <trkpt lat="44.18611" lon="7.23731">
        <ele>2203.232937</ele>
        <time>2010-09-30T10:01:57Z</time>
      </trkpt>
      <trkpt lat="44.18615" lon="7.23733">
        <ele>2203.132729</ele>
        <time>2010-09-30T10:01:59Z</time>
      </trkpt>
      <trkpt lat="44.1862" lon="7.23735">
        <ele>2202.866809</ele>
        <time>2010-09-30T10:02:02Z</time>
      </trkpt>
      <trkpt lat="44.18626" lon="7.23738">
        <ele>2202.371023</ele>
        <time>2010-09-30T10:02:05Z</time>
      </trkpt>
      <trkpt lat="44.18631" lon="7.23739">
        <ele>2201.682151</ele>
        <time>2010-09-30T10:02:08Z</time>
      </trkpt>
      <trkpt lat="44.18635" lon="7.2374">
        <ele>2200.878448</ele>
        <time>2010-09-30T10:02:11Z</time>
      </trkpt>
      <trkpt lat="44.18639" lon="7.2374">
        <ele>2199.999042</ele>
        <time>2010-09-30T10:02:14Z</time>
      </trkpt>
      <trkpt lat="44.18644" lon="7.23743">
        <ele>2199.037842</ele>
        <time>2010-09-30T10:02:17Z</time>
      </trkpt>
      <trkpt lat="44.18647" lon="7.23744">
        <ele>2197.996235</ele>
        <time>2010-09-30T10:02:19Z</time>
      </trkpt>
      <trkpt lat="44.18651" lon="7.23744">
        <ele>2196.899406</ele>
        <time>2010-09-30T10:02:22Z</time>
      </trkpt>
      <trkpt lat="44.18657" lon="7.23744">
        <ele>2195.815984</ele>
        <time>2010-09-30T10:02:25Z</time>
      </trkpt>
      <trkpt lat="44.18661" lon="7.23742">
        <ele>2194.868586</ele>
        <time>2010-09-30T10:02:28Z</time>
      </trkpt>
      <trkpt lat="44.18664" lon="7.23739">
        <ele>2194.1472</ele>
        <time>2010-09-30T10:02:31Z</time>
      </trkpt>
      <trkpt lat="44.18666" lon="7.23736">
        <ele>2193.624114</ele>
        <time>2010-09-30T10:02:43Z</time>
      </trkpt>
      <trkpt lat="44.18668" lon="7.23732">
        <ele>2193.217451</ele>
        <time>2010-09-30T10:02:47Z</time>
      </trkpt>
      <trkpt lat="44.18671" lon="7.23728">
        <ele>2192.831875</ele>
        <time>2010-09-30T10:02:50Z</time>
      </trkpt>
      <trkpt lat="44.18673" lon="7.23725">
        <ele>2192.017256</ele>
        <time>2010-09-30T10:02:53Z</time>
      </trkpt>
      <trkpt lat="44.18676" lon="7.2372">
        <ele>2190.477387</ele>
        <time>2010-09-30T10:02:56Z</time>
      </trkpt>
      <trkpt lat="44.18679" lon="7.23717">
        <ele>2188.759903</ele>
        <time>2010-09-30T10:02:59Z</time>
      </trkpt>
      <trkpt lat="44.18683" lon="7.23715">
        <ele>2187.527956</ele>
        <time>2010-09-30T10:03:02Z</time>
      </trkpt>
      <trkpt lat="44.18687" lon="7.23713">
        <ele>2186.806179</ele>
        <time>2010-09-30T10:03:05Z</time>
      </trkpt>
      <trkpt lat="44.1869" lon="7.23709">
        <ele>2186.335049</ele>
        <time>2010-09-30T10:03:08Z</time>
      </trkpt>
      <trkpt lat="44.18692" lon="7.23705">
        <ele>2185.847481</ele>
        <time>2010-09-30T10:03:11Z</time>
      </trkpt>
      <trkpt lat="44.18696" lon="7.23702">
        <ele>2185.239416</ele>
        <time>2010-09-30T10:03:14Z</time>
      </trkpt>
      <trkpt lat="44.18697" lon="7.23699">
        <ele>2184.524383</ele>
        <time>2010-09-30T10:03:18Z</time>
      </trkpt>
      <trkpt lat="44.18694" lon="7.23696">
        <ele>2183.698416</ele>
        <time>2010-09-30T10:03:21Z</time>
      </trkpt>
      <trkpt lat="44.18686" lon="7.23694">
        <ele>2182.761091</ele>
        <time>2010-09-30T10:03:24Z</time>
      </trkpt>
      <trkpt lat="44.18682" lon="7.23693">
        <ele>2181.719998</ele>
        <time>2010-09-30T10:03:26Z</time>
      </trkpt>
      <trkpt lat="44.18675" lon="7.23692">
        <ele>2180.584045</ele>
        <time>2010-09-30T10:03:29Z</time>
      </trkpt>
      <trkpt lat="44.18669" lon="7.23691">
        <ele>2179.372717</ele>
        <time>2010-09-30T10:03:32Z</time>
      </trkpt>
      <trkpt lat="44.18671" lon="7.23687">
        <ele>2178.169429</ele>
        <time>2010-09-30T10:03:37Z</time>
      </trkpt>
      <trkpt lat="44.18674" lon="7.23685">
        <ele>2177.074833</ele>
        <time>2010-09-30T10:03:39Z</time>
      </trkpt>
      <trkpt lat="44.1867" lon="7.23684">
        <ele>2176.097353</ele>
        <time>2010-09-30T10:03:48Z</time>
      </trkpt>
      <trkpt lat="44.18666" lon="7.23684">
        <ele>2175.075388</ele>
        <time>2010-09-30T10:03:50Z</time>
      </trkpt>
      <trkpt lat="44.1866" lon="7.23683">
        <ele>2173.930179</ele>
        <time>2010-09-30T10:03:53Z</time>
      </trkpt>
      <trkpt lat="44.18653" lon="7.23681">
        <ele>2172.561278</ele>
        <time>2010-09-30T10:03:56Z</time>
      </trkpt>
      <trkpt lat="44.18649" lon="7.2368">
        <ele>2170.999634</ele>
        <time>2010-09-30T10:03:58Z</time>
      </trkpt>
      <trkpt lat="44.18645" lon="7.2368">
        <ele>2169.651522</ele>
        <time>2010-09-30T10:04:00Z</time>
      </trkpt>
      <trkpt lat="44.1864" lon="7.23681">
        <ele>2168.833839</ele>
        <time>2010-09-30T10:04:03Z</time>
      </trkpt>
      <trkpt lat="44.18635" lon="7.23681">
        <ele>2168.41137</ele>
        <time>2010-09-30T10:04:06Z</time>
      </trkpt>
      <trkpt lat="44.18632" lon="7.23679">
        <ele>2168.202542</ele>
        <time>2010-09-30T10:04:09Z</time>
      </trkpt>
      <trkpt lat="44.18629" lon="7.23677">
        <ele>2168.06381</ele>
        <time>2010-09-30T10:04:12Z</time>
      </trkpt>
      <trkpt lat="44.18627" lon="7.23671">
        <ele>2167.915146</ele>
        <time>2010-09-30T10:04:15Z</time>
      </trkpt>
      <trkpt lat="44.18627" lon="7.23665">
        <ele>2167.751028</ele>
        <time>2010-09-30T10:04:17Z</time>
      </trkpt>
      <trkpt lat="44.18632" lon="7.23654">
        <ele>2167.598338</ele>
        <time>2010-09-30T10:04:20Z</time>
      </trkpt>
      <trkpt lat="44.18635" lon="7.2365">
        <ele>2167.475277</ele>
        <time>2010-09-30T10:04:22Z</time>
      </trkpt>
      <trkpt lat="44.18638" lon="7.23646">
        <ele>2167.363006</ele>
        <time>2010-09-30T10:04:25Z</time>
      </trkpt>
      <trkpt lat="44.18642" lon="7.23649">
        <ele>2167.172424</ele>
        <time>2010-09-30T10:04:28Z</time>
      </trkpt>
      <trkpt lat="44.18645" lon="7.23648">
        <ele>2166.808545</ele>
        <time>2010-09-30T10:04:32Z</time>
      </trkpt>
      <trkpt lat="44.18647" lon="7.23644">
        <ele>2166.180319</ele>
        <time>2010-09-30T10:04:35Z</time>
      </trkpt>
      <trkpt lat="44.18648" lon="7.2364">
        <ele>2165.260584</ele>
        <time>2010-09-30T10:04:38Z</time>
      </trkpt>
      <trkpt lat="44.18649" lon="7.23636">
        <ele>2164.171097</ele>
        <time>2010-09-30T10:04:41Z</time>
      </trkpt>
      <trkpt lat="44.18651" lon="7.23632">
        <ele>2163.085952</ele>
        <time>2010-09-30T10:04:44Z</time>
      </trkpt>
      <trkpt lat="44.18652" lon="7.23626">
        <ele>2162.047728</ele>
        <time>2010-09-30T10:04:47Z</time>
      </trkpt>
      <trkpt lat="44.18652" lon="7.23623">
        <ele>2160.973763</ele>
        <time>2010-09-30T10:04:49Z</time>
      </trkpt>
      <trkpt lat="44.18653" lon="7.23619">
        <ele>2159.790977</ele>
        <time>2010-09-30T10:04:51Z</time>
      </trkpt>
      <trkpt lat="44.18655" lon="7.23614">
        <ele>2158.535844</ele>
        <time>2010-09-30T10:04:54Z</time>
      </trkpt>
      <trkpt lat="44.18655" lon="7.2361">
        <ele>2157.327603</ele>
        <time>2010-09-30T10:05:03Z</time>
      </trkpt>
      <trkpt lat="44.18656" lon="7.23606">
        <ele>2156.278891</ele>
        <time>2010-09-30T10:05:06Z</time>
      </trkpt>
      <trkpt lat="44.18655" lon="7.23601">
        <ele>2155.331654</ele>
        <time>2010-09-30T10:05:09Z</time>
      </trkpt>
      <trkpt lat="44.18654" lon="7.23596">
        <ele>2154.165894</ele>
        <time>2010-09-30T10:05:12Z</time>
      </trkpt>
      <trkpt lat="44.18653" lon="7.23593">
        <ele>2152.635133</ele>
        <time>2010-09-30T10:05:14Z</time>
      </trkpt>
      <trkpt lat="44.18651" lon="7.23588">
        <ele>2151.037139</ele>
        <time>2010-09-30T10:05:17Z</time>
      </trkpt>
      <trkpt lat="44.18649" lon="7.23585">
        <ele>2149.673121</ele>
        <time>2010-09-30T10:05:20Z</time>
      </trkpt>
      <trkpt lat="44.18645" lon="7.23581">
        <ele>2148.585326</ele>
        <time>2010-09-30T10:05:23Z</time>
      </trkpt>
      <trkpt lat="44.18642" lon="7.23578">
        <ele>2147.703351</ele>
        <time>2010-09-30T10:05:26Z</time>
      </trkpt>
      <trkpt lat="44.1864" lon="7.23576">
        <ele>2146.887688</ele>
        <time>2010-09-30T10:05:29Z</time>
      </trkpt>
      <trkpt lat="44.18637" lon="7.23573">
        <ele>2146.056632</ele>
        <time>2010-09-30T10:05:32Z</time>
      </trkpt>
      <trkpt lat="44.18635" lon="7.2357">
        <ele>2145.227233</ele>
        <time>2010-09-30T10:05:35Z</time>
      </trkpt>
      <trkpt lat="44.18632" lon="7.23567">
        <ele>2144.440003</ele>
        <time>2010-09-30T10:05:38Z</time>
      </trkpt>
      <trkpt lat="44.1863" lon="7.23563">
        <ele>2143.748183</ele>
        <time>2010-09-30T10:05:41Z</time>
      </trkpt>
      <trkpt lat="44.18628" lon="7.23559">
        <ele>2143.191439</ele>
        <time>2010-09-30T10:05:44Z</time>
      </trkpt>
      <trkpt lat="44.18626" lon="7.23554">
        <ele>2142.767101</ele>
        <time>2010-09-30T10:05:47Z</time>
      </trkpt>
      <trkpt lat="44.18623" lon="7.23552">
        <ele>2142.436026</ele>
        <time>2010-09-30T10:05:49Z</time>
      </trkpt>
      <trkpt lat="44.1862" lon="7.23548">
        <ele>2142.148658</ele>
        <time>2010-09-30T10:05:52Z</time>
      </trkpt>
      <trkpt lat="44.18618" lon="7.23544">
        <ele>2141.873056</ele>
        <time>2010-09-30T10:05:55Z</time>
      </trkpt>
      <trkpt lat="44.18615" lon="7.2354">
        <ele>2141.609041</ele>
        <time>2010-09-30T10:05:58Z</time>
      </trkpt>
      <trkpt lat="44.18613" lon="7.23535">
        <ele>2141.342589</ele>
        <time>2010-09-30T10:06:01Z</time>
      </trkpt>
      <trkpt lat="44.18611" lon="7.2353">
        <ele>2141.026238</ele>
        <time>2010-09-30T10:06:04Z</time>
      </trkpt>
      <trkpt lat="44.18609" lon="7.23526">
        <ele>2140.64504</ele>
        <time>2010-09-30T10:06:07Z</time>
      </trkpt>
      <trkpt lat="44.18607" lon="7.23521">
        <ele>2140.237651</ele>
        <time>2010-09-30T10:06:10Z</time>
      </trkpt>
      <trkpt lat="44.18606" lon="7.23517">
        <ele>2139.837141</ele>
        <time>2010-09-30T10:06:13Z</time>
      </trkpt>
      <trkpt lat="44.18606" lon="7.23513">
        <ele>2139.453464</ele>
        <time>2010-09-30T10:06:16Z</time>
      </trkpt>
      <trkpt lat="44.18605" lon="7.23508">
        <ele>2139.085949</ele>
        <time>2010-09-30T10:06:19Z</time>
      </trkpt>
      <trkpt lat="44.18604" lon="7.23503">
        <ele>2138.725863</ele>
        <time>2010-09-30T10:06:22Z</time>
      </trkpt>
      <trkpt lat="44.18603" lon="7.23498">
        <ele>2138.344214</ele>
        <time>2010-09-30T10:06:25Z</time>
      </trkpt>
      <trkpt lat="44.18602" lon="7.23494">
        <ele>2137.898045</ele>
        <time>2010-09-30T10:06:28Z</time>
      </trkpt>
      <trkpt lat="44.18602" lon="7.2349">
        <ele>2137.376421</ele>
        <time>2010-09-30T10:06:31Z</time>
      </trkpt>
      <trkpt lat="44.18604" lon="7.23484">
        <ele>2136.818384</ele>
        <time>2010-09-30T10:06:34Z</time>
      </trkpt>
      <trkpt lat="44.18605" lon="7.23479">
        <ele>2136.271346</ele>
        <time>2010-09-30T10:06:37Z</time>
      </trkpt>
      <trkpt lat="44.18606" lon="7.23474">
        <ele>2135.759864</ele>
        <time>2010-09-30T10:06:40Z</time>
      </trkpt>
      <trkpt lat="44.18606" lon="7.23469">
        <ele>2135.28034</ele>
        <time>2010-09-30T10:06:43Z</time>
      </trkpt>
      <trkpt lat="44.18607" lon="7.23463">
        <ele>2134.811815</ele>
        <time>2010-09-30T10:06:46Z</time>
      </trkpt>
      <trkpt lat="44.18607" lon="7.23454">
        <ele>2134.341964</ele>
        <time>2010-09-30T10:06:49Z</time>
      </trkpt>
      <trkpt lat="44.18609" lon="7.23448">
        <ele>2133.873001</ele>
        <time>2010-09-30T10:06:52Z</time>
      </trkpt>
      <trkpt lat="44.1861" lon="7.23444">
        <ele>2133.411691</ele>
        <time>2010-09-30T10:06:55Z</time>
      </trkpt>
      <trkpt lat="44.18611" lon="7.23439">
        <ele>2132.963145</ele>
        <time>2010-09-30T10:06:58Z</time>
      </trkpt>
      <trkpt lat="44.18612" lon="7.23434">
        <ele>2132.53009</ele>
        <time>2010-09-30T10:07:01Z</time>
      </trkpt>
      <trkpt lat="44.18614" lon="7.23429">
        <ele>2132.123951</ele>
        <time>2010-09-30T10:07:04Z</time>
      </trkpt>
      <trkpt lat="44.18615" lon="7.23424">
        <ele>2131.759797</ele>
        <time>2010-09-30T10:07:07Z</time>
      </trkpt>
      <trkpt lat="44.18616" lon="7.2342">
        <ele>2131.437766</ele>
        <time>2010-09-30T10:07:09Z</time>
      </trkpt>
      <trkpt lat="44.18616" lon="7.23412">
        <ele>2131.14721</ele>
        <time>2010-09-30T10:07:12Z</time>
      </trkpt>
      <trkpt lat="44.18616" lon="7.23408">
        <ele>2130.88325</ele>
        <time>2010-09-30T10:07:14Z</time>
      </trkpt>
      <trkpt lat="44.18616" lon="7.23404">
        <ele>2130.655632</ele>
        <time>2010-09-30T10:07:16Z</time>
      </trkpt>
      <trkpt lat="44.18617" lon="7.23398">
        <ele>2130.467845</ele>
        <time>2010-09-30T10:07:19Z</time>
      </trkpt>
      <trkpt lat="44.18617" lon="7.23393">
        <ele>2130.308612</ele>
        <time>2010-09-30T10:07:22Z</time>
      </trkpt>
      <trkpt lat="44.18618" lon="7.23389">
        <ele>2130.172233</ele>
        <time>2010-09-30T10:07:24Z</time>
      </trkpt>
      <trkpt lat="44.18619" lon="7.23386">
        <ele>2130.045421</ele>
        <time>2010-09-30T10:07:26Z</time>
      </trkpt>
      <trkpt lat="44.18621" lon="7.2338">
        <ele>2129.894872</ele>
        <time>2010-09-30T10:07:29Z</time>
      </trkpt>
      <trkpt lat="44.18622" lon="7.23375">
        <ele>2129.716614</ele>
        <time>2010-09-30T10:07:32Z</time>
      </trkpt>
      <trkpt lat="44.18621" lon="7.23369">
        <ele>2129.544812</ele>
        <time>2010-09-30T10:07:35Z</time>
      </trkpt>
      <trkpt lat="44.18621" lon="7.23365">
        <ele>2129.396895</ele>
        <time>2010-09-30T10:07:38Z</time>
      </trkpt>
      <trkpt lat="44.1862" lon="7.2336">
        <ele>2129.258044</ele>
        <time>2010-09-30T10:07:41Z</time>
      </trkpt>
      <trkpt lat="44.1862" lon="7.23356">
        <ele>2129.116833</ele>
        <time>2010-09-30T10:07:43Z</time>
      </trkpt>
      <trkpt lat="44.1862" lon="7.2335">
        <ele>2128.97439</ele>
        <time>2010-09-30T10:07:46Z</time>
      </trkpt>
      <trkpt lat="44.18619" lon="7.23343">
        <ele>2128.832134</ele>
        <time>2010-09-30T10:07:49Z</time>
      </trkpt>
      <trkpt lat="44.18618" lon="7.23337">
        <ele>2128.696005</ele>
        <time>2010-09-30T10:07:52Z</time>
      </trkpt>
      <trkpt lat="44.18618" lon="7.23332">
        <ele>2128.573059</ele>
        <time>2010-09-30T10:07:55Z</time>
      </trkpt>
      <trkpt lat="44.18617" lon="7.23327">
        <ele>2128.461352</ele>
        <time>2010-09-30T10:07:58Z</time>
      </trkpt>
      <trkpt lat="44.18616" lon="7.23321">
        <ele>2128.364501</ele>
        <time>2010-09-30T10:08:01Z</time>
      </trkpt>
      <trkpt lat="44.18615" lon="7.23316">
        <ele>2128.290565</ele>
        <time>2010-09-30T10:08:04Z</time>
      </trkpt>
      <trkpt lat="44.18615" lon="7.2331">
        <ele>2128.228632</ele>
        <time>2010-09-30T10:08:07Z</time>
      </trkpt>
      <trkpt lat="44.18614" lon="7.23303">
        <ele>2128.156064</ele>
        <time>2010-09-30T10:08:10Z</time>
      </trkpt>
      <trkpt lat="44.18613" lon="7.23299">
        <ele>2128.058938</ele>
        <time>2010-09-30T10:08:12Z</time>
      </trkpt>
      <trkpt lat="44.18613" lon="7.23293">
        <ele>2127.942598</ele>
        <time>2010-09-30T10:08:15Z</time>
      </trkpt>
      <trkpt lat="44.18612" lon="7.23288">
        <ele>2127.839696</ele>
        <time>2010-09-30T10:08:18Z</time>
      </trkpt>
      <trkpt lat="44.18611" lon="7.23284">
        <ele>2127.778495</ele>
        <time>2010-09-30T10:08:20Z</time>
      </trkpt>
      <trkpt lat="44.18611" lon="7.23278">
        <ele>2127.753446</ele>
        <time>2010-09-30T10:08:23Z</time>
      </trkpt>
      <trkpt lat="44.18611" lon="7.23273">
        <ele>2127.745401</ele>
        <time>2010-09-30T10:08:26Z</time>
      </trkpt>
      <trkpt lat="44.1861" lon="7.23267">
        <ele>2127.743827</ele>
        <time>2010-09-30T10:08:29Z</time>
      </trkpt>
      <trkpt lat="44.1861" lon="7.23262">
        <ele>2127.733669</ele>
        <time>2010-09-30T10:08:31Z</time>
      </trkpt>
      <trkpt lat="44.18609" lon="7.23257">
        <ele>2127.694164</ele>
        <time>2010-09-30T10:08:34Z</time>
      </trkpt>
      <trkpt lat="44.18608" lon="7.23252">
        <ele>2127.619335</ele>
        <time>2010-09-30T10:08:37Z</time>
      </trkpt>
      <trkpt lat="44.18607" lon="7.23248">
        <ele>2127.52807</ele>
        <time>2010-09-30T10:08:39Z</time>
      </trkpt>
      <trkpt lat="44.18607" lon="7.23243">
        <ele>2127.438901</ele>
        <time>2010-09-30T10:08:42Z</time>
      </trkpt>
      <trkpt lat="44.18606" lon="7.2324">
        <ele>2127.346953</ele>
        <time>2010-09-30T10:08:44Z</time>
      </trkpt>
      <trkpt lat="44.18605" lon="7.23234">
        <ele>2127.246786</ele>
        <time>2010-09-30T10:08:47Z</time>
      </trkpt>
      <trkpt lat="44.18604" lon="7.23229">
        <ele>2127.149352</ele>
        <time>2010-09-30T10:08:50Z</time>
      </trkpt>
      <trkpt lat="44.18603" lon="7.23225">
        <ele>2127.060057</ele>
        <time>2010-09-30T10:08:53Z</time>
      </trkpt>
      <trkpt lat="44.18601" lon="7.23221">
        <ele>2126.973182</ele>
        <time>2010-09-30T10:08:56Z</time>
      </trkpt>
      <trkpt lat="44.18599" lon="7.23216">
        <ele>2126.888484</ele>
        <time>2010-09-30T10:08:59Z</time>
      </trkpt>
      <trkpt lat="44.18598" lon="7.23212">
        <ele>2126.808817</ele>
        <time>2010-09-30T10:09:02Z</time>
      </trkpt>
      <trkpt lat="44.18597" lon="7.23208">
        <ele>2126.729252</ele>
        <time>2010-09-30T10:09:05Z</time>
      </trkpt>
      <trkpt lat="44.18596" lon="7.23203">
        <ele>2126.635376</ele>
        <time>2010-09-30T10:09:08Z</time>
      </trkpt>
      <trkpt lat="44.18595" lon="7.23198">
        <ele>2126.522294</ele>
        <time>2010-09-30T10:09:11Z</time>
      </trkpt>
      <trkpt lat="44.18594" lon="7.23193">
        <ele>2126.416415</ele>
        <time>2010-09-30T10:09:14Z</time>
      </trkpt>
      <trkpt lat="44.18594" lon="7.23189">
        <ele>2126.353634</ele>
        <time>2010-09-30T10:09:16Z</time>
      </trkpt>
      <trkpt lat="44.18595" lon="7.23184">
        <ele>2126.336592</ele>
        <time>2010-09-30T10:09:19Z</time>
      </trkpt>
      <trkpt lat="44.18595" lon="7.23179">
        <ele>2126.343419</ele>
        <time>2010-09-30T10:09:22Z</time>
      </trkpt>
      <trkpt lat="44.18595" lon="7.23174">
        <ele>2126.372952</ele>
        <time>2010-09-30T10:09:25Z</time>
      </trkpt>
      <trkpt lat="44.18595" lon="7.23168">
        <ele>2126.448702</ele>
        <time>2010-09-30T10:09:28Z</time>
      </trkpt>
      <trkpt lat="44.18595" lon="7.23164">
        <ele>2126.577743</ele>
        <time>2010-09-30T10:09:30Z</time>
      </trkpt>
      <trkpt lat="44.18595" lon="7.23158">
        <ele>2126.73369</ele>
        <time>2010-09-30T10:09:33Z</time>
      </trkpt>
      <trkpt lat="44.18595" lon="7.23155">
        <ele>2126.890253</ele>
        <time>2010-09-30T10:09:35Z</time>
      </trkpt>
      <trkpt lat="44.18595" lon="7.2315">
        <ele>2127.035909</ele>
        <time>2010-09-30T10:09:38Z</time>
      </trkpt>
      <trkpt lat="44.18595" lon="7.23145">
        <ele>2127.17049</ele>
        <time>2010-09-30T10:09:41Z</time>
      </trkpt>
      <trkpt lat="44.18595" lon="7.2314">
        <ele>2127.296543</ele>
        <time>2010-09-30T10:09:44Z</time>
      </trkpt>
      <trkpt lat="44.18595" lon="7.23135">
        <ele>2127.414079</ele>
        <time>2010-09-30T10:09:47Z</time>
      </trkpt>
      <trkpt lat="44.18596" lon="7.2313">
        <ele>2127.526321</ele>
        <time>2010-09-30T10:09:50Z</time>
      </trkpt>
      <trkpt lat="44.18597" lon="7.23126">
        <ele>2127.637865</ele>
        <time>2010-09-30T10:09:52Z</time>
      </trkpt>
      <trkpt lat="44.18599" lon="7.23122">
        <ele>2127.748642</ele>
        <time>2010-09-30T10:09:54Z</time>
      </trkpt>
      <trkpt lat="44.186" lon="7.23117">
        <ele>2127.859821</ele>
        <time>2010-09-30T10:09:57Z</time>
      </trkpt>
      <trkpt lat="44.186" lon="7.23113">
        <ele>2127.963489</ele>
        <time>2010-09-30T10:09:59Z</time>
      </trkpt>
      <trkpt lat="44.18599" lon="7.23107">
        <ele>2128.044359</ele>
        <time>2010-09-30T10:10:02Z</time>
      </trkpt>
      <trkpt lat="44.18599" lon="7.23103">
        <ele>2128.097925</ele>
        <time>2010-09-30T10:10:04Z</time>
      </trkpt>
      <trkpt lat="44.18598" lon="7.23098">
        <ele>2128.129158</ele>
        <time>2010-09-30T10:10:07Z</time>
      </trkpt>
      <trkpt lat="44.18597" lon="7.23093">
        <ele>2128.142768</ele>
        <time>2010-09-30T10:10:10Z</time>
      </trkpt>
      <trkpt lat="44.18597" lon="7.23088">
        <ele>2128.145519</ele>
        <time>2010-09-30T10:10:13Z</time>
      </trkpt>
      <trkpt lat="44.18596" lon="7.23082">
        <ele>2128.145028</ele>
        <time>2010-09-30T10:10:16Z</time>
      </trkpt>
      <trkpt lat="44.18595" lon="7.23077">
        <ele>2128.144814</ele>
        <time>2010-09-30T10:10:18Z</time>
      </trkpt>
      <trkpt lat="44.18593" lon="7.23071">
        <ele>2128.1454</ele>
        <time>2010-09-30T10:10:21Z</time>
      </trkpt>
      <trkpt lat="44.18592" lon="7.23068">
        <ele>2128.147674</ele>
        <time>2010-09-30T10:10:23Z</time>
      </trkpt>
      <trkpt lat="44.18592" lon="7.23062">
        <ele>2128.157312</ele>
        <time>2010-09-30T10:10:26Z</time>
      </trkpt>
      <trkpt lat="44.1859" lon="7.23056">
        <ele>2128.185785</ele>
        <time>2010-09-30T10:10:29Z</time>
      </trkpt>
      <trkpt lat="44.18589" lon="7.23052">
        <ele>2128.235825</ele>
        <time>2010-09-30T10:10:31Z</time>
      </trkpt>
      <trkpt lat="44.18588" lon="7.23048">
        <ele>2128.298192</ele>
        <time>2010-09-30T10:10:33Z</time>
      </trkpt>
      <trkpt lat="44.18587" lon="7.23043">
        <ele>2128.367417</ele>
        <time>2010-09-30T10:10:36Z</time>
      </trkpt>
      <trkpt lat="44.18585" lon="7.23038">
        <ele>2128.438129</ele>
        <time>2010-09-30T10:10:39Z</time>
      </trkpt>
      <trkpt lat="44.18584" lon="7.23033">
        <ele>2128.493595</ele>
        <time>2010-09-30T10:10:42Z</time>
      </trkpt>
      <trkpt lat="44.18582" lon="7.23028">
        <ele>2128.521396</ele>
        <time>2010-09-30T10:10:45Z</time>
      </trkpt>
      <trkpt lat="44.18581" lon="7.23021">
        <ele>2128.527645</ele>
        <time>2010-09-30T10:10:48Z</time>
      </trkpt>
      <trkpt lat="44.18579" lon="7.23016">
        <ele>2128.530968</ele>
        <time>2010-09-30T10:10:51Z</time>
      </trkpt>
      <trkpt lat="44.18578" lon="7.23013">
        <ele>2128.541597</ele>
        <time>2010-09-30T10:10:53Z</time>
      </trkpt>
      <trkpt lat="44.18577" lon="7.23007">
        <ele>2128.5535</ele>
        <time>2010-09-30T10:10:56Z</time>
      </trkpt>
      <trkpt lat="44.18576" lon="7.23002">
        <ele>2128.559423</ele>
        <time>2010-09-30T10:10:59Z</time>
      </trkpt>
      <trkpt lat="44.18573" lon="7.22997">
        <ele>2128.567907</ele>
        <time>2010-09-30T10:11:02Z</time>
      </trkpt>
      <trkpt lat="44.18572" lon="7.22992">
        <ele>2128.601293</ele>
        <time>2010-09-30T10:11:05Z</time>
      </trkpt>
      <trkpt lat="44.18571" lon="7.22989">
        <ele>2128.673729</ele>
        <time>2010-09-30T10:11:07Z</time>
      </trkpt>
      <trkpt lat="44.1857" lon="7.22985">
        <ele>2128.775294</ele>
        <time>2010-09-30T10:11:09Z</time>
      </trkpt>
      <trkpt lat="44.18568" lon="7.22979">
        <ele>2128.889271</ele>
        <time>2010-09-30T10:11:12Z</time>
      </trkpt>
      <trkpt lat="44.18567" lon="7.22974">
        <ele>2129.002788</ele>
        <time>2010-09-30T10:11:15Z</time>
      </trkpt>
      <trkpt lat="44.18566" lon="7.2297">
        <ele>2129.101569</ele>
        <time>2010-09-30T10:11:17Z</time>
      </trkpt>
      <trkpt lat="44.18564" lon="7.22965">
        <ele>2129.184326</ele>
        <time>2010-09-30T10:11:20Z</time>
      </trkpt>
      <trkpt lat="44.18563" lon="7.22959">
        <ele>2129.268029</ele>
        <time>2010-09-30T10:11:23Z</time>
      </trkpt>
      <trkpt lat="44.18563" lon="7.22954">
        <ele>2129.357298</ele>
        <time>2010-09-30T10:11:26Z</time>
      </trkpt>
      <trkpt lat="44.18562" lon="7.22948">
        <ele>2129.440035</ele>
        <time>2010-09-30T10:11:29Z</time>
      </trkpt>
      <trkpt lat="44.18561" lon="7.22942">
        <ele>2129.510275</ele>
        <time>2010-09-30T10:11:32Z</time>
      </trkpt>
      <trkpt lat="44.1856" lon="7.22937">
        <ele>2129.566039</ele>
        <time>2010-09-30T10:11:35Z</time>
      </trkpt>
      <trkpt lat="44.18559" lon="7.22932">
        <ele>2129.608649</ele>
        <time>2010-09-30T10:11:38Z</time>
      </trkpt>
      <trkpt lat="44.18557" lon="7.22927">
        <ele>2129.647803</ele>
        <time>2010-09-30T10:11:41Z</time>
      </trkpt>
      <trkpt lat="44.18557" lon="7.22921">
        <ele>2129.689112</ele>
        <time>2010-09-30T10:11:44Z</time>
      </trkpt>
      <trkpt lat="44.18555" lon="7.22917">
        <ele>2129.725322</ele>
        <time>2010-09-30T10:11:47Z</time>
      </trkpt>
      <trkpt lat="44.18555" lon="7.22912">
        <ele>2129.746447</ele>
        <time>2010-09-30T10:11:50Z</time>
      </trkpt>
      <trkpt lat="44.18554" lon="7.22907">
        <ele>2129.752151</ele>
        <time>2010-09-30T10:11:53Z</time>
      </trkpt>
      <trkpt lat="44.18553" lon="7.229">
        <ele>2129.751379</ele>
        <time>2010-09-30T10:11:56Z</time>
      </trkpt>
      <trkpt lat="44.18551" lon="7.22895">
        <ele>2129.750621</ele>
        <time>2010-09-30T10:11:59Z</time>
      </trkpt>
      <trkpt lat="44.1855" lon="7.2289">
        <ele>2129.752633</ele>
        <time>2010-09-30T10:12:02Z</time>
      </trkpt>
      <trkpt lat="44.1855" lon="7.22885">
        <ele>2129.764002</ele>
        <time>2010-09-30T10:12:05Z</time>
      </trkpt>
      <trkpt lat="44.18548" lon="7.22881">
        <ele>2129.790878</ele>
        <time>2010-09-30T10:12:08Z</time>
      </trkpt>
      <trkpt lat="44.18546" lon="7.22876">
        <ele>2129.830447</ele>
        <time>2010-09-30T10:12:11Z</time>
      </trkpt>
      <trkpt lat="44.18544" lon="7.22871">
        <ele>2129.875618</ele>
        <time>2010-09-30T10:12:14Z</time>
      </trkpt>
      <trkpt lat="44.18541" lon="7.22867">
        <ele>2129.919971</ele>
        <time>2010-09-30T10:12:17Z</time>
      </trkpt>
      <trkpt lat="44.18538" lon="7.22862">
        <ele>2129.95464</ele>
        <time>2010-09-30T10:12:20Z</time>
      </trkpt>
      <trkpt lat="44.18537" lon="7.22857">
        <ele>2129.974953</ele>
        <time>2010-09-30T10:12:23Z</time>
      </trkpt>
      <trkpt lat="44.18536" lon="7.22852">
        <ele>2129.985252</ele>
        <time>2010-09-30T10:12:26Z</time>
      </trkpt>
      <trkpt lat="44.18535" lon="7.22847">
        <ele>2129.999783</ele>
        <time>2010-09-30T10:12:29Z</time>
      </trkpt>
      <trkpt lat="44.18535" lon="7.22841">
        <ele>2130.038968</ele>
        <time>2010-09-30T10:12:32Z</time>
      </trkpt>
      <trkpt lat="44.18534" lon="7.22835">
        <ele>2130.108486</ele>
        <time>2010-09-30T10:12:35Z</time>
      </trkpt>
      <trkpt lat="44.18533" lon="7.2283">
        <ele>2130.190156</ele>
        <time>2010-09-30T10:12:38Z</time>
      </trkpt>
      <trkpt lat="44.18532" lon="7.22825">
        <ele>2130.265566</ele>
        <time>2010-09-30T10:12:41Z</time>
      </trkpt>
      <trkpt lat="44.18531" lon="7.2282">
        <ele>2130.334832</ele>
        <time>2010-09-30T10:12:44Z</time>
      </trkpt>
      <trkpt lat="44.18531" lon="7.22814">
        <ele>2130.408821</ele>
        <time>2010-09-30T10:12:46Z</time>
      </trkpt>
      <trkpt lat="44.1853" lon="7.22808">
        <ele>2130.491981</ele>
        <time>2010-09-30T10:12:49Z</time>
      </trkpt>
      <trkpt lat="44.1853" lon="7.22803">
        <ele>2130.584527</ele>
        <time>2010-09-30T10:12:52Z</time>
      </trkpt>
      <trkpt lat="44.18529" lon="7.22799">
        <ele>2130.695875</ele>
        <time>2010-09-30T10:12:55Z</time>
      </trkpt>
      <trkpt lat="44.18527" lon="7.22794">
        <ele>2130.843149</ele>
        <time>2010-09-30T10:12:58Z</time>
      </trkpt>
      <trkpt lat="44.18526" lon="7.22789">
        <ele>2131.034438</ele>
        <time>2010-09-30T10:13:01Z</time>
      </trkpt>
      <trkpt lat="44.18525" lon="7.22782">
        <ele>2131.258163</ele>
        <time>2010-09-30T10:13:04Z</time>
      </trkpt>
      <trkpt lat="44.18523" lon="7.22774">
        <ele>2131.496908</ele>
        <time>2010-09-30T10:13:07Z</time>
      </trkpt>
      <trkpt lat="44.18522" lon="7.22767">
        <ele>2131.733283</ele>
        <time>2010-09-30T10:13:09Z</time>
      </trkpt>
      <trkpt lat="44.18521" lon="7.2276">
        <ele>2131.95092</ele>
        <time>2010-09-30T10:13:12Z</time>
      </trkpt>
      <trkpt lat="44.1852" lon="7.22756">
        <ele>2132.166674</ele>
        <time>2010-09-30T10:13:14Z</time>
      </trkpt>
      <trkpt lat="44.18518" lon="7.22751">
        <ele>2132.408664</ele>
        <time>2010-09-30T10:13:17Z</time>
      </trkpt>
      <trkpt lat="44.18516" lon="7.22746">
        <ele>2132.676074</ele>
        <time>2010-09-30T10:13:20Z</time>
      </trkpt>
      <trkpt lat="44.18513" lon="7.22741">
        <ele>2132.943002</ele>
        <time>2010-09-30T10:13:23Z</time>
      </trkpt>
      <trkpt lat="44.18511" lon="7.22737">
        <ele>2133.187251</ele>
        <time>2010-09-30T10:13:25Z</time>
      </trkpt>
      <trkpt lat="44.18509" lon="7.22731">
        <ele>2133.413164</ele>
        <time>2010-09-30T10:13:28Z</time>
      </trkpt>
      <trkpt lat="44.18507" lon="7.22725">
        <ele>2133.643254</ele>
        <time>2010-09-30T10:13:31Z</time>
      </trkpt>
      <trkpt lat="44.18505" lon="7.2272">
        <ele>2133.873722</ele>
        <time>2010-09-30T10:13:34Z</time>
      </trkpt>
      <trkpt lat="44.18502" lon="7.22714">
        <ele>2134.094626</ele>
        <time>2010-09-30T10:13:37Z</time>
      </trkpt>
      <trkpt lat="44.18499" lon="7.22709">
        <ele>2134.318748</ele>
        <time>2010-09-30T10:13:40Z</time>
      </trkpt>
      <trkpt lat="44.18495" lon="7.22705">
        <ele>2134.558988</ele>
        <time>2010-09-30T10:13:43Z</time>
      </trkpt>
      <trkpt lat="44.18493" lon="7.227">
        <ele>2134.804313</ele>
        <time>2010-09-30T10:13:45Z</time>
      </trkpt>
      <trkpt lat="44.1849" lon="7.22694">
        <ele>2135.039901</ele>
        <time>2010-09-30T10:13:48Z</time>
      </trkpt>
      <trkpt lat="44.18488" lon="7.2269">
        <ele>2135.266937</ele>
        <time>2010-09-30T10:13:51Z</time>
      </trkpt>
      <trkpt lat="44.18485" lon="7.22686">
        <ele>2135.492867</ele>
        <time>2010-09-30T10:13:54Z</time>
      </trkpt>
      <trkpt lat="44.18483" lon="7.22682">
        <ele>2135.730979</ele>
        <time>2010-09-30T10:13:57Z</time>
      </trkpt>
      <trkpt lat="44.18481" lon="7.22678">
        <ele>2136.002804</ele>
        <time>2010-09-30T10:14:00Z</time>
      </trkpt>
      <trkpt lat="44.18479" lon="7.22672">
        <ele>2136.30843</ele>
        <time>2010-09-30T10:14:03Z</time>
      </trkpt>
      <trkpt lat="44.18476" lon="7.22668">
        <ele>2136.630024</ele>
        <time>2010-09-30T10:14:06Z</time>
      </trkpt>
      <trkpt lat="44.18474" lon="7.22664">
        <ele>2136.96808</ele>
        <time>2010-09-30T10:14:09Z</time>
      </trkpt>
      <trkpt lat="44.18473" lon="7.22661">
        <ele>2137.332022</ele>
        <time>2010-09-30T10:14:12Z</time>
      </trkpt>
      <trkpt lat="44.18471" lon="7.22657">
        <ele>2137.72111</ele>
        <time>2010-09-30T10:14:15Z</time>
      </trkpt>
      <trkpt lat="44.18468" lon="7.22652">
        <ele>2138.120595</ele>
        <time>2010-09-30T10:14:18Z</time>
      </trkpt>
      <trkpt lat="44.18466" lon="7.22646">
        <ele>2138.507244</ele>
        <time>2010-09-30T10:14:21Z</time>
      </trkpt>
      <trkpt lat="44.18465" lon="7.2264">
        <ele>2138.86205</ele>
        <time>2010-09-30T10:14:24Z</time>
      </trkpt>
      <trkpt lat="44.18463" lon="7.22636">
        <ele>2139.17941</ele>
        <time>2010-09-30T10:14:27Z</time>
      </trkpt>
      <trkpt lat="44.18462" lon="7.22632">
        <ele>2139.471355</ele>
        <time>2010-09-30T10:14:30Z</time>
      </trkpt>
      <trkpt lat="44.1846" lon="7.22628">
        <ele>2139.755946</ele>
        <time>2010-09-30T10:14:33Z</time>
      </trkpt>
      <trkpt lat="44.18459" lon="7.22624">
        <ele>2140.034833</ele>
        <time>2010-09-30T10:14:36Z</time>
      </trkpt>
      <trkpt lat="44.18457" lon="7.2262">
        <ele>2140.297945</ele>
        <time>2010-09-30T10:14:39Z</time>
      </trkpt>
      <trkpt lat="44.18456" lon="7.22615">
        <ele>2140.546577</ele>
        <time>2010-09-30T10:14:42Z</time>
      </trkpt>
      <trkpt lat="44.18454" lon="7.22611">
        <ele>2140.792207</ele>
        <time>2010-09-30T10:14:45Z</time>
      </trkpt>
      <trkpt lat="44.18453" lon="7.22606">
        <ele>2141.045708</ele>
        <time>2010-09-30T10:14:48Z</time>
      </trkpt>
      <trkpt lat="44.18453" lon="7.22602">
        <ele>2141.316915</ele>
        <time>2010-09-30T10:14:51Z</time>
      </trkpt>
      <trkpt lat="44.18452" lon="7.22596">
        <ele>2141.613963</ele>
        <time>2010-09-30T10:14:54Z</time>
      </trkpt>
      <trkpt lat="44.18451" lon="7.22592">
        <ele>2141.935127</ele>
        <time>2010-09-30T10:14:56Z</time>
      </trkpt>
      <trkpt lat="44.18449" lon="7.22588">
        <ele>2142.267506</ele>
        <time>2010-09-30T10:14:59Z</time>
      </trkpt>
      <trkpt lat="44.18447" lon="7.22583">
        <ele>2142.596306</ele>
        <time>2010-09-30T10:15:02Z</time>
      </trkpt>
      <trkpt lat="44.18444" lon="7.22578">
        <ele>2142.900407</ele>
        <time>2010-09-30T10:15:05Z</time>
      </trkpt>
      <trkpt lat="44.18442" lon="7.22575">
        <ele>2143.16879</ele>
        <time>2010-09-30T10:15:07Z</time>
      </trkpt>
      <trkpt lat="44.18441" lon="7.22571">
        <ele>2143.413159</ele>
        <time>2010-09-30T10:15:10Z</time>
      </trkpt>
      <trkpt lat="44.18441" lon="7.22566">
        <ele>2143.641286</ele>
        <time>2010-09-30T10:15:13Z</time>
      </trkpt>
      <trkpt lat="44.18441" lon="7.22561">
        <ele>2143.842789</ele>
        <time>2010-09-30T10:15:16Z</time>
      </trkpt>
      <trkpt lat="44.18441" lon="7.22555">
        <ele>2144.020167</ele>
        <time>2010-09-30T10:15:19Z</time>
      </trkpt>
      <trkpt lat="44.18442" lon="7.2255">
        <ele>2144.198774</ele>
        <time>2010-09-30T10:15:22Z</time>
      </trkpt>
      <trkpt lat="44.18442" lon="7.22545">
        <ele>2144.397786</ele>
        <time>2010-09-30T10:15:25Z</time>
      </trkpt>
      <trkpt lat="44.1844" lon="7.2254">
        <ele>2144.604613</ele>
        <time>2010-09-30T10:15:28Z</time>
      </trkpt>
      <trkpt lat="44.18439" lon="7.22534">
        <ele>2144.803231</ele>
        <time>2010-09-30T10:15:31Z</time>
      </trkpt>
      <trkpt lat="44.18435" lon="7.22526">
        <ele>2144.994432</ele>
        <time>2010-09-30T10:15:34Z</time>
      </trkpt>
      <trkpt lat="44.18431" lon="7.22519">
        <ele>2145.177719</ele>
        <time>2010-09-30T10:15:37Z</time>
      </trkpt>
      <trkpt lat="44.18429" lon="7.22515">
        <ele>2145.345971</ele>
        <time>2010-09-30T10:15:39Z</time>
      </trkpt>
      <trkpt lat="44.18425" lon="7.22509">
        <ele>2145.495279</ele>
        <time>2010-09-30T10:15:42Z</time>
      </trkpt>
      <trkpt lat="44.18423" lon="7.22506">
        <ele>2145.626361</ele>
        <time>2010-09-30T10:15:44Z</time>
      </trkpt>
      <trkpt lat="44.1842" lon="7.22498">
        <ele>2145.740954</ele>
        <time>2010-09-30T10:15:47Z</time>
      </trkpt>
      <trkpt lat="44.18416" lon="7.22494">
        <ele>2145.843755</ele>
        <time>2010-09-30T10:15:50Z</time>
      </trkpt>
      <trkpt lat="44.18412" lon="7.22492">
        <ele>2145.944166</ele>
        <time>2010-09-30T10:15:53Z</time>
      </trkpt>
      <trkpt lat="44.18409" lon="7.2249">
        <ele>2146.071421</ele>
        <time>2010-09-30T10:15:56Z</time>
      </trkpt>
      <trkpt lat="44.18406" lon="7.22489">
        <ele>2146.257211</ele>
        <time>2010-09-30T10:15:59Z</time>
      </trkpt>
      <trkpt lat="44.18403" lon="7.22488">
        <ele>2146.495952</ele>
        <time>2010-09-30T10:16:01Z</time>
      </trkpt>
      <trkpt lat="44.184" lon="7.22489">
        <ele>2146.750654</ele>
        <time>2010-09-30T10:16:03Z</time>
      </trkpt>
      <trkpt lat="44.18396" lon="7.22488">
        <ele>2146.990238</ele>
        <time>2010-09-30T10:16:06Z</time>
      </trkpt>
      <trkpt lat="44.18393" lon="7.22488">
        <ele>2147.186692</ele>
        <time>2010-09-30T10:16:09Z</time>
      </trkpt>
      <trkpt lat="44.1839" lon="7.22488">
        <ele>2147.32031</ele>
        <time>2010-09-30T10:16:12Z</time>
      </trkpt>
      <trkpt lat="44.18386" lon="7.22488">
        <ele>2147.395345</ele>
        <time>2010-09-30T10:16:15Z</time>
      </trkpt>
      <trkpt lat="44.18382" lon="7.22489">
        <ele>2147.432188</ele>
        <time>2010-09-30T10:16:18Z</time>
      </trkpt>
      <trkpt lat="44.18379" lon="7.2249">
        <ele>2147.449342</ele>
        <time>2010-09-30T10:16:21Z</time>
      </trkpt>
      <trkpt lat="44.18376" lon="7.2249">
        <ele>2147.457787</ele>
        <time>2010-09-30T10:16:24Z</time>
      </trkpt>
      <trkpt lat="44.18371" lon="7.22487">
        <ele>2147.461275</ele>
        <time>2010-09-30T10:16:27Z</time>
      </trkpt>
      <trkpt lat="44.18366" lon="7.22486">
        <ele>2147.462064</ele>
        <time>2010-09-30T10:16:30Z</time>
      </trkpt>
      <trkpt lat="44.18363" lon="7.22486">
        <ele>2147.46276</ele>
        <time>2010-09-30T10:16:32Z</time>
      </trkpt>
      <trkpt lat="44.18359" lon="7.22485">
        <ele>2147.463695</ele>
        <time>2010-09-30T10:16:35Z</time>
      </trkpt>
      <trkpt lat="44.18356" lon="7.22484">
        <ele>2147.464233</ele>
        <time>2010-09-30T10:16:38Z</time>
      </trkpt>
      <trkpt lat="44.18352" lon="7.22483">
        <ele>2147.46788</ele>
        <time>2010-09-30T10:16:41Z</time>
      </trkpt>
      <trkpt lat="44.1835" lon="7.22485">
        <ele>2147.483446</ele>
        <time>2010-09-30T10:16:44Z</time>
      </trkpt>
      <trkpt lat="44.18348" lon="7.2249">
        <ele>2147.521055</ele>
        <time>2010-09-30T10:16:47Z</time>
      </trkpt>
      <trkpt lat="44.1835" lon="7.22495">
        <ele>2147.585857</ele>
        <time>2010-09-30T10:16:50Z</time>
      </trkpt>
      <trkpt lat="44.18352" lon="7.22498">
        <ele>2147.672647</ele>
        <time>2010-09-30T10:16:52Z</time>
      </trkpt>
      <trkpt lat="44.18354" lon="7.22501">
        <ele>2147.772324</ele>
        <time>2010-09-30T10:16:54Z</time>
      </trkpt>
      <trkpt lat="44.18355" lon="7.22505">
        <ele>2147.88425</ele>
        <time>2010-09-30T10:16:58Z</time>
      </trkpt>
      <trkpt lat="44.18352" lon="7.22506">
        <ele>2148.004403</ele>
        <time>2010-09-30T10:17:03Z</time>
      </trkpt>
      <trkpt lat="44.18349" lon="7.22505">
        <ele>2148.117476</ele>
        <time>2010-09-30T10:17:06Z</time>
      </trkpt>
      <trkpt lat="44.18345" lon="7.22503">
        <ele>2148.226928</ele>
        <time>2010-09-30T10:17:09Z</time>
      </trkpt>
      <trkpt lat="44.18342" lon="7.225">
        <ele>2148.333267</ele>
        <time>2010-09-30T10:17:12Z</time>
      </trkpt>
      <trkpt lat="44.18339" lon="7.22498">
        <ele>2148.405963</ele>
        <time>2010-09-30T10:17:17Z</time>
      </trkpt>
      <trkpt lat="44.18336" lon="7.22497">
        <ele>2148.43033</ele>
        <time>2010-09-30T10:17:21Z</time>
      </trkpt>
      <trkpt lat="44.18333" lon="7.22497">
        <ele>2148.426523</ele>
        <time>2010-09-30T10:17:24Z</time>
      </trkpt>
      <trkpt lat="44.1833" lon="7.22498">
        <ele>2148.413925</ele>
        <time>2010-09-30T10:17:28Z</time>
      </trkpt>
      <trkpt lat="44.18327" lon="7.22496">
        <ele>2148.403806</ele>
        <time>2010-09-30T10:17:32Z</time>
      </trkpt>
      <trkpt lat="44.18324" lon="7.22494">
        <ele>2148.399618</ele>
        <time>2010-09-30T10:17:35Z</time>
      </trkpt>
      <trkpt lat="44.18321" lon="7.22492">
        <ele>2148.399521</ele>
        <time>2010-09-30T10:17:38Z</time>
      </trkpt>
      <trkpt lat="44.18318" lon="7.2249">
        <ele>2148.41212</ele>
        <time>2010-09-30T10:17:41Z</time>
      </trkpt>
      <trkpt lat="44.18316" lon="7.22487">
        <ele>2148.461199</ele>
        <time>2010-09-30T10:17:45Z</time>
      </trkpt>
      <trkpt lat="44.18316" lon="7.22484">
        <ele>2148.561587</ele>
        <time>2010-09-30T10:17:50Z</time>
      </trkpt>
      <trkpt lat="44.18318" lon="7.22481">
        <ele>2148.700387</ele>
        <time>2010-09-30T10:17:53Z</time>
      </trkpt>
      <trkpt lat="44.18321" lon="7.22478">
        <ele>2148.856609</ele>
        <time>2010-09-30T10:17:56Z</time>
      </trkpt>
      <trkpt lat="44.18323" lon="7.22475">
        <ele>2149.034428</ele>
        <time>2010-09-30T10:17:58Z</time>
      </trkpt>
      <trkpt lat="44.18327" lon="7.22473">
        <ele>2149.250889</ele>
        <time>2010-09-30T10:18:01Z</time>
      </trkpt>
      <trkpt lat="44.18331" lon="7.22469">
        <ele>2149.512083</ele>
        <time>2010-09-30T10:18:04Z</time>
      </trkpt>
      <trkpt lat="44.18332" lon="7.22465">
        <ele>2149.809076</ele>
        <time>2010-09-30T10:18:06Z</time>
      </trkpt>
      <trkpt lat="44.18334" lon="7.22458">
        <ele>2150.139333</ele>
        <time>2010-09-30T10:18:09Z</time>
      </trkpt>
      <trkpt lat="44.18334" lon="7.22454">
        <ele>2150.513679</ele>
        <time>2010-09-30T10:18:11Z</time>
      </trkpt>
      <trkpt lat="44.18335" lon="7.22451">
        <ele>2150.912198</ele>
        <time>2010-09-30T10:18:13Z</time>
      </trkpt>
      <trkpt lat="44.18336" lon="7.22446">
        <ele>2151.298624</ele>
        <time>2010-09-30T10:18:15Z</time>
      </trkpt>
      <trkpt lat="44.18338" lon="7.22441">
        <ele>2151.658511</ele>
        <time>2010-09-30T10:18:18Z</time>
      </trkpt>
      <trkpt lat="44.1834" lon="7.22436">
        <ele>2151.975186</ele>
        <time>2010-09-30T10:18:21Z</time>
      </trkpt>
      <trkpt lat="44.18342" lon="7.2243">
        <ele>2152.246597</ele>
        <time>2010-09-30T10:18:24Z</time>
      </trkpt>
      <trkpt lat="44.18343" lon="7.22426">
        <ele>2152.527193</ele>
        <time>2010-09-30T10:18:27Z</time>
      </trkpt>
      <trkpt lat="44.18346" lon="7.22417">
        <ele>2152.877067</ele>
        <time>2010-09-30T10:18:33Z</time>
      </trkpt>
      <trkpt lat="44.18347" lon="7.22411">
        <ele>2153.310646</ele>
        <time>2010-09-30T10:18:36Z</time>
      </trkpt>
      <trkpt lat="44.18349" lon="7.22406">
        <ele>2153.802632</ele>
        <time>2010-09-30T10:18:42Z</time>
      </trkpt>
      <trkpt lat="44.18352" lon="7.22404">
        <ele>2154.390779</ele>
        <time>2010-09-30T10:18:45Z</time>
      </trkpt>
      <trkpt lat="44.18354" lon="7.22401">
        <ele>2155.127884</ele>
        <time>2010-09-30T10:18:48Z</time>
      </trkpt>
      <trkpt lat="44.18356" lon="7.22398">
        <ele>2156.073519</ele>
        <time>2010-09-30T10:18:51Z</time>
      </trkpt>
      <trkpt lat="44.18358" lon="7.22395">
        <ele>2157.238596</ele>
        <time>2010-09-30T10:18:54Z</time>
      </trkpt>
      <trkpt lat="44.1836" lon="7.22392">
        <ele>2158.470615</ele>
        <time>2010-09-30T10:18:57Z</time>
      </trkpt>
      <trkpt lat="44.1836" lon="7.22387">
        <ele>2159.58063</ele>
        <time>2010-09-30T10:19:01Z</time>
      </trkpt>
      <trkpt lat="44.18359" lon="7.22383">
        <ele>2160.538618</ele>
        <time>2010-09-30T10:19:04Z</time>
      </trkpt>
      <trkpt lat="44.18357" lon="7.22378">
        <ele>2161.392777</ele>
        <time>2010-09-30T10:19:07Z</time>
      </trkpt>
      <trkpt lat="44.18355" lon="7.22374">
        <ele>2162.240634</ele>
        <time>2010-09-30T10:19:09Z</time>
      </trkpt>
      <trkpt lat="44.18352" lon="7.22368">
        <ele>2163.120442</ele>
        <time>2010-09-30T10:19:12Z</time>
      </trkpt>
      <trkpt lat="44.18351" lon="7.22365">
        <ele>2163.951514</ele>
        <time>2010-09-30T10:19:14Z</time>
      </trkpt>
      <trkpt lat="44.18349" lon="7.22361">
        <ele>2164.63417</ele>
        <time>2010-09-30T10:19:16Z</time>
      </trkpt>
      <trkpt lat="44.18347" lon="7.22356">
        <ele>2165.172366</ele>
        <time>2010-09-30T10:19:19Z</time>
      </trkpt>
      <trkpt lat="44.18346" lon="7.22352">
        <ele>2165.635619</ele>
        <time>2010-09-30T10:19:22Z</time>
      </trkpt>
      <trkpt lat="44.18345" lon="7.22348">
        <ele>2166.074827</ele>
        <time>2010-09-30T10:19:25Z</time>
      </trkpt>
      <trkpt lat="44.18344" lon="7.22344">
        <ele>2166.534638</ele>
        <time>2010-09-30T10:19:28Z</time>
      </trkpt>
      <trkpt lat="44.18343" lon="7.2234">
        <ele>2167.066811</ele>
        <time>2010-09-30T10:19:31Z</time>
      </trkpt>
      <trkpt lat="44.18342" lon="7.22337">
        <ele>2167.65977</ele>
        <time>2010-09-30T10:19:34Z</time>
      </trkpt>
      <trkpt lat="44.18341" lon="7.22332">
        <ele>2168.272546</ele>
        <time>2010-09-30T10:19:38Z</time>
      </trkpt>
      <trkpt lat="44.18339" lon="7.22328">
        <ele>2168.892471</ele>
        <time>2010-09-30T10:19:41Z</time>
      </trkpt>
      <trkpt lat="44.18338" lon="7.22323">
        <ele>2169.516374</ele>
        <time>2010-09-30T10:19:44Z</time>
      </trkpt>
      <trkpt lat="44.18336" lon="7.22319">
        <ele>2170.137402</ele>
        <time>2010-09-30T10:19:47Z</time>
      </trkpt>
      <trkpt lat="44.18335" lon="7.22314">
        <ele>2170.717395</ele>
        <time>2010-09-30T10:19:50Z</time>
      </trkpt>
      <trkpt lat="44.18334" lon="7.2231">
        <ele>2171.201344</ele>
        <time>2010-09-30T10:19:53Z</time>
      </trkpt>
      <trkpt lat="44.18333" lon="7.22305">
        <ele>2171.594462</ele>
        <time>2010-09-30T10:19:56Z</time>
      </trkpt>
      <trkpt lat="44.18333" lon="7.22301">
        <ele>2171.950534</ele>
        <time>2010-09-30T10:19:59Z</time>
      </trkpt>
      <trkpt lat="44.18332" lon="7.22297">
        <ele>2172.29284</ele>
        <time>2010-09-30T10:20:02Z</time>
      </trkpt>
      <trkpt lat="44.18331" lon="7.22293">
        <ele>2172.622915</ele>
        <time>2010-09-30T10:20:05Z</time>
      </trkpt>
      <trkpt lat="44.18331" lon="7.22288">
        <ele>2172.944692</ele>
        <time>2010-09-30T10:20:08Z</time>
      </trkpt>
      <trkpt lat="44.18332" lon="7.22283">
        <ele>2173.261431</ele>
        <time>2010-09-30T10:20:11Z</time>
      </trkpt>
      <trkpt lat="44.18332" lon="7.22278">
        <ele>2173.572213</ele>
        <time>2010-09-30T10:20:14Z</time>
      </trkpt>
      <trkpt lat="44.18333" lon="7.22272">
        <ele>2173.876453</ele>
        <time>2010-09-30T10:20:17Z</time>
      </trkpt>
      <trkpt lat="44.18334" lon="7.22268">
        <ele>2174.174775</ele>
        <time>2010-09-30T10:20:19Z</time>
      </trkpt>
      <trkpt lat="44.18335" lon="7.22264">
        <ele>2174.471944</ele>
        <time>2010-09-30T10:20:21Z</time>
      </trkpt>
      <trkpt lat="44.18336" lon="7.2226">
        <ele>2174.788623</ele>
        <time>2010-09-30T10:20:23Z</time>
      </trkpt>
      <trkpt lat="44.18338" lon="7.22256">
        <ele>2175.146951</ele>
        <time>2010-09-30T10:20:26Z</time>
      </trkpt>
      <trkpt lat="44.1834" lon="7.22253">
        <ele>2175.551361</ele>
        <time>2010-09-30T10:20:29Z</time>
      </trkpt>
      <trkpt lat="44.18342" lon="7.22249">
        <ele>2176.000718</ele>
        <time>2010-09-30T10:20:32Z</time>
      </trkpt>
      <trkpt lat="44.18345" lon="7.22241">
        <ele>2176.526241</ele>
        <time>2010-09-30T10:20:35Z</time>
      </trkpt>
      <trkpt lat="44.18347" lon="7.22235">
        <ele>2177.172645</ele>
        <time>2010-09-30T10:20:38Z</time>
      </trkpt>
      <trkpt lat="44.18348" lon="7.22227">
        <ele>2177.973083</ele>
        <time>2010-09-30T10:20:40Z</time>
      </trkpt>
      <trkpt lat="44.18348" lon="7.22224">
        <ele>2179.041332</ele>
        <time>2010-09-30T10:20:44Z</time>
      </trkpt>
      <trkpt lat="44.18347" lon="7.22219">
        <ele>2180.526867</ele>
        <time>2010-09-30T10:20:49Z</time>
      </trkpt>
      <trkpt lat="44.18349" lon="7.22216">
        <ele>2182.348828</ele>
        <time>2010-09-30T10:20:52Z</time>
      </trkpt>
      <trkpt lat="44.18351" lon="7.22213">
        <ele>2184.488994</ele>
        <time>2010-09-30T10:20:55Z</time>
      </trkpt>
      <trkpt lat="44.18351" lon="7.22213">
        <ele>2186.706415</ele>
        <time>2010-09-30T10:21:07Z</time>
      </trkpt>
      <trkpt lat="44.18351" lon="7.22213">
        <ele>2188.246772</ele>
        <time>2010-09-30T10:21:18Z</time>
      </trkpt>
      <trkpt lat="44.18355" lon="7.22175">
        <ele>2189.357732</ele>
        <time>2010-09-30T10:21:47Z</time>
      </trkpt>
      <trkpt lat="44.18355" lon="7.2217">
        <ele>2191.165757</ele>
        <time>2010-09-30T10:21:50Z</time>
      </trkpt>
      <trkpt lat="44.18355" lon="7.22165">
        <ele>2193.709303</ele>
        <time>2010-09-30T10:21:53Z</time>
      </trkpt>
      <trkpt lat="44.18355" lon="7.22161">
        <ele>2198.274128</ele>
        <time>2010-09-30T10:21:56Z</time>
      </trkpt>
      <trkpt lat="44.18356" lon="7.22157">
        <ele>2205.685012</ele>
        <time>2010-09-30T10:21:59Z</time>
      </trkpt>
      <trkpt lat="44.18358" lon="7.22153">
        <ele>2212.754163</ele>
        <time>2010-09-30T10:22:03Z</time>
      </trkpt>
      <trkpt lat="44.18358" lon="7.22153">
        <ele>2216.47064</ele>
        <time>2010-09-30T10:22:11Z</time>
      </trkpt>
      <trkpt lat="44.18347" lon="7.22189">
        <ele>2217.588055</ele>
        <time>2010-09-30T10:22:36Z</time>
      </trkpt>
      <trkpt lat="44.18344" lon="7.22194">
        <ele>2217.827237</ele>
        <time>2010-09-30T10:22:39Z</time>
      </trkpt>
      <trkpt lat="44.18342" lon="7.22198">
        <ele>2218.322968</ele>
        <time>2010-09-30T10:22:41Z</time>
      </trkpt>
      <trkpt lat="44.1834" lon="7.22201">
        <ele>2219.6894</ele>
        <time>2010-09-30T10:22:43Z</time>
      </trkpt>
      <trkpt lat="44.18336" lon="7.22205">
        <ele>2221.877044</ele>
        <time>2010-09-30T10:22:46Z</time>
      </trkpt>
      <trkpt lat="44.18334" lon="7.22209">
        <ele>2223.866049</ele>
        <time>2010-09-30T10:22:49Z</time>
      </trkpt>
      <trkpt lat="44.18336" lon="7.22213">
        <ele>2224.921315</ele>
        <time>2010-09-30T10:22:52Z</time>
      </trkpt>
      <trkpt lat="44.18335" lon="7.22219">
        <ele>2225.317935</ele>
        <time>2010-09-30T10:22:55Z</time>
      </trkpt>
      <trkpt lat="44.18335" lon="7.22223">
        <ele>2225.517454</ele>
        <time>2010-09-30T10:22:57Z</time>
      </trkpt>
      <trkpt lat="44.18334" lon="7.22229">
        <ele>2225.791286</ele>
        <time>2010-09-30T10:23:00Z</time>
      </trkpt>
      <trkpt lat="44.18332" lon="7.22234">
        <ele>2226.204119</ele>
        <time>2010-09-30T10:23:02Z</time>
      </trkpt>
      <trkpt lat="44.1833" lon="7.2224">
        <ele>2226.690077</ele>
        <time>2010-09-30T10:23:05Z</time>
      </trkpt>
      <trkpt lat="44.18326" lon="7.22243">
        <ele>2227.172824</ele>
        <time>2010-09-30T10:23:08Z</time>
      </trkpt>
      <trkpt lat="44.18324" lon="7.22245">
        <ele>2227.627986</ele>
        <time>2010-09-30T10:23:10Z</time>
      </trkpt>
      <trkpt lat="44.18321" lon="7.22247">
        <ele>2228.058825</ele>
        <time>2010-09-30T10:23:12Z</time>
      </trkpt>
      <trkpt lat="44.18318" lon="7.22249">
        <ele>2228.48727</ele>
        <time>2010-09-30T10:23:15Z</time>
      </trkpt>
      <trkpt lat="44.18315" lon="7.22252">
        <ele>2228.91515</ele>
        <time>2010-09-30T10:23:18Z</time>
      </trkpt>
      <trkpt lat="44.18311" lon="7.22254">
        <ele>2229.301175</ele>
        <time>2010-09-30T10:23:21Z</time>
      </trkpt>
      <trkpt lat="44.18308" lon="7.22256">
        <ele>2229.651102</ele>
        <time>2010-09-30T10:23:23Z</time>
      </trkpt>
      <trkpt lat="44.18306" lon="7.22259">
        <ele>2230.004446</ele>
        <time>2010-09-30T10:23:27Z</time>
      </trkpt>
      <trkpt lat="44.18303" lon="7.22263">
        <ele>2230.360258</ele>
        <time>2010-09-30T10:23:30Z</time>
      </trkpt>
      <trkpt lat="44.18301" lon="7.22266">
        <ele>2230.682355</ele>
        <time>2010-09-30T10:23:33Z</time>
      </trkpt>
      <trkpt lat="44.18301" lon="7.2227">
        <ele>2230.976683</ele>
        <time>2010-09-30T10:23:37Z</time>
      </trkpt>
      <trkpt lat="44.18301" lon="7.22276">
        <ele>2231.281479</ele>
        <time>2010-09-30T10:23:40Z</time>
      </trkpt>
      <trkpt lat="44.18299" lon="7.22284">
        <ele>2231.60096</ele>
        <time>2010-09-30T10:23:43Z</time>
      </trkpt>
      <trkpt lat="44.18298" lon="7.22289">
        <ele>2231.945305</ele>
        <time>2010-09-30T10:23:46Z</time>
      </trkpt>
      <trkpt lat="44.18298" lon="7.22293">
        <ele>2232.349408</ele>
        <time>2010-09-30T10:23:48Z</time>
      </trkpt>
      <trkpt lat="44.18297" lon="7.22299">
        <ele>2232.795292</ele>
        <time>2010-09-30T10:23:51Z</time>
      </trkpt>
      <trkpt lat="44.18296" lon="7.22304">
        <ele>2233.231817</ele>
        <time>2010-09-30T10:23:54Z</time>
      </trkpt>
      <trkpt lat="44.18296" lon="7.2231">
        <ele>2233.615554</ele>
        <time>2010-09-30T10:23:57Z</time>
      </trkpt>
      <trkpt lat="44.18296" lon="7.22315">
        <ele>2233.934501</ele>
        <time>2010-09-30T10:23:59Z</time>
      </trkpt>
      <trkpt lat="44.18296" lon="7.2232">
        <ele>2234.227513</ele>
        <time>2010-09-30T10:24:02Z</time>
      </trkpt>
      <trkpt lat="44.18296" lon="7.22324">
        <ele>2234.533278</ele>
        <time>2010-09-30T10:24:04Z</time>
      </trkpt>
      <trkpt lat="44.18296" lon="7.22328">
        <ele>2234.839999</ele>
        <time>2010-09-30T10:24:06Z</time>
      </trkpt>
      <trkpt lat="44.18294" lon="7.22332">
        <ele>2235.132631</ele>
        <time>2010-09-30T10:24:09Z</time>
      </trkpt>
      <trkpt lat="44.18293" lon="7.22336">
        <ele>2235.413502</ele>
        <time>2010-09-30T10:24:12Z</time>
      </trkpt>
      <trkpt lat="44.1829" lon="7.2234">
        <ele>2235.672321</ele>
        <time>2010-09-30T10:24:15Z</time>
      </trkpt>
      <trkpt lat="44.18287" lon="7.22341">
        <ele>2235.906708</ele>
        <time>2010-09-30T10:24:18Z</time>
      </trkpt>
      <trkpt lat="44.18283" lon="7.22342">
        <ele>2236.139115</ele>
        <time>2010-09-30T10:24:21Z</time>
      </trkpt>
      <trkpt lat="44.18281" lon="7.22344">
        <ele>2236.371003</ele>
        <time>2010-09-30T10:24:23Z</time>
      </trkpt>
      <trkpt lat="44.18277" lon="7.22345">
        <ele>2236.582128</ele>
        <time>2010-09-30T10:24:26Z</time>
      </trkpt>
      <trkpt lat="44.18274" lon="7.22345">
        <ele>2236.756556</ele>
        <time>2010-09-30T10:24:30Z</time>
      </trkpt>
      <trkpt lat="44.1827" lon="7.22346">
        <ele>2236.888487</ele>
        <time>2010-09-30T10:24:32Z</time>
      </trkpt>
      <trkpt lat="44.18265" lon="7.22346">
        <ele>2236.990922</ele>
        <time>2010-09-30T10:24:35Z</time>
      </trkpt>
      <trkpt lat="44.18262" lon="7.22346">
        <ele>2237.09585</ele>
        <time>2010-09-30T10:24:37Z</time>
      </trkpt>
      <trkpt lat="44.18259" lon="7.22348">
        <ele>2237.214789</ele>
        <time>2010-09-30T10:24:39Z</time>
      </trkpt>
      <trkpt lat="44.18254" lon="7.2235">
        <ele>2237.328198</ele>
        <time>2010-09-30T10:24:42Z</time>
      </trkpt>
      <trkpt lat="44.1825" lon="7.22352">
        <ele>2237.419855</ele>
        <time>2010-09-30T10:24:45Z</time>
      </trkpt>
      <trkpt lat="44.18245" lon="7.22355">
        <ele>2237.488005</ele>
        <time>2010-09-30T10:24:48Z</time>
      </trkpt>
      <trkpt lat="44.18239" lon="7.22359">
        <ele>2237.541589</ele>
        <time>2010-09-30T10:24:51Z</time>
      </trkpt>
      <trkpt lat="44.18234" lon="7.22362">
        <ele>2237.594907</ele>
        <time>2010-09-30T10:24:54Z</time>
      </trkpt>
      <trkpt lat="44.18232" lon="7.22364">
        <ele>2237.646189</ele>
        <time>2010-09-30T10:24:56Z</time>
      </trkpt>
      <trkpt lat="44.18228" lon="7.22368">
        <ele>2237.68154</ele>
        <time>2010-09-30T10:24:59Z</time>
      </trkpt>
      <trkpt lat="44.18225" lon="7.2237">
        <ele>2237.696374</ele>
        <time>2010-09-30T10:25:01Z</time>
      </trkpt>
      <trkpt lat="44.18223" lon="7.22372">
        <ele>2237.698789</ele>
        <time>2010-09-30T10:25:03Z</time>
      </trkpt>
      <trkpt lat="44.18221" lon="7.22375">
        <ele>2237.697967</ele>
        <time>2010-09-30T10:25:05Z</time>
      </trkpt>
      <trkpt lat="44.18218" lon="7.22379">
        <ele>2237.699767</ele>
        <time>2010-09-30T10:25:08Z</time>
      </trkpt>
      <trkpt lat="44.18214" lon="7.22382">
        <ele>2237.707896</ele>
        <time>2010-09-30T10:25:11Z</time>
      </trkpt>
      <trkpt lat="44.18212" lon="7.22385">
        <ele>2237.723257</ele>
        <time>2010-09-30T10:25:13Z</time>
      </trkpt>
      <trkpt lat="44.1821" lon="7.22388">
        <ele>2237.74511</ele>
        <time>2010-09-30T10:25:15Z</time>
      </trkpt>
      <trkpt lat="44.18209" lon="7.22391">
        <ele>2237.770779</ele>
        <time>2010-09-30T10:25:17Z</time>
      </trkpt>
      <trkpt lat="44.18205" lon="7.22394">
        <ele>2237.793791</ele>
        <time>2010-09-30T10:25:20Z</time>
      </trkpt>
      <trkpt lat="44.18202" lon="7.22397">
        <ele>2237.810543</ele>
        <time>2010-09-30T10:25:23Z</time>
      </trkpt>
      <trkpt lat="44.18199" lon="7.22399">
        <ele>2237.822129</ele>
        <time>2010-09-30T10:25:26Z</time>
      </trkpt>
      <trkpt lat="44.18196" lon="7.22402">
        <ele>2237.828497</ele>
        <time>2010-09-30T10:25:29Z</time>
      </trkpt>
      <trkpt lat="44.18193" lon="7.22403">
        <ele>2237.829984</ele>
        <time>2010-09-30T10:25:32Z</time>
      </trkpt>
      <trkpt lat="44.1819" lon="7.22405">
        <ele>2237.827129</ele>
        <time>2010-09-30T10:25:35Z</time>
      </trkpt>
      <trkpt lat="44.1819" lon="7.22405">
        <ele>2237.816983</ele>
        <time>2010-09-30T10:25:45Z</time>
      </trkpt>
      <trkpt lat="44.1819" lon="7.22405">
        <ele>2237.797065</ele>
        <time>2010-09-30T10:26:06Z</time>
      </trkpt>
      <trkpt lat="44.18212" lon="7.224">
        <ele>2237.769355</ele>
        <time>2010-09-30T10:27:21Z</time>
      </trkpt>
      <trkpt lat="44.18212" lon="7.224">
        <ele>2237.646737</ele>
        <time>2010-09-30T10:27:25Z</time>
      </trkpt>
      <trkpt lat="44.18212" lon="7.224">
        <ele>2237.13463</ele>
        <time>2010-09-30T10:27:28Z</time>
      </trkpt>
      <trkpt lat="44.18237" lon="7.22411">
        <ele>2236.230645</ele>
        <time>2010-09-30T10:30:38Z</time>
      </trkpt>
      <trkpt lat="44.18237" lon="7.22411">
        <ele>2235.44104</ele>
        <time>2010-09-30T10:30:42Z</time>
      </trkpt>
      <trkpt lat="44.18237" lon="7.22411">
        <ele>2235.074312</ele>
        <time>2010-09-30T10:31:11Z</time>
      </trkpt>
      <trkpt lat="44.18267" lon="7.22417">
        <ele>2234.789879</ele>
        <time>2010-09-30T10:31:41Z</time>
      </trkpt>
      <trkpt lat="44.1827" lon="7.22419">
        <ele>2234.276321</ele>
        <time>2010-09-30T10:31:45Z</time>
      </trkpt>
      <trkpt lat="44.183" lon="7.22431">
        <ele>2233.645331</ele>
        <time>2010-09-30T10:32:42Z</time>
      </trkpt>
      <trkpt lat="44.18303" lon="7.22434">
        <ele>2232.475708</ele>
        <time>2010-09-30T10:32:47Z</time>
      </trkpt>
      <trkpt lat="44.18305" lon="7.22437">
        <ele>2230.42416</ele>
        <time>2010-09-30T10:32:52Z</time>
      </trkpt>
      <trkpt lat="44.18307" lon="7.2244">
        <ele>2228.276671</ele>
        <time>2010-09-30T10:32:56Z</time>
      </trkpt>
      <trkpt lat="44.18307" lon="7.22452">
        <ele>2226.831572</ele>
        <time>2010-09-30T10:33:17Z</time>
      </trkpt>
      <trkpt lat="44.18307" lon="7.22452">
        <ele>2226.124109</ele>
        <time>2010-09-30T10:34:31Z</time>
      </trkpt>
      <trkpt lat="44.1832" lon="7.22472">
        <ele>2225.931325</ele>
        <time>2010-09-30T10:35:17Z</time>
      </trkpt>
      <trkpt lat="44.1832" lon="7.22472">
        <ele>2225.747433</ele>
        <time>2010-09-30T10:35:20Z</time>
      </trkpt>
      <trkpt lat="44.1832" lon="7.22472">
        <ele>2224.52626</ele>
        <time>2010-09-30T10:36:11Z</time>
      </trkpt>
      <trkpt lat="44.1832" lon="7.22472">
        <ele>2223.801213</ele>
        <time>2010-09-30T10:36:12Z</time>
      </trkpt>
      <trkpt lat="44.18329" lon="7.22461">
        <ele>2223.224444</ele>
        <time>2010-09-30T10:36:13Z</time>
      </trkpt>
      <trkpt lat="44.18329" lon="7.22461">
        <ele>2222.745243</ele>
        <time>2010-09-30T10:36:15Z</time>
      </trkpt>
      <trkpt lat="44.18329" lon="7.22461">
        <ele>2222.294554</ele>
        <time>2010-09-30T10:36:15Z</time>
      </trkpt>
      <trkpt lat="44.18329" lon="7.22461">
        <ele>2221.811503</ele>
        <time>2010-09-30T10:36:16Z</time>
      </trkpt>
      <trkpt lat="44.18332" lon="7.22459">
        <ele>2221.177214</ele>
        <time>2010-09-30T10:36:16Z</time>
      </trkpt>
      <trkpt lat="44.18334" lon="7.22455">
        <ele>2220.473055</ele>
        <time>2010-09-30T10:36:19Z</time>
      </trkpt>
      <trkpt lat="44.18337" lon="7.22451">
        <ele>2219.218891</ele>
        <time>2010-09-30T10:36:22Z</time>
      </trkpt>
      <trkpt lat="44.18339" lon="7.22447">
        <ele>2217.016852</ele>
        <time>2010-09-30T10:36:25Z</time>
      </trkpt>
      <trkpt lat="44.1834" lon="7.22444">
        <ele>2214.814777</ele>
        <time>2010-09-30T10:36:28Z</time>
      </trkpt>
      <trkpt lat="44.18342" lon="7.2244">
        <ele>2213.507108</ele>
        <time>2010-09-30T10:36:31Z</time>
      </trkpt>
      <trkpt lat="44.18343" lon="7.22436">
        <ele>2212.829956</ele>
        <time>2010-09-30T10:36:34Z</time>
      </trkpt>
      <trkpt lat="44.18344" lon="7.22432">
        <ele>2212.343586</ele>
        <time>2010-09-30T10:36:37Z</time>
      </trkpt>
      <trkpt lat="44.18345" lon="7.22428">
        <ele>2211.803378</ele>
        <time>2010-09-30T10:36:40Z</time>
      </trkpt>
      <trkpt lat="44.18348" lon="7.22422">
        <ele>2211.168834</ele>
        <time>2010-09-30T10:36:46Z</time>
      </trkpt>
      <trkpt lat="44.1835" lon="7.22418">
        <ele>2210.494643</ele>
        <time>2010-09-30T10:36:49Z</time>
      </trkpt>
      <trkpt lat="44.18352" lon="7.22414">
        <ele>2209.83979</ele>
        <time>2010-09-30T10:36:52Z</time>
      </trkpt>
      <trkpt lat="44.18353" lon="7.2241">
        <ele>2209.189879</ele>
        <time>2010-09-30T10:36:55Z</time>
      </trkpt>
      <trkpt lat="44.18355" lon="7.22406">
        <ele>2208.533587</ele>
        <time>2010-09-30T10:36:58Z</time>
      </trkpt>
      <trkpt lat="44.18356" lon="7.22403">
        <ele>2207.950059</ele>
        <time>2010-09-30T10:37:01Z</time>
      </trkpt>
      <trkpt lat="44.18358" lon="7.224">
        <ele>2207.50054</ele>
        <time>2010-09-30T10:37:04Z</time>
      </trkpt>
      <trkpt lat="44.1836" lon="7.22397">
        <ele>2207.153031</ele>
        <time>2010-09-30T10:37:07Z</time>
      </trkpt>
      <trkpt lat="44.18362" lon="7.22393">
        <ele>2206.862766</ele>
        <time>2010-09-30T10:37:11Z</time>
      </trkpt>
      <trkpt lat="44.18364" lon="7.2239">
        <ele>2206.605521</ele>
        <time>2010-09-30T10:37:15Z</time>
      </trkpt>
      <trkpt lat="44.18366" lon="7.22386">
        <ele>2206.378396</ele>
        <time>2010-09-30T10:37:19Z</time>
      </trkpt>
      <trkpt lat="44.18367" lon="7.22381">
        <ele>2206.178497</ele>
        <time>2010-09-30T10:37:23Z</time>
      </trkpt>
      <trkpt lat="44.18368" lon="7.22377">
        <ele>2205.9997</ele>
        <time>2010-09-30T10:37:26Z</time>
      </trkpt>
      <trkpt lat="44.18367" lon="7.22374">
        <ele>2205.848735</ele>
        <time>2010-09-30T10:37:29Z</time>
      </trkpt>
      <trkpt lat="44.18365" lon="7.22369">
        <ele>2205.734559</ele>
        <time>2010-09-30T10:37:32Z</time>
      </trkpt>
      <trkpt lat="44.18363" lon="7.22365">
        <ele>2205.654069</ele>
        <time>2010-09-30T10:37:35Z</time>
      </trkpt>
      <trkpt lat="44.18361" lon="7.22361">
        <ele>2205.604891</ele>
        <time>2010-09-30T10:37:38Z</time>
      </trkpt>
      <trkpt lat="44.18359" lon="7.22357">
        <ele>2205.585345</ele>
        <time>2010-09-30T10:37:41Z</time>
      </trkpt>
      <trkpt lat="44.18357" lon="7.22354">
        <ele>2205.584659</ele>
        <time>2010-09-30T10:37:44Z</time>
      </trkpt>
      <trkpt lat="44.18355" lon="7.2235">
        <ele>2205.593052</ele>
        <time>2010-09-30T10:37:47Z</time>
      </trkpt>
      <trkpt lat="44.18355" lon="7.22346">
        <ele>2205.609187</ele>
        <time>2010-09-30T10:37:51Z</time>
      </trkpt>
      <trkpt lat="44.18354" lon="7.22343">
        <ele>2205.628946</ele>
        <time>2010-09-30T10:37:55Z</time>
      </trkpt>
      <trkpt lat="44.18353" lon="7.22339">
        <ele>2205.644797</ele>
        <time>2010-09-30T10:37:58Z</time>
      </trkpt>
      <trkpt lat="44.18352" lon="7.22335">
        <ele>2205.666538</ele>
        <time>2010-09-30T10:38:01Z</time>
      </trkpt>
      <trkpt lat="44.18351" lon="7.2233">
        <ele>2205.715366</ele>
        <time>2010-09-30T10:38:04Z</time>
      </trkpt>
      <trkpt lat="44.1835" lon="7.22324">
        <ele>2205.794876</ele>
        <time>2010-09-30T10:38:07Z</time>
      </trkpt>
      <trkpt lat="44.18349" lon="7.22319">
        <ele>2205.891078</ele>
        <time>2010-09-30T10:38:10Z</time>
      </trkpt>
      <trkpt lat="44.18347" lon="7.22315">
        <ele>2205.996729</ele>
        <time>2010-09-30T10:38:13Z</time>
      </trkpt>
      <trkpt lat="44.18346" lon="7.22312">
        <ele>2206.12508</ele>
        <time>2010-09-30T10:38:16Z</time>
      </trkpt>
      <trkpt lat="44.18344" lon="7.22307">
        <ele>2206.293925</ele>
        <time>2010-09-30T10:38:19Z</time>
      </trkpt>
      <trkpt lat="44.18343" lon="7.22303">
        <ele>2206.49614</ele>
        <time>2010-09-30T10:38:22Z</time>
      </trkpt>
      <trkpt lat="44.18342" lon="7.22299">
        <ele>2206.704108</ele>
        <time>2010-09-30T10:38:25Z</time>
      </trkpt>
      <trkpt lat="44.18341" lon="7.22296">
        <ele>2206.900835</ele>
        <time>2010-09-30T10:38:28Z</time>
      </trkpt>
      <trkpt lat="44.18339" lon="7.22292">
        <ele>2207.087261</ele>
        <time>2010-09-30T10:38:31Z</time>
      </trkpt>
      <trkpt lat="44.18338" lon="7.22288">
        <ele>2207.266695</ele>
        <time>2010-09-30T10:38:34Z</time>
      </trkpt>
      <trkpt lat="44.18338" lon="7.22283">
        <ele>2207.440372</ele>
        <time>2010-09-30T10:38:37Z</time>
      </trkpt>
      <trkpt lat="44.18339" lon="7.22279">
        <ele>2207.613171</ele>
        <time>2010-09-30T10:38:40Z</time>
      </trkpt>
      <trkpt lat="44.18339" lon="7.22274">
        <ele>2207.795116</ele>
        <time>2010-09-30T10:38:43Z</time>
      </trkpt>
      <trkpt lat="44.1834" lon="7.2227">
        <ele>2208.00293</ele>
        <time>2010-09-30T10:38:47Z</time>
      </trkpt>
      <trkpt lat="44.1834" lon="7.2227">
        <ele>2208.209082</ele>
        <time>2010-09-30T10:38:58Z</time>
      </trkpt>
      <trkpt lat="44.18351" lon="7.22232">
        <ele>2208.380896</ele>
        <time>2010-09-30T10:39:52Z</time>
      </trkpt>
      <trkpt lat="44.18352" lon="7.22228">
        <ele>2208.557907</ele>
        <time>2010-09-30T10:39:55Z</time>
      </trkpt>
      <trkpt lat="44.18352" lon="7.22224">
        <ele>2208.793873</ele>
        <time>2010-09-30T10:40:00Z</time>
      </trkpt>
      <trkpt lat="44.18349" lon="7.22225">
        <ele>2209.8888</ele>
        <time>2010-09-30T10:40:04Z</time>
      </trkpt>
      <trkpt lat="44.18348" lon="7.22221">
        <ele>2212.302732</ele>
        <time>2010-09-30T10:40:08Z</time>
      </trkpt>
      <trkpt lat="44.1835" lon="7.22217">
        <ele>2214.794115</ele>
        <time>2010-09-30T10:40:12Z</time>
      </trkpt>
      <trkpt lat="44.18353" lon="7.22216">
        <ele>2216.162277</ele>
        <time>2010-09-30T10:40:15Z</time>
      </trkpt>
      <trkpt lat="44.18355" lon="7.22213">
        <ele>2216.597559</ele>
        <time>2010-09-30T10:40:19Z</time>
      </trkpt>
      <trkpt lat="44.18356" lon="7.22209">
        <ele>2216.573633</ele>
        <time>2010-09-30T10:40:23Z</time>
      </trkpt>
      <trkpt lat="44.18356" lon="7.22205">
        <ele>2216.441526</ele>
        <time>2010-09-30T10:40:26Z</time>
      </trkpt>
      <trkpt lat="44.18356" lon="7.222">
        <ele>2216.365518</ele>
        <time>2010-09-30T10:40:29Z</time>
      </trkpt>
      <trkpt lat="44.18356" lon="7.22196">
        <ele>2216.378555</ele>
        <time>2010-09-30T10:40:32Z</time>
      </trkpt>
      <trkpt lat="44.18356" lon="7.22192">
        <ele>2216.451338</ele>
        <time>2010-09-30T10:40:35Z</time>
      </trkpt>
      <trkpt lat="44.18355" lon="7.22187">
        <ele>2216.546294</ele>
        <time>2010-09-30T10:40:37Z</time>
      </trkpt>
      <trkpt lat="44.18355" lon="7.22187">
        <ele>2216.630995</ele>
        <time>2010-09-30T10:40:47Z</time>
      </trkpt>
      <trkpt lat="44.18356" lon="7.22147">
        <ele>2216.693406</ele>
        <time>2010-09-30T10:41:24Z</time>
      </trkpt>
      <trkpt lat="44.18352" lon="7.22147">
        <ele>2216.761728</ele>
        <time>2010-09-30T10:41:27Z</time>
      </trkpt>
      <trkpt lat="44.18349" lon="7.22148">
        <ele>2216.875998</ele>
        <time>2010-09-30T10:41:30Z</time>
      </trkpt>
      <trkpt lat="44.18347" lon="7.22151">
        <ele>2217.942045</ele>
        <time>2010-09-30T10:41:34Z</time>
      </trkpt>
      <trkpt lat="44.18344" lon="7.22154">
        <ele>2220.535454</ele>
        <time>2010-09-30T10:41:38Z</time>
      </trkpt>
      <trkpt lat="44.1834" lon="7.22154">
        <ele>2223.342525</ele>
        <time>2010-09-30T10:41:42Z</time>
      </trkpt>
      <trkpt lat="44.18341" lon="7.22149">
        <ele>2225.067191</ele>
        <time>2010-09-30T10:41:46Z</time>
      </trkpt>
      <trkpt lat="44.18341" lon="7.22144">
        <ele>2225.976886</ele>
        <time>2010-09-30T10:41:50Z</time>
      </trkpt>
      <trkpt lat="44.18342" lon="7.2214">
        <ele>2226.607328</ele>
        <time>2010-09-30T10:41:53Z</time>
      </trkpt>
      <trkpt lat="44.18343" lon="7.22136">
        <ele>2227.235374</ele>
        <time>2010-09-30T10:41:57Z</time>
      </trkpt>
      <trkpt lat="44.18346" lon="7.22132">
        <ele>2227.898074</ele>
        <time>2010-09-30T10:42:01Z</time>
      </trkpt>
      <trkpt lat="44.18348" lon="7.2213">
        <ele>2228.513327</ele>
        <time>2010-09-30T10:42:04Z</time>
      </trkpt>
      <trkpt lat="44.18351" lon="7.22127">
        <ele>2228.987705</ele>
        <time>2010-09-30T10:42:07Z</time>
      </trkpt>
      <trkpt lat="44.18353" lon="7.22122">
        <ele>2229.295113</ele>
        <time>2010-09-30T10:42:10Z</time>
      </trkpt>
      <trkpt lat="44.18353" lon="7.22117">
        <ele>2229.477152</ele>
        <time>2010-09-30T10:42:13Z</time>
      </trkpt>
      <trkpt lat="44.18354" lon="7.22113">
        <ele>2229.618762</ele>
        <time>2010-09-30T10:42:16Z</time>
      </trkpt>
      <trkpt lat="44.18355" lon="7.22109">
        <ele>2229.803835</ele>
        <time>2010-09-30T10:42:19Z</time>
      </trkpt>
      <trkpt lat="44.18354" lon="7.22105">
        <ele>2230.047961</ele>
        <time>2010-09-30T10:42:22Z</time>
      </trkpt>
      <trkpt lat="44.18352" lon="7.22103">
        <ele>2230.322868</ele>
        <time>2010-09-30T10:42:29Z</time>
      </trkpt>
      <trkpt lat="44.18348" lon="7.22105">
        <ele>2230.623928</ele>
        <time>2010-09-30T10:42:32Z</time>
      </trkpt>
      <trkpt lat="44.18345" lon="7.22108">
        <ele>2230.956325</ele>
        <time>2010-09-30T10:42:35Z</time>
      </trkpt>
      <trkpt lat="44.18343" lon="7.22107">
        <ele>2231.317903</ele>
        <time>2010-09-30T10:42:38Z</time>
      </trkpt>
      <trkpt lat="44.1834" lon="7.22103">
        <ele>2231.674562</ele>
        <time>2010-09-30T10:42:42Z</time>
      </trkpt>
      <trkpt lat="44.18338" lon="7.221">
        <ele>2231.968421</ele>
        <time>2010-09-30T10:42:46Z</time>
      </trkpt>
      <trkpt lat="44.18335" lon="7.22102">
        <ele>2232.180087</ele>
        <time>2010-09-30T10:42:50Z</time>
      </trkpt>
      <trkpt lat="44.18333" lon="7.22105">
        <ele>2232.343143</ele>
        <time>2010-09-30T10:42:53Z</time>
      </trkpt>
      <trkpt lat="44.18331" lon="7.22108">
        <ele>2232.490829</ele>
        <time>2010-09-30T10:42:56Z</time>
      </trkpt>
      <trkpt lat="44.18327" lon="7.22109">
        <ele>2232.633781</ele>
        <time>2010-09-30T10:42:59Z</time>
      </trkpt>
      <trkpt lat="44.1833" lon="7.22106">
        <ele>2232.765297</ele>
        <time>2010-09-30T10:43:06Z</time>
      </trkpt>
      <trkpt lat="44.1833" lon="7.22106">
        <ele>2232.86941</ele>
        <time>2010-09-30T10:43:07Z</time>
      </trkpt>
      <trkpt lat="44.1833" lon="7.22106">
        <ele>2232.926926</ele>
        <time>2010-09-30T10:43:27Z</time>
      </trkpt>
      <trkpt lat="44.18318" lon="7.22072">
        <ele>2232.969019</ele>
        <time>2010-09-30T10:43:54Z</time>
      </trkpt>
      <trkpt lat="44.18317" lon="7.22068">
        <ele>2233.068365</ele>
        <time>2010-09-30T10:43:58Z</time>
      </trkpt>
      <trkpt lat="44.18316" lon="7.22064">
        <ele>2233.365006</ele>
        <time>2010-09-30T10:44:02Z</time>
      </trkpt>
      <trkpt lat="44.18314" lon="7.22061">
        <ele>2235.941091</ele>
        <time>2010-09-30T10:44:06Z</time>
      </trkpt>
      <trkpt lat="44.18312" lon="7.22057">
        <ele>2241.939511</ele>
        <time>2010-09-30T10:44:10Z</time>
      </trkpt>
      <trkpt lat="44.18311" lon="7.22053">
        <ele>2248.20914</ele>
        <time>2010-09-30T10:44:14Z</time>
      </trkpt>
      <trkpt lat="44.18309" lon="7.22048">
        <ele>2251.735419</ele>
        <time>2010-09-30T10:44:17Z</time>
      </trkpt>
      <trkpt lat="44.18308" lon="7.22044">
        <ele>2253.068415</ele>
        <time>2010-09-30T10:44:19Z</time>
      </trkpt>
      <trkpt lat="44.18308" lon="7.22039">
        <ele>2253.508969</ele>
        <time>2010-09-30T10:44:22Z</time>
      </trkpt>
      <trkpt lat="44.18311" lon="7.22035">
        <ele>2253.868217</ele>
        <time>2010-09-30T10:44:25Z</time>
      </trkpt>
      <trkpt lat="44.18315" lon="7.22031">
        <ele>2254.338154</ele>
        <time>2010-09-30T10:44:28Z</time>
      </trkpt>
      <trkpt lat="44.18317" lon="7.22029">
        <ele>2254.869103</ele>
        <time>2010-09-30T10:44:30Z</time>
      </trkpt>
      <trkpt lat="44.18319" lon="7.22024">
        <ele>2255.443601</ele>
        <time>2010-09-30T10:44:33Z</time>
      </trkpt>
      <trkpt lat="44.18321" lon="7.22019">
        <ele>2256.050529</ele>
        <time>2010-09-30T10:44:35Z</time>
      </trkpt>
      <trkpt lat="44.18322" lon="7.22012">
        <ele>2256.619922</ele>
        <time>2010-09-30T10:44:38Z</time>
      </trkpt>
      <trkpt lat="44.18322" lon="7.22008">
        <ele>2257.104065</ele>
        <time>2010-09-30T10:44:40Z</time>
      </trkpt>
      <trkpt lat="44.18323" lon="7.22004">
        <ele>2257.521218</ele>
        <time>2010-09-30T10:44:42Z</time>
      </trkpt>
      <trkpt lat="44.18323" lon="7.22">
        <ele>2257.93101</ele>
        <time>2010-09-30T10:44:44Z</time>
      </trkpt>
      <trkpt lat="44.18324" lon="7.21994">
        <ele>2258.36486</ele>
        <time>2010-09-30T10:44:47Z</time>
      </trkpt>
      <trkpt lat="44.18326" lon="7.21989">
        <ele>2258.793228</ele>
        <time>2010-09-30T10:44:50Z</time>
      </trkpt>
      <trkpt lat="44.18328" lon="7.21986">
        <ele>2259.179866</ele>
        <time>2010-09-30T10:44:53Z</time>
      </trkpt>
      <trkpt lat="44.1833" lon="7.21983">
        <ele>2259.560489</ele>
        <time>2010-09-30T10:44:56Z</time>
      </trkpt>
      <trkpt lat="44.18331" lon="7.21978">
        <ele>2259.991773</ele>
        <time>2010-09-30T10:45:00Z</time>
      </trkpt>
      <trkpt lat="44.18332" lon="7.21973">
        <ele>2260.482576</ele>
        <time>2010-09-30T10:45:03Z</time>
      </trkpt>
      <trkpt lat="44.18334" lon="7.21969">
        <ele>2260.991201</ele>
        <time>2010-09-30T10:45:06Z</time>
      </trkpt>
      <trkpt lat="44.18335" lon="7.21965">
        <ele>2261.488042</ele>
        <time>2010-09-30T10:45:08Z</time>
      </trkpt>
      <trkpt lat="44.18336" lon="7.2196">
        <ele>2261.955888</ele>
        <time>2010-09-30T10:45:11Z</time>
      </trkpt>
      <trkpt lat="44.18337" lon="7.21954">
        <ele>2262.377984</ele>
        <time>2010-09-30T10:45:14Z</time>
      </trkpt>
      <trkpt lat="44.18338" lon="7.21948">
        <ele>2262.745843</ele>
        <time>2010-09-30T10:45:17Z</time>
      </trkpt>
      <trkpt lat="44.18338" lon="7.21944">
        <ele>2263.076726</ele>
        <time>2010-09-30T10:45:19Z</time>
      </trkpt>
      <trkpt lat="44.18339" lon="7.21939">
        <ele>2263.412419</ele>
        <time>2010-09-30T10:45:22Z</time>
      </trkpt>
      <trkpt lat="44.1834" lon="7.21935">
        <ele>2263.787292</ele>
        <time>2010-09-30T10:45:25Z</time>
      </trkpt>
      <trkpt lat="44.18342" lon="7.21931">
        <ele>2264.179207</ele>
        <time>2010-09-30T10:45:29Z</time>
      </trkpt>
      <trkpt lat="44.18343" lon="7.21927">
        <ele>2264.559937</ele>
        <time>2010-09-30T10:45:32Z</time>
      </trkpt>
      <trkpt lat="44.18343" lon="7.21923">
        <ele>2264.944446</ele>
        <time>2010-09-30T10:45:35Z</time>
      </trkpt>
      <trkpt lat="44.18344" lon="7.21918">
        <ele>2265.381311</ele>
        <time>2010-09-30T10:45:38Z</time>
      </trkpt>
      <trkpt lat="44.18344" lon="7.21914">
        <ele>2265.887598</ele>
        <time>2010-09-30T10:45:41Z</time>
      </trkpt>
      <trkpt lat="44.18345" lon="7.2191">
        <ele>2266.414219</ele>
        <time>2010-09-30T10:45:44Z</time>
      </trkpt>
      <trkpt lat="44.18346" lon="7.21906">
        <ele>2266.899345</ele>
        <time>2010-09-30T10:45:47Z</time>
      </trkpt>
      <trkpt lat="44.18347" lon="7.21902">
        <ele>2267.329059</ele>
        <time>2010-09-30T10:45:50Z</time>
      </trkpt>
      <trkpt lat="44.18348" lon="7.21896">
        <ele>2267.709228</ele>
        <time>2010-09-30T10:45:53Z</time>
      </trkpt>
      <trkpt lat="44.1835" lon="7.21892">
        <ele>2268.043924</ele>
        <time>2010-09-30T10:45:56Z</time>
      </trkpt>
      <trkpt lat="44.18352" lon="7.21889">
        <ele>2268.336288</ele>
        <time>2010-09-30T10:45:58Z</time>
      </trkpt>
      <trkpt lat="44.18353" lon="7.21886">
        <ele>2268.59163</ele>
        <time>2010-09-30T10:46:00Z</time>
      </trkpt>
      <trkpt lat="44.18354" lon="7.21882">
        <ele>2268.821701</ele>
        <time>2010-09-30T10:46:02Z</time>
      </trkpt>
      <trkpt lat="44.18355" lon="7.21878">
        <ele>2269.037204</ele>
        <time>2010-09-30T10:46:04Z</time>
      </trkpt>
      <trkpt lat="44.18357" lon="7.21874">
        <ele>2269.238429</ele>
        <time>2010-09-30T10:46:07Z</time>
      </trkpt>
      <trkpt lat="44.18358" lon="7.21869">
        <ele>2269.427004</ele>
        <time>2010-09-30T10:46:10Z</time>
      </trkpt>
      <trkpt lat="44.18359" lon="7.21865">
        <ele>2269.613865</ele>
        <time>2010-09-30T10:46:12Z</time>
      </trkpt>
      <trkpt lat="44.18363" lon="7.2186">
        <ele>2269.813733</ele>
        <time>2010-09-30T10:46:15Z</time>
      </trkpt>
      <trkpt lat="44.18367" lon="7.21855">
        <ele>2270.037074</ele>
        <time>2010-09-30T10:46:18Z</time>
      </trkpt>
      <trkpt lat="44.18369" lon="7.21849">
        <ele>2270.270005</ele>
        <time>2010-09-30T10:46:21Z</time>
      </trkpt>
      <trkpt lat="44.1837" lon="7.21845">
        <ele>2270.523579</ele>
        <time>2010-09-30T10:46:23Z</time>
      </trkpt>
      <trkpt lat="44.18373" lon="7.2184">
        <ele>2270.897111</ele>
        <time>2010-09-30T10:46:26Z</time>
      </trkpt>
      <trkpt lat="44.18375" lon="7.21836">
        <ele>2271.503682</ele>
        <time>2010-09-30T10:46:28Z</time>
      </trkpt>
      <trkpt lat="44.18378" lon="7.21831">
        <ele>2272.300673</ele>
        <time>2010-09-30T10:46:31Z</time>
      </trkpt>
      <trkpt lat="44.18381" lon="7.21826">
        <ele>2273.166417</ele>
        <time>2010-09-30T10:46:34Z</time>
      </trkpt>
      <trkpt lat="44.18384" lon="7.21822">
        <ele>2274.031768</ele>
        <time>2010-09-30T10:46:37Z</time>
      </trkpt>
      <trkpt lat="44.18386" lon="7.21819">
        <ele>2274.893117</ele>
        <time>2010-09-30T10:46:39Z</time>
      </trkpt>
      <trkpt lat="44.18389" lon="7.21815">
        <ele>2275.797173</ele>
        <time>2010-09-30T10:46:42Z</time>
      </trkpt>
      <trkpt lat="44.18393" lon="7.21811">
        <ele>2276.773986</ele>
        <time>2010-09-30T10:46:45Z</time>
      </trkpt>
      <trkpt lat="44.18395" lon="7.21807">
        <ele>2277.723587</ele>
        <time>2010-09-30T10:46:47Z</time>
      </trkpt>
      <trkpt lat="44.18399" lon="7.21802">
        <ele>2278.561137</ele>
        <time>2010-09-30T10:46:50Z</time>
      </trkpt>
      <trkpt lat="44.18402" lon="7.21797">
        <ele>2279.321341</ele>
        <time>2010-09-30T10:46:53Z</time>
      </trkpt>
      <trkpt lat="44.18405" lon="7.21792">
        <ele>2280.021156</ele>
        <time>2010-09-30T10:46:56Z</time>
      </trkpt>
      <trkpt lat="44.18408" lon="7.21787">
        <ele>2280.626322</ele>
        <time>2010-09-30T10:46:59Z</time>
      </trkpt>
      <trkpt lat="44.18411" lon="7.21783">
        <ele>2281.16952</ele>
        <time>2010-09-30T10:47:02Z</time>
      </trkpt>
      <trkpt lat="44.18414" lon="7.21777">
        <ele>2281.695493</ele>
        <time>2010-09-30T10:47:05Z</time>
      </trkpt>
      <trkpt lat="44.18416" lon="7.21774">
        <ele>2282.19701</ele>
        <time>2010-09-30T10:47:07Z</time>
      </trkpt>
      <trkpt lat="44.18418" lon="7.2177">
        <ele>2282.663575</ele>
        <time>2010-09-30T10:47:09Z</time>
      </trkpt>
      <trkpt lat="44.18422" lon="7.21765">
        <ele>2283.114223</ele>
        <time>2010-09-30T10:47:12Z</time>
      </trkpt>
      <trkpt lat="44.18425" lon="7.2176">
        <ele>2283.56079</ele>
        <time>2010-09-30T10:47:15Z</time>
      </trkpt>
      <trkpt lat="44.18427" lon="7.21757">
        <ele>2283.978669</ele>
        <time>2010-09-30T10:47:17Z</time>
      </trkpt>
      <trkpt lat="44.18429" lon="7.21753">
        <ele>2284.368505</ele>
        <time>2010-09-30T10:47:19Z</time>
      </trkpt>
      <trkpt lat="44.18433" lon="7.21748">
        <ele>2284.767434</ele>
        <time>2010-09-30T10:47:22Z</time>
      </trkpt>
      <trkpt lat="44.18435" lon="7.21744">
        <ele>2285.165389</ele>
        <time>2010-09-30T10:47:24Z</time>
      </trkpt>
      <trkpt lat="44.18438" lon="7.21738">
        <ele>2285.513429</ele>
        <time>2010-09-30T10:47:27Z</time>
      </trkpt>
      <trkpt lat="44.18441" lon="7.21733">
        <ele>2285.806238</ele>
        <time>2010-09-30T10:47:30Z</time>
      </trkpt>
      <trkpt lat="44.18444" lon="7.21727">
        <ele>2286.067585</ele>
        <time>2010-09-30T10:47:33Z</time>
      </trkpt>
      <trkpt lat="44.18446" lon="7.21723">
        <ele>2286.319178</ele>
        <time>2010-09-30T10:47:35Z</time>
      </trkpt>
      <trkpt lat="44.18448" lon="7.21719">
        <ele>2286.587951</ele>
        <time>2010-09-30T10:47:37Z</time>
      </trkpt>
      <trkpt lat="44.1845" lon="7.21716">
        <ele>2286.881223</ele>
        <time>2010-09-30T10:47:39Z</time>
      </trkpt>
      <trkpt lat="44.18452" lon="7.21712">
        <ele>2287.166731</ele>
        <time>2010-09-30T10:47:41Z</time>
      </trkpt>
      <trkpt lat="44.18455" lon="7.21707">
        <ele>2287.410729</ele>
        <time>2010-09-30T10:47:44Z</time>
      </trkpt>
      <trkpt lat="44.18456" lon="7.21704">
        <ele>2287.604889</ele>
        <time>2010-09-30T10:47:46Z</time>
      </trkpt>
      <trkpt lat="44.18459" lon="7.21698">
        <ele>2287.763031</ele>
        <time>2010-09-30T10:47:49Z</time>
      </trkpt>
      <trkpt lat="44.18461" lon="7.21693">
        <ele>2287.903628</ele>
        <time>2010-09-30T10:47:52Z</time>
      </trkpt>
      <trkpt lat="44.18463" lon="7.2169">
        <ele>2288.031338</ele>
        <time>2010-09-30T10:47:54Z</time>
      </trkpt>
      <trkpt lat="44.18466" lon="7.21685">
        <ele>2288.140059</ele>
        <time>2010-09-30T10:47:57Z</time>
      </trkpt>
      <trkpt lat="44.18468" lon="7.21677">
        <ele>2288.233828</ele>
        <time>2010-09-30T10:48:00Z</time>
      </trkpt>
      <trkpt lat="44.18469" lon="7.21673">
        <ele>2288.318574</ele>
        <time>2010-09-30T10:48:02Z</time>
      </trkpt>
      <trkpt lat="44.18471" lon="7.21669">
        <ele>2288.393242</ele>
        <time>2010-09-30T10:48:05Z</time>
      </trkpt>
      <trkpt lat="44.18473" lon="7.21662">
        <ele>2288.494108</ele>
        <time>2010-09-30T10:48:08Z</time>
      </trkpt>
      <trkpt lat="44.18475" lon="7.21656">
        <ele>2288.665724</ele>
        <time>2010-09-30T10:48:11Z</time>
      </trkpt>
      <trkpt lat="44.18477" lon="7.21651">
        <ele>2288.898994</ele>
        <time>2010-09-30T10:48:14Z</time>
      </trkpt>
      <trkpt lat="44.18479" lon="7.21647">
        <ele>2289.163819</ele>
        <time>2010-09-30T10:48:17Z</time>
      </trkpt>
      <trkpt lat="44.1848" lon="7.21643">
        <ele>2289.452109</ele>
        <time>2010-09-30T10:48:20Z</time>
      </trkpt>
      <trkpt lat="44.18482" lon="7.21638">
        <ele>2289.750944</ele>
        <time>2010-09-30T10:48:23Z</time>
      </trkpt>
      <trkpt lat="44.18484" lon="7.21633">
        <ele>2290.034776</ele>
        <time>2010-09-30T10:48:26Z</time>
      </trkpt>
      <trkpt lat="44.18487" lon="7.2163">
        <ele>2290.281389</ele>
        <time>2010-09-30T10:48:29Z</time>
      </trkpt>
      <trkpt lat="44.18489" lon="7.21627">
        <ele>2290.486838</ele>
        <time>2010-09-30T10:48:32Z</time>
      </trkpt>
      <trkpt lat="44.18491" lon="7.21623">
        <ele>2290.663113</ele>
        <time>2010-09-30T10:48:35Z</time>
      </trkpt>
      <trkpt lat="44.18493" lon="7.21619">
        <ele>2290.83103</ele>
        <time>2010-09-30T10:48:38Z</time>
      </trkpt>
      <trkpt lat="44.18495" lon="7.21615">
        <ele>2291.004256</ele>
        <time>2010-09-30T10:48:42Z</time>
      </trkpt>
      <trkpt lat="44.18494" lon="7.21611">
        <ele>2291.18018</ele>
        <time>2010-09-30T10:48:48Z</time>
      </trkpt>
      <trkpt lat="44.18491" lon="7.21609">
        <ele>2291.351832</ele>
        <time>2010-09-30T10:48:51Z</time>
      </trkpt>
      <trkpt lat="44.18488" lon="7.21607">
        <ele>2291.521558</ele>
        <time>2010-09-30T10:48:54Z</time>
      </trkpt>
      <trkpt lat="44.18485" lon="7.21605">
        <ele>2291.697886</ele>
        <time>2010-09-30T10:48:57Z</time>
      </trkpt>
      <trkpt lat="44.18481" lon="7.21604">
        <ele>2291.878473</ele>
        <time>2010-09-30T10:49:00Z</time>
      </trkpt>
      <trkpt lat="44.18478" lon="7.21602">
        <ele>2292.045729</ele>
        <time>2010-09-30T10:49:03Z</time>
      </trkpt>
      <trkpt lat="44.18475" lon="7.216">
        <ele>2292.185863</ele>
        <time>2010-09-30T10:49:06Z</time>
      </trkpt>
      <trkpt lat="44.18472" lon="7.21598">
        <ele>2292.293771</ele>
        <time>2010-09-30T10:49:09Z</time>
      </trkpt>
      <trkpt lat="44.18469" lon="7.21598">
        <ele>2292.362558</ele>
        <time>2010-09-30T10:49:12Z</time>
      </trkpt>
      <trkpt lat="44.18465" lon="7.21597">
        <ele>2292.391856</ele>
        <time>2010-09-30T10:49:15Z</time>
      </trkpt>
      <trkpt lat="44.18463" lon="7.21596">
        <ele>2292.405797</ele>
        <time>2010-09-30T10:49:18Z</time>
      </trkpt>
      <trkpt lat="44.1846" lon="7.21596">
        <ele>2292.440765</ele>
        <time>2010-09-30T10:49:21Z</time>
      </trkpt>
      <trkpt lat="44.18456" lon="7.21596">
        <ele>2292.510774</ele>
        <time>2010-09-30T10:49:24Z</time>
      </trkpt>
      <trkpt lat="44.18452" lon="7.21597">
        <ele>2292.602012</ele>
        <time>2010-09-30T10:49:27Z</time>
      </trkpt>
      <trkpt lat="44.18448" lon="7.21599">
        <ele>2292.700926</ele>
        <time>2010-09-30T10:49:30Z</time>
      </trkpt>
      <trkpt lat="44.18444" lon="7.21599">
        <ele>2292.806154</ele>
        <time>2010-09-30T10:49:33Z</time>
      </trkpt>
      <trkpt lat="44.18441" lon="7.21599">
        <ele>2292.914709</ele>
        <time>2010-09-30T10:49:36Z</time>
      </trkpt>
      <trkpt lat="44.18437" lon="7.21599">
        <ele>2293.016781</ele>
        <time>2010-09-30T10:49:39Z</time>
      </trkpt>
      <trkpt lat="44.18434" lon="7.21599">
        <ele>2293.105254</ele>
        <time>2010-09-30T10:49:41Z</time>
      </trkpt>
      <trkpt lat="44.18431" lon="7.216">
        <ele>2293.180161</ele>
        <time>2010-09-30T10:49:44Z</time>
      </trkpt>
      <trkpt lat="44.18427" lon="7.21599">
        <ele>2293.247987</ele>
        <time>2010-09-30T10:49:47Z</time>
      </trkpt>
      <trkpt lat="44.18423" lon="7.21599">
        <ele>2293.313752</ele>
        <time>2010-09-30T10:49:50Z</time>
      </trkpt>
      <trkpt lat="44.1842" lon="7.21599">
        <ele>2293.381991</ele>
        <time>2010-09-30T10:49:52Z</time>
      </trkpt>
      <trkpt lat="44.18416" lon="7.21598">
        <ele>2293.461897</ele>
        <time>2010-09-30T10:49:55Z</time>
      </trkpt>
      <trkpt lat="44.18416" lon="7.21602">
        <ele>2293.557886</ele>
        <time>2010-09-30T10:49:58Z</time>
      </trkpt>
      <trkpt lat="44.18418" lon="7.21606">
        <ele>2293.658866</ele>
        <time>2010-09-30T10:50:02Z</time>
      </trkpt>
      <trkpt lat="44.18421" lon="7.21606">
        <ele>2293.753377</ele>
        <time>2010-09-30T10:50:05Z</time>
      </trkpt>
      <trkpt lat="44.18425" lon="7.21605">
        <ele>2293.861244</ele>
        <time>2010-09-30T10:50:08Z</time>
      </trkpt>
      <trkpt lat="44.18429" lon="7.21604">
        <ele>2294.04778</ele>
        <time>2010-09-30T10:50:11Z</time>
      </trkpt>
      <trkpt lat="44.18432" lon="7.21603">
        <ele>2294.364045</ele>
        <time>2010-09-30T10:50:13Z</time>
      </trkpt>
      <trkpt lat="44.18435" lon="7.216">
        <ele>2294.785873</ele>
        <time>2010-09-30T10:50:16Z</time>
      </trkpt>
      <trkpt lat="44.18439" lon="7.21597">
        <ele>2295.253033</ele>
        <time>2010-09-30T10:50:19Z</time>
      </trkpt>
      <trkpt lat="44.18442" lon="7.21594">
        <ele>2295.712558</ele>
        <time>2010-09-30T10:50:22Z</time>
      </trkpt>
      <trkpt lat="44.18444" lon="7.2159">
        <ele>2296.143805</ele>
        <time>2010-09-30T10:50:25Z</time>
      </trkpt>
      <trkpt lat="44.18445" lon="7.21586">
        <ele>2296.56867</ele>
        <time>2010-09-30T10:50:28Z</time>
      </trkpt>
      <trkpt lat="44.18447" lon="7.21583">
        <ele>2296.996263</ele>
        <time>2010-09-30T10:50:31Z</time>
      </trkpt>
      <trkpt lat="44.1845" lon="7.2158">
        <ele>2297.394665</ele>
        <time>2010-09-30T10:50:34Z</time>
      </trkpt>
      <trkpt lat="44.18451" lon="7.21576">
        <ele>2297.737123</ele>
        <time>2010-09-30T10:50:37Z</time>
      </trkpt>
      <trkpt lat="44.18452" lon="7.21573">
        <ele>2298.016728</ele>
        <time>2010-09-30T10:50:40Z</time>
      </trkpt>
      <trkpt lat="44.18454" lon="7.21569">
        <ele>2298.235942</ele>
        <time>2010-09-30T10:50:43Z</time>
      </trkpt>
      <trkpt lat="44.18455" lon="7.21566">
        <ele>2298.397967</ele>
        <time>2010-09-30T10:50:46Z</time>
      </trkpt>
      <trkpt lat="44.18456" lon="7.21561">
        <ele>2298.500575</ele>
        <time>2010-09-30T10:50:49Z</time>
      </trkpt>
      <trkpt lat="44.18457" lon="7.21557">
        <ele>2298.546478</ele>
        <time>2010-09-30T10:50:51Z</time>
      </trkpt>
      <trkpt lat="44.18457" lon="7.21553">
        <ele>2298.557847</ele>
        <time>2010-09-30T10:50:54Z</time>
      </trkpt>
      <trkpt lat="44.18454" lon="7.21554">
        <ele>2298.561351</ele>
        <time>2010-09-30T10:50:58Z</time>
      </trkpt>
      <trkpt lat="44.18452" lon="7.21555">
        <ele>2298.568232</ele>
        <time>2010-09-30T10:51:01Z</time>
      </trkpt>
      <trkpt lat="44.18449" lon="7.21557">
        <ele>2298.616771</ele>
        <time>2010-09-30T10:51:04Z</time>
      </trkpt>
      <trkpt lat="44.18446" lon="7.21558">
        <ele>2298.812196</ele>
        <time>2010-09-30T10:51:07Z</time>
      </trkpt>
      <trkpt lat="44.18443" lon="7.21559">
        <ele>2299.214973</ele>
        <time>2010-09-30T10:51:10Z</time>
      </trkpt>
      <trkpt lat="44.18439" lon="7.2156">
        <ele>2299.754082</ele>
        <time>2010-09-30T10:51:13Z</time>
      </trkpt>
      <trkpt lat="44.18435" lon="7.21561">
        <ele>2300.325469</ele>
        <time>2010-09-30T10:51:16Z</time>
      </trkpt>
      <trkpt lat="44.18432" lon="7.21562">
        <ele>2300.868829</ele>
        <time>2010-09-30T10:51:19Z</time>
      </trkpt>
      <trkpt lat="44.18428" lon="7.21562">
        <ele>2301.348966</ele>
        <time>2010-09-30T10:51:22Z</time>
      </trkpt>
      <trkpt lat="44.18424" lon="7.21563">
        <ele>2301.754054</ele>
        <time>2010-09-30T10:51:25Z</time>
      </trkpt>
      <trkpt lat="44.1842" lon="7.21563">
        <ele>2302.094147</ele>
        <time>2010-09-30T10:51:28Z</time>
      </trkpt>
      <trkpt lat="44.18417" lon="7.21563">
        <ele>2302.392263</ele>
        <time>2010-09-30T10:51:31Z</time>
      </trkpt>
      <trkpt lat="44.18413" lon="7.21563">
        <ele>2302.669092</ele>
        <time>2010-09-30T10:51:34Z</time>
      </trkpt>
      <trkpt lat="44.1841" lon="7.21563">
        <ele>2302.934451</ele>
        <time>2010-09-30T10:51:37Z</time>
      </trkpt>
      <trkpt lat="44.18408" lon="7.21562">
        <ele>2303.186199</ele>
        <time>2010-09-30T10:51:40Z</time>
      </trkpt>
      <trkpt lat="44.18405" lon="7.2156">
        <ele>2303.412233</ele>
        <time>2010-09-30T10:51:43Z</time>
      </trkpt>
      <trkpt lat="44.18401" lon="7.21557">
        <ele>2303.604624</ele>
        <time>2010-09-30T10:51:46Z</time>
      </trkpt>
      <trkpt lat="44.18398" lon="7.21556">
        <ele>2303.769501</ele>
        <time>2010-09-30T10:51:49Z</time>
      </trkpt>
      <trkpt lat="44.18395" lon="7.21554">
        <ele>2303.914674</ele>
        <time>2010-09-30T10:51:53Z</time>
      </trkpt>
      <trkpt lat="44.18392" lon="7.21552">
        <ele>2304.035579</ele>
        <time>2010-09-30T10:51:57Z</time>
      </trkpt>
      <trkpt lat="44.1839" lon="7.2155">
        <ele>2304.118222</ele>
        <time>2010-09-30T10:52:00Z</time>
      </trkpt>
      <trkpt lat="44.18387" lon="7.21549">
        <ele>2304.156669</ele>
        <time>2010-09-30T10:52:03Z</time>
      </trkpt>
      <trkpt lat="44.18384" lon="7.21546">
        <ele>2304.163247</ele>
        <time>2010-09-30T10:52:06Z</time>
      </trkpt>
      <trkpt lat="44.1838" lon="7.21545">
        <ele>2304.157239</ele>
        <time>2010-09-30T10:52:09Z</time>
      </trkpt>
      <trkpt lat="44.18376" lon="7.21543">
        <ele>2304.137758</ele>
        <time>2010-09-30T10:52:12Z</time>
      </trkpt>
      <trkpt lat="44.18373" lon="7.21543">
        <ele>2304.092611</ele>
        <time>2010-09-30T10:52:15Z</time>
      </trkpt>
      <trkpt lat="44.18369" lon="7.21542">
        <ele>2304.036374</ele>
        <time>2010-09-30T10:52:18Z</time>
      </trkpt>
      <trkpt lat="44.18366" lon="7.21541">
        <ele>2303.998987</ele>
        <time>2010-09-30T10:52:21Z</time>
      </trkpt>
      <trkpt lat="44.18363" lon="7.21539">
        <ele>2303.986897</ele>
        <time>2010-09-30T10:52:24Z</time>
      </trkpt>
      <trkpt lat="44.18361" lon="7.21537">
        <ele>2303.988525</ele>
        <time>2010-09-30T10:52:27Z</time>
      </trkpt>
      <trkpt lat="44.18358" lon="7.21537">
        <ele>2304.005903</ele>
        <time>2010-09-30T10:52:31Z</time>
      </trkpt>
      <trkpt lat="44.18355" lon="7.21539">
        <ele>2304.080747</ele>
        <time>2010-09-30T10:52:33Z</time>
      </trkpt>
      <trkpt lat="44.18352" lon="7.21542">
        <ele>2304.248569</ele>
        <time>2010-09-30T10:52:35Z</time>
      </trkpt>
      <trkpt lat="44.18348" lon="7.21546">
        <ele>2304.495821</ele>
        <time>2010-09-30T10:52:37Z</time>
      </trkpt>
      <trkpt lat="44.18344" lon="7.21552">
        <ele>2304.79444</ele>
        <time>2010-09-30T10:52:40Z</time>
      </trkpt>
      <trkpt lat="44.1834" lon="7.21555">
        <ele>2305.145571</ele>
        <time>2010-09-30T10:52:43Z</time>
      </trkpt>
      <trkpt lat="44.18337" lon="7.21558">
        <ele>2305.585306</ele>
        <time>2010-09-30T10:52:46Z</time>
      </trkpt>
      <trkpt lat="44.18335" lon="7.21562">
        <ele>2306.207334</ele>
        <time>2010-09-30T10:52:49Z</time>
      </trkpt>
      <trkpt lat="44.18333" lon="7.21567">
        <ele>2307.088602</ele>
        <time>2010-09-30T10:52:52Z</time>
      </trkpt>
      <trkpt lat="44.18332" lon="7.21571">
        <ele>2308.178356</ele>
        <time>2010-09-30T10:52:55Z</time>
      </trkpt>
      <trkpt lat="44.18329" lon="7.21575">
        <ele>2309.34012</ele>
        <time>2010-09-30T10:52:59Z</time>
      </trkpt>
      <trkpt lat="44.18327" lon="7.21579">
        <ele>2310.479452</ele>
        <time>2010-09-30T10:53:02Z</time>
      </trkpt>
      <trkpt lat="44.18326" lon="7.21583">
        <ele>2311.567228</ele>
        <time>2010-09-30T10:53:05Z</time>
      </trkpt>
      <trkpt lat="44.18328" lon="7.2159">
        <ele>2312.648651</ele>
        <time>2010-09-30T10:53:08Z</time>
      </trkpt>
      <trkpt lat="44.18331" lon="7.21595">
        <ele>2313.757029</ele>
        <time>2010-09-30T10:53:10Z</time>
      </trkpt>
      <trkpt lat="44.18332" lon="7.21592">
        <ele>2314.832658</ele>
        <time>2010-09-30T10:53:17Z</time>
      </trkpt>
      <trkpt lat="44.18332" lon="7.21587">
        <ele>2315.896821</ele>
        <time>2010-09-30T10:53:21Z</time>
      </trkpt>
      <trkpt lat="44.18329" lon="7.21587">
        <ele>2317.083427</ele>
        <time>2010-09-30T10:53:25Z</time>
      </trkpt>
      <trkpt lat="44.18326" lon="7.21589">
        <ele>2318.862657</ele>
        <time>2010-09-30T10:53:28Z</time>
      </trkpt>
      <trkpt lat="44.18322" lon="7.21589">
        <ele>2321.592531</ele>
        <time>2010-09-30T10:53:31Z</time>
      </trkpt>
      <trkpt lat="44.1832" lon="7.21588">
        <ele>2324.767233</ele>
        <time>2010-09-30T10:53:34Z</time>
      </trkpt>
      <trkpt lat="44.18316" lon="7.21586">
        <ele>2327.558387</ele>
        <time>2010-09-30T10:53:38Z</time>
      </trkpt>
      <trkpt lat="44.18313" lon="7.21585">
        <ele>2329.708219</ele>
        <time>2010-09-30T10:53:41Z</time>
      </trkpt>
      <trkpt lat="44.18309" lon="7.21586">
        <ele>2331.366835</ele>
        <time>2010-09-30T10:53:44Z</time>
      </trkpt>
      <trkpt lat="44.18306" lon="7.21586">
        <ele>2332.867423</ele>
        <time>2010-09-30T10:53:47Z</time>
      </trkpt>
      <trkpt lat="44.18302" lon="7.21587">
        <ele>2334.397524</ele>
        <time>2010-09-30T10:53:50Z</time>
      </trkpt>
      <trkpt lat="44.18299" lon="7.21588">
        <ele>2335.892835</ele>
        <time>2010-09-30T10:53:53Z</time>
      </trkpt>
      <trkpt lat="44.18296" lon="7.21589">
        <ele>2337.264381</ele>
        <time>2010-09-30T10:53:57Z</time>
      </trkpt>
      <trkpt lat="44.18295" lon="7.21593">
        <ele>2338.555203</ele>
        <time>2010-09-30T10:54:05Z</time>
      </trkpt>
      <trkpt lat="44.18293" lon="7.21597">
        <ele>2339.810649</ele>
        <time>2010-09-30T10:54:09Z</time>
      </trkpt>
      <trkpt lat="44.18292" lon="7.216">
        <ele>2341.066427</ele>
        <time>2010-09-30T10:54:12Z</time>
      </trkpt>
      <trkpt lat="44.1829" lon="7.21604">
        <ele>2342.485129</ele>
        <time>2010-09-30T10:54:16Z</time>
      </trkpt>
      <trkpt lat="44.18288" lon="7.21607">
        <ele>2344.115834</ele>
        <time>2010-09-30T10:54:21Z</time>
      </trkpt>
      <trkpt lat="44.18286" lon="7.21611">
        <ele>2345.66044</ele>
        <time>2010-09-30T10:54:26Z</time>
      </trkpt>
      <trkpt lat="44.18289" lon="7.21618">
        <ele>2346.889345</ele>
        <time>2010-09-30T10:54:34Z</time>
      </trkpt>
      <trkpt lat="44.18289" lon="7.21618">
        <ele>2347.770468</ele>
        <time>2010-09-30T10:54:39Z</time>
      </trkpt>
      <trkpt lat="44.18289" lon="7.21618">
        <ele>2348.23329</ele>
        <time>2010-09-30T10:55:03Z</time>
      </trkpt>
      <trkpt lat="44.18294" lon="7.21631">
        <ele>2348.504472</ele>
        <time>2010-09-30T10:55:03Z</time>
      </trkpt>
      <trkpt lat="44.18297" lon="7.21631">
        <ele>2349.084292</ele>
        <time>2010-09-30T10:55:07Z</time>
      </trkpt>
      <trkpt lat="44.18297" lon="7.21631">
        <ele>2349.960033</ele>
        <time>2010-09-30T10:55:14Z</time>
      </trkpt>
      <trkpt lat="44.18297" lon="7.21631">
        <ele>2350.153026</ele>
        <time>2010-09-30T10:55:33Z</time>
      </trkpt>
      <trkpt lat="44.18316" lon="7.2159">
        <ele>2379.742405</ele>
        <time>2010-09-30T11:21:47Z</time>
      </trkpt>
      <trkpt lat="44.18319" lon="7.21591">
        <ele>2378.882575</ele>
        <time>2010-09-30T11:21:51Z</time>
      </trkpt>
      <trkpt lat="44.18323" lon="7.21591">
        <ele>2378.359254</ele>
        <time>2010-09-30T11:21:54Z</time>
      </trkpt>
      <trkpt lat="44.18326" lon="7.21592">
        <ele>2378.062703</ele>
        <time>2010-09-30T11:21:57Z</time>
      </trkpt>
      <trkpt lat="44.18329" lon="7.21592">
        <ele>2377.884669</ele>
        <time>2010-09-30T11:22:00Z</time>
      </trkpt>
      <trkpt lat="44.18331" lon="7.21589">
        <ele>2377.770815</ele>
        <time>2010-09-30T11:22:03Z</time>
      </trkpt>
      <trkpt lat="44.18334" lon="7.21589">
        <ele>2377.688134</ele>
        <time>2010-09-30T11:22:06Z</time>
      </trkpt>
      <trkpt lat="44.18337" lon="7.21591">
        <ele>2377.612462</ele>
        <time>2010-09-30T11:22:09Z</time>
      </trkpt>
      <trkpt lat="44.18339" lon="7.21594">
        <ele>2377.533337</ele>
        <time>2010-09-30T11:22:12Z</time>
      </trkpt>
      <trkpt lat="44.18341" lon="7.21598">
        <ele>2377.457643</ele>
        <time>2010-09-30T11:22:15Z</time>
      </trkpt>
      <trkpt lat="44.18342" lon="7.21601">
        <ele>2377.394766</ele>
        <time>2010-09-30T11:22:18Z</time>
      </trkpt>
      <trkpt lat="44.18344" lon="7.21604">
        <ele>2377.338264</ele>
        <time>2010-09-30T11:22:21Z</time>
      </trkpt>
      <trkpt lat="44.18347" lon="7.21605">
        <ele>2377.265625</ele>
        <time>2010-09-30T11:22:25Z</time>
      </trkpt>
      <trkpt lat="44.1835" lon="7.21603">
        <ele>2377.160307</ele>
        <time>2010-09-30T11:22:28Z</time>
      </trkpt>
      <trkpt lat="44.18352" lon="7.216">
        <ele>2377.027083</ele>
        <time>2010-09-30T11:22:31Z</time>
      </trkpt>
      <trkpt lat="44.18354" lon="7.21598">
        <ele>2376.871707</ele>
        <time>2010-09-30T11:22:34Z</time>
      </trkpt>
      <trkpt lat="44.18357" lon="7.21595">
        <ele>2376.686703</ele>
        <time>2010-09-30T11:22:37Z</time>
      </trkpt>
      <trkpt lat="44.18359" lon="7.21593">
        <ele>2376.46779</ele>
        <time>2010-09-30T11:22:39Z</time>
      </trkpt>
      <trkpt lat="44.18361" lon="7.21588">
        <ele>2376.230655</ele>
        <time>2010-09-30T11:22:42Z</time>
      </trkpt>
      <trkpt lat="44.18362" lon="7.21585">
        <ele>2376.005758</ele>
        <time>2010-09-30T11:22:44Z</time>
      </trkpt>
      <trkpt lat="44.18363" lon="7.2158">
        <ele>2375.822921</ele>
        <time>2010-09-30T11:22:47Z</time>
      </trkpt>
      <trkpt lat="44.18365" lon="7.21576">
        <ele>2375.685632</ele>
        <time>2010-09-30T11:22:50Z</time>
      </trkpt>
      <trkpt lat="44.18367" lon="7.21572">
        <ele>2375.577576</ele>
        <time>2010-09-30T11:22:53Z</time>
      </trkpt>
      <trkpt lat="44.18369" lon="7.21569">
        <ele>2375.482656</ele>
        <time>2010-09-30T11:22:56Z</time>
      </trkpt>
      <trkpt lat="44.18372" lon="7.21566">
        <ele>2375.389256</ele>
        <time>2010-09-30T11:22:59Z</time>
      </trkpt>
      <trkpt lat="44.18375" lon="7.21564">
        <ele>2375.291326</ele>
        <time>2010-09-30T11:23:02Z</time>
      </trkpt>
      <trkpt lat="44.18379" lon="7.21562">
        <ele>2375.190932</ele>
        <time>2010-09-30T11:23:05Z</time>
      </trkpt>
      <trkpt lat="44.18382" lon="7.21561">
        <ele>2375.090252</ele>
        <time>2010-09-30T11:23:07Z</time>
      </trkpt>
      <trkpt lat="44.18386" lon="7.21561">
        <ele>2374.993485</ele>
        <time>2010-09-30T11:23:10Z</time>
      </trkpt>
      <trkpt lat="44.18389" lon="7.21561">
        <ele>2374.90117</ele>
        <time>2010-09-30T11:23:13Z</time>
      </trkpt>
      <trkpt lat="44.18392" lon="7.21561">
        <ele>2374.811595</ele>
        <time>2010-09-30T11:23:16Z</time>
      </trkpt>
      <trkpt lat="44.18395" lon="7.2156">
        <ele>2374.720513</ele>
        <time>2010-09-30T11:23:19Z</time>
      </trkpt>
      <trkpt lat="44.18397" lon="7.21558">
        <ele>2374.614588</ele>
        <time>2010-09-30T11:23:23Z</time>
      </trkpt>
      <trkpt lat="44.18401" lon="7.21556">
        <ele>2374.485006</ele>
        <time>2010-09-30T11:23:27Z</time>
      </trkpt>
      <trkpt lat="44.18404" lon="7.21554">
        <ele>2374.338632</ele>
        <time>2010-09-30T11:23:31Z</time>
      </trkpt>
      <trkpt lat="44.18407" lon="7.21552">
        <ele>2374.175354</ele>
        <time>2010-09-30T11:23:35Z</time>
      </trkpt>
      <trkpt lat="44.1841" lon="7.2155">
        <ele>2373.969158</ele>
        <time>2010-09-30T11:23:38Z</time>
      </trkpt>
      <trkpt lat="44.18413" lon="7.2155">
        <ele>2373.698272</ele>
        <time>2010-09-30T11:23:41Z</time>
      </trkpt>
      <trkpt lat="44.18416" lon="7.21549">
        <ele>2373.373987</ele>
        <time>2010-09-30T11:23:44Z</time>
      </trkpt>
      <trkpt lat="44.1842" lon="7.21547">
        <ele>2373.034912</ele>
        <time>2010-09-30T11:23:47Z</time>
      </trkpt>
      <trkpt lat="44.18424" lon="7.21544">
        <ele>2372.721087</ele>
        <time>2010-09-30T11:23:50Z</time>
      </trkpt>
      <trkpt lat="44.18428" lon="7.21542">
        <ele>2372.435452</ele>
        <time>2010-09-30T11:23:53Z</time>
      </trkpt>
      <trkpt lat="44.18431" lon="7.21539">
        <ele>2372.146378</ele>
        <time>2010-09-30T11:23:56Z</time>
      </trkpt>
      <trkpt lat="44.18433" lon="7.21536">
        <ele>2371.8348</ele>
        <time>2010-09-30T11:23:59Z</time>
      </trkpt>
      <trkpt lat="44.18436" lon="7.21532">
        <ele>2371.505787</ele>
        <time>2010-09-30T11:24:02Z</time>
      </trkpt>
      <trkpt lat="44.18439" lon="7.21528">
        <ele>2371.178699</ele>
        <time>2010-09-30T11:24:05Z</time>
      </trkpt>
      <trkpt lat="44.18442" lon="7.21524">
        <ele>2370.879844</ele>
        <time>2010-09-30T11:24:08Z</time>
      </trkpt>
      <trkpt lat="44.18443" lon="7.21521">
        <ele>2370.634007</ele>
        <time>2010-09-30T11:24:10Z</time>
      </trkpt>
      <trkpt lat="44.18446" lon="7.21516">
        <ele>2370.454735</ele>
        <time>2010-09-30T11:24:13Z</time>
      </trkpt>
      <trkpt lat="44.18449" lon="7.21512">
        <ele>2370.329119</ele>
        <time>2010-09-30T11:24:16Z</time>
      </trkpt>
      <trkpt lat="44.18451" lon="7.21507">
        <ele>2370.2298</ele>
        <time>2010-09-30T11:24:19Z</time>
      </trkpt>
      <trkpt lat="44.18453" lon="7.21503">
        <ele>2370.131143</ele>
        <time>2010-09-30T11:24:22Z</time>
      </trkpt>
      <trkpt lat="44.18455" lon="7.21499">
        <ele>2370.013733</ele>
        <time>2010-09-30T11:24:25Z</time>
      </trkpt>
      <trkpt lat="44.18455" lon="7.21494">
        <ele>2369.881</ele>
        <time>2010-09-30T11:24:28Z</time>
      </trkpt>
      <trkpt lat="44.18453" lon="7.2149">
        <ele>2369.760744</ele>
        <time>2010-09-30T11:24:31Z</time>
      </trkpt>
      <trkpt lat="44.18452" lon="7.21486">
        <ele>2369.673414</ele>
        <time>2010-09-30T11:24:34Z</time>
      </trkpt>
      <trkpt lat="44.18451" lon="7.21481">
        <ele>2369.616296</ele>
        <time>2010-09-30T11:24:38Z</time>
      </trkpt>
      <trkpt lat="44.1845" lon="7.21476">
        <ele>2369.57009</ele>
        <time>2010-09-30T11:24:43Z</time>
      </trkpt>
      <trkpt lat="44.18451" lon="7.21473">
        <ele>2369.516824</ele>
        <time>2010-09-30T11:24:48Z</time>
      </trkpt>
      <trkpt lat="44.1845" lon="7.21469">
        <ele>2369.451114</ele>
        <time>2010-09-30T11:24:52Z</time>
      </trkpt>
      <trkpt lat="44.18449" lon="7.21465">
        <ele>2369.381933</ele>
        <time>2010-09-30T11:24:55Z</time>
      </trkpt>
      <trkpt lat="44.18446" lon="7.21462">
        <ele>2369.322418</ele>
        <time>2010-09-30T11:24:58Z</time>
      </trkpt>
      <trkpt lat="44.18444" lon="7.21459">
        <ele>2369.281801</ele>
        <time>2010-09-30T11:25:01Z</time>
      </trkpt>
      <trkpt lat="44.18442" lon="7.21457">
        <ele>2369.262885</ele>
        <time>2010-09-30T11:25:04Z</time>
      </trkpt>
      <trkpt lat="44.18439" lon="7.21454">
        <ele>2369.260234</ele>
        <time>2010-09-30T11:25:07Z</time>
      </trkpt>
      <trkpt lat="44.18437" lon="7.21451">
        <ele>2369.275572</ele>
        <time>2010-09-30T11:25:10Z</time>
      </trkpt>
      <trkpt lat="44.18435" lon="7.21448">
        <ele>2369.343315</ele>
        <time>2010-09-30T11:25:13Z</time>
      </trkpt>
      <trkpt lat="44.18431" lon="7.21445">
        <ele>2369.497208</ele>
        <time>2010-09-30T11:25:16Z</time>
      </trkpt>
      <trkpt lat="44.18428" lon="7.21442">
        <ele>2369.722868</ele>
        <time>2010-09-30T11:25:18Z</time>
      </trkpt>
      <trkpt lat="44.18424" lon="7.21438">
        <ele>2369.977515</ele>
        <time>2010-09-30T11:25:21Z</time>
      </trkpt>
      <trkpt lat="44.18421" lon="7.21435">
        <ele>2370.236647</ele>
        <time>2010-09-30T11:25:24Z</time>
      </trkpt>
      <trkpt lat="44.18421" lon="7.21435">
        <ele>2370.461059</ele>
        <time>2010-09-30T11:25:28Z</time>
      </trkpt>
      <trkpt lat="44.18425" lon="7.21398">
        <ele>2370.616768</ele>
        <time>2010-09-30T11:26:36Z</time>
      </trkpt>
      <trkpt lat="44.18425" lon="7.21393">
        <ele>2370.744353</ele>
        <time>2010-09-30T11:26:39Z</time>
      </trkpt>
      <trkpt lat="44.18427" lon="7.21389">
        <ele>2370.904268</ele>
        <time>2010-09-30T11:26:42Z</time>
      </trkpt>
      <trkpt lat="44.1843" lon="7.21386">
        <ele>2371.631322</ele>
        <time>2010-09-30T11:26:45Z</time>
      </trkpt>
      <trkpt lat="44.18433" lon="7.21383">
        <ele>2373.202359</ele>
        <time>2010-09-30T11:26:48Z</time>
      </trkpt>
      <trkpt lat="44.18435" lon="7.2138">
        <ele>2374.745263</ele>
        <time>2010-09-30T11:26:50Z</time>
      </trkpt>
      <trkpt lat="44.18436" lon="7.21376">
        <ele>2375.470051</ele>
        <time>2010-09-30T11:26:53Z</time>
      </trkpt>
      <trkpt lat="44.18437" lon="7.21373">
        <ele>2375.590102</ele>
        <time>2010-09-30T11:26:56Z</time>
      </trkpt>
      <trkpt lat="44.18438" lon="7.21367">
        <ele>2375.487873</ele>
        <time>2010-09-30T11:26:59Z</time>
      </trkpt>
      <trkpt lat="44.18439" lon="7.21363">
        <ele>2375.391247</ele>
        <time>2010-09-30T11:27:01Z</time>
      </trkpt>
      <trkpt lat="44.1844" lon="7.21359">
        <ele>2375.36319</ele>
        <time>2010-09-30T11:27:04Z</time>
      </trkpt>
      <trkpt lat="44.18441" lon="7.21356">
        <ele>2375.380425</ele>
        <time>2010-09-30T11:27:07Z</time>
      </trkpt>
      <trkpt lat="44.18444" lon="7.21353">
        <ele>2375.405931</ele>
        <time>2010-09-30T11:27:10Z</time>
      </trkpt>
      <trkpt lat="44.18447" lon="7.21351">
        <ele>2375.423021</ele>
        <time>2010-09-30T11:27:13Z</time>
      </trkpt>
      <trkpt lat="44.1845" lon="7.2135">
        <ele>2375.431376</ele>
        <time>2010-09-30T11:27:16Z</time>
      </trkpt>
      <trkpt lat="44.18453" lon="7.2135">
        <ele>2375.43462</ele>
        <time>2010-09-30T11:27:20Z</time>
      </trkpt>
      <trkpt lat="44.18457" lon="7.21351">
        <ele>2375.436913</ele>
        <time>2010-09-30T11:27:23Z</time>
      </trkpt>
      <trkpt lat="44.1846" lon="7.21351">
        <ele>2375.440622</ele>
        <time>2010-09-30T11:27:26Z</time>
      </trkpt>
      <trkpt lat="44.18463" lon="7.21352">
        <ele>2375.44511</ele>
        <time>2010-09-30T11:27:29Z</time>
      </trkpt>
      <trkpt lat="44.18466" lon="7.21352">
        <ele>2375.44952</ele>
        <time>2010-09-30T11:27:32Z</time>
      </trkpt>
      <trkpt lat="44.1847" lon="7.21351">
        <ele>2375.455151</ele>
        <time>2010-09-30T11:27:35Z</time>
      </trkpt>
      <trkpt lat="44.18473" lon="7.21354">
        <ele>2375.4669</ele>
        <time>2010-09-30T11:27:38Z</time>
      </trkpt>
      <trkpt lat="44.18475" lon="7.21357">
        <ele>2375.488968</ele>
        <time>2010-09-30T11:27:41Z</time>
      </trkpt>
      <trkpt lat="44.18479" lon="7.21361">
        <ele>2375.516975</ele>
        <time>2010-09-30T11:27:44Z</time>
      </trkpt>
      <trkpt lat="44.18482" lon="7.21363">
        <ele>2375.545439</ele>
        <time>2010-09-30T11:27:46Z</time>
      </trkpt>
      <trkpt lat="44.18486" lon="7.21366">
        <ele>2375.5775</ele>
        <time>2010-09-30T11:27:48Z</time>
      </trkpt>
      <trkpt lat="44.1849" lon="7.21368">
        <ele>2375.634335</ele>
        <time>2010-09-30T11:27:51Z</time>
      </trkpt>
      <trkpt lat="44.18494" lon="7.21367">
        <ele>2375.755235</ele>
        <time>2010-09-30T11:27:54Z</time>
      </trkpt>
      <trkpt lat="44.18497" lon="7.21366">
        <ele>2375.969705</ele>
        <time>2010-09-30T11:27:57Z</time>
      </trkpt>
      <trkpt lat="44.18501" lon="7.21365">
        <ele>2376.298372</ele>
        <time>2010-09-30T11:28:00Z</time>
      </trkpt>
      <trkpt lat="44.18505" lon="7.21365">
        <ele>2376.746496</ele>
        <time>2010-09-30T11:28:03Z</time>
      </trkpt>
      <trkpt lat="44.18508" lon="7.21363">
        <ele>2377.263074</ele>
        <time>2010-09-30T11:28:06Z</time>
      </trkpt>
      <trkpt lat="44.18511" lon="7.21362">
        <ele>2377.769701</ele>
        <time>2010-09-30T11:28:09Z</time>
      </trkpt>
      <trkpt lat="44.18514" lon="7.21362">
        <ele>2378.230096</ele>
        <time>2010-09-30T11:28:12Z</time>
      </trkpt>
      <trkpt lat="44.18518" lon="7.21363">
        <ele>2378.64912</ele>
        <time>2010-09-30T11:28:15Z</time>
      </trkpt>
      <trkpt lat="44.1852" lon="7.21365">
        <ele>2379.039651</ele>
        <time>2010-09-30T11:28:18Z</time>
      </trkpt>
      <trkpt lat="44.18521" lon="7.21369">
        <ele>2379.404473</ele>
        <time>2010-09-30T11:28:22Z</time>
      </trkpt>
      <trkpt lat="44.18523" lon="7.21372">
        <ele>2379.748358</ele>
        <time>2010-09-30T11:28:28Z</time>
      </trkpt>
      <trkpt lat="44.18527" lon="7.21372">
        <ele>2380.087754</ele>
        <time>2010-09-30T11:28:32Z</time>
      </trkpt>
      <trkpt lat="44.18527" lon="7.21376">
        <ele>2380.45047</ele>
        <time>2010-09-30T11:28:37Z</time>
      </trkpt>
      <trkpt lat="44.18527" lon="7.21379">
        <ele>2380.881084</ele>
        <time>2010-09-30T11:28:41Z</time>
      </trkpt>
      <trkpt lat="44.18529" lon="7.21382">
        <ele>2381.377872</ele>
        <time>2010-09-30T11:28:45Z</time>
      </trkpt>
      <trkpt lat="44.18532" lon="7.21382">
        <ele>2381.866139</ele>
        <time>2010-09-30T11:28:48Z</time>
      </trkpt>
      <trkpt lat="44.18535" lon="7.2138">
        <ele>2382.282162</ele>
        <time>2010-09-30T11:28:51Z</time>
      </trkpt>
      <trkpt lat="44.18538" lon="7.21377">
        <ele>2382.614785</ele>
        <time>2010-09-30T11:28:53Z</time>
      </trkpt>
      <trkpt lat="44.18541" lon="7.21375">
        <ele>2382.859222</ele>
        <time>2010-09-30T11:28:56Z</time>
      </trkpt>
      <trkpt lat="44.18544" lon="7.21373">
        <ele>2383.004513</ele>
        <time>2010-09-30T11:28:59Z</time>
      </trkpt>
      <trkpt lat="44.18548" lon="7.2137">
        <ele>2383.058974</ele>
        <time>2010-09-30T11:29:02Z</time>
      </trkpt>
      <trkpt lat="44.18551" lon="7.21367">
        <ele>2383.061678</ele>
        <time>2010-09-30T11:29:04Z</time>
      </trkpt>
      <trkpt lat="44.18554" lon="7.21365">
        <ele>2383.050443</ele>
        <time>2010-09-30T11:29:07Z</time>
      </trkpt>
      <trkpt lat="44.18552" lon="7.21361">
        <ele>2383.045828</ele>
        <time>2010-09-30T11:29:14Z</time>
      </trkpt>
      <trkpt lat="44.18554" lon="7.21358">
        <ele>2383.052664</ele>
        <time>2010-09-30T11:29:17Z</time>
      </trkpt>
      <trkpt lat="44.18556" lon="7.21355">
        <ele>2383.06403</ele>
        <time>2010-09-30T11:29:20Z</time>
      </trkpt>
      <trkpt lat="44.18559" lon="7.21355">
        <ele>2383.071877</ele>
        <time>2010-09-30T11:29:24Z</time>
      </trkpt>
      <trkpt lat="44.18562" lon="7.21353">
        <ele>2383.073291</ele>
        <time>2010-09-30T11:29:28Z</time>
      </trkpt>
      <trkpt lat="44.18562" lon="7.21353">
        <ele>2383.068153</ele>
        <time>2010-09-30T11:29:37Z</time>
      </trkpt>
      <trkpt lat="44.18591" lon="7.21356">
        <ele>2383.050569</ele>
        <time>2010-09-30T11:30:57Z</time>
      </trkpt>
      <trkpt lat="44.18594" lon="7.21354">
        <ele>2383.010519</ele>
        <time>2010-09-30T11:31:03Z</time>
      </trkpt>
      <trkpt lat="44.18598" lon="7.21353">
        <ele>2382.600589</ele>
        <time>2010-09-30T11:31:06Z</time>
      </trkpt>
      <trkpt lat="44.18601" lon="7.21354">
        <ele>2381.446403</ele>
        <time>2010-09-30T11:31:09Z</time>
      </trkpt>
      <trkpt lat="44.18604" lon="7.21354">
        <ele>2379.861622</ele>
        <time>2010-09-30T11:31:12Z</time>
      </trkpt>
      <trkpt lat="44.18609" lon="7.21354">
        <ele>2378.511233</ele>
        <time>2010-09-30T11:31:15Z</time>
      </trkpt>
      <trkpt lat="44.18612" lon="7.21355">
        <ele>2377.658897</ele>
        <time>2010-09-30T11:31:18Z</time>
      </trkpt>
      <trkpt lat="44.18614" lon="7.21359">
        <ele>2377.205512</ele>
        <time>2010-09-30T11:31:21Z</time>
      </trkpt>
      <trkpt lat="44.18616" lon="7.21364">
        <ele>2376.933969</ele>
        <time>2010-09-30T11:31:24Z</time>
      </trkpt>
      <trkpt lat="44.18619" lon="7.21364">
        <ele>2376.707382</ele>
        <time>2010-09-30T11:31:27Z</time>
      </trkpt>
      <trkpt lat="44.18622" lon="7.21362">
        <ele>2376.459725</ele>
        <time>2010-09-30T11:31:30Z</time>
      </trkpt>
      <trkpt lat="44.18625" lon="7.2136">
        <ele>2376.141689</ele>
        <time>2010-09-30T11:31:32Z</time>
      </trkpt>
      <trkpt lat="44.18629" lon="7.21356">
        <ele>2375.733844</ele>
        <time>2010-09-30T11:31:35Z</time>
      </trkpt>
      <trkpt lat="44.18632" lon="7.21352">
        <ele>2375.278145</ele>
        <time>2010-09-30T11:31:38Z</time>
      </trkpt>
      <trkpt lat="44.18635" lon="7.21348">
        <ele>2374.857223</ele>
        <time>2010-09-30T11:31:41Z</time>
      </trkpt>
      <trkpt lat="44.18638" lon="7.21345">
        <ele>2374.518177</ele>
        <time>2010-09-30T11:31:43Z</time>
      </trkpt>
      <trkpt lat="44.18642" lon="7.21341">
        <ele>2374.235194</ele>
        <time>2010-09-30T11:31:46Z</time>
      </trkpt>
      <trkpt lat="44.18646" lon="7.21338">
        <ele>2373.957705</ele>
        <time>2010-09-30T11:31:49Z</time>
      </trkpt>
      <trkpt lat="44.18649" lon="7.21335">
        <ele>2373.670909</ele>
        <time>2010-09-30T11:31:51Z</time>
      </trkpt>
      <trkpt lat="44.18654" lon="7.21333">
        <ele>2373.365804</ele>
        <time>2010-09-30T11:31:54Z</time>
      </trkpt>
      <trkpt lat="44.18659" lon="7.21329">
        <ele>2373.021637</ele>
        <time>2010-09-30T11:31:57Z</time>
      </trkpt>
      <trkpt lat="44.18663" lon="7.21327">
        <ele>2372.659088</ele>
        <time>2010-09-30T11:32:00Z</time>
      </trkpt>
      <trkpt lat="44.18667" lon="7.21325">
        <ele>2372.324873</ele>
        <time>2010-09-30T11:32:03Z</time>
      </trkpt>
      <trkpt lat="44.18671" lon="7.21323">
        <ele>2372.009422</ele>
        <time>2010-09-30T11:32:06Z</time>
      </trkpt>
      <trkpt lat="44.18676" lon="7.21322">
        <ele>2371.678572</ele>
        <time>2010-09-30T11:32:09Z</time>
      </trkpt>
      <trkpt lat="44.18678" lon="7.21321">
        <ele>2371.339643</ele>
        <time>2010-09-30T11:32:11Z</time>
      </trkpt>
      <trkpt lat="44.18682" lon="7.21318">
        <ele>2371.028127</ele>
        <time>2010-09-30T11:32:14Z</time>
      </trkpt>
      <trkpt lat="44.18684" lon="7.21316">
        <ele>2370.773304</ele>
        <time>2010-09-30T11:32:16Z</time>
      </trkpt>
      <trkpt lat="44.18688" lon="7.21313">
        <ele>2370.590361</ele>
        <time>2010-09-30T11:32:19Z</time>
      </trkpt>
      <trkpt lat="44.18691" lon="7.21311">
        <ele>2370.468816</ele>
        <time>2010-09-30T11:32:21Z</time>
      </trkpt>
      <trkpt lat="44.18694" lon="7.21309">
        <ele>2370.378652</ele>
        <time>2010-09-30T11:32:24Z</time>
      </trkpt>
      <trkpt lat="44.18698" lon="7.21306">
        <ele>2370.294717</ele>
        <time>2010-09-30T11:32:27Z</time>
      </trkpt>
      <trkpt lat="44.18701" lon="7.21304">
        <ele>2370.207325</ele>
        <time>2010-09-30T11:32:30Z</time>
      </trkpt>
      <trkpt lat="44.18705" lon="7.21303">
        <ele>2370.111519</ele>
        <time>2010-09-30T11:32:33Z</time>
      </trkpt>
      <trkpt lat="44.18708" lon="7.21301">
        <ele>2370.006259</ele>
        <time>2010-09-30T11:32:36Z</time>
      </trkpt>
      <trkpt lat="44.18712" lon="7.21298">
        <ele>2369.899981</ele>
        <time>2010-09-30T11:32:39Z</time>
      </trkpt>
      <trkpt lat="44.18715" lon="7.21297">
        <ele>2369.808731</ele>
        <time>2010-09-30T11:32:42Z</time>
      </trkpt>
      <trkpt lat="44.18719" lon="7.21295">
        <ele>2369.74276</ele>
        <time>2010-09-30T11:32:45Z</time>
      </trkpt>
      <trkpt lat="44.18723" lon="7.21295">
        <ele>2369.705476</ele>
        <time>2010-09-30T11:32:48Z</time>
      </trkpt>
      <trkpt lat="44.18726" lon="7.21294">
        <ele>2369.69266</ele>
        <time>2010-09-30T11:32:50Z</time>
      </trkpt>
      <trkpt lat="44.18729" lon="7.21294">
        <ele>2369.693646</ele>
        <time>2010-09-30T11:32:52Z</time>
      </trkpt>
      <trkpt lat="44.18733" lon="7.21293">
        <ele>2369.698916</ele>
        <time>2010-09-30T11:32:55Z</time>
      </trkpt>
      <trkpt lat="44.18736" lon="7.21293">
        <ele>2369.705067</ele>
        <time>2010-09-30T11:32:57Z</time>
      </trkpt>
      <trkpt lat="44.18741" lon="7.21293">
        <ele>2369.710629</ele>
        <time>2010-09-30T11:33:00Z</time>
      </trkpt>
      <trkpt lat="44.18743" lon="7.21293">
        <ele>2369.713903</ele>
        <time>2010-09-30T11:33:02Z</time>
      </trkpt>
      <trkpt lat="44.18748" lon="7.21295">
        <ele>2369.71478</ele>
        <time>2010-09-30T11:33:05Z</time>
      </trkpt>
      <trkpt lat="44.18752" lon="7.21296">
        <ele>2369.712179</ele>
        <time>2010-09-30T11:33:08Z</time>
      </trkpt>
      <trkpt lat="44.18755" lon="7.21295">
        <ele>2369.704042</ele>
        <time>2010-09-30T11:33:11Z</time>
      </trkpt>
      <trkpt lat="44.18759" lon="7.21294">
        <ele>2369.690638</ele>
        <time>2010-09-30T11:33:14Z</time>
      </trkpt>
      <trkpt lat="44.18763" lon="7.21293">
        <ele>2369.673593</ele>
        <time>2010-09-30T11:33:17Z</time>
      </trkpt>
      <trkpt lat="44.18768" lon="7.2129">
        <ele>2369.654766</ele>
        <time>2010-09-30T11:33:20Z</time>
      </trkpt>
      <trkpt lat="44.18773" lon="7.21288">
        <ele>2369.636376</ele>
        <time>2010-09-30T11:33:23Z</time>
      </trkpt>
      <trkpt lat="44.18777" lon="7.21284">
        <ele>2369.618005</ele>
        <time>2010-09-30T11:33:26Z</time>
      </trkpt>
      <trkpt lat="44.1878" lon="7.21282">
        <ele>2369.597575</ele>
        <time>2010-09-30T11:33:28Z</time>
      </trkpt>
      <trkpt lat="44.18785" lon="7.21279">
        <ele>2369.573698</ele>
        <time>2010-09-30T11:33:31Z</time>
      </trkpt>
      <trkpt lat="44.18789" lon="7.21277">
        <ele>2369.545666</ele>
        <time>2010-09-30T11:33:34Z</time>
      </trkpt>
      <trkpt lat="44.18792" lon="7.21275">
        <ele>2369.514939</ele>
        <time>2010-09-30T11:33:36Z</time>
      </trkpt>
      <trkpt lat="44.18798" lon="7.21273">
        <ele>2369.482665</ele>
        <time>2010-09-30T11:33:39Z</time>
      </trkpt>
      <trkpt lat="44.18801" lon="7.21271">
        <ele>2369.447482</ele>
        <time>2010-09-30T11:33:41Z</time>
      </trkpt>
      <trkpt lat="44.18804" lon="7.2127">
        <ele>2369.411883</ele>
        <time>2010-09-30T11:33:43Z</time>
      </trkpt>
      <trkpt lat="44.18806" lon="7.21268">
        <ele>2369.381194</ele>
        <time>2010-09-30T11:33:46Z</time>
      </trkpt>
      <trkpt lat="44.18805" lon="7.21264">
        <ele>2369.358749</ele>
        <time>2010-09-30T11:33:49Z</time>
      </trkpt>
      <trkpt lat="44.18804" lon="7.2126">
        <ele>2369.345285</ele>
        <time>2010-09-30T11:33:53Z</time>
      </trkpt>
      <trkpt lat="44.18804" lon="7.21255">
        <ele>2369.335125</ele>
        <time>2010-09-30T11:33:58Z</time>
      </trkpt>
      <trkpt lat="44.18806" lon="7.21252">
        <ele>2369.313114</ele>
        <time>2010-09-30T11:34:02Z</time>
      </trkpt>
      <trkpt lat="44.18808" lon="7.21249">
        <ele>2369.257317</ele>
        <time>2010-09-30T11:34:05Z</time>
      </trkpt>
      <trkpt lat="44.18808" lon="7.21244">
        <ele>2369.144371</ele>
        <time>2010-09-30T11:34:09Z</time>
      </trkpt>
      <trkpt lat="44.18807" lon="7.21241">
        <ele>2368.976894</ele>
        <time>2010-09-30T11:34:12Z</time>
      </trkpt>
      <trkpt lat="44.1881" lon="7.21238">
        <ele>2368.795272</ele>
        <time>2010-09-30T11:34:16Z</time>
      </trkpt>
      <trkpt lat="44.18813" lon="7.21237">
        <ele>2368.627932</ele>
        <time>2010-09-30T11:34:19Z</time>
      </trkpt>
      <trkpt lat="44.18817" lon="7.2124">
        <ele>2368.466915</ele>
        <time>2010-09-30T11:34:22Z</time>
      </trkpt>
      <trkpt lat="44.18821" lon="7.21242">
        <ele>2368.29403</ele>
        <time>2010-09-30T11:34:25Z</time>
      </trkpt>
      <trkpt lat="44.18825" lon="7.21242">
        <ele>2368.105559</ele>
        <time>2010-09-30T11:34:28Z</time>
      </trkpt>
      <trkpt lat="44.18828" lon="7.21241">
        <ele>2367.918194</ele>
        <time>2010-09-30T11:34:31Z</time>
      </trkpt>
      <trkpt lat="44.18831" lon="7.2124">
        <ele>2367.746578</ele>
        <time>2010-09-30T11:34:34Z</time>
      </trkpt>
      <trkpt lat="44.18834" lon="7.21238">
        <ele>2367.582082</ele>
        <time>2010-09-30T11:34:37Z</time>
      </trkpt>
      <trkpt lat="44.18837" lon="7.21235">
        <ele>2367.405366</ele>
        <time>2010-09-30T11:34:40Z</time>
      </trkpt>
      <trkpt lat="44.1884" lon="7.21233">
        <ele>2367.201824</ele>
        <time>2010-09-30T11:34:42Z</time>
      </trkpt>
      <trkpt lat="44.18843" lon="7.21229">
        <ele>2366.975614</ele>
        <time>2010-09-30T11:34:45Z</time>
      </trkpt>
      <trkpt lat="44.18847" lon="7.21227">
        <ele>2366.745453</ele>
        <time>2010-09-30T11:34:48Z</time>
      </trkpt>
      <trkpt lat="44.1885" lon="7.21225">
        <ele>2366.534229</ele>
        <time>2010-09-30T11:34:50Z</time>
      </trkpt>
      <trkpt lat="44.18853" lon="7.21224">
        <ele>2366.350459</ele>
        <time>2010-09-30T11:34:52Z</time>
      </trkpt>
      <trkpt lat="44.18855" lon="7.21223">
        <ele>2366.182101</ele>
        <time>2010-09-30T11:34:54Z</time>
      </trkpt>
      <trkpt lat="44.18858" lon="7.21221">
        <ele>2366.028093</ele>
        <time>2010-09-30T11:34:56Z</time>
      </trkpt>
      <trkpt lat="44.18862" lon="7.21219">
        <ele>2365.904907</ele>
        <time>2010-09-30T11:34:59Z</time>
      </trkpt>
      <trkpt lat="44.18865" lon="7.21218">
        <ele>2365.81387</ele>
        <time>2010-09-30T11:35:01Z</time>
      </trkpt>
      <trkpt lat="44.18867" lon="7.21217">
        <ele>2365.739593</ele>
        <time>2010-09-30T11:35:03Z</time>
      </trkpt>
      <trkpt lat="44.1887" lon="7.21215">
        <ele>2365.664005</ele>
        <time>2010-09-30T11:35:05Z</time>
      </trkpt>
      <trkpt lat="44.18873" lon="7.21214">
        <ele>2365.579348</ele>
        <time>2010-09-30T11:35:07Z</time>
      </trkpt>
      <trkpt lat="44.18877" lon="7.21212">
        <ele>2365.494403</ele>
        <time>2010-09-30T11:35:09Z</time>
      </trkpt>
      <trkpt lat="44.18884" lon="7.2121">
        <ele>2365.419201</ele>
        <time>2010-09-30T11:35:12Z</time>
      </trkpt>
      <trkpt lat="44.18892" lon="7.21208">
        <ele>2365.352633</ele>
        <time>2010-09-30T11:35:15Z</time>
      </trkpt>
      <trkpt lat="44.18897" lon="7.21207">
        <ele>2365.289418</ele>
        <time>2010-09-30T11:35:17Z</time>
      </trkpt>
      <trkpt lat="44.18902" lon="7.21206">
        <ele>2365.222212</ele>
        <time>2010-09-30T11:35:19Z</time>
      </trkpt>
      <trkpt lat="44.1891" lon="7.21204">
        <ele>2365.151893</ele>
        <time>2010-09-30T11:35:22Z</time>
      </trkpt>
      <trkpt lat="44.18916" lon="7.21204">
        <ele>2365.095836</ele>
        <time>2010-09-30T11:35:24Z</time>
      </trkpt>
      <trkpt lat="44.18921" lon="7.21205">
        <ele>2365.068423</ele>
        <time>2010-09-30T11:35:26Z</time>
      </trkpt>
      <trkpt lat="44.18928" lon="7.21208">
        <ele>2365.061756</ele>
        <time>2010-09-30T11:35:29Z</time>
      </trkpt>
      <trkpt lat="44.18936" lon="7.21212">
        <ele>2365.060804</ele>
        <time>2010-09-30T11:35:32Z</time>
      </trkpt>
      <trkpt lat="44.18941" lon="7.21216">
        <ele>2365.059964</ele>
        <time>2010-09-30T11:35:34Z</time>
      </trkpt>
      <trkpt lat="44.18946" lon="7.2122">
        <ele>2365.059603</ele>
        <time>2010-09-30T11:35:37Z</time>
      </trkpt>
      <trkpt lat="44.18949" lon="7.21223">
        <ele>2365.050598</ele>
        <time>2010-09-30T11:35:40Z</time>
      </trkpt>
      <trkpt lat="44.18952" lon="7.21224">
        <ele>2365.017015</ele>
        <time>2010-09-30T11:35:43Z</time>
      </trkpt>
      <trkpt lat="44.18956" lon="7.21221">
        <ele>2364.944939</ele>
        <time>2010-09-30T11:35:46Z</time>
      </trkpt>
      <trkpt lat="44.18959" lon="7.2122">
        <ele>2364.822797</ele>
        <time>2010-09-30T11:35:48Z</time>
      </trkpt>
      <trkpt lat="44.18962" lon="7.2122">
        <ele>2364.652234</ele>
        <time>2010-09-30T11:35:51Z</time>
      </trkpt>
      <trkpt lat="44.18965" lon="7.2122">
        <ele>2364.454855</ele>
        <time>2010-09-30T11:35:53Z</time>
      </trkpt>
      <trkpt lat="44.18968" lon="7.2122">
        <ele>2364.260083</ele>
        <time>2010-09-30T11:35:55Z</time>
      </trkpt>
      <trkpt lat="44.18972" lon="7.2122">
        <ele>2364.081939</ele>
        <time>2010-09-30T11:35:57Z</time>
      </trkpt>
      <trkpt lat="44.18976" lon="7.21218">
        <ele>2363.916643</ele>
        <time>2010-09-30T11:36:00Z</time>
      </trkpt>
      <trkpt lat="44.18978" lon="7.21215">
        <ele>2363.762538</ele>
        <time>2010-09-30T11:36:03Z</time>
      </trkpt>
      <trkpt lat="44.18978" lon="7.2121">
        <ele>2363.619214</ele>
        <time>2010-09-30T11:36:06Z</time>
      </trkpt>
      <trkpt lat="44.18977" lon="7.21205">
        <ele>2363.467681</ele>
        <time>2010-09-30T11:36:09Z</time>
      </trkpt>
      <trkpt lat="44.18977" lon="7.212">
        <ele>2363.283654</ele>
        <time>2010-09-30T11:36:12Z</time>
      </trkpt>
      <trkpt lat="44.18977" lon="7.21195">
        <ele>2363.057584</ele>
        <time>2010-09-30T11:36:15Z</time>
      </trkpt>
      <trkpt lat="44.18978" lon="7.2119">
        <ele>2362.795928</ele>
        <time>2010-09-30T11:36:18Z</time>
      </trkpt>
      <trkpt lat="44.18979" lon="7.21187">
        <ele>2362.506645</ele>
        <time>2010-09-30T11:36:20Z</time>
      </trkpt>
      <trkpt lat="44.18981" lon="7.21183">
        <ele>2362.197868</ele>
        <time>2010-09-30T11:36:22Z</time>
      </trkpt>
      <trkpt lat="44.18984" lon="7.21176">
        <ele>2361.882622</ele>
        <time>2010-09-30T11:36:25Z</time>
      </trkpt>
      <trkpt lat="44.18986" lon="7.21172">
        <ele>2361.587278</ele>
        <time>2010-09-30T11:36:27Z</time>
      </trkpt>
      <trkpt lat="44.18989" lon="7.21167">
        <ele>2361.333376</ele>
        <time>2010-09-30T11:36:29Z</time>
      </trkpt>
      <trkpt lat="44.18991" lon="7.21161">
        <ele>2361.098237</ele>
        <time>2010-09-30T11:36:31Z</time>
      </trkpt>
      <trkpt lat="44.18997" lon="7.21154">
        <ele>2360.851207</ele>
        <time>2010-09-30T11:36:34Z</time>
      </trkpt>
      <trkpt lat="44.19001" lon="7.21152">
        <ele>2360.607136</ele>
        <time>2010-09-30T11:36:36Z</time>
      </trkpt>
      <trkpt lat="44.19005" lon="7.2115">
        <ele>2360.390861</ele>
        <time>2010-09-30T11:36:38Z</time>
      </trkpt>
      <trkpt lat="44.19009" lon="7.21147">
        <ele>2360.190032</ele>
        <time>2010-09-30T11:36:40Z</time>
      </trkpt>
      <trkpt lat="44.19013" lon="7.21144">
        <ele>2359.988534</ele>
        <time>2010-09-30T11:36:42Z</time>
      </trkpt>
      <trkpt lat="44.19018" lon="7.21139">
        <ele>2359.799019</ele>
        <time>2010-09-30T11:36:45Z</time>
      </trkpt>
      <trkpt lat="44.19023" lon="7.21136">
        <ele>2359.636675</ele>
        <time>2010-09-30T11:36:48Z</time>
      </trkpt>
      <trkpt lat="44.19026" lon="7.21133">
        <ele>2359.493099</ele>
        <time>2010-09-30T11:36:50Z</time>
      </trkpt>
      <trkpt lat="44.19031" lon="7.21129">
        <ele>2359.347465</ele>
        <time>2010-09-30T11:36:53Z</time>
      </trkpt>
      <trkpt lat="44.19035" lon="7.21125">
        <ele>2359.182849</ele>
        <time>2010-09-30T11:36:56Z</time>
      </trkpt>
      <trkpt lat="44.19039" lon="7.2112">
        <ele>2359.013263</ele>
        <time>2010-09-30T11:36:59Z</time>
      </trkpt>
      <trkpt lat="44.19043" lon="7.21117">
        <ele>2358.864666</ele>
        <time>2010-09-30T11:37:02Z</time>
      </trkpt>
      <trkpt lat="44.19048" lon="7.21114">
        <ele>2358.736316</ele>
        <time>2010-09-30T11:37:05Z</time>
      </trkpt>
      <trkpt lat="44.19053" lon="7.21114">
        <ele>2358.618144</ele>
        <time>2010-09-30T11:37:08Z</time>
      </trkpt>
      <trkpt lat="44.19056" lon="7.21114">
        <ele>2358.51234</ele>
        <time>2010-09-30T11:37:10Z</time>
      </trkpt>
      <trkpt lat="44.19061" lon="7.21115">
        <ele>2358.417693</ele>
        <time>2010-09-30T11:37:13Z</time>
      </trkpt>
      <trkpt lat="44.19064" lon="7.21117">
        <ele>2358.32463</ele>
        <time>2010-09-30T11:37:15Z</time>
      </trkpt>
      <trkpt lat="44.19068" lon="7.21117">
        <ele>2358.230194</ele>
        <time>2010-09-30T11:37:18Z</time>
      </trkpt>
      <trkpt lat="44.19072" lon="7.21118">
        <ele>2358.130618</ele>
        <time>2010-09-30T11:37:21Z</time>
      </trkpt>
      <trkpt lat="44.19077" lon="7.21121">
        <ele>2358.020886</ele>
        <time>2010-09-30T11:37:24Z</time>
      </trkpt>
      <trkpt lat="44.19082" lon="7.21126">
        <ele>2357.900912</ele>
        <time>2010-09-30T11:37:27Z</time>
      </trkpt>
      <trkpt lat="44.19087" lon="7.21134">
        <ele>2357.763808</ele>
        <time>2010-09-30T11:37:30Z</time>
      </trkpt>
      <trkpt lat="44.19089" lon="7.21139">
        <ele>2357.596196</ele>
        <time>2010-09-30T11:37:32Z</time>
      </trkpt>
      <trkpt lat="44.19092" lon="7.21143">
        <ele>2357.394678</ele>
        <time>2010-09-30T11:37:34Z</time>
      </trkpt>
      <trkpt lat="44.19097" lon="7.21148">
        <ele>2357.147338</ele>
        <time>2010-09-30T11:37:37Z</time>
      </trkpt>
      <trkpt lat="44.19102" lon="7.21152">
        <ele>2356.854458</ele>
        <time>2010-09-30T11:37:40Z</time>
      </trkpt>
      <trkpt lat="44.19105" lon="7.21155">
        <ele>2356.553079</ele>
        <time>2010-09-30T11:37:42Z</time>
      </trkpt>
      <trkpt lat="44.19111" lon="7.2116">
        <ele>2356.261555</ele>
        <time>2010-09-30T11:37:45Z</time>
      </trkpt>
      <trkpt lat="44.19117" lon="7.21167">
        <ele>2355.959378</ele>
        <time>2010-09-30T11:37:48Z</time>
      </trkpt>
      <trkpt lat="44.19122" lon="7.21173">
        <ele>2355.660611</ele>
        <time>2010-09-30T11:37:50Z</time>
      </trkpt>
      <trkpt lat="44.19126" lon="7.2118">
        <ele>2355.398434</ele>
        <time>2010-09-30T11:37:53Z</time>
      </trkpt>
      <trkpt lat="44.19128" lon="7.21184">
        <ele>2355.164108</ele>
        <time>2010-09-30T11:37:55Z</time>
      </trkpt>
      <trkpt lat="44.1913" lon="7.21188">
        <ele>2354.942076</ele>
        <time>2010-09-30T11:37:57Z</time>
      </trkpt>
      <trkpt lat="44.19133" lon="7.21194">
        <ele>2354.72954</ele>
        <time>2010-09-30T11:38:00Z</time>
      </trkpt>
      <trkpt lat="44.19134" lon="7.21199">
        <ele>2354.521334</ele>
        <time>2010-09-30T11:38:03Z</time>
      </trkpt>
      <trkpt lat="44.19136" lon="7.21203">
        <ele>2354.324904</ele>
        <time>2010-09-30T11:38:05Z</time>
      </trkpt>
      <trkpt lat="44.19138" lon="7.21209">
        <ele>2354.133141</ele>
        <time>2010-09-30T11:38:08Z</time>
      </trkpt>
      <trkpt lat="44.19141" lon="7.21215">
        <ele>2353.906894</ele>
        <time>2010-09-30T11:38:11Z</time>
      </trkpt>
      <trkpt lat="44.19144" lon="7.21219">
        <ele>2353.641682</ele>
        <time>2010-09-30T11:38:13Z</time>
      </trkpt>
      <trkpt lat="44.19147" lon="7.21225">
        <ele>2353.363397</ele>
        <time>2010-09-30T11:38:16Z</time>
      </trkpt>
      <trkpt lat="44.1915" lon="7.21231">
        <ele>2353.075047</ele>
        <time>2010-09-30T11:38:19Z</time>
      </trkpt>
      <trkpt lat="44.19152" lon="7.21234">
        <ele>2352.785128</ele>
        <time>2010-09-30T11:38:21Z</time>
      </trkpt>
      <trkpt lat="44.19154" lon="7.21237">
        <ele>2352.506888</ele>
        <time>2010-09-30T11:38:24Z</time>
      </trkpt>
      <trkpt lat="44.19157" lon="7.21236">
        <ele>2352.214219</ele>
        <time>2010-09-30T11:38:26Z</time>
      </trkpt>
      <trkpt lat="44.19161" lon="7.21234">
        <ele>2351.896501</ele>
        <time>2010-09-30T11:38:29Z</time>
      </trkpt>
      <trkpt lat="44.19165" lon="7.21231">
        <ele>2351.558437</ele>
        <time>2010-09-30T11:38:32Z</time>
      </trkpt>
      <trkpt lat="44.19168" lon="7.21231">
        <ele>2351.192627</ele>
        <time>2010-09-30T11:38:40Z</time>
      </trkpt>
      <trkpt lat="44.19171" lon="7.21232">
        <ele>2350.80434</ele>
        <time>2010-09-30T11:38:43Z</time>
      </trkpt>
      <trkpt lat="44.19173" lon="7.21234">
        <ele>2350.406284</ele>
        <time>2010-09-30T11:38:47Z</time>
      </trkpt>
      <trkpt lat="44.19173" lon="7.21234">
        <ele>2349.885558</ele>
        <time>2010-09-30T11:38:53Z</time>
      </trkpt>
      <trkpt lat="44.19173" lon="7.21234">
        <ele>2349.169587</ele>
        <time>2010-09-30T11:39:14Z</time>
      </trkpt>
      <trkpt lat="44.19202" lon="7.21239">
        <ele>2348.425171</ele>
        <time>2010-09-30T11:43:20Z</time>
      </trkpt>
      <trkpt lat="44.19204" lon="7.21236">
        <ele>2347.873299</ele>
        <time>2010-09-30T11:43:23Z</time>
      </trkpt>
      <trkpt lat="44.19207" lon="7.21234">
        <ele>2347.522091</ele>
        <time>2010-09-30T11:43:26Z</time>
      </trkpt>
      <trkpt lat="44.19209" lon="7.21233">
        <ele>2345.38589</ele>
        <time>2010-09-30T11:43:29Z</time>
      </trkpt>
      <trkpt lat="44.19213" lon="7.21233">
        <ele>2340.240947</ele>
        <time>2010-09-30T11:43:33Z</time>
      </trkpt>
      <trkpt lat="44.19216" lon="7.21232">
        <ele>2334.948193</ele>
        <time>2010-09-30T11:43:36Z</time>
      </trkpt>
      <trkpt lat="44.19219" lon="7.2123">
        <ele>2332.300962</ele>
        <time>2010-09-30T11:43:39Z</time>
      </trkpt>
      <trkpt lat="44.19222" lon="7.21226">
        <ele>2331.744884</ele>
        <time>2010-09-30T11:43:42Z</time>
      </trkpt>
      <trkpt lat="44.19225" lon="7.21221">
        <ele>2332.049412</ele>
        <time>2010-09-30T11:43:44Z</time>
      </trkpt>
      <trkpt lat="44.19229" lon="7.21215">
        <ele>2332.418094</ele>
        <time>2010-09-30T11:43:47Z</time>
      </trkpt>
      <trkpt lat="44.19232" lon="7.21211">
        <ele>2332.593619</ele>
        <time>2010-09-30T11:43:50Z</time>
      </trkpt>
      <trkpt lat="44.19236" lon="7.21209">
        <ele>2332.59314</ele>
        <time>2010-09-30T11:43:53Z</time>
      </trkpt>
      <trkpt lat="44.19239" lon="7.21208">
        <ele>2332.483239</ele>
        <time>2010-09-30T11:43:56Z</time>
      </trkpt>
      <trkpt lat="44.19242" lon="7.21207">
        <ele>2332.323844</ele>
        <time>2010-09-30T11:43:59Z</time>
      </trkpt>
      <trkpt lat="44.19244" lon="7.21207">
        <ele>2332.174107</ele>
        <time>2010-09-30T11:44:02Z</time>
      </trkpt>
      <trkpt lat="44.19248" lon="7.21207">
        <ele>2332.060428</ele>
        <time>2010-09-30T11:44:05Z</time>
      </trkpt>
      <trkpt lat="44.19251" lon="7.21207">
        <ele>2331.951684</ele>
        <time>2010-09-30T11:44:08Z</time>
      </trkpt>
      <trkpt lat="44.19254" lon="7.21209">
        <ele>2331.801064</ele>
        <time>2010-09-30T11:44:11Z</time>
      </trkpt>
      <trkpt lat="44.19257" lon="7.2121">
        <ele>2331.588797</ele>
        <time>2010-09-30T11:44:14Z</time>
      </trkpt>
      <trkpt lat="44.19261" lon="7.21211">
        <ele>2331.318567</ele>
        <time>2010-09-30T11:44:17Z</time>
      </trkpt>
      <trkpt lat="44.19264" lon="7.2121">
        <ele>2331.000044</ele>
        <time>2010-09-30T11:44:20Z</time>
      </trkpt>
      <trkpt lat="44.19268" lon="7.21211">
        <ele>2330.646027</ele>
        <time>2010-09-30T11:44:23Z</time>
      </trkpt>
      <trkpt lat="44.1927" lon="7.21212">
        <ele>2330.262752</ele>
        <time>2010-09-30T11:44:26Z</time>
      </trkpt>
      <trkpt lat="44.19273" lon="7.21212">
        <ele>2329.848741</ele>
        <time>2010-09-30T11:44:29Z</time>
      </trkpt>
      <trkpt lat="44.19277" lon="7.21214">
        <ele>2329.413077</ele>
        <time>2010-09-30T11:44:33Z</time>
      </trkpt>
      <trkpt lat="44.19279" lon="7.21215">
        <ele>2328.98203</ele>
        <time>2010-09-30T11:44:36Z</time>
      </trkpt>
      <trkpt lat="44.19282" lon="7.21217">
        <ele>2328.577466</ele>
        <time>2010-09-30T11:44:39Z</time>
      </trkpt>
      <trkpt lat="44.19285" lon="7.21218">
        <ele>2328.18835</ele>
        <time>2010-09-30T11:44:42Z</time>
      </trkpt>
      <trkpt lat="44.19288" lon="7.2122">
        <ele>2327.791826</ele>
        <time>2010-09-30T11:44:46Z</time>
      </trkpt>
      <trkpt lat="44.19291" lon="7.21221">
        <ele>2327.386183</ele>
        <time>2010-09-30T11:44:49Z</time>
      </trkpt>
      <trkpt lat="44.19294" lon="7.21222">
        <ele>2326.977542</ele>
        <time>2010-09-30T11:44:52Z</time>
      </trkpt>
      <trkpt lat="44.19297" lon="7.21224">
        <ele>2326.542322</ele>
        <time>2010-09-30T11:44:55Z</time>
      </trkpt>
      <trkpt lat="44.193" lon="7.21227">
        <ele>2326.069331</ele>
        <time>2010-09-30T11:44:58Z</time>
      </trkpt>
      <trkpt lat="44.19302" lon="7.21229">
        <ele>2325.60291</ele>
        <time>2010-09-30T11:45:00Z</time>
      </trkpt>
      <trkpt lat="44.19306" lon="7.21232">
        <ele>2325.191953</ele>
        <time>2010-09-30T11:45:03Z</time>
      </trkpt>
      <trkpt lat="44.19309" lon="7.21235">
        <ele>2324.832358</ele>
        <time>2010-09-30T11:45:06Z</time>
      </trkpt>
      <trkpt lat="44.19312" lon="7.21239">
        <ele>2324.513565</ele>
        <time>2010-09-30T11:45:09Z</time>
      </trkpt>
      <trkpt lat="44.19315" lon="7.21241">
        <ele>2324.22354</ele>
        <time>2010-09-30T11:45:12Z</time>
      </trkpt>
      <trkpt lat="44.19318" lon="7.21244">
        <ele>2323.923529</ele>
        <time>2010-09-30T11:45:15Z</time>
      </trkpt>
      <trkpt lat="44.19321" lon="7.21247">
        <ele>2323.582718</ele>
        <time>2010-09-30T11:45:18Z</time>
      </trkpt>
      <trkpt lat="44.19324" lon="7.2125">
        <ele>2323.210477</ele>
        <time>2010-09-30T11:45:21Z</time>
      </trkpt>
      <trkpt lat="44.19328" lon="7.21252">
        <ele>2322.829125</ele>
        <time>2010-09-30T11:45:24Z</time>
      </trkpt>
      <trkpt lat="44.19331" lon="7.21254">
        <ele>2322.454518</ele>
        <time>2010-09-30T11:45:27Z</time>
      </trkpt>
      <trkpt lat="44.19334" lon="7.21255">
        <ele>2322.088538</ele>
        <time>2010-09-30T11:45:30Z</time>
      </trkpt>
      <trkpt lat="44.19337" lon="7.21256">
        <ele>2321.730908</ele>
        <time>2010-09-30T11:45:33Z</time>
      </trkpt>
      <trkpt lat="44.19341" lon="7.21256">
        <ele>2321.392708</ele>
        <time>2010-09-30T11:45:36Z</time>
      </trkpt>
      <trkpt lat="44.19344" lon="7.21256">
        <ele>2321.082527</ele>
        <time>2010-09-30T11:45:39Z</time>
      </trkpt>
      <trkpt lat="44.19348" lon="7.21255">
        <ele>2320.78916</ele>
        <time>2010-09-30T11:45:42Z</time>
      </trkpt>
      <trkpt lat="44.19352" lon="7.21253">
        <ele>2320.494308</ele>
        <time>2010-09-30T11:45:45Z</time>
      </trkpt>
      <trkpt lat="44.19355" lon="7.21251">
        <ele>2320.192241</ele>
        <time>2010-09-30T11:45:48Z</time>
      </trkpt>
      <trkpt lat="44.19359" lon="7.21249">
        <ele>2319.889566</ele>
        <time>2010-09-30T11:45:51Z</time>
      </trkpt>
      <trkpt lat="44.19362" lon="7.21247">
        <ele>2319.595206</ele>
        <time>2010-09-30T11:45:54Z</time>
      </trkpt>
      <trkpt lat="44.19365" lon="7.21245">
        <ele>2319.313692</ele>
        <time>2010-09-30T11:45:57Z</time>
      </trkpt>
      <trkpt lat="44.19367" lon="7.21243">
        <ele>2319.039215</ele>
        <time>2010-09-30T11:45:59Z</time>
      </trkpt>
      <trkpt lat="44.1937" lon="7.21238">
        <ele>2318.756377</ele>
        <time>2010-09-30T11:46:02Z</time>
      </trkpt>
      <trkpt lat="44.19372" lon="7.21235">
        <ele>2318.448905</ele>
        <time>2010-09-30T11:46:04Z</time>
      </trkpt>
      <trkpt lat="44.19374" lon="7.21231">
        <ele>2318.126849</ele>
        <time>2010-09-30T11:46:06Z</time>
      </trkpt>
      <trkpt lat="44.19377" lon="7.21227">
        <ele>2317.815173</ele>
        <time>2010-09-30T11:46:09Z</time>
      </trkpt>
      <trkpt lat="44.19379" lon="7.21223">
        <ele>2317.532518</ele>
        <time>2010-09-30T11:46:12Z</time>
      </trkpt>
      <trkpt lat="44.19382" lon="7.2122">
        <ele>2317.297818</ele>
        <time>2010-09-30T11:46:15Z</time>
      </trkpt>
      <trkpt lat="44.19384" lon="7.21216">
        <ele>2317.10405</ele>
        <time>2010-09-30T11:46:18Z</time>
      </trkpt>
      <trkpt lat="44.19386" lon="7.21213">
        <ele>2316.906476</ele>
        <time>2010-09-30T11:46:20Z</time>
      </trkpt>
      <trkpt lat="44.19389" lon="7.21209">
        <ele>2316.683223</ele>
        <time>2010-09-30T11:46:23Z</time>
      </trkpt>
      <trkpt lat="44.19392" lon="7.21206">
        <ele>2316.454064</ele>
        <time>2010-09-30T11:46:26Z</time>
      </trkpt>
      <trkpt lat="44.19395" lon="7.21202">
        <ele>2316.256383</ele>
        <time>2010-09-30T11:46:29Z</time>
      </trkpt>
      <trkpt lat="44.19397" lon="7.21199">
        <ele>2316.108483</ele>
        <time>2010-09-30T11:46:31Z</time>
      </trkpt>
      <trkpt lat="44.19399" lon="7.21194">
        <ele>2315.991132</ele>
        <time>2010-09-30T11:46:34Z</time>
      </trkpt>
      <trkpt lat="44.19399" lon="7.2119">
        <ele>2315.866781</ele>
        <time>2010-09-30T11:46:36Z</time>
      </trkpt>
      <trkpt lat="44.19401" lon="7.21186">
        <ele>2315.715009</ele>
        <time>2010-09-30T11:46:39Z</time>
      </trkpt>
      <trkpt lat="44.194" lon="7.21182">
        <ele>2315.537553</ele>
        <time>2010-09-30T11:46:42Z</time>
      </trkpt>
      <trkpt lat="44.194" lon="7.21177">
        <ele>2315.357064</ele>
        <time>2010-09-30T11:46:45Z</time>
      </trkpt>
      <trkpt lat="44.194" lon="7.21173">
        <ele>2315.198925</ele>
        <time>2010-09-30T11:46:48Z</time>
      </trkpt>
      <trkpt lat="44.19401" lon="7.21169">
        <ele>2315.064266</ele>
        <time>2010-09-30T11:46:52Z</time>
      </trkpt>
      <trkpt lat="44.19402" lon="7.21165">
        <ele>2314.924596</ele>
        <time>2010-09-30T11:46:55Z</time>
      </trkpt>
      <trkpt lat="44.19403" lon="7.21161">
        <ele>2314.734562</ele>
        <time>2010-09-30T11:46:58Z</time>
      </trkpt>
      <trkpt lat="44.19405" lon="7.21157">
        <ele>2314.452682</ele>
        <time>2010-09-30T11:47:02Z</time>
      </trkpt>
      <trkpt lat="44.19407" lon="7.21153">
        <ele>2314.10164</ele>
        <time>2010-09-30T11:47:05Z</time>
      </trkpt>
      <trkpt lat="44.19409" lon="7.2115">
        <ele>2313.75916</ele>
        <time>2010-09-30T11:47:07Z</time>
      </trkpt>
      <trkpt lat="44.1941" lon="7.21147">
        <ele>2313.464738</ele>
        <time>2010-09-30T11:47:09Z</time>
      </trkpt>
      <trkpt lat="44.19413" lon="7.21142">
        <ele>2313.211205</ele>
        <time>2010-09-30T11:47:12Z</time>
      </trkpt>
      <trkpt lat="44.19416" lon="7.2114">
        <ele>2313.008</ele>
        <time>2010-09-30T11:47:15Z</time>
      </trkpt>
      <trkpt lat="44.19419" lon="7.21143">
        <ele>2312.872613</ele>
        <time>2010-09-30T11:47:18Z</time>
      </trkpt>
      <trkpt lat="44.19422" lon="7.21148">
        <ele>2312.794311</ele>
        <time>2010-09-30T11:47:21Z</time>
      </trkpt>
      <trkpt lat="44.19425" lon="7.21148">
        <ele>2312.747471</ele>
        <time>2010-09-30T11:47:24Z</time>
      </trkpt>
      <trkpt lat="44.19428" lon="7.21145">
        <ele>2312.709877</ele>
        <time>2010-09-30T11:47:27Z</time>
      </trkpt>
      <trkpt lat="44.1943" lon="7.21143">
        <ele>2312.665767</ele>
        <time>2010-09-30T11:47:29Z</time>
      </trkpt>
      <trkpt lat="44.19434" lon="7.21142">
        <ele>2312.6123</ele>
        <time>2010-09-30T11:47:32Z</time>
      </trkpt>
      <trkpt lat="44.19435" lon="7.21145">
        <ele>2312.559832</ele>
        <time>2010-09-30T11:47:35Z</time>
      </trkpt>
      <trkpt lat="44.19437" lon="7.21148">
        <ele>2312.517045</ele>
        <time>2010-09-30T11:47:38Z</time>
      </trkpt>
      <trkpt lat="44.1944" lon="7.21151">
        <ele>2312.471279</ele>
        <time>2010-09-30T11:47:41Z</time>
      </trkpt>
      <trkpt lat="44.19443" lon="7.21153">
        <ele>2312.402659</ele>
        <time>2010-09-30T11:47:44Z</time>
      </trkpt>
      <trkpt lat="44.19447" lon="7.21153">
        <ele>2312.314042</ele>
        <time>2010-09-30T11:47:47Z</time>
      </trkpt>
      <trkpt lat="44.1945" lon="7.21154">
        <ele>2312.224831</ele>
        <time>2010-09-30T11:47:50Z</time>
      </trkpt>
      <trkpt lat="44.19454" lon="7.21155">
        <ele>2312.1388</ele>
        <time>2010-09-30T11:47:53Z</time>
      </trkpt>
      <trkpt lat="44.19458" lon="7.21157">
        <ele>2312.031066</ele>
        <time>2010-09-30T11:47:56Z</time>
      </trkpt>
      <trkpt lat="44.1946" lon="7.21157">
        <ele>2311.879046</ele>
        <time>2010-09-30T11:47:58Z</time>
      </trkpt>
      <trkpt lat="44.19464" lon="7.21159">
        <ele>2311.697618</ele>
        <time>2010-09-30T11:48:01Z</time>
      </trkpt>
      <trkpt lat="44.19468" lon="7.21162">
        <ele>2311.519307</ele>
        <time>2010-09-30T11:48:04Z</time>
      </trkpt>
      <trkpt lat="44.19472" lon="7.21164">
        <ele>2311.370267</ele>
        <time>2010-09-30T11:48:07Z</time>
      </trkpt>
      <trkpt lat="44.19476" lon="7.21165">
        <ele>2311.258731</ele>
        <time>2010-09-30T11:48:10Z</time>
      </trkpt>
      <trkpt lat="44.1948" lon="7.21164">
        <ele>2311.172182</ele>
        <time>2010-09-30T11:48:13Z</time>
      </trkpt>
      <trkpt lat="44.19483" lon="7.21162">
        <ele>2311.099763</ele>
        <time>2010-09-30T11:48:16Z</time>
      </trkpt>
      <trkpt lat="44.19486" lon="7.21159">
        <ele>2311.044075</ele>
        <time>2010-09-30T11:48:19Z</time>
      </trkpt>
      <trkpt lat="44.19489" lon="7.21158">
        <ele>2311.008837</ele>
        <time>2010-09-30T11:48:22Z</time>
      </trkpt>
      <trkpt lat="44.19492" lon="7.21157">
        <ele>2310.983577</ele>
        <time>2010-09-30T11:48:25Z</time>
      </trkpt>
      <trkpt lat="44.19496" lon="7.21157">
        <ele>2310.93647</ele>
        <time>2010-09-30T11:48:28Z</time>
      </trkpt>
      <trkpt lat="44.19499" lon="7.21158">
        <ele>2310.831465</ele>
        <time>2010-09-30T11:48:31Z</time>
      </trkpt>
      <trkpt lat="44.19503" lon="7.21158">
        <ele>2310.657583</ele>
        <time>2010-09-30T11:48:34Z</time>
      </trkpt>
      <trkpt lat="44.19506" lon="7.21157">
        <ele>2310.435244</ele>
        <time>2010-09-30T11:48:37Z</time>
      </trkpt>
      <trkpt lat="44.19509" lon="7.21157">
        <ele>2310.190529</ele>
        <time>2010-09-30T11:48:40Z</time>
      </trkpt>
      <trkpt lat="44.19512" lon="7.21157">
        <ele>2309.932799</ele>
        <time>2010-09-30T11:48:43Z</time>
      </trkpt>
      <trkpt lat="44.19515" lon="7.21159">
        <ele>2309.656887</ele>
        <time>2010-09-30T11:48:46Z</time>
      </trkpt>
      <trkpt lat="44.19518" lon="7.21162">
        <ele>2309.353966</ele>
        <time>2010-09-30T11:48:49Z</time>
      </trkpt>
      <trkpt lat="44.19521" lon="7.21165">
        <ele>2309.023678</ele>
        <time>2010-09-30T11:48:51Z</time>
      </trkpt>
      <trkpt lat="44.19524" lon="7.21167">
        <ele>2308.681444</ele>
        <time>2010-09-30T11:48:54Z</time>
      </trkpt>
      <trkpt lat="44.19528" lon="7.21169">
        <ele>2308.349962</ele>
        <time>2010-09-30T11:48:57Z</time>
      </trkpt>
      <trkpt lat="44.19531" lon="7.21169">
        <ele>2308.054782</ele>
        <time>2010-09-30T11:49:00Z</time>
      </trkpt>
      <trkpt lat="44.19534" lon="7.21167">
        <ele>2307.799839</ele>
        <time>2010-09-30T11:49:03Z</time>
      </trkpt>
      <trkpt lat="44.19538" lon="7.21166">
        <ele>2307.55492</ele>
        <time>2010-09-30T11:49:06Z</time>
      </trkpt>
      <trkpt lat="44.19541" lon="7.21164">
        <ele>2307.287713</ele>
        <time>2010-09-30T11:49:09Z</time>
      </trkpt>
      <trkpt lat="44.19543" lon="7.2116">
        <ele>2306.987243</ele>
        <time>2010-09-30T11:49:12Z</time>
      </trkpt>
      <trkpt lat="44.19543" lon="7.21156">
        <ele>2306.657119</ele>
        <time>2010-09-30T11:49:15Z</time>
      </trkpt>
      <trkpt lat="44.19546" lon="7.21153">
        <ele>2306.31123</ele>
        <time>2010-09-30T11:49:19Z</time>
      </trkpt>
      <trkpt lat="44.19548" lon="7.21152">
        <ele>2305.962991</ele>
        <time>2010-09-30T11:49:22Z</time>
      </trkpt>
      <trkpt lat="44.19551" lon="7.21151">
        <ele>2305.617788</ele>
        <time>2010-09-30T11:49:25Z</time>
      </trkpt>
      <trkpt lat="44.19554" lon="7.21151">
        <ele>2305.258359</ele>
        <time>2010-09-30T11:49:28Z</time>
      </trkpt>
      <trkpt lat="44.19557" lon="7.21152">
        <ele>2304.876573</ele>
        <time>2010-09-30T11:49:31Z</time>
      </trkpt>
      <trkpt lat="44.19559" lon="7.21153">
        <ele>2304.50498</ele>
        <time>2010-09-30T11:49:34Z</time>
      </trkpt>
      <trkpt lat="44.19562" lon="7.21152">
        <ele>2304.173214</ele>
        <time>2010-09-30T11:49:37Z</time>
      </trkpt>
      <trkpt lat="44.19566" lon="7.21151">
        <ele>2303.865633</ele>
        <time>2010-09-30T11:49:40Z</time>
      </trkpt>
      <trkpt lat="44.19569" lon="7.2115">
        <ele>2303.5487</ele>
        <time>2010-09-30T11:49:43Z</time>
      </trkpt>
      <trkpt lat="44.19573" lon="7.21147">
        <ele>2303.202716</ele>
        <time>2010-09-30T11:49:46Z</time>
      </trkpt>
      <trkpt lat="44.19575" lon="7.21146">
        <ele>2302.836983</ele>
        <time>2010-09-30T11:49:48Z</time>
      </trkpt>
      <trkpt lat="44.19579" lon="7.21143">
        <ele>2302.485013</ele>
        <time>2010-09-30T11:49:51Z</time>
      </trkpt>
      <trkpt lat="44.19581" lon="7.2114">
        <ele>2302.181718</ele>
        <time>2010-09-30T11:49:54Z</time>
      </trkpt>
      <trkpt lat="44.19583" lon="7.21137">
        <ele>2301.947629</ele>
        <time>2010-09-30T11:49:57Z</time>
      </trkpt>
      <trkpt lat="44.19585" lon="7.21133">
        <ele>2301.778659</ele>
        <time>2010-09-30T11:50:00Z</time>
      </trkpt>
      <trkpt lat="44.19588" lon="7.21129">
        <ele>2301.645904</ele>
        <time>2010-09-30T11:50:03Z</time>
      </trkpt>
      <trkpt lat="44.1959" lon="7.21126">
        <ele>2301.526143</ele>
        <time>2010-09-30T11:50:06Z</time>
      </trkpt>
      <trkpt lat="44.19592" lon="7.21122">
        <ele>2301.417336</ele>
        <time>2010-09-30T11:50:09Z</time>
      </trkpt>
      <trkpt lat="44.19595" lon="7.21118">
        <ele>2301.317503</ele>
        <time>2010-09-30T11:50:12Z</time>
      </trkpt>
      <trkpt lat="44.19598" lon="7.21114">
        <ele>2301.217159</ele>
        <time>2010-09-30T11:50:15Z</time>
      </trkpt>
      <trkpt lat="44.19601" lon="7.21111">
        <ele>2301.109365</ele>
        <time>2010-09-30T11:50:18Z</time>
      </trkpt>
      <trkpt lat="44.19603" lon="7.21106">
        <ele>2300.996979</ele>
        <time>2010-09-30T11:50:21Z</time>
      </trkpt>
      <trkpt lat="44.19604" lon="7.21102">
        <ele>2300.887826</ele>
        <time>2010-09-30T11:50:24Z</time>
      </trkpt>
      <trkpt lat="44.19607" lon="7.21098">
        <ele>2300.787374</ele>
        <time>2010-09-30T11:50:27Z</time>
      </trkpt>
      <trkpt lat="44.19609" lon="7.21095">
        <ele>2300.690313</ele>
        <time>2010-09-30T11:50:30Z</time>
      </trkpt>
      <trkpt lat="44.19611" lon="7.21092">
        <ele>2300.586523</ele>
        <time>2010-09-30T11:50:33Z</time>
      </trkpt>
      <trkpt lat="44.19613" lon="7.21088">
        <ele>2300.478099</ele>
        <time>2010-09-30T11:50:36Z</time>
      </trkpt>
      <trkpt lat="44.19616" lon="7.21084">
        <ele>2300.375855</ele>
        <time>2010-09-30T11:50:39Z</time>
      </trkpt>
      <trkpt lat="44.19619" lon="7.2108">
        <ele>2300.283856</ele>
        <time>2010-09-30T11:50:42Z</time>
      </trkpt>
      <trkpt lat="44.19622" lon="7.21077">
        <ele>2300.19995</ele>
        <time>2010-09-30T11:50:44Z</time>
      </trkpt>
      <trkpt lat="44.19625" lon="7.21073">
        <ele>2300.116983</ele>
        <time>2010-09-30T11:50:47Z</time>
      </trkpt>
      <trkpt lat="44.19629" lon="7.2107">
        <ele>2300.021002</ele>
        <time>2010-09-30T11:50:50Z</time>
      </trkpt>
      <trkpt lat="44.19632" lon="7.21064">
        <ele>2299.908734</ele>
        <time>2010-09-30T11:50:53Z</time>
      </trkpt>
      <trkpt lat="44.19635" lon="7.21059">
        <ele>2299.790325</ele>
        <time>2010-09-30T11:50:56Z</time>
      </trkpt>
      <trkpt lat="44.19638" lon="7.21054">
        <ele>2299.667216</ele>
        <time>2010-09-30T11:50:59Z</time>
      </trkpt>
      <trkpt lat="44.19639" lon="7.21047">
        <ele>2299.525309</ele>
        <time>2010-09-30T11:51:02Z</time>
      </trkpt>
      <trkpt lat="44.19639" lon="7.21039">
        <ele>2299.351356</ele>
        <time>2010-09-30T11:51:05Z</time>
      </trkpt>
      <trkpt lat="44.19639" lon="7.21033">
        <ele>2299.146816</ele>
        <time>2010-09-30T11:51:08Z</time>
      </trkpt>
      <trkpt lat="44.19639" lon="7.21028">
        <ele>2298.93124</ele>
        <time>2010-09-30T11:51:11Z</time>
      </trkpt>
      <trkpt lat="44.19641" lon="7.21025">
        <ele>2298.737999</ele>
        <time>2010-09-30T11:51:24Z</time>
      </trkpt>
      <trkpt lat="44.19641" lon="7.21021">
        <ele>2298.600173</ele>
        <time>2010-09-30T11:51:27Z</time>
      </trkpt>
      <trkpt lat="44.19642" lon="7.21016">
        <ele>2298.521058</ele>
        <time>2010-09-30T11:51:31Z</time>
      </trkpt>
      <trkpt lat="44.19644" lon="7.21019">
        <ele>2298.481073</ele>
        <time>2010-09-30T11:51:38Z</time>
      </trkpt>
      <trkpt lat="44.19644" lon="7.21019">
        <ele>2298.465315</ele>
        <time>2010-09-30T11:51:39Z</time>
      </trkpt>
      <trkpt lat="44.19659" lon="7.20988">
        <ele>2298.463672</ele>
        <time>2010-09-30T11:52:14Z</time>
      </trkpt>
      <trkpt lat="44.19661" lon="7.20985">
        <ele>2298.466285</ele>
        <time>2010-09-30T11:52:18Z</time>
      </trkpt>
      <trkpt lat="44.19664" lon="7.20982">
        <ele>2298.479546</ele>
        <time>2010-09-30T11:52:22Z</time>
      </trkpt>
      <trkpt lat="44.19667" lon="7.20982">
        <ele>2298.510759</ele>
        <time>2010-09-30T11:52:26Z</time>
      </trkpt>
      <trkpt lat="44.19671" lon="7.2098">
        <ele>2298.556582</ele>
        <time>2010-09-30T11:52:30Z</time>
      </trkpt>
      <trkpt lat="44.19673" lon="7.20979">
        <ele>2298.624844</ele>
        <time>2010-09-30T11:52:34Z</time>
      </trkpt>
      <trkpt lat="44.19676" lon="7.20977">
        <ele>2298.727616</ele>
        <time>2010-09-30T11:52:37Z</time>
      </trkpt>
      <trkpt lat="44.19679" lon="7.20974">
        <ele>2298.850707</ele>
        <time>2010-09-30T11:52:40Z</time>
      </trkpt>
      <trkpt lat="44.19681" lon="7.2097">
        <ele>2298.967749</ele>
        <time>2010-09-30T11:52:43Z</time>
      </trkpt>
      <trkpt lat="44.19683" lon="7.20968">
        <ele>2299.061247</ele>
        <time>2010-09-30T11:52:45Z</time>
      </trkpt>
      <trkpt lat="44.19686" lon="7.20965">
        <ele>2299.12805</ele>
        <time>2010-09-30T11:52:47Z</time>
      </trkpt>
      <trkpt lat="44.19689" lon="7.20963">
        <ele>2299.175379</ele>
        <time>2010-09-30T11:52:50Z</time>
      </trkpt>
      <trkpt lat="44.19693" lon="7.2096">
        <ele>2299.207772</ele>
        <time>2010-09-30T11:52:53Z</time>
      </trkpt>
      <trkpt lat="44.19696" lon="7.20958">
        <ele>2299.223807</ele>
        <time>2010-09-30T11:52:56Z</time>
      </trkpt>
      <trkpt lat="44.197" lon="7.20955">
        <ele>2299.226635</ele>
        <time>2010-09-30T11:52:59Z</time>
      </trkpt>
      <trkpt lat="44.19703" lon="7.20953">
        <ele>2299.222202</ele>
        <time>2010-09-30T11:53:02Z</time>
      </trkpt>
      <trkpt lat="44.19706" lon="7.2095">
        <ele>2299.2108</ele>
        <time>2010-09-30T11:53:05Z</time>
      </trkpt>
      <trkpt lat="44.19709" lon="7.20948">
        <ele>2299.189072</ele>
        <time>2010-09-30T11:53:07Z</time>
      </trkpt>
      <trkpt lat="44.19712" lon="7.20944">
        <ele>2299.158114</ele>
        <time>2010-09-30T11:53:10Z</time>
      </trkpt>
      <trkpt lat="44.19714" lon="7.20941">
        <ele>2299.127244</ele>
        <time>2010-09-30T11:53:12Z</time>
      </trkpt>
      <trkpt lat="44.19717" lon="7.20938">
        <ele>2299.106044</ele>
        <time>2010-09-30T11:53:15Z</time>
      </trkpt>
      <trkpt lat="44.1972" lon="7.20935">
        <ele>2299.093695</ele>
        <time>2010-09-30T11:53:18Z</time>
      </trkpt>
      <trkpt lat="44.19723" lon="7.20932">
        <ele>2299.083344</ele>
        <time>2010-09-30T11:53:21Z</time>
      </trkpt>
      <trkpt lat="44.19725" lon="7.20928">
        <ele>2299.073419</ele>
        <time>2010-09-30T11:53:24Z</time>
      </trkpt>
      <trkpt lat="44.19727" lon="7.20924">
        <ele>2299.067251</ele>
        <time>2010-09-30T11:53:26Z</time>
      </trkpt>
      <trkpt lat="44.19728" lon="7.20921">
        <ele>2299.065341</ele>
        <time>2010-09-30T11:53:28Z</time>
      </trkpt>
      <trkpt lat="44.19731" lon="7.20916">
        <ele>2299.065575</ele>
        <time>2010-09-30T11:53:31Z</time>
      </trkpt>
      <trkpt lat="44.19734" lon="7.20912">
        <ele>2299.068237</ele>
        <time>2010-09-30T11:53:33Z</time>
      </trkpt>
      <trkpt lat="44.19736" lon="7.20909">
        <ele>2299.074419</ele>
        <time>2010-09-30T11:53:36Z</time>
      </trkpt>
      <trkpt lat="44.19738" lon="7.20906">
        <ele>2299.08205</ele>
        <time>2010-09-30T11:53:39Z</time>
      </trkpt>
      <trkpt lat="44.1974" lon="7.20902">
        <ele>2299.096266</ele>
        <time>2010-09-30T11:53:41Z</time>
      </trkpt>
      <trkpt lat="44.19744" lon="7.20898">
        <ele>2299.137504</ele>
        <time>2010-09-30T11:53:44Z</time>
      </trkpt>
      <trkpt lat="44.19748" lon="7.20899">
        <ele>2299.223198</ele>
        <time>2010-09-30T11:53:47Z</time>
      </trkpt>
      <trkpt lat="44.1975" lon="7.20903">
        <ele>2299.343007</ele>
        <time>2010-09-30T11:53:49Z</time>
      </trkpt>
      <trkpt lat="44.19752" lon="7.20908">
        <ele>2299.474185</ele>
        <time>2010-09-30T11:53:52Z</time>
      </trkpt>
      <trkpt lat="44.19753" lon="7.20913">
        <ele>2299.599068</ele>
        <time>2010-09-30T11:53:55Z</time>
      </trkpt>
      <trkpt lat="44.19755" lon="7.20917">
        <ele>2299.700712</ele>
        <time>2010-09-30T11:53:58Z</time>
      </trkpt>
      <trkpt lat="44.19757" lon="7.2092">
        <ele>2299.780199</ele>
        <time>2010-09-30T11:54:01Z</time>
      </trkpt>
      <trkpt lat="44.19759" lon="7.20917">
        <ele>2299.864232</ele>
        <time>2010-09-30T11:54:06Z</time>
      </trkpt>
      <trkpt lat="44.19761" lon="7.20913">
        <ele>2299.97069</ele>
        <time>2010-09-30T11:54:09Z</time>
      </trkpt>
      <trkpt lat="44.19763" lon="7.20909">
        <ele>2300.092287</ele>
        <time>2010-09-30T11:54:12Z</time>
      </trkpt>
      <trkpt lat="44.19765" lon="7.20906">
        <ele>2300.219771</ele>
        <time>2010-09-30T11:54:15Z</time>
      </trkpt>
      <trkpt lat="44.19767" lon="7.20901">
        <ele>2300.344248</ele>
        <time>2010-09-30T11:54:18Z</time>
      </trkpt>
      <trkpt lat="44.19769" lon="7.20898">
        <ele>2300.4425</ele>
        <time>2010-09-30T11:54:21Z</time>
      </trkpt>
      <trkpt lat="44.19771" lon="7.20895">
        <ele>2300.497649</ele>
        <time>2010-09-30T11:54:24Z</time>
      </trkpt>
      <trkpt lat="44.19774" lon="7.20891">
        <ele>2300.518593</ele>
        <time>2010-09-30T11:54:27Z</time>
      </trkpt>
      <trkpt lat="44.19776" lon="7.20888">
        <ele>2300.521059</ele>
        <time>2010-09-30T11:54:29Z</time>
      </trkpt>
      <trkpt lat="44.19777" lon="7.20885">
        <ele>2300.516945</ele>
        <time>2010-09-30T11:54:31Z</time>
      </trkpt>
      <trkpt lat="44.1978" lon="7.20879">
        <ele>2300.511361</ele>
        <time>2010-09-30T11:54:34Z</time>
      </trkpt>
      <trkpt lat="44.19781" lon="7.20875">
        <ele>2300.502863</ele>
        <time>2010-09-30T11:54:37Z</time>
      </trkpt>
      <trkpt lat="44.19783" lon="7.2087">
        <ele>2300.489611</ele>
        <time>2010-09-30T11:54:40Z</time>
      </trkpt>
      <trkpt lat="44.19784" lon="7.20865">
        <ele>2300.47153</ele>
        <time>2010-09-30T11:54:43Z</time>
      </trkpt>
      <trkpt lat="44.19785" lon="7.2086">
        <ele>2300.442616</ele>
        <time>2010-09-30T11:54:46Z</time>
      </trkpt>
      <trkpt lat="44.19787" lon="7.20856">
        <ele>2300.389152</ele>
        <time>2010-09-30T11:54:49Z</time>
      </trkpt>
      <trkpt lat="44.19789" lon="7.20851">
        <ele>2300.304381</ele>
        <time>2010-09-30T11:54:52Z</time>
      </trkpt>
      <trkpt lat="44.1979" lon="7.20847">
        <ele>2300.198282</ele>
        <time>2010-09-30T11:54:55Z</time>
      </trkpt>
      <trkpt lat="44.19785" lon="7.20848">
        <ele>2300.080005</ele>
        <time>2010-09-30T11:55:00Z</time>
      </trkpt>
      <trkpt lat="44.1978" lon="7.20852">
        <ele>2299.946039</ele>
        <time>2010-09-30T11:55:06Z</time>
      </trkpt>
      <trkpt lat="44.19778" lon="7.20857">
        <ele>2299.795095</ele>
        <time>2010-09-30T11:55:12Z</time>
      </trkpt>
      <trkpt lat="44.19777" lon="7.20853">
        <ele>2299.648156</ele>
        <time>2010-09-30T11:55:21Z</time>
      </trkpt>
      <trkpt lat="44.19777" lon="7.20853">
        <ele>2299.510501</ele>
        <time>2010-09-30T11:55:22Z</time>
      </trkpt>
      <trkpt lat="44.19799" lon="7.2083">
        <ele>2299.280358</ele>
        <time>2010-09-30T11:55:40Z</time>
      </trkpt>
      <trkpt lat="44.19803" lon="7.20826">
        <ele>2298.773987</ele>
        <time>2010-09-30T11:55:43Z</time>
      </trkpt>
      <trkpt lat="44.19808" lon="7.20822">
        <ele>2298.011879</ele>
        <time>2010-09-30T11:55:46Z</time>
      </trkpt>
      <trkpt lat="44.19811" lon="7.20819">
        <ele>2297.06713</ele>
        <time>2010-09-30T11:55:48Z</time>
      </trkpt>
      <trkpt lat="44.19814" lon="7.20817">
        <ele>2296.003566</ele>
        <time>2010-09-30T11:55:50Z</time>
      </trkpt>
      <trkpt lat="44.19819" lon="7.20817">
        <ele>2295.093138</ele>
        <time>2010-09-30T11:55:53Z</time>
      </trkpt>
      <trkpt lat="44.19822" lon="7.2082">
        <ele>2294.558803</ele>
        <time>2010-09-30T11:55:55Z</time>
      </trkpt>
      <trkpt lat="44.19824" lon="7.20823">
        <ele>2294.299153</ele>
        <time>2010-09-30T11:55:57Z</time>
      </trkpt>
      <trkpt lat="44.19827" lon="7.20826">
        <ele>2294.146262</ele>
        <time>2010-09-30T11:56:00Z</time>
      </trkpt>
      <trkpt lat="44.1983" lon="7.20827">
        <ele>2293.988623</ele>
        <time>2010-09-30T11:56:04Z</time>
      </trkpt>
      <trkpt lat="44.19827" lon="7.2083">
        <ele>2293.809168</ele>
        <time>2010-09-30T11:56:08Z</time>
      </trkpt>
      <trkpt lat="44.19824" lon="7.20832">
        <ele>2293.615339</ele>
        <time>2010-09-30T11:56:10Z</time>
      </trkpt>
      <trkpt lat="44.1982" lon="7.20834">
        <ele>2293.369911</ele>
        <time>2010-09-30T11:56:13Z</time>
      </trkpt>
      <trkpt lat="44.19817" lon="7.20837">
        <ele>2293.016842</ele>
        <time>2010-09-30T11:56:16Z</time>
      </trkpt>
      <trkpt lat="44.19815" lon="7.2084">
        <ele>2292.57514</ele>
        <time>2010-09-30T11:56:18Z</time>
      </trkpt>
      <trkpt lat="44.19813" lon="7.20843">
        <ele>2292.112968</ele>
        <time>2010-09-30T11:56:20Z</time>
      </trkpt>
      <trkpt lat="44.1981" lon="7.20847">
        <ele>2291.646104</ele>
        <time>2010-09-30T11:56:23Z</time>
      </trkpt>
      <trkpt lat="44.19807" lon="7.20846">
        <ele>2291.184288</ele>
        <time>2010-09-30T11:56:26Z</time>
      </trkpt>
      <trkpt lat="44.19804" lon="7.20844">
        <ele>2290.77719</ele>
        <time>2010-09-30T11:56:29Z</time>
      </trkpt>
      <trkpt lat="44.19801" lon="7.20844">
        <ele>2290.424217</ele>
        <time>2010-09-30T11:56:32Z</time>
      </trkpt>
      <trkpt lat="44.19799" lon="7.20846">
        <ele>2290.076277</ele>
        <time>2010-09-30T11:56:35Z</time>
      </trkpt>
      <trkpt lat="44.19798" lon="7.2085">
        <ele>2289.712725</ele>
        <time>2010-09-30T11:56:38Z</time>
      </trkpt>
      <trkpt lat="44.19798" lon="7.20855">
        <ele>2289.343453</ele>
        <time>2010-09-30T11:56:41Z</time>
      </trkpt>
      <trkpt lat="44.198" lon="7.2086">
        <ele>2288.978152</ele>
        <time>2010-09-30T11:56:44Z</time>
      </trkpt>
      <trkpt lat="44.19802" lon="7.20865">
        <ele>2288.627755</ele>
        <time>2010-09-30T11:56:47Z</time>
      </trkpt>
      <trkpt lat="44.19804" lon="7.20869">
        <ele>2288.295519</ele>
        <time>2010-09-30T11:56:50Z</time>
      </trkpt>
      <trkpt lat="44.19806" lon="7.20874">
        <ele>2287.975366</ele>
        <time>2010-09-30T11:56:53Z</time>
      </trkpt>
      <trkpt lat="44.19807" lon="7.20877">
        <ele>2287.667486</ele>
        <time>2010-09-30T11:56:55Z</time>
      </trkpt>
      <trkpt lat="44.19809" lon="7.20882">
        <ele>2287.377636</ele>
        <time>2010-09-30T11:56:58Z</time>
      </trkpt>
      <trkpt lat="44.19811" lon="7.20886">
        <ele>2287.109698</ele>
        <time>2010-09-30T11:57:01Z</time>
      </trkpt>
      <trkpt lat="44.19813" lon="7.20891">
        <ele>2286.875132</ele>
        <time>2010-09-30T11:57:04Z</time>
      </trkpt>
      <trkpt lat="44.19816" lon="7.20894">
        <ele>2286.678005</ele>
        <time>2010-09-30T11:57:07Z</time>
      </trkpt>
      <trkpt lat="44.19819" lon="7.20894">
        <ele>2286.501786</ele>
        <time>2010-09-30T11:57:10Z</time>
      </trkpt>
      <trkpt lat="44.19823" lon="7.20894">
        <ele>2286.33644</ele>
        <time>2010-09-30T11:57:13Z</time>
      </trkpt>
      <trkpt lat="44.19825" lon="7.20892">
        <ele>2286.185225</ele>
        <time>2010-09-30T11:57:15Z</time>
      </trkpt>
      <trkpt lat="44.19828" lon="7.2089">
        <ele>2286.023847</ele>
        <time>2010-09-30T11:57:17Z</time>
      </trkpt>
      <trkpt lat="44.19832" lon="7.20888">
        <ele>2285.802374</ele>
        <time>2010-09-30T11:57:20Z</time>
      </trkpt>
      <trkpt lat="44.19836" lon="7.20884">
        <ele>2285.518352</ele>
        <time>2010-09-30T11:57:23Z</time>
      </trkpt>
      <trkpt lat="44.1984" lon="7.20881">
        <ele>2285.228611</ele>
        <time>2010-09-30T11:57:26Z</time>
      </trkpt>
      <trkpt lat="44.1984" lon="7.20876">
        <ele>2284.954528</ele>
        <time>2010-09-30T11:57:29Z</time>
      </trkpt>
      <trkpt lat="44.19841" lon="7.20872">
        <ele>2284.644707</ele>
        <time>2010-09-30T11:57:31Z</time>
      </trkpt>
      <trkpt lat="44.19841" lon="7.20867">
        <ele>2284.252155</ele>
        <time>2010-09-30T11:57:34Z</time>
      </trkpt>
      <trkpt lat="44.19841" lon="7.20863">
        <ele>2283.77262</ele>
        <time>2010-09-30T11:57:38Z</time>
      </trkpt>
      <trkpt lat="44.1984" lon="7.20859">
        <ele>2283.252851</ele>
        <time>2010-09-30T11:57:41Z</time>
      </trkpt>
      <trkpt lat="44.19828" lon="7.20855">
        <ele>2282.748886</ele>
        <time>2010-09-30T11:57:43Z</time>
      </trkpt>
      <trkpt lat="44.19817" lon="7.20852">
        <ele>2282.245416</ele>
        <time>2010-09-30T11:57:45Z</time>
      </trkpt>
      <trkpt lat="44.19809" lon="7.20849">
        <ele>2281.714179</ele>
        <time>2010-09-30T11:57:48Z</time>
      </trkpt>
      <trkpt lat="44.19806" lon="7.20846">
        <ele>2281.217331</ele>
        <time>2010-09-30T11:57:50Z</time>
      </trkpt>
      <trkpt lat="44.19803" lon="7.20837">
        <ele>2280.825904</ele>
        <time>2010-09-30T11:57:53Z</time>
      </trkpt>
      <trkpt lat="44.19803" lon="7.20829">
        <ele>2280.55368</ele>
        <time>2010-09-30T11:57:56Z</time>
      </trkpt>
      <trkpt lat="44.19804" lon="7.20824">
        <ele>2280.383384</ele>
        <time>2010-09-30T11:57:58Z</time>
      </trkpt>
      <trkpt lat="44.19805" lon="7.20818">
        <ele>2280.290773</ele>
        <time>2010-09-30T11:58:01Z</time>
      </trkpt>
      <trkpt lat="44.19807" lon="7.20815">
        <ele>2280.254202</ele>
        <time>2010-09-30T11:58:03Z</time>
      </trkpt>
      <trkpt lat="44.1981" lon="7.2081">
        <ele>2280.25309</ele>
        <time>2010-09-30T11:58:06Z</time>
      </trkpt>
      <trkpt lat="44.19812" lon="7.20806">
        <ele>2280.263146</ele>
        <time>2010-09-30T11:58:09Z</time>
      </trkpt>
      <trkpt lat="44.19814" lon="7.20803">
        <ele>2280.284752</ele>
        <time>2010-09-30T11:58:12Z</time>
      </trkpt>
      <trkpt lat="44.19816" lon="7.208">
        <ele>2280.345998</ele>
        <time>2010-09-30T11:58:18Z</time>
      </trkpt>
      <trkpt lat="44.19818" lon="7.20796">
        <ele>2280.470233</ele>
        <time>2010-09-30T11:58:21Z</time>
      </trkpt>
      <trkpt lat="44.19822" lon="7.20792">
        <ele>2280.649483</ele>
        <time>2010-09-30T11:58:24Z</time>
      </trkpt>
      <trkpt lat="44.19824" lon="7.2079">
        <ele>2280.86043</ele>
        <time>2010-09-30T11:58:26Z</time>
      </trkpt>
      <trkpt lat="44.19827" lon="7.20788">
        <ele>2281.072098</ele>
        <time>2010-09-30T11:58:29Z</time>
      </trkpt>
      <trkpt lat="44.19831" lon="7.20785">
        <ele>2281.256287</ele>
        <time>2010-09-30T11:58:32Z</time>
      </trkpt>
      <trkpt lat="44.19834" lon="7.20781">
        <ele>2281.406496</ele>
        <time>2010-09-30T11:58:35Z</time>
      </trkpt>
      <trkpt lat="44.19836" lon="7.20778">
        <ele>2281.527251</ele>
        <time>2010-09-30T11:58:38Z</time>
      </trkpt>
      <trkpt lat="44.19839" lon="7.20775">
        <ele>2281.618778</ele>
        <time>2010-09-30T11:58:41Z</time>
      </trkpt>
      <trkpt lat="44.19841" lon="7.20771">
        <ele>2281.692592</ele>
        <time>2010-09-30T11:58:44Z</time>
      </trkpt>
      <trkpt lat="44.19844" lon="7.20768">
        <ele>2281.77218</ele>
        <time>2010-09-30T11:58:47Z</time>
      </trkpt>
      <trkpt lat="44.19847" lon="7.20766">
        <ele>2281.864455</ele>
        <time>2010-09-30T11:58:50Z</time>
      </trkpt>
      <trkpt lat="44.1985" lon="7.20764">
        <ele>2281.952324</ele>
        <time>2010-09-30T11:58:53Z</time>
      </trkpt>
      <trkpt lat="44.19853" lon="7.20764">
        <ele>2282.026149</ele>
        <time>2010-09-30T11:58:56Z</time>
      </trkpt>
      <trkpt lat="44.19856" lon="7.20764">
        <ele>2282.094998</ele>
        <time>2010-09-30T11:58:59Z</time>
      </trkpt>
      <trkpt lat="44.19856" lon="7.20764">
        <ele>2282.157046</ele>
        <time>2010-09-30T11:59:10Z</time>
      </trkpt>
      <trkpt lat="44.19856" lon="7.20764">
        <ele>2282.195726</ele>
        <time>2010-09-30T11:59:30Z</time>
      </trkpt>
      <trkpt lat="44.19851" lon="7.20725">
        <ele>2282.207133</ele>
        <time>2010-09-30T12:02:42Z</time>
      </trkpt>
      <trkpt lat="44.19849" lon="7.20722">
        <ele>2281.835977</ele>
        <time>2010-09-30T12:02:44Z</time>
      </trkpt>
      <trkpt lat="44.19847" lon="7.20718">
        <ele>2280.861982</ele>
        <time>2010-09-30T12:02:46Z</time>
      </trkpt>
      <trkpt lat="44.19846" lon="7.20712">
        <ele>2279.164621</ele>
        <time>2010-09-30T12:02:49Z</time>
      </trkpt>
      <trkpt lat="44.19845" lon="7.20705">
        <ele>2276.864848</ele>
        <time>2010-09-30T12:02:52Z</time>
      </trkpt>
      <trkpt lat="44.19844" lon="7.207">
        <ele>2274.874412</ele>
        <time>2010-09-30T12:02:55Z</time>
      </trkpt>
      <trkpt lat="44.19844" lon="7.20694">
        <ele>2273.952293</ele>
        <time>2010-09-30T12:02:58Z</time>
      </trkpt>
      <trkpt lat="44.19843" lon="7.2069">
        <ele>2273.742861</ele>
        <time>2010-09-30T12:03:00Z</time>
      </trkpt>
      <trkpt lat="44.19843" lon="7.20683">
        <ele>2273.769997</ele>
        <time>2010-09-30T12:03:03Z</time>
      </trkpt>
      <trkpt lat="44.19843" lon="7.20675">
        <ele>2273.78226</ele>
        <time>2010-09-30T12:03:06Z</time>
      </trkpt>
      <trkpt lat="44.19843" lon="7.20671">
        <ele>2273.728577</ele>
        <time>2010-09-30T12:03:08Z</time>
      </trkpt>
      <trkpt lat="44.19844" lon="7.20666">
        <ele>2273.640698</ele>
        <time>2010-09-30T12:03:10Z</time>
      </trkpt>
      <trkpt lat="44.19845" lon="7.2066">
        <ele>2273.549841</ele>
        <time>2010-09-30T12:03:13Z</time>
      </trkpt>
      <trkpt lat="44.19847" lon="7.20656">
        <ele>2273.473505</ele>
        <time>2010-09-30T12:03:15Z</time>
      </trkpt>
      <trkpt lat="44.19849" lon="7.2065">
        <ele>2273.4215</ele>
        <time>2010-09-30T12:03:18Z</time>
      </trkpt>
      <trkpt lat="44.19851" lon="7.20646">
        <ele>2273.390279</ele>
        <time>2010-09-30T12:03:20Z</time>
      </trkpt>
      <trkpt lat="44.19854" lon="7.20639">
        <ele>2273.369813</ele>
        <time>2010-09-30T12:03:23Z</time>
      </trkpt>
      <trkpt lat="44.19855" lon="7.20636">
        <ele>2273.355753</ele>
        <time>2010-09-30T12:03:25Z</time>
      </trkpt>
      <trkpt lat="44.19857" lon="7.20632">
        <ele>2273.348785</ele>
        <time>2010-09-30T12:03:27Z</time>
      </trkpt>
      <trkpt lat="44.1986" lon="7.20626">
        <ele>2273.347552</ele>
        <time>2010-09-30T12:03:30Z</time>
      </trkpt>
      <trkpt lat="44.19862" lon="7.20623">
        <ele>2273.349217</ele>
        <time>2010-09-30T12:03:32Z</time>
      </trkpt>
      <trkpt lat="44.19863" lon="7.20617">
        <ele>2273.353193</ele>
        <time>2010-09-30T12:03:35Z</time>
      </trkpt>
      <trkpt lat="44.19864" lon="7.20613">
        <ele>2273.360383</ele>
        <time>2010-09-30T12:03:37Z</time>
      </trkpt>
      <trkpt lat="44.19864" lon="7.20608">
        <ele>2273.369154</ele>
        <time>2010-09-30T12:03:39Z</time>
      </trkpt>
      <trkpt lat="44.19864" lon="7.20604">
        <ele>2273.375456</ele>
        <time>2010-09-30T12:03:41Z</time>
      </trkpt>
      <trkpt lat="44.19864" lon="7.20598">
        <ele>2273.377695</ele>
        <time>2010-09-30T12:03:44Z</time>
      </trkpt>
      <trkpt lat="44.19864" lon="7.20594">
        <ele>2273.377482</ele>
        <time>2010-09-30T12:03:46Z</time>
      </trkpt>
      <trkpt lat="44.19865" lon="7.20589">
        <ele>2273.376497</ele>
        <time>2010-09-30T12:03:48Z</time>
      </trkpt>
      <trkpt lat="44.19866" lon="7.20584">
        <ele>2273.375715</ele>
        <time>2010-09-30T12:03:51Z</time>
      </trkpt>
      <trkpt lat="44.19866" lon="7.20578">
        <ele>2273.375408</ele>
        <time>2010-09-30T12:03:54Z</time>
      </trkpt>
      <trkpt lat="44.19867" lon="7.20572">
        <ele>2273.3754</ele>
        <time>2010-09-30T12:03:57Z</time>
      </trkpt>
      <trkpt lat="44.19867" lon="7.20568">
        <ele>2273.375482</ele>
        <time>2010-09-30T12:03:59Z</time>
      </trkpt>
      <trkpt lat="44.19867" lon="7.20564">
        <ele>2273.375545</ele>
        <time>2010-09-30T12:04:01Z</time>
      </trkpt>
      <trkpt lat="44.19869" lon="7.20559">
        <ele>2273.373815</ele>
        <time>2010-09-30T12:04:04Z</time>
      </trkpt>
      <trkpt lat="44.19869" lon="7.20555">
        <ele>2273.366413</ele>
        <time>2010-09-30T12:04:06Z</time>
      </trkpt>
      <trkpt lat="44.1987" lon="7.20548">
        <ele>2273.353762</ele>
        <time>2010-09-30T12:04:09Z</time>
      </trkpt>
      <trkpt lat="44.19871" lon="7.20541">
        <ele>2273.342462</ele>
        <time>2010-09-30T12:04:12Z</time>
      </trkpt>
      <trkpt lat="44.19871" lon="7.20537">
        <ele>2273.336996</ele>
        <time>2010-09-30T12:04:14Z</time>
      </trkpt>
      <trkpt lat="44.19872" lon="7.2053">
        <ele>2273.336105</ele>
        <time>2010-09-30T12:04:17Z</time>
      </trkpt>
      <trkpt lat="44.19873" lon="7.20526">
        <ele>2273.336993</ele>
        <time>2010-09-30T12:04:19Z</time>
      </trkpt>
      <trkpt lat="44.19874" lon="7.20521">
        <ele>2273.340781</ele>
        <time>2010-09-30T12:04:21Z</time>
      </trkpt>
      <trkpt lat="44.19874" lon="7.20517">
        <ele>2273.353885</ele>
        <time>2010-09-30T12:04:23Z</time>
      </trkpt>
      <trkpt lat="44.19873" lon="7.2051">
        <ele>2273.378963</ele>
        <time>2010-09-30T12:04:26Z</time>
      </trkpt>
      <trkpt lat="44.19872" lon="7.20506">
        <ele>2273.410258</ele>
        <time>2010-09-30T12:04:28Z</time>
      </trkpt>
      <trkpt lat="44.1987" lon="7.20499">
        <ele>2273.442767</ele>
        <time>2010-09-30T12:04:31Z</time>
      </trkpt>
      <trkpt lat="44.19869" lon="7.20493">
        <ele>2273.47823</ele>
        <time>2010-09-30T12:04:34Z</time>
      </trkpt>
      <trkpt lat="44.19869" lon="7.20486">
        <ele>2273.516751</ele>
        <time>2010-09-30T12:04:37Z</time>
      </trkpt>
      <trkpt lat="44.1987" lon="7.20481">
        <ele>2273.549196</ele>
        <time>2010-09-30T12:04:39Z</time>
      </trkpt>
      <trkpt lat="44.1987" lon="7.20477">
        <ele>2273.566363</ele>
        <time>2010-09-30T12:04:41Z</time>
      </trkpt>
      <trkpt lat="44.1987" lon="7.20471">
        <ele>2273.570331</ele>
        <time>2010-09-30T12:04:44Z</time>
      </trkpt>
      <trkpt lat="44.19869" lon="7.20464">
        <ele>2273.569154</ele>
        <time>2010-09-30T12:04:47Z</time>
      </trkpt>
      <trkpt lat="44.19868" lon="7.20457">
        <ele>2273.567755</ele>
        <time>2010-09-30T12:04:50Z</time>
      </trkpt>
      <trkpt lat="44.19866" lon="7.20453">
        <ele>2273.567207</ele>
        <time>2010-09-30T12:04:52Z</time>
      </trkpt>
      <trkpt lat="44.19864" lon="7.20447">
        <ele>2273.568037</ele>
        <time>2010-09-30T12:04:55Z</time>
      </trkpt>
      <trkpt lat="44.19863" lon="7.20443">
        <ele>2273.573213</ele>
        <time>2010-09-30T12:04:57Z</time>
      </trkpt>
      <trkpt lat="44.19862" lon="7.20439">
        <ele>2273.585695</ele>
        <time>2010-09-30T12:04:59Z</time>
      </trkpt>
      <trkpt lat="44.1986" lon="7.20433">
        <ele>2273.604538</ele>
        <time>2010-09-30T12:05:02Z</time>
      </trkpt>
      <trkpt lat="44.19858" lon="7.20426">
        <ele>2273.624183</ele>
        <time>2010-09-30T12:05:05Z</time>
      </trkpt>
      <trkpt lat="44.19857" lon="7.2042">
        <ele>2273.637906</ele>
        <time>2010-09-30T12:05:08Z</time>
      </trkpt>
      <trkpt lat="44.19856" lon="7.20415">
        <ele>2273.643501</ele>
        <time>2010-09-30T12:05:10Z</time>
      </trkpt>
      <trkpt lat="44.19855" lon="7.20409">
        <ele>2273.644924</ele>
        <time>2010-09-30T12:05:13Z</time>
      </trkpt>
      <trkpt lat="44.19855" lon="7.20405">
        <ele>2273.646132</ele>
        <time>2010-09-30T12:05:15Z</time>
      </trkpt>
      <trkpt lat="44.19855" lon="7.20398">
        <ele>2273.647541</ele>
        <time>2010-09-30T12:05:18Z</time>
      </trkpt>
      <trkpt lat="44.19855" lon="7.20394">
        <ele>2273.648289</ele>
        <time>2010-09-30T12:05:20Z</time>
      </trkpt>
      <trkpt lat="44.19855" lon="7.20388">
        <ele>2273.648417</ele>
        <time>2010-09-30T12:05:23Z</time>
      </trkpt>
      <trkpt lat="44.19855" lon="7.20382">
        <ele>2273.647394</ele>
        <time>2010-09-30T12:05:26Z</time>
      </trkpt>
      <trkpt lat="44.19855" lon="7.20375">
        <ele>2273.644486</ele>
        <time>2010-09-30T12:05:29Z</time>
      </trkpt>
      <trkpt lat="44.19854" lon="7.2037">
        <ele>2273.640338</ele>
        <time>2010-09-30T12:05:32Z</time>
      </trkpt>
      <trkpt lat="44.19851" lon="7.20365">
        <ele>2273.63363</ele>
        <time>2010-09-30T12:05:35Z</time>
      </trkpt>
      <trkpt lat="44.19849" lon="7.20363">
        <ele>2273.619623</ele>
        <time>2010-09-30T12:05:37Z</time>
      </trkpt>
      <trkpt lat="44.19846" lon="7.20358">
        <ele>2273.598036</ele>
        <time>2010-09-30T12:05:40Z</time>
      </trkpt>
      <trkpt lat="44.19843" lon="7.20354">
        <ele>2273.577247</ele>
        <time>2010-09-30T12:05:43Z</time>
      </trkpt>
      <trkpt lat="44.19842" lon="7.20349">
        <ele>2273.564357</ele>
        <time>2010-09-30T12:05:45Z</time>
      </trkpt>
      <trkpt lat="44.19841" lon="7.20343">
        <ele>2273.558607</ele>
        <time>2010-09-30T12:05:48Z</time>
      </trkpt>
      <trkpt lat="44.19841" lon="7.20339">
        <ele>2273.556395</ele>
        <time>2010-09-30T12:05:50Z</time>
      </trkpt>
      <trkpt lat="44.19841" lon="7.20334">
        <ele>2273.555701</ele>
        <time>2010-09-30T12:05:52Z</time>
      </trkpt>
      <trkpt lat="44.19841" lon="7.20329">
        <ele>2273.551829</ele>
        <time>2010-09-30T12:05:55Z</time>
      </trkpt>
      <trkpt lat="44.1984" lon="7.20323">
        <ele>2273.539744</ele>
        <time>2010-09-30T12:05:58Z</time>
      </trkpt>
      <trkpt lat="44.1984" lon="7.20317">
        <ele>2273.521231</ele>
        <time>2010-09-30T12:06:01Z</time>
      </trkpt>
      <trkpt lat="44.19839" lon="7.2031">
        <ele>2273.502879</ele>
        <time>2010-09-30T12:06:04Z</time>
      </trkpt>
      <trkpt lat="44.19839" lon="7.20304">
        <ele>2273.489724</ele>
        <time>2010-09-30T12:06:07Z</time>
      </trkpt>
      <trkpt lat="44.19838" lon="7.20298">
        <ele>2273.483745</ele>
        <time>2010-09-30T12:06:10Z</time>
      </trkpt>
      <trkpt lat="44.19838" lon="7.20294">
        <ele>2273.482997</ele>
        <time>2010-09-30T12:06:12Z</time>
      </trkpt>
      <trkpt lat="44.19837" lon="7.2029">
        <ele>2273.486365</ele>
        <time>2010-09-30T12:06:15Z</time>
      </trkpt>
      <trkpt lat="44.19836" lon="7.20285">
        <ele>2273.497452</ele>
        <time>2010-09-30T12:06:18Z</time>
      </trkpt>
      <trkpt lat="44.19835" lon="7.20281">
        <ele>2273.518545</ele>
        <time>2010-09-30T12:06:20Z</time>
      </trkpt>
      <trkpt lat="44.19834" lon="7.20275">
        <ele>2273.549867</ele>
        <time>2010-09-30T12:06:23Z</time>
      </trkpt>
      <trkpt lat="44.19833" lon="7.20269">
        <ele>2273.595404</ele>
        <time>2010-09-30T12:06:26Z</time>
      </trkpt>
      <trkpt lat="44.19832" lon="7.20265">
        <ele>2273.651697</ele>
        <time>2010-09-30T12:06:28Z</time>
      </trkpt>
      <trkpt lat="44.19831" lon="7.20261">
        <ele>2273.706855</ele>
        <time>2010-09-30T12:06:30Z</time>
      </trkpt>
      <trkpt lat="44.1983" lon="7.20255">
        <ele>2273.755083</ele>
        <time>2010-09-30T12:06:33Z</time>
      </trkpt>
      <trkpt lat="44.1983" lon="7.20249">
        <ele>2273.795052</ele>
        <time>2010-09-30T12:06:36Z</time>
      </trkpt>
      <trkpt lat="44.1983" lon="7.20246">
        <ele>2273.82713</ele>
        <time>2010-09-30T12:06:38Z</time>
      </trkpt>
      <trkpt lat="44.1983" lon="7.2024">
        <ele>2273.863099</ele>
        <time>2010-09-30T12:06:41Z</time>
      </trkpt>
      <trkpt lat="44.19828" lon="7.20232">
        <ele>2273.910441</ele>
        <time>2010-09-30T12:06:44Z</time>
      </trkpt>
      <trkpt lat="44.19826" lon="7.20227">
        <ele>2273.954905</ele>
        <time>2010-09-30T12:06:46Z</time>
      </trkpt>
      <trkpt lat="44.19823" lon="7.20221">
        <ele>2273.979304</ele>
        <time>2010-09-30T12:06:49Z</time>
      </trkpt>
      <trkpt lat="44.19822" lon="7.20218">
        <ele>2273.984983</ele>
        <time>2010-09-30T12:06:51Z</time>
      </trkpt>
      <trkpt lat="44.1982" lon="7.20213">
        <ele>2273.941415</ele>
        <time>2010-09-30T12:06:54Z</time>
      </trkpt>
      <trkpt lat="44.19818" lon="7.2021">
        <ele>2273.766754</ele>
        <time>2010-09-30T12:06:56Z</time>
      </trkpt>
      <trkpt lat="44.19816" lon="7.20204">
        <ele>2273.443462</ele>
        <time>2010-09-30T12:06:59Z</time>
      </trkpt>
      <trkpt lat="44.19814" lon="7.20201">
        <ele>2273.038974</ele>
        <time>2010-09-30T12:07:01Z</time>
      </trkpt>
      <trkpt lat="44.19813" lon="7.20197">
        <ele>2272.627319</ele>
        <time>2010-09-30T12:07:03Z</time>
      </trkpt>
      <trkpt lat="44.19811" lon="7.20192">
        <ele>2272.261007</ele>
        <time>2010-09-30T12:07:06Z</time>
      </trkpt>
      <trkpt lat="44.19808" lon="7.20188">
        <ele>2271.963912</ele>
        <time>2010-09-30T12:07:09Z</time>
      </trkpt>
      <trkpt lat="44.19805" lon="7.20184">
        <ele>2271.731858</ele>
        <time>2010-09-30T12:07:12Z</time>
      </trkpt>
      <trkpt lat="44.19802" lon="7.20182">
        <ele>2271.549146</ele>
        <time>2010-09-30T12:07:15Z</time>
      </trkpt>
      <trkpt lat="44.19799" lon="7.20182">
        <ele>2271.39098</ele>
        <time>2010-09-30T12:07:17Z</time>
      </trkpt>
      <trkpt lat="44.19796" lon="7.20181">
        <ele>2271.262727</ele>
        <time>2010-09-30T12:07:19Z</time>
      </trkpt>
      <trkpt lat="44.19792" lon="7.20178">
        <ele>2271.188022</ele>
        <time>2010-09-30T12:07:22Z</time>
      </trkpt>
      <trkpt lat="44.19789" lon="7.20177">
        <ele>2271.165758</ele>
        <time>2010-09-30T12:07:24Z</time>
      </trkpt>
      <trkpt lat="44.19786" lon="7.20175">
        <ele>2271.170301</ele>
        <time>2010-09-30T12:07:27Z</time>
      </trkpt>
      <trkpt lat="44.19782" lon="7.20173">
        <ele>2271.188292</ele>
        <time>2010-09-30T12:07:30Z</time>
      </trkpt>
      <trkpt lat="44.19779" lon="7.20172">
        <ele>2271.222657</ele>
        <time>2010-09-30T12:07:32Z</time>
      </trkpt>
      <trkpt lat="44.19775" lon="7.20171">
        <ele>2271.277409</ele>
        <time>2010-09-30T12:07:35Z</time>
      </trkpt>
      <trkpt lat="44.19771" lon="7.20171">
        <ele>2271.354734</ele>
        <time>2010-09-30T12:07:38Z</time>
      </trkpt>
      <trkpt lat="44.19768" lon="7.20171">
        <ele>2271.447241</ele>
        <time>2010-09-30T12:07:40Z</time>
      </trkpt>
      <trkpt lat="44.19766" lon="7.20172">
        <ele>2271.539577</ele>
        <time>2010-09-30T12:07:42Z</time>
      </trkpt>
      <trkpt lat="44.19762" lon="7.20173">
        <ele>2271.626875</ele>
        <time>2010-09-30T12:07:45Z</time>
      </trkpt>
      <trkpt lat="44.19758" lon="7.20175">
        <ele>2271.706685</ele>
        <time>2010-09-30T12:07:48Z</time>
      </trkpt>
      <trkpt lat="44.19754" lon="7.20176">
        <ele>2271.77048</ele>
        <time>2010-09-30T12:07:51Z</time>
      </trkpt>
      <trkpt lat="44.1975" lon="7.20176">
        <ele>2271.816832</ele>
        <time>2010-09-30T12:07:54Z</time>
      </trkpt>
      <trkpt lat="44.19746" lon="7.20177">
        <ele>2271.853245</ele>
        <time>2010-09-30T12:07:57Z</time>
      </trkpt>
      <trkpt lat="44.19742" lon="7.20177">
        <ele>2271.886221</ele>
        <time>2010-09-30T12:08:00Z</time>
      </trkpt>
      <trkpt lat="44.19739" lon="7.20178">
        <ele>2271.917679</ele>
        <time>2010-09-30T12:08:03Z</time>
      </trkpt>
      <trkpt lat="44.19735" lon="7.20178">
        <ele>2271.948518</ele>
        <time>2010-09-30T12:08:06Z</time>
      </trkpt>
      <trkpt lat="44.19732" lon="7.2018">
        <ele>2271.979648</ele>
        <time>2010-09-30T12:08:09Z</time>
      </trkpt>
      <trkpt lat="44.19728" lon="7.20181">
        <ele>2272.009095</ele>
        <time>2010-09-30T12:08:12Z</time>
      </trkpt>
      <trkpt lat="44.19724" lon="7.20181">
        <ele>2272.032511</ele>
        <time>2010-09-30T12:08:15Z</time>
      </trkpt>
      <trkpt lat="44.19721" lon="7.20183">
        <ele>2272.049969</ele>
        <time>2010-09-30T12:08:18Z</time>
      </trkpt>
      <trkpt lat="44.19717" lon="7.20184">
        <ele>2272.068299</ele>
        <time>2010-09-30T12:08:21Z</time>
      </trkpt>
      <trkpt lat="44.19714" lon="7.20184">
        <ele>2272.094779</ele>
        <time>2010-09-30T12:08:24Z</time>
      </trkpt>
      <trkpt lat="44.19711" lon="7.20183">
        <ele>2272.132213</ele>
        <time>2010-09-30T12:08:27Z</time>
      </trkpt>
      <trkpt lat="44.19707" lon="7.20183">
        <ele>2272.180905</ele>
        <time>2010-09-30T12:08:30Z</time>
      </trkpt>
      <trkpt lat="44.19704" lon="7.20184">
        <ele>2272.239112</ele>
        <time>2010-09-30T12:08:33Z</time>
      </trkpt>
      <trkpt lat="44.197" lon="7.20186">
        <ele>2272.300829</ele>
        <time>2010-09-30T12:08:36Z</time>
      </trkpt>
      <trkpt lat="44.19697" lon="7.20187">
        <ele>2272.358034</ele>
        <time>2010-09-30T12:08:39Z</time>
      </trkpt>
      <trkpt lat="44.19694" lon="7.20189">
        <ele>2272.407767</ele>
        <time>2010-09-30T12:08:42Z</time>
      </trkpt>
      <trkpt lat="44.19691" lon="7.2019">
        <ele>2272.45537</ele>
        <time>2010-09-30T12:08:45Z</time>
      </trkpt>
      <trkpt lat="44.19688" lon="7.2019">
        <ele>2272.511213</ele>
        <time>2010-09-30T12:08:48Z</time>
      </trkpt>
      <trkpt lat="44.19685" lon="7.2019">
        <ele>2272.583689</ele>
        <time>2010-09-30T12:08:51Z</time>
      </trkpt>
      <trkpt lat="44.19682" lon="7.20189">
        <ele>2272.674813</ele>
        <time>2010-09-30T12:08:55Z</time>
      </trkpt>
      <trkpt lat="44.19686" lon="7.20189">
        <ele>2272.783588</ele>
        <time>2010-09-30T12:09:02Z</time>
      </trkpt>
      <trkpt lat="44.19689" lon="7.20187">
        <ele>2272.910327</ele>
        <time>2010-09-30T12:09:05Z</time>
      </trkpt>
      <trkpt lat="44.19691" lon="7.20184">
        <ele>2273.063261</ele>
        <time>2010-09-30T12:09:08Z</time>
      </trkpt>
      <trkpt lat="44.19693" lon="7.2018">
        <ele>2273.298959</ele>
        <time>2010-09-30T12:09:12Z</time>
      </trkpt>
      <trkpt lat="44.1969" lon="7.20181">
        <ele>2273.633556</ele>
        <time>2010-09-30T12:09:16Z</time>
      </trkpt>
      <trkpt lat="44.19687" lon="7.20182">
        <ele>2273.964071</ele>
        <time>2010-09-30T12:09:19Z</time>
      </trkpt>
      <trkpt lat="44.19683" lon="7.20183">
        <ele>2274.21793</ele>
        <time>2010-09-30T12:09:22Z</time>
      </trkpt>
      <trkpt lat="44.1968" lon="7.20184">
        <ele>2274.478533</ele>
        <time>2010-09-30T12:09:25Z</time>
      </trkpt>
      <trkpt lat="44.19678" lon="7.20186">
        <ele>2274.843078</ele>
        <time>2010-09-30T12:09:28Z</time>
      </trkpt>
      <trkpt lat="44.19675" lon="7.20187">
        <ele>2275.307527</ele>
        <time>2010-09-30T12:09:31Z</time>
      </trkpt>
      <trkpt lat="44.19671" lon="7.20186">
        <ele>2275.824332</ele>
        <time>2010-09-30T12:09:35Z</time>
      </trkpt>
      <trkpt lat="44.19668" lon="7.20186">
        <ele>2276.374007</ele>
        <time>2010-09-30T12:09:39Z</time>
      </trkpt>
      <trkpt lat="44.19666" lon="7.20183">
        <ele>2276.93322</ele>
        <time>2010-09-30T12:09:43Z</time>
      </trkpt>
      <trkpt lat="44.19665" lon="7.20179">
        <ele>2277.484212</ele>
        <time>2010-09-30T12:09:47Z</time>
      </trkpt>
      <trkpt lat="44.19662" lon="7.20176">
        <ele>2278.050449</ele>
        <time>2010-09-30T12:09:51Z</time>
      </trkpt>
      <trkpt lat="44.1966" lon="7.20176">
        <ele>2278.668994</ele>
        <time>2010-09-30T12:09:54Z</time>
      </trkpt>
      <trkpt lat="44.19657" lon="7.20175">
        <ele>2279.337756</ele>
        <time>2010-09-30T12:09:57Z</time>
      </trkpt>
      <trkpt lat="44.19654" lon="7.20175">
        <ele>2280.032782</ele>
        <time>2010-09-30T12:10:00Z</time>
      </trkpt>
      <trkpt lat="44.19651" lon="7.20175">
        <ele>2280.722542</ele>
        <time>2010-09-30T12:10:03Z</time>
      </trkpt>
      <trkpt lat="44.19648" lon="7.20173">
        <ele>2281.367588</ele>
        <time>2010-09-30T12:10:06Z</time>
      </trkpt>
      <trkpt lat="44.19645" lon="7.20172">
        <ele>2281.952123</ele>
        <time>2010-09-30T12:10:09Z</time>
      </trkpt>
      <trkpt lat="44.19642" lon="7.20172">
        <ele>2282.496579</ele>
        <time>2010-09-30T12:10:12Z</time>
      </trkpt>
      <trkpt lat="44.19638" lon="7.20173">
        <ele>2283.023615</ele>
        <time>2010-09-30T12:10:15Z</time>
      </trkpt>
      <trkpt lat="44.19635" lon="7.20174">
        <ele>2283.545619</ele>
        <time>2010-09-30T12:10:18Z</time>
      </trkpt>
      <trkpt lat="44.19631" lon="7.20173">
        <ele>2284.068263</ele>
        <time>2010-09-30T12:10:21Z</time>
      </trkpt>
      <trkpt lat="44.19628" lon="7.20173">
        <ele>2284.594513</ele>
        <time>2010-09-30T12:10:24Z</time>
      </trkpt>
      <trkpt lat="44.19625" lon="7.20174">
        <ele>2285.123975</ele>
        <time>2010-09-30T12:10:27Z</time>
      </trkpt>
      <trkpt lat="44.19621" lon="7.20175">
        <ele>2285.653245</ele>
        <time>2010-09-30T12:10:30Z</time>
      </trkpt>
      <trkpt lat="44.19618" lon="7.20175">
        <ele>2286.176546</ele>
        <time>2010-09-30T12:10:32Z</time>
      </trkpt>
      <trkpt lat="44.19614" lon="7.20175">
        <ele>2286.691813</ele>
        <time>2010-09-30T12:10:35Z</time>
      </trkpt>
      <trkpt lat="44.19611" lon="7.20174">
        <ele>2287.202906</ele>
        <time>2010-09-30T12:10:37Z</time>
      </trkpt>
      <trkpt lat="44.19611" lon="7.2017">
        <ele>2287.688801</ele>
        <time>2010-09-30T12:10:41Z</time>
      </trkpt>
      <trkpt lat="44.19613" lon="7.20168">
        <ele>2288.131006</ele>
        <time>2010-09-30T12:10:46Z</time>
      </trkpt>
      <trkpt lat="44.19616" lon="7.20166">
        <ele>2288.537597</ele>
        <time>2010-09-30T12:10:50Z</time>
      </trkpt>
      <trkpt lat="44.19619" lon="7.20162">
        <ele>2288.953173</ele>
        <time>2010-09-30T12:10:54Z</time>
      </trkpt>
      <trkpt lat="44.1962" lon="7.20158">
        <ele>2289.475871</ele>
        <time>2010-09-30T12:10:58Z</time>
      </trkpt>
      <trkpt lat="44.19619" lon="7.20153">
        <ele>2290.145699</ele>
        <time>2010-09-30T12:11:02Z</time>
      </trkpt>
      <trkpt lat="44.19617" lon="7.20151">
        <ele>2290.864611</ele>
        <time>2010-09-30T12:11:06Z</time>
      </trkpt>
      <trkpt lat="44.19613" lon="7.20152">
        <ele>2291.542722</ele>
        <time>2010-09-30T12:11:10Z</time>
      </trkpt>
      <trkpt lat="44.1961" lon="7.20155">
        <ele>2292.178226</ele>
        <time>2010-09-30T12:11:13Z</time>
      </trkpt>
      <trkpt lat="44.19607" lon="7.20157">
        <ele>2292.812214</ele>
        <time>2010-09-30T12:11:16Z</time>
      </trkpt>
      <trkpt lat="44.19604" lon="7.20157">
        <ele>2293.493593</ele>
        <time>2010-09-30T12:11:19Z</time>
      </trkpt>
      <trkpt lat="44.196" lon="7.20156">
        <ele>2294.220425</ele>
        <time>2010-09-30T12:11:22Z</time>
      </trkpt>
      <trkpt lat="44.19597" lon="7.20157">
        <ele>2294.936721</ele>
        <time>2010-09-30T12:11:25Z</time>
      </trkpt>
      <trkpt lat="44.19594" lon="7.20158">
        <ele>2295.611491</ele>
        <time>2010-09-30T12:11:28Z</time>
      </trkpt>
      <trkpt lat="44.19591" lon="7.2016">
        <ele>2296.259385</ele>
        <time>2010-09-30T12:11:31Z</time>
      </trkpt>
      <trkpt lat="44.19587" lon="7.20165">
        <ele>2296.89621</ele>
        <time>2010-09-30T12:11:34Z</time>
      </trkpt>
      <trkpt lat="44.19584" lon="7.20169">
        <ele>2297.525814</ele>
        <time>2010-09-30T12:11:37Z</time>
      </trkpt>
      <trkpt lat="44.19581" lon="7.20171">
        <ele>2298.145562</ele>
        <time>2010-09-30T12:11:40Z</time>
      </trkpt>
      <trkpt lat="44.19578" lon="7.20172">
        <ele>2298.759393</ele>
        <time>2010-09-30T12:11:43Z</time>
      </trkpt>
      <trkpt lat="44.19574" lon="7.20172">
        <ele>2299.379319</ele>
        <time>2010-09-30T12:11:46Z</time>
      </trkpt>
      <trkpt lat="44.19571" lon="7.20172">
        <ele>2300.007593</ele>
        <time>2010-09-30T12:11:49Z</time>
      </trkpt>
      <trkpt lat="44.19568" lon="7.20173">
        <ele>2300.628175</ele>
        <time>2010-09-30T12:11:52Z</time>
      </trkpt>
      <trkpt lat="44.19564" lon="7.20173">
        <ele>2301.223494</ele>
        <time>2010-09-30T12:11:55Z</time>
      </trkpt>
      <trkpt lat="44.19561" lon="7.20171">
        <ele>2301.789776</ele>
        <time>2010-09-30T12:11:58Z</time>
      </trkpt>
      <trkpt lat="44.1956" lon="7.20168">
        <ele>2302.332599</ele>
        <time>2010-09-30T12:12:01Z</time>
      </trkpt>
      <trkpt lat="44.19562" lon="7.20164">
        <ele>2302.855466</ele>
        <time>2010-09-30T12:12:05Z</time>
      </trkpt>
      <trkpt lat="44.19564" lon="7.2016">
        <ele>2303.357343</ele>
        <time>2010-09-30T12:12:08Z</time>
      </trkpt>
      <trkpt lat="44.19568" lon="7.20157">
        <ele>2303.83568</ele>
        <time>2010-09-30T12:12:11Z</time>
      </trkpt>
      <trkpt lat="44.1957" lon="7.20154">
        <ele>2304.302504</ele>
        <time>2010-09-30T12:12:14Z</time>
      </trkpt>
      <trkpt lat="44.19572" lon="7.20151">
        <ele>2304.753949</ele>
        <time>2010-09-30T12:12:17Z</time>
      </trkpt>
      <trkpt lat="44.19572" lon="7.20147">
        <ele>2305.146392</ele>
        <time>2010-09-30T12:12:20Z</time>
      </trkpt>
      <trkpt lat="44.19573" lon="7.20142">
        <ele>2305.44864</ele>
        <time>2010-09-30T12:12:23Z</time>
      </trkpt>
      <trkpt lat="44.19573" lon="7.20136">
        <ele>2305.671872</ele>
        <time>2010-09-30T12:12:26Z</time>
      </trkpt>
      <trkpt lat="44.19573" lon="7.20132">
        <ele>2305.83757</ele>
        <time>2010-09-30T12:12:28Z</time>
      </trkpt>
      <trkpt lat="44.19574" lon="7.20128">
        <ele>2305.966197</ele>
        <time>2010-09-30T12:12:31Z</time>
      </trkpt>
      <trkpt lat="44.19575" lon="7.20123">
        <ele>2306.071783</ele>
        <time>2010-09-30T12:12:34Z</time>
      </trkpt>
      <trkpt lat="44.19577" lon="7.2012">
        <ele>2306.15145</ele>
        <time>2010-09-30T12:12:36Z</time>
      </trkpt>
      <trkpt lat="44.19579" lon="7.20115">
        <ele>2306.193894</ele>
        <time>2010-09-30T12:12:39Z</time>
      </trkpt>
      <trkpt lat="44.19579" lon="7.2011">
        <ele>2306.203549</ele>
        <time>2010-09-30T12:12:42Z</time>
      </trkpt>
      <trkpt lat="44.19578" lon="7.20105">
        <ele>2306.198716</ele>
        <time>2010-09-30T12:12:44Z</time>
      </trkpt>
      <trkpt lat="44.19575" lon="7.201">
        <ele>2306.184269</ele>
        <time>2010-09-30T12:12:47Z</time>
      </trkpt>
      <trkpt lat="44.19573" lon="7.20098">
        <ele>2306.150399</ele>
        <time>2010-09-30T12:12:50Z</time>
      </trkpt>
      <trkpt lat="44.1957" lon="7.20097">
        <ele>2306.095186</ele>
        <time>2010-09-30T12:12:54Z</time>
      </trkpt>
      <trkpt lat="44.19566" lon="7.20097">
        <ele>2306.026219</ele>
        <time>2010-09-30T12:12:57Z</time>
      </trkpt>
      <trkpt lat="44.19563" lon="7.20097">
        <ele>2305.949764</ele>
        <time>2010-09-30T12:13:00Z</time>
      </trkpt>
      <trkpt lat="44.19559" lon="7.20096">
        <ele>2305.881715</ele>
        <time>2010-09-30T12:13:03Z</time>
      </trkpt>
      <trkpt lat="44.19558" lon="7.20092">
        <ele>2305.839854</ele>
        <time>2010-09-30T12:13:06Z</time>
      </trkpt>
      <trkpt lat="44.1956" lon="7.20087">
        <ele>2305.822029</ele>
        <time>2010-09-30T12:13:10Z</time>
      </trkpt>
      <trkpt lat="44.19562" lon="7.20083">
        <ele>2305.815393</ele>
        <time>2010-09-30T12:13:13Z</time>
      </trkpt>
      <trkpt lat="44.19563" lon="7.2008">
        <ele>2305.81145</ele>
        <time>2010-09-30T12:13:18Z</time>
      </trkpt>
      <trkpt lat="44.19563" lon="7.20076">
        <ele>2305.79475</ele>
        <time>2010-09-30T12:13:21Z</time>
      </trkpt>
      <trkpt lat="44.19559" lon="7.20075">
        <ele>2305.749254</ele>
        <time>2010-09-30T12:13:27Z</time>
      </trkpt>
      <trkpt lat="44.19556" lon="7.20077">
        <ele>2305.664546</ele>
        <time>2010-09-30T12:13:30Z</time>
      </trkpt>
      <trkpt lat="44.19552" lon="7.20079">
        <ele>2305.558165</ele>
        <time>2010-09-30T12:13:33Z</time>
      </trkpt>
      <trkpt lat="44.19549" lon="7.20081">
        <ele>2305.477712</ele>
        <time>2010-09-30T12:13:36Z</time>
      </trkpt>
      <trkpt lat="44.19546" lon="7.20083">
        <ele>2305.447524</ele>
        <time>2010-09-30T12:13:39Z</time>
      </trkpt>
      <trkpt lat="44.19543" lon="7.20085">
        <ele>2305.448118</ele>
        <time>2010-09-30T12:13:42Z</time>
      </trkpt>
      <trkpt lat="44.19539" lon="7.20088">
        <ele>2305.467704</ele>
        <time>2010-09-30T12:13:45Z</time>
      </trkpt>
      <trkpt lat="44.19536" lon="7.20089">
        <ele>2305.511442</ele>
        <time>2010-09-30T12:13:48Z</time>
      </trkpt>
      <trkpt lat="44.19533" lon="7.20091">
        <ele>2305.580341</ele>
        <time>2010-09-30T12:13:51Z</time>
      </trkpt>
      <trkpt lat="44.1953" lon="7.20091">
        <ele>2305.666</ele>
        <time>2010-09-30T12:13:54Z</time>
      </trkpt>
      <trkpt lat="44.19526" lon="7.20091">
        <ele>2305.759574</ele>
        <time>2010-09-30T12:13:57Z</time>
      </trkpt>
      <trkpt lat="44.19522" lon="7.20091">
        <ele>2305.851742</ele>
        <time>2010-09-30T12:14:00Z</time>
      </trkpt>
      <trkpt lat="44.1952" lon="7.20091">
        <ele>2305.935353</ele>
        <time>2010-09-30T12:14:02Z</time>
      </trkpt>
      <trkpt lat="44.19516" lon="7.20092">
        <ele>2306.008191</ele>
        <time>2010-09-30T12:14:05Z</time>
      </trkpt>
      <trkpt lat="44.19513" lon="7.20091">
        <ele>2306.070871</ele>
        <time>2010-09-30T12:14:08Z</time>
      </trkpt>
      <trkpt lat="44.19514" lon="7.20087">
        <ele>2306.121808</ele>
        <time>2010-09-30T12:14:11Z</time>
      </trkpt>
      <trkpt lat="44.19516" lon="7.20083">
        <ele>2306.15557</ele>
        <time>2010-09-30T12:14:15Z</time>
      </trkpt>
      <trkpt lat="44.19519" lon="7.2008">
        <ele>2306.16992</ele>
        <time>2010-09-30T12:14:18Z</time>
      </trkpt>
      <trkpt lat="44.19522" lon="7.20076">
        <ele>2306.171091</ele>
        <time>2010-09-30T12:14:21Z</time>
      </trkpt>
      <trkpt lat="44.19525" lon="7.20073">
        <ele>2306.166028</ele>
        <time>2010-09-30T12:14:24Z</time>
      </trkpt>
      <trkpt lat="44.19527" lon="7.2007">
        <ele>2306.151061</ele>
        <time>2010-09-30T12:14:26Z</time>
      </trkpt>
      <trkpt lat="44.19529" lon="7.20066">
        <ele>2306.115925</ele>
        <time>2010-09-30T12:14:29Z</time>
      </trkpt>
      <trkpt lat="44.19531" lon="7.2006">
        <ele>2306.056077</ele>
        <time>2010-09-30T12:14:32Z</time>
      </trkpt>
      <trkpt lat="44.19534" lon="7.20055">
        <ele>2305.98088</ele>
        <time>2010-09-30T12:14:35Z</time>
      </trkpt>
      <trkpt lat="44.19535" lon="7.20052">
        <ele>2305.901388</ele>
        <time>2010-09-30T12:14:37Z</time>
      </trkpt>
      <trkpt lat="44.19534" lon="7.20045">
        <ele>2305.814661</ele>
        <time>2010-09-30T12:14:40Z</time>
      </trkpt>
      <trkpt lat="44.19531" lon="7.20041">
        <ele>2305.713993</ele>
        <time>2010-09-30T12:14:43Z</time>
      </trkpt>
      <trkpt lat="44.19528" lon="7.20043">
        <ele>2305.608211</ele>
        <time>2010-09-30T12:14:46Z</time>
      </trkpt>
      <trkpt lat="44.19524" lon="7.20046">
        <ele>2305.50587</ele>
        <time>2010-09-30T12:14:49Z</time>
      </trkpt>
      <trkpt lat="44.19522" lon="7.20049">
        <ele>2305.417592</ele>
        <time>2010-09-30T12:14:52Z</time>
      </trkpt>
      <trkpt lat="44.19519" lon="7.20051">
        <ele>2305.36367</ele>
        <time>2010-09-30T12:14:55Z</time>
      </trkpt>
      <trkpt lat="44.19516" lon="7.20053">
        <ele>2305.348275</ele>
        <time>2010-09-30T12:14:58Z</time>
      </trkpt>
      <trkpt lat="44.19513" lon="7.20055">
        <ele>2305.353917</ele>
        <time>2010-09-30T12:15:01Z</time>
      </trkpt>
      <trkpt lat="44.1951" lon="7.20057">
        <ele>2305.38727</ele>
        <time>2010-09-30T12:15:04Z</time>
      </trkpt>
      <trkpt lat="44.19507" lon="7.20055">
        <ele>2305.473422</ele>
        <time>2010-09-30T12:15:07Z</time>
      </trkpt>
      <trkpt lat="44.19506" lon="7.20052">
        <ele>2305.610157</ele>
        <time>2010-09-30T12:15:10Z</time>
      </trkpt>
      <trkpt lat="44.19508" lon="7.20048">
        <ele>2305.767141</ele>
        <time>2010-09-30T12:15:15Z</time>
      </trkpt>
      <trkpt lat="44.19507" lon="7.20044">
        <ele>2305.915683</ele>
        <time>2010-09-30T12:15:19Z</time>
      </trkpt>
      <trkpt lat="44.19504" lon="7.20044">
        <ele>2306.033634</ele>
        <time>2010-09-30T12:15:23Z</time>
      </trkpt>
      <trkpt lat="44.19501" lon="7.20045">
        <ele>2306.108798</ele>
        <time>2010-09-30T12:15:26Z</time>
      </trkpt>
      <trkpt lat="44.19498" lon="7.20046">
        <ele>2306.143262</ele>
        <time>2010-09-30T12:15:29Z</time>
      </trkpt>
      <trkpt lat="44.19495" lon="7.20047">
        <ele>2306.160812</ele>
        <time>2010-09-30T12:15:32Z</time>
      </trkpt>
      <trkpt lat="44.19492" lon="7.20048">
        <ele>2306.196162</ele>
        <time>2010-09-30T12:15:35Z</time>
      </trkpt>
      <trkpt lat="44.1949" lon="7.20045">
        <ele>2306.265151</ele>
        <time>2010-09-30T12:15:39Z</time>
      </trkpt>
      <trkpt lat="44.1949" lon="7.20042">
        <ele>2306.359495</ele>
        <time>2010-09-30T12:15:43Z</time>
      </trkpt>
      <trkpt lat="44.19491" lon="7.20037">
        <ele>2306.464399</ele>
        <time>2010-09-30T12:15:48Z</time>
      </trkpt>
      <trkpt lat="44.1949" lon="7.20032">
        <ele>2306.566781</ele>
        <time>2010-09-30T12:15:51Z</time>
      </trkpt>
      <trkpt lat="44.19489" lon="7.20029">
        <ele>2306.655855</ele>
        <time>2010-09-30T12:15:54Z</time>
      </trkpt>
      <trkpt lat="44.19486" lon="7.20028">
        <ele>2306.723492</ele>
        <time>2010-09-30T12:15:58Z</time>
      </trkpt>
      <trkpt lat="44.19483" lon="7.20028">
        <ele>2306.771892</ele>
        <time>2010-09-30T12:16:01Z</time>
      </trkpt>
      <trkpt lat="44.19481" lon="7.2003">
        <ele>2306.816338</ele>
        <time>2010-09-30T12:16:04Z</time>
      </trkpt>
      <trkpt lat="44.19478" lon="7.20033">
        <ele>2306.882725</ele>
        <time>2010-09-30T12:16:07Z</time>
      </trkpt>
      <trkpt lat="44.19475" lon="7.20036">
        <ele>2306.988785</ele>
        <time>2010-09-30T12:16:10Z</time>
      </trkpt>
      <trkpt lat="44.19473" lon="7.20038">
        <ele>2307.126689</ele>
        <time>2010-09-30T12:16:13Z</time>
      </trkpt>
      <trkpt lat="44.1947" lon="7.20041">
        <ele>2307.281256</ele>
        <time>2010-09-30T12:16:16Z</time>
      </trkpt>
      <trkpt lat="44.19467" lon="7.20043">
        <ele>2307.450213</ele>
        <time>2010-09-30T12:16:19Z</time>
      </trkpt>
      <trkpt lat="44.19464" lon="7.20045">
        <ele>2307.63315</ele>
        <time>2010-09-30T12:16:22Z</time>
      </trkpt>
      <trkpt lat="44.19461" lon="7.20047">
        <ele>2307.823889</ele>
        <time>2010-09-30T12:16:25Z</time>
      </trkpt>
      <trkpt lat="44.19458" lon="7.2005">
        <ele>2308.015439</ele>
        <time>2010-09-30T12:16:28Z</time>
      </trkpt>
      <trkpt lat="44.19455" lon="7.20052">
        <ele>2308.206811</ele>
        <time>2010-09-30T12:16:31Z</time>
      </trkpt>
      <trkpt lat="44.19452" lon="7.20052">
        <ele>2308.401806</ele>
        <time>2010-09-30T12:16:34Z</time>
      </trkpt>
      <trkpt lat="44.19452" lon="7.20048">
        <ele>2308.601418</ele>
        <time>2010-09-30T12:16:39Z</time>
      </trkpt>
      <trkpt lat="44.19452" lon="7.20043">
        <ele>2308.79922</ele>
        <time>2010-09-30T12:16:43Z</time>
      </trkpt>
      <trkpt lat="44.19451" lon="7.20039">
        <ele>2308.983607</ele>
        <time>2010-09-30T12:16:46Z</time>
      </trkpt>
      <trkpt lat="44.1945" lon="7.20036">
        <ele>2309.149395</ele>
        <time>2010-09-30T12:16:52Z</time>
      </trkpt>
      <trkpt lat="44.19451" lon="7.20032">
        <ele>2309.291614</ele>
        <time>2010-09-30T12:16:56Z</time>
      </trkpt>
      <trkpt lat="44.19451" lon="7.20027">
        <ele>2309.399914</ele>
        <time>2010-09-30T12:16:59Z</time>
      </trkpt>
      <trkpt lat="44.19452" lon="7.20022">
        <ele>2309.46971</ele>
        <time>2010-09-30T12:17:02Z</time>
      </trkpt>
      <trkpt lat="44.19452" lon="7.20018">
        <ele>2309.504978</ele>
        <time>2010-09-30T12:17:05Z</time>
      </trkpt>
      <trkpt lat="44.19451" lon="7.20014">
        <ele>2309.514042</ele>
        <time>2010-09-30T12:17:08Z</time>
      </trkpt>
      <trkpt lat="44.19448" lon="7.20016">
        <ele>2309.517791</ele>
        <time>2010-09-30T12:17:13Z</time>
      </trkpt>
      <trkpt lat="44.19445" lon="7.20018">
        <ele>2309.530965</ele>
        <time>2010-09-30T12:17:16Z</time>
      </trkpt>
      <trkpt lat="44.19442" lon="7.2002">
        <ele>2309.546787</ele>
        <time>2010-09-30T12:17:19Z</time>
      </trkpt>
      <trkpt lat="44.19439" lon="7.20022">
        <ele>2309.561239</ele>
        <time>2010-09-30T12:17:22Z</time>
      </trkpt>
      <trkpt lat="44.19436" lon="7.20025">
        <ele>2309.603709</ele>
        <time>2010-09-30T12:17:25Z</time>
      </trkpt>
      <trkpt lat="44.19433" lon="7.20027">
        <ele>2309.709937</ele>
        <time>2010-09-30T12:17:28Z</time>
      </trkpt>
      <trkpt lat="44.1943" lon="7.20029">
        <ele>2309.881877</ele>
        <time>2010-09-30T12:17:31Z</time>
      </trkpt>
      <trkpt lat="44.19427" lon="7.20031">
        <ele>2310.097457</ele>
        <time>2010-09-30T12:17:34Z</time>
      </trkpt>
      <trkpt lat="44.19424" lon="7.20033">
        <ele>2310.339976</ele>
        <time>2010-09-30T12:17:37Z</time>
      </trkpt>
      <trkpt lat="44.19421" lon="7.20034">
        <ele>2310.599096</ele>
        <time>2010-09-30T12:17:40Z</time>
      </trkpt>
      <trkpt lat="44.19418" lon="7.20036">
        <ele>2310.867213</ele>
        <time>2010-09-30T12:17:43Z</time>
      </trkpt>
      <trkpt lat="44.19415" lon="7.20038">
        <ele>2311.136272</ele>
        <time>2010-09-30T12:17:46Z</time>
      </trkpt>
      <trkpt lat="44.19413" lon="7.20041">
        <ele>2311.39619</ele>
        <time>2010-09-30T12:17:49Z</time>
      </trkpt>
      <trkpt lat="44.19411" lon="7.20045">
        <ele>2311.642325</ele>
        <time>2010-09-30T12:17:52Z</time>
      </trkpt>
      <trkpt lat="44.19409" lon="7.20051">
        <ele>2311.885059</ele>
        <time>2010-09-30T12:17:55Z</time>
      </trkpt>
      <trkpt lat="44.19408" lon="7.20056">
        <ele>2312.142386</ele>
        <time>2010-09-30T12:17:58Z</time>
      </trkpt>
      <trkpt lat="44.19408" lon="7.20063">
        <ele>2312.430699</ele>
        <time>2010-09-30T12:18:01Z</time>
      </trkpt>
      <trkpt lat="44.19407" lon="7.20068">
        <ele>2312.764543</ele>
        <time>2010-09-30T12:18:03Z</time>
      </trkpt>
      <trkpt lat="44.19406" lon="7.20072">
        <ele>2313.14238</ele>
        <time>2010-09-30T12:18:06Z</time>
      </trkpt>
      <trkpt lat="44.19403" lon="7.20076">
        <ele>2313.55042</ele>
        <time>2010-09-30T12:18:09Z</time>
      </trkpt>
      <trkpt lat="44.194" lon="7.20079">
        <ele>2313.96381</ele>
        <time>2010-09-30T12:18:12Z</time>
      </trkpt>
      <trkpt lat="44.19398" lon="7.20082">
        <ele>2314.365657</ele>
        <time>2010-09-30T12:18:15Z</time>
      </trkpt>
      <trkpt lat="44.19395" lon="7.20084">
        <ele>2314.769703</ele>
        <time>2010-09-30T12:18:18Z</time>
      </trkpt>
      <trkpt lat="44.19392" lon="7.20088">
        <ele>2315.18694</ele>
        <time>2010-09-30T12:18:21Z</time>
      </trkpt>
      <trkpt lat="44.19389" lon="7.20092">
        <ele>2315.599421</ele>
        <time>2010-09-30T12:18:24Z</time>
      </trkpt>
      <trkpt lat="44.19387" lon="7.20096">
        <ele>2315.994834</ele>
        <time>2010-09-30T12:18:27Z</time>
      </trkpt>
      <trkpt lat="44.19384" lon="7.20098">
        <ele>2316.374338</ele>
        <time>2010-09-30T12:18:30Z</time>
      </trkpt>
      <trkpt lat="44.19382" lon="7.201">
        <ele>2316.74539</ele>
        <time>2010-09-30T12:18:33Z</time>
      </trkpt>
      <trkpt lat="44.1938" lon="7.20103">
        <ele>2317.11134</ele>
        <time>2010-09-30T12:18:36Z</time>
      </trkpt>
      <trkpt lat="44.19378" lon="7.20107">
        <ele>2317.467106</ele>
        <time>2010-09-30T12:18:40Z</time>
      </trkpt>
      <trkpt lat="44.19376" lon="7.20111">
        <ele>2317.802831</ele>
        <time>2010-09-30T12:18:43Z</time>
      </trkpt>
      <trkpt lat="44.19375" lon="7.20115">
        <ele>2318.109928</ele>
        <time>2010-09-30T12:18:48Z</time>
      </trkpt>
      <trkpt lat="44.19376" lon="7.2011">
        <ele>2318.394234</ele>
        <time>2010-09-30T12:18:55Z</time>
      </trkpt>
      <trkpt lat="44.19376" lon="7.20105">
        <ele>2318.668424</ele>
        <time>2010-09-30T12:18:58Z</time>
      </trkpt>
      <trkpt lat="44.19375" lon="7.201">
        <ele>2318.942322</ele>
        <time>2010-09-30T12:19:01Z</time>
      </trkpt>
      <trkpt lat="44.19374" lon="7.20095">
        <ele>2319.242912</ele>
        <time>2010-09-30T12:19:04Z</time>
      </trkpt>
      <trkpt lat="44.19373" lon="7.2009">
        <ele>2319.547566</ele>
        <time>2010-09-30T12:19:07Z</time>
      </trkpt>
      <trkpt lat="44.19371" lon="7.20085">
        <ele>2319.761568</ele>
        <time>2010-09-30T12:19:10Z</time>
      </trkpt>
      <trkpt lat="44.1937" lon="7.20081">
        <ele>2319.844898</ele>
        <time>2010-09-30T12:19:13Z</time>
      </trkpt>
      <trkpt lat="44.19369" lon="7.20077">
        <ele>2319.848407</ele>
        <time>2010-09-30T12:19:17Z</time>
      </trkpt>
      <trkpt lat="44.19369" lon="7.20073">
        <ele>2319.827304</ele>
        <time>2010-09-30T12:19:21Z</time>
      </trkpt>
      <trkpt lat="44.19369" lon="7.20068">
        <ele>2319.797649</ele>
        <time>2010-09-30T12:19:24Z</time>
      </trkpt>
      <trkpt lat="44.19369" lon="7.20063">
        <ele>2319.735074</ele>
        <time>2010-09-30T12:19:27Z</time>
      </trkpt>
      <trkpt lat="44.19368" lon="7.20058">
        <ele>2319.607266</ele>
        <time>2010-09-30T12:19:30Z</time>
      </trkpt>
      <trkpt lat="44.19366" lon="7.20052">
        <ele>2319.417762</ele>
        <time>2010-09-30T12:19:33Z</time>
      </trkpt>
      <trkpt lat="44.19366" lon="7.20047">
        <ele>2319.224594</ele>
        <time>2010-09-30T12:19:36Z</time>
      </trkpt>
      <trkpt lat="44.19367" lon="7.20043">
        <ele>2319.085841</ele>
        <time>2010-09-30T12:19:39Z</time>
      </trkpt>
      <trkpt lat="44.1937" lon="7.20039">
        <ele>2319.001319</ele>
        <time>2010-09-30T12:19:42Z</time>
      </trkpt>
      <trkpt lat="44.19373" lon="7.20036">
        <ele>2318.944449</ele>
        <time>2010-09-30T12:19:45Z</time>
      </trkpt>
      <trkpt lat="44.19376" lon="7.20034">
        <ele>2318.904521</ele>
        <time>2010-09-30T12:19:48Z</time>
      </trkpt>
      <trkpt lat="44.1938" lon="7.20031">
        <ele>2318.879743</ele>
        <time>2010-09-30T12:19:51Z</time>
      </trkpt>
      <trkpt lat="44.19383" lon="7.20028">
        <ele>2318.853086</ele>
        <time>2010-09-30T12:19:53Z</time>
      </trkpt>
      <trkpt lat="44.19387" lon="7.20025">
        <ele>2318.788374</ele>
        <time>2010-09-30T12:19:56Z</time>
      </trkpt>
      <trkpt lat="44.1939" lon="7.20022">
        <ele>2318.651131</ele>
        <time>2010-09-30T12:19:58Z</time>
      </trkpt>
      <trkpt lat="44.19393" lon="7.20019">
        <ele>2318.442082</ele>
        <time>2010-09-30T12:20:01Z</time>
      </trkpt>
      <trkpt lat="44.19396" lon="7.20017">
        <ele>2318.17379</ele>
        <time>2010-09-30T12:20:03Z</time>
      </trkpt>
      <trkpt lat="44.19399" lon="7.20013">
        <ele>2317.856077</ele>
        <time>2010-09-30T12:20:06Z</time>
      </trkpt>
      <trkpt lat="44.19402" lon="7.20009">
        <ele>2317.497261</ele>
        <time>2010-09-30T12:20:09Z</time>
      </trkpt>
      <trkpt lat="44.19405" lon="7.20007">
        <ele>2317.113523</ele>
        <time>2010-09-30T12:20:11Z</time>
      </trkpt>
      <trkpt lat="44.19407" lon="7.20005">
        <ele>2316.707899</ele>
        <time>2010-09-30T12:20:14Z</time>
      </trkpt>
      <trkpt lat="44.1941" lon="7.2">
        <ele>2316.268118</ele>
        <time>2010-09-30T12:20:17Z</time>
      </trkpt>
      <trkpt lat="44.19411" lon="7.19994">
        <ele>2315.816087</ele>
        <time>2010-09-30T12:20:20Z</time>
      </trkpt>
      <trkpt lat="44.19413" lon="7.19989">
        <ele>2315.395597</ele>
        <time>2010-09-30T12:20:23Z</time>
      </trkpt>
      <trkpt lat="44.19414" lon="7.19985">
        <ele>2315.003465</ele>
        <time>2010-09-30T12:20:26Z</time>
      </trkpt>
      <trkpt lat="44.19414" lon="7.19979">
        <ele>2314.629082</ele>
        <time>2010-09-30T12:20:29Z</time>
      </trkpt>
      <trkpt lat="44.19414" lon="7.19974">
        <ele>2314.280603</ele>
        <time>2010-09-30T12:20:32Z</time>
      </trkpt>
      <trkpt lat="44.19413" lon="7.19968">
        <ele>2313.956524</ele>
        <time>2010-09-30T12:20:35Z</time>
      </trkpt>
      <trkpt lat="44.19413" lon="7.19964">
        <ele>2313.671119</ele>
        <time>2010-09-30T12:20:37Z</time>
      </trkpt>
      <trkpt lat="44.19413" lon="7.1996">
        <ele>2313.472229</ele>
        <time>2010-09-30T12:20:39Z</time>
      </trkpt>
      <trkpt lat="44.19412" lon="7.19956">
        <ele>2313.385908</ele>
        <time>2010-09-30T12:20:41Z</time>
      </trkpt>
      <trkpt lat="44.19412" lon="7.1995">
        <ele>2313.377665</ele>
        <time>2010-09-30T12:20:44Z</time>
      </trkpt>
      <trkpt lat="44.19411" lon="7.19945">
        <ele>2313.4105</ele>
        <time>2010-09-30T12:20:47Z</time>
      </trkpt>
      <trkpt lat="44.1941" lon="7.1994">
        <ele>2313.500284</ele>
        <time>2010-09-30T12:20:50Z</time>
      </trkpt>
      <trkpt lat="44.1941" lon="7.19936">
        <ele>2313.700051</ele>
        <time>2010-09-30T12:20:53Z</time>
      </trkpt>
      <trkpt lat="44.1941" lon="7.19931">
        <ele>2314.030326</ele>
        <time>2010-09-30T12:20:56Z</time>
      </trkpt>
      <trkpt lat="44.1941" lon="7.19927">
        <ele>2314.440377</ele>
        <time>2010-09-30T12:20:59Z</time>
      </trkpt>
      <trkpt lat="44.19411" lon="7.19923">
        <ele>2314.845397</ele>
        <time>2010-09-30T12:21:02Z</time>
      </trkpt>
      <trkpt lat="44.19412" lon="7.1992">
        <ele>2315.198003</ele>
        <time>2010-09-30T12:21:05Z</time>
      </trkpt>
      <trkpt lat="44.19415" lon="7.19917">
        <ele>2315.507689</ele>
        <time>2010-09-30T12:21:08Z</time>
      </trkpt>
      <trkpt lat="44.19416" lon="7.19913">
        <ele>2315.788017</ele>
        <time>2010-09-30T12:21:12Z</time>
      </trkpt>
      <trkpt lat="44.19414" lon="7.1991">
        <ele>2316.02069</ele>
        <time>2010-09-30T12:21:16Z</time>
      </trkpt>
      <trkpt lat="44.19411" lon="7.1991">
        <ele>2316.184484</ele>
        <time>2010-09-30T12:21:19Z</time>
      </trkpt>
      <trkpt lat="44.19407" lon="7.19911">
        <ele>2316.292597</ele>
        <time>2010-09-30T12:21:22Z</time>
      </trkpt>
      <trkpt lat="44.19405" lon="7.19909">
        <ele>2316.514001</ele>
        <time>2010-09-30T12:21:25Z</time>
      </trkpt>
      <trkpt lat="44.19401" lon="7.19907">
        <ele>2317.100388</ele>
        <time>2010-09-30T12:21:28Z</time>
      </trkpt>
      <trkpt lat="44.19397" lon="7.19904">
        <ele>2318.113958</ele>
        <time>2010-09-30T12:21:31Z</time>
      </trkpt>
      <trkpt lat="44.19394" lon="7.19902">
        <ele>2319.400041</ele>
        <time>2010-09-30T12:21:34Z</time>
      </trkpt>
      <trkpt lat="44.19391" lon="7.199">
        <ele>2320.778137</ele>
        <time>2010-09-30T12:21:37Z</time>
      </trkpt>
      <trkpt lat="44.19394" lon="7.19899">
        <ele>2322.124443</ele>
        <time>2010-09-30T12:21:47Z</time>
      </trkpt>
      <trkpt lat="44.19396" lon="7.19896">
        <ele>2323.397235</ele>
        <time>2010-09-30T12:21:50Z</time>
      </trkpt>
      <trkpt lat="44.19398" lon="7.19892">
        <ele>2324.593751</ele>
        <time>2010-09-30T12:21:53Z</time>
      </trkpt>
      <trkpt lat="44.19399" lon="7.19888">
        <ele>2325.901713</ele>
        <time>2010-09-30T12:21:55Z</time>
      </trkpt>
      <trkpt lat="44.19401" lon="7.19883">
        <ele>2327.357715</ele>
        <time>2010-09-30T12:21:58Z</time>
      </trkpt>
      <trkpt lat="44.19405" lon="7.1988">
        <ele>2328.522603</ele>
        <time>2010-09-30T12:22:01Z</time>
      </trkpt>
      <trkpt lat="44.19408" lon="7.1988">
        <ele>2329.061904</ele>
        <time>2010-09-30T12:22:03Z</time>
      </trkpt>
      <trkpt lat="44.19412" lon="7.1988">
        <ele>2329.149536</ele>
        <time>2010-09-30T12:22:06Z</time>
      </trkpt>
      <trkpt lat="44.19415" lon="7.19879">
        <ele>2329.061774</ele>
        <time>2010-09-30T12:22:08Z</time>
      </trkpt>
      <trkpt lat="44.19419" lon="7.19879">
        <ele>2328.947163</ele>
        <time>2010-09-30T12:22:11Z</time>
      </trkpt>
      <trkpt lat="44.19424" lon="7.19878">
        <ele>2328.790594</ele>
        <time>2010-09-30T12:22:14Z</time>
      </trkpt>
      <trkpt lat="44.19426" lon="7.19876">
        <ele>2328.550449</ele>
        <time>2010-09-30T12:22:16Z</time>
      </trkpt>
      <trkpt lat="44.19427" lon="7.1987">
        <ele>2328.266304</ele>
        <time>2010-09-30T12:22:19Z</time>
      </trkpt>
      <trkpt lat="44.19426" lon="7.19864">
        <ele>2327.990599</ele>
        <time>2010-09-30T12:22:22Z</time>
      </trkpt>
      <trkpt lat="44.19424" lon="7.19857">
        <ele>2327.727957</ele>
        <time>2010-09-30T12:22:25Z</time>
      </trkpt>
      <trkpt lat="44.19422" lon="7.19853">
        <ele>2327.451175</ele>
        <time>2010-09-30T12:22:27Z</time>
      </trkpt>
      <trkpt lat="44.19421" lon="7.19849">
        <ele>2327.145364</ele>
        <time>2010-09-30T12:22:29Z</time>
      </trkpt>
      <trkpt lat="44.19421" lon="7.19846">
        <ele>2326.851564</ele>
        <time>2010-09-30T12:22:31Z</time>
      </trkpt>
      <trkpt lat="44.19421" lon="7.19841">
        <ele>2326.627405</ele>
        <time>2010-09-30T12:22:34Z</time>
      </trkpt>
      <trkpt lat="44.19422" lon="7.19836">
        <ele>2326.471347</ele>
        <time>2010-09-30T12:22:37Z</time>
      </trkpt>
      <trkpt lat="44.19423" lon="7.19832">
        <ele>2326.331439</ele>
        <time>2010-09-30T12:22:41Z</time>
      </trkpt>
      <trkpt lat="44.19424" lon="7.19828">
        <ele>2326.133141</ele>
        <time>2010-09-30T12:22:44Z</time>
      </trkpt>
      <trkpt lat="44.19426" lon="7.19824">
        <ele>2325.816689</ele>
        <time>2010-09-30T12:22:47Z</time>
      </trkpt>
      <trkpt lat="44.19427" lon="7.19821">
        <ele>2325.349927</ele>
        <time>2010-09-30T12:22:50Z</time>
      </trkpt>
      <trkpt lat="44.19428" lon="7.19816">
        <ele>2324.754781</ele>
        <time>2010-09-30T12:22:53Z</time>
      </trkpt>
      <trkpt lat="44.19428" lon="7.19811">
        <ele>2324.105709</ele>
        <time>2010-09-30T12:22:56Z</time>
      </trkpt>
      <trkpt lat="44.19428" lon="7.19806">
        <ele>2323.459411</ele>
        <time>2010-09-30T12:22:59Z</time>
      </trkpt>
      <trkpt lat="44.19428" lon="7.19801">
        <ele>2322.833375</ele>
        <time>2010-09-30T12:23:02Z</time>
      </trkpt>
      <trkpt lat="44.19427" lon="7.19797">
        <ele>2322.278199</ele>
        <time>2010-09-30T12:23:04Z</time>
      </trkpt>
      <trkpt lat="44.19426" lon="7.19793">
        <ele>2321.859767</ele>
        <time>2010-09-30T12:23:06Z</time>
      </trkpt>
      <trkpt lat="44.19425" lon="7.19788">
        <ele>2321.595955</ele>
        <time>2010-09-30T12:23:09Z</time>
      </trkpt>
      <trkpt lat="44.19425" lon="7.19783">
        <ele>2321.450243</ele>
        <time>2010-09-30T12:23:12Z</time>
      </trkpt>
      <trkpt lat="44.19424" lon="7.19779">
        <ele>2321.36608</ele>
        <time>2010-09-30T12:23:15Z</time>
      </trkpt>
      <trkpt lat="44.19423" lon="7.19774">
        <ele>2321.291647</ele>
        <time>2010-09-30T12:23:18Z</time>
      </trkpt>
      <trkpt lat="44.19423" lon="7.1977">
        <ele>2321.216028</ele>
        <time>2010-09-30T12:23:21Z</time>
      </trkpt>
      <trkpt lat="44.19422" lon="7.19766">
        <ele>2321.158972</ele>
        <time>2010-09-30T12:23:24Z</time>
      </trkpt>
      <trkpt lat="44.19422" lon="7.19761">
        <ele>2321.125596</ele>
        <time>2010-09-30T12:23:27Z</time>
      </trkpt>
      <trkpt lat="44.19423" lon="7.19757">
        <ele>2321.106172</ele>
        <time>2010-09-30T12:23:30Z</time>
      </trkpt>
      <trkpt lat="44.19423" lon="7.19752">
        <ele>2321.097803</ele>
        <time>2010-09-30T12:23:33Z</time>
      </trkpt>
      <trkpt lat="44.19424" lon="7.19746">
        <ele>2321.092692</ele>
        <time>2010-09-30T12:23:36Z</time>
      </trkpt>
      <trkpt lat="44.19424" lon="7.19741">
        <ele>2321.083172</ele>
        <time>2010-09-30T12:23:39Z</time>
      </trkpt>
      <trkpt lat="44.19424" lon="7.19736">
        <ele>2321.073117</ele>
        <time>2010-09-30T12:23:42Z</time>
      </trkpt>
      <trkpt lat="44.19423" lon="7.19732">
        <ele>2321.068269</ele>
        <time>2010-09-30T12:23:45Z</time>
      </trkpt>
      <trkpt lat="44.19423" lon="7.19727">
        <ele>2321.057165</ele>
        <time>2010-09-30T12:23:48Z</time>
      </trkpt>
      <trkpt lat="44.19423" lon="7.19723">
        <ele>2321.02193</ele>
        <time>2010-09-30T12:23:51Z</time>
      </trkpt>
      <trkpt lat="44.19425" lon="7.19719">
        <ele>2320.950997</ele>
        <time>2010-09-30T12:23:54Z</time>
      </trkpt>
      <trkpt lat="44.19427" lon="7.19716">
        <ele>2320.853009</ele>
        <time>2010-09-30T12:23:57Z</time>
      </trkpt>
      <trkpt lat="44.1943" lon="7.19713">
        <ele>2320.760516</ele>
        <time>2010-09-30T12:24:00Z</time>
      </trkpt>
      <trkpt lat="44.19434" lon="7.19711">
        <ele>2320.691119</ele>
        <time>2010-09-30T12:24:03Z</time>
      </trkpt>
      <trkpt lat="44.19438" lon="7.1971">
        <ele>2320.614844</ele>
        <time>2010-09-30T12:24:06Z</time>
      </trkpt>
      <trkpt lat="44.19441" lon="7.19709">
        <ele>2320.487661</ele>
        <time>2010-09-30T12:24:09Z</time>
      </trkpt>
      <trkpt lat="44.19446" lon="7.19708">
        <ele>2320.289072</ele>
        <time>2010-09-30T12:24:12Z</time>
      </trkpt>
      <trkpt lat="44.1945" lon="7.19708">
        <ele>2320.025739</ele>
        <time>2010-09-30T12:24:15Z</time>
      </trkpt>
      <trkpt lat="44.19453" lon="7.19707">
        <ele>2319.723978</ele>
        <time>2010-09-30T12:24:18Z</time>
      </trkpt>
      <trkpt lat="44.19456" lon="7.19707">
        <ele>2319.442887</ele>
        <time>2010-09-30T12:24:21Z</time>
      </trkpt>
      <trkpt lat="44.19459" lon="7.19707">
        <ele>2319.239943</ele>
        <time>2010-09-30T12:24:24Z</time>
      </trkpt>
      <trkpt lat="44.19462" lon="7.19707">
        <ele>2319.10734</ele>
        <time>2010-09-30T12:24:27Z</time>
      </trkpt>
      <trkpt lat="44.19465" lon="7.19706">
        <ele>2318.992594</ele>
        <time>2010-09-30T12:24:30Z</time>
      </trkpt>
      <trkpt lat="44.19468" lon="7.19706">
        <ele>2318.858311</ele>
        <time>2010-09-30T12:24:33Z</time>
      </trkpt>
      <trkpt lat="44.1947" lon="7.19707">
        <ele>2318.691934</ele>
        <time>2010-09-30T12:24:36Z</time>
      </trkpt>
      <trkpt lat="44.19473" lon="7.1971">
        <ele>2318.501672</ele>
        <time>2010-09-30T12:24:39Z</time>
      </trkpt>
      <trkpt lat="44.19475" lon="7.19714">
        <ele>2318.302842</ele>
        <time>2010-09-30T12:24:42Z</time>
      </trkpt>
      <trkpt lat="44.19475" lon="7.19714">
        <ele>2318.106248</ele>
        <time>2010-09-30T12:24:51Z</time>
      </trkpt>
      <trkpt lat="44.19461" lon="7.19731">
        <ele>2317.942846</ele>
        <time>2010-09-30T12:25:17Z</time>
      </trkpt>
      <trkpt lat="44.19459" lon="7.19734">
        <ele>2317.818373</ele>
        <time>2010-09-30T12:25:19Z</time>
      </trkpt>
      <trkpt lat="44.19458" lon="7.19738">
        <ele>2317.822186</ele>
        <time>2010-09-30T12:25:21Z</time>
      </trkpt>
      <trkpt lat="44.19456" lon="7.19745">
        <ele>2318.437936</ele>
        <time>2010-09-30T12:25:24Z</time>
      </trkpt>
      <trkpt lat="44.19455" lon="7.1975">
        <ele>2320.079481</ele>
        <time>2010-09-30T12:25:27Z</time>
      </trkpt>
      <trkpt lat="44.19455" lon="7.1975">
        <ele>2321.863543</ele>
        <time>2010-09-30T12:25:34Z</time>
      </trkpt>
      <trkpt lat="44.19455" lon="7.1975">
        <ele>2322.806136</ele>
        <time>2010-09-30T12:25:57Z</time>
      </trkpt>
      <trkpt lat="44.19455" lon="7.1975">
        <ele>2323.006615</ele>
        <time>2010-09-30T12:26:03Z</time>
      </trkpt>
      <trkpt lat="44.19455" lon="7.1975">
        <ele>2322.564445</ele>
        <time>2010-09-30T12:26:04Z</time>
      </trkpt>
      <trkpt lat="44.19487" lon="7.19707">
        <ele>2303.955446</ele>
        <time>2010-09-30T12:36:48Z</time>
      </trkpt>
      <trkpt lat="44.19478" lon="7.19711">
        <ele>2304.28145</ele>
        <time>2010-09-30T12:36:53Z</time>
      </trkpt>
      <trkpt lat="44.19471" lon="7.19717">
        <ele>2304.321567</ele>
        <time>2010-09-30T12:37:00Z</time>
      </trkpt>
      <trkpt lat="44.19464" lon="7.19727">
        <ele>2304.021317</ele>
        <time>2010-09-30T12:37:07Z</time>
      </trkpt>
      <trkpt lat="44.19454" lon="7.19718">
        <ele>2303.727803</ele>
        <time>2010-09-30T12:37:10Z</time>
      </trkpt>
      <trkpt lat="44.19463" lon="7.19725">
        <ele>2303.57594</ele>
        <time>2010-09-30T12:37:12Z</time>
      </trkpt>
      <trkpt lat="44.19462" lon="7.1972">
        <ele>2303.545373</ele>
        <time>2010-09-30T12:37:14Z</time>
      </trkpt>
      <trkpt lat="44.19456" lon="7.19712">
        <ele>2303.56677</ele>
        <time>2010-09-30T12:37:16Z</time>
      </trkpt>
      <trkpt lat="44.19451" lon="7.19702">
        <ele>2303.616099</ele>
        <time>2010-09-30T12:37:19Z</time>
      </trkpt>
      <trkpt lat="44.19449" lon="7.19697">
        <ele>2303.769514</ele>
        <time>2010-09-30T12:37:21Z</time>
      </trkpt>
      <trkpt lat="44.19447" lon="7.19693">
        <ele>2304.103654</ele>
        <time>2010-09-30T12:37:24Z</time>
      </trkpt>
      <trkpt lat="44.19447" lon="7.19688">
        <ele>2304.602229</ele>
        <time>2010-09-30T12:37:28Z</time>
      </trkpt>
      <trkpt lat="44.19444" lon="7.19682">
        <ele>2305.200645</ele>
        <time>2010-09-30T12:37:31Z</time>
      </trkpt>
      <trkpt lat="44.19442" lon="7.19679">
        <ele>2305.89445</ele>
        <time>2010-09-30T12:37:33Z</time>
      </trkpt>
      <trkpt lat="44.19439" lon="7.19676">
        <ele>2306.821496</ele>
        <time>2010-09-30T12:37:36Z</time>
      </trkpt>
      <trkpt lat="44.19436" lon="7.19673">
        <ele>2308.090576</ele>
        <time>2010-09-30T12:37:39Z</time>
      </trkpt>
      <trkpt lat="44.19432" lon="7.19669">
        <ele>2309.553445</ele>
        <time>2010-09-30T12:37:42Z</time>
      </trkpt>
      <trkpt lat="44.19429" lon="7.19666">
        <ele>2311.117908</ele>
        <time>2010-09-30T12:37:45Z</time>
      </trkpt>
      <trkpt lat="44.19427" lon="7.19662">
        <ele>2312.900362</ele>
        <time>2010-09-30T12:37:49Z</time>
      </trkpt>
      <trkpt lat="44.19423" lon="7.19658">
        <ele>2314.900025</ele>
        <time>2010-09-30T12:37:52Z</time>
      </trkpt>
      <trkpt lat="44.1942" lon="7.19655">
        <ele>2317.011016</ele>
        <time>2010-09-30T12:37:54Z</time>
      </trkpt>
      <trkpt lat="44.19417" lon="7.19652">
        <ele>2319.314613</ele>
        <time>2010-09-30T12:37:56Z</time>
      </trkpt>
      <trkpt lat="44.19414" lon="7.19649">
        <ele>2321.928437</ele>
        <time>2010-09-30T12:37:59Z</time>
      </trkpt>
      <trkpt lat="44.19412" lon="7.19646">
        <ele>2324.629424</ele>
        <time>2010-09-30T12:38:02Z</time>
      </trkpt>
      <trkpt lat="44.19416" lon="7.19634">
        <ele>2327.019581</ele>
        <time>2010-09-30T12:38:09Z</time>
      </trkpt>
      <trkpt lat="44.19426" lon="7.19633">
        <ele>2329.013695</ele>
        <time>2010-09-30T12:38:16Z</time>
      </trkpt>
      <trkpt lat="44.19432" lon="7.19634">
        <ele>2330.786739</ele>
        <time>2010-09-30T12:38:18Z</time>
      </trkpt>
      <trkpt lat="44.19441" lon="7.19637">
        <ele>2333.082124</ele>
        <time>2010-09-30T12:38:22Z</time>
      </trkpt>
      <trkpt lat="44.1945" lon="7.19631">
        <ele>2336.633343</ele>
        <time>2010-09-30T12:38:29Z</time>
      </trkpt>
      <trkpt lat="44.19451" lon="7.19625">
        <ele>2340.645567</ele>
        <time>2010-09-30T12:38:32Z</time>
      </trkpt>
      <trkpt lat="44.19451" lon="7.1962">
        <ele>2343.76465</ele>
        <time>2010-09-30T12:38:34Z</time>
      </trkpt>
      <trkpt lat="44.19448" lon="7.19613">
        <ele>2345.995741</ele>
        <time>2010-09-30T12:38:37Z</time>
      </trkpt>
      <trkpt lat="44.19444" lon="7.19609">
        <ele>2347.836233</ele>
        <time>2010-09-30T12:38:40Z</time>
      </trkpt>
      <trkpt lat="44.19441" lon="7.19607">
        <ele>2349.243924</ele>
        <time>2010-09-30T12:38:42Z</time>
      </trkpt>
      <trkpt lat="44.19438" lon="7.19603">
        <ele>2350.178358</ele>
        <time>2010-09-30T12:38:45Z</time>
      </trkpt>
      <trkpt lat="44.19437" lon="7.19599">
        <ele>2350.971699</ele>
        <time>2010-09-30T12:38:48Z</time>
      </trkpt>
      <trkpt lat="44.19435" lon="7.19594">
        <ele>2351.848337</ele>
        <time>2010-09-30T12:38:51Z</time>
      </trkpt>
      <trkpt lat="44.19434" lon="7.19588">
        <ele>2352.760231</ele>
        <time>2010-09-30T12:38:54Z</time>
      </trkpt>
      <trkpt lat="44.19433" lon="7.19582">
        <ele>2353.635144</ele>
        <time>2010-09-30T12:38:57Z</time>
      </trkpt>
      <trkpt lat="44.1943" lon="7.19579">
        <ele>2354.448556</ele>
        <time>2010-09-30T12:38:59Z</time>
      </trkpt>
      <trkpt lat="44.19424" lon="7.19575">
        <ele>2355.13675</ele>
        <time>2010-09-30T12:39:01Z</time>
      </trkpt>
      <trkpt lat="44.19418" lon="7.19569">
        <ele>2355.642844</ele>
        <time>2010-09-30T12:39:04Z</time>
      </trkpt>
      <trkpt lat="44.19415" lon="7.19565">
        <ele>2356.035006</ele>
        <time>2010-09-30T12:39:06Z</time>
      </trkpt>
      <trkpt lat="44.19414" lon="7.19561">
        <ele>2356.545116</ele>
        <time>2010-09-30T12:39:08Z</time>
      </trkpt>
      <trkpt lat="44.19413" lon="7.19555">
        <ele>2357.415255</ele>
        <time>2010-09-30T12:39:11Z</time>
      </trkpt>
      <trkpt lat="44.19412" lon="7.19552">
        <ele>2358.617146</ele>
        <time>2010-09-30T12:39:13Z</time>
      </trkpt>
      <trkpt lat="44.19411" lon="7.19546">
        <ele>2359.858426</ele>
        <time>2010-09-30T12:39:16Z</time>
      </trkpt>
      <trkpt lat="44.1941" lon="7.19541">
        <ele>2360.961662</ele>
        <time>2010-09-30T12:39:19Z</time>
      </trkpt>
      <trkpt lat="44.19409" lon="7.19537">
        <ele>2361.941347</ele>
        <time>2010-09-30T12:39:21Z</time>
      </trkpt>
      <trkpt lat="44.19408" lon="7.19532">
        <ele>2362.82979</ele>
        <time>2010-09-30T12:39:24Z</time>
      </trkpt>
      <trkpt lat="44.19409" lon="7.19528">
        <ele>2363.678819</ele>
        <time>2010-09-30T12:39:27Z</time>
      </trkpt>
      <trkpt lat="44.1941" lon="7.19524">
        <ele>2364.475193</ele>
        <time>2010-09-30T12:39:31Z</time>
      </trkpt>
      <trkpt lat="44.19412" lon="7.1952">
        <ele>2365.155729</ele>
        <time>2010-09-30T12:39:34Z</time>
      </trkpt>
      <trkpt lat="44.19413" lon="7.19515">
        <ele>2365.752674</ele>
        <time>2010-09-30T12:39:37Z</time>
      </trkpt>
      <trkpt lat="44.19414" lon="7.19511">
        <ele>2366.330205</ele>
        <time>2010-09-30T12:39:40Z</time>
      </trkpt>
      <trkpt lat="44.19415" lon="7.19506">
        <ele>2366.882575</ele>
        <time>2010-09-30T12:39:43Z</time>
      </trkpt>
      <trkpt lat="44.19416" lon="7.19502">
        <ele>2367.346613</ele>
        <time>2010-09-30T12:39:46Z</time>
      </trkpt>
      <trkpt lat="44.19415" lon="7.19498">
        <ele>2367.666605</ele>
        <time>2010-09-30T12:39:49Z</time>
      </trkpt>
      <trkpt lat="44.19412" lon="7.19493">
        <ele>2367.849242</ele>
        <time>2010-09-30T12:39:52Z</time>
      </trkpt>
      <trkpt lat="44.19407" lon="7.19488">
        <ele>2367.952675</ele>
        <time>2010-09-30T12:39:55Z</time>
      </trkpt>
      <trkpt lat="44.19402" lon="7.19485">
        <ele>2368.048701</ele>
        <time>2010-09-30T12:39:58Z</time>
      </trkpt>
      <trkpt lat="44.19398" lon="7.19484">
        <ele>2368.273066</ele>
        <time>2010-09-30T12:40:00Z</time>
      </trkpt>
      <trkpt lat="44.19393" lon="7.19484">
        <ele>2368.85119</ele>
        <time>2010-09-30T12:40:03Z</time>
      </trkpt>
      <trkpt lat="44.19389" lon="7.19484">
        <ele>2369.901087</ele>
        <time>2010-09-30T12:40:06Z</time>
      </trkpt>
      <trkpt lat="44.19387" lon="7.19484">
        <ele>2371.264503</ele>
        <time>2010-09-30T12:40:09Z</time>
      </trkpt>
      <trkpt lat="44.19384" lon="7.19486">
        <ele>2372.7742</ele>
        <time>2010-09-30T12:40:15Z</time>
      </trkpt>
      <trkpt lat="44.19381" lon="7.19488">
        <ele>2374.465048</ele>
        <time>2010-09-30T12:40:19Z</time>
      </trkpt>
      <trkpt lat="44.19377" lon="7.19487">
        <ele>2376.410379</ele>
        <time>2010-09-30T12:40:22Z</time>
      </trkpt>
      <trkpt lat="44.19375" lon="7.19487">
        <ele>2379.023334</ele>
        <time>2010-09-30T12:40:24Z</time>
      </trkpt>
      <trkpt lat="44.19371" lon="7.19485">
        <ele>2382.64537</ele>
        <time>2010-09-30T12:40:27Z</time>
      </trkpt>
      <trkpt lat="44.19368" lon="7.19483">
        <ele>2386.597696</ele>
        <time>2010-09-30T12:40:30Z</time>
      </trkpt>
      <trkpt lat="44.19364" lon="7.19482">
        <ele>2389.817902</ele>
        <time>2010-09-30T12:40:33Z</time>
      </trkpt>
      <trkpt lat="44.19361" lon="7.19481">
        <ele>2392.096067</ele>
        <time>2010-09-30T12:40:36Z</time>
      </trkpt>
      <trkpt lat="44.19359" lon="7.19479">
        <ele>2393.864088</ele>
        <time>2010-09-30T12:40:39Z</time>
      </trkpt>
      <trkpt lat="44.19355" lon="7.19477">
        <ele>2395.517005</ele>
        <time>2010-09-30T12:40:42Z</time>
      </trkpt>
      <trkpt lat="44.19349" lon="7.19475">
        <ele>2397.152087</ele>
        <time>2010-09-30T12:40:45Z</time>
      </trkpt>
      <trkpt lat="44.19344" lon="7.19472">
        <ele>2398.730995</ele>
        <time>2010-09-30T12:40:48Z</time>
      </trkpt>
      <trkpt lat="44.1934" lon="7.1947">
        <ele>2400.195908</ele>
        <time>2010-09-30T12:40:50Z</time>
      </trkpt>
      <trkpt lat="44.19336" lon="7.19468">
        <ele>2401.582328</ele>
        <time>2010-09-30T12:40:53Z</time>
      </trkpt>
      <trkpt lat="44.19333" lon="7.19466">
        <ele>2403.010849</ele>
        <time>2010-09-30T12:40:56Z</time>
      </trkpt>
      <trkpt lat="44.19328" lon="7.19464">
        <ele>2404.478638</ele>
        <time>2010-09-30T12:40:59Z</time>
      </trkpt>
      <trkpt lat="44.19325" lon="7.19461">
        <ele>2405.902587</ele>
        <time>2010-09-30T12:41:02Z</time>
      </trkpt>
      <trkpt lat="44.19322" lon="7.1946">
        <ele>2407.31403</ele>
        <time>2010-09-30T12:41:05Z</time>
      </trkpt>
      <trkpt lat="44.19318" lon="7.1946">
        <ele>2408.754977</ele>
        <time>2010-09-30T12:41:08Z</time>
      </trkpt>
      <trkpt lat="44.19316" lon="7.19463">
        <ele>2410.1545</ele>
        <time>2010-09-30T12:41:12Z</time>
      </trkpt>
      <trkpt lat="44.19314" lon="7.19464">
        <ele>2411.468162</ele>
        <time>2010-09-30T12:41:15Z</time>
      </trkpt>
      <trkpt lat="44.19311" lon="7.19467">
        <ele>2412.722429</ele>
        <time>2010-09-30T12:41:19Z</time>
      </trkpt>
      <trkpt lat="44.19309" lon="7.1947">
        <ele>2414.043329</ele>
        <time>2010-09-30T12:41:24Z</time>
      </trkpt>
      <trkpt lat="44.19305" lon="7.19469">
        <ele>2415.524689</ele>
        <time>2010-09-30T12:41:27Z</time>
      </trkpt>
      <trkpt lat="44.19302" lon="7.19469">
        <ele>2417.166718</ele>
        <time>2010-09-30T12:41:30Z</time>
      </trkpt>
      <trkpt lat="44.19299" lon="7.19469">
        <ele>2419.07957</ele>
        <time>2010-09-30T12:41:33Z</time>
      </trkpt>
      <trkpt lat="44.19296" lon="7.19469">
        <ele>2421.263507</ele>
        <time>2010-09-30T12:41:36Z</time>
      </trkpt>
      <trkpt lat="44.19293" lon="7.19469">
        <ele>2423.369425</ele>
        <time>2010-09-30T12:41:39Z</time>
      </trkpt>
      <trkpt lat="44.1929" lon="7.19469">
        <ele>2425.14505</ele>
        <time>2010-09-30T12:41:42Z</time>
      </trkpt>
      <trkpt lat="44.19287" lon="7.19467">
        <ele>2426.642683</ele>
        <time>2010-09-30T12:41:45Z</time>
      </trkpt>
      <trkpt lat="44.19283" lon="7.19466">
        <ele>2427.972488</ele>
        <time>2010-09-30T12:41:48Z</time>
      </trkpt>
      <trkpt lat="44.19279" lon="7.19465">
        <ele>2429.201522</ele>
        <time>2010-09-30T12:41:51Z</time>
      </trkpt>
      <trkpt lat="44.19276" lon="7.19464">
        <ele>2430.348018</ele>
        <time>2010-09-30T12:41:54Z</time>
      </trkpt>
      <trkpt lat="44.19273" lon="7.19462">
        <ele>2431.427679</ele>
        <time>2010-09-30T12:41:57Z</time>
      </trkpt>
      <trkpt lat="44.1927" lon="7.1946">
        <ele>2432.47626</ele>
        <time>2010-09-30T12:42:01Z</time>
      </trkpt>
      <trkpt lat="44.19267" lon="7.19459">
        <ele>2433.493091</ele>
        <time>2010-09-30T12:42:05Z</time>
      </trkpt>
      <trkpt lat="44.19264" lon="7.19457">
        <ele>2434.420852</ele>
        <time>2010-09-30T12:42:09Z</time>
      </trkpt>
      <trkpt lat="44.19261" lon="7.19456">
        <ele>2435.231343</ele>
        <time>2010-09-30T12:42:12Z</time>
      </trkpt>
      <trkpt lat="44.19258" lon="7.19456">
        <ele>2435.93678</ele>
        <time>2010-09-30T12:42:14Z</time>
      </trkpt>
      <trkpt lat="44.19255" lon="7.19456">
        <ele>2436.523719</ele>
        <time>2010-09-30T12:42:17Z</time>
      </trkpt>
      <trkpt lat="44.19252" lon="7.19456">
        <ele>2436.991557</ele>
        <time>2010-09-30T12:42:21Z</time>
      </trkpt>
      <trkpt lat="44.19249" lon="7.19455">
        <ele>2437.395736</ele>
        <time>2010-09-30T12:42:24Z</time>
      </trkpt>
      <trkpt lat="44.19246" lon="7.19452">
        <ele>2437.825577</ele>
        <time>2010-09-30T12:42:27Z</time>
      </trkpt>
      <trkpt lat="44.19245" lon="7.19448">
        <ele>2438.398199</ele>
        <time>2010-09-30T12:42:30Z</time>
      </trkpt>
      <trkpt lat="44.19243" lon="7.19445">
        <ele>2439.15299</ele>
        <time>2010-09-30T12:42:33Z</time>
      </trkpt>
      <trkpt lat="44.1924" lon="7.19443">
        <ele>2439.975672</ele>
        <time>2010-09-30T12:42:36Z</time>
      </trkpt>
      <trkpt lat="44.19236" lon="7.19442">
        <ele>2440.72326</ele>
        <time>2010-09-30T12:42:39Z</time>
      </trkpt>
      <trkpt lat="44.19234" lon="7.19442">
        <ele>2441.31926</ele>
        <time>2010-09-30T12:42:41Z</time>
      </trkpt>
      <trkpt lat="44.19231" lon="7.19442">
        <ele>2441.731301</ele>
        <time>2010-09-30T12:42:44Z</time>
      </trkpt>
      <trkpt lat="44.19228" lon="7.19442">
        <ele>2441.961752</ele>
        <time>2010-09-30T12:42:49Z</time>
      </trkpt>
      <trkpt lat="44.19225" lon="7.19443">
        <ele>2442.063336</ele>
        <time>2010-09-30T12:42:53Z</time>
      </trkpt>
      <trkpt lat="44.19223" lon="7.19442">
        <ele>2442.15128</ele>
        <time>2010-09-30T12:42:57Z</time>
      </trkpt>
      <trkpt lat="44.19219" lon="7.19442">
        <ele>2442.409897</ele>
        <time>2010-09-30T12:43:00Z</time>
      </trkpt>
      <trkpt lat="44.19216" lon="7.19441">
        <ele>2442.959595</ele>
        <time>2010-09-30T12:43:03Z</time>
      </trkpt>
      <trkpt lat="44.19213" lon="7.19441">
        <ele>2443.71466</ele>
        <time>2010-09-30T12:43:06Z</time>
      </trkpt>
      <trkpt lat="44.1921" lon="7.19441">
        <ele>2444.490985</ele>
        <time>2010-09-30T12:43:09Z</time>
      </trkpt>
      <trkpt lat="44.19207" lon="7.1944">
        <ele>2445.190101</ele>
        <time>2010-09-30T12:43:12Z</time>
      </trkpt>
      <trkpt lat="44.19204" lon="7.1944">
        <ele>2445.803081</ele>
        <time>2010-09-30T12:43:16Z</time>
      </trkpt>
      <trkpt lat="44.19201" lon="7.19439">
        <ele>2446.371061</ele>
        <time>2010-09-30T12:43:20Z</time>
      </trkpt>
      <trkpt lat="44.19198" lon="7.19438">
        <ele>2446.949276</ele>
        <time>2010-09-30T12:43:23Z</time>
      </trkpt>
      <trkpt lat="44.19194" lon="7.19438">
        <ele>2447.577826</ele>
        <time>2010-09-30T12:43:26Z</time>
      </trkpt>
      <trkpt lat="44.19189" lon="7.19439">
        <ele>2448.247357</ele>
        <time>2010-09-30T12:43:29Z</time>
      </trkpt>
      <trkpt lat="44.19183" lon="7.1944">
        <ele>2448.915463</ele>
        <time>2010-09-30T12:43:32Z</time>
      </trkpt>
      <trkpt lat="44.19179" lon="7.1944">
        <ele>2449.579027</ele>
        <time>2010-09-30T12:43:35Z</time>
      </trkpt>
      <trkpt lat="44.19176" lon="7.19441">
        <ele>2450.374606</ele>
        <time>2010-09-30T12:43:39Z</time>
      </trkpt>
      <trkpt lat="44.19173" lon="7.19441">
        <ele>2451.510505</ele>
        <time>2010-09-30T12:43:42Z</time>
      </trkpt>
      <trkpt lat="44.1917" lon="7.19439">
        <ele>2453.017325</ele>
        <time>2010-09-30T12:43:45Z</time>
      </trkpt>
      <trkpt lat="44.19167" lon="7.19438">
        <ele>2454.764916</ele>
        <time>2010-09-30T12:43:49Z</time>
      </trkpt>
      <trkpt lat="44.19164" lon="7.19437">
        <ele>2456.613775</ele>
        <time>2010-09-30T12:43:53Z</time>
      </trkpt>
      <trkpt lat="44.1916" lon="7.19437">
        <ele>2458.383732</ele>
        <time>2010-09-30T12:43:56Z</time>
      </trkpt>
      <trkpt lat="44.19157" lon="7.19437">
        <ele>2459.966894</ele>
        <time>2010-09-30T12:43:59Z</time>
      </trkpt>
      <trkpt lat="44.19153" lon="7.19437">
        <ele>2461.416884</ele>
        <time>2010-09-30T12:44:02Z</time>
      </trkpt>
      <trkpt lat="44.1915" lon="7.19437">
        <ele>2462.735645</ele>
        <time>2010-09-30T12:44:05Z</time>
      </trkpt>
      <trkpt lat="44.19147" lon="7.19437">
        <ele>2463.84632</ele>
        <time>2010-09-30T12:44:08Z</time>
      </trkpt>
      <trkpt lat="44.19144" lon="7.19437">
        <ele>2464.751706</ele>
        <time>2010-09-30T12:44:11Z</time>
      </trkpt>
      <trkpt lat="44.19141" lon="7.19437">
        <ele>2465.536956</ele>
        <time>2010-09-30T12:44:15Z</time>
      </trkpt>
      <trkpt lat="44.19141" lon="7.19437">
        <ele>2466.173028</ele>
        <time>2010-09-30T12:44:24Z</time>
      </trkpt>
      <trkpt lat="44.19159" lon="7.19405">
        <ele>2466.627037</ele>
        <time>2010-09-30T12:45:00Z</time>
      </trkpt>
      <trkpt lat="44.19158" lon="7.19401">
        <ele>2467.046905</ele>
        <time>2010-09-30T12:45:05Z</time>
      </trkpt>
      <trkpt lat="44.19155" lon="7.19399">
        <ele>2467.576019</ele>
        <time>2010-09-30T12:45:08Z</time>
      </trkpt>
      <trkpt lat="44.19152" lon="7.19397">
        <ele>2468.331556</ele>
        <time>2010-09-30T12:45:13Z</time>
      </trkpt>
      <trkpt lat="44.19149" lon="7.19398">
        <ele>2469.281488</ele>
        <time>2010-09-30T12:45:17Z</time>
      </trkpt>
      <trkpt lat="44.19146" lon="7.19401">
        <ele>2470.100364</ele>
        <time>2010-09-30T12:45:21Z</time>
      </trkpt>
      <trkpt lat="44.19143" lon="7.19403">
        <ele>2470.651577</ele>
        <time>2010-09-30T12:45:24Z</time>
      </trkpt>
      <trkpt lat="44.1914" lon="7.19405">
        <ele>2471.104187</ele>
        <time>2010-09-30T12:45:27Z</time>
      </trkpt>
      <trkpt lat="44.19137" lon="7.19406">
        <ele>2471.565419</ele>
        <time>2010-09-30T12:45:30Z</time>
      </trkpt>
      <trkpt lat="44.19134" lon="7.19406">
        <ele>2472.12322</ele>
        <time>2010-09-30T12:45:33Z</time>
      </trkpt>
      <trkpt lat="44.19131" lon="7.19407">
        <ele>2472.870507</ele>
        <time>2010-09-30T12:45:36Z</time>
      </trkpt>
      <trkpt lat="44.19128" lon="7.19408">
        <ele>2473.800769</ele>
        <time>2010-09-30T12:45:39Z</time>
      </trkpt>
      <trkpt lat="44.19125" lon="7.19408">
        <ele>2474.823925</ele>
        <time>2010-09-30T12:45:42Z</time>
      </trkpt>
      <trkpt lat="44.19122" lon="7.19409">
        <ele>2475.855337</ele>
        <time>2010-09-30T12:45:45Z</time>
      </trkpt>
      <trkpt lat="44.19119" lon="7.1941">
        <ele>2476.882883</ele>
        <time>2010-09-30T12:45:48Z</time>
      </trkpt>
      <trkpt lat="44.19115" lon="7.19412">
        <ele>2477.930585</ele>
        <time>2010-09-30T12:45:51Z</time>
      </trkpt>
      <trkpt lat="44.19111" lon="7.19414">
        <ele>2479.026123</ele>
        <time>2010-09-30T12:45:53Z</time>
      </trkpt>
      <trkpt lat="44.19107" lon="7.19416">
        <ele>2480.201143</ele>
        <time>2010-09-30T12:45:56Z</time>
      </trkpt>
      <trkpt lat="44.19103" lon="7.19416">
        <ele>2481.535173</ele>
        <time>2010-09-30T12:45:59Z</time>
      </trkpt>
      <trkpt lat="44.19099" lon="7.19416">
        <ele>2483.070429</ele>
        <time>2010-09-30T12:46:02Z</time>
      </trkpt>
      <trkpt lat="44.19097" lon="7.19415">
        <ele>2484.789861</ele>
        <time>2010-09-30T12:46:05Z</time>
      </trkpt>
      <trkpt lat="44.19093" lon="7.19415">
        <ele>2486.680629</ele>
        <time>2010-09-30T12:46:08Z</time>
      </trkpt>
      <trkpt lat="44.1909" lon="7.19415">
        <ele>2488.668998</ele>
        <time>2010-09-30T12:46:11Z</time>
      </trkpt>
      <trkpt lat="44.19086" lon="7.19415">
        <ele>2490.592726</ele>
        <time>2010-09-30T12:46:14Z</time>
      </trkpt>
      <trkpt lat="44.19083" lon="7.19415">
        <ele>2492.362698</ele>
        <time>2010-09-30T12:46:17Z</time>
      </trkpt>
      <trkpt lat="44.1908" lon="7.19415">
        <ele>2493.975875</ele>
        <time>2010-09-30T12:46:20Z</time>
      </trkpt>
      <trkpt lat="44.19077" lon="7.19415">
        <ele>2495.477491</ele>
        <time>2010-09-30T12:46:23Z</time>
      </trkpt>
      <trkpt lat="44.19073" lon="7.19415">
        <ele>2496.920436</ele>
        <time>2010-09-30T12:46:26Z</time>
      </trkpt>
      <trkpt lat="44.1907" lon="7.19416">
        <ele>2498.320998</ele>
        <time>2010-09-30T12:46:29Z</time>
      </trkpt>
      <trkpt lat="44.19066" lon="7.19416">
        <ele>2499.65185</ele>
        <time>2010-09-30T12:46:33Z</time>
      </trkpt>
      <trkpt lat="44.19063" lon="7.19416">
        <ele>2500.887747</ele>
        <time>2010-09-30T12:46:36Z</time>
      </trkpt>
      <trkpt lat="44.1906" lon="7.19417">
        <ele>2502.031717</ele>
        <time>2010-09-30T12:46:40Z</time>
      </trkpt>
      <trkpt lat="44.19058" lon="7.19416">
        <ele>2503.139757</ele>
        <time>2010-09-30T12:46:43Z</time>
      </trkpt>
      <trkpt lat="44.19054" lon="7.19416">
        <ele>2504.241367</ele>
        <time>2010-09-30T12:46:46Z</time>
      </trkpt>
      <trkpt lat="44.19051" lon="7.19415">
        <ele>2505.314608</ele>
        <time>2010-09-30T12:46:49Z</time>
      </trkpt>
      <trkpt lat="44.19048" lon="7.19417">
        <ele>2506.327915</ele>
        <time>2010-09-30T12:46:52Z</time>
      </trkpt>
      <trkpt lat="44.19045" lon="7.19419">
        <ele>2507.228544</ele>
        <time>2010-09-30T12:46:55Z</time>
      </trkpt>
      <trkpt lat="44.19042" lon="7.19419">
        <ele>2507.970475</ele>
        <time>2010-09-30T12:46:59Z</time>
      </trkpt>
      <trkpt lat="44.19039" lon="7.19419">
        <ele>2508.598384</ele>
        <time>2010-09-30T12:47:03Z</time>
      </trkpt>
      <trkpt lat="44.19039" lon="7.19419">
        <ele>2509.103143</ele>
        <time>2010-09-30T12:47:13Z</time>
      </trkpt>
      <trkpt lat="44.19039" lon="7.19419">
        <ele>2509.392724</ele>
        <time>2010-09-30T12:47:35Z</time>
      </trkpt>
      <trkpt lat="44.19058" lon="7.19396">
        <ele>2509.561288</ele>
        <time>2010-09-30T12:47:56Z</time>
      </trkpt>
      <trkpt lat="44.1906" lon="7.19391">
        <ele>2509.902992</ele>
        <time>2010-09-30T12:48:00Z</time>
      </trkpt>
      <trkpt lat="44.19062" lon="7.19386">
        <ele>2510.526321</ele>
        <time>2010-09-30T12:48:03Z</time>
      </trkpt>
      <trkpt lat="44.19064" lon="7.19383">
        <ele>2511.41958</ele>
        <time>2010-09-30T12:48:05Z</time>
      </trkpt>
      <trkpt lat="44.19066" lon="7.19376">
        <ele>2512.426889</ele>
        <time>2010-09-30T12:48:12Z</time>
      </trkpt>
      <trkpt lat="44.19069" lon="7.19373">
        <ele>2513.156404</ele>
        <time>2010-09-30T12:48:15Z</time>
      </trkpt>
      <trkpt lat="44.19072" lon="7.19372">
        <ele>2513.417971</ele>
        <time>2010-09-30T12:48:17Z</time>
      </trkpt>
      <trkpt lat="44.19077" lon="7.19369">
        <ele>2513.307995</ele>
        <time>2010-09-30T12:48:20Z</time>
      </trkpt>
      <trkpt lat="44.1908" lon="7.19367">
        <ele>2512.967717</ele>
        <time>2010-09-30T12:48:22Z</time>
      </trkpt>
      <trkpt lat="44.19084" lon="7.19364">
        <ele>2512.644365</ele>
        <time>2010-09-30T12:48:25Z</time>
      </trkpt>
      <trkpt lat="44.19087" lon="7.19362">
        <ele>2512.498168</ele>
        <time>2010-09-30T12:48:28Z</time>
      </trkpt>
      <trkpt lat="44.1909" lon="7.19361">
        <ele>2512.501009</ele>
        <time>2010-09-30T12:48:30Z</time>
      </trkpt>
      <trkpt lat="44.19094" lon="7.19359">
        <ele>2512.647549</ele>
        <time>2010-09-30T12:48:33Z</time>
      </trkpt>
      <trkpt lat="44.19097" lon="7.19357">
        <ele>2512.964542</ele>
        <time>2010-09-30T12:48:36Z</time>
      </trkpt>
      <trkpt lat="44.191" lon="7.1936">
        <ele>2513.398387</ele>
        <time>2010-09-30T12:48:40Z</time>
      </trkpt>
      <trkpt lat="44.19103" lon="7.1936">
        <ele>2513.84803</ele>
        <time>2010-09-30T12:48:45Z</time>
      </trkpt>
      <trkpt lat="44.19106" lon="7.19357">
        <ele>2514.262222</ele>
        <time>2010-09-30T12:48:49Z</time>
      </trkpt>
      <trkpt lat="44.19109" lon="7.19355">
        <ele>2514.681006</ele>
        <time>2010-09-30T12:48:53Z</time>
      </trkpt>
      <trkpt lat="44.19111" lon="7.19352">
        <ele>2515.191295</ele>
        <time>2010-09-30T12:48:56Z</time>
      </trkpt>
      <trkpt lat="44.19114" lon="7.19348">
        <ele>2515.723244</ele>
        <time>2010-09-30T12:48:59Z</time>
      </trkpt>
      <trkpt lat="44.19116" lon="7.19343">
        <ele>2516.071237</ele>
        <time>2010-09-30T12:49:02Z</time>
      </trkpt>
      <trkpt lat="44.19118" lon="7.19338">
        <ele>2516.181352</ele>
        <time>2010-09-30T12:49:05Z</time>
      </trkpt>
      <trkpt lat="44.1912" lon="7.19334">
        <ele>2516.149654</ele>
        <time>2010-09-30T12:49:07Z</time>
      </trkpt>
      <trkpt lat="44.19122" lon="7.1933">
        <ele>2516.020534</ele>
        <time>2010-09-30T12:49:10Z</time>
      </trkpt>
      <trkpt lat="44.19124" lon="7.19326">
        <ele>2515.776606</ele>
        <time>2010-09-30T12:49:13Z</time>
      </trkpt>
      <trkpt lat="44.19126" lon="7.19322">
        <ele>2515.449383</ele>
        <time>2010-09-30T12:49:16Z</time>
      </trkpt>
      <trkpt lat="44.19129" lon="7.19318">
        <ele>2515.101412</ele>
        <time>2010-09-30T12:49:19Z</time>
      </trkpt>
      <trkpt lat="44.19132" lon="7.19313">
        <ele>2514.73156</ele>
        <time>2010-09-30T12:49:22Z</time>
      </trkpt>
      <trkpt lat="44.19134" lon="7.1931">
        <ele>2514.315707</ele>
        <time>2010-09-30T12:49:24Z</time>
      </trkpt>
      <trkpt lat="44.19137" lon="7.19305">
        <ele>2513.839927</ele>
        <time>2010-09-30T12:49:27Z</time>
      </trkpt>
      <trkpt lat="44.1914" lon="7.19303">
        <ele>2513.302565</ele>
        <time>2010-09-30T12:49:29Z</time>
      </trkpt>
      <trkpt lat="44.19142" lon="7.19299">
        <ele>2512.757434</ele>
        <time>2010-09-30T12:49:32Z</time>
      </trkpt>
      <trkpt lat="44.19144" lon="7.19296">
        <ele>2512.236506</ele>
        <time>2010-09-30T12:49:35Z</time>
      </trkpt>
      <trkpt lat="44.19146" lon="7.19291">
        <ele>2511.735128</ele>
        <time>2010-09-30T12:49:38Z</time>
      </trkpt>
      <trkpt lat="44.19148" lon="7.19287">
        <ele>2511.246794</ele>
        <time>2010-09-30T12:49:41Z</time>
      </trkpt>
      <trkpt lat="44.19149" lon="7.19283">
        <ele>2510.720432</ele>
        <time>2010-09-30T12:49:44Z</time>
      </trkpt>
      <trkpt lat="44.19146" lon="7.19284">
        <ele>2510.072236</ele>
        <time>2010-09-30T12:49:46Z</time>
      </trkpt>
      <trkpt lat="44.19143" lon="7.19285">
        <ele>2509.232688</ele>
        <time>2010-09-30T12:49:49Z</time>
      </trkpt>
      <trkpt lat="44.19143" lon="7.1928">
        <ele>2508.31205</ele>
        <time>2010-09-30T12:49:53Z</time>
      </trkpt>
      <trkpt lat="44.19145" lon="7.19275">
        <ele>2507.626799</ele>
        <time>2010-09-30T12:49:56Z</time>
      </trkpt>
      <trkpt lat="44.19147" lon="7.19272">
        <ele>2507.33793</ele>
        <time>2010-09-30T12:49:59Z</time>
      </trkpt>
      <trkpt lat="44.19149" lon="7.19269">
        <ele>2507.315954</ele>
        <time>2010-09-30T12:50:02Z</time>
      </trkpt>
      <trkpt lat="44.19151" lon="7.19264">
        <ele>2507.488404</ele>
        <time>2010-09-30T12:50:05Z</time>
      </trkpt>
      <trkpt lat="44.19152" lon="7.19259">
        <ele>2507.919686</ele>
        <time>2010-09-30T12:50:08Z</time>
      </trkpt>
      <trkpt lat="44.19154" lon="7.19254">
        <ele>2508.56456</ele>
        <time>2010-09-30T12:50:12Z</time>
      </trkpt>
      <trkpt lat="44.19157" lon="7.19252">
        <ele>2509.249909</ele>
        <time>2010-09-30T12:50:15Z</time>
      </trkpt>
      <trkpt lat="44.19161" lon="7.1925">
        <ele>2509.860986</ele>
        <time>2010-09-30T12:50:18Z</time>
      </trkpt>
      <trkpt lat="44.19164" lon="7.19247">
        <ele>2510.404777</ele>
        <time>2010-09-30T12:50:21Z</time>
      </trkpt>
      <trkpt lat="44.19167" lon="7.19242">
        <ele>2510.970038</ele>
        <time>2010-09-30T12:50:24Z</time>
      </trkpt>
      <trkpt lat="44.19169" lon="7.19235">
        <ele>2511.593356</ele>
        <time>2010-09-30T12:50:27Z</time>
      </trkpt>
      <trkpt lat="44.19171" lon="7.1923">
        <ele>2512.206197</ele>
        <time>2010-09-30T12:50:29Z</time>
      </trkpt>
      <trkpt lat="44.19173" lon="7.19224">
        <ele>2512.738098</ele>
        <time>2010-09-30T12:50:32Z</time>
      </trkpt>
      <trkpt lat="44.19174" lon="7.1922">
        <ele>2513.196845</ele>
        <time>2010-09-30T12:50:35Z</time>
      </trkpt>
      <trkpt lat="44.19178" lon="7.19218">
        <ele>2513.623367</ele>
        <time>2010-09-30T12:50:38Z</time>
      </trkpt>
      <trkpt lat="44.19182" lon="7.19216">
        <ele>2514.054403</ele>
        <time>2010-09-30T12:50:41Z</time>
      </trkpt>
      <trkpt lat="44.19185" lon="7.19213">
        <ele>2514.539574</ele>
        <time>2010-09-30T12:50:44Z</time>
      </trkpt>
      <trkpt lat="44.19188" lon="7.1921">
        <ele>2515.174621</ele>
        <time>2010-09-30T12:50:47Z</time>
      </trkpt>
      <trkpt lat="44.19191" lon="7.19208">
        <ele>2516.052824</ele>
        <time>2010-09-30T12:50:50Z</time>
      </trkpt>
      <trkpt lat="44.19193" lon="7.19206">
        <ele>2517.134637</ele>
        <time>2010-09-30T12:50:53Z</time>
      </trkpt>
      <trkpt lat="44.19196" lon="7.19202">
        <ele>2518.257631</ele>
        <time>2010-09-30T12:50:56Z</time>
      </trkpt>
      <trkpt lat="44.19197" lon="7.19197">
        <ele>2519.308397</ele>
        <time>2010-09-30T12:50:59Z</time>
      </trkpt>
      <trkpt lat="44.19198" lon="7.19193">
        <ele>2520.258363</ele>
        <time>2010-09-30T12:51:02Z</time>
      </trkpt>
      <trkpt lat="44.192" lon="7.19189">
        <ele>2521.105681</ele>
        <time>2010-09-30T12:51:06Z</time>
      </trkpt>
      <trkpt lat="44.19203" lon="7.19185">
        <ele>2521.842983</ele>
        <time>2010-09-30T12:51:09Z</time>
      </trkpt>
      <trkpt lat="44.19209" lon="7.1918">
        <ele>2522.480456</ele>
        <time>2010-09-30T12:51:12Z</time>
      </trkpt>
      <trkpt lat="44.19211" lon="7.19178">
        <ele>2523.085902</ele>
        <time>2010-09-30T12:51:14Z</time>
      </trkpt>
      <trkpt lat="44.19215" lon="7.19176">
        <ele>2523.721561</ele>
        <time>2010-09-30T12:51:17Z</time>
      </trkpt>
      <trkpt lat="44.19218" lon="7.19175">
        <ele>2524.381966</ele>
        <time>2010-09-30T12:51:19Z</time>
      </trkpt>
      <trkpt lat="44.19221" lon="7.19173">
        <ele>2525.007441</ele>
        <time>2010-09-30T12:51:21Z</time>
      </trkpt>
      <trkpt lat="44.19225" lon="7.19171">
        <ele>2525.562177</ele>
        <time>2010-09-30T12:51:24Z</time>
      </trkpt>
      <trkpt lat="44.19227" lon="7.19168">
        <ele>2526.075828</ele>
        <time>2010-09-30T12:51:27Z</time>
      </trkpt>
      <trkpt lat="44.19232" lon="7.19167">
        <ele>2526.581269</ele>
        <time>2010-09-30T12:51:30Z</time>
      </trkpt>
      <trkpt lat="44.19236" lon="7.19165">
        <ele>2527.095815</ele>
        <time>2010-09-30T12:51:33Z</time>
      </trkpt>
      <trkpt lat="44.19237" lon="7.19161">
        <ele>2527.70411</ele>
        <time>2010-09-30T12:51:39Z</time>
      </trkpt>
      <trkpt lat="44.19234" lon="7.19161">
        <ele>2528.552465</ele>
        <time>2010-09-30T12:51:44Z</time>
      </trkpt>
      <trkpt lat="44.19231" lon="7.1916">
        <ele>2529.756381</ele>
        <time>2010-09-30T12:51:48Z</time>
      </trkpt>
      <trkpt lat="44.19228" lon="7.19158">
        <ele>2531.486272</ele>
        <time>2010-09-30T12:51:53Z</time>
      </trkpt>
      <trkpt lat="44.19226" lon="7.19156">
        <ele>2533.756077</ele>
        <time>2010-09-30T12:51:58Z</time>
      </trkpt>
      <trkpt lat="44.19223" lon="7.19155">
        <ele>2536.093218</ele>
        <time>2010-09-30T12:52:01Z</time>
      </trkpt>
      <trkpt lat="44.1922" lon="7.19156">
        <ele>2537.969959</ele>
        <time>2010-09-30T12:52:03Z</time>
      </trkpt>
      <trkpt lat="44.19217" lon="7.19157">
        <ele>2539.283406</ele>
        <time>2010-09-30T12:52:06Z</time>
      </trkpt>
      <trkpt lat="44.19214" lon="7.19157">
        <ele>2540.129452</ele>
        <time>2010-09-30T12:52:10Z</time>
      </trkpt>
      <trkpt lat="44.19211" lon="7.19157">
        <ele>2540.643924</ele>
        <time>2010-09-30T12:52:14Z</time>
      </trkpt>
      <trkpt lat="44.19207" lon="7.19172">
        <ele>2541.008746</ele>
        <time>2010-09-30T12:52:17Z</time>
      </trkpt>
      <trkpt lat="44.19193" lon="7.1919">
        <ele>2541.373223</ele>
        <time>2010-09-30T12:52:20Z</time>
      </trkpt>
      <trkpt lat="44.19186" lon="7.19194">
        <ele>2541.752209</ele>
        <time>2010-09-30T12:52:23Z</time>
      </trkpt>
      <trkpt lat="44.1918" lon="7.19196">
        <ele>2542.058005</ele>
        <time>2010-09-30T12:52:26Z</time>
      </trkpt>
      <trkpt lat="44.19179" lon="7.19201">
        <ele>2542.246625</ele>
        <time>2010-09-30T12:52:31Z</time>
      </trkpt>
      <trkpt lat="44.19184" lon="7.19196">
        <ele>2542.421599</ele>
        <time>2010-09-30T12:52:41Z</time>
      </trkpt>
      <trkpt lat="44.19157" lon="7.19196">
        <ele>2542.952832</ele>
        <time>2010-09-30T13:04:03Z</time>
      </trkpt>
      <trkpt lat="44.19154" lon="7.19198">
        <ele>2543.338664</ele>
        <time>2010-09-30T13:04:06Z</time>
      </trkpt>
      <trkpt lat="44.19152" lon="7.192">
        <ele>2544.149046</ele>
        <time>2010-09-30T13:04:09Z</time>
      </trkpt>
      <trkpt lat="44.1915" lon="7.19203">
        <ele>2553.606965</ele>
        <time>2010-09-30T13:04:12Z</time>
      </trkpt>
      <trkpt lat="44.19147" lon="7.19205">
        <ele>2576.019982</ele>
        <time>2010-09-30T13:04:15Z</time>
      </trkpt>
      <trkpt lat="44.19144" lon="7.19207">
        <ele>2598.35668</ele>
        <time>2010-09-30T13:04:18Z</time>
      </trkpt>
      <trkpt lat="44.19141" lon="7.1921">
        <ele>2608.767154</ele>
        <time>2010-09-30T13:04:21Z</time>
      </trkpt>
      <trkpt lat="44.19137" lon="7.19211">
        <ele>2610.209962</ele>
        <time>2010-09-30T13:04:24Z</time>
      </trkpt>
      <trkpt lat="44.19134" lon="7.19212">
        <ele>2608.261086</ele>
        <time>2010-09-30T13:04:27Z</time>
      </trkpt>
      <trkpt lat="44.1913" lon="7.19214">
        <ele>2606.281016</ele>
        <time>2010-09-30T13:04:30Z</time>
      </trkpt>
      <trkpt lat="44.19127" lon="7.19215">
        <ele>2605.232816</ele>
        <time>2010-09-30T13:04:33Z</time>
      </trkpt>
      <trkpt lat="44.19123" lon="7.19217">
        <ele>2604.885258</ele>
        <time>2010-09-30T13:04:37Z</time>
      </trkpt>
      <trkpt lat="44.19121" lon="7.19219">
        <ele>2604.778759</ele>
        <time>2010-09-30T13:04:40Z</time>
      </trkpt>
      <trkpt lat="44.19118" lon="7.19218">
        <ele>2604.623957</ele>
        <time>2010-09-30T13:04:43Z</time>
      </trkpt>
      <trkpt lat="44.19115" lon="7.19219">
        <ele>2604.308933</ele>
        <time>2010-09-30T13:04:46Z</time>
      </trkpt>
      <trkpt lat="44.19112" lon="7.19221">
        <ele>2603.834136</ele>
        <time>2010-09-30T13:04:49Z</time>
      </trkpt>
      <trkpt lat="44.19109" lon="7.19223">
        <ele>2603.277581</ele>
        <time>2010-09-30T13:04:52Z</time>
      </trkpt>
      <trkpt lat="44.19104" lon="7.19226">
        <ele>2602.716407</ele>
        <time>2010-09-30T13:05:02Z</time>
      </trkpt>
      <trkpt lat="44.19101" lon="7.19228">
        <ele>2602.1692</ele>
        <time>2010-09-30T13:05:05Z</time>
      </trkpt>
      <trkpt lat="44.19098" lon="7.19228">
        <ele>2601.622002</ele>
        <time>2010-09-30T13:05:08Z</time>
      </trkpt>
      <trkpt lat="44.19095" lon="7.1923">
        <ele>2601.053783</ele>
        <time>2010-09-30T13:05:12Z</time>
      </trkpt>
      <trkpt lat="44.19092" lon="7.19231">
        <ele>2600.521882</ele>
        <time>2010-09-30T13:05:15Z</time>
      </trkpt>
      <trkpt lat="44.19089" lon="7.19233">
        <ele>2600.146865</ele>
        <time>2010-09-30T13:05:19Z</time>
      </trkpt>
      <trkpt lat="44.19087" lon="7.19236">
        <ele>2599.964699</ele>
        <time>2010-09-30T13:05:23Z</time>
      </trkpt>
      <trkpt lat="44.19084" lon="7.19238">
        <ele>2599.909275</ele>
        <time>2010-09-30T13:05:28Z</time>
      </trkpt>
      <trkpt lat="44.19081" lon="7.1924">
        <ele>2599.913261</ele>
        <time>2010-09-30T13:05:32Z</time>
      </trkpt>
      <trkpt lat="44.19078" lon="7.19245">
        <ele>2599.93205</ele>
        <time>2010-09-30T13:05:35Z</time>
      </trkpt>
      <trkpt lat="44.19076" lon="7.19248">
        <ele>2599.947572</ele>
        <time>2010-09-30T13:05:37Z</time>
      </trkpt>
      <trkpt lat="44.19073" lon="7.19251">
        <ele>2599.964854</ele>
        <time>2010-09-30T13:05:40Z</time>
      </trkpt>
      <trkpt lat="44.1907" lon="7.19253">
        <ele>2599.992404</ele>
        <time>2010-09-30T13:05:43Z</time>
      </trkpt>
      <trkpt lat="44.19068" lon="7.19255">
        <ele>2600.03046</ele>
        <time>2010-09-30T13:05:46Z</time>
      </trkpt>
      <trkpt lat="44.19065" lon="7.19259">
        <ele>2600.080009</ele>
        <time>2010-09-30T13:05:49Z</time>
      </trkpt>
      <trkpt lat="44.19063" lon="7.19262">
        <ele>2600.144188</ele>
        <time>2010-09-30T13:05:52Z</time>
      </trkpt>
      <trkpt lat="44.19061" lon="7.19266">
        <ele>2600.217058</ele>
        <time>2010-09-30T13:05:55Z</time>
      </trkpt>
      <trkpt lat="44.19058" lon="7.19269">
        <ele>2600.288032</ele>
        <time>2010-09-30T13:05:58Z</time>
      </trkpt>
      <trkpt lat="44.19055" lon="7.19272">
        <ele>2600.35312</ele>
        <time>2010-09-30T13:06:01Z</time>
      </trkpt>
      <trkpt lat="44.19053" lon="7.19274">
        <ele>2600.414137</ele>
        <time>2010-09-30T13:06:03Z</time>
      </trkpt>
      <trkpt lat="44.19048" lon="7.19277">
        <ele>2600.473389</ele>
        <time>2010-09-30T13:06:06Z</time>
      </trkpt>
      <trkpt lat="44.19045" lon="7.19279">
        <ele>2600.532873</ele>
        <time>2010-09-30T13:06:08Z</time>
      </trkpt>
      <trkpt lat="44.19043" lon="7.1928">
        <ele>2600.589486</ele>
        <time>2010-09-30T13:06:11Z</time>
      </trkpt>
      <trkpt lat="44.19037" lon="7.19283">
        <ele>2600.63533</ele>
        <time>2010-09-30T13:06:17Z</time>
      </trkpt>
      <trkpt lat="44.19034" lon="7.19283">
        <ele>2600.667112</ele>
        <time>2010-09-30T13:06:20Z</time>
      </trkpt>
      <trkpt lat="44.1903" lon="7.19283">
        <ele>2600.689041</ele>
        <time>2010-09-30T13:06:23Z</time>
      </trkpt>
      <trkpt lat="44.19026" lon="7.19282">
        <ele>2600.708347</ele>
        <time>2010-09-30T13:06:25Z</time>
      </trkpt>
      <trkpt lat="44.19023" lon="7.19281">
        <ele>2600.730101</ele>
        <time>2010-09-30T13:06:27Z</time>
      </trkpt>
      <trkpt lat="44.19019" lon="7.19279">
        <ele>2600.75334</ele>
        <time>2010-09-30T13:06:30Z</time>
      </trkpt>
      <trkpt lat="44.19014" lon="7.19275">
        <ele>2600.773632</ele>
        <time>2010-09-30T13:06:33Z</time>
      </trkpt>
      <trkpt lat="44.19003" lon="7.19266">
        <ele>2600.786905</ele>
        <time>2010-09-30T13:06:36Z</time>
      </trkpt>
      <trkpt lat="44.18996" lon="7.19262">
        <ele>2600.79215</ele>
        <time>2010-09-30T13:06:39Z</time>
      </trkpt>
      <trkpt lat="44.18991" lon="7.1926">
        <ele>2600.792312</ele>
        <time>2010-09-30T13:06:42Z</time>
      </trkpt>
      <trkpt lat="44.18986" lon="7.19259">
        <ele>2600.790771</ele>
        <time>2010-09-30T13:06:45Z</time>
      </trkpt>
      <trkpt lat="44.18983" lon="7.19258">
        <ele>2600.788242</ele>
        <time>2010-09-30T13:06:47Z</time>
      </trkpt>
      <trkpt lat="44.18979" lon="7.19258">
        <ele>2600.783723</ele>
        <time>2010-09-30T13:06:50Z</time>
      </trkpt>
      <trkpt lat="44.18975" lon="7.19255">
        <ele>2600.776877</ele>
        <time>2010-09-30T13:06:53Z</time>
      </trkpt>
      <trkpt lat="44.18975" lon="7.19249">
        <ele>2600.76882</ele>
        <time>2010-09-30T13:06:56Z</time>
      </trkpt>
      <trkpt lat="44.18975" lon="7.19244">
        <ele>2600.760682</ele>
        <time>2010-09-30T13:06:59Z</time>
      </trkpt>
      <trkpt lat="44.18977" lon="7.19241">
        <ele>2600.751577</ele>
        <time>2010-09-30T13:07:01Z</time>
      </trkpt>
      <trkpt lat="44.18982" lon="7.19237">
        <ele>2600.72409</ele>
        <time>2010-09-30T13:07:04Z</time>
      </trkpt>
      <trkpt lat="44.18985" lon="7.19233">
        <ele>2600.613764</ele>
        <time>2010-09-30T13:07:06Z</time>
      </trkpt>
      <trkpt lat="44.18988" lon="7.1923">
        <ele>2600.365381</ele>
        <time>2010-09-30T13:07:08Z</time>
      </trkpt>
      <trkpt lat="44.18994" lon="7.19226">
        <ele>2599.982498</ele>
        <time>2010-09-30T13:07:11Z</time>
      </trkpt>
      <trkpt lat="44.19" lon="7.19221">
        <ele>2599.518342</ele>
        <time>2010-09-30T13:07:14Z</time>
      </trkpt>
      <trkpt lat="44.19004" lon="7.19217">
        <ele>2599.050434</ele>
        <time>2010-09-30T13:07:16Z</time>
      </trkpt>
      <trkpt lat="44.19008" lon="7.19213">
        <ele>2598.597691</ele>
        <time>2010-09-30T13:07:18Z</time>
      </trkpt>
      <trkpt lat="44.19013" lon="7.19207">
        <ele>2598.098341</ele>
        <time>2010-09-30T13:07:21Z</time>
      </trkpt>
      <trkpt lat="44.19016" lon="7.19203">
        <ele>2597.552129</ele>
        <time>2010-09-30T13:07:23Z</time>
      </trkpt>
      <trkpt lat="44.19019" lon="7.192">
        <ele>2597.033228</ele>
        <time>2010-09-30T13:07:25Z</time>
      </trkpt>
      <trkpt lat="44.19022" lon="7.19197">
        <ele>2596.551851</ele>
        <time>2010-09-30T13:07:27Z</time>
      </trkpt>
      <trkpt lat="44.19026" lon="7.19192">
        <ele>2596.072309</ele>
        <time>2010-09-30T13:07:30Z</time>
      </trkpt>
      <trkpt lat="44.19031" lon="7.19184">
        <ele>2595.610203</ele>
        <time>2010-09-30T13:07:33Z</time>
      </trkpt>
      <trkpt lat="44.19035" lon="7.19176">
        <ele>2595.188632</ele>
        <time>2010-09-30T13:07:36Z</time>
      </trkpt>
      <trkpt lat="44.19038" lon="7.19172">
        <ele>2594.766032</ele>
        <time>2010-09-30T13:07:38Z</time>
      </trkpt>
      <trkpt lat="44.19042" lon="7.19169">
        <ele>2594.289188</ele>
        <time>2010-09-30T13:07:41Z</time>
      </trkpt>
      <trkpt lat="44.19045" lon="7.19166">
        <ele>2593.759669</ele>
        <time>2010-09-30T13:07:44Z</time>
      </trkpt>
      <trkpt lat="44.19048" lon="7.19163">
        <ele>2593.239856</ele>
        <time>2010-09-30T13:07:47Z</time>
      </trkpt>
      <trkpt lat="44.19051" lon="7.19162">
        <ele>2592.763414</ele>
        <time>2010-09-30T13:07:50Z</time>
      </trkpt>
      <trkpt lat="44.19054" lon="7.1916">
        <ele>2592.296985</ele>
        <time>2010-09-30T13:07:53Z</time>
      </trkpt>
      <trkpt lat="44.19057" lon="7.19157">
        <ele>2591.810324</ele>
        <time>2010-09-30T13:07:56Z</time>
      </trkpt>
      <trkpt lat="44.19059" lon="7.19153">
        <ele>2591.321745</ele>
        <time>2010-09-30T13:07:59Z</time>
      </trkpt>
      <trkpt lat="44.19061" lon="7.1915">
        <ele>2590.856543</ele>
        <time>2010-09-30T13:08:02Z</time>
      </trkpt>
      <trkpt lat="44.19063" lon="7.19147">
        <ele>2590.430485</ele>
        <time>2010-09-30T13:08:06Z</time>
      </trkpt>
      <trkpt lat="44.19067" lon="7.19143">
        <ele>2590.047201</ele>
        <time>2010-09-30T13:08:09Z</time>
      </trkpt>
      <trkpt lat="44.19071" lon="7.1914">
        <ele>2589.6942</ele>
        <time>2010-09-30T13:08:12Z</time>
      </trkpt>
      <trkpt lat="44.19075" lon="7.19136">
        <ele>2589.334575</ele>
        <time>2010-09-30T13:08:15Z</time>
      </trkpt>
      <trkpt lat="44.19078" lon="7.19133">
        <ele>2588.946279</ele>
        <time>2010-09-30T13:08:17Z</time>
      </trkpt>
      <trkpt lat="44.1908" lon="7.19129">
        <ele>2588.548515</ele>
        <time>2010-09-30T13:08:19Z</time>
      </trkpt>
      <trkpt lat="44.19084" lon="7.19124">
        <ele>2588.157393</ele>
        <time>2010-09-30T13:08:22Z</time>
      </trkpt>
      <trkpt lat="44.19086" lon="7.1912">
        <ele>2587.785063</ele>
        <time>2010-09-30T13:08:24Z</time>
      </trkpt>
      <trkpt lat="44.19089" lon="7.19116">
        <ele>2587.461763</ele>
        <time>2010-09-30T13:08:26Z</time>
      </trkpt>
      <trkpt lat="44.19091" lon="7.19112">
        <ele>2587.179955</ele>
        <time>2010-09-30T13:08:28Z</time>
      </trkpt>
      <trkpt lat="44.19094" lon="7.19112">
        <ele>2586.910623</ele>
        <time>2010-09-30T13:08:31Z</time>
      </trkpt>
      <trkpt lat="44.19099" lon="7.19114">
        <ele>2586.661215</ele>
        <time>2010-09-30T13:08:34Z</time>
      </trkpt>
      <trkpt lat="44.19102" lon="7.19112">
        <ele>2586.431126</ele>
        <time>2010-09-30T13:08:36Z</time>
      </trkpt>
      <trkpt lat="44.19105" lon="7.19109">
        <ele>2586.123636</ele>
        <time>2010-09-30T13:08:38Z</time>
      </trkpt>
      <trkpt lat="44.19107" lon="7.19106">
        <ele>2585.594141</ele>
        <time>2010-09-30T13:08:40Z</time>
      </trkpt>
      <trkpt lat="44.19111" lon="7.19102">
        <ele>2584.845077</ele>
        <time>2010-09-30T13:08:43Z</time>
      </trkpt>
      <trkpt lat="44.19115" lon="7.19098">
        <ele>2584.040083</ele>
        <time>2010-09-30T13:08:46Z</time>
      </trkpt>
      <trkpt lat="44.19117" lon="7.19094">
        <ele>2583.292573</ele>
        <time>2010-09-30T13:08:49Z</time>
      </trkpt>
      <trkpt lat="44.1912" lon="7.1909">
        <ele>2582.554755</ele>
        <time>2010-09-30T13:08:52Z</time>
      </trkpt>
      <trkpt lat="44.19123" lon="7.19086">
        <ele>2581.722446</ele>
        <time>2010-09-30T13:08:55Z</time>
      </trkpt>
      <trkpt lat="44.19127" lon="7.19082">
        <ele>2580.764515</ele>
        <time>2010-09-30T13:08:58Z</time>
      </trkpt>
      <trkpt lat="44.19132" lon="7.19079">
        <ele>2579.722534</ele>
        <time>2010-09-30T13:09:01Z</time>
      </trkpt>
      <trkpt lat="44.19136" lon="7.19076">
        <ele>2578.638993</ele>
        <time>2010-09-30T13:09:04Z</time>
      </trkpt>
      <trkpt lat="44.19138" lon="7.19073">
        <ele>2577.546704</ele>
        <time>2010-09-30T13:09:06Z</time>
      </trkpt>
      <trkpt lat="44.19142" lon="7.19068">
        <ele>2576.462665</ele>
        <time>2010-09-30T13:09:09Z</time>
      </trkpt>
      <trkpt lat="44.19144" lon="7.19065">
        <ele>2575.388273</ele>
        <time>2010-09-30T13:09:11Z</time>
      </trkpt>
      <trkpt lat="44.19146" lon="7.19061">
        <ele>2574.370119</ele>
        <time>2010-09-30T13:09:13Z</time>
      </trkpt>
      <trkpt lat="44.19148" lon="7.19056">
        <ele>2573.441722</ele>
        <time>2010-09-30T13:09:16Z</time>
      </trkpt>
      <trkpt lat="44.19151" lon="7.19052">
        <ele>2572.582635</ele>
        <time>2010-09-30T13:09:19Z</time>
      </trkpt>
      <trkpt lat="44.19154" lon="7.1905">
        <ele>2571.797728</ele>
        <time>2010-09-30T13:09:22Z</time>
      </trkpt>
      <trkpt lat="44.19155" lon="7.19047">
        <ele>2571.054906</ele>
        <time>2010-09-30T13:09:24Z</time>
      </trkpt>
      <trkpt lat="44.19157" lon="7.19043">
        <ele>2570.236916</ele>
        <time>2010-09-30T13:09:26Z</time>
      </trkpt>
      <trkpt lat="44.19159" lon="7.19038">
        <ele>2569.289022</ele>
        <time>2010-09-30T13:09:29Z</time>
      </trkpt>
      <trkpt lat="44.1916" lon="7.19033">
        <ele>2568.290696</ele>
        <time>2010-09-30T13:09:32Z</time>
      </trkpt>
      <trkpt lat="44.19163" lon="7.19029">
        <ele>2567.373334</ele>
        <time>2010-09-30T13:09:35Z</time>
      </trkpt>
      <trkpt lat="44.19166" lon="7.19027">
        <ele>2566.537326</ele>
        <time>2010-09-30T13:09:39Z</time>
      </trkpt>
      <trkpt lat="44.19166" lon="7.19027">
        <ele>2565.655884</ele>
        <time>2010-09-30T13:09:39Z</time>
      </trkpt>
      <trkpt lat="44.19168" lon="7.19026">
        <ele>2564.720067</ele>
        <time>2010-09-30T13:09:43Z</time>
      </trkpt>
      <trkpt lat="44.19171" lon="7.19023">
        <ele>2563.90545</ele>
        <time>2010-09-30T13:09:46Z</time>
      </trkpt>
      <trkpt lat="44.19174" lon="7.19019">
        <ele>2563.22251</ele>
        <time>2010-09-30T13:09:49Z</time>
      </trkpt>
      <trkpt lat="44.19176" lon="7.19016">
        <ele>2562.40509</ele>
        <time>2010-09-30T13:09:51Z</time>
      </trkpt>
      <trkpt lat="44.19178" lon="7.19012">
        <ele>2561.336356</ele>
        <time>2010-09-30T13:09:54Z</time>
      </trkpt>
      <trkpt lat="44.19179" lon="7.19006">
        <ele>2560.196843</ele>
        <time>2010-09-30T13:09:57Z</time>
      </trkpt>
      <trkpt lat="44.19181" lon="7.19001">
        <ele>2559.19237</ele>
        <time>2010-09-30T13:10:00Z</time>
      </trkpt>
      <trkpt lat="44.19182" lon="7.18997">
        <ele>2558.384851</ele>
        <time>2010-09-30T13:10:02Z</time>
      </trkpt>
      <trkpt lat="44.19184" lon="7.18993">
        <ele>2557.695696</ele>
        <time>2010-09-30T13:10:04Z</time>
      </trkpt>
      <trkpt lat="44.19184" lon="7.1899">
        <ele>2557.040057</ele>
        <time>2010-09-30T13:10:06Z</time>
      </trkpt>
      <trkpt lat="44.19186" lon="7.18986">
        <ele>2556.434134</ele>
        <time>2010-09-30T13:10:08Z</time>
      </trkpt>
      <trkpt lat="44.19187" lon="7.18981">
        <ele>2555.926685</ele>
        <time>2010-09-30T13:10:11Z</time>
      </trkpt>
      <trkpt lat="44.19188" lon="7.18977">
        <ele>2555.515302</ele>
        <time>2010-09-30T13:10:13Z</time>
      </trkpt>
      <trkpt lat="44.1919" lon="7.18971">
        <ele>2555.147544</ele>
        <time>2010-09-30T13:10:16Z</time>
      </trkpt>
      <trkpt lat="44.19193" lon="7.18965">
        <ele>2554.751578</ele>
        <time>2010-09-30T13:10:19Z</time>
      </trkpt>
      <trkpt lat="44.19195" lon="7.18959">
        <ele>2554.279896</ele>
        <time>2010-09-30T13:10:22Z</time>
      </trkpt>
      <trkpt lat="44.19196" lon="7.18955">
        <ele>2553.723005</ele>
        <time>2010-09-30T13:10:24Z</time>
      </trkpt>
      <trkpt lat="44.19197" lon="7.18951">
        <ele>2553.078322</ele>
        <time>2010-09-30T13:10:26Z</time>
      </trkpt>
      <trkpt lat="44.19196" lon="7.18944">
        <ele>2552.362018</ele>
        <time>2010-09-30T13:10:29Z</time>
      </trkpt>
      <trkpt lat="44.19196" lon="7.18937">
        <ele>2551.649524</ele>
        <time>2010-09-30T13:10:32Z</time>
      </trkpt>
      <trkpt lat="44.19195" lon="7.18931">
        <ele>2551.013695</ele>
        <time>2010-09-30T13:10:35Z</time>
      </trkpt>
      <trkpt lat="44.19195" lon="7.18924">
        <ele>2550.416836</ele>
        <time>2010-09-30T13:10:38Z</time>
      </trkpt>
      <trkpt lat="44.19196" lon="7.1892">
        <ele>2549.731152</ele>
        <time>2010-09-30T13:10:40Z</time>
      </trkpt>
      <trkpt lat="44.19198" lon="7.18915">
        <ele>2548.891807</ele>
        <time>2010-09-30T13:10:43Z</time>
      </trkpt>
      <trkpt lat="44.192" lon="7.18909">
        <ele>2547.937269</ele>
        <time>2010-09-30T13:10:46Z</time>
      </trkpt>
      <trkpt lat="44.19202" lon="7.18904">
        <ele>2546.99172</ele>
        <time>2010-09-30T13:10:49Z</time>
      </trkpt>
      <trkpt lat="44.19203" lon="7.18901">
        <ele>2546.150857</ele>
        <time>2010-09-30T13:10:51Z</time>
      </trkpt>
      <trkpt lat="44.19205" lon="7.18896">
        <ele>2545.35686</ele>
        <time>2010-09-30T13:10:54Z</time>
      </trkpt>
      <trkpt lat="44.19208" lon="7.18893">
        <ele>2544.506701</ele>
        <time>2010-09-30T13:10:57Z</time>
      </trkpt>
      <trkpt lat="44.1921" lon="7.1889">
        <ele>2543.637188</ele>
        <time>2010-09-30T13:10:59Z</time>
      </trkpt>
      <trkpt lat="44.19212" lon="7.18885">
        <ele>2542.822735</ele>
        <time>2010-09-30T13:11:02Z</time>
      </trkpt>
      <trkpt lat="44.19214" lon="7.18881">
        <ele>2542.041986</ele>
        <time>2010-09-30T13:11:05Z</time>
      </trkpt>
      <trkpt lat="44.19216" lon="7.18878">
        <ele>2541.291464</ele>
        <time>2010-09-30T13:11:07Z</time>
      </trkpt>
      <trkpt lat="44.19219" lon="7.18876">
        <ele>2540.615446</ele>
        <time>2010-09-30T13:11:09Z</time>
      </trkpt>
      <trkpt lat="44.19222" lon="7.18872">
        <ele>2539.985129</ele>
        <time>2010-09-30T13:11:12Z</time>
      </trkpt>
      <trkpt lat="44.19224" lon="7.18869">
        <ele>2539.373904</ele>
        <time>2010-09-30T13:11:14Z</time>
      </trkpt>
      <trkpt lat="44.19226" lon="7.18866">
        <ele>2538.79422</ele>
        <time>2010-09-30T13:11:16Z</time>
      </trkpt>
      <trkpt lat="44.19227" lon="7.18862">
        <ele>2538.179514</ele>
        <time>2010-09-30T13:11:18Z</time>
      </trkpt>
      <trkpt lat="44.19229" lon="7.18858">
        <ele>2537.484465</ele>
        <time>2010-09-30T13:11:20Z</time>
      </trkpt>
      <trkpt lat="44.19232" lon="7.18854">
        <ele>2536.797638</ele>
        <time>2010-09-30T13:11:23Z</time>
      </trkpt>
      <trkpt lat="44.19235" lon="7.18849">
        <ele>2536.20747</ele>
        <time>2010-09-30T13:11:26Z</time>
      </trkpt>
      <trkpt lat="44.19238" lon="7.18844">
        <ele>2535.710813</ele>
        <time>2010-09-30T13:11:29Z</time>
      </trkpt>
      <trkpt lat="44.1924" lon="7.18841">
        <ele>2535.250698</ele>
        <time>2010-09-30T13:11:31Z</time>
      </trkpt>
      <trkpt lat="44.19242" lon="7.18836">
        <ele>2534.756132</ele>
        <time>2010-09-30T13:11:33Z</time>
      </trkpt>
      <trkpt lat="44.19244" lon="7.18829">
        <ele>2534.202886</ele>
        <time>2010-09-30T13:11:36Z</time>
      </trkpt>
      <trkpt lat="44.19246" lon="7.18823">
        <ele>2533.639961</ele>
        <time>2010-09-30T13:11:39Z</time>
      </trkpt>
      <trkpt lat="44.19247" lon="7.18818">
        <ele>2533.134775</ele>
        <time>2010-09-30T13:11:41Z</time>
      </trkpt>
      <trkpt lat="44.19248" lon="7.18814">
        <ele>2532.679876</ele>
        <time>2010-09-30T13:11:43Z</time>
      </trkpt>
      <trkpt lat="44.1925" lon="7.18807">
        <ele>2532.206648</ele>
        <time>2010-09-30T13:11:46Z</time>
      </trkpt>
      <trkpt lat="44.19251" lon="7.18802">
        <ele>2531.71499</ele>
        <time>2010-09-30T13:11:48Z</time>
      </trkpt>
      <trkpt lat="44.19253" lon="7.18795">
        <ele>2531.267182</ele>
        <time>2010-09-30T13:11:51Z</time>
      </trkpt>
      <trkpt lat="44.19255" lon="7.18788">
        <ele>2530.859324</ele>
        <time>2010-09-30T13:11:54Z</time>
      </trkpt>
      <trkpt lat="44.19257" lon="7.18781">
        <ele>2530.446283</ele>
        <time>2010-09-30T13:11:57Z</time>
      </trkpt>
      <trkpt lat="44.19259" lon="7.18775">
        <ele>2530.008474</ele>
        <time>2010-09-30T13:12:00Z</time>
      </trkpt>
      <trkpt lat="44.19262" lon="7.18768">
        <ele>2529.526629</ele>
        <time>2010-09-30T13:12:03Z</time>
      </trkpt>
      <trkpt lat="44.19264" lon="7.18762">
        <ele>2528.995327</ele>
        <time>2010-09-30T13:12:06Z</time>
      </trkpt>
      <trkpt lat="44.19264" lon="7.18754">
        <ele>2528.44644</ele>
        <time>2010-09-30T13:12:09Z</time>
      </trkpt>
      <trkpt lat="44.19264" lon="7.18749">
        <ele>2527.906303</ele>
        <time>2010-09-30T13:12:11Z</time>
      </trkpt>
      <trkpt lat="44.19264" lon="7.18742">
        <ele>2527.382313</ele>
        <time>2010-09-30T13:12:14Z</time>
      </trkpt>
      <trkpt lat="44.19265" lon="7.18736">
        <ele>2526.863812</ele>
        <time>2010-09-30T13:12:17Z</time>
      </trkpt>
      <trkpt lat="44.19266" lon="7.18731">
        <ele>2526.360145</ele>
        <time>2010-09-30T13:12:19Z</time>
      </trkpt>
      <trkpt lat="44.19267" lon="7.18727">
        <ele>2525.880856</ele>
        <time>2010-09-30T13:12:21Z</time>
      </trkpt>
      <trkpt lat="44.19267" lon="7.18721">
        <ele>2525.389073</ele>
        <time>2010-09-30T13:12:24Z</time>
      </trkpt>
      <trkpt lat="44.19267" lon="7.18717">
        <ele>2524.873948</ele>
        <time>2010-09-30T13:12:26Z</time>
      </trkpt>
      <trkpt lat="44.19266" lon="7.1871">
        <ele>2524.386929</ele>
        <time>2010-09-30T13:12:29Z</time>
      </trkpt>
      <trkpt lat="44.19266" lon="7.18703">
        <ele>2523.926691</ele>
        <time>2010-09-30T13:12:32Z</time>
      </trkpt>
      <trkpt lat="44.19267" lon="7.18697">
        <ele>2523.459786</ele>
        <time>2010-09-30T13:12:35Z</time>
      </trkpt>
      <trkpt lat="44.19268" lon="7.18693">
        <ele>2522.983036</ele>
        <time>2010-09-30T13:12:37Z</time>
      </trkpt>
      <trkpt lat="44.19269" lon="7.18687">
        <ele>2522.484508</ele>
        <time>2010-09-30T13:12:40Z</time>
      </trkpt>
      <trkpt lat="44.1927" lon="7.18681">
        <ele>2521.945613</ele>
        <time>2010-09-30T13:12:43Z</time>
      </trkpt>
      <trkpt lat="44.19271" lon="7.18675">
        <ele>2521.403381</ele>
        <time>2010-09-30T13:12:46Z</time>
      </trkpt>
      <trkpt lat="44.19271" lon="7.18668">
        <ele>2520.88493</ele>
        <time>2010-09-30T13:12:49Z</time>
      </trkpt>
      <trkpt lat="44.19272" lon="7.1866">
        <ele>2520.346042</ele>
        <time>2010-09-30T13:12:52Z</time>
      </trkpt>
      <trkpt lat="44.19273" lon="7.18656">
        <ele>2519.734339</ele>
        <time>2010-09-30T13:12:54Z</time>
      </trkpt>
      <trkpt lat="44.19274" lon="7.18649">
        <ele>2519.057254</ele>
        <time>2010-09-30T13:12:57Z</time>
      </trkpt>
      <trkpt lat="44.19274" lon="7.18644">
        <ele>2518.345869</ele>
        <time>2010-09-30T13:12:59Z</time>
      </trkpt>
      <trkpt lat="44.19273" lon="7.18637">
        <ele>2517.658539</ele>
        <time>2010-09-30T13:13:02Z</time>
      </trkpt>
      <trkpt lat="44.19273" lon="7.18633">
        <ele>2517.028411</ele>
        <time>2010-09-30T13:13:04Z</time>
      </trkpt>
      <trkpt lat="44.19273" lon="7.18626">
        <ele>2516.440927</ele>
        <time>2010-09-30T13:13:07Z</time>
      </trkpt>
      <trkpt lat="44.19273" lon="7.18622">
        <ele>2515.864327</ele>
        <time>2010-09-30T13:13:09Z</time>
      </trkpt>
      <trkpt lat="44.19274" lon="7.18617">
        <ele>2515.288719</ele>
        <time>2010-09-30T13:13:11Z</time>
      </trkpt>
      <trkpt lat="44.19275" lon="7.1861">
        <ele>2514.7085</ele>
        <time>2010-09-30T13:13:14Z</time>
      </trkpt>
      <trkpt lat="44.19275" lon="7.18605">
        <ele>2514.132946</ele>
        <time>2010-09-30T13:13:16Z</time>
      </trkpt>
      <trkpt lat="44.19275" lon="7.18598">
        <ele>2513.590619</ele>
        <time>2010-09-30T13:13:19Z</time>
      </trkpt>
      <trkpt lat="44.19274" lon="7.18594">
        <ele>2513.070479</ele>
        <time>2010-09-30T13:13:21Z</time>
      </trkpt>
      <trkpt lat="44.19272" lon="7.18587">
        <ele>2512.52845</ele>
        <time>2010-09-30T13:13:24Z</time>
      </trkpt>
      <trkpt lat="44.1927" lon="7.18583">
        <ele>2511.955509</ele>
        <time>2010-09-30T13:13:26Z</time>
      </trkpt>
      <trkpt lat="44.19268" lon="7.18577">
        <ele>2511.366541</ele>
        <time>2010-09-30T13:13:29Z</time>
      </trkpt>
      <trkpt lat="44.19266" lon="7.18572">
        <ele>2510.76669</ele>
        <time>2010-09-30T13:13:31Z</time>
      </trkpt>
      <trkpt lat="44.19264" lon="7.18568">
        <ele>2510.16518</ele>
        <time>2010-09-30T13:13:33Z</time>
      </trkpt>
      <trkpt lat="44.19261" lon="7.18562">
        <ele>2509.561269</ele>
        <time>2010-09-30T13:13:36Z</time>
      </trkpt>
      <trkpt lat="44.19259" lon="7.18559">
        <ele>2508.966067</ele>
        <time>2010-09-30T13:13:38Z</time>
      </trkpt>
      <trkpt lat="44.19256" lon="7.18554">
        <ele>2508.411346</ele>
        <time>2010-09-30T13:13:41Z</time>
      </trkpt>
      <trkpt lat="44.19255" lon="7.18549">
        <ele>2507.890557</ele>
        <time>2010-09-30T13:13:44Z</time>
      </trkpt>
      <trkpt lat="44.19253" lon="7.18545">
        <ele>2507.361709</ele>
        <time>2010-09-30T13:13:46Z</time>
      </trkpt>
      <trkpt lat="44.19251" lon="7.18539">
        <ele>2506.818888</ele>
        <time>2010-09-30T13:13:49Z</time>
      </trkpt>
      <trkpt lat="44.19249" lon="7.18536">
        <ele>2506.252271</ele>
        <time>2010-09-30T13:13:51Z</time>
      </trkpt>
      <trkpt lat="44.19247" lon="7.18531">
        <ele>2505.680919</ele>
        <time>2010-09-30T13:13:54Z</time>
      </trkpt>
      <trkpt lat="44.19245" lon="7.18525">
        <ele>2505.145784</ele>
        <time>2010-09-30T13:13:57Z</time>
      </trkpt>
      <trkpt lat="44.19243" lon="7.18521">
        <ele>2504.64893</ele>
        <time>2010-09-30T13:13:59Z</time>
      </trkpt>
      <trkpt lat="44.19241" lon="7.18517">
        <ele>2504.170478</ele>
        <time>2010-09-30T13:14:01Z</time>
      </trkpt>
      <trkpt lat="44.19238" lon="7.18511">
        <ele>2503.676662</ele>
        <time>2010-09-30T13:14:04Z</time>
      </trkpt>
      <trkpt lat="44.19237" lon="7.18506">
        <ele>2503.169162</ele>
        <time>2010-09-30T13:14:06Z</time>
      </trkpt>
      <trkpt lat="44.19234" lon="7.18503">
        <ele>2502.703717</ele>
        <time>2010-09-30T13:14:08Z</time>
      </trkpt>
      <trkpt lat="44.19232" lon="7.18499">
        <ele>2502.273996</ele>
        <time>2010-09-30T13:14:11Z</time>
      </trkpt>
      <trkpt lat="44.19228" lon="7.18494">
        <ele>2501.842525</ele>
        <time>2010-09-30T13:14:14Z</time>
      </trkpt>
      <trkpt lat="44.19226" lon="7.18492">
        <ele>2501.425758</ele>
        <time>2010-09-30T13:14:16Z</time>
      </trkpt>
      <trkpt lat="44.19223" lon="7.18489">
        <ele>2501.01885</ele>
        <time>2010-09-30T13:14:18Z</time>
      </trkpt>
      <trkpt lat="44.19219" lon="7.18486">
        <ele>2500.565043</ele>
        <time>2010-09-30T13:14:21Z</time>
      </trkpt>
      <trkpt lat="44.19216" lon="7.18481">
        <ele>2500.074883</ele>
        <time>2010-09-30T13:14:24Z</time>
      </trkpt>
      <trkpt lat="44.19214" lon="7.18478">
        <ele>2499.623472</ele>
        <time>2010-09-30T13:14:26Z</time>
      </trkpt>
      <trkpt lat="44.19211" lon="7.18473">
        <ele>2499.219557</ele>
        <time>2010-09-30T13:14:29Z</time>
      </trkpt>
      <trkpt lat="44.19209" lon="7.18468">
        <ele>2498.80068</ele>
        <time>2010-09-30T13:14:32Z</time>
      </trkpt>
      <trkpt lat="44.19207" lon="7.18464">
        <ele>2498.358304</ele>
        <time>2010-09-30T13:14:34Z</time>
      </trkpt>
      <trkpt lat="44.19206" lon="7.1846">
        <ele>2497.928879</ele>
        <time>2010-09-30T13:14:36Z</time>
      </trkpt>
      <trkpt lat="44.19204" lon="7.18455">
        <ele>2497.504816</ele>
        <time>2010-09-30T13:14:38Z</time>
      </trkpt>
      <trkpt lat="44.19201" lon="7.1845">
        <ele>2497.081622</ele>
        <time>2010-09-30T13:14:41Z</time>
      </trkpt>
      <trkpt lat="44.19199" lon="7.18446">
        <ele>2496.692246</ele>
        <time>2010-09-30T13:14:43Z</time>
      </trkpt>
      <trkpt lat="44.19198" lon="7.18442">
        <ele>2496.346888</ele>
        <time>2010-09-30T13:14:45Z</time>
      </trkpt>
      <trkpt lat="44.19196" lon="7.18436">
        <ele>2496.018644</ele>
        <time>2010-09-30T13:14:48Z</time>
      </trkpt>
      <trkpt lat="44.19196" lon="7.18431">
        <ele>2495.691255</ele>
        <time>2010-09-30T13:14:50Z</time>
      </trkpt>
      <trkpt lat="44.19196" lon="7.18426">
        <ele>2495.360129</ele>
        <time>2010-09-30T13:14:52Z</time>
      </trkpt>
      <trkpt lat="44.19195" lon="7.1842">
        <ele>2494.961809</ele>
        <time>2010-09-30T13:14:55Z</time>
      </trkpt>
      <trkpt lat="44.19193" lon="7.18414">
        <ele>2494.436823</ele>
        <time>2010-09-30T13:14:58Z</time>
      </trkpt>
      <trkpt lat="44.19191" lon="7.18408">
        <ele>2493.837999</ele>
        <time>2010-09-30T13:15:01Z</time>
      </trkpt>
      <trkpt lat="44.19189" lon="7.18403">
        <ele>2493.206496</ele>
        <time>2010-09-30T13:15:04Z</time>
      </trkpt>
      <trkpt lat="44.19187" lon="7.184">
        <ele>2492.505652</ele>
        <time>2010-09-30T13:15:06Z</time>
      </trkpt>
      <trkpt lat="44.19183" lon="7.18397">
        <ele>2491.741583</ele>
        <time>2010-09-30T13:15:09Z</time>
      </trkpt>
      <trkpt lat="44.19179" lon="7.18395">
        <ele>2490.978455</ele>
        <time>2010-09-30T13:15:11Z</time>
      </trkpt>
      <trkpt lat="44.19175" lon="7.18392">
        <ele>2490.294914</ele>
        <time>2010-09-30T13:15:14Z</time>
      </trkpt>
      <trkpt lat="44.19171" lon="7.18388">
        <ele>2489.720826</ele>
        <time>2010-09-30T13:15:17Z</time>
      </trkpt>
      <trkpt lat="44.19169" lon="7.18386">
        <ele>2489.221266</ele>
        <time>2010-09-30T13:15:19Z</time>
      </trkpt>
      <trkpt lat="44.19167" lon="7.18383">
        <ele>2488.742753</ele>
        <time>2010-09-30T13:15:21Z</time>
      </trkpt>
      <trkpt lat="44.19165" lon="7.18381">
        <ele>2488.238666</ele>
        <time>2010-09-30T13:15:23Z</time>
      </trkpt>
      <trkpt lat="44.19161" lon="7.18377">
        <ele>2487.718292</ele>
        <time>2010-09-30T13:15:26Z</time>
      </trkpt>
      <trkpt lat="44.19159" lon="7.18374">
        <ele>2487.250475</ele>
        <time>2010-09-30T13:15:28Z</time>
      </trkpt>
      <trkpt lat="44.19156" lon="7.18371">
        <ele>2486.85888</ele>
        <time>2010-09-30T13:15:31Z</time>
      </trkpt>
      <trkpt lat="44.19153" lon="7.18369">
        <ele>2486.49339</ele>
        <time>2010-09-30T13:15:33Z</time>
      </trkpt>
      <trkpt lat="44.1915" lon="7.18364">
        <ele>2486.111773</ele>
        <time>2010-09-30T13:15:36Z</time>
      </trkpt>
      <trkpt lat="44.19148" lon="7.1836">
        <ele>2485.70764</ele>
        <time>2010-09-30T13:15:38Z</time>
      </trkpt>
      <trkpt lat="44.19145" lon="7.18354">
        <ele>2485.29196</ele>
        <time>2010-09-30T13:15:41Z</time>
      </trkpt>
      <trkpt lat="44.19144" lon="7.18347">
        <ele>2484.871036</ele>
        <time>2010-09-30T13:15:44Z</time>
      </trkpt>
      <trkpt lat="44.19142" lon="7.1834">
        <ele>2484.455646</ele>
        <time>2010-09-30T13:15:47Z</time>
      </trkpt>
      <trkpt lat="44.19141" lon="7.18336">
        <ele>2484.046952</ele>
        <time>2010-09-30T13:15:49Z</time>
      </trkpt>
      <trkpt lat="44.1914" lon="7.1833">
        <ele>2483.626469</ele>
        <time>2010-09-30T13:15:52Z</time>
      </trkpt>
      <trkpt lat="44.19139" lon="7.18326">
        <ele>2483.170727</ele>
        <time>2010-09-30T13:15:54Z</time>
      </trkpt>
      <trkpt lat="44.19137" lon="7.18321">
        <ele>2482.709571</ele>
        <time>2010-09-30T13:15:57Z</time>
      </trkpt>
      <trkpt lat="44.19135" lon="7.18318">
        <ele>2482.273169</ele>
        <time>2010-09-30T13:16:04Z</time>
      </trkpt>
      <trkpt lat="44.19134" lon="7.18314">
        <ele>2481.862016</ele>
        <time>2010-09-30T13:16:07Z</time>
      </trkpt>
      <trkpt lat="44.19132" lon="7.18309">
        <ele>2481.458861</ele>
        <time>2010-09-30T13:16:10Z</time>
      </trkpt>
      <trkpt lat="44.1913" lon="7.18305">
        <ele>2481.020955</ele>
        <time>2010-09-30T13:16:13Z</time>
      </trkpt>
      <trkpt lat="44.19128" lon="7.183">
        <ele>2480.511636</ele>
        <time>2010-09-30T13:16:16Z</time>
      </trkpt>
      <trkpt lat="44.19125" lon="7.18297">
        <ele>2479.950925</ele>
        <time>2010-09-30T13:16:19Z</time>
      </trkpt>
      <trkpt lat="44.19122" lon="7.18294">
        <ele>2479.375304</ele>
        <time>2010-09-30T13:16:22Z</time>
      </trkpt>
      <trkpt lat="44.19121" lon="7.18291">
        <ele>2478.809589</ele>
        <time>2010-09-30T13:16:25Z</time>
      </trkpt>
      <trkpt lat="44.19119" lon="7.18287">
        <ele>2478.265958</ele>
        <time>2010-09-30T13:16:29Z</time>
      </trkpt>
      <trkpt lat="44.19117" lon="7.18284">
        <ele>2477.7465</ele>
        <time>2010-09-30T13:16:32Z</time>
      </trkpt>
      <trkpt lat="44.19113" lon="7.18282">
        <ele>2477.249694</ele>
        <time>2010-09-30T13:16:35Z</time>
      </trkpt>
      <trkpt lat="44.19111" lon="7.1828">
        <ele>2476.751459</ele>
        <time>2010-09-30T13:16:37Z</time>
      </trkpt>
      <trkpt lat="44.19108" lon="7.18276">
        <ele>2476.232019</ele>
        <time>2010-09-30T13:16:40Z</time>
      </trkpt>
      <trkpt lat="44.19106" lon="7.18272">
        <ele>2475.714137</ele>
        <time>2010-09-30T13:16:43Z</time>
      </trkpt>
      <trkpt lat="44.19105" lon="7.18268">
        <ele>2475.245834</ele>
        <time>2010-09-30T13:16:46Z</time>
      </trkpt>
      <trkpt lat="44.19102" lon="7.18264">
        <ele>2474.841288</ele>
        <time>2010-09-30T13:16:49Z</time>
      </trkpt>
      <trkpt lat="44.19101" lon="7.18261">
        <ele>2474.472331</ele>
        <time>2010-09-30T13:16:52Z</time>
      </trkpt>
      <trkpt lat="44.19098" lon="7.18259">
        <ele>2474.134444</ele>
        <time>2010-09-30T13:16:55Z</time>
      </trkpt>
      <trkpt lat="44.19095" lon="7.18256">
        <ele>2473.845214</ele>
        <time>2010-09-30T13:16:59Z</time>
      </trkpt>
      <trkpt lat="44.19094" lon="7.18253">
        <ele>2473.561261</ele>
        <time>2010-09-30T13:17:06Z</time>
      </trkpt>
      <trkpt lat="44.19093" lon="7.18249">
        <ele>2473.2253</ele>
        <time>2010-09-30T13:17:10Z</time>
      </trkpt>
      <trkpt lat="44.1909" lon="7.18246">
        <ele>2472.829256</ele>
        <time>2010-09-30T13:17:14Z</time>
      </trkpt>
      <trkpt lat="44.19086" lon="7.18242">
        <ele>2472.350094</ele>
        <time>2010-09-30T13:17:17Z</time>
      </trkpt>
      <trkpt lat="44.19083" lon="7.18238">
        <ele>2471.783772</ele>
        <time>2010-09-30T13:17:20Z</time>
      </trkpt>
      <trkpt lat="44.1908" lon="7.18235">
        <ele>2471.218646</ele>
        <time>2010-09-30T13:17:23Z</time>
      </trkpt>
      <trkpt lat="44.19078" lon="7.18232">
        <ele>2470.755518</ele>
        <time>2010-09-30T13:17:26Z</time>
      </trkpt>
      <trkpt lat="44.19076" lon="7.18229">
        <ele>2470.418158</ele>
        <time>2010-09-30T13:17:29Z</time>
      </trkpt>
      <trkpt lat="44.19073" lon="7.18226">
        <ele>2470.177706</ele>
        <time>2010-09-30T13:17:32Z</time>
      </trkpt>
      <trkpt lat="44.1907" lon="7.18224">
        <ele>2469.994211</ele>
        <time>2010-09-30T13:17:39Z</time>
      </trkpt>
      <trkpt lat="44.19067" lon="7.18222">
        <ele>2469.844881</ele>
        <time>2010-09-30T13:17:43Z</time>
      </trkpt>
      <trkpt lat="44.19064" lon="7.18222">
        <ele>2469.714696</ele>
        <time>2010-09-30T13:17:46Z</time>
      </trkpt>
      <trkpt lat="44.19062" lon="7.18222">
        <ele>2469.589471</ele>
        <time>2010-09-30T13:17:49Z</time>
      </trkpt>
      <trkpt lat="44.19059" lon="7.18222">
        <ele>2469.457982</ele>
        <time>2010-09-30T13:17:52Z</time>
      </trkpt>
      <trkpt lat="44.19056" lon="7.18222">
        <ele>2469.316568</ele>
        <time>2010-09-30T13:17:55Z</time>
      </trkpt>
      <trkpt lat="44.19053" lon="7.18222">
        <ele>2469.169463</ele>
        <time>2010-09-30T13:17:58Z</time>
      </trkpt>
      <trkpt lat="44.19049" lon="7.18222">
        <ele>2469.02073</ele>
        <time>2010-09-30T13:18:01Z</time>
      </trkpt>
      <trkpt lat="44.19047" lon="7.18222">
        <ele>2468.869885</ele>
        <time>2010-09-30T13:18:03Z</time>
      </trkpt>
      <trkpt lat="44.19044" lon="7.18222">
        <ele>2468.714034</ele>
        <time>2010-09-30T13:18:05Z</time>
      </trkpt>
      <trkpt lat="44.19039" lon="7.18222">
        <ele>2468.548245</ele>
        <time>2010-09-30T13:18:08Z</time>
      </trkpt>
      <trkpt lat="44.19036" lon="7.18223">
        <ele>2468.37879</ele>
        <time>2010-09-30T13:18:10Z</time>
      </trkpt>
      <trkpt lat="44.19032" lon="7.18224">
        <ele>2468.221916</ele>
        <time>2010-09-30T13:18:13Z</time>
      </trkpt>
      <trkpt lat="44.19028" lon="7.18225">
        <ele>2468.071701</ele>
        <time>2010-09-30T13:18:16Z</time>
      </trkpt>
      <trkpt lat="44.19025" lon="7.18225">
        <ele>2467.910716</ele>
        <time>2010-09-30T13:18:19Z</time>
      </trkpt>
      <trkpt lat="44.19022" lon="7.18225">
        <ele>2467.733464</ele>
        <time>2010-09-30T13:18:22Z</time>
      </trkpt>
      <trkpt lat="44.19019" lon="7.18227">
        <ele>2467.535039</ele>
        <time>2010-09-30T13:18:25Z</time>
      </trkpt>
      <trkpt lat="44.19016" lon="7.18228">
        <ele>2467.315942</ele>
        <time>2010-09-30T13:18:28Z</time>
      </trkpt>
      <trkpt lat="44.19012" lon="7.18229">
        <ele>2467.087269</ele>
        <time>2010-09-30T13:18:32Z</time>
      </trkpt>
      <trkpt lat="44.1901" lon="7.1823">
        <ele>2466.849645</ele>
        <time>2010-09-30T13:18:36Z</time>
      </trkpt>
      <trkpt lat="44.19006" lon="7.1823">
        <ele>2466.594489</ele>
        <time>2010-09-30T13:18:43Z</time>
      </trkpt>
      <trkpt lat="44.19003" lon="7.18231">
        <ele>2466.302327</ele>
        <time>2010-09-30T13:18:48Z</time>
      </trkpt>
      <trkpt lat="44.19003" lon="7.18231">
        <ele>2465.95627</ele>
        <time>2010-09-30T13:18:50Z</time>
      </trkpt>
      <trkpt lat="44.19003" lon="7.18231">
        <ele>2465.533174</ele>
        <time>2010-09-30T13:19:25Z</time>
      </trkpt>
      <trkpt lat="44.19003" lon="7.18231">
        <ele>2465.033369</ele>
        <time>2010-09-30T13:22:11Z</time>
      </trkpt>
      <trkpt lat="44.19003" lon="7.18231">
        <ele>2464.456714</ele>
        <time>2010-09-30T13:22:12Z</time>
      </trkpt>
      <trkpt lat="44.18974" lon="7.1823">
        <ele>2463.881061</ele>
        <time>2010-09-30T13:22:48Z</time>
      </trkpt>
      <trkpt lat="44.18969" lon="7.1823">
        <ele>2463.475147</ele>
        <time>2010-09-30T13:22:50Z</time>
      </trkpt>
      <trkpt lat="44.18961" lon="7.18229">
        <ele>2463.284436</ele>
        <time>2010-09-30T13:22:53Z</time>
      </trkpt>
      <trkpt lat="44.18955" lon="7.18228">
        <ele>2463.192612</ele>
        <time>2010-09-30T13:22:55Z</time>
      </trkpt>
      <trkpt lat="44.18949" lon="7.18228">
        <ele>2463.135048</ele>
        <time>2010-09-30T13:22:58Z</time>
      </trkpt>
      <trkpt lat="44.18945" lon="7.18229">
        <ele>2463.103298</ele>
        <time>2010-09-30T13:23:00Z</time>
      </trkpt>
      <trkpt lat="44.1894" lon="7.1823">
        <ele>2463.093467</ele>
        <time>2010-09-30T13:23:03Z</time>
      </trkpt>
      <trkpt lat="44.18933" lon="7.18232">
        <ele>2463.080614</ele>
        <time>2010-09-30T13:23:06Z</time>
      </trkpt>
      <trkpt lat="44.18925" lon="7.18235">
        <ele>2463.039928</ele>
        <time>2010-09-30T13:23:09Z</time>
      </trkpt>
      <trkpt lat="44.1892" lon="7.18236">
        <ele>2462.976709</ele>
        <time>2010-09-30T13:23:11Z</time>
      </trkpt>
      <trkpt lat="44.18915" lon="7.18238">
        <ele>2462.909858</ele>
        <time>2010-09-30T13:23:13Z</time>
      </trkpt>
      <trkpt lat="44.1891" lon="7.18239">
        <ele>2462.849588</ele>
        <time>2010-09-30T13:23:15Z</time>
      </trkpt>
      <trkpt lat="44.18905" lon="7.18241">
        <ele>2462.802369</ele>
        <time>2010-09-30T13:23:17Z</time>
      </trkpt>
      <trkpt lat="44.18897" lon="7.18243">
        <ele>2462.767878</ele>
        <time>2010-09-30T13:23:20Z</time>
      </trkpt>
      <trkpt lat="44.18892" lon="7.18245">
        <ele>2462.73936</ele>
        <time>2010-09-30T13:23:22Z</time>
      </trkpt>
      <trkpt lat="44.18888" lon="7.18247">
        <ele>2462.710142</ele>
        <time>2010-09-30T13:23:24Z</time>
      </trkpt>
      <trkpt lat="44.18883" lon="7.18249">
        <ele>2462.66664</ele>
        <time>2010-09-30T13:23:26Z</time>
      </trkpt>
      <trkpt lat="44.18878" lon="7.18253">
        <ele>2462.59224</ele>
        <time>2010-09-30T13:23:28Z</time>
      </trkpt>
      <trkpt lat="44.1887" lon="7.18257">
        <ele>2462.470059</ele>
        <time>2010-09-30T13:23:31Z</time>
      </trkpt>
      <trkpt lat="44.18863" lon="7.18259">
        <ele>2462.280921</ele>
        <time>2010-09-30T13:23:34Z</time>
      </trkpt>
      <trkpt lat="44.18859" lon="7.1826">
        <ele>2462.027183</ele>
        <time>2010-09-30T13:23:36Z</time>
      </trkpt>
      <trkpt lat="44.18855" lon="7.18261">
        <ele>2461.721818</ele>
        <time>2010-09-30T13:23:38Z</time>
      </trkpt>
      <trkpt lat="44.18851" lon="7.18263">
        <ele>2461.348282</ele>
        <time>2010-09-30T13:23:40Z</time>
      </trkpt>
      <trkpt lat="44.18844" lon="7.18265">
        <ele>2460.905422</ele>
        <time>2010-09-30T13:23:43Z</time>
      </trkpt>
      <trkpt lat="44.18837" lon="7.18268">
        <ele>2460.431104</ele>
        <time>2010-09-30T13:23:46Z</time>
      </trkpt>
      <trkpt lat="44.18829" lon="7.1827">
        <ele>2459.949811</ele>
        <time>2010-09-30T13:23:49Z</time>
      </trkpt>
      <trkpt lat="44.18823" lon="7.18273">
        <ele>2459.432109</ele>
        <time>2010-09-30T13:23:52Z</time>
      </trkpt>
      <trkpt lat="44.18819" lon="7.18275">
        <ele>2458.835885</ele>
        <time>2010-09-30T13:23:54Z</time>
      </trkpt>
      <trkpt lat="44.18812" lon="7.1828">
        <ele>2458.162493</ele>
        <time>2010-09-30T13:23:57Z</time>
      </trkpt>
      <trkpt lat="44.18806" lon="7.18283">
        <ele>2457.450636</ele>
        <time>2010-09-30T13:24:00Z</time>
      </trkpt>
      <trkpt lat="44.18801" lon="7.18284">
        <ele>2456.766798</ele>
        <time>2010-09-30T13:24:02Z</time>
      </trkpt>
      <trkpt lat="44.18797" lon="7.18285">
        <ele>2456.145262</ele>
        <time>2010-09-30T13:24:04Z</time>
      </trkpt>
      <trkpt lat="44.18792" lon="7.18287">
        <ele>2455.528981</ele>
        <time>2010-09-30T13:24:06Z</time>
      </trkpt>
      <trkpt lat="44.18784" lon="7.18289">
        <ele>2454.896617</ele>
        <time>2010-09-30T13:24:09Z</time>
      </trkpt>
      <trkpt lat="44.18779" lon="7.1829">
        <ele>2454.31959</ele>
        <time>2010-09-30T13:24:11Z</time>
      </trkpt>
      <trkpt lat="44.18775" lon="7.1829">
        <ele>2453.833944</ele>
        <time>2010-09-30T13:24:13Z</time>
      </trkpt>
      <trkpt lat="44.18768" lon="7.18287">
        <ele>2453.382492</ele>
        <time>2010-09-30T13:24:16Z</time>
      </trkpt>
      <trkpt lat="44.18763" lon="7.1828">
        <ele>2452.910511</ele>
        <time>2010-09-30T13:24:19Z</time>
      </trkpt>
      <trkpt lat="44.1876" lon="7.18272">
        <ele>2452.431835</ele>
        <time>2010-09-30T13:24:22Z</time>
      </trkpt>
      <trkpt lat="44.1876" lon="7.18266">
        <ele>2451.930341</ele>
        <time>2010-09-30T13:24:24Z</time>
      </trkpt>
      <trkpt lat="44.1876" lon="7.18256">
        <ele>2451.317244</ele>
        <time>2010-09-30T13:24:27Z</time>
      </trkpt>
      <trkpt lat="44.18759" lon="7.18251">
        <ele>2450.553402</ele>
        <time>2010-09-30T13:24:29Z</time>
      </trkpt>
      <trkpt lat="44.18756" lon="7.18248">
        <ele>2449.7238</ele>
        <time>2010-09-30T13:24:31Z</time>
      </trkpt>
      <trkpt lat="44.18751" lon="7.18245">
        <ele>2448.917479</ele>
        <time>2010-09-30T13:24:34Z</time>
      </trkpt>
      <trkpt lat="44.18746" lon="7.18239">
        <ele>2448.150283</ele>
        <time>2010-09-30T13:24:37Z</time>
      </trkpt>
      <trkpt lat="44.1874" lon="7.18234">
        <ele>2447.430886</ele>
        <time>2010-09-30T13:24:40Z</time>
      </trkpt>
      <trkpt lat="44.18734" lon="7.18233">
        <ele>2446.723382</ele>
        <time>2010-09-30T13:24:43Z</time>
      </trkpt>
      <trkpt lat="44.18728" lon="7.18231">
        <ele>2445.915656</ele>
        <time>2010-09-30T13:24:46Z</time>
      </trkpt>
      <trkpt lat="44.18722" lon="7.18229">
        <ele>2444.966976</ele>
        <time>2010-09-30T13:24:49Z</time>
      </trkpt>
      <trkpt lat="44.18717" lon="7.18231">
        <ele>2443.948171</ele>
        <time>2010-09-30T13:24:51Z</time>
      </trkpt>
      <trkpt lat="44.18711" lon="7.18231">
        <ele>2442.956079</ele>
        <time>2010-09-30T13:24:54Z</time>
      </trkpt>
      <trkpt lat="44.18707" lon="7.18229">
        <ele>2442.049721</ele>
        <time>2010-09-30T13:24:56Z</time>
      </trkpt>
      <trkpt lat="44.18703" lon="7.18225">
        <ele>2441.267543</ele>
        <time>2010-09-30T13:24:58Z</time>
      </trkpt>
      <trkpt lat="44.18698" lon="7.18221">
        <ele>2440.603278</ele>
        <time>2010-09-30T13:25:01Z</time>
      </trkpt>
      <trkpt lat="44.18695" lon="7.18217">
        <ele>2440.005233</ele>
        <time>2010-09-30T13:25:04Z</time>
      </trkpt>
      <trkpt lat="44.18693" lon="7.18214">
        <ele>2439.451394</ele>
        <time>2010-09-30T13:25:06Z</time>
      </trkpt>
      <trkpt lat="44.18688" lon="7.1821">
        <ele>2438.906489</ele>
        <time>2010-09-30T13:25:09Z</time>
      </trkpt>
      <trkpt lat="44.18686" lon="7.18206">
        <ele>2438.291713</ele>
        <time>2010-09-30T13:25:11Z</time>
      </trkpt>
      <trkpt lat="44.18685" lon="7.18201">
        <ele>2437.627806</ele>
        <time>2010-09-30T13:25:13Z</time>
      </trkpt>
      <trkpt lat="44.18684" lon="7.18197">
        <ele>2436.983366</ele>
        <time>2010-09-30T13:25:15Z</time>
      </trkpt>
      <trkpt lat="44.18682" lon="7.18191">
        <ele>2436.376152</ele>
        <time>2010-09-30T13:25:18Z</time>
      </trkpt>
      <trkpt lat="44.1868" lon="7.18189">
        <ele>2435.819463</ele>
        <time>2010-09-30T13:25:21Z</time>
      </trkpt>
      <trkpt lat="44.18677" lon="7.18188">
        <ele>2435.322224</ele>
        <time>2010-09-30T13:25:24Z</time>
      </trkpt>
      <trkpt lat="44.18674" lon="7.18185">
        <ele>2434.825453</ele>
        <time>2010-09-30T13:25:27Z</time>
      </trkpt>
      <trkpt lat="44.18672" lon="7.18181">
        <ele>2434.257766</ele>
        <time>2010-09-30T13:25:30Z</time>
      </trkpt>
      <trkpt lat="44.18668" lon="7.18179">
        <ele>2433.610452</ele>
        <time>2010-09-30T13:25:33Z</time>
      </trkpt>
      <trkpt lat="44.18665" lon="7.18179">
        <ele>2432.932602</ele>
        <time>2010-09-30T13:25:36Z</time>
      </trkpt>
      <trkpt lat="44.18662" lon="7.18177">
        <ele>2432.268489</ele>
        <time>2010-09-30T13:25:39Z</time>
      </trkpt>
      <trkpt lat="44.18658" lon="7.18175">
        <ele>2431.639501</ele>
        <time>2010-09-30T13:25:42Z</time>
      </trkpt>
      <trkpt lat="44.18654" lon="7.18172">
        <ele>2431.047685</ele>
        <time>2010-09-30T13:25:45Z</time>
      </trkpt>
      <trkpt lat="44.18651" lon="7.18169">
        <ele>2430.484428</ele>
        <time>2010-09-30T13:25:47Z</time>
      </trkpt>
      <trkpt lat="44.18646" lon="7.18167">
        <ele>2429.940698</ele>
        <time>2010-09-30T13:25:49Z</time>
      </trkpt>
      <trkpt lat="44.18641" lon="7.18164">
        <ele>2429.442496</ele>
        <time>2010-09-30T13:25:51Z</time>
      </trkpt>
      <trkpt lat="44.18635" lon="7.18163">
        <ele>2429.037071</ele>
        <time>2010-09-30T13:25:53Z</time>
      </trkpt>
      <trkpt lat="44.18628" lon="7.18162">
        <ele>2428.718138</ele>
        <time>2010-09-30T13:25:56Z</time>
      </trkpt>
      <trkpt lat="44.18623" lon="7.18161">
        <ele>2428.436393</ele>
        <time>2010-09-30T13:25:58Z</time>
      </trkpt>
      <trkpt lat="44.18616" lon="7.18161">
        <ele>2428.165272</ele>
        <time>2010-09-30T13:26:01Z</time>
      </trkpt>
      <trkpt lat="44.1861" lon="7.18161">
        <ele>2427.882789</ele>
        <time>2010-09-30T13:26:04Z</time>
      </trkpt>
      <trkpt lat="44.18606" lon="7.18161">
        <ele>2427.584081</ele>
        <time>2010-09-30T13:26:06Z</time>
      </trkpt>
      <trkpt lat="44.18602" lon="7.18161">
        <ele>2427.298663</ele>
        <time>2010-09-30T13:26:08Z</time>
      </trkpt>
      <trkpt lat="44.18596" lon="7.18161">
        <ele>2427.045434</ele>
        <time>2010-09-30T13:26:11Z</time>
      </trkpt>
      <trkpt lat="44.18589" lon="7.1816">
        <ele>2426.829433</ele>
        <time>2010-09-30T13:26:14Z</time>
      </trkpt>
      <trkpt lat="44.1858" lon="7.18159">
        <ele>2426.66386</ele>
        <time>2010-09-30T13:26:17Z</time>
      </trkpt>
      <trkpt lat="44.18573" lon="7.18159">
        <ele>2426.538263</ele>
        <time>2010-09-30T13:26:20Z</time>
      </trkpt>
      <trkpt lat="44.18566" lon="7.18157">
        <ele>2426.418233</ele>
        <time>2010-09-30T13:26:23Z</time>
      </trkpt>
      <trkpt lat="44.18562" lon="7.18156">
        <ele>2426.272193</ele>
        <time>2010-09-30T13:26:25Z</time>
      </trkpt>
      <trkpt lat="44.18558" lon="7.18156">
        <ele>2426.079867</ele>
        <time>2010-09-30T13:26:28Z</time>
      </trkpt>
      <trkpt lat="44.18557" lon="7.1815">
        <ele>2425.8252</ele>
        <time>2010-09-30T13:26:31Z</time>
      </trkpt>
      <trkpt lat="44.18553" lon="7.1815">
        <ele>2425.517974</ele>
        <time>2010-09-30T13:26:35Z</time>
      </trkpt>
      <trkpt lat="44.1855" lon="7.18154">
        <ele>2425.177495</ele>
        <time>2010-09-30T13:26:37Z</time>
      </trkpt>
      <trkpt lat="44.18546" lon="7.18162">
        <ele>2424.794283</ele>
        <time>2010-09-30T13:26:40Z</time>
      </trkpt>
      <trkpt lat="44.18543" lon="7.18167">
        <ele>2424.32452</ele>
        <time>2010-09-30T13:26:42Z</time>
      </trkpt>
      <trkpt lat="44.18541" lon="7.18173">
        <ele>2423.776804</ele>
        <time>2010-09-30T13:26:44Z</time>
      </trkpt>
      <trkpt lat="44.18539" lon="7.18179">
        <ele>2423.21004</ele>
        <time>2010-09-30T13:26:46Z</time>
      </trkpt>
      <trkpt lat="44.18536" lon="7.18188">
        <ele>2422.666143</ele>
        <time>2010-09-30T13:26:49Z</time>
      </trkpt>
      <trkpt lat="44.18531" lon="7.18196">
        <ele>2422.166615</ele>
        <time>2010-09-30T13:26:52Z</time>
      </trkpt>
      <trkpt lat="44.18527" lon="7.18202">
        <ele>2421.720781</ele>
        <time>2010-09-30T13:26:54Z</time>
      </trkpt>
      <trkpt lat="44.18522" lon="7.18211">
        <ele>2421.273619</ele>
        <time>2010-09-30T13:26:57Z</time>
      </trkpt>
      <trkpt lat="44.18519" lon="7.18218">
        <ele>2420.762352</ele>
        <time>2010-09-30T13:26:59Z</time>
      </trkpt>
      <trkpt lat="44.18515" lon="7.18228">
        <ele>2420.212746</ele>
        <time>2010-09-30T13:27:02Z</time>
      </trkpt>
      <trkpt lat="44.18511" lon="7.18238">
        <ele>2419.685229</ele>
        <time>2010-09-30T13:27:05Z</time>
      </trkpt>
      <trkpt lat="44.18507" lon="7.18247">
        <ele>2419.191954</ele>
        <time>2010-09-30T13:27:08Z</time>
      </trkpt>
      <trkpt lat="44.18504" lon="7.18253">
        <ele>2418.715978</ele>
        <time>2010-09-30T13:27:10Z</time>
      </trkpt>
      <trkpt lat="44.18502" lon="7.18264">
        <ele>2418.23633</ele>
        <time>2010-09-30T13:27:13Z</time>
      </trkpt>
      <trkpt lat="44.18502" lon="7.18271">
        <ele>2417.755227</ele>
        <time>2010-09-30T13:27:15Z</time>
      </trkpt>
      <trkpt lat="44.18503" lon="7.18281">
        <ele>2417.325434</ele>
        <time>2010-09-30T13:27:18Z</time>
      </trkpt>
      <trkpt lat="44.18503" lon="7.18288">
        <ele>2416.977067</ele>
        <time>2010-09-30T13:27:20Z</time>
      </trkpt>
      <trkpt lat="44.18502" lon="7.18296">
        <ele>2416.699576</ele>
        <time>2010-09-30T13:27:23Z</time>
      </trkpt>
      <trkpt lat="44.18501" lon="7.18302">
        <ele>2416.471121</ele>
        <time>2010-09-30T13:27:26Z</time>
      </trkpt>
      <trkpt lat="44.18496" lon="7.18302">
        <ele>2416.272611</ele>
        <time>2010-09-30T13:27:29Z</time>
      </trkpt>
      <trkpt lat="44.18494" lon="7.183">
        <ele>2416.07206</ele>
        <time>2010-09-30T13:27:31Z</time>
      </trkpt>
      <trkpt lat="44.18491" lon="7.18296">
        <ele>2415.842165</ele>
        <time>2010-09-30T13:27:33Z</time>
      </trkpt>
      <trkpt lat="44.18488" lon="7.18294">
        <ele>2415.561515</ele>
        <time>2010-09-30T13:27:35Z</time>
      </trkpt>
      <trkpt lat="44.18485" lon="7.18297">
        <ele>2415.219617</ele>
        <time>2010-09-30T13:27:38Z</time>
      </trkpt>
      <trkpt lat="44.18482" lon="7.183">
        <ele>2414.82945</ele>
        <time>2010-09-30T13:27:41Z</time>
      </trkpt>
      <trkpt lat="44.18479" lon="7.183">
        <ele>2414.418998</ele>
        <time>2010-09-30T13:27:44Z</time>
      </trkpt>
      <trkpt lat="44.18477" lon="7.18296">
        <ele>2413.975535</ele>
        <time>2010-09-30T13:27:46Z</time>
      </trkpt>
      <trkpt lat="44.18473" lon="7.18289">
        <ele>2413.442573</ele>
        <time>2010-09-30T13:27:49Z</time>
      </trkpt>
      <trkpt lat="44.1847" lon="7.18287">
        <ele>2412.775822</ele>
        <time>2010-09-30T13:27:51Z</time>
      </trkpt>
      <trkpt lat="44.18466" lon="7.18287">
        <ele>2412.024044</ele>
        <time>2010-09-30T13:27:53Z</time>
      </trkpt>
      <trkpt lat="44.18461" lon="7.18287">
        <ele>2411.238459</ele>
        <time>2010-09-30T13:27:55Z</time>
      </trkpt>
      <trkpt lat="44.18458" lon="7.18285">
        <ele>2410.416237</ele>
        <time>2010-09-30T13:27:57Z</time>
      </trkpt>
      <trkpt lat="44.18455" lon="7.18277">
        <ele>2409.576582</ele>
        <time>2010-09-30T13:28:00Z</time>
      </trkpt>
      <trkpt lat="44.18456" lon="7.1827">
        <ele>2408.744525</ele>
        <time>2010-09-30T13:28:02Z</time>
      </trkpt>
      <trkpt lat="44.18462" lon="7.1826">
        <ele>2407.896546</ele>
        <time>2010-09-30T13:28:05Z</time>
      </trkpt>
      <trkpt lat="44.18465" lon="7.18253">
        <ele>2406.954412</ele>
        <time>2010-09-30T13:28:07Z</time>
      </trkpt>
      <trkpt lat="44.18468" lon="7.18246">
        <ele>2405.877105</ele>
        <time>2010-09-30T13:28:09Z</time>
      </trkpt>
      <trkpt lat="44.1847" lon="7.18238">
        <ele>2404.699465</ele>
        <time>2010-09-30T13:28:11Z</time>
      </trkpt>
      <trkpt lat="44.18471" lon="7.18231">
        <ele>2403.487609</ele>
        <time>2010-09-30T13:28:13Z</time>
      </trkpt>
      <trkpt lat="44.18472" lon="7.18219">
        <ele>2402.34275</ele>
        <time>2010-09-30T13:28:16Z</time>
      </trkpt>
      <trkpt lat="44.18473" lon="7.18213">
        <ele>2401.337662</ele>
        <time>2010-09-30T13:28:18Z</time>
      </trkpt>
      <trkpt lat="44.18473" lon="7.18205">
        <ele>2400.433086</ele>
        <time>2010-09-30T13:28:21Z</time>
      </trkpt>
      <trkpt lat="44.18473" lon="7.18199">
        <ele>2399.523952</ele>
        <time>2010-09-30T13:28:24Z</time>
      </trkpt>
      <trkpt lat="44.1847" lon="7.182">
        <ele>2398.554345</ele>
        <time>2010-09-30T13:28:26Z</time>
      </trkpt>
      <trkpt lat="44.18464" lon="7.18206">
        <ele>2397.558903</ele>
        <time>2010-09-30T13:28:29Z</time>
      </trkpt>
      <trkpt lat="44.18458" lon="7.18216">
        <ele>2396.533632</ele>
        <time>2010-09-30T13:28:32Z</time>
      </trkpt>
      <trkpt lat="44.18455" lon="7.18221">
        <ele>2395.495876</ele>
        <time>2010-09-30T13:28:34Z</time>
      </trkpt>
      <trkpt lat="44.18451" lon="7.18227">
        <ele>2394.516229</ele>
        <time>2010-09-30T13:28:36Z</time>
      </trkpt>
      <trkpt lat="44.18446" lon="7.18237">
        <ele>2393.56358</ele>
        <time>2010-09-30T13:28:39Z</time>
      </trkpt>
      <trkpt lat="44.18442" lon="7.1824">
        <ele>2392.62491</ele>
        <time>2010-09-30T13:28:41Z</time>
      </trkpt>
      <trkpt lat="44.18435" lon="7.18242">
        <ele>2391.779147</ele>
        <time>2010-09-30T13:28:44Z</time>
      </trkpt>
      <trkpt lat="44.1843" lon="7.18241">
        <ele>2391.007446</ele>
        <time>2010-09-30T13:28:46Z</time>
      </trkpt>
      <trkpt lat="44.18424" lon="7.18238">
        <ele>2390.248416</ele>
        <time>2010-09-30T13:28:49Z</time>
      </trkpt>
      <trkpt lat="44.18421" lon="7.18239">
        <ele>2389.508415</ele>
        <time>2010-09-30T13:28:51Z</time>
      </trkpt>
      <trkpt lat="44.18417" lon="7.18241">
        <ele>2388.815054</ele>
        <time>2010-09-30T13:28:53Z</time>
      </trkpt>
      <trkpt lat="44.18412" lon="7.18245">
        <ele>2388.158209</ele>
        <time>2010-09-30T13:28:56Z</time>
      </trkpt>
      <trkpt lat="44.18408" lon="7.18248">
        <ele>2387.520472</ele>
        <time>2010-09-30T13:28:58Z</time>
      </trkpt>
      <trkpt lat="44.18402" lon="7.18252">
        <ele>2386.904262</ele>
        <time>2010-09-30T13:29:01Z</time>
      </trkpt>
      <trkpt lat="44.18397" lon="7.18254">
        <ele>2386.257748</ele>
        <time>2010-09-30T13:29:04Z</time>
      </trkpt>
      <trkpt lat="44.18391" lon="7.18256">
        <ele>2385.50567</ele>
        <time>2010-09-30T13:29:07Z</time>
      </trkpt>
      <trkpt lat="44.18389" lon="7.18259">
        <ele>2384.655239</ele>
        <time>2010-09-30T13:29:09Z</time>
      </trkpt>
      <trkpt lat="44.18387" lon="7.18262">
        <ele>2383.742005</ele>
        <time>2010-09-30T13:29:11Z</time>
      </trkpt>
      <trkpt lat="44.18384" lon="7.18268">
        <ele>2382.821571</ele>
        <time>2010-09-30T13:29:14Z</time>
      </trkpt>
      <trkpt lat="44.18381" lon="7.18269">
        <ele>2381.950853</ele>
        <time>2010-09-30T13:29:16Z</time>
      </trkpt>
      <trkpt lat="44.18378" lon="7.1827">
        <ele>2381.112827</ele>
        <time>2010-09-30T13:29:18Z</time>
      </trkpt>
      <trkpt lat="44.18372" lon="7.18272">
        <ele>2380.245619</ele>
        <time>2010-09-30T13:29:21Z</time>
      </trkpt>
      <trkpt lat="44.18369" lon="7.18274">
        <ele>2379.356178</ele>
        <time>2010-09-30T13:29:23Z</time>
      </trkpt>
      <trkpt lat="44.18364" lon="7.18277">
        <ele>2378.548555</ele>
        <time>2010-09-30T13:29:26Z</time>
      </trkpt>
      <trkpt lat="44.18362" lon="7.1828">
        <ele>2377.845842</ele>
        <time>2010-09-30T13:29:28Z</time>
      </trkpt>
      <trkpt lat="44.18359" lon="7.18282">
        <ele>2377.190134</ele>
        <time>2010-09-30T13:29:30Z</time>
      </trkpt>
      <trkpt lat="44.18356" lon="7.18286">
        <ele>2376.559401</ele>
        <time>2010-09-30T13:29:33Z</time>
      </trkpt>
      <trkpt lat="44.18353" lon="7.18289">
        <ele>2375.953031</ele>
        <time>2010-09-30T13:29:35Z</time>
      </trkpt>
      <trkpt lat="44.18348" lon="7.18294">
        <ele>2375.396712</ele>
        <time>2010-09-30T13:29:38Z</time>
      </trkpt>
      <trkpt lat="44.18344" lon="7.18299">
        <ele>2374.882919</ele>
        <time>2010-09-30T13:29:41Z</time>
      </trkpt>
      <trkpt lat="44.1834" lon="7.18306">
        <ele>2374.365377</ele>
        <time>2010-09-30T13:29:44Z</time>
      </trkpt>
      <trkpt lat="44.18338" lon="7.18314">
        <ele>2373.843631</ele>
        <time>2010-09-30T13:29:47Z</time>
      </trkpt>
      <trkpt lat="44.18336" lon="7.18321">
        <ele>2373.320607</ele>
        <time>2010-09-30T13:29:50Z</time>
      </trkpt>
      <trkpt lat="44.18335" lon="7.18326">
        <ele>2372.797291</ele>
        <time>2010-09-30T13:29:52Z</time>
      </trkpt>
      <trkpt lat="44.18333" lon="7.18332">
        <ele>2372.309861</ele>
        <time>2010-09-30T13:29:55Z</time>
      </trkpt>
      <trkpt lat="44.18331" lon="7.18335">
        <ele>2371.885463</ele>
        <time>2010-09-30T13:29:57Z</time>
      </trkpt>
      <trkpt lat="44.18328" lon="7.18338">
        <ele>2371.537476</ele>
        <time>2010-09-30T13:29:59Z</time>
      </trkpt>
      <trkpt lat="44.18325" lon="7.18342">
        <ele>2371.250262</ele>
        <time>2010-09-30T13:30:02Z</time>
      </trkpt>
      <trkpt lat="44.18323" lon="7.18346">
        <ele>2370.985367</ele>
        <time>2010-09-30T13:30:04Z</time>
      </trkpt>
      <trkpt lat="44.18321" lon="7.18351">
        <ele>2370.727795</ele>
        <time>2010-09-30T13:30:07Z</time>
      </trkpt>
      <trkpt lat="44.1832" lon="7.18359">
        <ele>2370.473672</ele>
        <time>2010-09-30T13:30:10Z</time>
      </trkpt>
      <trkpt lat="44.18317" lon="7.18368">
        <ele>2370.218513</ele>
        <time>2010-09-30T13:30:13Z</time>
      </trkpt>
      <trkpt lat="44.18316" lon="7.18372">
        <ele>2369.977688</ele>
        <time>2010-09-30T13:30:15Z</time>
      </trkpt>
      <trkpt lat="44.18313" lon="7.18375">
        <ele>2369.760875</ele>
        <time>2010-09-30T13:30:18Z</time>
      </trkpt>
      <trkpt lat="44.1831" lon="7.18379">
        <ele>2369.566368</ele>
        <time>2010-09-30T13:30:21Z</time>
      </trkpt>
      <trkpt lat="44.18307" lon="7.18383">
        <ele>2369.402516</ele>
        <time>2010-09-30T13:30:23Z</time>
      </trkpt>
      <trkpt lat="44.18305" lon="7.18387">
        <ele>2369.267995</ele>
        <time>2010-09-30T13:30:25Z</time>
      </trkpt>
      <trkpt lat="44.18303" lon="7.1839">
        <ele>2369.138329</ele>
        <time>2010-09-30T13:30:28Z</time>
      </trkpt>
      <trkpt lat="44.18301" lon="7.18393">
        <ele>2368.994258</ele>
        <time>2010-09-30T13:30:31Z</time>
      </trkpt>
      <trkpt lat="44.18298" lon="7.18395">
        <ele>2368.845175</ele>
        <time>2010-09-30T13:30:34Z</time>
      </trkpt>
      <trkpt lat="44.18294" lon="7.18396">
        <ele>2368.678725</ele>
        <time>2010-09-30T13:30:37Z</time>
      </trkpt>
      <trkpt lat="44.1829" lon="7.18394">
        <ele>2368.454713</ele>
        <time>2010-09-30T13:30:40Z</time>
      </trkpt>
      <trkpt lat="44.18285" lon="7.18391">
        <ele>2368.171118</ele>
        <time>2010-09-30T13:30:42Z</time>
      </trkpt>
      <trkpt lat="44.1828" lon="7.18383">
        <ele>2367.863621</ele>
        <time>2010-09-30T13:30:45Z</time>
      </trkpt>
      <trkpt lat="44.18277" lon="7.18374">
        <ele>2367.557126</ele>
        <time>2010-09-30T13:30:48Z</time>
      </trkpt>
      <trkpt lat="44.18275" lon="7.18367">
        <ele>2367.271508</ele>
        <time>2010-09-30T13:30:50Z</time>
      </trkpt>
      <trkpt lat="44.18271" lon="7.18358">
        <ele>2367.008404</ele>
        <time>2010-09-30T13:30:53Z</time>
      </trkpt>
      <trkpt lat="44.18267" lon="7.18351">
        <ele>2366.742376</ele>
        <time>2010-09-30T13:30:55Z</time>
      </trkpt>
      <trkpt lat="44.18264" lon="7.18345">
        <ele>2366.472021</ele>
        <time>2010-09-30T13:30:57Z</time>
      </trkpt>
      <trkpt lat="44.18258" lon="7.18337">
        <ele>2366.215352</ele>
        <time>2010-09-30T13:31:00Z</time>
      </trkpt>
      <trkpt lat="44.18252" lon="7.18328">
        <ele>2365.975133</ele>
        <time>2010-09-30T13:31:03Z</time>
      </trkpt>
      <trkpt lat="44.18246" lon="7.18319">
        <ele>2365.754838</ele>
        <time>2010-09-30T13:31:06Z</time>
      </trkpt>
      <trkpt lat="44.1824" lon="7.1831">
        <ele>2365.528795</ele>
        <time>2010-09-30T13:31:09Z</time>
      </trkpt>
      <trkpt lat="44.18235" lon="7.18302">
        <ele>2365.228471</ele>
        <time>2010-09-30T13:31:12Z</time>
      </trkpt>
      <trkpt lat="44.18231" lon="7.18296">
        <ele>2364.803382</ele>
        <time>2010-09-30T13:31:14Z</time>
      </trkpt>
      <trkpt lat="44.18226" lon="7.1829">
        <ele>2364.257893</ele>
        <time>2010-09-30T13:31:17Z</time>
      </trkpt>
      <trkpt lat="44.18223" lon="7.18286">
        <ele>2363.647117</ele>
        <time>2010-09-30T13:31:19Z</time>
      </trkpt>
      <trkpt lat="44.18218" lon="7.18281">
        <ele>2363.06744</ele>
        <time>2010-09-30T13:31:22Z</time>
      </trkpt>
      <trkpt lat="44.18215" lon="7.18278">
        <ele>2362.581053</ele>
        <time>2010-09-30T13:31:24Z</time>
      </trkpt>
      <trkpt lat="44.18212" lon="7.18277">
        <ele>2362.181982</ele>
        <time>2010-09-30T13:31:26Z</time>
      </trkpt>
      <trkpt lat="44.18208" lon="7.18276">
        <ele>2361.833528</ele>
        <time>2010-09-30T13:31:29Z</time>
      </trkpt>
      <trkpt lat="44.18205" lon="7.18277">
        <ele>2361.515839</ele>
        <time>2010-09-30T13:31:32Z</time>
      </trkpt>
      <trkpt lat="44.18201" lon="7.18279">
        <ele>2361.234139</ele>
        <time>2010-09-30T13:31:34Z</time>
      </trkpt>
      <trkpt lat="44.18194" lon="7.18284">
        <ele>2360.982237</ele>
        <time>2010-09-30T13:31:37Z</time>
      </trkpt>
      <trkpt lat="44.18188" lon="7.18286">
        <ele>2360.731433</ele>
        <time>2010-09-30T13:31:40Z</time>
      </trkpt>
      <trkpt lat="44.18186" lon="7.18286">
        <ele>2360.480384</ele>
        <time>2010-09-30T13:31:42Z</time>
      </trkpt>
      <trkpt lat="44.18182" lon="7.18286">
        <ele>2360.21347</ele>
        <time>2010-09-30T13:31:45Z</time>
      </trkpt>
      <trkpt lat="44.18178" lon="7.18287">
        <ele>2359.884608</ele>
        <time>2010-09-30T13:31:47Z</time>
      </trkpt>
      <trkpt lat="44.18173" lon="7.1829">
        <ele>2359.502278</ele>
        <time>2010-09-30T13:31:50Z</time>
      </trkpt>
      <trkpt lat="44.18168" lon="7.18293">
        <ele>2359.109558</ele>
        <time>2010-09-30T13:31:53Z</time>
      </trkpt>
      <trkpt lat="44.18164" lon="7.18294">
        <ele>2358.728726</ele>
        <time>2010-09-30T13:31:55Z</time>
      </trkpt>
      <trkpt lat="44.1816" lon="7.18296">
        <ele>2358.364389</ele>
        <time>2010-09-30T13:31:58Z</time>
      </trkpt>
      <trkpt lat="44.18157" lon="7.18298">
        <ele>2358.00566</ele>
        <time>2010-09-30T13:32:01Z</time>
      </trkpt>
      <trkpt lat="44.18154" lon="7.183">
        <ele>2357.657236</ele>
        <time>2010-09-30T13:32:04Z</time>
      </trkpt>
      <trkpt lat="44.18151" lon="7.183">
        <ele>2357.338281</ele>
        <time>2010-09-30T13:32:06Z</time>
      </trkpt>
      <trkpt lat="44.18147" lon="7.18302">
        <ele>2357.03749</ele>
        <time>2010-09-30T13:32:09Z</time>
      </trkpt>
      <trkpt lat="44.18143" lon="7.18303">
        <ele>2356.736477</ele>
        <time>2010-09-30T13:32:12Z</time>
      </trkpt>
      <trkpt lat="44.1814" lon="7.18304">
        <ele>2356.443121</ele>
        <time>2010-09-30T13:32:14Z</time>
      </trkpt>
      <trkpt lat="44.18134" lon="7.18307">
        <ele>2356.167705</ele>
        <time>2010-09-30T13:32:17Z</time>
      </trkpt>
      <trkpt lat="44.1813" lon="7.1831">
        <ele>2355.889032</ele>
        <time>2010-09-30T13:32:19Z</time>
      </trkpt>
      <trkpt lat="44.18123" lon="7.18313">
        <ele>2355.583889</ele>
        <time>2010-09-30T13:32:22Z</time>
      </trkpt>
      <trkpt lat="44.18119" lon="7.18315">
        <ele>2355.236049</ele>
        <time>2010-09-30T13:32:24Z</time>
      </trkpt>
      <trkpt lat="44.18113" lon="7.18317">
        <ele>2354.833692</ele>
        <time>2010-09-30T13:32:27Z</time>
      </trkpt>
      <trkpt lat="44.18108" lon="7.18319">
        <ele>2354.37459</ele>
        <time>2010-09-30T13:32:30Z</time>
      </trkpt>
      <trkpt lat="44.18103" lon="7.18321">
        <ele>2353.871074</ele>
        <time>2010-09-30T13:32:33Z</time>
      </trkpt>
      <trkpt lat="44.18098" lon="7.18322">
        <ele>2353.325086</ele>
        <time>2010-09-30T13:32:36Z</time>
      </trkpt>
      <trkpt lat="44.18094" lon="7.18323">
        <ele>2352.716537</ele>
        <time>2010-09-30T13:32:39Z</time>
      </trkpt>
      <trkpt lat="44.1809" lon="7.18324">
        <ele>2352.03345</ele>
        <time>2010-09-30T13:32:42Z</time>
      </trkpt>
      <trkpt lat="44.18087" lon="7.18325">
        <ele>2351.307994</ele>
        <time>2010-09-30T13:32:45Z</time>
      </trkpt>
      <trkpt lat="44.18084" lon="7.18326">
        <ele>2350.581777</ele>
        <time>2010-09-30T13:32:48Z</time>
      </trkpt>
      <trkpt lat="44.1808" lon="7.18326">
        <ele>2349.891846</ele>
        <time>2010-09-30T13:32:51Z</time>
      </trkpt>
      <trkpt lat="44.18076" lon="7.18326">
        <ele>2349.256542</ele>
        <time>2010-09-30T13:32:54Z</time>
      </trkpt>
      <trkpt lat="44.18073" lon="7.18327">
        <ele>2348.677652</ele>
        <time>2010-09-30T13:32:57Z</time>
      </trkpt>
      <trkpt lat="44.18069" lon="7.18327">
        <ele>2348.154747</ele>
        <time>2010-09-30T13:33:00Z</time>
      </trkpt>
      <trkpt lat="44.18065" lon="7.18327">
        <ele>2347.691853</ele>
        <time>2010-09-30T13:33:03Z</time>
      </trkpt>
      <trkpt lat="44.18061" lon="7.18325">
        <ele>2347.287469</ele>
        <time>2010-09-30T13:33:06Z</time>
      </trkpt>
      <trkpt lat="44.18058" lon="7.18324">
        <ele>2346.923338</ele>
        <time>2010-09-30T13:33:08Z</time>
      </trkpt>
      <trkpt lat="44.18053" lon="7.18323">
        <ele>2346.575842</ele>
        <time>2010-09-30T13:33:11Z</time>
      </trkpt>
      <trkpt lat="44.18049" lon="7.18322">
        <ele>2346.230093</ele>
        <time>2010-09-30T13:33:14Z</time>
      </trkpt>
      <trkpt lat="44.18044" lon="7.18322">
        <ele>2345.896173</ele>
        <time>2010-09-30T13:33:17Z</time>
      </trkpt>
      <trkpt lat="44.1804" lon="7.18323">
        <ele>2345.582075</ele>
        <time>2010-09-30T13:33:19Z</time>
      </trkpt>
      <trkpt lat="44.18035" lon="7.18324">
        <ele>2345.26637</ele>
        <time>2010-09-30T13:33:22Z</time>
      </trkpt>
      <trkpt lat="44.18031" lon="7.18324">
        <ele>2344.940182</ele>
        <time>2010-09-30T13:33:25Z</time>
      </trkpt>
      <trkpt lat="44.18027" lon="7.18322">
        <ele>2344.638334</ele>
        <time>2010-09-30T13:33:28Z</time>
      </trkpt>
      <trkpt lat="44.18024" lon="7.1832">
        <ele>2344.368323</ele>
        <time>2010-09-30T13:33:30Z</time>
      </trkpt>
      <trkpt lat="44.1802" lon="7.18317">
        <ele>2344.085162</ele>
        <time>2010-09-30T13:33:33Z</time>
      </trkpt>
      <trkpt lat="44.18016" lon="7.18314">
        <ele>2343.751145</ele>
        <time>2010-09-30T13:33:36Z</time>
      </trkpt>
      <trkpt lat="44.18013" lon="7.18313">
        <ele>2343.387438</ele>
        <time>2010-09-30T13:33:38Z</time>
      </trkpt>
      <trkpt lat="44.18009" lon="7.18309">
        <ele>2343.02182</ele>
        <time>2010-09-30T13:33:41Z</time>
      </trkpt>
      <trkpt lat="44.18005" lon="7.18306">
        <ele>2342.641654</ele>
        <time>2010-09-30T13:33:44Z</time>
      </trkpt>
      <trkpt lat="44.18002" lon="7.18304">
        <ele>2342.251486</ele>
        <time>2010-09-30T13:33:47Z</time>
      </trkpt>
      <trkpt lat="44.17999" lon="7.18303">
        <ele>2341.874325</ele>
        <time>2010-09-30T13:33:50Z</time>
      </trkpt>
      <trkpt lat="44.17996" lon="7.18303">
        <ele>2341.485524</ele>
        <time>2010-09-30T13:33:53Z</time>
      </trkpt>
      <trkpt lat="44.17993" lon="7.18304">
        <ele>2341.056206</ele>
        <time>2010-09-30T13:33:56Z</time>
      </trkpt>
      <trkpt lat="44.17989" lon="7.18305">
        <ele>2340.6013</ele>
        <time>2010-09-30T13:34:00Z</time>
      </trkpt>
      <trkpt lat="44.17986" lon="7.18308">
        <ele>2340.151954</ele>
        <time>2010-09-30T13:34:03Z</time>
      </trkpt>
      <trkpt lat="44.17983" lon="7.18311">
        <ele>2339.735347</ele>
        <time>2010-09-30T13:34:06Z</time>
      </trkpt>
      <trkpt lat="44.1798" lon="7.18317">
        <ele>2339.352445</ele>
        <time>2010-09-30T13:34:09Z</time>
      </trkpt>
      <trkpt lat="44.17978" lon="7.1832">
        <ele>2338.996836</ele>
        <time>2010-09-30T13:34:11Z</time>
      </trkpt>
      <trkpt lat="44.17976" lon="7.18323">
        <ele>2338.678917</ele>
        <time>2010-09-30T13:34:14Z</time>
      </trkpt>
      <trkpt lat="44.17973" lon="7.18325">
        <ele>2338.388342</ele>
        <time>2010-09-30T13:34:17Z</time>
      </trkpt>
      <trkpt lat="44.17971" lon="7.18328">
        <ele>2338.102556</ele>
        <time>2010-09-30T13:34:20Z</time>
      </trkpt>
      <trkpt lat="44.17967" lon="7.18331">
        <ele>2337.823516</ele>
        <time>2010-09-30T13:34:23Z</time>
      </trkpt>
      <trkpt lat="44.17965" lon="7.18334">
        <ele>2337.563614</ele>
        <time>2010-09-30T13:34:26Z</time>
      </trkpt>
      <trkpt lat="44.17962" lon="7.18337">
        <ele>2337.343973</ele>
        <time>2010-09-30T13:34:29Z</time>
      </trkpt>
      <trkpt lat="44.17957" lon="7.1834">
        <ele>2337.178255</ele>
        <time>2010-09-30T13:34:32Z</time>
      </trkpt>
      <trkpt lat="44.17952" lon="7.18341">
        <ele>2337.045631</ele>
        <time>2010-09-30T13:34:35Z</time>
      </trkpt>
      <trkpt lat="44.17948" lon="7.18342">
        <ele>2336.921657</ele>
        <time>2010-09-30T13:34:38Z</time>
      </trkpt>
      <trkpt lat="44.17946" lon="7.18344">
        <ele>2336.797249</ele>
        <time>2010-09-30T13:34:41Z</time>
      </trkpt>
      <trkpt lat="44.17942" lon="7.18345">
        <ele>2336.673336</ele>
        <time>2010-09-30T13:34:44Z</time>
      </trkpt>
      <trkpt lat="44.17938" lon="7.18346">
        <ele>2336.554933</ele>
        <time>2010-09-30T13:34:47Z</time>
      </trkpt>
      <trkpt lat="44.17935" lon="7.18346">
        <ele>2336.446705</ele>
        <time>2010-09-30T13:34:50Z</time>
      </trkpt>
      <trkpt lat="44.17931" lon="7.18348">
        <ele>2336.353601</ele>
        <time>2010-09-30T13:34:53Z</time>
      </trkpt>
      <trkpt lat="44.17927" lon="7.1835">
        <ele>2336.281513</ele>
        <time>2010-09-30T13:34:56Z</time>
      </trkpt>
      <trkpt lat="44.17924" lon="7.18353">
        <ele>2336.229117</ele>
        <time>2010-09-30T13:34:59Z</time>
      </trkpt>
      <trkpt lat="44.17922" lon="7.18355">
        <ele>2336.176929</ele>
        <time>2010-09-30T13:35:03Z</time>
      </trkpt>
      <trkpt lat="44.1792" lon="7.18359">
        <ele>2336.103983</ele>
        <time>2010-09-30T13:35:07Z</time>
      </trkpt>
      <trkpt lat="44.17918" lon="7.18361">
        <ele>2336.025439</ele>
        <time>2010-09-30T13:35:11Z</time>
      </trkpt>
      <trkpt lat="44.17915" lon="7.18363">
        <ele>2335.975049</ele>
        <time>2010-09-30T13:35:14Z</time>
      </trkpt>
      <trkpt lat="44.17913" lon="7.18365">
        <ele>2335.959537</ele>
        <time>2010-09-30T13:35:18Z</time>
      </trkpt>
      <trkpt lat="44.17911" lon="7.18369">
        <ele>2335.965434</ele>
        <time>2010-09-30T13:35:22Z</time>
      </trkpt>
      <trkpt lat="44.17907" lon="7.18373">
        <ele>2335.99517</ele>
        <time>2010-09-30T13:35:25Z</time>
      </trkpt>
      <trkpt lat="44.17902" lon="7.18376">
        <ele>2336.068804</ele>
        <time>2010-09-30T13:35:28Z</time>
      </trkpt>
      <trkpt lat="44.17899" lon="7.18377">
        <ele>2336.19456</ele>
        <time>2010-09-30T13:35:30Z</time>
      </trkpt>
      <trkpt lat="44.17893" lon="7.18377">
        <ele>2336.351311</ele>
        <time>2010-09-30T13:35:33Z</time>
      </trkpt>
      <trkpt lat="44.17889" lon="7.18376">
        <ele>2336.502931</ele>
        <time>2010-09-30T13:35:36Z</time>
      </trkpt>
      <trkpt lat="44.17885" lon="7.18376">
        <ele>2336.617748</ele>
        <time>2010-09-30T13:35:39Z</time>
      </trkpt>
      <trkpt lat="44.17882" lon="7.18376">
        <ele>2336.687109</ele>
        <time>2010-09-30T13:35:42Z</time>
      </trkpt>
      <trkpt lat="44.17878" lon="7.18376">
        <ele>2336.731565</ele>
        <time>2010-09-30T13:35:45Z</time>
      </trkpt>
      <trkpt lat="44.17875" lon="7.18377">
        <ele>2336.780938</ele>
        <time>2010-09-30T13:35:48Z</time>
      </trkpt>
      <trkpt lat="44.17872" lon="7.18379">
        <ele>2336.854033</ele>
        <time>2010-09-30T13:35:51Z</time>
      </trkpt>
      <trkpt lat="44.17867" lon="7.18381">
        <ele>2336.959528</ele>
        <time>2010-09-30T13:36:01Z</time>
      </trkpt>
      <trkpt lat="44.17867" lon="7.18381">
        <ele>2337.074386</ele>
        <time>2010-09-30T13:36:06Z</time>
      </trkpt>
      <trkpt lat="44.1784" lon="7.18387">
        <ele>2337.174215</ele>
        <time>2010-09-30T13:36:37Z</time>
      </trkpt>
      <trkpt lat="44.17837" lon="7.18388">
        <ele>2337.257623</ele>
        <time>2010-09-30T13:36:40Z</time>
      </trkpt>
      <trkpt lat="44.17833" lon="7.18387">
        <ele>2337.318439</ele>
        <time>2010-09-30T13:36:43Z</time>
      </trkpt>
      <trkpt lat="44.1783" lon="7.18386">
        <ele>2337.550651</ele>
        <time>2010-09-30T13:36:46Z</time>
      </trkpt>
      <trkpt lat="44.17826" lon="7.18386">
        <ele>2338.138067</ele>
        <time>2010-09-30T13:36:49Z</time>
      </trkpt>
      <trkpt lat="44.17823" lon="7.18386">
        <ele>2338.873214</ele>
        <time>2010-09-30T13:36:51Z</time>
      </trkpt>
      <trkpt lat="44.17818" lon="7.18386">
        <ele>2339.498126</ele>
        <time>2010-09-30T13:36:54Z</time>
      </trkpt>
      <trkpt lat="44.17814" lon="7.18386">
        <ele>2340.034243</ele>
        <time>2010-09-30T13:36:57Z</time>
      </trkpt>
      <trkpt lat="44.1781" lon="7.18386">
        <ele>2340.532622</ele>
        <time>2010-09-30T13:37:00Z</time>
      </trkpt>
      <trkpt lat="44.17807" lon="7.18387">
        <ele>2341.014235</ele>
        <time>2010-09-30T13:37:02Z</time>
      </trkpt>
      <trkpt lat="44.17803" lon="7.18388">
        <ele>2341.517688</ele>
        <time>2010-09-30T13:37:05Z</time>
      </trkpt>
      <trkpt lat="44.178" lon="7.18388">
        <ele>2342.072211</ele>
        <time>2010-09-30T13:37:08Z</time>
      </trkpt>
      <trkpt lat="44.17796" lon="7.18386">
        <ele>2342.637255</ele>
        <time>2010-09-30T13:37:11Z</time>
      </trkpt>
      <trkpt lat="44.17794" lon="7.18389">
        <ele>2343.176815</ele>
        <time>2010-09-30T13:37:13Z</time>
      </trkpt>
      <trkpt lat="44.17791" lon="7.18391">
        <ele>2343.720408</ele>
        <time>2010-09-30T13:37:16Z</time>
      </trkpt>
      <trkpt lat="44.17788" lon="7.18392">
        <ele>2344.24977</ele>
        <time>2010-09-30T13:37:19Z</time>
      </trkpt>
      <trkpt lat="44.17785" lon="7.18392">
        <ele>2344.637358</ele>
        <time>2010-09-30T13:37:22Z</time>
      </trkpt>
      <trkpt lat="44.17785" lon="7.18392">
        <ele>2344.810099</ele>
        <time>2010-09-30T13:37:34Z</time>
      </trkpt>
      <trkpt lat="44.17785" lon="7.18392">
        <ele>2344.829563</ele>
        <time>2010-09-30T13:37:55Z</time>
      </trkpt>
      <trkpt lat="44.16853" lon="7.19246">
        <ele>2152.631199</ele>
        <time>2010-09-30T14:03:13Z</time>
      </trkpt>
      <trkpt lat="44.16856" lon="7.19252">
        <ele>2152.21906</ele>
        <time>2010-09-30T14:03:16Z</time>
      </trkpt>
      <trkpt lat="44.16859" lon="7.19256">
        <ele>2151.775576</ele>
        <time>2010-09-30T14:03:19Z</time>
      </trkpt>
      <trkpt lat="44.16861" lon="7.19259">
        <ele>2151.374826</ele>
        <time>2010-09-30T14:03:22Z</time>
      </trkpt>
      <trkpt lat="44.16862" lon="7.19262">
        <ele>2151.038269</ele>
        <time>2010-09-30T14:03:25Z</time>
      </trkpt>
      <trkpt lat="44.16865" lon="7.19266">
        <ele>2150.618344</ele>
        <time>2010-09-30T14:03:27Z</time>
      </trkpt>
      <trkpt lat="44.16869" lon="7.19271">
        <ele>2149.992825</ele>
        <time>2010-09-30T14:03:30Z</time>
      </trkpt>
      <trkpt lat="44.16872" lon="7.19275">
        <ele>2149.212985</ele>
        <time>2010-09-30T14:03:33Z</time>
      </trkpt>
      <trkpt lat="44.16874" lon="7.19278">
        <ele>2148.405332</ele>
        <time>2010-09-30T14:03:35Z</time>
      </trkpt>
      <trkpt lat="44.16877" lon="7.19282">
        <ele>2147.633539</ele>
        <time>2010-09-30T14:03:38Z</time>
      </trkpt>
      <trkpt lat="44.16879" lon="7.19286">
        <ele>2146.844084</ele>
        <time>2010-09-30T14:03:41Z</time>
      </trkpt>
      <trkpt lat="44.16881" lon="7.19289">
        <ele>2146.018877</ele>
        <time>2010-09-30T14:03:44Z</time>
      </trkpt>
      <trkpt lat="44.16883" lon="7.19292">
        <ele>2145.192449</ele>
        <time>2010-09-30T14:03:47Z</time>
      </trkpt>
      <trkpt lat="44.16886" lon="7.19294">
        <ele>2144.345403</ele>
        <time>2010-09-30T14:03:50Z</time>
      </trkpt>
      <trkpt lat="44.16888" lon="7.19297">
        <ele>2143.483718</ele>
        <time>2010-09-30T14:03:53Z</time>
      </trkpt>
      <trkpt lat="44.16891" lon="7.193">
        <ele>2142.676114</ele>
        <time>2010-09-30T14:03:56Z</time>
      </trkpt>
      <trkpt lat="44.16895" lon="7.19302">
        <ele>2141.970647</ele>
        <time>2010-09-30T14:03:59Z</time>
      </trkpt>
      <trkpt lat="44.16898" lon="7.19303">
        <ele>2141.380418</ele>
        <time>2010-09-30T14:04:01Z</time>
      </trkpt>
      <trkpt lat="44.16902" lon="7.19304">
        <ele>2140.894567</ele>
        <time>2010-09-30T14:04:04Z</time>
      </trkpt>
      <trkpt lat="44.16906" lon="7.19305">
        <ele>2140.476362</ele>
        <time>2010-09-30T14:04:07Z</time>
      </trkpt>
      <trkpt lat="44.1691" lon="7.19307">
        <ele>2140.068912</ele>
        <time>2010-09-30T14:04:10Z</time>
      </trkpt>
      <trkpt lat="44.16913" lon="7.1931">
        <ele>2139.618301</ele>
        <time>2010-09-30T14:04:13Z</time>
      </trkpt>
      <trkpt lat="44.16913" lon="7.1931">
        <ele>2139.121447</ele>
        <time>2010-09-30T14:04:15Z</time>
      </trkpt>
      <trkpt lat="44.16941" lon="7.19319">
        <ele>2138.641933</ele>
        <time>2010-09-30T14:04:37Z</time>
      </trkpt>
      <trkpt lat="44.16945" lon="7.19321">
        <ele>2138.239356</ele>
        <time>2010-09-30T14:04:40Z</time>
      </trkpt>
      <trkpt lat="44.16948" lon="7.19324">
        <ele>2137.857464</ele>
        <time>2010-09-30T14:04:43Z</time>
      </trkpt>
      <trkpt lat="44.16951" lon="7.19327">
        <ele>2137.38459</ele>
        <time>2010-09-30T14:04:46Z</time>
      </trkpt>
      <trkpt lat="44.16955" lon="7.19332">
        <ele>2136.873066</ele>
        <time>2010-09-30T14:04:49Z</time>
      </trkpt>
      <trkpt lat="44.16958" lon="7.19336">
        <ele>2136.502076</ele>
        <time>2010-09-30T14:04:51Z</time>
      </trkpt>
      <trkpt lat="44.16962" lon="7.19343">
        <ele>2136.325606</ele>
        <time>2010-09-30T14:04:54Z</time>
      </trkpt>
      <trkpt lat="44.16963" lon="7.19348">
        <ele>2136.262581</ele>
        <time>2010-09-30T14:04:56Z</time>
      </trkpt>
      <trkpt lat="44.16964" lon="7.19356">
        <ele>2136.236772</ele>
        <time>2010-09-30T14:04:59Z</time>
      </trkpt>
      <trkpt lat="44.16964" lon="7.19363">
        <ele>2136.211059</ele>
        <time>2010-09-30T14:05:02Z</time>
      </trkpt>
      <trkpt lat="44.16962" lon="7.19369">
        <ele>2136.171926</ele>
        <time>2010-09-30T14:05:05Z</time>
      </trkpt>
      <trkpt lat="44.16961" lon="7.19373">
        <ele>2136.109831</ele>
        <time>2010-09-30T14:05:07Z</time>
      </trkpt>
      <trkpt lat="44.1696" lon="7.19379">
        <ele>2136.017313</ele>
        <time>2010-09-30T14:05:10Z</time>
      </trkpt>
      <trkpt lat="44.16959" lon="7.19384">
        <ele>2135.897162</ele>
        <time>2010-09-30T14:05:13Z</time>
      </trkpt>
      <trkpt lat="44.16957" lon="7.19388">
        <ele>2135.765127</ele>
        <time>2010-09-30T14:05:16Z</time>
      </trkpt>
      <trkpt lat="44.16956" lon="7.19393">
        <ele>2135.632465</ele>
        <time>2010-09-30T14:05:19Z</time>
      </trkpt>
      <trkpt lat="44.16954" lon="7.19398">
        <ele>2135.496967</ele>
        <time>2010-09-30T14:05:22Z</time>
      </trkpt>
      <trkpt lat="44.16953" lon="7.19401">
        <ele>2135.354114</ele>
        <time>2010-09-30T14:05:24Z</time>
      </trkpt>
      <trkpt lat="44.16951" lon="7.19406">
        <ele>2135.205558</ele>
        <time>2010-09-30T14:05:27Z</time>
      </trkpt>
      <trkpt lat="44.16949" lon="7.19411">
        <ele>2135.053149</ele>
        <time>2010-09-30T14:05:30Z</time>
      </trkpt>
      <trkpt lat="44.16947" lon="7.19415">
        <ele>2134.905512</ele>
        <time>2010-09-30T14:05:33Z</time>
      </trkpt>
      <trkpt lat="44.16945" lon="7.1942">
        <ele>2134.768144</ele>
        <time>2010-09-30T14:05:36Z</time>
      </trkpt>
      <trkpt lat="44.16944" lon="7.19423">
        <ele>2134.629955</ele>
        <time>2010-09-30T14:05:38Z</time>
      </trkpt>
      <trkpt lat="44.16942" lon="7.19426">
        <ele>2134.478817</ele>
        <time>2010-09-30T14:05:40Z</time>
      </trkpt>
      <trkpt lat="44.16938" lon="7.19431">
        <ele>2134.319743</ele>
        <time>2010-09-30T14:05:43Z</time>
      </trkpt>
      <trkpt lat="44.16935" lon="7.19435">
        <ele>2134.171691</ele>
        <time>2010-09-30T14:05:45Z</time>
      </trkpt>
      <trkpt lat="44.16929" lon="7.19441">
        <ele>2134.050608</ele>
        <time>2010-09-30T14:05:48Z</time>
      </trkpt>
      <trkpt lat="44.16925" lon="7.19444">
        <ele>2133.946017</ele>
        <time>2010-09-30T14:05:50Z</time>
      </trkpt>
      <trkpt lat="44.1692" lon="7.19447">
        <ele>2133.835682</ele>
        <time>2010-09-30T14:05:53Z</time>
      </trkpt>
      <trkpt lat="44.16916" lon="7.19449">
        <ele>2133.70464</ele>
        <time>2010-09-30T14:05:56Z</time>
      </trkpt>
      <trkpt lat="44.16913" lon="7.19452">
        <ele>2133.552017</ele>
        <time>2010-09-30T14:05:59Z</time>
      </trkpt>
      <trkpt lat="44.16909" lon="7.19455">
        <ele>2133.387404</ele>
        <time>2010-09-30T14:06:02Z</time>
      </trkpt>
      <trkpt lat="44.16906" lon="7.19459">
        <ele>2133.218375</ele>
        <time>2010-09-30T14:06:05Z</time>
      </trkpt>
      <trkpt lat="44.16903" lon="7.19462">
        <ele>2133.050701</ele>
        <time>2010-09-30T14:06:08Z</time>
      </trkpt>
      <trkpt lat="44.16901" lon="7.19465">
        <ele>2132.892553</ele>
        <time>2010-09-30T14:06:10Z</time>
      </trkpt>
      <trkpt lat="44.16898" lon="7.19468">
        <ele>2132.73907</ele>
        <time>2010-09-30T14:06:13Z</time>
      </trkpt>
      <trkpt lat="44.16896" lon="7.19471">
        <ele>2132.581694</ele>
        <time>2010-09-30T14:06:15Z</time>
      </trkpt>
      <trkpt lat="44.16892" lon="7.19475">
        <ele>2132.430189</ele>
        <time>2010-09-30T14:06:18Z</time>
      </trkpt>
      <trkpt lat="44.1689" lon="7.19478">
        <ele>2132.298332</ele>
        <time>2010-09-30T14:06:20Z</time>
      </trkpt>
      <trkpt lat="44.16888" lon="7.19483">
        <ele>2132.187029</ele>
        <time>2010-09-30T14:06:23Z</time>
      </trkpt>
      <trkpt lat="44.16886" lon="7.19486">
        <ele>2132.086264</ele>
        <time>2010-09-30T14:06:25Z</time>
      </trkpt>
      <trkpt lat="44.16884" lon="7.19488">
        <ele>2131.986009</ele>
        <time>2010-09-30T14:06:27Z</time>
      </trkpt>
      <trkpt lat="44.16881" lon="7.19492">
        <ele>2131.878196</ele>
        <time>2010-09-30T14:06:30Z</time>
      </trkpt>
      <trkpt lat="44.16879" lon="7.19495">
        <ele>2131.762741</ele>
        <time>2010-09-30T14:06:32Z</time>
      </trkpt>
      <trkpt lat="44.16876" lon="7.19498">
        <ele>2131.65032</ele>
        <time>2010-09-30T14:06:34Z</time>
      </trkpt>
      <trkpt lat="44.16873" lon="7.19504">
        <ele>2131.548699</ele>
        <time>2010-09-30T14:06:37Z</time>
      </trkpt>
      <trkpt lat="44.16871" lon="7.19507">
        <ele>2131.454475</ele>
        <time>2010-09-30T14:06:39Z</time>
      </trkpt>
      <trkpt lat="44.16867" lon="7.19512">
        <ele>2131.36919</ele>
        <time>2010-09-30T14:06:42Z</time>
      </trkpt>
      <trkpt lat="44.16865" lon="7.19516">
        <ele>2131.289652</ele>
        <time>2010-09-30T14:06:44Z</time>
      </trkpt>
      <trkpt lat="44.16861" lon="7.19521">
        <ele>2131.208908</ele>
        <time>2010-09-30T14:06:47Z</time>
      </trkpt>
      <trkpt lat="44.16858" lon="7.19524">
        <ele>2131.12308</ele>
        <time>2010-09-30T14:06:49Z</time>
      </trkpt>
      <trkpt lat="44.16856" lon="7.19527">
        <ele>2131.027703</ele>
        <time>2010-09-30T14:06:51Z</time>
      </trkpt>
      <trkpt lat="44.16852" lon="7.1953">
        <ele>2130.916886</ele>
        <time>2010-09-30T14:06:54Z</time>
      </trkpt>
      <trkpt lat="44.1685" lon="7.19533">
        <ele>2130.792365</ele>
        <time>2010-09-30T14:06:56Z</time>
      </trkpt>
      <trkpt lat="44.16847" lon="7.19536">
        <ele>2130.666454</ele>
        <time>2010-09-30T14:06:59Z</time>
      </trkpt>
      <trkpt lat="44.16844" lon="7.1954">
        <ele>2130.544968</ele>
        <time>2010-09-30T14:07:02Z</time>
      </trkpt>
      <trkpt lat="44.16841" lon="7.19543">
        <ele>2130.42532</ele>
        <time>2010-09-30T14:07:04Z</time>
      </trkpt>
      <trkpt lat="44.16838" lon="7.19547">
        <ele>2130.308429</ele>
        <time>2010-09-30T14:07:07Z</time>
      </trkpt>
      <trkpt lat="44.16835" lon="7.1955">
        <ele>2130.188672</ele>
        <time>2010-09-30T14:07:10Z</time>
      </trkpt>
      <trkpt lat="44.16832" lon="7.19553">
        <ele>2130.064894</ele>
        <time>2010-09-30T14:07:13Z</time>
      </trkpt>
      <trkpt lat="44.16829" lon="7.19556">
        <ele>2129.944546</ele>
        <time>2010-09-30T14:07:16Z</time>
      </trkpt>
      <trkpt lat="44.16826" lon="7.19558">
        <ele>2129.824754</ele>
        <time>2010-09-30T14:07:19Z</time>
      </trkpt>
      <trkpt lat="44.16823" lon="7.1956">
        <ele>2129.701204</ele>
        <time>2010-09-30T14:07:22Z</time>
      </trkpt>
      <trkpt lat="44.16819" lon="7.19561">
        <ele>2129.577407</ele>
        <time>2010-09-30T14:07:25Z</time>
      </trkpt>
      <trkpt lat="44.16815" lon="7.19562">
        <ele>2129.453107</ele>
        <time>2010-09-30T14:07:28Z</time>
      </trkpt>
      <trkpt lat="44.16812" lon="7.19562">
        <ele>2129.324626</ele>
        <time>2010-09-30T14:07:31Z</time>
      </trkpt>
      <trkpt lat="44.16808" lon="7.19562">
        <ele>2129.192818</ele>
        <time>2010-09-30T14:07:34Z</time>
      </trkpt>
      <trkpt lat="44.16803" lon="7.19563">
        <ele>2129.062838</ele>
        <time>2010-09-30T14:07:37Z</time>
      </trkpt>
      <trkpt lat="44.168" lon="7.19563">
        <ele>2128.937558</ele>
        <time>2010-09-30T14:07:39Z</time>
      </trkpt>
      <trkpt lat="44.16797" lon="7.19564">
        <ele>2128.816876</ele>
        <time>2010-09-30T14:07:41Z</time>
      </trkpt>
      <trkpt lat="44.16794" lon="7.19566">
        <ele>2128.700767</ele>
        <time>2010-09-30T14:07:44Z</time>
      </trkpt>
      <trkpt lat="44.1679" lon="7.19569">
        <ele>2128.594484</ele>
        <time>2010-09-30T14:07:47Z</time>
      </trkpt>
      <trkpt lat="44.16786" lon="7.1957">
        <ele>2128.503453</ele>
        <time>2010-09-30T14:07:50Z</time>
      </trkpt>
      <trkpt lat="44.16783" lon="7.1957">
        <ele>2128.413368</ele>
        <time>2010-09-30T14:07:52Z</time>
      </trkpt>
      <trkpt lat="44.16779" lon="7.1957">
        <ele>2128.295045</ele>
        <time>2010-09-30T14:07:55Z</time>
      </trkpt>
      <trkpt lat="44.16775" lon="7.1957">
        <ele>2128.140105</ele>
        <time>2010-09-30T14:07:57Z</time>
      </trkpt>
      <trkpt lat="44.16772" lon="7.19571">
        <ele>2127.973764</ele>
        <time>2010-09-30T14:07:59Z</time>
      </trkpt>
      <trkpt lat="44.16769" lon="7.19572">
        <ele>2127.819187</ele>
        <time>2010-09-30T14:08:01Z</time>
      </trkpt>
      <trkpt lat="44.16764" lon="7.19573">
        <ele>2127.679674</ele>
        <time>2010-09-30T14:08:04Z</time>
      </trkpt>
      <trkpt lat="44.1676" lon="7.19573">
        <ele>2127.553818</ele>
        <time>2010-09-30T14:08:07Z</time>
      </trkpt>
      <trkpt lat="44.16757" lon="7.19573">
        <ele>2127.436598</ele>
        <time>2010-09-30T14:08:09Z</time>
      </trkpt>
      <trkpt lat="44.16752" lon="7.19571">
        <ele>2127.308119</ele>
        <time>2010-09-30T14:08:12Z</time>
      </trkpt>
      <trkpt lat="44.16748" lon="7.19568">
        <ele>2127.151239</ele>
        <time>2010-09-30T14:08:15Z</time>
      </trkpt>
      <trkpt lat="44.16745" lon="7.19567">
        <ele>2126.978898</ele>
        <time>2010-09-30T14:08:17Z</time>
      </trkpt>
      <trkpt lat="44.16742" lon="7.19567">
        <ele>2126.814109</ele>
        <time>2010-09-30T14:08:19Z</time>
      </trkpt>
      <trkpt lat="44.16736" lon="7.19566">
        <ele>2126.653469</ele>
        <time>2010-09-30T14:08:22Z</time>
      </trkpt>
      <trkpt lat="44.16731" lon="7.19564">
        <ele>2126.492261</ele>
        <time>2010-09-30T14:08:25Z</time>
      </trkpt>
      <trkpt lat="44.16727" lon="7.19562">
        <ele>2126.342609</ele>
        <time>2010-09-30T14:08:28Z</time>
      </trkpt>
      <trkpt lat="44.16727" lon="7.19562">
        <ele>2126.190987</ele>
        <time>2010-09-30T14:08:28Z</time>
      </trkpt>
      <trkpt lat="44.16724" lon="7.19561">
        <ele>2126.002016</ele>
        <time>2010-09-30T14:08:30Z</time>
      </trkpt>
      <trkpt lat="44.16719" lon="7.1956">
        <ele>2125.767749</ele>
        <time>2010-09-30T14:08:33Z</time>
      </trkpt>
      <trkpt lat="44.16716" lon="7.19559">
        <ele>2125.516205</ele>
        <time>2010-09-30T14:08:35Z</time>
      </trkpt>
      <trkpt lat="44.16712" lon="7.19558">
        <ele>2125.247307</ele>
        <time>2010-09-30T14:08:38Z</time>
      </trkpt>
      <trkpt lat="44.1671" lon="7.19556">
        <ele>2124.935211</ele>
        <time>2010-09-30T14:08:43Z</time>
      </trkpt>
      <trkpt lat="44.16707" lon="7.19557">
        <ele>2124.558138</ele>
        <time>2010-09-30T14:08:46Z</time>
      </trkpt>
      <trkpt lat="44.16705" lon="7.19559">
        <ele>2124.172734</ele>
        <time>2010-09-30T14:08:48Z</time>
      </trkpt>
      <trkpt lat="44.16701" lon="7.19563">
        <ele>2123.7091</ele>
        <time>2010-09-30T14:08:51Z</time>
      </trkpt>
      <trkpt lat="44.16697" lon="7.19565">
        <ele>2122.97987</ele>
        <time>2010-09-30T14:08:54Z</time>
      </trkpt>
      <trkpt lat="44.16694" lon="7.19564">
        <ele>2122.066483</ele>
        <time>2010-09-30T14:08:56Z</time>
      </trkpt>
      <trkpt lat="44.16691" lon="7.19562">
        <ele>2121.211592</ele>
        <time>2010-09-30T14:08:59Z</time>
      </trkpt>
      <trkpt lat="44.1669" lon="7.19559">
        <ele>2120.435233</ele>
        <time>2010-09-30T14:09:02Z</time>
      </trkpt>
      <trkpt lat="44.1669" lon="7.19554">
        <ele>2119.715469</ele>
        <time>2010-09-30T14:09:05Z</time>
      </trkpt>
      <trkpt lat="44.16692" lon="7.1955">
        <ele>2119.066787</ele>
        <time>2010-09-30T14:09:08Z</time>
      </trkpt>
      <trkpt lat="44.16694" lon="7.19546">
        <ele>2118.459086</ele>
        <time>2010-09-30T14:09:11Z</time>
      </trkpt>
      <trkpt lat="44.16698" lon="7.19544">
        <ele>2117.874733</ele>
        <time>2010-09-30T14:09:13Z</time>
      </trkpt>
      <trkpt lat="44.16703" lon="7.1954">
        <ele>2117.345597</ele>
        <time>2010-09-30T14:09:16Z</time>
      </trkpt>
      <trkpt lat="44.16708" lon="7.19538">
        <ele>2116.893916</ele>
        <time>2010-09-30T14:09:19Z</time>
      </trkpt>
      <trkpt lat="44.16712" lon="7.19536">
        <ele>2116.527019</ele>
        <time>2010-09-30T14:09:21Z</time>
      </trkpt>
      <trkpt lat="44.16717" lon="7.1953">
        <ele>2116.229725</ele>
        <time>2010-09-30T14:09:24Z</time>
      </trkpt>
      <trkpt lat="44.16718" lon="7.19526">
        <ele>2115.96104</ele>
        <time>2010-09-30T14:09:26Z</time>
      </trkpt>
      <trkpt lat="44.16716" lon="7.19519">
        <ele>2115.687645</ele>
        <time>2010-09-30T14:09:37Z</time>
      </trkpt>
      <trkpt lat="44.16716" lon="7.19515">
        <ele>2115.325857</ele>
        <time>2010-09-30T14:09:41Z</time>
      </trkpt>
      <trkpt lat="44.16713" lon="7.19515">
        <ele>2114.786275</ele>
        <time>2010-09-30T14:09:49Z</time>
      </trkpt>
      <trkpt lat="44.16711" lon="7.19512">
        <ele>2114.096995</ele>
        <time>2010-09-30T14:09:52Z</time>
      </trkpt>
      <trkpt lat="44.16708" lon="7.19509">
        <ele>2113.390235</ele>
        <time>2010-09-30T14:09:54Z</time>
      </trkpt>
      <trkpt lat="44.16707" lon="7.19503">
        <ele>2112.742703</ele>
        <time>2010-09-30T14:09:56Z</time>
      </trkpt>
      <trkpt lat="44.16705" lon="7.19497">
        <ele>2112.184783</ele>
        <time>2010-09-30T14:09:58Z</time>
      </trkpt>
      <trkpt lat="44.16703" lon="7.19489">
        <ele>2111.780218</ele>
        <time>2010-09-30T14:10:01Z</time>
      </trkpt>
      <trkpt lat="44.16702" lon="7.19484">
        <ele>2111.555014</ele>
        <time>2010-09-30T14:10:03Z</time>
      </trkpt>
      <trkpt lat="44.167" lon="7.1948">
        <ele>2111.414759</ele>
        <time>2010-09-30T14:10:06Z</time>
      </trkpt>
      <trkpt lat="44.16697" lon="7.19477">
        <ele>2111.257291</ele>
        <time>2010-09-30T14:10:09Z</time>
      </trkpt>
      <trkpt lat="44.16695" lon="7.19473">
        <ele>2111.046308</ele>
        <time>2010-09-30T14:10:12Z</time>
      </trkpt>
      <trkpt lat="44.16695" lon="7.19469">
        <ele>2110.798853</ele>
        <time>2010-09-30T14:10:15Z</time>
      </trkpt>
      <trkpt lat="44.16695" lon="7.19464">
        <ele>2110.52795</ele>
        <time>2010-09-30T14:10:18Z</time>
      </trkpt>
      <trkpt lat="44.16696" lon="7.1946">
        <ele>2110.2326</ele>
        <time>2010-09-30T14:10:21Z</time>
      </trkpt>
      <trkpt lat="44.16697" lon="7.19456">
        <ele>2109.921749</ele>
        <time>2010-09-30T14:10:24Z</time>
      </trkpt>
      <trkpt lat="44.167" lon="7.1945">
        <ele>2109.610427</ele>
        <time>2010-09-30T14:10:30Z</time>
      </trkpt>
      <trkpt lat="44.16701" lon="7.19446">
        <ele>2109.314338</ele>
        <time>2010-09-30T14:10:33Z</time>
      </trkpt>
      <trkpt lat="44.16701" lon="7.19442">
        <ele>2109.044429</ele>
        <time>2010-09-30T14:10:36Z</time>
      </trkpt>
      <trkpt lat="44.16699" lon="7.19439">
        <ele>2108.808861</ele>
        <time>2010-09-30T14:10:42Z</time>
      </trkpt>
      <trkpt lat="44.16695" lon="7.1944">
        <ele>2108.614157</ele>
        <time>2010-09-30T14:10:46Z</time>
      </trkpt>
      <trkpt lat="44.16667" lon="7.19439">
        <ele>2108.459211</ele>
        <time>2010-09-30T14:11:01Z</time>
      </trkpt>
      <trkpt lat="44.16663" lon="7.19437">
        <ele>2108.298017</ele>
        <time>2010-09-30T14:11:03Z</time>
      </trkpt>
      <trkpt lat="44.1666" lon="7.19435">
        <ele>2108.064619</ele>
        <time>2010-09-30T14:11:05Z</time>
      </trkpt>
      <trkpt lat="44.16658" lon="7.19434">
        <ele>2107.608483</ele>
        <time>2010-09-30T14:11:07Z</time>
      </trkpt>
      <trkpt lat="44.16654" lon="7.19432">
        <ele>2106.914479</ele>
        <time>2010-09-30T14:11:10Z</time>
      </trkpt>
      <trkpt lat="44.1665" lon="7.19431">
        <ele>2106.280782</ele>
        <time>2010-09-30T14:11:13Z</time>
      </trkpt>
      <trkpt lat="44.16647" lon="7.19429">
        <ele>2105.935243</ele>
        <time>2010-09-30T14:11:15Z</time>
      </trkpt>
      <trkpt lat="44.16643" lon="7.19427">
        <ele>2105.786716</ele>
        <time>2010-09-30T14:11:18Z</time>
      </trkpt>
      <trkpt lat="44.1664" lon="7.19425">
        <ele>2105.697822</ele>
        <time>2010-09-30T14:11:20Z</time>
      </trkpt>
      <trkpt lat="44.16636" lon="7.19421">
        <ele>2105.604404</ele>
        <time>2010-09-30T14:11:23Z</time>
      </trkpt>
      <trkpt lat="44.16631" lon="7.19416">
        <ele>2105.50242</ele>
        <time>2010-09-30T14:11:26Z</time>
      </trkpt>
      <trkpt lat="44.16628" lon="7.19413">
        <ele>2105.396924</ele>
        <time>2010-09-30T14:11:28Z</time>
      </trkpt>
      <trkpt lat="44.16625" lon="7.19409">
        <ele>2105.282429</ele>
        <time>2010-09-30T14:11:31Z</time>
      </trkpt>
      <trkpt lat="44.16622" lon="7.19406">
        <ele>2105.149971</ele>
        <time>2010-09-30T14:11:33Z</time>
      </trkpt>
      <trkpt lat="44.16619" lon="7.19402">
        <ele>2105.01006</ele>
        <time>2010-09-30T14:11:36Z</time>
      </trkpt>
      <trkpt lat="44.16617" lon="7.19399">
        <ele>2104.883515</ele>
        <time>2010-09-30T14:11:40Z</time>
      </trkpt>
      <trkpt lat="44.16614" lon="7.19397">
        <ele>2104.775736</ele>
        <time>2010-09-30T14:11:45Z</time>
      </trkpt>
      <trkpt lat="44.16611" lon="7.19396">
        <ele>2104.680368</ele>
        <time>2010-09-30T14:11:48Z</time>
      </trkpt>
      <trkpt lat="44.16607" lon="7.19395">
        <ele>2104.538671</ele>
        <time>2010-09-30T14:11:51Z</time>
      </trkpt>
      <trkpt lat="44.16604" lon="7.19394">
        <ele>2104.238825</ele>
        <time>2010-09-30T14:11:54Z</time>
      </trkpt>
      <trkpt lat="44.16602" lon="7.19392">
        <ele>2103.773184</ele>
        <time>2010-09-30T14:11:59Z</time>
      </trkpt>
      <trkpt lat="44.16599" lon="7.1939">
        <ele>2103.26396</ele>
        <time>2010-09-30T14:12:02Z</time>
      </trkpt>
      <trkpt lat="44.16597" lon="7.19394">
        <ele>2102.790823</ele>
        <time>2010-09-30T14:12:06Z</time>
      </trkpt>
      <trkpt lat="44.16593" lon="7.19396">
        <ele>2102.230328</ele>
        <time>2010-09-30T14:12:09Z</time>
      </trkpt>
      <trkpt lat="44.16588" lon="7.19397">
        <ele>2101.440409</ele>
        <time>2010-09-30T14:12:12Z</time>
      </trkpt>
      <trkpt lat="44.16583" lon="7.19397">
        <ele>2100.385665</ele>
        <time>2010-09-30T14:12:15Z</time>
      </trkpt>
      <trkpt lat="44.16579" lon="7.19399">
        <ele>2099.106819</ele>
        <time>2010-09-30T14:12:18Z</time>
      </trkpt>
      <trkpt lat="44.16575" lon="7.19402">
        <ele>2097.743723</ele>
        <time>2010-09-30T14:12:21Z</time>
      </trkpt>
      <trkpt lat="44.1657" lon="7.19404">
        <ele>2096.47238</ele>
        <time>2010-09-30T14:12:24Z</time>
      </trkpt>
      <trkpt lat="44.16567" lon="7.19406">
        <ele>2095.334801</ele>
        <time>2010-09-30T14:12:26Z</time>
      </trkpt>
      <trkpt lat="44.16562" lon="7.19408">
        <ele>2094.309563</ele>
        <time>2010-09-30T14:12:29Z</time>
      </trkpt>
      <trkpt lat="44.16559" lon="7.19409">
        <ele>2093.370783</ele>
        <time>2010-09-30T14:12:31Z</time>
      </trkpt>
      <trkpt lat="44.16553" lon="7.19412">
        <ele>2092.546029</ele>
        <time>2010-09-30T14:12:34Z</time>
      </trkpt>
      <trkpt lat="44.16547" lon="7.19414">
        <ele>2091.870479</ele>
        <time>2010-09-30T14:12:37Z</time>
      </trkpt>
      <trkpt lat="44.16543" lon="7.19414">
        <ele>2091.337466</ele>
        <time>2010-09-30T14:12:39Z</time>
      </trkpt>
      <trkpt lat="44.16539" lon="7.19415">
        <ele>2090.911361</ele>
        <time>2010-09-30T14:12:41Z</time>
      </trkpt>
      <trkpt lat="44.16534" lon="7.19416">
        <ele>2090.551415</ele>
        <time>2010-09-30T14:12:44Z</time>
      </trkpt>
      <trkpt lat="44.16529" lon="7.19417">
        <ele>2090.244404</ele>
        <time>2010-09-30T14:12:47Z</time>
      </trkpt>
      <trkpt lat="44.16525" lon="7.19418">
        <ele>2090.012541</ele>
        <time>2010-09-30T14:12:49Z</time>
      </trkpt>
      <trkpt lat="44.16522" lon="7.19419">
        <ele>2089.846659</ele>
        <time>2010-09-30T14:12:51Z</time>
      </trkpt>
      <trkpt lat="44.16517" lon="7.19421">
        <ele>2089.715955</ele>
        <time>2010-09-30T14:12:54Z</time>
      </trkpt>
      <trkpt lat="44.16512" lon="7.19423">
        <ele>2089.611076</ele>
        <time>2010-09-30T14:12:57Z</time>
      </trkpt>
      <trkpt lat="44.16508" lon="7.19424">
        <ele>2089.539114</ele>
        <time>2010-09-30T14:12:59Z</time>
      </trkpt>
      <trkpt lat="44.16503" lon="7.19424">
        <ele>2089.492912</ele>
        <time>2010-09-30T14:13:02Z</time>
      </trkpt>
      <trkpt lat="44.16498" lon="7.19423">
        <ele>2089.451672</ele>
        <time>2010-09-30T14:13:05Z</time>
      </trkpt>
      <trkpt lat="44.16495" lon="7.19422">
        <ele>2089.403194</ele>
        <time>2010-09-30T14:13:07Z</time>
      </trkpt>
      <trkpt lat="44.16489" lon="7.1942">
        <ele>2089.345555</ele>
        <time>2010-09-30T14:13:10Z</time>
      </trkpt>
      <trkpt lat="44.16484" lon="7.1942">
        <ele>2089.270388</ele>
        <time>2010-09-30T14:13:12Z</time>
      </trkpt>
      <trkpt lat="44.16477" lon="7.19422">
        <ele>2089.170895</ele>
        <time>2010-09-30T14:13:15Z</time>
      </trkpt>
      <trkpt lat="44.1647" lon="7.19426">
        <ele>2089.049354</ele>
        <time>2010-09-30T14:13:18Z</time>
      </trkpt>
      <trkpt lat="44.16465" lon="7.19428">
        <ele>2088.919039</ele>
        <time>2010-09-30T14:13:21Z</time>
      </trkpt>
      <trkpt lat="44.16462" lon="7.1943">
        <ele>2088.798368</ele>
        <time>2010-09-30T14:13:23Z</time>
      </trkpt>
      <trkpt lat="44.16458" lon="7.19433">
        <ele>2088.693315</ele>
        <time>2010-09-30T14:13:26Z</time>
      </trkpt>
      <trkpt lat="44.16454" lon="7.19435">
        <ele>2088.597518</ele>
        <time>2010-09-30T14:13:28Z</time>
      </trkpt>
      <trkpt lat="44.16449" lon="7.19438">
        <ele>2088.513295</ele>
        <time>2010-09-30T14:13:31Z</time>
      </trkpt>
      <trkpt lat="44.16446" lon="7.19439">
        <ele>2088.441263</ele>
        <time>2010-09-30T14:13:34Z</time>
      </trkpt>
      <trkpt lat="44.16443" lon="7.1944">
        <ele>2088.377697</ele>
        <time>2010-09-30T14:13:36Z</time>
      </trkpt>
      <trkpt lat="44.16437" lon="7.19443">
        <ele>2088.319163</ele>
        <time>2010-09-30T14:13:39Z</time>
      </trkpt>
      <trkpt lat="44.16432" lon="7.19446">
        <ele>2088.259729</ele>
        <time>2010-09-30T14:13:42Z</time>
      </trkpt>
      <trkpt lat="44.16427" lon="7.19447">
        <ele>2088.195633</ele>
        <time>2010-09-30T14:13:45Z</time>
      </trkpt>
      <trkpt lat="44.16423" lon="7.19448">
        <ele>2088.114034</ele>
        <time>2010-09-30T14:13:47Z</time>
      </trkpt>
      <trkpt lat="44.16419" lon="7.19448">
        <ele>2087.986525</ele>
        <time>2010-09-30T14:13:50Z</time>
      </trkpt>
      <trkpt lat="44.16416" lon="7.19448">
        <ele>2087.80648</ele>
        <time>2010-09-30T14:13:52Z</time>
      </trkpt>
      <trkpt lat="44.16413" lon="7.19448">
        <ele>2087.607939</ele>
        <time>2010-09-30T14:13:54Z</time>
      </trkpt>
      <trkpt lat="44.16408" lon="7.1945">
        <ele>2087.423112</ele>
        <time>2010-09-30T14:13:57Z</time>
      </trkpt>
      <trkpt lat="44.16402" lon="7.19453">
        <ele>2087.259689</ele>
        <time>2010-09-30T14:14:00Z</time>
      </trkpt>
      <trkpt lat="44.16397" lon="7.19456">
        <ele>2087.117696</ele>
        <time>2010-09-30T14:14:03Z</time>
      </trkpt>
      <trkpt lat="44.16392" lon="7.19457">
        <ele>2086.991679</ele>
        <time>2010-09-30T14:14:06Z</time>
      </trkpt>
      <trkpt lat="44.16387" lon="7.19457">
        <ele>2086.868033</ele>
        <time>2010-09-30T14:14:09Z</time>
      </trkpt>
      <trkpt lat="44.16383" lon="7.19457">
        <ele>2086.740233</ele>
        <time>2010-09-30T14:14:12Z</time>
      </trkpt>
      <trkpt lat="44.1638" lon="7.19458">
        <ele>2086.589004</ele>
        <time>2010-09-30T14:14:14Z</time>
      </trkpt>
      <trkpt lat="44.16378" lon="7.19459">
        <ele>2086.362863</ele>
        <time>2010-09-30T14:14:16Z</time>
      </trkpt>
      <trkpt lat="44.16375" lon="7.1946">
        <ele>2086.025441</ele>
        <time>2010-09-30T14:14:18Z</time>
      </trkpt>
      <trkpt lat="44.16371" lon="7.19461">
        <ele>2085.621522</ele>
        <time>2010-09-30T14:14:21Z</time>
      </trkpt>
      <trkpt lat="44.16367" lon="7.19463">
        <ele>2085.239312</ele>
        <time>2010-09-30T14:14:24Z</time>
      </trkpt>
      <trkpt lat="44.16363" lon="7.19465">
        <ele>2084.918908</ele>
        <time>2010-09-30T14:14:27Z</time>
      </trkpt>
      <trkpt lat="44.16359" lon="7.19467">
        <ele>2084.624132</ele>
        <time>2010-09-30T14:14:30Z</time>
      </trkpt>
      <trkpt lat="44.16356" lon="7.19468">
        <ele>2084.293672</ele>
        <time>2010-09-30T14:14:32Z</time>
      </trkpt>
      <trkpt lat="44.16353" lon="7.19469">
        <ele>2083.895765</ele>
        <time>2010-09-30T14:14:34Z</time>
      </trkpt>
      <trkpt lat="44.1635" lon="7.1947">
        <ele>2083.436051</ele>
        <time>2010-09-30T14:14:37Z</time>
      </trkpt>
      <trkpt lat="44.16347" lon="7.1947">
        <ele>2082.955208</ele>
        <time>2010-09-30T14:14:40Z</time>
      </trkpt>
      <trkpt lat="44.16343" lon="7.1947">
        <ele>2082.505291</ele>
        <time>2010-09-30T14:14:43Z</time>
      </trkpt>
      <trkpt lat="44.1634" lon="7.1947">
        <ele>2082.063483</ele>
        <time>2010-09-30T14:14:46Z</time>
      </trkpt>
      <trkpt lat="44.16337" lon="7.19469">
        <ele>2081.556474</ele>
        <time>2010-09-30T14:14:49Z</time>
      </trkpt>
      <trkpt lat="44.16334" lon="7.19468">
        <ele>2080.973928</ele>
        <time>2010-09-30T14:14:51Z</time>
      </trkpt>
      <trkpt lat="44.1633" lon="7.19466">
        <ele>2080.364991</ele>
        <time>2010-09-30T14:14:54Z</time>
      </trkpt>
      <trkpt lat="44.16325" lon="7.19462">
        <ele>2079.774713</ele>
        <time>2010-09-30T14:14:57Z</time>
      </trkpt>
      <trkpt lat="44.16322" lon="7.1946">
        <ele>2079.252992</ele>
        <time>2010-09-30T14:14:59Z</time>
      </trkpt>
      <trkpt lat="44.16317" lon="7.1946">
        <ele>2078.818078</ele>
        <time>2010-09-30T14:15:02Z</time>
      </trkpt>
      <trkpt lat="44.16312" lon="7.19458">
        <ele>2078.428368</ele>
        <time>2010-09-30T14:15:05Z</time>
      </trkpt>
      <trkpt lat="44.16308" lon="7.19456">
        <ele>2078.065247</ele>
        <time>2010-09-30T14:15:08Z</time>
      </trkpt>
      <trkpt lat="44.16305" lon="7.19454">
        <ele>2077.742562</ele>
        <time>2010-09-30T14:15:10Z</time>
      </trkpt>
      <trkpt lat="44.16301" lon="7.19452">
        <ele>2077.443222</ele>
        <time>2010-09-30T14:15:13Z</time>
      </trkpt>
      <trkpt lat="44.16297" lon="7.19449">
        <ele>2077.153756</ele>
        <time>2010-09-30T14:15:16Z</time>
      </trkpt>
      <trkpt lat="44.16294" lon="7.19446">
        <ele>2076.899966</ele>
        <time>2010-09-30T14:15:19Z</time>
      </trkpt>
      <trkpt lat="44.16292" lon="7.19444">
        <ele>2076.701949</ele>
        <time>2010-09-30T14:15:21Z</time>
      </trkpt>
      <trkpt lat="44.16288" lon="7.19441">
        <ele>2076.548832</ele>
        <time>2010-09-30T14:15:24Z</time>
      </trkpt>
      <trkpt lat="44.16286" lon="7.19439">
        <ele>2076.425748</ele>
        <time>2010-09-30T14:15:26Z</time>
      </trkpt>
      <trkpt lat="44.16282" lon="7.19436">
        <ele>2076.335247</ele>
        <time>2010-09-30T14:15:29Z</time>
      </trkpt>
      <trkpt lat="44.16278" lon="7.19433">
        <ele>2076.280504</ele>
        <time>2010-09-30T14:15:32Z</time>
      </trkpt>
      <trkpt lat="44.16275" lon="7.1943">
        <ele>2076.25641</ele>
        <time>2010-09-30T14:15:35Z</time>
      </trkpt>
      <trkpt lat="44.16273" lon="7.19428">
        <ele>2076.251899</ele>
        <time>2010-09-30T14:15:37Z</time>
      </trkpt>
      <trkpt lat="44.1627" lon="7.19426">
        <ele>2076.255373</ele>
        <time>2010-09-30T14:15:39Z</time>
      </trkpt>
      <trkpt lat="44.16268" lon="7.19424">
        <ele>2076.265207</ele>
        <time>2010-09-30T14:15:41Z</time>
      </trkpt>
      <trkpt lat="44.16265" lon="7.19419">
        <ele>2076.289325</ele>
        <time>2010-09-30T14:15:44Z</time>
      </trkpt>
      <trkpt lat="44.16264" lon="7.19414">
        <ele>2076.331602</ele>
        <time>2010-09-30T14:15:46Z</time>
      </trkpt>
      <trkpt lat="44.16262" lon="7.19407">
        <ele>2076.379108</ele>
        <time>2010-09-30T14:15:49Z</time>
      </trkpt>
      <trkpt lat="44.16261" lon="7.19404">
        <ele>2076.411355</ele>
        <time>2010-09-30T14:15:51Z</time>
      </trkpt>
      <trkpt lat="44.16258" lon="7.19399">
        <ele>2076.422067</ele>
        <time>2010-09-30T14:15:54Z</time>
      </trkpt>
      <trkpt lat="44.16256" lon="7.19396">
        <ele>2076.405046</ele>
        <time>2010-09-30T14:15:56Z</time>
      </trkpt>
      <trkpt lat="44.16254" lon="7.19392">
        <ele>2076.344139</ele>
        <time>2010-09-30T14:15:59Z</time>
      </trkpt>
      <trkpt lat="44.16252" lon="7.19389">
        <ele>2076.241597</ele>
        <time>2010-09-30T14:16:01Z</time>
      </trkpt>
      <trkpt lat="44.1625" lon="7.19384">
        <ele>2076.126864</ele>
        <time>2010-09-30T14:16:04Z</time>
      </trkpt>
      <trkpt lat="44.16246" lon="7.19378">
        <ele>2076.029062</ele>
        <time>2010-09-30T14:16:07Z</time>
      </trkpt>
      <trkpt lat="44.16243" lon="7.19375">
        <ele>2075.961241</ele>
        <time>2010-09-30T14:16:10Z</time>
      </trkpt>
      <trkpt lat="44.1624" lon="7.19371">
        <ele>2075.918269</ele>
        <time>2010-09-30T14:16:13Z</time>
      </trkpt>
      <trkpt lat="44.16237" lon="7.19369">
        <ele>2075.881023</ele>
        <time>2010-09-30T14:16:15Z</time>
      </trkpt>
      <trkpt lat="44.16234" lon="7.19366">
        <ele>2075.831662</ele>
        <time>2010-09-30T14:16:18Z</time>
      </trkpt>
      <trkpt lat="44.1623" lon="7.19364">
        <ele>2075.770146</ele>
        <time>2010-09-30T14:16:21Z</time>
      </trkpt>
      <trkpt lat="44.16226" lon="7.19362">
        <ele>2075.705909</ele>
        <time>2010-09-30T14:16:24Z</time>
      </trkpt>
      <trkpt lat="44.16221" lon="7.19361">
        <ele>2075.643055</ele>
        <time>2010-09-30T14:16:27Z</time>
      </trkpt>
      <trkpt lat="44.16218" lon="7.1936">
        <ele>2075.565257</ele>
        <time>2010-09-30T14:16:29Z</time>
      </trkpt>
      <trkpt lat="44.16214" lon="7.19359">
        <ele>2075.456827</ele>
        <time>2010-09-30T14:16:31Z</time>
      </trkpt>
      <trkpt lat="44.16209" lon="7.19359">
        <ele>2075.334361</ele>
        <time>2010-09-30T14:16:34Z</time>
      </trkpt>
      <trkpt lat="44.16206" lon="7.19359">
        <ele>2075.221489</ele>
        <time>2010-09-30T14:16:36Z</time>
      </trkpt>
      <trkpt lat="44.16203" lon="7.19358">
        <ele>2075.10908</ele>
        <time>2010-09-30T14:16:38Z</time>
      </trkpt>
      <trkpt lat="44.16198" lon="7.1936">
        <ele>2074.953477</ele>
        <time>2010-09-30T14:16:41Z</time>
      </trkpt>
      <trkpt lat="44.16194" lon="7.19363">
        <ele>2074.718594</ele>
        <time>2010-09-30T14:16:44Z</time>
      </trkpt>
      <trkpt lat="44.16189" lon="7.19364">
        <ele>2074.421948</ele>
        <time>2010-09-30T14:16:47Z</time>
      </trkpt>
      <trkpt lat="44.16185" lon="7.19366">
        <ele>2074.071921</ele>
        <time>2010-09-30T14:16:49Z</time>
      </trkpt>
      <trkpt lat="44.16177" lon="7.19369">
        <ele>2073.599809</ele>
        <time>2010-09-30T14:16:52Z</time>
      </trkpt>
      <trkpt lat="44.16172" lon="7.1937">
        <ele>2072.963065</ele>
        <time>2010-09-30T14:16:54Z</time>
      </trkpt>
      <trkpt lat="44.16165" lon="7.19371">
        <ele>2072.269151</ele>
        <time>2010-09-30T14:16:57Z</time>
      </trkpt>
      <trkpt lat="44.16159" lon="7.1937">
        <ele>2071.646206</ele>
        <time>2010-09-30T14:17:00Z</time>
      </trkpt>
      <trkpt lat="44.16153" lon="7.19365">
        <ele>2071.122953</ele>
        <time>2010-09-30T14:17:03Z</time>
      </trkpt>
      <trkpt lat="44.1615" lon="7.19362">
        <ele>2070.675297</ele>
        <time>2010-09-30T14:17:05Z</time>
      </trkpt>
      <trkpt lat="44.16146" lon="7.19358">
        <ele>2070.264531</ele>
        <time>2010-09-30T14:17:08Z</time>
      </trkpt>
      <trkpt lat="44.1614" lon="7.19356">
        <ele>2069.860247</ele>
        <time>2010-09-30T14:17:11Z</time>
      </trkpt>
      <trkpt lat="44.16134" lon="7.19357">
        <ele>2069.492295</ele>
        <time>2010-09-30T14:17:14Z</time>
      </trkpt>
      <trkpt lat="44.16128" lon="7.1936">
        <ele>2069.19234</ele>
        <time>2010-09-30T14:17:17Z</time>
      </trkpt>
      <trkpt lat="44.16124" lon="7.1936">
        <ele>2068.951112</ele>
        <time>2010-09-30T14:17:19Z</time>
      </trkpt>
      <trkpt lat="44.16116" lon="7.19361">
        <ele>2068.749626</ele>
        <time>2010-09-30T14:17:22Z</time>
      </trkpt>
      <trkpt lat="44.16111" lon="7.19362">
        <ele>2068.58206</ele>
        <time>2010-09-30T14:17:24Z</time>
      </trkpt>
      <trkpt lat="44.16103" lon="7.19363">
        <ele>2068.444155</ele>
        <time>2010-09-30T14:17:27Z</time>
      </trkpt>
      <trkpt lat="44.16095" lon="7.19364">
        <ele>2068.3329</ele>
        <time>2010-09-30T14:17:30Z</time>
      </trkpt>
      <trkpt lat="44.1609" lon="7.19365">
        <ele>2068.24692</ele>
        <time>2010-09-30T14:17:32Z</time>
      </trkpt>
      <trkpt lat="44.16083" lon="7.19366">
        <ele>2068.187801</ele>
        <time>2010-09-30T14:17:35Z</time>
      </trkpt>
      <trkpt lat="44.16077" lon="7.19367">
        <ele>2068.149506</ele>
        <time>2010-09-30T14:17:38Z</time>
      </trkpt>
      <trkpt lat="44.16071" lon="7.19368">
        <ele>2068.119234</ele>
        <time>2010-09-30T14:17:41Z</time>
      </trkpt>
      <trkpt lat="44.16063" lon="7.19368">
        <ele>2068.095445</ele>
        <time>2010-09-30T14:17:44Z</time>
      </trkpt>
      <trkpt lat="44.16056" lon="7.19367">
        <ele>2068.077693</ele>
        <time>2010-09-30T14:17:47Z</time>
      </trkpt>
      <trkpt lat="44.16049" lon="7.19367">
        <ele>2068.052927</ele>
        <time>2010-09-30T14:17:50Z</time>
      </trkpt>
      <trkpt lat="44.16043" lon="7.19367">
        <ele>2068.009402</ele>
        <time>2010-09-30T14:17:53Z</time>
      </trkpt>
      <trkpt lat="44.16039" lon="7.19367">
        <ele>2067.95084</ele>
        <time>2010-09-30T14:17:55Z</time>
      </trkpt>
      <trkpt lat="44.16032" lon="7.19367">
        <ele>2067.890785</ele>
        <time>2010-09-30T14:17:58Z</time>
      </trkpt>
      <trkpt lat="44.16024" lon="7.19365">
        <ele>2067.838921</ele>
        <time>2010-09-30T14:18:01Z</time>
      </trkpt>
      <trkpt lat="44.16019" lon="7.19365">
        <ele>2067.800102</ele>
        <time>2010-09-30T14:18:03Z</time>
      </trkpt>
      <trkpt lat="44.16014" lon="7.19365">
        <ele>2067.777102</ele>
        <time>2010-09-30T14:18:05Z</time>
      </trkpt>
      <trkpt lat="44.16008" lon="7.19364">
        <ele>2067.767502</ele>
        <time>2010-09-30T14:18:08Z</time>
      </trkpt>
      <trkpt lat="44.16002" lon="7.19364">
        <ele>2067.764925</ele>
        <time>2010-09-30T14:18:11Z</time>
      </trkpt>
      <trkpt lat="44.15998" lon="7.19363">
        <ele>2067.760548</ele>
        <time>2010-09-30T14:18:13Z</time>
      </trkpt>
      <trkpt lat="44.15992" lon="7.19361">
        <ele>2067.729394</ele>
        <time>2010-09-30T14:18:16Z</time>
      </trkpt>
      <trkpt lat="44.15988" lon="7.19359">
        <ele>2067.629032</ele>
        <time>2010-09-30T14:18:18Z</time>
      </trkpt>
      <trkpt lat="44.15982" lon="7.19356">
        <ele>2067.452889</ele>
        <time>2010-09-30T14:18:21Z</time>
      </trkpt>
      <trkpt lat="44.15978" lon="7.19356">
        <ele>2067.242978</ele>
        <time>2010-09-30T14:18:23Z</time>
      </trkpt>
      <trkpt lat="44.15971" lon="7.19356">
        <ele>2067.041928</ele>
        <time>2010-09-30T14:18:26Z</time>
      </trkpt>
      <trkpt lat="44.15965" lon="7.19355">
        <ele>2066.860721</ele>
        <time>2010-09-30T14:18:29Z</time>
      </trkpt>
      <trkpt lat="44.15958" lon="7.19354">
        <ele>2066.687529</ele>
        <time>2010-09-30T14:18:32Z</time>
      </trkpt>
      <trkpt lat="44.15953" lon="7.19353">
        <ele>2066.496019</ele>
        <time>2010-09-30T14:18:34Z</time>
      </trkpt>
      <trkpt lat="44.15944" lon="7.19351">
        <ele>2066.268496</ele>
        <time>2010-09-30T14:18:37Z</time>
      </trkpt>
      <trkpt lat="44.15939" lon="7.19349">
        <ele>2066.013038</ele>
        <time>2010-09-30T14:18:39Z</time>
      </trkpt>
      <trkpt lat="44.15933" lon="7.19348">
        <ele>2065.764017</ele>
        <time>2010-09-30T14:18:41Z</time>
      </trkpt>
      <trkpt lat="44.15925" lon="7.19347">
        <ele>2065.538819</ele>
        <time>2010-09-30T14:18:44Z</time>
      </trkpt>
      <trkpt lat="44.1592" lon="7.19346">
        <ele>2065.331884</ele>
        <time>2010-09-30T14:18:46Z</time>
      </trkpt>
      <trkpt lat="44.15916" lon="7.19346">
        <ele>2065.14148</ele>
        <time>2010-09-30T14:18:48Z</time>
      </trkpt>
      <trkpt lat="44.1591" lon="7.19345">
        <ele>2064.948831</ele>
        <time>2010-09-30T14:18:51Z</time>
      </trkpt>
      <trkpt lat="44.15906" lon="7.19344">
        <ele>2064.714516</ele>
        <time>2010-09-30T14:18:53Z</time>
      </trkpt>
      <trkpt lat="44.15901" lon="7.19343">
        <ele>2064.434912</ele>
        <time>2010-09-30T14:18:56Z</time>
      </trkpt>
      <trkpt lat="44.15895" lon="7.19342">
        <ele>2064.120325</ele>
        <time>2010-09-30T14:18:59Z</time>
      </trkpt>
      <trkpt lat="44.15892" lon="7.19341">
        <ele>2063.782419</ele>
        <time>2010-09-30T14:19:01Z</time>
      </trkpt>
      <trkpt lat="44.15888" lon="7.1934">
        <ele>2063.435953</ele>
        <time>2010-09-30T14:19:03Z</time>
      </trkpt>
      <trkpt lat="44.15882" lon="7.19339">
        <ele>2063.073355</ele>
        <time>2010-09-30T14:19:06Z</time>
      </trkpt>
      <trkpt lat="44.15877" lon="7.19339">
        <ele>2062.711293</ele>
        <time>2010-09-30T14:19:09Z</time>
      </trkpt>
      <trkpt lat="44.15873" lon="7.19338">
        <ele>2062.408411</ele>
        <time>2010-09-30T14:19:11Z</time>
      </trkpt>
      <trkpt lat="44.15869" lon="7.19337">
        <ele>2062.174558</ele>
        <time>2010-09-30T14:19:13Z</time>
      </trkpt>
      <trkpt lat="44.15863" lon="7.19335">
        <ele>2061.960624</ele>
        <time>2010-09-30T14:19:16Z</time>
      </trkpt>
      <trkpt lat="44.15858" lon="7.19333">
        <ele>2061.741625</ele>
        <time>2010-09-30T14:19:19Z</time>
      </trkpt>
      <trkpt lat="44.15855" lon="7.19331">
        <ele>2061.541279</ele>
        <time>2010-09-30T14:19:21Z</time>
      </trkpt>
      <trkpt lat="44.15851" lon="7.1933">
        <ele>2061.37167</ele>
        <time>2010-09-30T14:19:23Z</time>
      </trkpt>
      <trkpt lat="44.15846" lon="7.19327">
        <ele>2061.217281</ele>
        <time>2010-09-30T14:19:26Z</time>
      </trkpt>
      <trkpt lat="44.15842" lon="7.19325">
        <ele>2061.076781</ele>
        <time>2010-09-30T14:19:29Z</time>
      </trkpt>
      <trkpt lat="44.15838" lon="7.19323">
        <ele>2060.962466</ele>
        <time>2010-09-30T14:19:32Z</time>
      </trkpt>
      <trkpt lat="44.15833" lon="7.1932">
        <ele>2060.871211</ele>
        <time>2010-09-30T14:19:35Z</time>
      </trkpt>
      <trkpt lat="44.15827" lon="7.19319">
        <ele>2060.7885</ele>
        <time>2010-09-30T14:19:38Z</time>
      </trkpt>
      <trkpt lat="44.15824" lon="7.19318">
        <ele>2060.709917</ele>
        <time>2010-09-30T14:19:40Z</time>
      </trkpt>
      <trkpt lat="44.15819" lon="7.19317">
        <ele>2060.642261</ele>
        <time>2010-09-30T14:19:43Z</time>
      </trkpt>
      <trkpt lat="44.15815" lon="7.19316">
        <ele>2060.58622</ele>
        <time>2010-09-30T14:19:46Z</time>
      </trkpt>
      <trkpt lat="44.1581" lon="7.19314">
        <ele>2060.536303</ele>
        <time>2010-09-30T14:19:49Z</time>
      </trkpt>
      <trkpt lat="44.15808" lon="7.19313">
        <ele>2060.490704</ele>
        <time>2010-09-30T14:19:51Z</time>
      </trkpt>
      <trkpt lat="44.15802" lon="7.19313">
        <ele>2060.449142</ele>
        <time>2010-09-30T14:20:01Z</time>
      </trkpt>
      <trkpt lat="44.15797" lon="7.19313">
        <ele>2060.409744</ele>
        <time>2010-09-30T14:20:06Z</time>
      </trkpt>
      <trkpt lat="44.15794" lon="7.19311">
        <ele>2060.375</ele>
        <time>2010-09-30T14:20:09Z</time>
      </trkpt>
      <trkpt lat="44.15791" lon="7.1931">
        <ele>2060.345401</ele>
        <time>2010-09-30T14:20:11Z</time>
      </trkpt>
      <trkpt lat="44.15788" lon="7.19308">
        <ele>2060.316205</ele>
        <time>2010-09-30T14:20:14Z</time>
      </trkpt>
      <trkpt lat="44.15784" lon="7.19306">
        <ele>2060.275765</ele>
        <time>2010-09-30T14:20:18Z</time>
      </trkpt>
      <trkpt lat="44.15781" lon="7.19305">
        <ele>2060.214052</ele>
        <time>2010-09-30T14:20:20Z</time>
      </trkpt>
      <trkpt lat="44.15776" lon="7.19303">
        <ele>2060.133752</ele>
        <time>2010-09-30T14:20:23Z</time>
      </trkpt>
      <trkpt lat="44.15771" lon="7.19303">
        <ele>2060.04073</ele>
        <time>2010-09-30T14:20:26Z</time>
      </trkpt>
      <trkpt lat="44.15768" lon="7.19302">
        <ele>2059.944048</ele>
        <time>2010-09-30T14:20:28Z</time>
      </trkpt>
      <trkpt lat="44.15765" lon="7.19302">
        <ele>2059.860315</ele>
        <time>2010-09-30T14:20:30Z</time>
      </trkpt>
      <trkpt lat="44.15761" lon="7.19301">
        <ele>2059.796233</ele>
        <time>2010-09-30T14:20:33Z</time>
      </trkpt>
      <trkpt lat="44.15758" lon="7.193">
        <ele>2059.750074</ele>
        <time>2010-09-30T14:20:35Z</time>
      </trkpt>
      <trkpt lat="44.15753" lon="7.19299">
        <ele>2059.721779</ele>
        <time>2010-09-30T14:20:38Z</time>
      </trkpt>
      <trkpt lat="44.15751" lon="7.19299">
        <ele>2059.704903</ele>
        <time>2010-09-30T14:20:40Z</time>
      </trkpt>
      <trkpt lat="44.15746" lon="7.19299">
        <ele>2059.689009</ele>
        <time>2010-09-30T14:20:43Z</time>
      </trkpt>
      <trkpt lat="44.15742" lon="7.19299">
        <ele>2059.666879</ele>
        <time>2010-09-30T14:20:46Z</time>
      </trkpt>
      <trkpt lat="44.15738" lon="7.19299">
        <ele>2059.638308</ele>
        <time>2010-09-30T14:20:49Z</time>
      </trkpt>
      <trkpt lat="44.15736" lon="7.19299">
        <ele>2059.601212</ele>
        <time>2010-09-30T14:20:51Z</time>
      </trkpt>
      <trkpt lat="44.15733" lon="7.19299">
        <ele>2059.546648</ele>
        <time>2010-09-30T14:20:53Z</time>
      </trkpt>
      <trkpt lat="44.15729" lon="7.19297">
        <ele>2059.473287</ele>
        <time>2010-09-30T14:20:56Z</time>
      </trkpt>
      <trkpt lat="44.15725" lon="7.19295">
        <ele>2059.396776</ele>
        <time>2010-09-30T14:20:59Z</time>
      </trkpt>
      <trkpt lat="44.15722" lon="7.19294">
        <ele>2059.333246</ele>
        <time>2010-09-30T14:21:01Z</time>
      </trkpt>
      <trkpt lat="44.15718" lon="7.19292">
        <ele>2059.284089</ele>
        <time>2010-09-30T14:21:04Z</time>
      </trkpt>
      <trkpt lat="44.15716" lon="7.1929">
        <ele>2059.240014</ele>
        <time>2010-09-30T14:21:06Z</time>
      </trkpt>
      <trkpt lat="44.15712" lon="7.19289">
        <ele>2059.196947</ele>
        <time>2010-09-30T14:21:09Z</time>
      </trkpt>
      <trkpt lat="44.15709" lon="7.19287">
        <ele>2059.155699</ele>
        <time>2010-09-30T14:21:12Z</time>
      </trkpt>
      <trkpt lat="44.15705" lon="7.19286">
        <ele>2059.116972</ele>
        <time>2010-09-30T14:21:15Z</time>
      </trkpt>
      <trkpt lat="44.15701" lon="7.19285">
        <ele>2059.082772</ele>
        <time>2010-09-30T14:21:18Z</time>
      </trkpt>
      <trkpt lat="44.15699" lon="7.19283">
        <ele>2059.05466</ele>
        <time>2010-09-30T14:21:20Z</time>
      </trkpt>
      <trkpt lat="44.15696" lon="7.19282">
        <ele>2059.031938</ele>
        <time>2010-09-30T14:21:22Z</time>
      </trkpt>
      <trkpt lat="44.15692" lon="7.1928">
        <ele>2059.013109</ele>
        <time>2010-09-30T14:21:25Z</time>
      </trkpt>
      <trkpt lat="44.15689" lon="7.19279">
        <ele>2058.996655</ele>
        <time>2010-09-30T14:21:28Z</time>
      </trkpt>
      <trkpt lat="44.15685" lon="7.19277">
        <ele>2058.983442</ele>
        <time>2010-09-30T14:21:31Z</time>
      </trkpt>
      <trkpt lat="44.15682" lon="7.19275">
        <ele>2058.974747</ele>
        <time>2010-09-30T14:21:34Z</time>
      </trkpt>
      <trkpt lat="44.15678" lon="7.19273">
        <ele>2058.969846</ele>
        <time>2010-09-30T14:21:37Z</time>
      </trkpt>
      <trkpt lat="44.15674" lon="7.19271">
        <ele>2058.965362</ele>
        <time>2010-09-30T14:21:40Z</time>
      </trkpt>
      <trkpt lat="44.15671" lon="7.1927">
        <ele>2058.955961</ele>
        <time>2010-09-30T14:21:43Z</time>
      </trkpt>
      <trkpt lat="44.15667" lon="7.19269">
        <ele>2058.938434</ele>
        <time>2010-09-30T14:21:46Z</time>
      </trkpt>
      <trkpt lat="44.15663" lon="7.19269">
        <ele>2058.91286</ele>
        <time>2010-09-30T14:21:49Z</time>
      </trkpt>
      <trkpt lat="44.15659" lon="7.19269">
        <ele>2058.879013</ele>
        <time>2010-09-30T14:21:52Z</time>
      </trkpt>
      <trkpt lat="44.15655" lon="7.19268">
        <ele>2058.835153</ele>
        <time>2010-09-30T14:21:55Z</time>
      </trkpt>
      <trkpt lat="44.15651" lon="7.19267">
        <ele>2058.768508</ele>
        <time>2010-09-30T14:21:58Z</time>
      </trkpt>
      <trkpt lat="44.15647" lon="7.19266">
        <ele>2058.661759</ele>
        <time>2010-09-30T14:22:01Z</time>
      </trkpt>
      <trkpt lat="44.15645" lon="7.19265">
        <ele>2058.519951</ele>
        <time>2010-09-30T14:22:03Z</time>
      </trkpt>
      <trkpt lat="44.1564" lon="7.19264">
        <ele>2058.367455</ele>
        <time>2010-09-30T14:22:06Z</time>
      </trkpt>
      <trkpt lat="44.15637" lon="7.19264">
        <ele>2058.220048</ele>
        <time>2010-09-30T14:22:09Z</time>
      </trkpt>
      <trkpt lat="44.1563" lon="7.19267">
        <ele>2058.086764</ele>
        <time>2010-09-30T14:22:20Z</time>
      </trkpt>
      <trkpt lat="44.15627" lon="7.19271">
        <ele>2057.970463</ele>
        <time>2010-09-30T14:22:23Z</time>
      </trkpt>
      <trkpt lat="44.15624" lon="7.19277">
        <ele>2057.861836</ele>
        <time>2010-09-30T14:22:26Z</time>
      </trkpt>
      <trkpt lat="44.15622" lon="7.19282">
        <ele>2057.745734</ele>
        <time>2010-09-30T14:22:29Z</time>
      </trkpt>
      <trkpt lat="44.1562" lon="7.19286">
        <ele>2057.623389</ele>
        <time>2010-09-30T14:22:31Z</time>
      </trkpt>
      <trkpt lat="44.15618" lon="7.19291">
        <ele>2057.513256</ele>
        <time>2010-09-30T14:22:34Z</time>
      </trkpt>
      <trkpt lat="44.15615" lon="7.19294">
        <ele>2057.420974</ele>
        <time>2010-09-30T14:22:37Z</time>
      </trkpt>
      <trkpt lat="44.15613" lon="7.19298">
        <ele>2057.330406</ele>
        <time>2010-09-30T14:22:40Z</time>
      </trkpt>
      <trkpt lat="44.15611" lon="7.19301">
        <ele>2057.219772</ele>
        <time>2010-09-30T14:22:44Z</time>
      </trkpt>
      <trkpt lat="44.15609" lon="7.19304">
        <ele>2057.075632</ele>
        <time>2010-09-30T14:22:47Z</time>
      </trkpt>
      <trkpt lat="44.15607" lon="7.19307">
        <ele>2056.906952</ele>
        <time>2010-09-30T14:22:50Z</time>
      </trkpt>
      <trkpt lat="44.15604" lon="7.19309">
        <ele>2056.724286</ele>
        <time>2010-09-30T14:22:53Z</time>
      </trkpt>
      <trkpt lat="44.15601" lon="7.19312">
        <ele>2056.527142</ele>
        <time>2010-09-30T14:22:56Z</time>
      </trkpt>
      <trkpt lat="44.15598" lon="7.19314">
        <ele>2056.321997</ele>
        <time>2010-09-30T14:22:59Z</time>
      </trkpt>
      <trkpt lat="44.15595" lon="7.19317">
        <ele>2056.116826</ele>
        <time>2010-09-30T14:23:02Z</time>
      </trkpt>
      <trkpt lat="44.15593" lon="7.19319">
        <ele>2055.913952</ele>
        <time>2010-09-30T14:23:05Z</time>
      </trkpt>
      <trkpt lat="44.1559" lon="7.19321">
        <ele>2055.718048</ele>
        <time>2010-09-30T14:23:08Z</time>
      </trkpt>
      <trkpt lat="44.15588" lon="7.19324">
        <ele>2055.533533</ele>
        <time>2010-09-30T14:23:11Z</time>
      </trkpt>
      <trkpt lat="44.15586" lon="7.19327">
        <ele>2055.360605</ele>
        <time>2010-09-30T14:23:14Z</time>
      </trkpt>
      <trkpt lat="44.15586" lon="7.19331">
        <ele>2055.194618</ele>
        <time>2010-09-30T14:23:17Z</time>
      </trkpt>
      <trkpt lat="44.15585" lon="7.19335">
        <ele>2055.029484</ele>
        <time>2010-09-30T14:23:20Z</time>
      </trkpt>
      <trkpt lat="44.15585" lon="7.19339">
        <ele>2054.862497</ele>
        <time>2010-09-30T14:23:23Z</time>
      </trkpt>
      <trkpt lat="44.15585" lon="7.19344">
        <ele>2054.69605</ele>
        <time>2010-09-30T14:23:27Z</time>
      </trkpt>
      <trkpt lat="44.15586" lon="7.19348">
        <ele>2054.534532</ele>
        <time>2010-09-30T14:23:30Z</time>
      </trkpt>
      <trkpt lat="44.15586" lon="7.19353">
        <ele>2054.379852</ele>
        <time>2010-09-30T14:23:33Z</time>
      </trkpt>
      <trkpt lat="44.15587" lon="7.19359">
        <ele>2054.214428</ele>
        <time>2010-09-30T14:23:36Z</time>
      </trkpt>
      <trkpt lat="44.15588" lon="7.19364">
        <ele>2054.01632</ele>
        <time>2010-09-30T14:23:39Z</time>
      </trkpt>
      <trkpt lat="44.1559" lon="7.19369">
        <ele>2053.79169</ele>
        <time>2010-09-30T14:23:42Z</time>
      </trkpt>
      <trkpt lat="44.1559" lon="7.19374">
        <ele>2053.547868</ele>
        <time>2010-09-30T14:23:45Z</time>
      </trkpt>
      <trkpt lat="44.15592" lon="7.19378">
        <ele>2053.266908</ele>
        <time>2010-09-30T14:23:48Z</time>
      </trkpt>
      <trkpt lat="44.15594" lon="7.19381">
        <ele>2052.93986</ele>
        <time>2010-09-30T14:23:51Z</time>
      </trkpt>
      <trkpt lat="44.15596" lon="7.19384">
        <ele>2052.584911</ele>
        <time>2010-09-30T14:23:54Z</time>
      </trkpt>
      <trkpt lat="44.15597" lon="7.19389">
        <ele>2052.22723</ele>
        <time>2010-09-30T14:23:57Z</time>
      </trkpt>
      <trkpt lat="44.15599" lon="7.19394">
        <ele>2051.875092</ele>
        <time>2010-09-30T14:24:00Z</time>
      </trkpt>
      <trkpt lat="44.15599" lon="7.19399">
        <ele>2051.522087</ele>
        <time>2010-09-30T14:24:03Z</time>
      </trkpt>
      <trkpt lat="44.15599" lon="7.19404">
        <ele>2051.168975</ele>
        <time>2010-09-30T14:24:06Z</time>
      </trkpt>
      <trkpt lat="44.156" lon="7.1941">
        <ele>2050.827714</ele>
        <time>2010-09-30T14:24:09Z</time>
      </trkpt>
      <trkpt lat="44.15601" lon="7.19414">
        <ele>2050.506015</ele>
        <time>2010-09-30T14:24:11Z</time>
      </trkpt>
      <trkpt lat="44.15603" lon="7.19421">
        <ele>2050.202982</ele>
        <time>2010-09-30T14:24:14Z</time>
      </trkpt>
      <trkpt lat="44.15604" lon="7.19425">
        <ele>2049.917223</ele>
        <time>2010-09-30T14:24:16Z</time>
      </trkpt>
      <trkpt lat="44.15605" lon="7.19432">
        <ele>2049.660952</ele>
        <time>2010-09-30T14:24:19Z</time>
      </trkpt>
      <trkpt lat="44.15606" lon="7.19436">
        <ele>2049.437362</ele>
        <time>2010-09-30T14:24:21Z</time>
      </trkpt>
      <trkpt lat="44.15607" lon="7.19441">
        <ele>2049.229852</ele>
        <time>2010-09-30T14:24:24Z</time>
      </trkpt>
      <trkpt lat="44.15608" lon="7.19446">
        <ele>2049.016312</ele>
        <time>2010-09-30T14:24:27Z</time>
      </trkpt>
      <trkpt lat="44.1561" lon="7.19451">
        <ele>2048.79083</ele>
        <time>2010-09-30T14:24:30Z</time>
      </trkpt>
      <trkpt lat="44.15613" lon="7.19453">
        <ele>2048.559714</ele>
        <time>2010-09-30T14:24:32Z</time>
      </trkpt>
      <trkpt lat="44.15617" lon="7.19454">
        <ele>2048.326627</ele>
        <time>2010-09-30T14:24:34Z</time>
      </trkpt>
      <trkpt lat="44.15621" lon="7.19457">
        <ele>2048.090971</ele>
        <time>2010-09-30T14:24:37Z</time>
      </trkpt>
      <trkpt lat="44.15624" lon="7.19458">
        <ele>2047.869947</ele>
        <time>2010-09-30T14:24:39Z</time>
      </trkpt>
      <trkpt lat="44.15629" lon="7.19459">
        <ele>2047.678236</ele>
        <time>2010-09-30T14:24:42Z</time>
      </trkpt>
      <trkpt lat="44.15632" lon="7.1946">
        <ele>2047.497692</ele>
        <time>2010-09-30T14:24:44Z</time>
      </trkpt>
      <trkpt lat="44.15635" lon="7.19461">
        <ele>2047.30652</ele>
        <time>2010-09-30T14:24:47Z</time>
      </trkpt>
      <trkpt lat="44.15638" lon="7.19462">
        <ele>2047.10359</ele>
        <time>2010-09-30T14:24:50Z</time>
      </trkpt>
      <trkpt lat="44.15641" lon="7.19464">
        <ele>2046.891197</ele>
        <time>2010-09-30T14:24:53Z</time>
      </trkpt>
      <trkpt lat="44.15644" lon="7.19465">
        <ele>2046.660086</ele>
        <time>2010-09-30T14:24:56Z</time>
      </trkpt>
      <trkpt lat="44.15647" lon="7.19467">
        <ele>2046.401208</ele>
        <time>2010-09-30T14:24:59Z</time>
      </trkpt>
      <trkpt lat="44.15649" lon="7.19469">
        <ele>2046.128019</ele>
        <time>2010-09-30T14:25:02Z</time>
      </trkpt>
      <trkpt lat="44.15652" lon="7.1947">
        <ele>2045.872226</ele>
        <time>2010-09-30T14:25:05Z</time>
      </trkpt>
      <trkpt lat="44.15655" lon="7.19471">
        <ele>2045.647402</ele>
        <time>2010-09-30T14:25:08Z</time>
      </trkpt>
      <trkpt lat="44.15658" lon="7.19474">
        <ele>2045.454035</ele>
        <time>2010-09-30T14:25:11Z</time>
      </trkpt>
      <trkpt lat="44.1566" lon="7.19478">
        <ele>2045.291218</ele>
        <time>2010-09-30T14:25:14Z</time>
      </trkpt>
      <trkpt lat="44.15663" lon="7.19483">
        <ele>2045.155498</ele>
        <time>2010-09-30T14:25:17Z</time>
      </trkpt>
      <trkpt lat="44.15665" lon="7.19486">
        <ele>2045.03819</ele>
        <time>2010-09-30T14:25:19Z</time>
      </trkpt>
      <trkpt lat="44.15667" lon="7.19489">
        <ele>2044.927964</ele>
        <time>2010-09-30T14:25:21Z</time>
      </trkpt>
      <trkpt lat="44.15669" lon="7.19494">
        <ele>2044.817031</ele>
        <time>2010-09-30T14:25:24Z</time>
      </trkpt>
      <trkpt lat="44.1567" lon="7.19498">
        <ele>2044.707384</ele>
        <time>2010-09-30T14:25:26Z</time>
      </trkpt>
      <trkpt lat="44.15672" lon="7.19505">
        <ele>2044.604856</ele>
        <time>2010-09-30T14:25:29Z</time>
      </trkpt>
      <trkpt lat="44.15672" lon="7.1951">
        <ele>2044.497953</ele>
        <time>2010-09-30T14:25:32Z</time>
      </trkpt>
      <trkpt lat="44.15673" lon="7.19515">
        <ele>2044.371503</ele>
        <time>2010-09-30T14:25:35Z</time>
      </trkpt>
      <trkpt lat="44.15673" lon="7.19519">
        <ele>2044.226711</ele>
        <time>2010-09-30T14:25:38Z</time>
      </trkpt>
      <trkpt lat="44.1567" lon="7.19522">
        <ele>2044.072311</ele>
        <time>2010-09-30T14:25:42Z</time>
      </trkpt>
      <trkpt lat="44.15666" lon="7.19523">
        <ele>2043.918715</ele>
        <time>2010-09-30T14:25:44Z</time>
      </trkpt>
      <trkpt lat="44.15662" lon="7.19523">
        <ele>2043.772282</ele>
        <time>2010-09-30T14:25:46Z</time>
      </trkpt>
      <trkpt lat="44.15658" lon="7.19522">
        <ele>2043.621131</ele>
        <time>2010-09-30T14:25:48Z</time>
      </trkpt>
      <trkpt lat="44.15653" lon="7.19521">
        <ele>2043.466378</ele>
        <time>2010-09-30T14:25:51Z</time>
      </trkpt>
      <trkpt lat="44.15649" lon="7.1952">
        <ele>2043.330479</ele>
        <time>2010-09-30T14:25:53Z</time>
      </trkpt>
      <trkpt lat="44.15645" lon="7.19519">
        <ele>2043.220532</ele>
        <time>2010-09-30T14:25:56Z</time>
      </trkpt>
      <trkpt lat="44.15641" lon="7.19519">
        <ele>2043.117916</ele>
        <time>2010-09-30T14:25:59Z</time>
      </trkpt>
      <trkpt lat="44.15637" lon="7.19521">
        <ele>2043.012025</ele>
        <time>2010-09-30T14:26:02Z</time>
      </trkpt>
      <trkpt lat="44.15635" lon="7.19525">
        <ele>2042.904955</ele>
        <time>2010-09-30T14:26:05Z</time>
      </trkpt>
      <trkpt lat="44.15633" lon="7.19528">
        <ele>2042.794512</ele>
        <time>2010-09-30T14:26:07Z</time>
      </trkpt>
      <trkpt lat="44.15632" lon="7.19531">
        <ele>2042.678443</ele>
        <time>2010-09-30T14:26:09Z</time>
      </trkpt>
      <trkpt lat="44.15631" lon="7.19536">
        <ele>2042.562466</ele>
        <time>2010-09-30T14:26:11Z</time>
      </trkpt>
      <trkpt lat="44.1563" lon="7.1954">
        <ele>2042.450982</ele>
        <time>2010-09-30T14:26:13Z</time>
      </trkpt>
      <trkpt lat="44.1563" lon="7.19546">
        <ele>2042.347068</ele>
        <time>2010-09-30T14:26:16Z</time>
      </trkpt>
      <trkpt lat="44.15631" lon="7.19551">
        <ele>2042.248063</ele>
        <time>2010-09-30T14:26:19Z</time>
      </trkpt>
      <trkpt lat="44.15634" lon="7.19556">
        <ele>2042.146459</ele>
        <time>2010-09-30T14:26:22Z</time>
      </trkpt>
      <trkpt lat="44.15635" lon="7.1956">
        <ele>2042.035769</ele>
        <time>2010-09-30T14:26:25Z</time>
      </trkpt>
      <trkpt lat="44.15637" lon="7.19565">
        <ele>2041.913755</ele>
        <time>2010-09-30T14:26:28Z</time>
      </trkpt>
      <trkpt lat="44.15638" lon="7.19569">
        <ele>2041.787335</ele>
        <time>2010-09-30T14:26:31Z</time>
      </trkpt>
      <trkpt lat="44.1564" lon="7.19573">
        <ele>2041.666582</ele>
        <time>2010-09-30T14:26:34Z</time>
      </trkpt>
      <trkpt lat="44.1564" lon="7.19578">
        <ele>2041.556098</ele>
        <time>2010-09-30T14:26:37Z</time>
      </trkpt>
      <trkpt lat="44.15641" lon="7.19582">
        <ele>2041.454874</ele>
        <time>2010-09-30T14:26:40Z</time>
      </trkpt>
      <trkpt lat="44.15643" lon="7.19586">
        <ele>2041.35381</ele>
        <time>2010-09-30T14:26:43Z</time>
      </trkpt>
      <trkpt lat="44.15648" lon="7.19589">
        <ele>2041.238131</ele>
        <time>2010-09-30T14:26:46Z</time>
      </trkpt>
      <trkpt lat="44.15652" lon="7.19594">
        <ele>2041.101766</ele>
        <time>2010-09-30T14:26:49Z</time>
      </trkpt>
      <trkpt lat="44.15655" lon="7.19597">
        <ele>2040.956944</ele>
        <time>2010-09-30T14:26:51Z</time>
      </trkpt>
      <trkpt lat="44.15659" lon="7.19602">
        <ele>2040.820995</ele>
        <time>2010-09-30T14:26:54Z</time>
      </trkpt>
      <trkpt lat="44.15663" lon="7.19605">
        <ele>2040.700785</ele>
        <time>2010-09-30T14:26:56Z</time>
      </trkpt>
      <trkpt lat="44.15667" lon="7.19612">
        <ele>2040.600846</ele>
        <time>2010-09-30T14:26:59Z</time>
      </trkpt>
      <trkpt lat="44.1567" lon="7.19616">
        <ele>2040.521497</ele>
        <time>2010-09-30T14:27:01Z</time>
      </trkpt>
      <trkpt lat="44.15674" lon="7.19622">
        <ele>2040.450945</ele>
        <time>2010-09-30T14:27:04Z</time>
      </trkpt>
      <trkpt lat="44.15677" lon="7.19625">
        <ele>2040.372853</ele>
        <time>2010-09-30T14:27:06Z</time>
      </trkpt>
      <trkpt lat="44.15679" lon="7.19629">
        <ele>2040.285983</ele>
        <time>2010-09-30T14:27:08Z</time>
      </trkpt>
      <trkpt lat="44.15682" lon="7.19634">
        <ele>2040.201451</ele>
        <time>2010-09-30T14:27:11Z</time>
      </trkpt>
      <trkpt lat="44.15683" lon="7.19639">
        <ele>2040.12662</ele>
        <time>2010-09-30T14:27:13Z</time>
      </trkpt>
      <trkpt lat="44.15685" lon="7.19645">
        <ele>2040.061569</ele>
        <time>2010-09-30T14:27:16Z</time>
      </trkpt>
      <trkpt lat="44.15686" lon="7.19649">
        <ele>2040.002287</ele>
        <time>2010-09-30T14:27:18Z</time>
      </trkpt>
      <trkpt lat="44.15687" lon="7.19656">
        <ele>2039.943524</ele>
        <time>2010-09-30T14:27:21Z</time>
      </trkpt>
      <trkpt lat="44.15688" lon="7.19661">
        <ele>2039.885919</ele>
        <time>2010-09-30T14:27:23Z</time>
      </trkpt>
      <trkpt lat="44.15688" lon="7.19666">
        <ele>2039.830683</ele>
        <time>2010-09-30T14:27:25Z</time>
      </trkpt>
      <trkpt lat="44.15689" lon="7.19671">
        <ele>2039.770547</ele>
        <time>2010-09-30T14:27:27Z</time>
      </trkpt>
      <trkpt lat="44.1569" lon="7.19678">
        <ele>2039.700448</ele>
        <time>2010-09-30T14:27:30Z</time>
      </trkpt>
      <trkpt lat="44.15691" lon="7.19686">
        <ele>2039.626623</ele>
        <time>2010-09-30T14:27:33Z</time>
      </trkpt>
      <trkpt lat="44.15691" lon="7.19695">
        <ele>2039.553799</ele>
        <time>2010-09-30T14:27:36Z</time>
      </trkpt>
      <trkpt lat="44.15691" lon="7.19703">
        <ele>2039.470049</ele>
        <time>2010-09-30T14:27:39Z</time>
      </trkpt>
      <trkpt lat="44.15691" lon="7.19709">
        <ele>2039.360717</ele>
        <time>2010-09-30T14:27:41Z</time>
      </trkpt>
      <trkpt lat="44.15692" lon="7.19717">
        <ele>2039.224732</ele>
        <time>2010-09-30T14:27:44Z</time>
      </trkpt>
      <trkpt lat="44.15692" lon="7.19723">
        <ele>2039.070702</ele>
        <time>2010-09-30T14:27:46Z</time>
      </trkpt>
      <trkpt lat="44.15693" lon="7.19728">
        <ele>2038.914231</ele>
        <time>2010-09-30T14:27:48Z</time>
      </trkpt>
      <trkpt lat="44.15695" lon="7.19735">
        <ele>2038.772108</ele>
        <time>2010-09-30T14:27:51Z</time>
      </trkpt>
      <trkpt lat="44.15696" lon="7.19743">
        <ele>2038.652792</ele>
        <time>2010-09-30T14:27:54Z</time>
      </trkpt>
      <trkpt lat="44.15696" lon="7.19751">
        <ele>2038.559154</ele>
        <time>2010-09-30T14:27:57Z</time>
      </trkpt>
      <trkpt lat="44.15692" lon="7.19755">
        <ele>2038.487738</ele>
        <time>2010-09-30T14:28:00Z</time>
      </trkpt>
      <trkpt lat="44.15687" lon="7.19758">
        <ele>2038.435487</ele>
        <time>2010-09-30T14:28:02Z</time>
      </trkpt>
      <trkpt lat="44.15681" lon="7.1976">
        <ele>2038.407807</ele>
        <time>2010-09-30T14:28:05Z</time>
      </trkpt>
      <trkpt lat="44.15676" lon="7.19759">
        <ele>2038.40188</ele>
        <time>2010-09-30T14:28:07Z</time>
      </trkpt>
      <trkpt lat="44.15669" lon="7.19756">
        <ele>2038.421773</ele>
        <time>2010-09-30T14:28:10Z</time>
      </trkpt>
      <trkpt lat="44.15665" lon="7.19754">
        <ele>2038.496479</ele>
        <time>2010-09-30T14:28:12Z</time>
      </trkpt>
      <trkpt lat="44.15661" lon="7.19752">
        <ele>2038.631784</ele>
        <time>2010-09-30T14:28:14Z</time>
      </trkpt>
      <trkpt lat="44.15653" lon="7.1975">
        <ele>2038.790255</ele>
        <time>2010-09-30T14:28:17Z</time>
      </trkpt>
      <trkpt lat="44.15647" lon="7.19749">
        <ele>2038.929883</ele>
        <time>2010-09-30T14:28:20Z</time>
      </trkpt>
      <trkpt lat="44.15643" lon="7.19748">
        <ele>2039.027172</ele>
        <time>2010-09-30T14:28:22Z</time>
      </trkpt>
      <trkpt lat="44.1564" lon="7.19747">
        <ele>2039.085044</ele>
        <time>2010-09-30T14:28:24Z</time>
      </trkpt>
      <trkpt lat="44.15635" lon="7.19745">
        <ele>2039.122008</ele>
        <time>2010-09-30T14:28:27Z</time>
      </trkpt>
      <trkpt lat="44.15635" lon="7.19745">
        <ele>2039.144567</ele>
        <time>2010-09-30T14:28:28Z</time>
      </trkpt>
      <trkpt lat="44.15607" lon="7.1974">
        <ele>2039.152923</ele>
        <time>2010-09-30T14:28:45Z</time>
      </trkpt>
      <trkpt lat="44.15601" lon="7.19739">
        <ele>2039.152778</ele>
        <time>2010-09-30T14:28:47Z</time>
      </trkpt>
      <trkpt lat="44.15593" lon="7.19737">
        <ele>2039.148298</ele>
        <time>2010-09-30T14:28:50Z</time>
      </trkpt>
      <trkpt lat="44.15587" lon="7.19735">
        <ele>2039.138888</ele>
        <time>2010-09-30T14:28:52Z</time>
      </trkpt>
      <trkpt lat="44.15575" lon="7.19732">
        <ele>2039.124063</ele>
        <time>2010-09-30T14:28:55Z</time>
      </trkpt>
      <trkpt lat="44.15568" lon="7.19731">
        <ele>2039.105286</ele>
        <time>2010-09-30T14:28:57Z</time>
      </trkpt>
      <trkpt lat="44.15558" lon="7.19728">
        <ele>2039.087042</ele>
        <time>2010-09-30T14:29:00Z</time>
      </trkpt>
      <trkpt lat="44.15552" lon="7.19727">
        <ele>2039.071994</ele>
        <time>2010-09-30T14:29:02Z</time>
      </trkpt>
      <trkpt lat="44.15547" lon="7.19727">
        <ele>2039.056587</ele>
        <time>2010-09-30T14:29:04Z</time>
      </trkpt>
      <trkpt lat="44.15539" lon="7.1973">
        <ele>2039.03612</ele>
        <time>2010-09-30T14:29:07Z</time>
      </trkpt>
      <trkpt lat="44.15534" lon="7.19734">
        <ele>2039.011368</ele>
        <time>2010-09-30T14:29:09Z</time>
      </trkpt>
      <trkpt lat="44.15528" lon="7.19739">
        <ele>2038.986939</ele>
        <time>2010-09-30T14:29:12Z</time>
      </trkpt>
      <trkpt lat="44.15525" lon="7.19743">
        <ele>2038.962588</ele>
        <time>2010-09-30T14:29:14Z</time>
      </trkpt>
      <trkpt lat="44.15522" lon="7.19749">
        <ele>2038.933476</ele>
        <time>2010-09-30T14:29:16Z</time>
      </trkpt>
      <trkpt lat="44.1552" lon="7.19754">
        <ele>2038.899155</ele>
        <time>2010-09-30T14:29:18Z</time>
      </trkpt>
      <trkpt lat="44.15515" lon="7.19761">
        <ele>2038.864404</ele>
        <time>2010-09-30T14:29:21Z</time>
      </trkpt>
      <trkpt lat="44.15511" lon="7.19764">
        <ele>2038.83601</ele>
        <time>2010-09-30T14:29:23Z</time>
      </trkpt>
      <trkpt lat="44.15506" lon="7.19767">
        <ele>2038.817343</ele>
        <time>2010-09-30T14:29:26Z</time>
      </trkpt>
      <trkpt lat="44.155" lon="7.1977">
        <ele>2038.805033</ele>
        <time>2010-09-30T14:29:29Z</time>
      </trkpt>
      <trkpt lat="44.15494" lon="7.19772">
        <ele>2038.792664</ele>
        <time>2010-09-30T14:29:32Z</time>
      </trkpt>
      <trkpt lat="44.1549" lon="7.19773">
        <ele>2038.769407</ele>
        <time>2010-09-30T14:29:34Z</time>
      </trkpt>
      <trkpt lat="44.15486" lon="7.19772">
        <ele>2038.727576</ele>
        <time>2010-09-30T14:29:36Z</time>
      </trkpt>
      <trkpt lat="44.15479" lon="7.19772">
        <ele>2038.673441</ele>
        <time>2010-09-30T14:29:39Z</time>
      </trkpt>
      <trkpt lat="44.15474" lon="7.1977">
        <ele>2038.621221</ele>
        <time>2010-09-30T14:29:41Z</time>
      </trkpt>
      <trkpt lat="44.15466" lon="7.19769">
        <ele>2038.57836</ele>
        <time>2010-09-30T14:29:44Z</time>
      </trkpt>
      <trkpt lat="44.15459" lon="7.1977">
        <ele>2038.540526</ele>
        <time>2010-09-30T14:29:47Z</time>
      </trkpt>
      <trkpt lat="44.1545" lon="7.19774">
        <ele>2038.501308</ele>
        <time>2010-09-30T14:29:50Z</time>
      </trkpt>
      <trkpt lat="44.15443" lon="7.19779">
        <ele>2038.458258</ele>
        <time>2010-09-30T14:29:53Z</time>
      </trkpt>
      <trkpt lat="44.15439" lon="7.19783">
        <ele>2038.408611</ele>
        <time>2010-09-30T14:29:55Z</time>
      </trkpt>
      <trkpt lat="44.15435" lon="7.19791">
        <ele>2038.354083</ele>
        <time>2010-09-30T14:29:58Z</time>
      </trkpt>
      <trkpt lat="44.15432" lon="7.19799">
        <ele>2038.308201</ele>
        <time>2010-09-30T14:30:01Z</time>
      </trkpt>
      <trkpt lat="44.15431" lon="7.19803">
        <ele>2038.283501</ele>
        <time>2010-09-30T14:30:03Z</time>
      </trkpt>
      <trkpt lat="44.15429" lon="7.19809">
        <ele>2038.276718</ele>
        <time>2010-09-30T14:30:06Z</time>
      </trkpt>
      <trkpt lat="44.15425" lon="7.19816">
        <ele>2038.27601</ele>
        <time>2010-09-30T14:30:09Z</time>
      </trkpt>
      <trkpt lat="44.15422" lon="7.19823">
        <ele>2038.275629</ele>
        <time>2010-09-30T14:30:12Z</time>
      </trkpt>
      <trkpt lat="44.1542" lon="7.19828">
        <ele>2038.275274</ele>
        <time>2010-09-30T14:30:14Z</time>
      </trkpt>
      <trkpt lat="44.15417" lon="7.19836">
        <ele>2038.272653</ele>
        <time>2010-09-30T14:30:17Z</time>
      </trkpt>
      <trkpt lat="44.15415" lon="7.19842">
        <ele>2038.266018</ele>
        <time>2010-09-30T14:30:19Z</time>
      </trkpt>
      <trkpt lat="44.15413" lon="7.19851">
        <ele>2038.258635</ele>
        <time>2010-09-30T14:30:22Z</time>
      </trkpt>
      <trkpt lat="44.15411" lon="7.19857">
        <ele>2038.253062</ele>
        <time>2010-09-30T14:30:24Z</time>
      </trkpt>
      <trkpt lat="44.15408" lon="7.19863">
        <ele>2038.244497</ele>
        <time>2010-09-30T14:30:27Z</time>
      </trkpt>
      <trkpt lat="44.15406" lon="7.19865">
        <ele>2038.2227</ele>
        <time>2010-09-30T14:30:29Z</time>
      </trkpt>
      <trkpt lat="44.15397" lon="7.19868">
        <ele>2038.178734</ele>
        <time>2010-09-30T14:30:32Z</time>
      </trkpt>
      <trkpt lat="44.1539" lon="7.1987">
        <ele>2038.107836</ele>
        <time>2010-09-30T14:30:35Z</time>
      </trkpt>
      <trkpt lat="44.15383" lon="7.19871">
        <ele>2038.019567</ele>
        <time>2010-09-30T14:30:38Z</time>
      </trkpt>
      <trkpt lat="44.1538" lon="7.19872">
        <ele>2037.943154</ele>
        <time>2010-09-30T14:30:40Z</time>
      </trkpt>
      <trkpt lat="44.15377" lon="7.19873">
        <ele>2037.899875</ele>
        <time>2010-09-30T14:30:42Z</time>
      </trkpt>
      <trkpt lat="44.15374" lon="7.19874">
        <ele>2037.876798</ele>
        <time>2010-09-30T14:30:44Z</time>
      </trkpt>
      <trkpt lat="44.15369" lon="7.19876">
        <ele>2037.839108</ele>
        <time>2010-09-30T14:30:47Z</time>
      </trkpt>
      <trkpt lat="44.15365" lon="7.19879">
        <ele>2037.764756</ele>
        <time>2010-09-30T14:30:50Z</time>
      </trkpt>
      <trkpt lat="44.15363" lon="7.19887">
        <ele>2037.665419</ele>
        <time>2010-09-30T14:30:53Z</time>
      </trkpt>
      <trkpt lat="44.15363" lon="7.19896">
        <ele>2037.563595</ele>
        <time>2010-09-30T14:30:56Z</time>
      </trkpt>
      <trkpt lat="44.15364" lon="7.19901">
        <ele>2037.465405</ele>
        <time>2010-09-30T14:30:58Z</time>
      </trkpt>
      <trkpt lat="44.15365" lon="7.19905">
        <ele>2037.35934</ele>
        <time>2010-09-30T14:31:00Z</time>
      </trkpt>
      <trkpt lat="44.15366" lon="7.1991">
        <ele>2037.219119</ele>
        <time>2010-09-30T14:31:03Z</time>
      </trkpt>
      <trkpt lat="44.15366" lon="7.19915">
        <ele>2037.033826</ele>
        <time>2010-09-30T14:31:07Z</time>
      </trkpt>
      <trkpt lat="44.15366" lon="7.19919">
        <ele>2036.826801</ele>
        <time>2010-09-30T14:31:10Z</time>
      </trkpt>
      <trkpt lat="44.15366" lon="7.19925">
        <ele>2036.60552</ele>
        <time>2010-09-30T14:31:13Z</time>
      </trkpt>
      <trkpt lat="44.15366" lon="7.19931">
        <ele>2036.322749</ele>
        <time>2010-09-30T14:31:16Z</time>
      </trkpt>
      <trkpt lat="44.15366" lon="7.19936">
        <ele>2035.954647</ele>
        <time>2010-09-30T14:31:18Z</time>
      </trkpt>
      <trkpt lat="44.15367" lon="7.19941">
        <ele>2035.555049</ele>
        <time>2010-09-30T14:31:20Z</time>
      </trkpt>
      <trkpt lat="44.15367" lon="7.19949">
        <ele>2035.189065</ele>
        <time>2010-09-30T14:31:23Z</time>
      </trkpt>
      <trkpt lat="44.15368" lon="7.19954">
        <ele>2034.88905</ele>
        <time>2010-09-30T14:31:25Z</time>
      </trkpt>
      <trkpt lat="44.15369" lon="7.19962">
        <ele>2034.66538</ele>
        <time>2010-09-30T14:31:28Z</time>
      </trkpt>
      <trkpt lat="44.1537" lon="7.19971">
        <ele>2034.486173</ele>
        <time>2010-09-30T14:31:31Z</time>
      </trkpt>
      <trkpt lat="44.15368" lon="7.19981">
        <ele>2034.312816</ele>
        <time>2010-09-30T14:31:34Z</time>
      </trkpt>
      <trkpt lat="44.15366" lon="7.19986">
        <ele>2034.144063</ele>
        <time>2010-09-30T14:31:36Z</time>
      </trkpt>
      <trkpt lat="44.15361" lon="7.19997">
        <ele>2034.008127</ele>
        <time>2010-09-30T14:31:39Z</time>
      </trkpt>
      <trkpt lat="44.15359" lon="7.20005">
        <ele>2033.932735</ele>
        <time>2010-09-30T14:31:41Z</time>
      </trkpt>
      <trkpt lat="44.15358" lon="7.20015">
        <ele>2033.914775</ele>
        <time>2010-09-30T14:31:44Z</time>
      </trkpt>
      <trkpt lat="44.15358" lon="7.20021">
        <ele>2033.939786</ele>
        <time>2010-09-30T14:31:46Z</time>
      </trkpt>
      <trkpt lat="44.15359" lon="7.20027">
        <ele>2034.007451</ele>
        <time>2010-09-30T14:31:48Z</time>
      </trkpt>
      <trkpt lat="44.1536" lon="7.20035">
        <ele>2034.111212</ele>
        <time>2010-09-30T14:31:51Z</time>
      </trkpt>
      <trkpt lat="44.15362" lon="7.20044">
        <ele>2034.234285</ele>
        <time>2010-09-30T14:31:54Z</time>
      </trkpt>
      <trkpt lat="44.15364" lon="7.20051">
        <ele>2034.360363</ele>
        <time>2010-09-30T14:31:57Z</time>
      </trkpt>
      <trkpt lat="44.15365" lon="7.20057">
        <ele>2034.486344</ele>
        <time>2010-09-30T14:31:59Z</time>
      </trkpt>
      <trkpt lat="44.15367" lon="7.20066">
        <ele>2034.619598</ele>
        <time>2010-09-30T14:32:02Z</time>
      </trkpt>
      <trkpt lat="44.15367" lon="7.20071">
        <ele>2034.751595</ele>
        <time>2010-09-30T14:32:04Z</time>
      </trkpt>
      <trkpt lat="44.15367" lon="7.20076">
        <ele>2034.860256</ele>
        <time>2010-09-30T14:32:06Z</time>
      </trkpt>
      <trkpt lat="44.15367" lon="7.20085">
        <ele>2034.933995</ele>
        <time>2010-09-30T14:32:09Z</time>
      </trkpt>
      <trkpt lat="44.15366" lon="7.20092">
        <ele>2034.975847</ele>
        <time>2010-09-30T14:32:11Z</time>
      </trkpt>
      <trkpt lat="44.15365" lon="7.20102">
        <ele>2034.992786</ele>
        <time>2010-09-30T14:32:13Z</time>
      </trkpt>
      <trkpt lat="44.15364" lon="7.20115">
        <ele>2034.993599</ele>
        <time>2010-09-30T14:32:16Z</time>
      </trkpt>
      <trkpt lat="44.15363" lon="7.20129">
        <ele>2034.98574</ele>
        <time>2010-09-30T14:32:19Z</time>
      </trkpt>
      <trkpt lat="44.1536" lon="7.20141">
        <ele>2034.965394</ele>
        <time>2010-09-30T14:32:22Z</time>
      </trkpt>
      <trkpt lat="44.15358" lon="7.20147">
        <ele>2034.92152</ele>
        <time>2010-09-30T14:32:24Z</time>
      </trkpt>
      <trkpt lat="44.15354" lon="7.20151">
        <ele>2034.845287</ele>
        <time>2010-09-30T14:32:27Z</time>
      </trkpt>
      <trkpt lat="44.1535" lon="7.20152">
        <ele>2034.743166</ele>
        <time>2010-09-30T14:32:30Z</time>
      </trkpt>
      <trkpt lat="44.15347" lon="7.20152">
        <ele>2034.64106</ele>
        <time>2010-09-30T14:32:32Z</time>
      </trkpt>
      <trkpt lat="44.15343" lon="7.2015">
        <ele>2034.555887</ele>
        <time>2010-09-30T14:32:35Z</time>
      </trkpt>
      <trkpt lat="44.1534" lon="7.20148">
        <ele>2034.475082</ele>
        <time>2010-09-30T14:32:38Z</time>
      </trkpt>
      <trkpt lat="44.15336" lon="7.20145">
        <ele>2034.382452</ele>
        <time>2010-09-30T14:32:41Z</time>
      </trkpt>
      <trkpt lat="44.15332" lon="7.20143">
        <ele>2034.275933</ele>
        <time>2010-09-30T14:32:44Z</time>
      </trkpt>
      <trkpt lat="44.15326" lon="7.20141">
        <ele>2034.15989</ele>
        <time>2010-09-30T14:32:46Z</time>
      </trkpt>
      <trkpt lat="44.15323" lon="7.2014">
        <ele>2034.045157</ele>
        <time>2010-09-30T14:32:48Z</time>
      </trkpt>
      <trkpt lat="44.15319" lon="7.20139">
        <ele>2033.944348</ele>
        <time>2010-09-30T14:32:51Z</time>
      </trkpt>
      <trkpt lat="44.15316" lon="7.20139">
        <ele>2033.864923</ele>
        <time>2010-09-30T14:32:54Z</time>
      </trkpt>
      <trkpt lat="44.15313" lon="7.20139">
        <ele>2033.809222</ele>
        <time>2010-09-30T14:32:57Z</time>
      </trkpt>
      <trkpt lat="44.1531" lon="7.20138">
        <ele>2033.767834</ele>
        <time>2010-09-30T14:33:00Z</time>
      </trkpt>
      <trkpt lat="44.15306" lon="7.20138">
        <ele>2033.724079</ele>
        <time>2010-09-30T14:33:03Z</time>
      </trkpt>
      <trkpt lat="44.15303" lon="7.2014">
        <ele>2033.672528</ele>
        <time>2010-09-30T14:33:06Z</time>
      </trkpt>
      <trkpt lat="44.153" lon="7.20141">
        <ele>2033.621346</ele>
        <time>2010-09-30T14:33:09Z</time>
      </trkpt>
      <trkpt lat="44.15297" lon="7.20143">
        <ele>2033.578428</ele>
        <time>2010-09-30T14:33:12Z</time>
      </trkpt>
      <trkpt lat="44.15293" lon="7.20147">
        <ele>2033.5469</ele>
        <time>2010-09-30T14:33:15Z</time>
      </trkpt>
      <trkpt lat="44.1529" lon="7.20151">
        <ele>2033.525881</ele>
        <time>2010-09-30T14:33:18Z</time>
      </trkpt>
      <trkpt lat="44.15287" lon="7.20156">
        <ele>2033.507601</ele>
        <time>2010-09-30T14:33:21Z</time>
      </trkpt>
      <trkpt lat="44.15285" lon="7.20158">
        <ele>2033.483244</ele>
        <time>2010-09-30T14:33:23Z</time>
      </trkpt>
      <trkpt lat="44.15282" lon="7.20162">
        <ele>2033.449774</ele>
        <time>2010-09-30T14:33:26Z</time>
      </trkpt>
      <trkpt lat="44.1528" lon="7.20165">
        <ele>2033.404032</ele>
        <time>2010-09-30T14:33:28Z</time>
      </trkpt>
      <trkpt lat="44.15277" lon="7.20168">
        <ele>2033.347366</ele>
        <time>2010-09-30T14:33:31Z</time>
      </trkpt>
      <trkpt lat="44.15274" lon="7.20171">
        <ele>2033.293669</ele>
        <time>2010-09-30T14:33:34Z</time>
      </trkpt>
      <trkpt lat="44.15272" lon="7.20175">
        <ele>2033.258264</ele>
        <time>2010-09-30T14:33:37Z</time>
      </trkpt>
      <trkpt lat="44.1527" lon="7.2018">
        <ele>2033.244005</ele>
        <time>2010-09-30T14:33:40Z</time>
      </trkpt>
      <trkpt lat="44.15268" lon="7.20183">
        <ele>2033.24337</ele>
        <time>2010-09-30T14:33:43Z</time>
      </trkpt>
      <trkpt lat="44.15265" lon="7.20186">
        <ele>2033.250262</ele>
        <time>2010-09-30T14:33:47Z</time>
      </trkpt>
      <trkpt lat="44.15264" lon="7.20189">
        <ele>2033.266911</ele>
        <time>2010-09-30T14:33:50Z</time>
      </trkpt>
      <trkpt lat="44.15263" lon="7.20193">
        <ele>2033.294754</ele>
        <time>2010-09-30T14:33:53Z</time>
      </trkpt>
      <trkpt lat="44.15261" lon="7.20198">
        <ele>2033.327636</ele>
        <time>2010-09-30T14:33:56Z</time>
      </trkpt>
      <trkpt lat="44.15259" lon="7.20204">
        <ele>2033.35706</ele>
        <time>2010-09-30T14:33:59Z</time>
      </trkpt>
      <trkpt lat="44.15258" lon="7.20208">
        <ele>2033.376939</ele>
        <time>2010-09-30T14:34:02Z</time>
      </trkpt>
      <trkpt lat="44.15256" lon="7.20212">
        <ele>2033.394835</ele>
        <time>2010-09-30T14:34:05Z</time>
      </trkpt>
      <trkpt lat="44.15254" lon="7.20215">
        <ele>2033.431761</ele>
        <time>2010-09-30T14:34:08Z</time>
      </trkpt>
      <trkpt lat="44.15252" lon="7.20218">
        <ele>2033.490583</ele>
        <time>2010-09-30T14:34:11Z</time>
      </trkpt>
      <trkpt lat="44.1525" lon="7.20221">
        <ele>2033.551563</ele>
        <time>2010-09-30T14:34:14Z</time>
      </trkpt>
      <trkpt lat="44.15247" lon="7.20224">
        <ele>2033.611067</ele>
        <time>2010-09-30T14:34:18Z</time>
      </trkpt>
      <trkpt lat="44.15244" lon="7.20226">
        <ele>2033.681104</ele>
        <time>2010-09-30T14:34:21Z</time>
      </trkpt>
      <trkpt lat="44.15242" lon="7.20228">
        <ele>2033.759622</ele>
        <time>2010-09-30T14:34:24Z</time>
      </trkpt>
      <trkpt lat="44.15238" lon="7.20231">
        <ele>2033.834646</ele>
        <time>2010-09-30T14:34:27Z</time>
      </trkpt>
      <trkpt lat="44.15235" lon="7.20233">
        <ele>2033.897562</ele>
        <time>2010-09-30T14:34:30Z</time>
      </trkpt>
      <trkpt lat="44.15233" lon="7.20235">
        <ele>2033.952995</ele>
        <time>2010-09-30T14:34:33Z</time>
      </trkpt>
      <trkpt lat="44.1523" lon="7.20236">
        <ele>2034.015435</ele>
        <time>2010-09-30T14:34:37Z</time>
      </trkpt>
      <trkpt lat="44.15227" lon="7.20238">
        <ele>2034.087136</ele>
        <time>2010-09-30T14:34:40Z</time>
      </trkpt>
      <trkpt lat="44.15224" lon="7.20239">
        <ele>2034.156157</ele>
        <time>2010-09-30T14:34:43Z</time>
      </trkpt>
      <trkpt lat="44.15221" lon="7.2024">
        <ele>2034.213999</ele>
        <time>2010-09-30T14:34:46Z</time>
      </trkpt>
      <trkpt lat="44.15217" lon="7.20242">
        <ele>2034.256551</ele>
        <time>2010-09-30T14:34:49Z</time>
      </trkpt>
      <trkpt lat="44.15215" lon="7.20244">
        <ele>2034.282227</ele>
        <time>2010-09-30T14:34:51Z</time>
      </trkpt>
      <trkpt lat="44.15211" lon="7.20247">
        <ele>2034.293624</ele>
        <time>2010-09-30T14:34:54Z</time>
      </trkpt>
      <trkpt lat="44.15208" lon="7.2025">
        <ele>2034.300485</ele>
        <time>2010-09-30T14:34:57Z</time>
      </trkpt>
      <trkpt lat="44.15205" lon="7.20252">
        <ele>2034.312949</ele>
        <time>2010-09-30T14:35:00Z</time>
      </trkpt>
      <trkpt lat="44.15202" lon="7.20254">
        <ele>2034.335234</ele>
        <time>2010-09-30T14:35:03Z</time>
      </trkpt>
      <trkpt lat="44.15199" lon="7.20255">
        <ele>2034.368372</ele>
        <time>2010-09-30T14:35:06Z</time>
      </trkpt>
      <trkpt lat="44.15196" lon="7.20256">
        <ele>2034.411803</ele>
        <time>2010-09-30T14:35:09Z</time>
      </trkpt>
      <trkpt lat="44.15192" lon="7.20256">
        <ele>2034.458713</ele>
        <time>2010-09-30T14:35:12Z</time>
      </trkpt>
      <trkpt lat="44.15189" lon="7.20256">
        <ele>2034.501628</ele>
        <time>2010-09-30T14:35:15Z</time>
      </trkpt>
      <trkpt lat="44.15186" lon="7.20257">
        <ele>2034.540942</ele>
        <time>2010-09-30T14:35:18Z</time>
      </trkpt>
      <trkpt lat="44.15182" lon="7.20259">
        <ele>2034.581184</ele>
        <time>2010-09-30T14:35:21Z</time>
      </trkpt>
      <trkpt lat="44.15179" lon="7.20262">
        <ele>2034.624462</ele>
        <time>2010-09-30T14:35:24Z</time>
      </trkpt>
      <trkpt lat="44.15175" lon="7.20264">
        <ele>2034.673049</ele>
        <time>2010-09-30T14:35:27Z</time>
      </trkpt>
      <trkpt lat="44.15173" lon="7.20266">
        <ele>2034.728204</ele>
        <time>2010-09-30T14:35:29Z</time>
      </trkpt>
      <trkpt lat="44.15168" lon="7.20268">
        <ele>2034.794728</ele>
        <time>2010-09-30T14:35:32Z</time>
      </trkpt>
      <trkpt lat="44.15164" lon="7.20269">
        <ele>2034.890894</ele>
        <time>2010-09-30T14:35:35Z</time>
      </trkpt>
      <trkpt lat="44.15161" lon="7.20268">
        <ele>2035.031681</ele>
        <time>2010-09-30T14:35:38Z</time>
      </trkpt>
      <trkpt lat="44.15157" lon="7.20267">
        <ele>2035.225213</ele>
        <time>2010-09-30T14:35:41Z</time>
      </trkpt>
      <trkpt lat="44.15153" lon="7.20266">
        <ele>2035.477734</ele>
        <time>2010-09-30T14:35:44Z</time>
      </trkpt>
      <trkpt lat="44.1515" lon="7.20265">
        <ele>2035.771585</ele>
        <time>2010-09-30T14:35:46Z</time>
      </trkpt>
      <trkpt lat="44.15146" lon="7.20263">
        <ele>2036.06608</ele>
        <time>2010-09-30T14:35:49Z</time>
      </trkpt>
      <trkpt lat="44.15142" lon="7.20261">
        <ele>2036.335088</ele>
        <time>2010-09-30T14:35:52Z</time>
      </trkpt>
      <trkpt lat="44.15139" lon="7.2026">
        <ele>2036.568522</ele>
        <time>2010-09-30T14:35:54Z</time>
      </trkpt>
      <trkpt lat="44.15135" lon="7.20258">
        <ele>2036.777202</ele>
        <time>2010-09-30T14:35:57Z</time>
      </trkpt>
      <trkpt lat="44.15132" lon="7.20257">
        <ele>2036.991456</ele>
        <time>2010-09-30T14:36:00Z</time>
      </trkpt>
      <trkpt lat="44.15129" lon="7.20257">
        <ele>2037.215088</ele>
        <time>2010-09-30T14:36:02Z</time>
      </trkpt>
      <trkpt lat="44.15125" lon="7.20256">
        <ele>2037.429215</ele>
        <time>2010-09-30T14:36:05Z</time>
      </trkpt>
      <trkpt lat="44.15121" lon="7.20256">
        <ele>2037.642612</ele>
        <time>2010-09-30T14:36:08Z</time>
      </trkpt>
      <trkpt lat="44.15117" lon="7.20256">
        <ele>2037.863208</ele>
        <time>2010-09-30T14:36:11Z</time>
      </trkpt>
      <trkpt lat="44.15115" lon="7.20257">
        <ele>2038.081197</ele>
        <time>2010-09-30T14:36:13Z</time>
      </trkpt>
      <trkpt lat="44.15111" lon="7.20258">
        <ele>2038.297401</ele>
        <time>2010-09-30T14:36:16Z</time>
      </trkpt>
      <trkpt lat="44.15108" lon="7.20259">
        <ele>2038.511854</ele>
        <time>2010-09-30T14:36:19Z</time>
      </trkpt>
      <trkpt lat="44.15104" lon="7.20261">
        <ele>2038.713324</ele>
        <time>2010-09-30T14:36:22Z</time>
      </trkpt>
      <trkpt lat="44.15101" lon="7.20264">
        <ele>2038.910385</ele>
        <time>2010-09-30T14:36:25Z</time>
      </trkpt>
      <trkpt lat="44.15098" lon="7.20266">
        <ele>2039.122529</ele>
        <time>2010-09-30T14:36:28Z</time>
      </trkpt>
      <trkpt lat="44.15096" lon="7.2027">
        <ele>2039.346558</ele>
        <time>2010-09-30T14:36:31Z</time>
      </trkpt>
      <trkpt lat="44.15094" lon="7.20274">
        <ele>2039.565454</ele>
        <time>2010-09-30T14:36:34Z</time>
      </trkpt>
      <trkpt lat="44.15094" lon="7.20279">
        <ele>2039.773071</ele>
        <time>2010-09-30T14:36:37Z</time>
      </trkpt>
      <trkpt lat="44.15094" lon="7.20283">
        <ele>2039.964958</ele>
        <time>2010-09-30T14:36:40Z</time>
      </trkpt>
      <trkpt lat="44.15095" lon="7.20289">
        <ele>2040.115128</ele>
        <time>2010-09-30T14:36:43Z</time>
      </trkpt>
      <trkpt lat="44.15095" lon="7.20295">
        <ele>2040.194025</ele>
        <time>2010-09-30T14:36:46Z</time>
      </trkpt>
      <trkpt lat="44.15095" lon="7.203">
        <ele>2040.210565</ele>
        <time>2010-09-30T14:36:48Z</time>
      </trkpt>
      <trkpt lat="44.15093" lon="7.20309">
        <ele>2040.208991</ele>
        <time>2010-09-30T14:36:51Z</time>
      </trkpt>
      <trkpt lat="44.15091" lon="7.20317">
        <ele>2040.218781</ele>
        <time>2010-09-30T14:36:54Z</time>
      </trkpt>
      <trkpt lat="44.1509" lon="7.20322">
        <ele>2040.235059</ele>
        <time>2010-09-30T14:36:56Z</time>
      </trkpt>
      <trkpt lat="44.15087" lon="7.2033">
        <ele>2040.245353</ele>
        <time>2010-09-30T14:37:05Z</time>
      </trkpt>
      <trkpt lat="44.15086" lon="7.20333">
        <ele>2040.280954</ele>
        <time>2010-09-30T14:37:08Z</time>
      </trkpt>
      <trkpt lat="44.15083" lon="7.20337">
        <ele>2040.385175</ele>
        <time>2010-09-30T14:37:12Z</time>
      </trkpt>
      <trkpt lat="44.15081" lon="7.2034">
        <ele>2040.565937</ele>
        <time>2010-09-30T14:37:14Z</time>
      </trkpt>
      <trkpt lat="44.15079" lon="7.20344">
        <ele>2040.782935</ele>
        <time>2010-09-30T14:37:17Z</time>
      </trkpt>
      <trkpt lat="44.15075" lon="7.2035">
        <ele>2040.971026</ele>
        <time>2010-09-30T14:37:20Z</time>
      </trkpt>
      <trkpt lat="44.15072" lon="7.20356">
        <ele>2041.088327</ele>
        <time>2010-09-30T14:37:23Z</time>
      </trkpt>
      <trkpt lat="44.1507" lon="7.2036">
        <ele>2041.152514</ele>
        <time>2010-09-30T14:37:26Z</time>
      </trkpt>
      <trkpt lat="44.15067" lon="7.20363">
        <ele>2041.211505</ele>
        <time>2010-09-30T14:37:29Z</time>
      </trkpt>
      <trkpt lat="44.15065" lon="7.20367">
        <ele>2041.300529</ele>
        <time>2010-09-30T14:37:32Z</time>
      </trkpt>
      <trkpt lat="44.15062" lon="7.20369">
        <ele>2041.41316</ele>
        <time>2010-09-30T14:37:35Z</time>
      </trkpt>
      <trkpt lat="44.1506" lon="7.20372">
        <ele>2041.525435</ele>
        <time>2010-09-30T14:37:37Z</time>
      </trkpt>
      <trkpt lat="44.15056" lon="7.20375">
        <ele>2041.623461</ele>
        <time>2010-09-30T14:37:40Z</time>
      </trkpt>
      <trkpt lat="44.15053" lon="7.20378">
        <ele>2041.70467</ele>
        <time>2010-09-30T14:37:43Z</time>
      </trkpt>
      <trkpt lat="44.1505" lon="7.20381">
        <ele>2041.765453</ele>
        <time>2010-09-30T14:37:46Z</time>
      </trkpt>
      <trkpt lat="44.15047" lon="7.20386">
        <ele>2041.798952</ele>
        <time>2010-09-30T14:37:49Z</time>
      </trkpt>
      <trkpt lat="44.15045" lon="7.2039">
        <ele>2041.80797</ele>
        <time>2010-09-30T14:37:51Z</time>
      </trkpt>
      <trkpt lat="44.15043" lon="7.20393">
        <ele>2041.805206</ele>
        <time>2010-09-30T14:37:54Z</time>
      </trkpt>
      <trkpt lat="44.15041" lon="7.20397">
        <ele>2041.800559</ele>
        <time>2010-09-30T14:37:57Z</time>
      </trkpt>
      <trkpt lat="44.15038" lon="7.20401">
        <ele>2041.797852</ele>
        <time>2010-09-30T14:38:00Z</time>
      </trkpt>
      <trkpt lat="44.15036" lon="7.20404">
        <ele>2041.79714</ele>
        <time>2010-09-30T14:38:03Z</time>
      </trkpt>
      <trkpt lat="44.15033" lon="7.20407">
        <ele>2041.798287</ele>
        <time>2010-09-30T14:38:06Z</time>
      </trkpt>
      <trkpt lat="44.15031" lon="7.2041">
        <ele>2041.80691</ele>
        <time>2010-09-30T14:38:09Z</time>
      </trkpt>
      <trkpt lat="44.15028" lon="7.20412">
        <ele>2041.832409</ele>
        <time>2010-09-30T14:38:12Z</time>
      </trkpt>
      <trkpt lat="44.15025" lon="7.20416">
        <ele>2041.876552</ele>
        <time>2010-09-30T14:38:15Z</time>
      </trkpt>
      <trkpt lat="44.15023" lon="7.2042">
        <ele>2041.931864</ele>
        <time>2010-09-30T14:38:18Z</time>
      </trkpt>
      <trkpt lat="44.1502" lon="7.20424">
        <ele>2041.990727</ele>
        <time>2010-09-30T14:38:21Z</time>
      </trkpt>
      <trkpt lat="44.15018" lon="7.20428">
        <ele>2042.0476</ele>
        <time>2010-09-30T14:38:24Z</time>
      </trkpt>
      <trkpt lat="44.15015" lon="7.20433">
        <ele>2042.098334</ele>
        <time>2010-09-30T14:38:27Z</time>
      </trkpt>
      <trkpt lat="44.15012" lon="7.20437">
        <ele>2042.143704</ele>
        <time>2010-09-30T14:38:30Z</time>
      </trkpt>
      <trkpt lat="44.15009" lon="7.20441">
        <ele>2042.190588</ele>
        <time>2010-09-30T14:38:33Z</time>
      </trkpt>
      <trkpt lat="44.15007" lon="7.20446">
        <ele>2042.263497</ele>
        <time>2010-09-30T14:38:36Z</time>
      </trkpt>
      <trkpt lat="44.15006" lon="7.2045">
        <ele>2042.414218</ele>
        <time>2010-09-30T14:38:38Z</time>
      </trkpt>
      <trkpt lat="44.15005" lon="7.20457">
        <ele>2042.692573</ele>
        <time>2010-09-30T14:38:41Z</time>
      </trkpt>
      <trkpt lat="44.15004" lon="7.20461">
        <ele>2043.109075</ele>
        <time>2010-09-30T14:38:43Z</time>
      </trkpt>
      <trkpt lat="44.15003" lon="7.20465">
        <ele>2043.610972</ele>
        <time>2010-09-30T14:38:45Z</time>
      </trkpt>
      <trkpt lat="44.15002" lon="7.2047">
        <ele>2044.147684</ele>
        <time>2010-09-30T14:38:48Z</time>
      </trkpt>
      <trkpt lat="44.15002" lon="7.20475">
        <ele>2044.708564</ele>
        <time>2010-09-30T14:38:51Z</time>
      </trkpt>
      <trkpt lat="44.15002" lon="7.20479">
        <ele>2045.274655</ele>
        <time>2010-09-30T14:38:54Z</time>
      </trkpt>
      <trkpt lat="44.15003" lon="7.20484">
        <ele>2045.85864</ele>
        <time>2010-09-30T14:38:57Z</time>
      </trkpt>
      <trkpt lat="44.15003" lon="7.20487">
        <ele>2046.518573</ele>
        <time>2010-09-30T14:38:59Z</time>
      </trkpt>
      <trkpt lat="44.15005" lon="7.20494">
        <ele>2047.25626</ele>
        <time>2010-09-30T14:39:02Z</time>
      </trkpt>
      <trkpt lat="44.15006" lon="7.205">
        <ele>2048.029717</ele>
        <time>2010-09-30T14:39:05Z</time>
      </trkpt>
      <trkpt lat="44.15007" lon="7.20505">
        <ele>2048.781858</ele>
        <time>2010-09-30T14:39:08Z</time>
      </trkpt>
      <trkpt lat="44.15008" lon="7.2051">
        <ele>2049.490786</ele>
        <time>2010-09-30T14:39:11Z</time>
      </trkpt>
      <trkpt lat="44.15009" lon="7.20514">
        <ele>2050.207603</ele>
        <time>2010-09-30T14:39:14Z</time>
      </trkpt>
      <trkpt lat="44.1501" lon="7.20518">
        <ele>2050.967447</ele>
        <time>2010-09-30T14:39:17Z</time>
      </trkpt>
      <trkpt lat="44.15011" lon="7.20522">
        <ele>2051.738837</ele>
        <time>2010-09-30T14:39:20Z</time>
      </trkpt>
      <trkpt lat="44.15012" lon="7.20526">
        <ele>2052.483167</ele>
        <time>2010-09-30T14:39:23Z</time>
      </trkpt>
      <trkpt lat="44.15013" lon="7.20531">
        <ele>2053.174062</ele>
        <time>2010-09-30T14:39:26Z</time>
      </trkpt>
      <trkpt lat="44.15014" lon="7.20535">
        <ele>2053.794849</ele>
        <time>2010-09-30T14:39:29Z</time>
      </trkpt>
      <trkpt lat="44.15016" lon="7.20543">
        <ele>2054.335402</ele>
        <time>2010-09-30T14:39:34Z</time>
      </trkpt>
      <trkpt lat="44.15017" lon="7.20546">
        <ele>2054.803452</ele>
        <time>2010-09-30T14:39:37Z</time>
      </trkpt>
      <trkpt lat="44.15019" lon="7.2055">
        <ele>2055.23172</ele>
        <time>2010-09-30T14:39:40Z</time>
      </trkpt>
      <trkpt lat="44.15021" lon="7.20553">
        <ele>2055.701083</ele>
        <time>2010-09-30T14:39:43Z</time>
      </trkpt>
      <trkpt lat="44.15023" lon="7.20557">
        <ele>2056.239626</ele>
        <time>2010-09-30T14:39:46Z</time>
      </trkpt>
      <trkpt lat="44.15025" lon="7.20562">
        <ele>2056.779836</ele>
        <time>2010-09-30T14:39:49Z</time>
      </trkpt>
      <trkpt lat="44.15027" lon="7.20566">
        <ele>2057.297124</ele>
        <time>2010-09-30T14:39:52Z</time>
      </trkpt>
      <trkpt lat="44.15028" lon="7.20569">
        <ele>2057.836381</ele>
        <time>2010-09-30T14:39:55Z</time>
      </trkpt>
      <trkpt lat="44.1503" lon="7.20573">
        <ele>2058.393991</ele>
        <time>2010-09-30T14:39:58Z</time>
      </trkpt>
      <trkpt lat="44.15031" lon="7.20577">
        <ele>2058.914121</ele>
        <time>2010-09-30T14:40:01Z</time>
      </trkpt>
      <trkpt lat="44.15034" lon="7.20582">
        <ele>2059.335844</ele>
        <time>2010-09-30T14:40:04Z</time>
      </trkpt>
      <trkpt lat="44.15038" lon="7.20588">
        <ele>2059.625064</ele>
        <time>2010-09-30T14:40:07Z</time>
      </trkpt>
      <trkpt lat="44.15042" lon="7.20595">
        <ele>2059.777644</ele>
        <time>2010-09-30T14:40:10Z</time>
      </trkpt>
      <trkpt lat="44.15046" lon="7.20601">
        <ele>2059.828885</ele>
        <time>2010-09-30T14:40:13Z</time>
      </trkpt>
      <trkpt lat="44.15048" lon="7.20606">
        <ele>2059.853226</ele>
        <time>2010-09-30T14:40:16Z</time>
      </trkpt>
      <trkpt lat="44.1505" lon="7.2061">
        <ele>2059.925572</ele>
        <time>2010-09-30T14:40:19Z</time>
      </trkpt>
      <trkpt lat="44.15052" lon="7.20614">
        <ele>2060.073393</ele>
        <time>2010-09-30T14:40:22Z</time>
      </trkpt>
      <trkpt lat="44.15055" lon="7.20618">
        <ele>2060.270711</ele>
        <time>2010-09-30T14:40:25Z</time>
      </trkpt>
      <trkpt lat="44.15057" lon="7.2062">
        <ele>2060.481138</ele>
        <time>2010-09-30T14:40:27Z</time>
      </trkpt>
      <trkpt lat="44.1506" lon="7.20624">
        <ele>2060.693755</ele>
        <time>2010-09-30T14:40:30Z</time>
      </trkpt>
      <trkpt lat="44.15063" lon="7.20628">
        <ele>2060.91956</ele>
        <time>2010-09-30T14:40:33Z</time>
      </trkpt>
      <trkpt lat="44.15065" lon="7.20632">
        <ele>2061.156948</ele>
        <time>2010-09-30T14:40:36Z</time>
      </trkpt>
      <trkpt lat="44.15067" lon="7.20637">
        <ele>2061.400633</ele>
        <time>2010-09-30T14:40:39Z</time>
      </trkpt>
      <trkpt lat="44.15069" lon="7.20642">
        <ele>2061.66325</ele>
        <time>2010-09-30T14:40:42Z</time>
      </trkpt>
      <trkpt lat="44.15071" lon="7.20647">
        <ele>2061.953139</ele>
        <time>2010-09-30T14:40:45Z</time>
      </trkpt>
      <trkpt lat="44.15073" lon="7.20651">
        <ele>2062.265294</ele>
        <time>2010-09-30T14:40:48Z</time>
      </trkpt>
      <trkpt lat="44.15075" lon="7.20655">
        <ele>2062.581194</ele>
        <time>2010-09-30T14:40:51Z</time>
      </trkpt>
      <trkpt lat="44.15077" lon="7.20658">
        <ele>2062.859338</ele>
        <time>2010-09-30T14:40:54Z</time>
      </trkpt>
      <trkpt lat="44.15079" lon="7.20662">
        <ele>2063.072922</ele>
        <time>2010-09-30T14:40:57Z</time>
      </trkpt>
      <trkpt lat="44.15081" lon="7.20665">
        <ele>2063.23167</ele>
        <time>2010-09-30T14:41:00Z</time>
      </trkpt>
      <trkpt lat="44.15083" lon="7.2067">
        <ele>2063.355434</ele>
        <time>2010-09-30T14:41:03Z</time>
      </trkpt>
      <trkpt lat="44.15085" lon="7.20675">
        <ele>2063.456776</ele>
        <time>2010-09-30T14:41:06Z</time>
      </trkpt>
      <trkpt lat="44.15085" lon="7.20679">
        <ele>2063.53192</ele>
        <time>2010-09-30T14:41:08Z</time>
      </trkpt>
      <trkpt lat="44.15085" lon="7.20685">
        <ele>2063.572635</ele>
        <time>2010-09-30T14:41:11Z</time>
      </trkpt>
      <trkpt lat="44.15086" lon="7.20689">
        <ele>2063.586675</ele>
        <time>2010-09-30T14:41:14Z</time>
      </trkpt>
      <trkpt lat="44.15087" lon="7.20694">
        <ele>2063.592312</ele>
        <time>2010-09-30T14:41:17Z</time>
      </trkpt>
      <trkpt lat="44.15087" lon="7.20699">
        <ele>2063.601829</ele>
        <time>2010-09-30T14:41:20Z</time>
      </trkpt>
      <trkpt lat="44.15088" lon="7.20703">
        <ele>2063.624224</ele>
        <time>2010-09-30T14:41:23Z</time>
      </trkpt>
      <trkpt lat="44.15089" lon="7.20708">
        <ele>2063.669557</ele>
        <time>2010-09-30T14:41:26Z</time>
      </trkpt>
      <trkpt lat="44.15089" lon="7.20714">
        <ele>2063.747049</ele>
        <time>2010-09-30T14:41:29Z</time>
      </trkpt>
      <trkpt lat="44.1509" lon="7.20718">
        <ele>2063.851068</ele>
        <time>2010-09-30T14:41:31Z</time>
      </trkpt>
      <trkpt lat="44.1509" lon="7.20724">
        <ele>2063.959473</ele>
        <time>2010-09-30T14:41:34Z</time>
      </trkpt>
      <trkpt lat="44.15091" lon="7.20733">
        <ele>2064.052437</ele>
        <time>2010-09-30T14:41:45Z</time>
      </trkpt>
      <trkpt lat="44.1509" lon="7.2074">
        <ele>2064.12302</ele>
        <time>2010-09-30T14:41:50Z</time>
      </trkpt>
      <trkpt lat="44.1509" lon="7.2074">
        <ele>2064.167192</ele>
        <time>2010-09-30T14:41:59Z</time>
      </trkpt>
      <trkpt lat="44.1509" lon="7.2074">
        <ele>2064.185053</ele>
        <time>2010-09-30T14:42:33Z</time>
      </trkpt>
      <trkpt lat="44.15096" lon="7.20777">
        <ele>2064.198651</ele>
        <time>2010-09-30T14:46:00Z</time>
      </trkpt>
      <trkpt lat="44.15096" lon="7.20783">
        <ele>2064.2629</ele>
        <time>2010-09-30T14:46:03Z</time>
      </trkpt>
      <trkpt lat="44.15096" lon="7.20787">
        <ele>2064.393359</ele>
        <time>2010-09-30T14:46:05Z</time>
      </trkpt>
      <trkpt lat="44.15096" lon="7.20794">
        <ele>2064.798734</ele>
        <time>2010-09-30T14:46:08Z</time>
      </trkpt>
      <trkpt lat="44.15096" lon="7.208">
        <ele>2065.585514</ele>
        <time>2010-09-30T14:46:11Z</time>
      </trkpt>
      <trkpt lat="44.15096" lon="7.20804">
        <ele>2066.337798</ele>
        <time>2010-09-30T14:46:13Z</time>
      </trkpt>
      <trkpt lat="44.15096" lon="7.2081">
        <ele>2066.67932</ele>
        <time>2010-09-30T14:46:16Z</time>
      </trkpt>
      <trkpt lat="44.15095" lon="7.20814">
        <ele>2066.72179</ele>
        <time>2010-09-30T14:46:18Z</time>
      </trkpt>
      <trkpt lat="44.15095" lon="7.2082">
        <ele>2066.656419</ele>
        <time>2010-09-30T14:46:21Z</time>
      </trkpt>
      <trkpt lat="44.15094" lon="7.20825">
        <ele>2066.595161</ele>
        <time>2010-09-30T14:46:24Z</time>
      </trkpt>
      <trkpt lat="44.15092" lon="7.2083">
        <ele>2066.567925</ele>
        <time>2010-09-30T14:46:27Z</time>
      </trkpt>
      <trkpt lat="44.15091" lon="7.20834">
        <ele>2066.571211</ele>
        <time>2010-09-30T14:46:29Z</time>
      </trkpt>
      <trkpt lat="44.1509" lon="7.20838">
        <ele>2066.598817</ele>
        <time>2010-09-30T14:46:31Z</time>
      </trkpt>
      <trkpt lat="44.15089" lon="7.20843">
        <ele>2066.641209</ele>
        <time>2010-09-30T14:46:34Z</time>
      </trkpt>
      <trkpt lat="44.15087" lon="7.20847">
        <ele>2066.685236</ele>
        <time>2010-09-30T14:46:36Z</time>
      </trkpt>
      <trkpt lat="44.15086" lon="7.20852">
        <ele>2066.724939</ele>
        <time>2010-09-30T14:46:39Z</time>
      </trkpt>
      <trkpt lat="44.15083" lon="7.20858">
        <ele>2066.764051</ele>
        <time>2010-09-30T14:46:42Z</time>
      </trkpt>
      <trkpt lat="44.15081" lon="7.20863">
        <ele>2066.805056</ele>
        <time>2010-09-30T14:46:45Z</time>
      </trkpt>
      <trkpt lat="44.1508" lon="7.20869">
        <ele>2066.844382</ele>
        <time>2010-09-30T14:46:48Z</time>
      </trkpt>
      <trkpt lat="44.15078" lon="7.20874">
        <ele>2066.878377</ele>
        <time>2010-09-30T14:46:51Z</time>
      </trkpt>
      <trkpt lat="44.15077" lon="7.20878">
        <ele>2066.902974</ele>
        <time>2010-09-30T14:46:53Z</time>
      </trkpt>
      <trkpt lat="44.15074" lon="7.20882">
        <ele>2066.914651</ele>
        <time>2010-09-30T14:46:56Z</time>
      </trkpt>
      <trkpt lat="44.15072" lon="7.20887">
        <ele>2066.916423</ele>
        <time>2010-09-30T14:46:59Z</time>
      </trkpt>
      <trkpt lat="44.1507" lon="7.20892">
        <ele>2066.912844</ele>
        <time>2010-09-30T14:47:02Z</time>
      </trkpt>
      <trkpt lat="44.15068" lon="7.20896">
        <ele>2066.904854</ele>
        <time>2010-09-30T14:47:04Z</time>
      </trkpt>
      <trkpt lat="44.15066" lon="7.20902">
        <ele>2066.893899</ele>
        <time>2010-09-30T14:47:07Z</time>
      </trkpt>
      <trkpt lat="44.15065" lon="7.20907">
        <ele>2066.883893</ele>
        <time>2010-09-30T14:47:09Z</time>
      </trkpt>
      <trkpt lat="44.15064" lon="7.20914">
        <ele>2066.875811</ele>
        <time>2010-09-30T14:47:12Z</time>
      </trkpt>
      <trkpt lat="44.15063" lon="7.20918">
        <ele>2066.866795</ele>
        <time>2010-09-30T14:47:14Z</time>
      </trkpt>
      <trkpt lat="44.15061" lon="7.20926">
        <ele>2066.855295</ele>
        <time>2010-09-30T14:47:17Z</time>
      </trkpt>
      <trkpt lat="44.15059" lon="7.20932">
        <ele>2066.844116</ele>
        <time>2010-09-30T14:47:19Z</time>
      </trkpt>
      <trkpt lat="44.15055" lon="7.20941">
        <ele>2066.837098</ele>
        <time>2010-09-30T14:47:22Z</time>
      </trkpt>
      <trkpt lat="44.15051" lon="7.2095">
        <ele>2066.83475</ele>
        <time>2010-09-30T14:47:25Z</time>
      </trkpt>
      <trkpt lat="44.15048" lon="7.20956">
        <ele>2066.83405</ele>
        <time>2010-09-30T14:47:27Z</time>
      </trkpt>
      <trkpt lat="44.15044" lon="7.20962">
        <ele>2066.8318</ele>
        <time>2010-09-30T14:47:29Z</time>
      </trkpt>
      <trkpt lat="44.15037" lon="7.20969">
        <ele>2066.825498</ele>
        <time>2010-09-30T14:47:32Z</time>
      </trkpt>
      <trkpt lat="44.1503" lon="7.20973">
        <ele>2066.813733</ele>
        <time>2010-09-30T14:47:35Z</time>
      </trkpt>
      <trkpt lat="44.15022" lon="7.20976">
        <ele>2066.797002</ele>
        <time>2010-09-30T14:47:38Z</time>
      </trkpt>
      <trkpt lat="44.15015" lon="7.20979">
        <ele>2066.77246</ele>
        <time>2010-09-30T14:47:41Z</time>
      </trkpt>
      <trkpt lat="44.1501" lon="7.20981">
        <ele>2066.734229</ele>
        <time>2010-09-30T14:47:43Z</time>
      </trkpt>
      <trkpt lat="44.15003" lon="7.20982">
        <ele>2066.680161</ele>
        <time>2010-09-30T14:47:46Z</time>
      </trkpt>
      <trkpt lat="44.14998" lon="7.20984">
        <ele>2066.611375</ele>
        <time>2010-09-30T14:47:48Z</time>
      </trkpt>
      <trkpt lat="44.14991" lon="7.20987">
        <ele>2066.534425</ele>
        <time>2010-09-30T14:47:51Z</time>
      </trkpt>
      <trkpt lat="44.14986" lon="7.2099">
        <ele>2066.458635</ele>
        <time>2010-09-30T14:47:53Z</time>
      </trkpt>
      <trkpt lat="44.1498" lon="7.20992">
        <ele>2066.391092</ele>
        <time>2010-09-30T14:47:56Z</time>
      </trkpt>
      <trkpt lat="44.14977" lon="7.20994">
        <ele>2066.338602</ele>
        <time>2010-09-30T14:47:58Z</time>
      </trkpt>
      <trkpt lat="44.14974" lon="7.20995">
        <ele>2066.30183</ele>
        <time>2010-09-30T14:48:00Z</time>
      </trkpt>
      <trkpt lat="44.14971" lon="7.20997">
        <ele>2066.269848</ele>
        <time>2010-09-30T14:48:02Z</time>
      </trkpt>
      <trkpt lat="44.14967" lon="7.21">
        <ele>2066.234381</ele>
        <time>2010-09-30T14:48:05Z</time>
      </trkpt>
      <trkpt lat="44.14965" lon="7.21002">
        <ele>2066.195301</ele>
        <time>2010-09-30T14:48:07Z</time>
      </trkpt>
      <trkpt lat="44.14961" lon="7.21006">
        <ele>2066.154526</ele>
        <time>2010-09-30T14:48:10Z</time>
      </trkpt>
      <trkpt lat="44.14958" lon="7.21011">
        <ele>2066.113148</ele>
        <time>2010-09-30T14:48:13Z</time>
      </trkpt>
      <trkpt lat="44.14955" lon="7.21016">
        <ele>2066.074776</ele>
        <time>2010-09-30T14:48:16Z</time>
      </trkpt>
      <trkpt lat="44.14953" lon="7.21019">
        <ele>2066.038882</ele>
        <time>2010-09-30T14:48:18Z</time>
      </trkpt>
      <trkpt lat="44.1495" lon="7.21023">
        <ele>2065.997426</ele>
        <time>2010-09-30T14:48:21Z</time>
      </trkpt>
      <trkpt lat="44.14947" lon="7.21028">
        <ele>2065.942765</ele>
        <time>2010-09-30T14:48:24Z</time>
      </trkpt>
      <trkpt lat="44.14944" lon="7.21031">
        <ele>2065.8806</ele>
        <time>2010-09-30T14:48:27Z</time>
      </trkpt>
      <trkpt lat="44.14942" lon="7.21035">
        <ele>2065.825196</ele>
        <time>2010-09-30T14:48:30Z</time>
      </trkpt>
      <trkpt lat="44.14939" lon="7.21039">
        <ele>2065.783339</ele>
        <time>2010-09-30T14:48:33Z</time>
      </trkpt>
      <trkpt lat="44.14936" lon="7.21043">
        <ele>2065.751632</ele>
        <time>2010-09-30T14:48:36Z</time>
      </trkpt>
      <trkpt lat="44.14933" lon="7.21048">
        <ele>2065.726366</ele>
        <time>2010-09-30T14:48:39Z</time>
      </trkpt>
      <trkpt lat="44.1493" lon="7.21052">
        <ele>2065.70573</ele>
        <time>2010-09-30T14:48:42Z</time>
      </trkpt>
      <trkpt lat="44.14927" lon="7.21055">
        <ele>2065.689546</ele>
        <time>2010-09-30T14:48:45Z</time>
      </trkpt>
      <trkpt lat="44.14924" lon="7.21058">
        <ele>2065.676586</ele>
        <time>2010-09-30T14:48:48Z</time>
      </trkpt>
      <trkpt lat="44.14921" lon="7.2106">
        <ele>2065.662832</ele>
        <time>2010-09-30T14:48:51Z</time>
      </trkpt>
      <trkpt lat="44.14917" lon="7.21061">
        <ele>2065.645318</ele>
        <time>2010-09-30T14:48:54Z</time>
      </trkpt>
      <trkpt lat="44.14913" lon="7.21061">
        <ele>2065.623686</ele>
        <time>2010-09-30T14:48:57Z</time>
      </trkpt>
      <trkpt lat="44.1491" lon="7.21062">
        <ele>2065.596793</ele>
        <time>2010-09-30T14:49:00Z</time>
      </trkpt>
      <trkpt lat="44.14906" lon="7.21061">
        <ele>2065.562681</ele>
        <time>2010-09-30T14:49:03Z</time>
      </trkpt>
      <trkpt lat="44.14903" lon="7.2106">
        <ele>2065.522085</ele>
        <time>2010-09-30T14:49:05Z</time>
      </trkpt>
      <trkpt lat="44.14899" lon="7.21059">
        <ele>2065.47859</ele>
        <time>2010-09-30T14:49:08Z</time>
      </trkpt>
      <trkpt lat="44.14895" lon="7.21058">
        <ele>2065.436976</ele>
        <time>2010-09-30T14:49:11Z</time>
      </trkpt>
      <trkpt lat="44.14892" lon="7.21057">
        <ele>2065.404903</ele>
        <time>2010-09-30T14:49:14Z</time>
      </trkpt>
      <trkpt lat="44.14888" lon="7.21054">
        <ele>2065.388629</ele>
        <time>2010-09-30T14:49:17Z</time>
      </trkpt>
      <trkpt lat="44.14886" lon="7.21053">
        <ele>2065.385529</ele>
        <time>2010-09-30T14:49:19Z</time>
      </trkpt>
      <trkpt lat="44.14882" lon="7.21053">
        <ele>2065.399102</ele>
        <time>2010-09-30T14:49:22Z</time>
      </trkpt>
      <trkpt lat="44.14878" lon="7.21051">
        <ele>2065.44537</ele>
        <time>2010-09-30T14:49:25Z</time>
      </trkpt>
      <trkpt lat="44.14874" lon="7.21049">
        <ele>2065.528499</ele>
        <time>2010-09-30T14:49:28Z</time>
      </trkpt>
      <trkpt lat="44.14871" lon="7.21047">
        <ele>2065.642459</ele>
        <time>2010-09-30T14:49:30Z</time>
      </trkpt>
      <trkpt lat="44.14867" lon="7.21045">
        <ele>2065.786004</ele>
        <time>2010-09-30T14:49:33Z</time>
      </trkpt>
      <trkpt lat="44.14864" lon="7.21044">
        <ele>2065.950794</ele>
        <time>2010-09-30T14:49:35Z</time>
      </trkpt>
      <trkpt lat="44.1486" lon="7.21042">
        <ele>2066.111884</ele>
        <time>2010-09-30T14:49:38Z</time>
      </trkpt>
      <trkpt lat="44.14857" lon="7.2104">
        <ele>2066.250607</ele>
        <time>2010-09-30T14:49:40Z</time>
      </trkpt>
      <trkpt lat="44.14855" lon="7.21038">
        <ele>2066.365724</ele>
        <time>2010-09-30T14:49:42Z</time>
      </trkpt>
      <trkpt lat="44.14852" lon="7.21037">
        <ele>2066.464618</ele>
        <time>2010-09-30T14:49:44Z</time>
      </trkpt>
      <trkpt lat="44.14848" lon="7.21036">
        <ele>2066.552484</ele>
        <time>2010-09-30T14:49:47Z</time>
      </trkpt>
      <trkpt lat="44.14845" lon="7.21035">
        <ele>2066.632863</ele>
        <time>2010-09-30T14:49:49Z</time>
      </trkpt>
      <trkpt lat="44.14841" lon="7.21035">
        <ele>2066.707616</ele>
        <time>2010-09-30T14:49:52Z</time>
      </trkpt>
      <trkpt lat="44.14837" lon="7.21035">
        <ele>2066.782513</ele>
        <time>2010-09-30T14:49:55Z</time>
      </trkpt>
      <trkpt lat="44.14832" lon="7.21035">
        <ele>2066.856245</ele>
        <time>2010-09-30T14:49:58Z</time>
      </trkpt>
      <trkpt lat="44.14828" lon="7.21036">
        <ele>2066.913006</ele>
        <time>2010-09-30T14:50:01Z</time>
      </trkpt>
      <trkpt lat="44.14823" lon="7.21038">
        <ele>2066.939808</ele>
        <time>2010-09-30T14:50:04Z</time>
      </trkpt>
      <trkpt lat="44.14818" lon="7.2104">
        <ele>2066.943789</ele>
        <time>2010-09-30T14:50:07Z</time>
      </trkpt>
      <trkpt lat="44.14815" lon="7.21041">
        <ele>2066.917826</ele>
        <time>2010-09-30T14:50:09Z</time>
      </trkpt>
      <trkpt lat="44.14809" lon="7.21043">
        <ele>2066.825015</ele>
        <time>2010-09-30T14:50:12Z</time>
      </trkpt>
      <trkpt lat="44.14802" lon="7.21044">
        <ele>2066.658641</ele>
        <time>2010-09-30T14:50:15Z</time>
      </trkpt>
      <trkpt lat="44.14797" lon="7.21045">
        <ele>2066.483191</ele>
        <time>2010-09-30T14:50:17Z</time>
      </trkpt>
      <trkpt lat="44.14792" lon="7.21047">
        <ele>2066.367033</ele>
        <time>2010-09-30T14:50:19Z</time>
      </trkpt>
      <trkpt lat="44.14787" lon="7.2105">
        <ele>2066.315289</ele>
        <time>2010-09-30T14:50:21Z</time>
      </trkpt>
      <trkpt lat="44.14779" lon="7.21052">
        <ele>2066.291456</ele>
        <time>2010-09-30T14:50:24Z</time>
      </trkpt>
      <trkpt lat="44.14771" lon="7.21054">
        <ele>2066.261197</ele>
        <time>2010-09-30T14:50:27Z</time>
      </trkpt>
      <trkpt lat="44.14765" lon="7.21057">
        <ele>2066.20411</ele>
        <time>2010-09-30T14:50:29Z</time>
      </trkpt>
      <trkpt lat="44.14758" lon="7.21061">
        <ele>2066.089337</ele>
        <time>2010-09-30T14:50:32Z</time>
      </trkpt>
      <trkpt lat="44.14753" lon="7.21063">
        <ele>2065.885851</ele>
        <time>2010-09-30T14:50:34Z</time>
      </trkpt>
      <trkpt lat="44.14748" lon="7.21067">
        <ele>2065.635207</ele>
        <time>2010-09-30T14:50:36Z</time>
      </trkpt>
      <trkpt lat="44.14743" lon="7.21075">
        <ele>2065.415327</ele>
        <time>2010-09-30T14:50:39Z</time>
      </trkpt>
      <trkpt lat="44.14739" lon="7.2108">
        <ele>2065.242935</ele>
        <time>2010-09-30T14:50:41Z</time>
      </trkpt>
      <trkpt lat="44.14735" lon="7.21088">
        <ele>2065.0945</ele>
        <time>2010-09-30T14:50:44Z</time>
      </trkpt>
      <trkpt lat="44.14732" lon="7.21094">
        <ele>2064.950251</ele>
        <time>2010-09-30T14:50:46Z</time>
      </trkpt>
      <trkpt lat="44.14729" lon="7.21105">
        <ele>2064.804532</ele>
        <time>2010-09-30T14:50:49Z</time>
      </trkpt>
      <trkpt lat="44.14727" lon="7.21113">
        <ele>2064.6636</ele>
        <time>2010-09-30T14:50:51Z</time>
      </trkpt>
      <trkpt lat="44.14726" lon="7.21126">
        <ele>2064.530234</ele>
        <time>2010-09-30T14:50:54Z</time>
      </trkpt>
      <trkpt lat="44.14724" lon="7.21134">
        <ele>2064.38374</ele>
        <time>2010-09-30T14:50:56Z</time>
      </trkpt>
      <trkpt lat="44.14723" lon="7.21141">
        <ele>2064.198085</ele>
        <time>2010-09-30T14:50:58Z</time>
      </trkpt>
      <trkpt lat="44.14722" lon="7.21152">
        <ele>2063.962471</ele>
        <time>2010-09-30T14:51:01Z</time>
      </trkpt>
      <trkpt lat="44.14722" lon="7.21159">
        <ele>2063.70081</ele>
        <time>2010-09-30T14:51:03Z</time>
      </trkpt>
      <trkpt lat="44.14723" lon="7.21165">
        <ele>2063.467859</ele>
        <time>2010-09-30T14:51:05Z</time>
      </trkpt>
      <trkpt lat="44.14723" lon="7.21177">
        <ele>2063.300823</ele>
        <time>2010-09-30T14:51:08Z</time>
      </trkpt>
      <trkpt lat="44.14723" lon="7.21187">
        <ele>2063.183175</ele>
        <time>2010-09-30T14:51:11Z</time>
      </trkpt>
      <trkpt lat="44.14723" lon="7.21198">
        <ele>2063.080577</ele>
        <time>2010-09-30T14:51:14Z</time>
      </trkpt>
      <trkpt lat="44.14723" lon="7.21208">
        <ele>2062.957833</ele>
        <time>2010-09-30T14:51:17Z</time>
      </trkpt>
      <trkpt lat="44.14723" lon="7.21213">
        <ele>2062.794418</ele>
        <time>2010-09-30T14:51:20Z</time>
      </trkpt>
      <trkpt lat="44.14723" lon="7.21217">
        <ele>2062.600689</ele>
        <time>2010-09-30T14:51:23Z</time>
      </trkpt>
      <trkpt lat="44.14722" lon="7.21223">
        <ele>2062.404638</ele>
        <time>2010-09-30T14:51:26Z</time>
      </trkpt>
      <trkpt lat="44.14722" lon="7.21229">
        <ele>2062.227489</ele>
        <time>2010-09-30T14:51:29Z</time>
      </trkpt>
      <trkpt lat="44.14721" lon="7.21233">
        <ele>2062.078727</ele>
        <time>2010-09-30T14:51:31Z</time>
      </trkpt>
      <trkpt lat="44.14721" lon="7.21237">
        <ele>2061.958755</ele>
        <time>2010-09-30T14:51:33Z</time>
      </trkpt>
      <trkpt lat="44.1472" lon="7.21244">
        <ele>2061.865888</ele>
        <time>2010-09-30T14:51:36Z</time>
      </trkpt>
      <trkpt lat="44.14719" lon="7.21253">
        <ele>2061.802542</ele>
        <time>2010-09-30T14:51:39Z</time>
      </trkpt>
      <trkpt lat="44.14718" lon="7.21258">
        <ele>2061.763258</ele>
        <time>2010-09-30T14:51:41Z</time>
      </trkpt>
      <trkpt lat="44.14717" lon="7.21266">
        <ele>2061.716358</ele>
        <time>2010-09-30T14:51:44Z</time>
      </trkpt>
      <trkpt lat="44.14715" lon="7.21272">
        <ele>2061.622428</ele>
        <time>2010-09-30T14:51:47Z</time>
      </trkpt>
      <trkpt lat="44.14712" lon="7.21278">
        <ele>2061.480896</ele>
        <time>2010-09-30T14:51:50Z</time>
      </trkpt>
      <trkpt lat="44.14711" lon="7.21282">
        <ele>2061.329281</ele>
        <time>2010-09-30T14:51:52Z</time>
      </trkpt>
      <trkpt lat="44.14709" lon="7.21288">
        <ele>2061.200687</ele>
        <time>2010-09-30T14:51:55Z</time>
      </trkpt>
      <trkpt lat="44.14707" lon="7.21293">
        <ele>2061.111104</ele>
        <time>2010-09-30T14:51:57Z</time>
      </trkpt>
      <trkpt lat="44.14705" lon="7.213">
        <ele>2061.064915</ele>
        <time>2010-09-30T14:52:00Z</time>
      </trkpt>
      <trkpt lat="44.14704" lon="7.21307">
        <ele>2061.050614</ele>
        <time>2010-09-30T14:52:03Z</time>
      </trkpt>
      <trkpt lat="44.14701" lon="7.21313">
        <ele>2061.047214</ele>
        <time>2010-09-30T14:52:06Z</time>
      </trkpt>
      <trkpt lat="44.14699" lon="7.21318">
        <ele>2061.029075</ele>
        <time>2010-09-30T14:52:09Z</time>
      </trkpt>
      <trkpt lat="44.14696" lon="7.21323">
        <ele>2060.968754</ele>
        <time>2010-09-30T14:52:12Z</time>
      </trkpt>
      <trkpt lat="44.14693" lon="7.21326">
        <ele>2060.851509</ele>
        <time>2010-09-30T14:52:15Z</time>
      </trkpt>
      <trkpt lat="44.1469" lon="7.2133">
        <ele>2060.690935</ele>
        <time>2010-09-30T14:52:18Z</time>
      </trkpt>
      <trkpt lat="44.14688" lon="7.21334">
        <ele>2060.515501</ele>
        <time>2010-09-30T14:52:20Z</time>
      </trkpt>
      <trkpt lat="44.14685" lon="7.21338">
        <ele>2060.344741</ele>
        <time>2010-09-30T14:52:22Z</time>
      </trkpt>
      <trkpt lat="44.14683" lon="7.21341">
        <ele>2060.188786</ele>
        <time>2010-09-30T14:52:24Z</time>
      </trkpt>
      <trkpt lat="44.1468" lon="7.21346">
        <ele>2060.069172</ele>
        <time>2010-09-30T14:52:27Z</time>
      </trkpt>
      <trkpt lat="44.14679" lon="7.21349">
        <ele>2060.007333</ele>
        <time>2010-09-30T14:52:29Z</time>
      </trkpt>
      <trkpt lat="44.14676" lon="7.21355">
        <ele>2059.994643</ele>
        <time>2010-09-30T14:52:32Z</time>
      </trkpt>
      <trkpt lat="44.14674" lon="7.21361">
        <ele>2059.999757</ele>
        <time>2010-09-30T14:52:35Z</time>
      </trkpt>
      <trkpt lat="44.14672" lon="7.21363">
        <ele>2060.002387</ele>
        <time>2010-09-30T14:52:37Z</time>
      </trkpt>
      <trkpt lat="44.1467" lon="7.21366">
        <ele>2059.999533</ele>
        <time>2010-09-30T14:52:39Z</time>
      </trkpt>
      <trkpt lat="44.14667" lon="7.2137">
        <ele>2059.981862</ele>
        <time>2010-09-30T14:52:42Z</time>
      </trkpt>
      <trkpt lat="44.14665" lon="7.21374">
        <ele>2059.930868</ele>
        <time>2010-09-30T14:52:44Z</time>
      </trkpt>
      <trkpt lat="44.14664" lon="7.21379">
        <ele>2059.847912</ele>
        <time>2010-09-30T14:52:47Z</time>
      </trkpt>
      <trkpt lat="44.14662" lon="7.21384">
        <ele>2059.746915</ele>
        <time>2010-09-30T14:52:50Z</time>
      </trkpt>
      <trkpt lat="44.1466" lon="7.2139">
        <ele>2059.631092</ele>
        <time>2010-09-30T14:52:53Z</time>
      </trkpt>
      <trkpt lat="44.14658" lon="7.21395">
        <ele>2059.488197</ele>
        <time>2010-09-30T14:52:56Z</time>
      </trkpt>
      <trkpt lat="44.14657" lon="7.214">
        <ele>2059.302163</ele>
        <time>2010-09-30T14:52:59Z</time>
      </trkpt>
      <trkpt lat="44.14655" lon="7.21407">
        <ele>2059.082409</ele>
        <time>2010-09-30T14:53:02Z</time>
      </trkpt>
      <trkpt lat="44.14654" lon="7.21411">
        <ele>2058.8684</ele>
        <time>2010-09-30T14:53:04Z</time>
      </trkpt>
      <trkpt lat="44.14652" lon="7.21417">
        <ele>2058.689478</ele>
        <time>2010-09-30T14:53:07Z</time>
      </trkpt>
      <trkpt lat="44.14651" lon="7.21422">
        <ele>2058.539229</ele>
        <time>2010-09-30T14:53:09Z</time>
      </trkpt>
      <trkpt lat="44.1465" lon="7.21427">
        <ele>2058.39939</ele>
        <time>2010-09-30T14:53:11Z</time>
      </trkpt>
      <trkpt lat="44.14648" lon="7.21434">
        <ele>2058.262377</ele>
        <time>2010-09-30T14:53:14Z</time>
      </trkpt>
      <trkpt lat="44.14647" lon="7.21438">
        <ele>2058.134213</ele>
        <time>2010-09-30T14:53:16Z</time>
      </trkpt>
      <trkpt lat="44.14646" lon="7.21445">
        <ele>2058.031208</ele>
        <time>2010-09-30T14:53:19Z</time>
      </trkpt>
      <trkpt lat="44.14645" lon="7.21451">
        <ele>2057.958764</ele>
        <time>2010-09-30T14:53:22Z</time>
      </trkpt>
      <trkpt lat="44.14643" lon="7.21457">
        <ele>2057.901586</ele>
        <time>2010-09-30T14:53:25Z</time>
      </trkpt>
      <trkpt lat="44.14642" lon="7.21463">
        <ele>2057.83378</ele>
        <time>2010-09-30T14:53:28Z</time>
      </trkpt>
      <trkpt lat="44.1464" lon="7.21467">
        <ele>2057.730698</ele>
        <time>2010-09-30T14:53:30Z</time>
      </trkpt>
      <trkpt lat="44.14639" lon="7.21473">
        <ele>2057.585934</ele>
        <time>2010-09-30T14:53:33Z</time>
      </trkpt>
      <trkpt lat="44.14638" lon="7.21476">
        <ele>2057.412645</ele>
        <time>2010-09-30T14:53:35Z</time>
      </trkpt>
      <trkpt lat="44.14637" lon="7.21483">
        <ele>2057.240231</ele>
        <time>2010-09-30T14:53:38Z</time>
      </trkpt>
      <trkpt lat="44.14636" lon="7.21487">
        <ele>2057.095206</ele>
        <time>2010-09-30T14:53:40Z</time>
      </trkpt>
      <trkpt lat="44.14635" lon="7.21491">
        <ele>2056.978905</ele>
        <time>2010-09-30T14:53:42Z</time>
      </trkpt>
      <trkpt lat="44.14634" lon="7.21497">
        <ele>2056.872201</ele>
        <time>2010-09-30T14:53:45Z</time>
      </trkpt>
      <trkpt lat="44.14633" lon="7.21501">
        <ele>2056.760517</ele>
        <time>2010-09-30T14:53:47Z</time>
      </trkpt>
      <trkpt lat="44.14633" lon="7.21507">
        <ele>2056.647873</ele>
        <time>2010-09-30T14:53:50Z</time>
      </trkpt>
      <trkpt lat="44.14633" lon="7.21512">
        <ele>2056.537491</ele>
        <time>2010-09-30T14:53:52Z</time>
      </trkpt>
      <trkpt lat="44.14632" lon="7.21519">
        <ele>2056.423928</ele>
        <time>2010-09-30T14:53:55Z</time>
      </trkpt>
      <trkpt lat="44.14631" lon="7.21524">
        <ele>2056.298333</ele>
        <time>2010-09-30T14:53:57Z</time>
      </trkpt>
      <trkpt lat="44.1463" lon="7.21529">
        <ele>2056.146169</ele>
        <time>2010-09-30T14:53:59Z</time>
      </trkpt>
      <trkpt lat="44.1463" lon="7.21535">
        <ele>2055.950353</ele>
        <time>2010-09-30T14:54:02Z</time>
      </trkpt>
      <trkpt lat="44.14629" lon="7.21539">
        <ele>2055.715328</ele>
        <time>2010-09-30T14:54:04Z</time>
      </trkpt>
      <trkpt lat="44.14629" lon="7.21545">
        <ele>2055.475439</ele>
        <time>2010-09-30T14:54:07Z</time>
      </trkpt>
      <trkpt lat="44.1463" lon="7.21551">
        <ele>2055.248992</ele>
        <time>2010-09-30T14:54:10Z</time>
      </trkpt>
      <trkpt lat="44.1463" lon="7.21557">
        <ele>2055.027111</ele>
        <time>2010-09-30T14:54:13Z</time>
      </trkpt>
      <trkpt lat="44.1463" lon="7.21563">
        <ele>2054.803537</ele>
        <time>2010-09-30T14:54:16Z</time>
      </trkpt>
      <trkpt lat="44.14631" lon="7.21569">
        <ele>2054.5623</ele>
        <time>2010-09-30T14:54:19Z</time>
      </trkpt>
      <trkpt lat="44.14631" lon="7.21573">
        <ele>2054.289393</ele>
        <time>2010-09-30T14:54:21Z</time>
      </trkpt>
      <trkpt lat="44.14631" lon="7.2158">
        <ele>2053.993565</ele>
        <time>2010-09-30T14:54:24Z</time>
      </trkpt>
      <trkpt lat="44.14631" lon="7.21584">
        <ele>2053.685337</ele>
        <time>2010-09-30T14:54:26Z</time>
      </trkpt>
      <trkpt lat="44.14632" lon="7.21591">
        <ele>2053.384233</ele>
        <time>2010-09-30T14:54:29Z</time>
      </trkpt>
      <trkpt lat="44.14632" lon="7.21595">
        <ele>2053.098568</ele>
        <time>2010-09-30T14:54:31Z</time>
      </trkpt>
      <trkpt lat="44.14632" lon="7.21601">
        <ele>2052.819264</ele>
        <time>2010-09-30T14:54:34Z</time>
      </trkpt>
      <trkpt lat="44.14631" lon="7.21605">
        <ele>2052.538453</ele>
        <time>2010-09-30T14:54:36Z</time>
      </trkpt>
      <trkpt lat="44.14631" lon="7.21609">
        <ele>2052.263092</ele>
        <time>2010-09-30T14:54:38Z</time>
      </trkpt>
      <trkpt lat="44.14631" lon="7.21613">
        <ele>2051.999712</ele>
        <time>2010-09-30T14:54:40Z</time>
      </trkpt>
      <trkpt lat="44.14629" lon="7.21619">
        <ele>2051.754584</ele>
        <time>2010-09-30T14:54:43Z</time>
      </trkpt>
      <trkpt lat="44.14628" lon="7.21625">
        <ele>2051.534859</ele>
        <time>2010-09-30T14:54:46Z</time>
      </trkpt>
      <trkpt lat="44.14626" lon="7.2163">
        <ele>2051.344693</ele>
        <time>2010-09-30T14:54:49Z</time>
      </trkpt>
      <trkpt lat="44.14625" lon="7.21636">
        <ele>2051.160605</ele>
        <time>2010-09-30T14:54:52Z</time>
      </trkpt>
      <trkpt lat="44.14624" lon="7.21639">
        <ele>2050.953858</ele>
        <time>2010-09-30T14:54:54Z</time>
      </trkpt>
      <trkpt lat="44.14623" lon="7.21646">
        <ele>2050.717794</ele>
        <time>2010-09-30T14:54:57Z</time>
      </trkpt>
      <trkpt lat="44.14622" lon="7.21653">
        <ele>2050.4694</ele>
        <time>2010-09-30T14:55:00Z</time>
      </trkpt>
      <trkpt lat="44.14621" lon="7.21657">
        <ele>2050.240071</ele>
        <time>2010-09-30T14:55:02Z</time>
      </trkpt>
      <trkpt lat="44.14621" lon="7.21663">
        <ele>2050.037936</ele>
        <time>2010-09-30T14:55:05Z</time>
      </trkpt>
      <trkpt lat="44.14622" lon="7.2167">
        <ele>2049.807872</ele>
        <time>2010-09-30T14:55:08Z</time>
      </trkpt>
      <trkpt lat="44.14624" lon="7.21676">
        <ele>2049.508827</ele>
        <time>2010-09-30T14:55:11Z</time>
      </trkpt>
      <trkpt lat="44.14626" lon="7.21683">
        <ele>2049.141882</ele>
        <time>2010-09-30T14:55:14Z</time>
      </trkpt>
      <trkpt lat="44.14629" lon="7.21687">
        <ele>2048.697434</ele>
        <time>2010-09-30T14:55:16Z</time>
      </trkpt>
      <trkpt lat="44.14633" lon="7.21691">
        <ele>2048.199518</ele>
        <time>2010-09-30T14:55:19Z</time>
      </trkpt>
      <trkpt lat="44.14636" lon="7.21695">
        <ele>2047.739829</ele>
        <time>2010-09-30T14:55:21Z</time>
      </trkpt>
      <trkpt lat="44.14641" lon="7.217">
        <ele>2047.405653</ele>
        <time>2010-09-30T14:55:24Z</time>
      </trkpt>
      <trkpt lat="44.14645" lon="7.21703">
        <ele>2047.216454</ele>
        <time>2010-09-30T14:55:26Z</time>
      </trkpt>
      <trkpt lat="44.14648" lon="7.21707">
        <ele>2047.120823</ele>
        <time>2010-09-30T14:55:28Z</time>
      </trkpt>
      <trkpt lat="44.14651" lon="7.21715">
        <ele>2047.06024</ele>
        <time>2010-09-30T14:55:31Z</time>
      </trkpt>
      <trkpt lat="44.14649" lon="7.21721">
        <ele>2047.016279</ele>
        <time>2010-09-30T14:55:34Z</time>
      </trkpt>
      <trkpt lat="44.14645" lon="7.21725">
        <ele>2046.992792</ele>
        <time>2010-09-30T14:55:36Z</time>
      </trkpt>
      <trkpt lat="44.14638" lon="7.21727">
        <ele>2046.987656</ele>
        <time>2010-09-30T14:55:39Z</time>
      </trkpt>
      <trkpt lat="44.14633" lon="7.21727">
        <ele>2046.999021</ele>
        <time>2010-09-30T14:55:41Z</time>
      </trkpt>
      <trkpt lat="44.14625" lon="7.21728">
        <ele>2047.032837</ele>
        <time>2010-09-30T14:55:44Z</time>
      </trkpt>
      <trkpt lat="44.14621" lon="7.21729">
        <ele>2047.078374</ele>
        <time>2010-09-30T14:55:46Z</time>
      </trkpt>
      <trkpt lat="44.14616" lon="7.21732">
        <ele>2047.110977</ele>
        <time>2010-09-30T14:55:48Z</time>
      </trkpt>
      <trkpt lat="44.14612" lon="7.21741">
        <ele>2047.122518</ele>
        <time>2010-09-30T14:55:51Z</time>
      </trkpt>
      <trkpt lat="44.14609" lon="7.21751">
        <ele>2047.11759</ele>
        <time>2010-09-30T14:55:54Z</time>
      </trkpt>
      <trkpt lat="44.14607" lon="7.21758">
        <ele>2047.094972</ele>
        <time>2010-09-30T14:55:56Z</time>
      </trkpt>
      <trkpt lat="44.14606" lon="7.21769">
        <ele>2047.051885</ele>
        <time>2010-09-30T14:55:59Z</time>
      </trkpt>
      <trkpt lat="44.14604" lon="7.21779">
        <ele>2046.987185</ele>
        <time>2010-09-30T14:56:02Z</time>
      </trkpt>
      <trkpt lat="44.14604" lon="7.21787">
        <ele>2046.899222</ele>
        <time>2010-09-30T14:56:04Z</time>
      </trkpt>
      <trkpt lat="44.14603" lon="7.21798">
        <ele>2046.76915</ele>
        <time>2010-09-30T14:56:07Z</time>
      </trkpt>
      <trkpt lat="44.14602" lon="7.21805">
        <ele>2046.576077</ele>
        <time>2010-09-30T14:56:09Z</time>
      </trkpt>
      <trkpt lat="44.146" lon="7.21814">
        <ele>2046.344842</ele>
        <time>2010-09-30T14:56:12Z</time>
      </trkpt>
      <trkpt lat="44.14598" lon="7.21819">
        <ele>2046.114136</ele>
        <time>2010-09-30T14:56:14Z</time>
      </trkpt>
      <trkpt lat="44.14596" lon="7.21825">
        <ele>2045.896067</ele>
        <time>2010-09-30T14:56:16Z</time>
      </trkpt>
      <trkpt lat="44.14594" lon="7.21832">
        <ele>2045.696465</ele>
        <time>2010-09-30T14:56:19Z</time>
      </trkpt>
      <trkpt lat="44.14593" lon="7.21838">
        <ele>2045.522284</ele>
        <time>2010-09-30T14:56:22Z</time>
      </trkpt>
      <trkpt lat="44.14592" lon="7.21843">
        <ele>2045.376281</ele>
        <time>2010-09-30T14:56:24Z</time>
      </trkpt>
      <trkpt lat="44.14591" lon="7.21851">
        <ele>2045.250226</ele>
        <time>2010-09-30T14:56:27Z</time>
      </trkpt>
      <trkpt lat="44.1459" lon="7.21859">
        <ele>2045.125126</ele>
        <time>2010-09-30T14:56:29Z</time>
      </trkpt>
      <trkpt lat="44.14589" lon="7.21867">
        <ele>2045.002474</ele>
        <time>2010-09-30T14:56:31Z</time>
      </trkpt>
      <trkpt lat="44.14588" lon="7.21876">
        <ele>2044.891396</ele>
        <time>2010-09-30T14:56:33Z</time>
      </trkpt>
      <trkpt lat="44.14587" lon="7.21885">
        <ele>2044.781534</ele>
        <time>2010-09-30T14:56:36Z</time>
      </trkpt>
      <trkpt lat="44.14586" lon="7.2189">
        <ele>2044.657401</ele>
        <time>2010-09-30T14:56:39Z</time>
      </trkpt>
      <trkpt lat="44.14582" lon="7.21896">
        <ele>2044.521875</ele>
        <time>2010-09-30T14:56:42Z</time>
      </trkpt>
      <trkpt lat="44.14579" lon="7.21901">
        <ele>2044.378676</ele>
        <time>2010-09-30T14:56:44Z</time>
      </trkpt>
      <trkpt lat="44.14576" lon="7.21905">
        <ele>2044.211558</ele>
        <time>2010-09-30T14:56:46Z</time>
      </trkpt>
      <trkpt lat="44.14571" lon="7.2191">
        <ele>2044.011843</ele>
        <time>2010-09-30T14:56:49Z</time>
      </trkpt>
      <trkpt lat="44.14568" lon="7.21913">
        <ele>2043.814751</ele>
        <time>2010-09-30T14:56:52Z</time>
      </trkpt>
      <trkpt lat="44.14565" lon="7.21916">
        <ele>2043.668526</ele>
        <time>2010-09-30T14:56:54Z</time>
      </trkpt>
      <trkpt lat="44.14562" lon="7.2192">
        <ele>2043.579997</ele>
        <time>2010-09-30T14:56:57Z</time>
      </trkpt>
      <trkpt lat="44.14559" lon="7.21925">
        <ele>2043.51276</ele>
        <time>2010-09-30T14:57:00Z</time>
      </trkpt>
      <trkpt lat="44.14557" lon="7.2193">
        <ele>2043.426216</ele>
        <time>2010-09-30T14:57:03Z</time>
      </trkpt>
      <trkpt lat="44.14555" lon="7.21934">
        <ele>2043.298535</ele>
        <time>2010-09-30T14:57:06Z</time>
      </trkpt>
      <trkpt lat="44.14553" lon="7.2194">
        <ele>2043.131386</ele>
        <time>2010-09-30T14:57:09Z</time>
      </trkpt>
      <trkpt lat="44.14552" lon="7.21944">
        <ele>2042.943428</ele>
        <time>2010-09-30T14:57:11Z</time>
      </trkpt>
      <trkpt lat="44.14551" lon="7.2195">
        <ele>2042.749463</ele>
        <time>2010-09-30T14:57:14Z</time>
      </trkpt>
      <trkpt lat="44.1455" lon="7.21955">
        <ele>2042.537807</ele>
        <time>2010-09-30T14:57:17Z</time>
      </trkpt>
      <trkpt lat="44.14548" lon="7.21959">
        <ele>2042.299973</ele>
        <time>2010-09-30T14:57:20Z</time>
      </trkpt>
      <trkpt lat="44.14546" lon="7.21964">
        <ele>2042.045816</ele>
        <time>2010-09-30T14:57:23Z</time>
      </trkpt>
      <trkpt lat="44.14545" lon="7.21968">
        <ele>2041.783533</ele>
        <time>2010-09-30T14:57:25Z</time>
      </trkpt>
      <trkpt lat="44.14543" lon="7.21973">
        <ele>2041.522982</ele>
        <time>2010-09-30T14:57:28Z</time>
      </trkpt>
      <trkpt lat="44.1454" lon="7.21979">
        <ele>2041.271327</ele>
        <time>2010-09-30T14:57:31Z</time>
      </trkpt>
      <trkpt lat="44.14538" lon="7.21983">
        <ele>2041.031148</ele>
        <time>2010-09-30T14:57:33Z</time>
      </trkpt>
      <trkpt lat="44.14535" lon="7.21986">
        <ele>2040.813761</ele>
        <time>2010-09-30T14:57:35Z</time>
      </trkpt>
      <trkpt lat="44.14533" lon="7.2199">
        <ele>2040.636885</ele>
        <time>2010-09-30T14:57:37Z</time>
      </trkpt>
      <trkpt lat="44.14531" lon="7.21997">
        <ele>2040.517044</ele>
        <time>2010-09-30T14:57:40Z</time>
      </trkpt>
      <trkpt lat="44.14529" lon="7.22002">
        <ele>2040.446141</ele>
        <time>2010-09-30T14:57:43Z</time>
      </trkpt>
      <trkpt lat="44.14527" lon="7.22006">
        <ele>2040.375399</ele>
        <time>2010-09-30T14:57:45Z</time>
      </trkpt>
      <trkpt lat="44.14525" lon="7.22009">
        <ele>2040.239377</ele>
        <time>2010-09-30T14:57:47Z</time>
      </trkpt>
      <trkpt lat="44.14524" lon="7.22013">
        <ele>2039.998294</ele>
        <time>2010-09-30T14:57:49Z</time>
      </trkpt>
      <trkpt lat="44.14522" lon="7.22018">
        <ele>2039.689424</ele>
        <time>2010-09-30T14:57:51Z</time>
      </trkpt>
      <trkpt lat="44.14519" lon="7.22028">
        <ele>2039.39599</ele>
        <time>2010-09-30T14:57:54Z</time>
      </trkpt>
      <trkpt lat="44.14517" lon="7.22039">
        <ele>2039.166726</ele>
        <time>2010-09-30T14:57:57Z</time>
      </trkpt>
      <trkpt lat="44.14515" lon="7.22049">
        <ele>2039.005596</ele>
        <time>2010-09-30T14:58:00Z</time>
      </trkpt>
      <trkpt lat="44.14514" lon="7.22055">
        <ele>2038.905306</ele>
        <time>2010-09-30T14:58:02Z</time>
      </trkpt>
      <trkpt lat="44.1451" lon="7.22065">
        <ele>2038.85072</ele>
        <time>2010-09-30T14:58:05Z</time>
      </trkpt>
      <trkpt lat="44.14508" lon="7.22071">
        <ele>2038.817848</ele>
        <time>2010-09-30T14:58:07Z</time>
      </trkpt>
      <trkpt lat="44.14507" lon="7.22078">
        <ele>2038.782992</ele>
        <time>2010-09-30T14:58:09Z</time>
      </trkpt>
      <trkpt lat="44.14505" lon="7.22088">
        <ele>2038.725147</ele>
        <time>2010-09-30T14:58:12Z</time>
      </trkpt>
      <trkpt lat="44.14502" lon="7.22098">
        <ele>2038.639523</ele>
        <time>2010-09-30T14:58:15Z</time>
      </trkpt>
      <trkpt lat="44.14501" lon="7.22105">
        <ele>2038.537947</ele>
        <time>2010-09-30T14:58:17Z</time>
      </trkpt>
      <trkpt lat="44.14499" lon="7.22114">
        <ele>2038.419792</ele>
        <time>2010-09-30T14:58:20Z</time>
      </trkpt>
      <trkpt lat="44.14498" lon="7.2212">
        <ele>2038.278714</ele>
        <time>2010-09-30T14:58:22Z</time>
      </trkpt>
      <trkpt lat="44.14497" lon="7.22125">
        <ele>2038.130526</ele>
        <time>2010-09-30T14:58:24Z</time>
      </trkpt>
      <trkpt lat="44.14496" lon="7.22136">
        <ele>2037.983341</ele>
        <time>2010-09-30T14:58:27Z</time>
      </trkpt>
      <trkpt lat="44.14498" lon="7.22143">
        <ele>2037.835152</ele>
        <time>2010-09-30T14:58:29Z</time>
      </trkpt>
      <trkpt lat="44.14503" lon="7.2215">
        <ele>2037.702899</ele>
        <time>2010-09-30T14:58:32Z</time>
      </trkpt>
      <trkpt lat="44.14508" lon="7.22153">
        <ele>2037.59286</ele>
        <time>2010-09-30T14:58:34Z</time>
      </trkpt>
      <trkpt lat="44.14514" lon="7.22158">
        <ele>2037.486443</ele>
        <time>2010-09-30T14:58:37Z</time>
      </trkpt>
      <trkpt lat="44.14517" lon="7.22163">
        <ele>2037.365084</ele>
        <time>2010-09-30T14:58:39Z</time>
      </trkpt>
      <trkpt lat="44.1452" lon="7.22172">
        <ele>2037.228016</ele>
        <time>2010-09-30T14:58:42Z</time>
      </trkpt>
      <trkpt lat="44.14524" lon="7.22181">
        <ele>2037.092184</ele>
        <time>2010-09-30T14:58:45Z</time>
      </trkpt>
      <trkpt lat="44.14526" lon="7.22187">
        <ele>2036.96869</ele>
        <time>2010-09-30T14:58:47Z</time>
      </trkpt>
      <trkpt lat="44.14527" lon="7.22193">
        <ele>2036.830756</ele>
        <time>2010-09-30T14:58:49Z</time>
      </trkpt>
      <trkpt lat="44.14528" lon="7.22202">
        <ele>2036.636048</ele>
        <time>2010-09-30T14:58:52Z</time>
      </trkpt>
      <trkpt lat="44.14528" lon="7.22208">
        <ele>2036.38615</ele>
        <time>2010-09-30T14:58:54Z</time>
      </trkpt>
      <trkpt lat="44.1453" lon="7.22215">
        <ele>2036.130788</ele>
        <time>2010-09-30T14:58:56Z</time>
      </trkpt>
      <trkpt lat="44.14531" lon="7.22222">
        <ele>2035.896061</ele>
        <time>2010-09-30T14:58:58Z</time>
      </trkpt>
      <trkpt lat="44.14531" lon="7.22233">
        <ele>2035.686827</ele>
        <time>2010-09-30T14:59:01Z</time>
      </trkpt>
      <trkpt lat="44.1453" lon="7.2224">
        <ele>2035.503523</ele>
        <time>2010-09-30T14:59:03Z</time>
      </trkpt>
      <trkpt lat="44.14528" lon="7.22251">
        <ele>2035.311395</ele>
        <time>2010-09-30T14:59:06Z</time>
      </trkpt>
      <trkpt lat="44.14527" lon="7.22263">
        <ele>2035.039573</ele>
        <time>2010-09-30T14:59:09Z</time>
      </trkpt>
      <trkpt lat="44.14526" lon="7.2227">
        <ele>2034.676517</ele>
        <time>2010-09-30T14:59:11Z</time>
      </trkpt>
      <trkpt lat="44.14526" lon="7.22281">
        <ele>2034.273698</ele>
        <time>2010-09-30T14:59:14Z</time>
      </trkpt>
      <trkpt lat="44.14526" lon="7.22288">
        <ele>2033.856746</ele>
        <time>2010-09-30T14:59:16Z</time>
      </trkpt>
      <trkpt lat="44.14525" lon="7.22296">
        <ele>2033.438722</ele>
        <time>2010-09-30T14:59:18Z</time>
      </trkpt>
      <trkpt lat="44.14524" lon="7.22307">
        <ele>2033.043229</ele>
        <time>2010-09-30T14:59:21Z</time>
      </trkpt>
      <trkpt lat="44.14521" lon="7.22313">
        <ele>2032.679474</ele>
        <time>2010-09-30T14:59:23Z</time>
      </trkpt>
      <trkpt lat="44.14515" lon="7.22319">
        <ele>2032.368668</ele>
        <time>2010-09-30T14:59:26Z</time>
      </trkpt>
      <trkpt lat="44.1451" lon="7.22321">
        <ele>2032.103481</ele>
        <time>2010-09-30T14:59:28Z</time>
      </trkpt>
      <trkpt lat="44.14504" lon="7.22322">
        <ele>2031.837506</ele>
        <time>2010-09-30T14:59:30Z</time>
      </trkpt>
      <trkpt lat="44.14496" lon="7.22324">
        <ele>2031.523199</ele>
        <time>2010-09-30T14:59:33Z</time>
      </trkpt>
      <trkpt lat="44.1449" lon="7.22325">
        <ele>2031.147579</ele>
        <time>2010-09-30T14:59:35Z</time>
      </trkpt>
      <trkpt lat="44.14481" lon="7.22325">
        <ele>2030.762592</ele>
        <time>2010-09-30T14:59:38Z</time>
      </trkpt>
      <trkpt lat="44.14475" lon="7.22327">
        <ele>2030.405845</ele>
        <time>2010-09-30T14:59:40Z</time>
      </trkpt>
      <trkpt lat="44.14467" lon="7.22338">
        <ele>2030.051003</ele>
        <time>2010-09-30T14:59:43Z</time>
      </trkpt>
      <trkpt lat="44.14465" lon="7.22346">
        <ele>2029.658071</ele>
        <time>2010-09-30T14:59:45Z</time>
      </trkpt>
      <trkpt lat="44.14463" lon="7.22354">
        <ele>2029.216311</ele>
        <time>2010-09-30T14:59:47Z</time>
      </trkpt>
      <trkpt lat="44.14464" lon="7.22367">
        <ele>2028.745662</ele>
        <time>2010-09-30T14:59:50Z</time>
      </trkpt>
      <trkpt lat="44.14468" lon="7.2238">
        <ele>2028.282189</ele>
        <time>2010-09-30T14:59:53Z</time>
      </trkpt>
      <trkpt lat="44.1447" lon="7.22391">
        <ele>2027.87544</ele>
        <time>2010-09-30T14:59:56Z</time>
      </trkpt>
      <trkpt lat="44.14471" lon="7.22398">
        <ele>2027.537012</ele>
        <time>2010-09-30T14:59:58Z</time>
      </trkpt>
      <trkpt lat="44.14472" lon="7.22405">
        <ele>2027.198783</ele>
        <time>2010-09-30T15:00:00Z</time>
      </trkpt>
      <trkpt lat="44.14473" lon="7.22415">
        <ele>2026.812202</ele>
        <time>2010-09-30T15:00:03Z</time>
      </trkpt>
      <trkpt lat="44.14474" lon="7.22422">
        <ele>2026.413072</ele>
        <time>2010-09-30T15:00:05Z</time>
      </trkpt>
      <trkpt lat="44.14474" lon="7.2243">
        <ele>2026.065756</ele>
        <time>2010-09-30T15:00:07Z</time>
      </trkpt>
      <trkpt lat="44.14475" lon="7.22437">
        <ele>2025.778073</ele>
        <time>2010-09-30T15:00:09Z</time>
      </trkpt>
      <trkpt lat="44.14476" lon="7.22448">
        <ele>2025.523226</ele>
        <time>2010-09-30T15:00:12Z</time>
      </trkpt>
      <trkpt lat="44.14476" lon="7.22455">
        <ele>2025.300467</ele>
        <time>2010-09-30T15:00:14Z</time>
      </trkpt>
      <trkpt lat="44.14477" lon="7.22465">
        <ele>2025.10488</ele>
        <time>2010-09-30T15:00:17Z</time>
      </trkpt>
      <trkpt lat="44.14479" lon="7.22477">
        <ele>2024.883509</ele>
        <time>2010-09-30T15:00:20Z</time>
      </trkpt>
      <trkpt lat="44.14482" lon="7.22484">
        <ele>2024.605061</ele>
        <time>2010-09-30T15:00:22Z</time>
      </trkpt>
      <trkpt lat="44.14484" lon="7.22492">
        <ele>2024.297041</ele>
        <time>2010-09-30T15:00:24Z</time>
      </trkpt>
      <trkpt lat="44.14488" lon="7.225">
        <ele>2023.95967</ele>
        <time>2010-09-30T15:00:27Z</time>
      </trkpt>
      <trkpt lat="44.14491" lon="7.22506">
        <ele>2023.564281</ele>
        <time>2010-09-30T15:00:29Z</time>
      </trkpt>
      <trkpt lat="44.14496" lon="7.22513">
        <ele>2023.129182</ele>
        <time>2010-09-30T15:00:32Z</time>
      </trkpt>
      <trkpt lat="44.145" lon="7.22519">
        <ele>2022.675229</ele>
        <time>2010-09-30T15:00:35Z</time>
      </trkpt>
      <trkpt lat="44.14502" lon="7.22525">
        <ele>2022.213268</ele>
        <time>2010-09-30T15:00:37Z</time>
      </trkpt>
      <trkpt lat="44.14501" lon="7.22536">
        <ele>2021.722251</ele>
        <time>2010-09-30T15:00:40Z</time>
      </trkpt>
      <trkpt lat="44.14499" lon="7.22543">
        <ele>2021.148501</ele>
        <time>2010-09-30T15:00:42Z</time>
      </trkpt>
      <trkpt lat="44.14497" lon="7.2255">
        <ele>2020.536631</ele>
        <time>2010-09-30T15:00:44Z</time>
      </trkpt>
      <trkpt lat="44.14493" lon="7.22556">
        <ele>2020.000598</ele>
        <time>2010-09-30T15:00:46Z</time>
      </trkpt>
      <trkpt lat="44.14488" lon="7.22563">
        <ele>2019.580105</ele>
        <time>2010-09-30T15:00:49Z</time>
      </trkpt>
      <trkpt lat="44.14483" lon="7.22571">
        <ele>2019.2685</ele>
        <time>2010-09-30T15:00:52Z</time>
      </trkpt>
      <trkpt lat="44.14482" lon="7.2258">
        <ele>2019.049311</ele>
        <time>2010-09-30T15:00:54Z</time>
      </trkpt>
      <trkpt lat="44.14484" lon="7.22594">
        <ele>2018.87283</ele>
        <time>2010-09-30T15:00:57Z</time>
      </trkpt>
      <trkpt lat="44.14485" lon="7.22603">
        <ele>2018.675613</ele>
        <time>2010-09-30T15:00:59Z</time>
      </trkpt>
      <trkpt lat="44.14486" lon="7.22617">
        <ele>2018.400635</ele>
        <time>2010-09-30T15:01:02Z</time>
      </trkpt>
      <trkpt lat="44.14488" lon="7.22631">
        <ele>2017.961954</ele>
        <time>2010-09-30T15:01:05Z</time>
      </trkpt>
      <trkpt lat="44.14491" lon="7.22639">
        <ele>2017.327088</ele>
        <time>2010-09-30T15:01:07Z</time>
      </trkpt>
      <trkpt lat="44.14493" lon="7.22648">
        <ele>2016.576531</ele>
        <time>2010-09-30T15:01:09Z</time>
      </trkpt>
      <trkpt lat="44.14493" lon="7.2266">
        <ele>2015.779059</ele>
        <time>2010-09-30T15:01:12Z</time>
      </trkpt>
      <trkpt lat="44.14492" lon="7.22669">
        <ele>2014.979549</ele>
        <time>2010-09-30T15:01:15Z</time>
      </trkpt>
      <trkpt lat="44.14491" lon="7.22676">
        <ele>2014.24865</ele>
        <time>2010-09-30T15:01:17Z</time>
      </trkpt>
      <trkpt lat="44.1449" lon="7.22683">
        <ele>2013.577539</ele>
        <time>2010-09-30T15:01:19Z</time>
      </trkpt>
      <trkpt lat="44.1449" lon="7.2269">
        <ele>2012.907365</ele>
        <time>2010-09-30T15:01:21Z</time>
      </trkpt>
      <trkpt lat="44.1449" lon="7.22699">
        <ele>2012.267343</ele>
        <time>2010-09-30T15:01:24Z</time>
      </trkpt>
      <trkpt lat="44.1449" lon="7.22707">
        <ele>2011.738094</ele>
        <time>2010-09-30T15:01:27Z</time>
      </trkpt>
      <trkpt lat="44.1449" lon="7.22711">
        <ele>2011.331566</ele>
        <time>2010-09-30T15:01:29Z</time>
      </trkpt>
      <trkpt lat="44.14488" lon="7.22716">
        <ele>2010.979434</ele>
        <time>2010-09-30T15:01:32Z</time>
      </trkpt>
      <trkpt lat="44.14484" lon="7.22718">
        <ele>2010.612628</ele>
        <time>2010-09-30T15:01:35Z</time>
      </trkpt>
      <trkpt lat="44.14479" lon="7.22718">
        <ele>2010.244707</ele>
        <time>2010-09-30T15:01:37Z</time>
      </trkpt>
      <trkpt lat="44.14473" lon="7.22719">
        <ele>2009.945721</ele>
        <time>2010-09-30T15:01:39Z</time>
      </trkpt>
      <trkpt lat="44.14464" lon="7.2272">
        <ele>2009.7319</ele>
        <time>2010-09-30T15:01:42Z</time>
      </trkpt>
      <trkpt lat="44.14455" lon="7.2272">
        <ele>2009.57423</ele>
        <time>2010-09-30T15:01:45Z</time>
      </trkpt>
      <trkpt lat="44.14449" lon="7.22721">
        <ele>2009.442158</ele>
        <time>2010-09-30T15:01:47Z</time>
      </trkpt>
      <trkpt lat="44.14442" lon="7.22725">
        <ele>2009.24348</ele>
        <time>2010-09-30T15:01:50Z</time>
      </trkpt>
      <trkpt lat="44.14438" lon="7.22728">
        <ele>2008.884533</ele>
        <time>2010-09-30T15:01:52Z</time>
      </trkpt>
      <trkpt lat="44.14434" lon="7.22734">
        <ele>2008.432121</ele>
        <time>2010-09-30T15:01:54Z</time>
      </trkpt>
      <trkpt lat="44.14431" lon="7.2274">
        <ele>2008.001426</ele>
        <time>2010-09-30T15:01:56Z</time>
      </trkpt>
      <trkpt lat="44.14427" lon="7.22749">
        <ele>2007.606624</ele>
        <time>2010-09-30T15:01:59Z</time>
      </trkpt>
      <trkpt lat="44.14422" lon="7.22757">
        <ele>2007.212517</ele>
        <time>2010-09-30T15:02:02Z</time>
      </trkpt>
      <trkpt lat="44.14418" lon="7.22762">
        <ele>2006.785317</ele>
        <time>2010-09-30T15:02:04Z</time>
      </trkpt>
      <trkpt lat="44.14413" lon="7.22768">
        <ele>2006.247483</ele>
        <time>2010-09-30T15:02:07Z</time>
      </trkpt>
      <trkpt lat="44.14406" lon="7.22774">
        <ele>2005.528034</ele>
        <time>2010-09-30T15:02:10Z</time>
      </trkpt>
      <trkpt lat="44.14402" lon="7.22779">
        <ele>2004.699947</ele>
        <time>2010-09-30T15:02:12Z</time>
      </trkpt>
      <trkpt lat="44.14395" lon="7.22788">
        <ele>2003.900468</ele>
        <time>2010-09-30T15:02:15Z</time>
      </trkpt>
      <trkpt lat="44.14389" lon="7.22794">
        <ele>2003.15249</ele>
        <time>2010-09-30T15:02:18Z</time>
      </trkpt>
      <trkpt lat="44.14383" lon="7.22803">
        <ele>2002.47099</ele>
        <time>2010-09-30T15:02:21Z</time>
      </trkpt>
      <trkpt lat="44.14377" lon="7.22811">
        <ele>2001.909837</ele>
        <time>2010-09-30T15:02:24Z</time>
      </trkpt>
      <trkpt lat="44.14373" lon="7.22817">
        <ele>2001.459115</ele>
        <time>2010-09-30T15:02:26Z</time>
      </trkpt>
      <trkpt lat="44.14368" lon="7.22821">
        <ele>2001.083824</ele>
        <time>2010-09-30T15:02:28Z</time>
      </trkpt>
      <trkpt lat="44.14363" lon="7.22823">
        <ele>2000.77294</ele>
        <time>2010-09-30T15:02:30Z</time>
      </trkpt>
      <trkpt lat="44.14358" lon="7.22825">
        <ele>2000.518761</ele>
        <time>2010-09-30T15:02:32Z</time>
      </trkpt>
      <trkpt lat="44.14352" lon="7.22825">
        <ele>2000.319443</ele>
        <time>2010-09-30T15:02:34Z</time>
      </trkpt>
      <trkpt lat="44.14343" lon="7.22824">
        <ele>2000.158012</ele>
        <time>2010-09-30T15:02:37Z</time>
      </trkpt>
      <trkpt lat="44.14337" lon="7.22825">
        <ele>1999.992479</ele>
        <time>2010-09-30T15:02:39Z</time>
      </trkpt>
      <trkpt lat="44.14329" lon="7.22832">
        <ele>1999.79286</ele>
        <time>2010-09-30T15:02:42Z</time>
      </trkpt>
      <trkpt lat="44.14324" lon="7.22838">
        <ele>1999.556608</ele>
        <time>2010-09-30T15:02:44Z</time>
      </trkpt>
      <trkpt lat="44.14316" lon="7.22845">
        <ele>1999.316726</ele>
        <time>2010-09-30T15:02:47Z</time>
      </trkpt>
      <trkpt lat="44.14307" lon="7.22854">
        <ele>1999.137844</ele>
        <time>2010-09-30T15:02:50Z</time>
      </trkpt>
      <trkpt lat="44.14302" lon="7.2286">
        <ele>1999.056092</ele>
        <time>2010-09-30T15:02:52Z</time>
      </trkpt>
      <trkpt lat="44.14294" lon="7.22873">
        <ele>1999.045585</ele>
        <time>2010-09-30T15:02:55Z</time>
      </trkpt>
      <trkpt lat="44.14288" lon="7.22888">
        <ele>1999.058819</ele>
        <time>2010-09-30T15:02:58Z</time>
      </trkpt>
      <trkpt lat="44.14285" lon="7.22899">
        <ele>1999.067763</ele>
        <time>2010-09-30T15:03:00Z</time>
      </trkpt>
      <trkpt lat="44.14281" lon="7.22916">
        <ele>1999.06856</ele>
        <time>2010-09-30T15:03:03Z</time>
      </trkpt>
      <trkpt lat="44.14274" lon="7.2293">
        <ele>1999.06661</ele>
        <time>2010-09-30T15:03:06Z</time>
      </trkpt>
      <trkpt lat="44.14271" lon="7.22939">
        <ele>1998.980715</ele>
        <time>2010-09-30T15:03:08Z</time>
      </trkpt>
      <trkpt lat="44.14268" lon="7.22954">
        <ele>1998.605171</ele>
        <time>2010-09-30T15:03:11Z</time>
      </trkpt>
      <trkpt lat="44.14266" lon="7.22964">
        <ele>1997.826367</ele>
        <time>2010-09-30T15:03:13Z</time>
      </trkpt>
      <trkpt lat="44.14264" lon="7.22979">
        <ele>1996.831411</ele>
        <time>2010-09-30T15:03:16Z</time>
      </trkpt>
      <trkpt lat="44.14265" lon="7.2299">
        <ele>1995.881153</ele>
        <time>2010-09-30T15:03:18Z</time>
      </trkpt>
      <trkpt lat="44.14265" lon="7.22999">
        <ele>1995.079594</ele>
        <time>2010-09-30T15:03:20Z</time>
      </trkpt>
      <trkpt lat="44.14261" lon="7.23012">
        <ele>1994.42768</ele>
        <time>2010-09-30T15:03:23Z</time>
      </trkpt>
      <trkpt lat="44.14259" lon="7.23021">
        <ele>1993.915913</ele>
        <time>2010-09-30T15:03:25Z</time>
      </trkpt>
      <trkpt lat="44.14258" lon="7.2303">
        <ele>1993.530596</ele>
        <time>2010-09-30T15:03:27Z</time>
      </trkpt>
      <trkpt lat="44.14255" lon="7.23038">
        <ele>1993.213794</ele>
        <time>2010-09-30T15:03:29Z</time>
      </trkpt>
      <trkpt lat="44.14252" lon="7.23044">
        <ele>1992.879759</ele>
        <time>2010-09-30T15:03:31Z</time>
      </trkpt>
      <trkpt lat="44.14245" lon="7.23054">
        <ele>1992.519494</ele>
        <time>2010-09-30T15:03:34Z</time>
      </trkpt>
      <trkpt lat="44.14239" lon="7.23061">
        <ele>1992.169307</ele>
        <time>2010-09-30T15:03:36Z</time>
      </trkpt>
      <trkpt lat="44.14232" lon="7.2307">
        <ele>1991.85081</ele>
        <time>2010-09-30T15:03:39Z</time>
      </trkpt>
      <trkpt lat="44.14229" lon="7.23078">
        <ele>1991.549642</ele>
        <time>2010-09-30T15:03:41Z</time>
      </trkpt>
      <trkpt lat="44.14224" lon="7.2309">
        <ele>1991.239602</ele>
        <time>2010-09-30T15:03:44Z</time>
      </trkpt>
      <trkpt lat="44.14218" lon="7.23097">
        <ele>1990.89713</ele>
        <time>2010-09-30T15:03:47Z</time>
      </trkpt>
      <trkpt lat="44.14214" lon="7.231">
        <ele>1990.501071</ele>
        <time>2010-09-30T15:03:49Z</time>
      </trkpt>
      <trkpt lat="44.14205" lon="7.23102">
        <ele>1990.039607</ele>
        <time>2010-09-30T15:03:52Z</time>
      </trkpt>
      <trkpt lat="44.14199" lon="7.23103">
        <ele>1989.527122</ele>
        <time>2010-09-30T15:03:54Z</time>
      </trkpt>
      <trkpt lat="44.14192" lon="7.23105">
        <ele>1989.031629</ele>
        <time>2010-09-30T15:03:57Z</time>
      </trkpt>
      <trkpt lat="44.14187" lon="7.23105">
        <ele>1988.635341</ele>
        <time>2010-09-30T15:04:00Z</time>
      </trkpt>
      <trkpt lat="44.14183" lon="7.23106">
        <ele>1988.350667</ele>
        <time>2010-09-30T15:04:03Z</time>
      </trkpt>
      <trkpt lat="44.14183" lon="7.23106">
        <ele>1988.140031</ele>
        <time>2010-09-30T15:04:04Z</time>
      </trkpt>
      <trkpt lat="44.14183" lon="7.23106">
        <ele>1987.949787</ele>
        <time>2010-09-30T15:04:33Z</time>
      </trkpt>
      <trkpt lat="44.14183" lon="7.23106">
        <ele>1987.748146</ele>
        <time>2010-09-30T15:06:23Z</time>
      </trkpt>
      <trkpt lat="44.14183" lon="7.23106">
        <ele>1987.374936</ele>
        <time>2010-09-30T15:06:24Z</time>
      </trkpt>
      <trkpt lat="44.13523" lon="7.23701">
        <ele>2005.059298</ele>
        <time>2010-09-30T15:45:06Z</time>
      </trkpt>
      <trkpt lat="44.1352" lon="7.23707">
        <ele>2004.673282</ele>
        <time>2010-09-30T15:45:07Z</time>
      </trkpt>
      <trkpt lat="44.1352" lon="7.23711">
        <ele>2004.186177</ele>
        <time>2010-09-30T15:45:10Z</time>
      </trkpt>
      <trkpt lat="44.1352" lon="7.23716">
        <ele>2003.634727</ele>
        <time>2010-09-30T15:45:13Z</time>
      </trkpt>
      <trkpt lat="44.13519" lon="7.2372">
        <ele>2003.101538</ele>
        <time>2010-09-30T15:45:15Z</time>
      </trkpt>
      <trkpt lat="44.13518" lon="7.23725">
        <ele>2002.49771</ele>
        <time>2010-09-30T15:45:17Z</time>
      </trkpt>
      <trkpt lat="44.13517" lon="7.23732">
        <ele>2001.702157</ele>
        <time>2010-09-30T15:45:20Z</time>
      </trkpt>
      <trkpt lat="44.13517" lon="7.23739">
        <ele>2000.803035</ele>
        <time>2010-09-30T15:45:23Z</time>
      </trkpt>
      <trkpt lat="44.13516" lon="7.23745">
        <ele>1999.951417</ele>
        <time>2010-09-30T15:45:26Z</time>
      </trkpt>
      <trkpt lat="44.13514" lon="7.2375">
        <ele>1999.158682</ele>
        <time>2010-09-30T15:45:29Z</time>
      </trkpt>
      <trkpt lat="44.13511" lon="7.23759">
        <ele>1998.32249</ele>
        <time>2010-09-30T15:45:32Z</time>
      </trkpt>
      <trkpt lat="44.13509" lon="7.23765">
        <ele>1997.435118</ele>
        <time>2010-09-30T15:45:34Z</time>
      </trkpt>
      <trkpt lat="44.13507" lon="7.23771">
        <ele>1996.589252</ele>
        <time>2010-09-30T15:45:36Z</time>
      </trkpt>
      <trkpt lat="44.13504" lon="7.2378">
        <ele>1995.857156</ele>
        <time>2010-09-30T15:45:39Z</time>
      </trkpt>
      <trkpt lat="44.13502" lon="7.2379">
        <ele>1995.2807</ele>
        <time>2010-09-30T15:45:42Z</time>
      </trkpt>
      <trkpt lat="44.13501" lon="7.23798">
        <ele>1994.873429</ele>
        <time>2010-09-30T15:45:44Z</time>
      </trkpt>
      <trkpt lat="44.135" lon="7.23806">
        <ele>1994.578971</ele>
        <time>2010-09-30T15:45:46Z</time>
      </trkpt>
      <trkpt lat="44.13499" lon="7.23812">
        <ele>1994.301523</ele>
        <time>2010-09-30T15:45:48Z</time>
      </trkpt>
      <trkpt lat="44.13495" lon="7.2382">
        <ele>1994.000716</ele>
        <time>2010-09-30T15:45:51Z</time>
      </trkpt>
      <trkpt lat="44.13491" lon="7.23826">
        <ele>1993.695063</ele>
        <time>2010-09-30T15:45:53Z</time>
      </trkpt>
      <trkpt lat="44.13488" lon="7.23832">
        <ele>1993.394906</ele>
        <time>2010-09-30T15:45:55Z</time>
      </trkpt>
      <trkpt lat="44.13484" lon="7.23841">
        <ele>1993.060461</ele>
        <time>2010-09-30T15:45:58Z</time>
      </trkpt>
      <trkpt lat="44.1348" lon="7.2385">
        <ele>1992.670119</ele>
        <time>2010-09-30T15:46:01Z</time>
      </trkpt>
      <trkpt lat="44.13478" lon="7.23855">
        <ele>1992.276888</ele>
        <time>2010-09-30T15:46:03Z</time>
      </trkpt>
      <trkpt lat="44.13474" lon="7.23863">
        <ele>1991.924957</ele>
        <time>2010-09-30T15:46:06Z</time>
      </trkpt>
      <trkpt lat="44.13471" lon="7.23872">
        <ele>1991.600632</ele>
        <time>2010-09-30T15:46:09Z</time>
      </trkpt>
      <trkpt lat="44.13469" lon="7.23883">
        <ele>1991.302183</ele>
        <time>2010-09-30T15:46:12Z</time>
      </trkpt>
      <trkpt lat="44.13466" lon="7.23894">
        <ele>1991.035094</ele>
        <time>2010-09-30T15:46:15Z</time>
      </trkpt>
      <trkpt lat="44.13463" lon="7.23901">
        <ele>1990.785358</ele>
        <time>2010-09-30T15:46:17Z</time>
      </trkpt>
      <trkpt lat="44.13458" lon="7.23908">
        <ele>1990.545444</ele>
        <time>2010-09-30T15:46:20Z</time>
      </trkpt>
      <trkpt lat="44.13455" lon="7.23913">
        <ele>1990.323932</ele>
        <time>2010-09-30T15:46:22Z</time>
      </trkpt>
      <trkpt lat="44.13452" lon="7.23919">
        <ele>1990.126688</ele>
        <time>2010-09-30T15:46:24Z</time>
      </trkpt>
      <trkpt lat="44.1345" lon="7.23928">
        <ele>1989.943983</ele>
        <time>2010-09-30T15:46:27Z</time>
      </trkpt>
      <trkpt lat="44.13449" lon="7.23934">
        <ele>1989.76425</ele>
        <time>2010-09-30T15:46:29Z</time>
      </trkpt>
      <trkpt lat="44.13448" lon="7.23943">
        <ele>1989.597111</ele>
        <time>2010-09-30T15:46:32Z</time>
      </trkpt>
      <trkpt lat="44.13447" lon="7.2395">
        <ele>1989.446728</ele>
        <time>2010-09-30T15:46:34Z</time>
      </trkpt>
      <trkpt lat="44.13448" lon="7.23962">
        <ele>1989.302731</ele>
        <time>2010-09-30T15:46:37Z</time>
      </trkpt>
      <trkpt lat="44.1345" lon="7.23976">
        <ele>1989.154407</ele>
        <time>2010-09-30T15:46:40Z</time>
      </trkpt>
      <trkpt lat="44.13451" lon="7.23983">
        <ele>1988.998544</ele>
        <time>2010-09-30T15:46:42Z</time>
      </trkpt>
      <trkpt lat="44.13452" lon="7.23994">
        <ele>1988.820117</ele>
        <time>2010-09-30T15:46:45Z</time>
      </trkpt>
      <trkpt lat="44.13453" lon="7.24006">
        <ele>1988.562358</ele>
        <time>2010-09-30T15:46:48Z</time>
      </trkpt>
      <trkpt lat="44.13454" lon="7.24015">
        <ele>1988.199294</ele>
        <time>2010-09-30T15:46:51Z</time>
      </trkpt>
      <trkpt lat="44.13455" lon="7.24022">
        <ele>1987.777046</ele>
        <time>2010-09-30T15:46:53Z</time>
      </trkpt>
      <trkpt lat="44.13456" lon="7.24028">
        <ele>1987.328904</ele>
        <time>2010-09-30T15:46:55Z</time>
      </trkpt>
      <trkpt lat="44.13457" lon="7.24038">
        <ele>1986.858124</ele>
        <time>2010-09-30T15:46:58Z</time>
      </trkpt>
      <trkpt lat="44.13457" lon="7.24048">
        <ele>1986.403018</ele>
        <time>2010-09-30T15:47:01Z</time>
      </trkpt>
      <trkpt lat="44.13455" lon="7.2406">
        <ele>1986.017102</ele>
        <time>2010-09-30T15:47:04Z</time>
      </trkpt>
      <trkpt lat="44.13452" lon="7.24068">
        <ele>1985.688995</ele>
        <time>2010-09-30T15:47:06Z</time>
      </trkpt>
      <trkpt lat="44.13449" lon="7.24076">
        <ele>1985.357792</ele>
        <time>2010-09-30T15:47:08Z</time>
      </trkpt>
      <trkpt lat="44.13446" lon="7.24087">
        <ele>1985.001597</ele>
        <time>2010-09-30T15:47:11Z</time>
      </trkpt>
      <trkpt lat="44.13445" lon="7.24094">
        <ele>1984.656024</ele>
        <time>2010-09-30T15:47:13Z</time>
      </trkpt>
      <trkpt lat="44.13444" lon="7.24105">
        <ele>1984.370702</ele>
        <time>2010-09-30T15:47:16Z</time>
      </trkpt>
      <trkpt lat="44.13442" lon="7.24116">
        <ele>1984.149498</ele>
        <time>2010-09-30T15:47:19Z</time>
      </trkpt>
      <trkpt lat="44.13439" lon="7.24122">
        <ele>1983.956347</ele>
        <time>2010-09-30T15:47:21Z</time>
      </trkpt>
      <trkpt lat="44.13436" lon="7.24131">
        <ele>1983.757224</ele>
        <time>2010-09-30T15:47:24Z</time>
      </trkpt>
      <trkpt lat="44.13432" lon="7.24139">
        <ele>1983.523292</ele>
        <time>2010-09-30T15:47:27Z</time>
      </trkpt>
      <trkpt lat="44.13427" lon="7.24147">
        <ele>1983.260897</ele>
        <time>2010-09-30T15:47:30Z</time>
      </trkpt>
      <trkpt lat="44.1342" lon="7.24155">
        <ele>1983.003006</ele>
        <time>2010-09-30T15:47:33Z</time>
      </trkpt>
      <trkpt lat="44.13412" lon="7.24164">
        <ele>1982.756898</ele>
        <time>2010-09-30T15:47:36Z</time>
      </trkpt>
      <trkpt lat="44.13406" lon="7.24174">
        <ele>1982.508473</ele>
        <time>2010-09-30T15:47:39Z</time>
      </trkpt>
      <trkpt lat="44.13402" lon="7.24184">
        <ele>1982.241007</ele>
        <time>2010-09-30T15:47:42Z</time>
      </trkpt>
      <trkpt lat="44.13397" lon="7.24194">
        <ele>1981.946814</ele>
        <time>2010-09-30T15:47:45Z</time>
      </trkpt>
      <trkpt lat="44.13392" lon="7.24202">
        <ele>1981.64092</ele>
        <time>2010-09-30T15:47:48Z</time>
      </trkpt>
      <trkpt lat="44.13388" lon="7.24209">
        <ele>1981.339967</ele>
        <time>2010-09-30T15:47:51Z</time>
      </trkpt>
      <trkpt lat="44.13385" lon="7.24213">
        <ele>1981.047792</ele>
        <time>2010-09-30T15:47:53Z</time>
      </trkpt>
      <trkpt lat="44.13382" lon="7.24215">
        <ele>1980.766044</ele>
        <time>2010-09-30T15:47:55Z</time>
      </trkpt>
      <trkpt lat="44.13375" lon="7.24217">
        <ele>1980.501723</ele>
        <time>2010-09-30T15:47:58Z</time>
      </trkpt>
      <trkpt lat="44.13368" lon="7.24218">
        <ele>1980.270922</ele>
        <time>2010-09-30T15:48:01Z</time>
      </trkpt>
      <trkpt lat="44.13363" lon="7.24222">
        <ele>1980.088177</ele>
        <time>2010-09-30T15:48:03Z</time>
      </trkpt>
      <trkpt lat="44.1336" lon="7.24227">
        <ele>1979.938573</ele>
        <time>2010-09-30T15:48:05Z</time>
      </trkpt>
      <trkpt lat="44.13357" lon="7.24232">
        <ele>1979.780275</ele>
        <time>2010-09-30T15:48:07Z</time>
      </trkpt>
      <trkpt lat="44.13354" lon="7.24237">
        <ele>1979.594472</ele>
        <time>2010-09-30T15:48:09Z</time>
      </trkpt>
      <trkpt lat="44.13351" lon="7.24241">
        <ele>1979.400063</ele>
        <time>2010-09-30T15:48:11Z</time>
      </trkpt>
      <trkpt lat="44.13346" lon="7.24248">
        <ele>1979.217672</ele>
        <time>2010-09-30T15:48:14Z</time>
      </trkpt>
      <trkpt lat="44.13342" lon="7.24252">
        <ele>1979.051057</ele>
        <time>2010-09-30T15:48:16Z</time>
      </trkpt>
      <trkpt lat="44.13337" lon="7.2426">
        <ele>1978.895436</ele>
        <time>2010-09-30T15:48:19Z</time>
      </trkpt>
      <trkpt lat="44.13332" lon="7.24266">
        <ele>1978.733966</ele>
        <time>2010-09-30T15:48:21Z</time>
      </trkpt>
      <trkpt lat="44.13324" lon="7.24274">
        <ele>1978.558202</ele>
        <time>2010-09-30T15:48:24Z</time>
      </trkpt>
      <trkpt lat="44.13319" lon="7.24282">
        <ele>1978.371931</ele>
        <time>2010-09-30T15:48:27Z</time>
      </trkpt>
      <trkpt lat="44.13316" lon="7.24288">
        <ele>1978.176992</ele>
        <time>2010-09-30T15:48:29Z</time>
      </trkpt>
      <trkpt lat="44.13314" lon="7.24295">
        <ele>1977.969691</ele>
        <time>2010-09-30T15:48:31Z</time>
      </trkpt>
      <trkpt lat="44.13313" lon="7.24305">
        <ele>1977.747405</ele>
        <time>2010-09-30T15:48:34Z</time>
      </trkpt>
      <trkpt lat="44.13313" lon="7.24316">
        <ele>1977.524518</ele>
        <time>2010-09-30T15:48:37Z</time>
      </trkpt>
      <trkpt lat="44.13313" lon="7.24327">
        <ele>1977.329405</ele>
        <time>2010-09-30T15:48:40Z</time>
      </trkpt>
      <trkpt lat="44.13313" lon="7.24334">
        <ele>1977.152912</ele>
        <time>2010-09-30T15:48:42Z</time>
      </trkpt>
      <trkpt lat="44.13313" lon="7.24341">
        <ele>1976.943402</ele>
        <time>2010-09-30T15:48:44Z</time>
      </trkpt>
      <trkpt lat="44.13313" lon="7.24349">
        <ele>1976.662139</ele>
        <time>2010-09-30T15:48:46Z</time>
      </trkpt>
      <trkpt lat="44.13312" lon="7.2436">
        <ele>1976.334151</ele>
        <time>2010-09-30T15:48:49Z</time>
      </trkpt>
      <trkpt lat="44.13312" lon="7.24366">
        <ele>1976.012569</ele>
        <time>2010-09-30T15:48:51Z</time>
      </trkpt>
      <trkpt lat="44.1331" lon="7.24376">
        <ele>1975.697291</ele>
        <time>2010-09-30T15:48:54Z</time>
      </trkpt>
      <trkpt lat="44.13309" lon="7.24382">
        <ele>1975.320894</ele>
        <time>2010-09-30T15:48:56Z</time>
      </trkpt>
      <trkpt lat="44.13308" lon="7.2439">
        <ele>1974.852149</ele>
        <time>2010-09-30T15:48:59Z</time>
      </trkpt>
      <trkpt lat="44.13307" lon="7.24399">
        <ele>1974.30856</ele>
        <time>2010-09-30T15:49:02Z</time>
      </trkpt>
      <trkpt lat="44.13305" lon="7.24409">
        <ele>1973.721463</ele>
        <time>2010-09-30T15:49:05Z</time>
      </trkpt>
      <trkpt lat="44.13303" lon="7.24415">
        <ele>1973.113271</ele>
        <time>2010-09-30T15:49:07Z</time>
      </trkpt>
      <trkpt lat="44.13301" lon="7.24425">
        <ele>1972.476958</ele>
        <time>2010-09-30T15:49:10Z</time>
      </trkpt>
      <trkpt lat="44.13299" lon="7.2443">
        <ele>1971.796196</ele>
        <time>2010-09-30T15:49:13Z</time>
      </trkpt>
      <trkpt lat="44.13296" lon="7.24436">
        <ele>1971.127912</ele>
        <time>2010-09-30T15:49:16Z</time>
      </trkpt>
      <trkpt lat="44.13295" lon="7.2444">
        <ele>1970.518286</ele>
        <time>2010-09-30T15:49:18Z</time>
      </trkpt>
      <trkpt lat="44.13294" lon="7.24446">
        <ele>1969.90931</ele>
        <time>2010-09-30T15:49:20Z</time>
      </trkpt>
      <trkpt lat="44.13292" lon="7.24455">
        <ele>1969.241153</ele>
        <time>2010-09-30T15:49:23Z</time>
      </trkpt>
      <trkpt lat="44.1329" lon="7.2446">
        <ele>1968.587899</ele>
        <time>2010-09-30T15:49:25Z</time>
      </trkpt>
      <trkpt lat="44.13285" lon="7.24468">
        <ele>1968.045356</ele>
        <time>2010-09-30T15:49:28Z</time>
      </trkpt>
      <trkpt lat="44.13283" lon="7.24473">
        <ele>1967.586858</ele>
        <time>2010-09-30T15:49:30Z</time>
      </trkpt>
      <trkpt lat="44.13281" lon="7.24479">
        <ele>1967.14324</ele>
        <time>2010-09-30T15:49:32Z</time>
      </trkpt>
      <trkpt lat="44.13279" lon="7.24491">
        <ele>1966.698437</ele>
        <time>2010-09-30T15:49:35Z</time>
      </trkpt>
      <trkpt lat="44.13278" lon="7.24499">
        <ele>1966.265723</ele>
        <time>2010-09-30T15:49:37Z</time>
      </trkpt>
      <trkpt lat="44.13276" lon="7.2451">
        <ele>1965.867615</ele>
        <time>2010-09-30T15:49:40Z</time>
      </trkpt>
      <trkpt lat="44.13272" lon="7.24519">
        <ele>1965.480976</ele>
        <time>2010-09-30T15:49:43Z</time>
      </trkpt>
      <trkpt lat="44.13268" lon="7.24528">
        <ele>1965.049339</ele>
        <time>2010-09-30T15:49:46Z</time>
      </trkpt>
      <trkpt lat="44.13265" lon="7.24533">
        <ele>1964.548226</ele>
        <time>2010-09-30T15:49:48Z</time>
      </trkpt>
      <trkpt lat="44.13263" lon="7.24539">
        <ele>1963.969233</ele>
        <time>2010-09-30T15:49:50Z</time>
      </trkpt>
      <trkpt lat="44.13261" lon="7.24546">
        <ele>1963.333585</ele>
        <time>2010-09-30T15:49:52Z</time>
      </trkpt>
      <trkpt lat="44.13258" lon="7.24555">
        <ele>1962.71687</ele>
        <time>2010-09-30T15:49:55Z</time>
      </trkpt>
      <trkpt lat="44.13255" lon="7.2456">
        <ele>1962.165292</ele>
        <time>2010-09-30T15:49:57Z</time>
      </trkpt>
      <trkpt lat="44.13252" lon="7.24565">
        <ele>1961.655422</ele>
        <time>2010-09-30T15:49:59Z</time>
      </trkpt>
      <trkpt lat="44.13249" lon="7.24573">
        <ele>1961.115921</ele>
        <time>2010-09-30T15:50:02Z</time>
      </trkpt>
      <trkpt lat="44.13248" lon="7.24579">
        <ele>1960.529688</ele>
        <time>2010-09-30T15:50:04Z</time>
      </trkpt>
      <trkpt lat="44.13246" lon="7.24585">
        <ele>1959.962794</ele>
        <time>2010-09-30T15:50:06Z</time>
      </trkpt>
      <trkpt lat="44.13245" lon="7.24595">
        <ele>1959.424842</ele>
        <time>2010-09-30T15:50:09Z</time>
      </trkpt>
      <trkpt lat="44.13242" lon="7.24605">
        <ele>1958.863409</ele>
        <time>2010-09-30T15:50:12Z</time>
      </trkpt>
      <trkpt lat="44.1324" lon="7.2461">
        <ele>1958.302517</ele>
        <time>2010-09-30T15:50:14Z</time>
      </trkpt>
      <trkpt lat="44.13235" lon="7.24618">
        <ele>1957.759348</ele>
        <time>2010-09-30T15:50:17Z</time>
      </trkpt>
      <trkpt lat="44.13232" lon="7.24623">
        <ele>1957.17219</ele>
        <time>2010-09-30T15:50:19Z</time>
      </trkpt>
      <trkpt lat="44.13226" lon="7.24629">
        <ele>1956.54187</ele>
        <time>2010-09-30T15:50:22Z</time>
      </trkpt>
      <trkpt lat="44.13222" lon="7.24631">
        <ele>1955.930594</ele>
        <time>2010-09-30T15:50:24Z</time>
      </trkpt>
      <trkpt lat="44.13218" lon="7.24634">
        <ele>1955.377644</ele>
        <time>2010-09-30T15:50:26Z</time>
      </trkpt>
      <trkpt lat="44.13211" lon="7.24639">
        <ele>1954.880441</ele>
        <time>2010-09-30T15:50:29Z</time>
      </trkpt>
      <trkpt lat="44.13206" lon="7.24646">
        <ele>1954.422652</ele>
        <time>2010-09-30T15:50:31Z</time>
      </trkpt>
      <trkpt lat="44.13201" lon="7.24655">
        <ele>1954.005794</ele>
        <time>2010-09-30T15:50:34Z</time>
      </trkpt>
      <trkpt lat="44.13198" lon="7.24661">
        <ele>1953.609159</ele>
        <time>2010-09-30T15:50:36Z</time>
      </trkpt>
      <trkpt lat="44.13195" lon="7.24667">
        <ele>1953.185016</ele>
        <time>2010-09-30T15:50:38Z</time>
      </trkpt>
      <trkpt lat="44.13189" lon="7.24672">
        <ele>1952.721775</ele>
        <time>2010-09-30T15:50:41Z</time>
      </trkpt>
      <trkpt lat="44.13182" lon="7.24677">
        <ele>1952.241895</ele>
        <time>2010-09-30T15:50:44Z</time>
      </trkpt>
      <trkpt lat="44.13177" lon="7.24681">
        <ele>1951.787382</ele>
        <time>2010-09-30T15:50:46Z</time>
      </trkpt>
      <trkpt lat="44.13173" lon="7.24685">
        <ele>1951.365854</ele>
        <time>2010-09-30T15:50:49Z</time>
      </trkpt>
      <trkpt lat="44.1317" lon="7.24689">
        <ele>1950.931541</ele>
        <time>2010-09-30T15:50:51Z</time>
      </trkpt>
      <trkpt lat="44.13167" lon="7.24691">
        <ele>1950.489421</ele>
        <time>2010-09-30T15:50:53Z</time>
      </trkpt>
      <trkpt lat="44.13161" lon="7.24697">
        <ele>1950.078203</ele>
        <time>2010-09-30T15:50:56Z</time>
      </trkpt>
      <trkpt lat="44.13157" lon="7.24701">
        <ele>1949.711341</ele>
        <time>2010-09-30T15:50:58Z</time>
      </trkpt>
      <trkpt lat="44.13151" lon="7.24708">
        <ele>1949.393312</ele>
        <time>2010-09-30T15:51:01Z</time>
      </trkpt>
      <trkpt lat="44.13147" lon="7.24712">
        <ele>1949.10174</ele>
        <time>2010-09-30T15:51:03Z</time>
      </trkpt>
      <trkpt lat="44.13143" lon="7.24715">
        <ele>1948.800155</ele>
        <time>2010-09-30T15:51:05Z</time>
      </trkpt>
      <trkpt lat="44.13136" lon="7.24722">
        <ele>1948.47916</ele>
        <time>2010-09-30T15:51:08Z</time>
      </trkpt>
      <trkpt lat="44.13128" lon="7.24731">
        <ele>1948.146039</ele>
        <time>2010-09-30T15:51:11Z</time>
      </trkpt>
      <trkpt lat="44.1312" lon="7.24737">
        <ele>1947.82029</ele>
        <time>2010-09-30T15:51:14Z</time>
      </trkpt>
      <trkpt lat="44.13115" lon="7.24739">
        <ele>1947.49415</ele>
        <time>2010-09-30T15:51:16Z</time>
      </trkpt>
      <trkpt lat="44.13111" lon="7.24743">
        <ele>1947.107485</ele>
        <time>2010-09-30T15:51:18Z</time>
      </trkpt>
      <trkpt lat="44.13106" lon="7.24749">
        <ele>1946.605973</ele>
        <time>2010-09-30T15:51:21Z</time>
      </trkpt>
      <trkpt lat="44.13102" lon="7.24755">
        <ele>1946.02159</ele>
        <time>2010-09-30T15:51:24Z</time>
      </trkpt>
      <trkpt lat="44.13101" lon="7.24761">
        <ele>1945.467975</ele>
        <time>2010-09-30T15:51:26Z</time>
      </trkpt>
      <trkpt lat="44.13099" lon="7.24766">
        <ele>1944.990021</ele>
        <time>2010-09-30T15:51:28Z</time>
      </trkpt>
      <trkpt lat="44.13096" lon="7.24772">
        <ele>1944.527256</ele>
        <time>2010-09-30T15:51:31Z</time>
      </trkpt>
      <trkpt lat="44.13095" lon="7.24779">
        <ele>1944.056411</ele>
        <time>2010-09-30T15:51:34Z</time>
      </trkpt>
      <trkpt lat="44.13092" lon="7.24789">
        <ele>1943.611474</ele>
        <time>2010-09-30T15:51:37Z</time>
      </trkpt>
      <trkpt lat="44.13091" lon="7.24796">
        <ele>1943.182474</ele>
        <time>2010-09-30T15:51:39Z</time>
      </trkpt>
      <trkpt lat="44.1309" lon="7.24804">
        <ele>1942.697846</ele>
        <time>2010-09-30T15:51:41Z</time>
      </trkpt>
      <trkpt lat="44.13086" lon="7.24814">
        <ele>1942.096503</ele>
        <time>2010-09-30T15:51:44Z</time>
      </trkpt>
      <trkpt lat="44.13084" lon="7.24822">
        <ele>1941.418066</ele>
        <time>2010-09-30T15:51:46Z</time>
      </trkpt>
      <trkpt lat="44.13082" lon="7.24828">
        <ele>1940.768656</ele>
        <time>2010-09-30T15:51:48Z</time>
      </trkpt>
      <trkpt lat="44.13078" lon="7.24833">
        <ele>1940.157371</ele>
        <time>2010-09-30T15:51:51Z</time>
      </trkpt>
      <trkpt lat="44.13073" lon="7.24834">
        <ele>1939.523215</ele>
        <time>2010-09-30T15:51:53Z</time>
      </trkpt>
      <trkpt lat="44.13067" lon="7.24836">
        <ele>1938.879358</ele>
        <time>2010-09-30T15:51:56Z</time>
      </trkpt>
      <trkpt lat="44.13062" lon="7.24844">
        <ele>1938.219558</ele>
        <time>2010-09-30T15:51:59Z</time>
      </trkpt>
      <trkpt lat="44.13059" lon="7.24852">
        <ele>1937.516049</ele>
        <time>2010-09-30T15:52:02Z</time>
      </trkpt>
      <trkpt lat="44.13057" lon="7.24857">
        <ele>1936.804185</ele>
        <time>2010-09-30T15:52:04Z</time>
      </trkpt>
      <trkpt lat="44.13051" lon="7.24861">
        <ele>1936.10722</ele>
        <time>2010-09-30T15:52:07Z</time>
      </trkpt>
      <trkpt lat="44.13046" lon="7.24866">
        <ele>1935.412759</ele>
        <time>2010-09-30T15:52:09Z</time>
      </trkpt>
      <trkpt lat="44.13041" lon="7.24877">
        <ele>1934.762711</ele>
        <time>2010-09-30T15:52:12Z</time>
      </trkpt>
      <trkpt lat="44.13039" lon="7.24883">
        <ele>1934.180369</ele>
        <time>2010-09-30T15:52:14Z</time>
      </trkpt>
      <trkpt lat="44.13033" lon="7.2489">
        <ele>1933.627741</ele>
        <time>2010-09-30T15:52:17Z</time>
      </trkpt>
      <trkpt lat="44.13031" lon="7.24895">
        <ele>1933.042606</ele>
        <time>2010-09-30T15:52:19Z</time>
      </trkpt>
      <trkpt lat="44.13028" lon="7.24902">
        <ele>1932.425112</ele>
        <time>2010-09-30T15:52:21Z</time>
      </trkpt>
      <trkpt lat="44.13024" lon="7.24913">
        <ele>1931.82638</ele>
        <time>2010-09-30T15:52:24Z</time>
      </trkpt>
      <trkpt lat="44.13023" lon="7.2492">
        <ele>1931.288905</ele>
        <time>2010-09-30T15:52:27Z</time>
      </trkpt>
      <trkpt lat="44.1302" lon="7.24924">
        <ele>1930.795027</ele>
        <time>2010-09-30T15:52:30Z</time>
      </trkpt>
      <trkpt lat="44.13015" lon="7.24928">
        <ele>1930.241237</ele>
        <time>2010-09-30T15:52:33Z</time>
      </trkpt>
      <trkpt lat="44.13011" lon="7.24929">
        <ele>1929.49721</ele>
        <time>2010-09-30T15:52:35Z</time>
      </trkpt>
      <trkpt lat="44.13007" lon="7.2493">
        <ele>1928.568935</ele>
        <time>2010-09-30T15:52:37Z</time>
      </trkpt>
      <trkpt lat="44.13001" lon="7.24931">
        <ele>1927.565659</ele>
        <time>2010-09-30T15:52:40Z</time>
      </trkpt>
      <trkpt lat="44.12997" lon="7.24935">
        <ele>1926.613489</ele>
        <time>2010-09-30T15:52:42Z</time>
      </trkpt>
      <trkpt lat="44.12989" lon="7.24941">
        <ele>1925.815766</ele>
        <time>2010-09-30T15:52:45Z</time>
      </trkpt>
      <trkpt lat="44.12982" lon="7.24947">
        <ele>1925.149732</ele>
        <time>2010-09-30T15:52:48Z</time>
      </trkpt>
      <trkpt lat="44.12978" lon="7.2495">
        <ele>1924.522036</ele>
        <time>2010-09-30T15:52:50Z</time>
      </trkpt>
      <trkpt lat="44.12974" lon="7.24954">
        <ele>1923.841067</ele>
        <time>2010-09-30T15:52:53Z</time>
      </trkpt>
      <trkpt lat="44.1297" lon="7.24957">
        <ele>1923.015458</ele>
        <time>2010-09-30T15:52:56Z</time>
      </trkpt>
      <trkpt lat="44.12966" lon="7.24962">
        <ele>1922.097592</ele>
        <time>2010-09-30T15:52:59Z</time>
      </trkpt>
      <trkpt lat="44.12961" lon="7.24971">
        <ele>1921.224431</ele>
        <time>2010-09-30T15:53:02Z</time>
      </trkpt>
      <trkpt lat="44.12955" lon="7.24981">
        <ele>1920.378786</ele>
        <time>2010-09-30T15:53:05Z</time>
      </trkpt>
      <trkpt lat="44.12951" lon="7.24987">
        <ele>1919.497733</ele>
        <time>2010-09-30T15:53:07Z</time>
      </trkpt>
      <trkpt lat="44.12947" lon="7.24994">
        <ele>1918.614039</ele>
        <time>2010-09-30T15:53:09Z</time>
      </trkpt>
      <trkpt lat="44.12944" lon="7.25">
        <ele>1917.778439</ele>
        <time>2010-09-30T15:53:11Z</time>
      </trkpt>
      <trkpt lat="44.12939" lon="7.25008">
        <ele>1917.039803</ele>
        <time>2010-09-30T15:53:14Z</time>
      </trkpt>
      <trkpt lat="44.12933" lon="7.25014">
        <ele>1916.447351</ele>
        <time>2010-09-30T15:53:17Z</time>
      </trkpt>
      <trkpt lat="44.12929" lon="7.25018">
        <ele>1915.993669</ele>
        <time>2010-09-30T15:53:19Z</time>
      </trkpt>
      <trkpt lat="44.12924" lon="7.25024">
        <ele>1915.604602</ele>
        <time>2010-09-30T15:53:22Z</time>
      </trkpt>
      <trkpt lat="44.12922" lon="7.25033">
        <ele>1915.203569</ele>
        <time>2010-09-30T15:53:25Z</time>
      </trkpt>
      <trkpt lat="44.1292" lon="7.2504">
        <ele>1914.781435</ele>
        <time>2010-09-30T15:53:27Z</time>
      </trkpt>
      <trkpt lat="44.12916" lon="7.25049">
        <ele>1914.368707</ele>
        <time>2010-09-30T15:53:30Z</time>
      </trkpt>
      <trkpt lat="44.12915" lon="7.25055">
        <ele>1913.952439</ele>
        <time>2010-09-30T15:53:32Z</time>
      </trkpt>
      <trkpt lat="44.12911" lon="7.25064">
        <ele>1913.528648</ele>
        <time>2010-09-30T15:53:35Z</time>
      </trkpt>
      <trkpt lat="44.12906" lon="7.25071">
        <ele>1913.124671</ele>
        <time>2010-09-30T15:53:38Z</time>
      </trkpt>
      <trkpt lat="44.12902" lon="7.25075">
        <ele>1912.742864</ele>
        <time>2010-09-30T15:53:40Z</time>
      </trkpt>
      <trkpt lat="44.12895" lon="7.25081">
        <ele>1912.360312</ele>
        <time>2010-09-30T15:53:43Z</time>
      </trkpt>
      <trkpt lat="44.12891" lon="7.25082">
        <ele>1911.963985</ele>
        <time>2010-09-30T15:53:45Z</time>
      </trkpt>
      <trkpt lat="44.12885" lon="7.25085">
        <ele>1911.578732</ele>
        <time>2010-09-30T15:53:48Z</time>
      </trkpt>
      <trkpt lat="44.12882" lon="7.2509">
        <ele>1911.218038</ele>
        <time>2010-09-30T15:53:50Z</time>
      </trkpt>
      <trkpt lat="44.12879" lon="7.251">
        <ele>1910.854973</ele>
        <time>2010-09-30T15:53:53Z</time>
      </trkpt>
      <trkpt lat="44.12877" lon="7.25104">
        <ele>1910.471657</ele>
        <time>2010-09-30T15:53:55Z</time>
      </trkpt>
      <trkpt lat="44.12875" lon="7.25108">
        <ele>1910.047633</ele>
        <time>2010-09-30T15:53:59Z</time>
      </trkpt>
      <trkpt lat="44.12874" lon="7.25114">
        <ele>1909.506061</ele>
        <time>2010-09-30T15:54:02Z</time>
      </trkpt>
      <trkpt lat="44.12873" lon="7.2512">
        <ele>1908.823361</ele>
        <time>2010-09-30T15:54:05Z</time>
      </trkpt>
      <trkpt lat="44.12869" lon="7.25128">
        <ele>1908.051598</ele>
        <time>2010-09-30T15:54:08Z</time>
      </trkpt>
      <trkpt lat="44.12866" lon="7.25136">
        <ele>1907.211214</ele>
        <time>2010-09-30T15:54:10Z</time>
      </trkpt>
      <trkpt lat="44.12862" lon="7.25145">
        <ele>1906.269293</ele>
        <time>2010-09-30T15:54:13Z</time>
      </trkpt>
      <trkpt lat="44.12861" lon="7.25154">
        <ele>1905.244708</ele>
        <time>2010-09-30T15:54:16Z</time>
      </trkpt>
      <trkpt lat="44.12859" lon="7.25162">
        <ele>1904.259884</ele>
        <time>2010-09-30T15:54:18Z</time>
      </trkpt>
      <trkpt lat="44.12858" lon="7.25172">
        <ele>1903.424499</ele>
        <time>2010-09-30T15:54:21Z</time>
      </trkpt>
      <trkpt lat="44.12856" lon="7.25178">
        <ele>1902.68505</ele>
        <time>2010-09-30T15:54:23Z</time>
      </trkpt>
      <trkpt lat="44.12855" lon="7.25185">
        <ele>1901.975149</ele>
        <time>2010-09-30T15:54:26Z</time>
      </trkpt>
      <trkpt lat="44.12854" lon="7.25189">
        <ele>1901.295707</ele>
        <time>2010-09-30T15:54:28Z</time>
      </trkpt>
      <trkpt lat="44.12852" lon="7.25196">
        <ele>1900.638352</ele>
        <time>2010-09-30T15:54:31Z</time>
      </trkpt>
      <trkpt lat="44.1285" lon="7.25203">
        <ele>1899.944088</ele>
        <time>2010-09-30T15:54:33Z</time>
      </trkpt>
      <trkpt lat="44.12847" lon="7.25214">
        <ele>1899.169396</ele>
        <time>2010-09-30T15:54:36Z</time>
      </trkpt>
      <trkpt lat="44.12844" lon="7.25221">
        <ele>1898.33223</ele>
        <time>2010-09-30T15:54:38Z</time>
      </trkpt>
      <trkpt lat="44.12842" lon="7.25227">
        <ele>1897.509166</ele>
        <time>2010-09-30T15:54:40Z</time>
      </trkpt>
      <trkpt lat="44.12838" lon="7.25233">
        <ele>1896.75334</ele>
        <time>2010-09-30T15:54:43Z</time>
      </trkpt>
      <trkpt lat="44.12835" lon="7.25238">
        <ele>1896.086298</ele>
        <time>2010-09-30T15:54:45Z</time>
      </trkpt>
      <trkpt lat="44.12831" lon="7.25248">
        <ele>1895.507549</ele>
        <time>2010-09-30T15:54:48Z</time>
      </trkpt>
      <trkpt lat="44.12829" lon="7.25254">
        <ele>1894.979315</ele>
        <time>2010-09-30T15:54:50Z</time>
      </trkpt>
      <trkpt lat="44.12826" lon="7.25264">
        <ele>1894.451624</ele>
        <time>2010-09-30T15:54:53Z</time>
      </trkpt>
      <trkpt lat="44.12821" lon="7.25273">
        <ele>1893.920807</ele>
        <time>2010-09-30T15:54:56Z</time>
      </trkpt>
      <trkpt lat="44.12818" lon="7.25279">
        <ele>1893.406058</ele>
        <time>2010-09-30T15:54:58Z</time>
      </trkpt>
      <trkpt lat="44.12813" lon="7.25286">
        <ele>1892.917329</ele>
        <time>2010-09-30T15:55:01Z</time>
      </trkpt>
      <trkpt lat="44.1281" lon="7.2529">
        <ele>1892.401044</ele>
        <time>2010-09-30T15:55:04Z</time>
      </trkpt>
      <trkpt lat="44.12806" lon="7.25296">
        <ele>1891.783066</ele>
        <time>2010-09-30T15:55:07Z</time>
      </trkpt>
      <trkpt lat="44.12803" lon="7.25301">
        <ele>1891.017549</ele>
        <time>2010-09-30T15:55:09Z</time>
      </trkpt>
      <trkpt lat="44.12799" lon="7.25307">
        <ele>1890.054195</ele>
        <time>2010-09-30T15:55:12Z</time>
      </trkpt>
      <trkpt lat="44.12797" lon="7.2531">
        <ele>1888.907576</ele>
        <time>2010-09-30T15:55:14Z</time>
      </trkpt>
      <trkpt lat="44.12793" lon="7.25315">
        <ele>1887.717656</ele>
        <time>2010-09-30T15:55:17Z</time>
      </trkpt>
      <trkpt lat="44.12791" lon="7.25319">
        <ele>1886.571869</ele>
        <time>2010-09-30T15:55:19Z</time>
      </trkpt>
      <trkpt lat="44.12788" lon="7.25324">
        <ele>1885.459272</ele>
        <time>2010-09-30T15:55:22Z</time>
      </trkpt>
      <trkpt lat="44.12786" lon="7.25327">
        <ele>1884.373414</ele>
        <time>2010-09-30T15:55:24Z</time>
      </trkpt>
      <trkpt lat="44.12784" lon="7.25331">
        <ele>1883.376464</ele>
        <time>2010-09-30T15:55:27Z</time>
      </trkpt>
      <trkpt lat="44.12781" lon="7.25338">
        <ele>1882.531445</ele>
        <time>2010-09-30T15:55:30Z</time>
      </trkpt>
      <trkpt lat="44.1278" lon="7.25345">
        <ele>1881.870473</ele>
        <time>2010-09-30T15:55:33Z</time>
      </trkpt>
      <trkpt lat="44.12779" lon="7.25351">
        <ele>1881.361536</ele>
        <time>2010-09-30T15:55:35Z</time>
      </trkpt>
      <trkpt lat="44.12778" lon="7.25358">
        <ele>1880.92497</ele>
        <time>2010-09-30T15:55:37Z</time>
      </trkpt>
      <trkpt lat="44.12774" lon="7.25367">
        <ele>1880.476334</ele>
        <time>2010-09-30T15:55:40Z</time>
      </trkpt>
      <trkpt lat="44.12772" lon="7.25373">
        <ele>1879.998792</ele>
        <time>2010-09-30T15:55:42Z</time>
      </trkpt>
      <trkpt lat="44.1277" lon="7.25377">
        <ele>1879.489802</ele>
        <time>2010-09-30T15:55:44Z</time>
      </trkpt>
      <trkpt lat="44.12768" lon="7.25389">
        <ele>1878.906314</ele>
        <time>2010-09-30T15:55:47Z</time>
      </trkpt>
      <trkpt lat="44.12767" lon="7.25399">
        <ele>1878.252849</ele>
        <time>2010-09-30T15:55:49Z</time>
      </trkpt>
      <trkpt lat="44.12766" lon="7.25409">
        <ele>1877.636294</ele>
        <time>2010-09-30T15:55:51Z</time>
      </trkpt>
      <trkpt lat="44.12761" lon="7.25422">
        <ele>1877.113463</ele>
        <time>2010-09-30T15:55:54Z</time>
      </trkpt>
      <trkpt lat="44.12758" lon="7.25429">
        <ele>1876.642821</ele>
        <time>2010-09-30T15:55:56Z</time>
      </trkpt>
      <trkpt lat="44.12755" lon="7.25434">
        <ele>1876.192096</ele>
        <time>2010-09-30T15:55:58Z</time>
      </trkpt>
      <trkpt lat="44.12751" lon="7.25439">
        <ele>1875.718474</ele>
        <time>2010-09-30T15:56:01Z</time>
      </trkpt>
      <trkpt lat="44.12748" lon="7.25442">
        <ele>1875.177261</ele>
        <time>2010-09-30T15:56:03Z</time>
      </trkpt>
      <trkpt lat="44.12745" lon="7.25446">
        <ele>1874.58909</ele>
        <time>2010-09-30T15:56:05Z</time>
      </trkpt>
      <trkpt lat="44.12742" lon="7.2545">
        <ele>1873.927606</ele>
        <time>2010-09-30T15:56:07Z</time>
      </trkpt>
      <trkpt lat="44.12738" lon="7.25456">
        <ele>1873.150824</ele>
        <time>2010-09-30T15:56:10Z</time>
      </trkpt>
      <trkpt lat="44.12734" lon="7.25462">
        <ele>1872.333734</ele>
        <time>2010-09-30T15:56:13Z</time>
      </trkpt>
      <trkpt lat="44.12731" lon="7.25467">
        <ele>1871.563245</ele>
        <time>2010-09-30T15:56:16Z</time>
      </trkpt>
      <trkpt lat="44.12729" lon="7.25474">
        <ele>1870.804505</ele>
        <time>2010-09-30T15:56:19Z</time>
      </trkpt>
      <trkpt lat="44.12728" lon="7.25484">
        <ele>1869.993575</ele>
        <time>2010-09-30T15:56:22Z</time>
      </trkpt>
      <trkpt lat="44.12727" lon="7.25495">
        <ele>1869.155243</ele>
        <time>2010-09-30T15:56:25Z</time>
      </trkpt>
      <trkpt lat="44.12727" lon="7.25501">
        <ele>1868.378139</ele>
        <time>2010-09-30T15:56:27Z</time>
      </trkpt>
      <trkpt lat="44.12726" lon="7.25506">
        <ele>1867.676021</ele>
        <time>2010-09-30T15:56:29Z</time>
      </trkpt>
      <trkpt lat="44.12726" lon="7.2551">
        <ele>1866.907075</ele>
        <time>2010-09-30T15:56:32Z</time>
      </trkpt>
      <trkpt lat="44.12728" lon="7.25514">
        <ele>1865.955852</ele>
        <time>2010-09-30T15:56:36Z</time>
      </trkpt>
      <trkpt lat="44.12729" lon="7.25519">
        <ele>1864.928885</ele>
        <time>2010-09-30T15:56:39Z</time>
      </trkpt>
      <trkpt lat="44.12729" lon="7.25526">
        <ele>1863.93324</ele>
        <time>2010-09-30T15:56:42Z</time>
      </trkpt>
      <trkpt lat="44.12727" lon="7.25531">
        <ele>1862.878894</ele>
        <time>2010-09-30T15:56:44Z</time>
      </trkpt>
      <trkpt lat="44.12724" lon="7.25539">
        <ele>1861.71194</ele>
        <time>2010-09-30T15:56:47Z</time>
      </trkpt>
      <trkpt lat="44.12723" lon="7.25544">
        <ele>1860.501378</ele>
        <time>2010-09-30T15:56:49Z</time>
      </trkpt>
      <trkpt lat="44.12721" lon="7.25554">
        <ele>1859.357263</ele>
        <time>2010-09-30T15:56:52Z</time>
      </trkpt>
      <trkpt lat="44.1272" lon="7.25561">
        <ele>1858.346126</ele>
        <time>2010-09-30T15:56:54Z</time>
      </trkpt>
      <trkpt lat="44.12719" lon="7.25569">
        <ele>1857.483932</ele>
        <time>2010-09-30T15:56:56Z</time>
      </trkpt>
      <trkpt lat="44.12719" lon="7.25581">
        <ele>1856.748768</ele>
        <time>2010-09-30T15:56:59Z</time>
      </trkpt>
      <trkpt lat="44.12717" lon="7.25589">
        <ele>1856.11194</ele>
        <time>2010-09-30T15:57:01Z</time>
      </trkpt>
      <trkpt lat="44.12714" lon="7.25601">
        <ele>1855.558992</ele>
        <time>2010-09-30T15:57:04Z</time>
      </trkpt>
      <trkpt lat="44.12716" lon="7.2561">
        <ele>1855.069779</ele>
        <time>2010-09-30T15:57:06Z</time>
      </trkpt>
      <trkpt lat="44.1272" lon="7.25624">
        <ele>1854.60567</ele>
        <time>2010-09-30T15:57:09Z</time>
      </trkpt>
      <trkpt lat="44.1272" lon="7.25629">
        <ele>1854.147672</ele>
        <time>2010-09-30T15:57:11Z</time>
      </trkpt>
      <trkpt lat="44.12718" lon="7.25634">
        <ele>1853.64436</ele>
        <time>2010-09-30T15:57:13Z</time>
      </trkpt>
      <trkpt lat="44.12716" lon="7.25639">
        <ele>1852.928489</ele>
        <time>2010-09-30T15:57:15Z</time>
      </trkpt>
      <trkpt lat="44.12715" lon="7.25646">
        <ele>1851.833676</ele>
        <time>2010-09-30T15:57:17Z</time>
      </trkpt>
      <trkpt lat="44.12712" lon="7.25657">
        <ele>1850.36911</ele>
        <time>2010-09-30T15:57:20Z</time>
      </trkpt>
      <trkpt lat="44.12709" lon="7.25668">
        <ele>1848.659763</ele>
        <time>2010-09-30T15:57:23Z</time>
      </trkpt>
      <trkpt lat="44.12706" lon="7.25677">
        <ele>1846.779125</ele>
        <time>2010-09-30T15:57:26Z</time>
      </trkpt>
      <trkpt lat="44.12704" lon="7.25682">
        <ele>1844.623891</ele>
        <time>2010-09-30T15:57:28Z</time>
      </trkpt>
      <trkpt lat="44.12702" lon="7.2569">
        <ele>1842.001396</ele>
        <time>2010-09-30T15:57:31Z</time>
      </trkpt>
      <trkpt lat="44.12701" lon="7.25695">
        <ele>1838.954059</ele>
        <time>2010-09-30T15:57:33Z</time>
      </trkpt>
      <trkpt lat="44.12698" lon="7.25703">
        <ele>1835.894969</ele>
        <time>2010-09-30T15:57:36Z</time>
      </trkpt>
      <trkpt lat="44.12696" lon="7.25708">
        <ele>1833.182866</ele>
        <time>2010-09-30T15:57:38Z</time>
      </trkpt>
      <trkpt lat="44.12694" lon="7.25711">
        <ele>1830.914024</ele>
        <time>2010-09-30T15:57:40Z</time>
      </trkpt>
      <trkpt lat="44.12693" lon="7.25715">
        <ele>1829.042514</ele>
        <time>2010-09-30T15:57:43Z</time>
      </trkpt>
      <trkpt lat="44.1269" lon="7.2572">
        <ele>1827.510009</ele>
        <time>2010-09-30T15:57:46Z</time>
      </trkpt>
      <trkpt lat="44.12688" lon="7.25725">
        <ele>1826.278101</ele>
        <time>2010-09-30T15:57:49Z</time>
      </trkpt>
      <trkpt lat="44.12687" lon="7.25729">
        <ele>1825.250887</ele>
        <time>2010-09-30T15:57:51Z</time>
      </trkpt>
      <trkpt lat="44.12683" lon="7.25734">
        <ele>1824.225336</ele>
        <time>2010-09-30T15:57:54Z</time>
      </trkpt>
      <trkpt lat="44.12681" lon="7.25737">
        <ele>1823.15143</ele>
        <time>2010-09-30T15:57:56Z</time>
      </trkpt>
      <trkpt lat="44.12677" lon="7.25742">
        <ele>1822.160491</ele>
        <time>2010-09-30T15:57:59Z</time>
      </trkpt>
      <trkpt lat="44.12674" lon="7.25746">
        <ele>1821.338088</ele>
        <time>2010-09-30T15:58:01Z</time>
      </trkpt>
      <trkpt lat="44.12669" lon="7.25751">
        <ele>1820.660004</ele>
        <time>2010-09-30T15:58:04Z</time>
      </trkpt>
      <trkpt lat="44.12665" lon="7.25755">
        <ele>1820.059759</ele>
        <time>2010-09-30T15:58:06Z</time>
      </trkpt>
      <trkpt lat="44.12659" lon="7.25763">
        <ele>1819.491819</ele>
        <time>2010-09-30T15:58:09Z</time>
      </trkpt>
      <trkpt lat="44.12653" lon="7.25768">
        <ele>1818.930575</ele>
        <time>2010-09-30T15:58:11Z</time>
      </trkpt>
      <trkpt lat="44.12645" lon="7.25773">
        <ele>1818.388117</ele>
        <time>2010-09-30T15:58:14Z</time>
      </trkpt>
      <trkpt lat="44.12637" lon="7.25775">
        <ele>1817.872342</ele>
        <time>2010-09-30T15:58:17Z</time>
      </trkpt>
      <trkpt lat="44.12629" lon="7.25776">
        <ele>1817.393972</ele>
        <time>2010-09-30T15:58:20Z</time>
      </trkpt>
      <trkpt lat="44.12621" lon="7.2578">
        <ele>1816.955446</ele>
        <time>2010-09-30T15:58:23Z</time>
      </trkpt>
      <trkpt lat="44.12615" lon="7.25785">
        <ele>1816.541624</ele>
        <time>2010-09-30T15:58:26Z</time>
      </trkpt>
      <trkpt lat="44.12613" lon="7.25791">
        <ele>1816.11955</ele>
        <time>2010-09-30T15:58:28Z</time>
      </trkpt>
      <trkpt lat="44.1261" lon="7.258">
        <ele>1815.681994</ele>
        <time>2010-09-30T15:58:31Z</time>
      </trkpt>
      <trkpt lat="44.12608" lon="7.25807">
        <ele>1815.253888</ele>
        <time>2010-09-30T15:58:33Z</time>
      </trkpt>
      <trkpt lat="44.12608" lon="7.25819">
        <ele>1814.889967</ele>
        <time>2010-09-30T15:58:36Z</time>
      </trkpt>
      <trkpt lat="44.12609" lon="7.25828">
        <ele>1814.611655</ele>
        <time>2010-09-30T15:58:38Z</time>
      </trkpt>
      <trkpt lat="44.12611" lon="7.2584">
        <ele>1814.388528</ele>
        <time>2010-09-30T15:58:41Z</time>
      </trkpt>
      <trkpt lat="44.12613" lon="7.25848">
        <ele>1814.164135</ele>
        <time>2010-09-30T15:58:43Z</time>
      </trkpt>
      <trkpt lat="44.12615" lon="7.25855">
        <ele>1813.891274</ele>
        <time>2010-09-30T15:58:45Z</time>
      </trkpt>
      <trkpt lat="44.12619" lon="7.25869">
        <ele>1813.549456</ele>
        <time>2010-09-30T15:58:48Z</time>
      </trkpt>
      <trkpt lat="44.12621" lon="7.2588">
        <ele>1813.160996</ele>
        <time>2010-09-30T15:58:51Z</time>
      </trkpt>
      <trkpt lat="44.12623" lon="7.25886">
        <ele>1812.780858</ele>
        <time>2010-09-30T15:58:53Z</time>
      </trkpt>
      <trkpt lat="44.12624" lon="7.25893">
        <ele>1812.42328</ele>
        <time>2010-09-30T15:58:55Z</time>
      </trkpt>
      <trkpt lat="44.12629" lon="7.25903">
        <ele>1812.033377</ele>
        <time>2010-09-30T15:58:58Z</time>
      </trkpt>
      <trkpt lat="44.12632" lon="7.25909">
        <ele>1811.607637</ele>
        <time>2010-09-30T15:59:00Z</time>
      </trkpt>
      <trkpt lat="44.12634" lon="7.25915">
        <ele>1811.209303</ele>
        <time>2010-09-30T15:59:02Z</time>
      </trkpt>
      <trkpt lat="44.12635" lon="7.25921">
        <ele>1810.843744</ele>
        <time>2010-09-30T15:59:05Z</time>
      </trkpt>
      <trkpt lat="44.12635" lon="7.25927">
        <ele>1810.459398</ele>
        <time>2010-09-30T15:59:07Z</time>
      </trkpt>
      <trkpt lat="44.12634" lon="7.25937">
        <ele>1810.031667</ele>
        <time>2010-09-30T15:59:10Z</time>
      </trkpt>
      <trkpt lat="44.12632" lon="7.25945">
        <ele>1809.532467</ele>
        <time>2010-09-30T15:59:12Z</time>
      </trkpt>
      <trkpt lat="44.12631" lon="7.25957">
        <ele>1808.952265</ele>
        <time>2010-09-30T15:59:15Z</time>
      </trkpt>
      <trkpt lat="44.1263" lon="7.25964">
        <ele>1808.335464</ele>
        <time>2010-09-30T15:59:17Z</time>
      </trkpt>
      <trkpt lat="44.12628" lon="7.25973">
        <ele>1807.734668</ele>
        <time>2010-09-30T15:59:20Z</time>
      </trkpt>
      <trkpt lat="44.12626" lon="7.25982">
        <ele>1807.165847</ele>
        <time>2010-09-30T15:59:23Z</time>
      </trkpt>
      <trkpt lat="44.12624" lon="7.25987">
        <ele>1806.638347</ele>
        <time>2010-09-30T15:59:25Z</time>
      </trkpt>
      <trkpt lat="44.1262" lon="7.25995">
        <ele>1806.150239</ele>
        <time>2010-09-30T15:59:28Z</time>
      </trkpt>
      <trkpt lat="44.12617" lon="7.26">
        <ele>1805.673466</ele>
        <time>2010-09-30T15:59:30Z</time>
      </trkpt>
      <trkpt lat="44.12614" lon="7.26004">
        <ele>1805.199885</ele>
        <time>2010-09-30T15:59:32Z</time>
      </trkpt>
      <trkpt lat="44.12611" lon="7.26008">
        <ele>1804.754357</ele>
        <time>2010-09-30T15:59:34Z</time>
      </trkpt>
      <trkpt lat="44.12607" lon="7.26018">
        <ele>1804.338128</ele>
        <time>2010-09-30T15:59:37Z</time>
      </trkpt>
      <trkpt lat="44.12605" lon="7.26027">
        <ele>1803.958524</ele>
        <time>2010-09-30T15:59:40Z</time>
      </trkpt>
      <trkpt lat="44.12606" lon="7.2604">
        <ele>1803.630438</ele>
        <time>2010-09-30T15:59:42Z</time>
      </trkpt>
      <trkpt lat="44.12609" lon="7.26059">
        <ele>1803.321914</ele>
        <time>2010-09-30T15:59:45Z</time>
      </trkpt>
      <trkpt lat="44.1261" lon="7.26075">
        <ele>1802.927052</ele>
        <time>2010-09-30T15:59:48Z</time>
      </trkpt>
      <trkpt lat="44.1261" lon="7.2608">
        <ele>1802.28414</ele>
        <time>2010-09-30T15:59:50Z</time>
      </trkpt>
      <trkpt lat="44.12609" lon="7.26086">
        <ele>1801.16252</ele>
        <time>2010-09-30T15:59:53Z</time>
      </trkpt>
      <trkpt lat="44.12609" lon="7.26086">
        <ele>1799.731746</ele>
        <time>2010-09-30T15:59:56Z</time>
      </trkpt>
    </trkseg>
  </trk>
</gpx>